<?xml version="1.0" encoding="UTF-8" standalone="no" ?>
<gpx xmlns="http://www.topografix.com/GPX/1/1" xmlns:xsi="http://www.w3.org/2001/XMLSchema-instance" creator="Kurviger.de" version="1.1" xmlns:gh="https://kurviger.de/public/schema/gpx/1.1">
<metadata>
<name>Perdèpera Resort, Cardedu</name>
<copyright author="OpenStreetMap contributors"/>
<link href="https://kurviger.de">
<text>Kurviger.de GPX</text>
</link>
<time>2022-01-03T14:10:48Z</time>
</metadata>
<trk><name>Perdèpera Resort, Cardedu</name><trkseg>
<trkpt lat="39.770918" lon="9.665894"><ele>4.63</ele><time>2022-01-03T14:10:48Z</time></trkpt>
<trkpt lat="39.771091" lon="9.665431"><ele>5.49</ele><time>2022-01-03T14:10:54Z</time></trkpt>
<trkpt lat="39.77071" lon="9.663465"><ele>12.23</ele><time>2022-01-03T14:11:00Z</time></trkpt>
<trkpt lat="39.77069" lon="9.663448"><ele>12.49</ele><time>2022-01-03T14:11:05Z</time></trkpt>
<trkpt lat="39.77062" lon="9.663453"><ele>12.81</ele><time>2022-01-03T14:11:11Z</time></trkpt>
<trkpt lat="39.770438" lon="9.663518"><ele>13.24</ele><time>2022-01-03T14:11:17Z</time></trkpt>
<trkpt lat="39.770375" lon="9.663573"><ele>13.02</ele><time>2022-01-03T14:11:23Z</time></trkpt>
<trkpt lat="39.770339" lon="9.663628"><ele>12.67</ele><time>2022-01-03T14:11:29Z</time></trkpt>
<trkpt lat="39.77032" lon="9.663971"><ele>10.7</ele><time>2022-01-03T14:11:35Z</time></trkpt>
<trkpt lat="39.770103" lon="9.664186"><ele>10.59</ele><time>2022-01-03T14:11:40Z</time></trkpt>
<trkpt lat="39.770036" lon="9.664277"><ele>10.52</ele><time>2022-01-03T14:11:46Z</time></trkpt>
<trkpt lat="39.769997" lon="9.664397"><ele>10.18</ele><time>2022-01-03T14:11:52Z</time></trkpt>
<trkpt lat="39.76995" lon="9.664431"><ele>10.24</ele><time>2022-01-03T14:11:58Z</time></trkpt>
<trkpt lat="39.769828" lon="9.664353"><ele>11.15</ele><time>2022-01-03T14:12:04Z</time></trkpt>
<trkpt lat="39.769826" lon="9.663505"><ele>13.29</ele><time>2022-01-03T14:12:11Z</time></trkpt>
<trkpt lat="39.771149" lon="9.662923"><ele>20.26</ele><time>2022-01-03T14:12:25Z</time></trkpt>
<trkpt lat="39.77477" lon="9.660889"><ele>8.76</ele><time>2022-01-03T14:12:40Z</time></trkpt>
<trkpt lat="39.776025" lon="9.660184"><ele>7.1</ele><time>2022-01-03T14:12:54Z</time></trkpt>
<trkpt lat="39.776213" lon="9.660105"><ele>7.0</ele><time>2022-01-03T14:13:08Z</time></trkpt>
<trkpt lat="39.776573" lon="9.660012"><ele>7.03</ele><time>2022-01-03T14:13:22Z</time></trkpt>
<trkpt lat="39.776896" lon="9.660036"><ele>6.2</ele><time>2022-01-03T14:13:36Z</time></trkpt>
<trkpt lat="39.777263" lon="9.660061"><ele>5.26</ele><time>2022-01-03T14:13:50Z</time></trkpt>
<trkpt lat="39.782178" lon="9.660438"><ele>5.74</ele><time>2022-01-03T14:14:04Z</time></trkpt>
<trkpt lat="39.783474" lon="9.660474"><ele>5.71</ele><time>2022-01-03T14:14:18Z</time></trkpt>
<trkpt lat="39.783793" lon="9.660468"><ele>5.68</ele><time>2022-01-03T14:14:32Z</time></trkpt>
<trkpt lat="39.78435" lon="9.66028"><ele>4.35</ele><time>2022-01-03T14:14:46Z</time></trkpt>
<trkpt lat="39.786067" lon="9.65937"><ele>6.11</ele><time>2022-01-03T14:15:00Z</time></trkpt>
<trkpt lat="39.787219" lon="9.65888"><ele>7.96</ele><time>2022-01-03T14:15:14Z</time></trkpt>
<trkpt lat="39.787287" lon="9.658834"><ele>8.03</ele><time>2022-01-03T14:15:28Z</time></trkpt>
<trkpt lat="39.787332" lon="9.658774"><ele>7.98</ele><time>2022-01-03T14:15:42Z</time></trkpt>
<trkpt lat="39.787388" lon="9.658812"><ele>8.32</ele><time>2022-01-03T14:15:42Z</time></trkpt>
<trkpt lat="39.787432" lon="9.658814"><ele>8.48</ele><time>2022-01-03T14:15:43Z</time></trkpt>
<trkpt lat="39.787506" lon="9.658754"><ele>8.5</ele><time>2022-01-03T14:15:43Z</time></trkpt>
<trkpt lat="39.787526" lon="9.658682"><ele>8.23</ele><time>2022-01-03T14:15:43Z</time></trkpt>
<trkpt lat="39.78751" lon="9.658588"><ele>7.92</ele><time>2022-01-03T14:15:44Z</time></trkpt>
<trkpt lat="39.78748" lon="9.658546"><ele>7.69</ele><time>2022-01-03T14:15:44Z</time></trkpt>
<trkpt lat="39.787394" lon="9.65852"><ele>7.29</ele><time>2022-01-03T14:15:45Z</time></trkpt>
<trkpt lat="39.787334" lon="9.658546"><ele>8.93</ele><time>2022-01-03T14:15:45Z</time></trkpt>
<trkpt lat="39.787334" lon="9.658546"><ele>8.93</ele><time>2022-01-03T14:15:45Z</time></trkpt>
<trkpt lat="39.786558" lon="9.657294"><ele>10.66</ele><time>2022-01-03T14:15:50Z</time></trkpt>
<trkpt lat="39.786169" lon="9.656737"><ele>14.68</ele><time>2022-01-03T14:15:54Z</time></trkpt>
<trkpt lat="39.784104" lon="9.653969"><ele>19.2</ele><time>2022-01-03T14:15:59Z</time></trkpt>
<trkpt lat="39.783775" lon="9.653689"><ele>20.14</ele><time>2022-01-03T14:16:03Z</time></trkpt>
<trkpt lat="39.782734" lon="9.653033"><ele>22.09</ele><time>2022-01-03T14:16:08Z</time></trkpt>
<trkpt lat="39.782514" lon="9.652981"><ele>22.93</ele><time>2022-01-03T14:16:12Z</time></trkpt>
<trkpt lat="39.781969" lon="9.652934"><ele>22.09</ele><time>2022-01-03T14:16:17Z</time></trkpt>
<trkpt lat="39.78165" lon="9.652802"><ele>20.99</ele><time>2022-01-03T14:16:21Z</time></trkpt>
<trkpt lat="39.779365" lon="9.65095"><ele>17.46</ele><time>2022-01-03T14:16:26Z</time></trkpt>
<trkpt lat="39.777348" lon="9.647709"><ele>22.95</ele><time>2022-01-03T14:16:30Z</time></trkpt>
<trkpt lat="39.77333" lon="9.640927"><ele>34.65</ele><time>2022-01-03T14:16:35Z</time></trkpt>
<trkpt lat="39.772526" lon="9.638969"><ele>38.73</ele><time>2022-01-03T14:16:39Z</time></trkpt>
<trkpt lat="39.771826" lon="9.637931"><ele>39.58</ele><time>2022-01-03T14:16:44Z</time></trkpt>
<trkpt lat="39.771561" lon="9.63757"><ele>42.19</ele><time>2022-01-03T14:16:48Z</time></trkpt>
<trkpt lat="39.770966" lon="9.63655"><ele>43.67</ele><time>2022-01-03T14:16:53Z</time></trkpt>
<trkpt lat="39.77064" lon="9.636314"><ele>43.08</ele><time>2022-01-03T14:16:57Z</time></trkpt>
<trkpt lat="39.769922" lon="9.636193"><ele>41.8</ele><time>2022-01-03T14:17:02Z</time></trkpt>
<trkpt lat="39.768694" lon="9.636068"><ele>46.86</ele><time>2022-01-03T14:17:06Z</time></trkpt>
<trkpt lat="39.768013" lon="9.636043"><ele>49.15</ele><time>2022-01-03T14:17:11Z</time></trkpt>
<trkpt lat="39.765056" lon="9.636044"><ele>57.04</ele><time>2022-01-03T14:17:15Z</time></trkpt>
<trkpt lat="39.764887" lon="9.636026"><ele>57.99</ele><time>2022-01-03T14:17:20Z</time></trkpt>
<trkpt lat="39.764721" lon="9.63595"><ele>59.01</ele><time>2022-01-03T14:17:24Z</time></trkpt>
<trkpt lat="39.764208" lon="9.63535"><ele>63.18</ele><time>2022-01-03T14:17:29Z</time></trkpt>
<trkpt lat="39.763954" lon="9.635091"><ele>67.96</ele><time>2022-01-03T14:17:33Z</time></trkpt>
<trkpt lat="39.763666" lon="9.634919"><ele>73.36</ele><time>2022-01-03T14:17:38Z</time></trkpt>
<trkpt lat="39.762575" lon="9.634444"><ele>87.36</ele><time>2022-01-03T14:17:42Z</time></trkpt>
<trkpt lat="39.762412" lon="9.634354"><ele>87.23</ele><time>2022-01-03T14:17:47Z</time></trkpt>
<trkpt lat="39.762209" lon="9.634202"><ele>87.83</ele><time>2022-01-03T14:17:51Z</time></trkpt>
<trkpt lat="39.76201" lon="9.633973"><ele>88.08</ele><time>2022-01-03T14:17:56Z</time></trkpt>
<trkpt lat="39.761944" lon="9.633614"><ele>89.98</ele><time>2022-01-03T14:18:00Z</time></trkpt>
<trkpt lat="39.76193" lon="9.63334"><ele>90.61</ele><time>2022-01-03T14:18:05Z</time></trkpt>
<trkpt lat="39.761986" lon="9.633133"><ele>92.23</ele><time>2022-01-03T14:18:09Z</time></trkpt>
<trkpt lat="39.762136" lon="9.63286"><ele>96.2</ele><time>2022-01-03T14:18:14Z</time></trkpt>
<trkpt lat="39.762402" lon="9.6326"><ele>97.92</ele><time>2022-01-03T14:18:18Z</time></trkpt>
<trkpt lat="39.762806" lon="9.63236"><ele>103.72</ele><time>2022-01-03T14:18:23Z</time></trkpt>
<trkpt lat="39.762882" lon="9.63225"><ele>105.33</ele><time>2022-01-03T14:18:27Z</time></trkpt>
<trkpt lat="39.76293" lon="9.631976"><ele>108.47</ele><time>2022-01-03T14:18:32Z</time></trkpt>
<trkpt lat="39.762651" lon="9.631186"><ele>111.73</ele><time>2022-01-03T14:18:36Z</time></trkpt>
<trkpt lat="39.762517" lon="9.630042"><ele>118.97</ele><time>2022-01-03T14:18:41Z</time></trkpt>
<trkpt lat="39.762367" lon="9.628414"><ele>125.52</ele><time>2022-01-03T14:18:46Z</time></trkpt>
<trkpt lat="39.762783" lon="9.626951"><ele>121.82</ele><time>2022-01-03T14:18:50Z</time></trkpt>
<trkpt lat="39.76305" lon="9.62635"><ele>115.77</ele><time>2022-01-03T14:18:55Z</time></trkpt>
<trkpt lat="39.763512" lon="9.625832"><ele>108.88</ele><time>2022-01-03T14:18:59Z</time></trkpt>
<trkpt lat="39.764022" lon="9.624919"><ele>99.46</ele><time>2022-01-03T14:19:04Z</time></trkpt>
<trkpt lat="39.764608" lon="9.623793"><ele>90.06</ele><time>2022-01-03T14:19:08Z</time></trkpt>
<trkpt lat="39.764717" lon="9.623484"><ele>87.64</ele><time>2022-01-03T14:19:13Z</time></trkpt>
<trkpt lat="39.764829" lon="9.623004"><ele>86.04</ele><time>2022-01-03T14:19:17Z</time></trkpt>
<trkpt lat="39.765191" lon="9.622044"><ele>82.31</ele><time>2022-01-03T14:19:22Z</time></trkpt>
<trkpt lat="39.765942" lon="9.620303"><ele>76.88</ele><time>2022-01-03T14:19:26Z</time></trkpt>
<trkpt lat="39.766739" lon="9.617839"><ele>70.96</ele><time>2022-01-03T14:19:31Z</time></trkpt>
<trkpt lat="39.766793" lon="9.617563"><ele>69.77</ele><time>2022-01-03T14:19:35Z</time></trkpt>
<trkpt lat="39.766871" lon="9.616308"><ele>68.32</ele><time>2022-01-03T14:19:40Z</time></trkpt>
<trkpt lat="39.76695" lon="9.615515"><ele>66.12</ele><time>2022-01-03T14:19:44Z</time></trkpt>
<trkpt lat="39.767096" lon="9.613184"><ele>67.76</ele><time>2022-01-03T14:19:49Z</time></trkpt>
<trkpt lat="39.767155" lon="9.612759"><ele>67.01</ele><time>2022-01-03T14:19:53Z</time></trkpt>
<trkpt lat="39.767299" lon="9.612448"><ele>66.72</ele><time>2022-01-03T14:19:58Z</time></trkpt>
<trkpt lat="39.767508" lon="9.612223"><ele>65.94</ele><time>2022-01-03T14:20:02Z</time></trkpt>
<trkpt lat="39.770283" lon="9.610316"><ele>65.26</ele><time>2022-01-03T14:20:07Z</time></trkpt>
<trkpt lat="39.770474" lon="9.610253"><ele>64.2</ele><time>2022-01-03T14:20:11Z</time></trkpt>
<trkpt lat="39.770692" lon="9.610247"><ele>64.38</ele><time>2022-01-03T14:20:16Z</time></trkpt>
<trkpt lat="39.77087" lon="9.610288"><ele>65.13</ele><time>2022-01-03T14:20:20Z</time></trkpt>
<trkpt lat="39.771141" lon="9.610414"><ele>65.35</ele><time>2022-01-03T14:20:25Z</time></trkpt>
<trkpt lat="39.771921" lon="9.610853"><ele>57.34</ele><time>2022-01-03T14:20:29Z</time></trkpt>
<trkpt lat="39.772134" lon="9.610913"><ele>56.32</ele><time>2022-01-03T14:20:34Z</time></trkpt>
<trkpt lat="39.772861" lon="9.610957"><ele>52.52</ele><time>2022-01-03T14:20:38Z</time></trkpt>
<trkpt lat="39.774427" lon="9.611012"><ele>40.8</ele><time>2022-01-03T14:20:43Z</time></trkpt>
<trkpt lat="39.774611" lon="9.611034"><ele>41.92</ele><time>2022-01-03T14:20:47Z</time></trkpt>
<trkpt lat="39.774851" lon="9.611155"><ele>42.77</ele><time>2022-01-03T14:20:52Z</time></trkpt>
<trkpt lat="39.776007" lon="9.611918"><ele>41.69</ele><time>2022-01-03T14:20:56Z</time></trkpt>
<trkpt lat="39.77636" lon="9.612101"><ele>42.16</ele><time>2022-01-03T14:21:01Z</time></trkpt>
<trkpt lat="39.77701" lon="9.612345"><ele>44.24</ele><time>2022-01-03T14:21:05Z</time></trkpt>
<trkpt lat="39.778068" lon="9.612568"><ele>53.23</ele><time>2022-01-03T14:21:10Z</time></trkpt>
<trkpt lat="39.778406" lon="9.612608"><ele>52.9</ele><time>2022-01-03T14:21:14Z</time></trkpt>
<trkpt lat="39.778685" lon="9.612618"><ele>52.57</ele><time>2022-01-03T14:21:19Z</time></trkpt>
<trkpt lat="39.778859" lon="9.612664"><ele>52.41</ele><time>2022-01-03T14:21:23Z</time></trkpt>
<trkpt lat="39.779029" lon="9.612816"><ele>52.23</ele><time>2022-01-03T14:21:28Z</time></trkpt>
<trkpt lat="39.779636" lon="9.613765"><ele>56.07</ele><time>2022-01-03T14:21:32Z</time></trkpt>
<trkpt lat="39.779729" lon="9.613872"><ele>56.89</ele><time>2022-01-03T14:21:37Z</time></trkpt>
<trkpt lat="39.77984" lon="9.61396"><ele>56.22</ele><time>2022-01-03T14:21:41Z</time></trkpt>
<trkpt lat="39.779999" lon="9.61401"><ele>55.88</ele><time>2022-01-03T14:21:46Z</time></trkpt>
<trkpt lat="39.780366" lon="9.613978"><ele>51.83</ele><time>2022-01-03T14:21:50Z</time></trkpt>
<trkpt lat="39.780895" lon="9.613902"><ele>52.3</ele><time>2022-01-03T14:21:55Z</time></trkpt>
<trkpt lat="39.782169" lon="9.613663"><ele>56.86</ele><time>2022-01-03T14:22:00Z</time></trkpt>
<trkpt lat="39.782425" lon="9.613576"><ele>58.56</ele><time>2022-01-03T14:22:04Z</time></trkpt>
<trkpt lat="39.782685" lon="9.613385"><ele>61.0</ele><time>2022-01-03T14:22:09Z</time></trkpt>
<trkpt lat="39.783433" lon="9.612502"><ele>66.45</ele><time>2022-01-03T14:22:13Z</time></trkpt>
<trkpt lat="39.783937" lon="9.611861"><ele>69.59</ele><time>2022-01-03T14:22:18Z</time></trkpt>
<trkpt lat="39.784468" lon="9.611108"><ele>73.36</ele><time>2022-01-03T14:22:22Z</time></trkpt>
<trkpt lat="39.785526" lon="9.609753"><ele>62.51</ele><time>2022-01-03T14:22:27Z</time></trkpt>
<trkpt lat="39.78708" lon="9.607902"><ele>55.06</ele><time>2022-01-03T14:22:31Z</time></trkpt>
<trkpt lat="39.787283" lon="9.607781"><ele>54.99</ele><time>2022-01-03T14:22:36Z</time></trkpt>
<trkpt lat="39.787453" lon="9.607731"><ele>55.31</ele><time>2022-01-03T14:22:40Z</time></trkpt>
<trkpt lat="39.787768" lon="9.607749"><ele>55.11</ele><time>2022-01-03T14:22:45Z</time></trkpt>
<trkpt lat="39.788182" lon="9.607701"><ele>53.06</ele><time>2022-01-03T14:22:49Z</time></trkpt>
<trkpt lat="39.788328" lon="9.60763"><ele>51.6</ele><time>2022-01-03T14:22:54Z</time></trkpt>
<trkpt lat="39.78878" lon="9.607231"><ele>45.15</ele><time>2022-01-03T14:22:58Z</time></trkpt>
<trkpt lat="39.78996" lon="9.606049"><ele>49.86</ele><time>2022-01-03T14:23:03Z</time></trkpt>
<trkpt lat="39.791315" lon="9.605419"><ele>46.76</ele><time>2022-01-03T14:23:07Z</time></trkpt>
<trkpt lat="39.791689" lon="9.605163"><ele>47.33</ele><time>2022-01-03T14:23:12Z</time></trkpt>
<trkpt lat="39.792472" lon="9.604532"><ele>46.0</ele><time>2022-01-03T14:23:16Z</time></trkpt>
<trkpt lat="39.792721" lon="9.604363"><ele>45.71</ele><time>2022-01-03T14:23:21Z</time></trkpt>
<trkpt lat="39.793148" lon="9.604229"><ele>43.82</ele><time>2022-01-03T14:23:25Z</time></trkpt>
<trkpt lat="39.793685" lon="9.604146"><ele>42.32</ele><time>2022-01-03T14:23:30Z</time></trkpt>
<trkpt lat="39.793919" lon="9.604083"><ele>42.92</ele><time>2022-01-03T14:23:34Z</time></trkpt>
<trkpt lat="39.794183" lon="9.604071"><ele>42.4</ele><time>2022-01-03T14:23:39Z</time></trkpt>
<trkpt lat="39.794708" lon="9.604325"><ele>43.35</ele><time>2022-01-03T14:23:43Z</time></trkpt>
<trkpt lat="39.794876" lon="9.604363"><ele>43.85</ele><time>2022-01-03T14:23:48Z</time></trkpt>
<trkpt lat="39.795082" lon="9.604312"><ele>44.18</ele><time>2022-01-03T14:23:52Z</time></trkpt>
<trkpt lat="39.79529" lon="9.604214"><ele>43.74</ele><time>2022-01-03T14:23:57Z</time></trkpt>
<trkpt lat="39.795535" lon="9.603974"><ele>43.48</ele><time>2022-01-03T14:24:01Z</time></trkpt>
<trkpt lat="39.797203" lon="9.601757"><ele>41.63</ele><time>2022-01-03T14:24:06Z</time></trkpt>
<trkpt lat="39.797718" lon="9.600752"><ele>44.45</ele><time>2022-01-03T14:24:10Z</time></trkpt>
<trkpt lat="39.798345" lon="9.599657"><ele>46.34</ele><time>2022-01-03T14:24:15Z</time></trkpt>
<trkpt lat="39.798821" lon="9.59888"><ele>46.31</ele><time>2022-01-03T14:24:19Z</time></trkpt>
<trkpt lat="39.800614" lon="9.596043"><ele>49.23</ele><time>2022-01-03T14:24:24Z</time></trkpt>
<trkpt lat="39.800989" lon="9.595741"><ele>48.92</ele><time>2022-01-03T14:24:28Z</time></trkpt>
<trkpt lat="39.801102" lon="9.595633"><ele>48.78</ele><time>2022-01-03T14:24:33Z</time></trkpt>
<trkpt lat="39.801471" lon="9.595258"><ele>49.07</ele><time>2022-01-03T14:24:37Z</time></trkpt>
<trkpt lat="39.801689" lon="9.595097"><ele>49.52</ele><time>2022-01-03T14:24:42Z</time></trkpt>
<trkpt lat="39.801825" lon="9.595079"><ele>48.74</ele><time>2022-01-03T14:24:43Z</time></trkpt>
<trkpt lat="39.801937" lon="9.595098"><ele>48.04</ele><time>2022-01-03T14:24:44Z</time></trkpt>
<trkpt lat="39.802304" lon="9.595415"><ele>46.26</ele><time>2022-01-03T14:24:47Z</time></trkpt>
<trkpt lat="39.80314" lon="9.595983"><ele>46.31</ele><time>2022-01-03T14:24:50Z</time></trkpt>
<trkpt lat="39.804345" lon="9.59473"><ele>46.71</ele><time>2022-01-03T14:24:55Z</time></trkpt>
<trkpt lat="39.804842" lon="9.594093"><ele>47.17</ele><time>2022-01-03T14:25:00Z</time></trkpt>
<trkpt lat="39.805173" lon="9.594408"><ele>51.93</ele><time>2022-01-03T14:25:05Z</time></trkpt>
<trkpt lat="39.80557" lon="9.594672"><ele>57.83</ele><time>2022-01-03T14:25:09Z</time></trkpt>
<trkpt lat="39.806197" lon="9.594897"><ele>60.25</ele><time>2022-01-03T14:25:13Z</time></trkpt>
<trkpt lat="39.806916" lon="9.594961"><ele>63.99</ele><time>2022-01-03T14:25:17Z</time></trkpt>
<trkpt lat="39.807917" lon="9.594793"><ele>68.49</ele><time>2022-01-03T14:25:22Z</time></trkpt>
<trkpt lat="39.808217" lon="9.594779"><ele>67.81</ele><time>2022-01-03T14:25:26Z</time></trkpt>
<trkpt lat="39.809508" lon="9.594446"><ele>77.42</ele><time>2022-01-03T14:25:30Z</time></trkpt>
<trkpt lat="39.809665" lon="9.594521"><ele>77.81</ele><time>2022-01-03T14:25:35Z</time></trkpt>
<trkpt lat="39.809753" lon="9.59466"><ele>77.93</ele><time>2022-01-03T14:25:39Z</time></trkpt>
<trkpt lat="39.809732" lon="9.594886"><ele>77.76</ele><time>2022-01-03T14:25:43Z</time></trkpt>
<trkpt lat="39.809578" lon="9.595187"><ele>75.55</ele><time>2022-01-03T14:25:47Z</time></trkpt>
<trkpt lat="39.809569" lon="9.595401"><ele>76.33</ele><time>2022-01-03T14:25:52Z</time></trkpt>
<trkpt lat="39.809666" lon="9.595519"><ele>76.95</ele><time>2022-01-03T14:25:56Z</time></trkpt>
<trkpt lat="39.809825" lon="9.595551"><ele>78.14</ele><time>2022-01-03T14:26:00Z</time></trkpt>
<trkpt lat="39.810686" lon="9.595135"><ele>87.82</ele><time>2022-01-03T14:26:05Z</time></trkpt>
<trkpt lat="39.810895" lon="9.594972"><ele>92.15</ele><time>2022-01-03T14:26:09Z</time></trkpt>
<trkpt lat="39.811098" lon="9.594778"><ele>95.74</ele><time>2022-01-03T14:26:13Z</time></trkpt>
<trkpt lat="39.811269" lon="9.59468"><ele>98.75</ele><time>2022-01-03T14:26:17Z</time></trkpt>
<trkpt lat="39.811502" lon="9.594672"><ele>99.82</ele><time>2022-01-03T14:26:22Z</time></trkpt>
<trkpt lat="39.811699" lon="9.594637"><ele>101.08</ele><time>2022-01-03T14:26:26Z</time></trkpt>
<trkpt lat="39.812305" lon="9.594482"><ele>105.48</ele><time>2022-01-03T14:26:30Z</time></trkpt>
<trkpt lat="39.81247" lon="9.594401"><ele>107.36</ele><time>2022-01-03T14:26:35Z</time></trkpt>
<trkpt lat="39.812629" lon="9.594241"><ele>110.94</ele><time>2022-01-03T14:26:39Z</time></trkpt>
<trkpt lat="39.812849" lon="9.59406"><ele>114.9</ele><time>2022-01-03T14:26:43Z</time></trkpt>
<trkpt lat="39.813113" lon="9.593944"><ele>118.64</ele><time>2022-01-03T14:26:47Z</time></trkpt>
<trkpt lat="39.813317" lon="9.593947"><ele>120.0</ele><time>2022-01-03T14:26:52Z</time></trkpt>
<trkpt lat="39.81346" lon="9.594041"><ele>118.98</ele><time>2022-01-03T14:26:56Z</time></trkpt>
<trkpt lat="39.813515" lon="9.59422"><ele>116.48</ele><time>2022-01-03T14:27:00Z</time></trkpt>
<trkpt lat="39.813511" lon="9.594994"><ele>112.5</ele><time>2022-01-03T14:27:05Z</time></trkpt>
<trkpt lat="39.813611" lon="9.595094"><ele>113.64</ele><time>2022-01-03T14:27:09Z</time></trkpt>
<trkpt lat="39.813664" lon="9.595093"><ele>113.79</ele><time>2022-01-03T14:27:13Z</time></trkpt>
<trkpt lat="39.813797" lon="9.595055"><ele>114.74</ele><time>2022-01-03T14:27:17Z</time></trkpt>
<trkpt lat="39.814001" lon="9.59487"><ele>118.57</ele><time>2022-01-03T14:27:22Z</time></trkpt>
<trkpt lat="39.814938" lon="9.594258"><ele>131.52</ele><time>2022-01-03T14:27:26Z</time></trkpt>
<trkpt lat="39.815482" lon="9.593737"><ele>141.31</ele><time>2022-01-03T14:27:30Z</time></trkpt>
<trkpt lat="39.815785" lon="9.593561"><ele>145.98</ele><time>2022-01-03T14:27:34Z</time></trkpt>
<trkpt lat="39.816072" lon="9.59345"><ele>148.18</ele><time>2022-01-03T14:27:39Z</time></trkpt>
<trkpt lat="39.816574" lon="9.593212"><ele>144.93</ele><time>2022-01-03T14:27:43Z</time></trkpt>
<trkpt lat="39.816836" lon="9.592957"><ele>148.0</ele><time>2022-01-03T14:27:47Z</time></trkpt>
<trkpt lat="39.817072" lon="9.592671"><ele>151.98</ele><time>2022-01-03T14:27:52Z</time></trkpt>
<trkpt lat="39.817266" lon="9.59253"><ele>154.26</ele><time>2022-01-03T14:27:56Z</time></trkpt>
<trkpt lat="39.817454" lon="9.592461"><ele>156.25</ele><time>2022-01-03T14:28:00Z</time></trkpt>
<trkpt lat="39.817844" lon="9.592375"><ele>158.13</ele><time>2022-01-03T14:28:04Z</time></trkpt>
<trkpt lat="39.818166" lon="9.592235"><ele>158.18</ele><time>2022-01-03T14:28:09Z</time></trkpt>
<trkpt lat="39.819112" lon="9.591484"><ele>169.45</ele><time>2022-01-03T14:28:13Z</time></trkpt>
<trkpt lat="39.819238" lon="9.591308"><ele>170.99</ele><time>2022-01-03T14:28:17Z</time></trkpt>
<trkpt lat="39.819255" lon="9.591134"><ele>171.58</ele><time>2022-01-03T14:28:22Z</time></trkpt>
<trkpt lat="39.819167" lon="9.590967"><ele>171.52</ele><time>2022-01-03T14:28:26Z</time></trkpt>
<trkpt lat="39.818742" lon="9.590519"><ele>171.48</ele><time>2022-01-03T14:28:30Z</time></trkpt>
<trkpt lat="39.818634" lon="9.590283"><ele>168.08</ele><time>2022-01-03T14:28:33Z</time></trkpt>
<trkpt lat="39.818634" lon="9.590027"><ele>165.51</ele><time>2022-01-03T14:28:37Z</time></trkpt>
<trkpt lat="39.818758" lon="9.589929"><ele>167.88</ele><time>2022-01-03T14:28:41Z</time></trkpt>
<trkpt lat="39.818928" lon="9.589878"><ele>171.53</ele><time>2022-01-03T14:28:45Z</time></trkpt>
<trkpt lat="39.819417" lon="9.589868"><ele>173.86</ele><time>2022-01-03T14:28:49Z</time></trkpt>
<trkpt lat="39.81963" lon="9.589788"><ele>178.3</ele><time>2022-01-03T14:28:53Z</time></trkpt>
<trkpt lat="39.82118" lon="9.588634"><ele>197.94</ele><time>2022-01-03T14:28:57Z</time></trkpt>
<trkpt lat="39.82148" lon="9.588367"><ele>192.34</ele><time>2022-01-03T14:29:01Z</time></trkpt>
<trkpt lat="39.821591" lon="9.58817"><ele>189.86</ele><time>2022-01-03T14:29:05Z</time></trkpt>
<trkpt lat="39.821624" lon="9.587978"><ele>191.77</ele><time>2022-01-03T14:29:09Z</time></trkpt>
<trkpt lat="39.821594" lon="9.587757"><ele>197.66</ele><time>2022-01-03T14:29:13Z</time></trkpt>
<trkpt lat="39.8216" lon="9.587521"><ele>200.17</ele><time>2022-01-03T14:29:17Z</time></trkpt>
<trkpt lat="39.821675" lon="9.587279"><ele>201.0</ele><time>2022-01-03T14:29:21Z</time></trkpt>
<trkpt lat="39.821778" lon="9.586843"><ele>206.35</ele><time>2022-01-03T14:29:25Z</time></trkpt>
<trkpt lat="39.821798" lon="9.586485"><ele>209.44</ele><time>2022-01-03T14:29:29Z</time></trkpt>
<trkpt lat="39.821758" lon="9.586217"><ele>211.37</ele><time>2022-01-03T14:29:33Z</time></trkpt>
<trkpt lat="39.821634" lon="9.585906"><ele>213.51</ele><time>2022-01-03T14:29:37Z</time></trkpt>
<trkpt lat="39.821624" lon="9.585681"><ele>212.69</ele><time>2022-01-03T14:29:41Z</time></trkpt>
<trkpt lat="39.821732" lon="9.585423"><ele>211.85</ele><time>2022-01-03T14:29:45Z</time></trkpt>
<trkpt lat="39.821754" lon="9.585178"><ele>213.17</ele><time>2022-01-03T14:29:49Z</time></trkpt>
<trkpt lat="39.821657" lon="9.584629"><ele>214.58</ele><time>2022-01-03T14:29:53Z</time></trkpt>
<trkpt lat="39.821672" lon="9.584328"><ele>216.19</ele><time>2022-01-03T14:29:56Z</time></trkpt>
<trkpt lat="39.821706" lon="9.584163"><ele>217.48</ele><time>2022-01-03T14:30:00Z</time></trkpt>
<trkpt lat="39.82175" lon="9.584083"><ele>217.91</ele><time>2022-01-03T14:30:04Z</time></trkpt>
<trkpt lat="39.822227" lon="9.583428"><ele>219.29</ele><time>2022-01-03T14:30:08Z</time></trkpt>
<trkpt lat="39.82245" lon="9.582838"><ele>229.92</ele><time>2022-01-03T14:30:12Z</time></trkpt>
<trkpt lat="39.822786" lon="9.582505"><ele>228.98</ele><time>2022-01-03T14:30:16Z</time></trkpt>
<trkpt lat="39.823" lon="9.58225"><ele>231.52</ele><time>2022-01-03T14:30:20Z</time></trkpt>
<trkpt lat="39.823333" lon="9.581951"><ele>235.88</ele><time>2022-01-03T14:30:24Z</time></trkpt>
<trkpt lat="39.823948" lon="9.581563"><ele>242.12</ele><time>2022-01-03T14:30:28Z</time></trkpt>
<trkpt lat="39.824083" lon="9.581517"><ele>242.61</ele><time>2022-01-03T14:30:32Z</time></trkpt>
<trkpt lat="39.824207" lon="9.581544"><ele>242.85</ele><time>2022-01-03T14:30:36Z</time></trkpt>
<trkpt lat="39.824298" lon="9.581703"><ele>243.02</ele><time>2022-01-03T14:30:40Z</time></trkpt>
<trkpt lat="39.82429" lon="9.581966"><ele>243.85</ele><time>2022-01-03T14:30:44Z</time></trkpt>
<trkpt lat="39.8242" lon="9.582393"><ele>245.62</ele><time>2022-01-03T14:30:48Z</time></trkpt>
<trkpt lat="39.824179" lon="9.582612"><ele>246.29</ele><time>2022-01-03T14:30:52Z</time></trkpt>
<trkpt lat="39.824239" lon="9.582878"><ele>248.55</ele><time>2022-01-03T14:30:56Z</time></trkpt>
<trkpt lat="39.824252" lon="9.583065"><ele>250.22</ele><time>2022-01-03T14:31:00Z</time></trkpt>
<trkpt lat="39.824211" lon="9.583256"><ele>250.57</ele><time>2022-01-03T14:31:04Z</time></trkpt>
<trkpt lat="39.823816" lon="9.584372"><ele>252.18</ele><time>2022-01-03T14:31:08Z</time></trkpt>
<trkpt lat="39.823766" lon="9.584672"><ele>250.92</ele><time>2022-01-03T14:31:12Z</time></trkpt>
<trkpt lat="39.823849" lon="9.58479"><ele>251.2</ele><time>2022-01-03T14:31:15Z</time></trkpt>
<trkpt lat="39.824024" lon="9.58477"><ele>253.1</ele><time>2022-01-03T14:31:19Z</time></trkpt>
<trkpt lat="39.825367" lon="9.584127"><ele>281.62</ele><time>2022-01-03T14:31:23Z</time></trkpt>
<trkpt lat="39.825646" lon="9.583964"><ele>285.6</ele><time>2022-01-03T14:31:27Z</time></trkpt>
<trkpt lat="39.825898" lon="9.583932"><ele>286.11</ele><time>2022-01-03T14:31:31Z</time></trkpt>
<trkpt lat="39.826096" lon="9.583985"><ele>285.2</ele><time>2022-01-03T14:31:35Z</time></trkpt>
<trkpt lat="39.826295" lon="9.584014"><ele>286.02</ele><time>2022-01-03T14:31:39Z</time></trkpt>
<trkpt lat="39.826517" lon="9.583987"><ele>287.69</ele><time>2022-01-03T14:31:43Z</time></trkpt>
<trkpt lat="39.826748" lon="9.583866"><ele>290.97</ele><time>2022-01-03T14:31:47Z</time></trkpt>
<trkpt lat="39.827291" lon="9.583394"><ele>300.67</ele><time>2022-01-03T14:31:51Z</time></trkpt>
<trkpt lat="39.827922" lon="9.582731"><ele>304.49</ele><time>2022-01-03T14:31:55Z</time></trkpt>
<trkpt lat="39.828424" lon="9.582333"><ele>305.07</ele><time>2022-01-03T14:31:59Z</time></trkpt>
<trkpt lat="39.828614" lon="9.582101"><ele>306.36</ele><time>2022-01-03T14:32:03Z</time></trkpt>
<trkpt lat="39.828662" lon="9.581893"><ele>308.98</ele><time>2022-01-03T14:32:07Z</time></trkpt>
<trkpt lat="39.82867" lon="9.581668"><ele>310.22</ele><time>2022-01-03T14:32:11Z</time></trkpt>
<trkpt lat="39.828538" lon="9.581378"><ele>313.25</ele><time>2022-01-03T14:32:15Z</time></trkpt>
<trkpt lat="39.828247" lon="9.580834"><ele>314.63</ele><time>2022-01-03T14:32:19Z</time></trkpt>
<trkpt lat="39.827919" lon="9.580037"><ele>315.41</ele><time>2022-01-03T14:32:23Z</time></trkpt>
<trkpt lat="39.827797" lon="9.579233"><ele>320.38</ele><time>2022-01-03T14:32:27Z</time></trkpt>
<trkpt lat="39.827665" lon="9.578568"><ele>322.68</ele><time>2022-01-03T14:32:31Z</time></trkpt>
<trkpt lat="39.82771" lon="9.577998"><ele>325.73</ele><time>2022-01-03T14:32:34Z</time></trkpt>
<trkpt lat="39.827647" lon="9.577828"><ele>326.61</ele><time>2022-01-03T14:32:38Z</time></trkpt>
<trkpt lat="39.827567" lon="9.577733"><ele>327.17</ele><time>2022-01-03T14:32:42Z</time></trkpt>
<trkpt lat="39.827136" lon="9.577677"><ele>327.48</ele><time>2022-01-03T14:32:46Z</time></trkpt>
<trkpt lat="39.826627" lon="9.577484"><ele>337.54</ele><time>2022-01-03T14:32:50Z</time></trkpt>
<trkpt lat="39.826245" lon="9.577442"><ele>338.11</ele><time>2022-01-03T14:32:54Z</time></trkpt>
<trkpt lat="39.825943" lon="9.577484"><ele>337.04</ele><time>2022-01-03T14:32:58Z</time></trkpt>
<trkpt lat="39.825744" lon="9.577551"><ele>334.38</ele><time>2022-01-03T14:33:02Z</time></trkpt>
<trkpt lat="39.825645" lon="9.577473"><ele>335.55</ele><time>2022-01-03T14:33:06Z</time></trkpt>
<trkpt lat="39.825587" lon="9.57728"><ele>339.08</ele><time>2022-01-03T14:33:10Z</time></trkpt>
<trkpt lat="39.825605" lon="9.576997"><ele>341.78</ele><time>2022-01-03T14:33:14Z</time></trkpt>
<trkpt lat="39.825684" lon="9.576757"><ele>344.45</ele><time>2022-01-03T14:33:18Z</time></trkpt>
<trkpt lat="39.825901" lon="9.576379"><ele>350.37</ele><time>2022-01-03T14:33:22Z</time></trkpt>
<trkpt lat="39.826056" lon="9.576046"><ele>350.55</ele><time>2022-01-03T14:33:26Z</time></trkpt>
<trkpt lat="39.826405" lon="9.574984"><ele>352.22</ele><time>2022-01-03T14:33:30Z</time></trkpt>
<trkpt lat="39.826564" lon="9.574823"><ele>353.71</ele><time>2022-01-03T14:33:34Z</time></trkpt>
<trkpt lat="39.826937" lon="9.574564"><ele>360.82</ele><time>2022-01-03T14:33:38Z</time></trkpt>
<trkpt lat="39.827065" lon="9.574389"><ele>364.59</ele><time>2022-01-03T14:33:42Z</time></trkpt>
<trkpt lat="39.827105" lon="9.574138"><ele>366.2</ele><time>2022-01-03T14:33:46Z</time></trkpt>
<trkpt lat="39.82705" lon="9.5739"><ele>366.21</ele><time>2022-01-03T14:33:50Z</time></trkpt>
<trkpt lat="39.826692" lon="9.572977"><ele>368.29</ele><time>2022-01-03T14:33:54Z</time></trkpt>
<trkpt lat="39.826624" lon="9.57272"><ele>367.86</ele><time>2022-01-03T14:33:57Z</time></trkpt>
<trkpt lat="39.826592" lon="9.571862"><ele>368.65</ele><time>2022-01-03T14:34:01Z</time></trkpt>
<trkpt lat="39.826593" lon="9.571551"><ele>369.08</ele><time>2022-01-03T14:34:05Z</time></trkpt>
<trkpt lat="39.826644" lon="9.571025"><ele>370.59</ele><time>2022-01-03T14:34:09Z</time></trkpt>
<trkpt lat="39.826661" lon="9.570542"><ele>370.96</ele><time>2022-01-03T14:34:13Z</time></trkpt>
<trkpt lat="39.826636" lon="9.570188"><ele>372.31</ele><time>2022-01-03T14:34:17Z</time></trkpt>
<trkpt lat="39.826593" lon="9.569963"><ele>373.54</ele><time>2022-01-03T14:34:21Z</time></trkpt>
<trkpt lat="39.826618" lon="9.56977"><ele>375.42</ele><time>2022-01-03T14:34:25Z</time></trkpt>
<trkpt lat="39.826732" lon="9.569622"><ele>377.14</ele><time>2022-01-03T14:34:29Z</time></trkpt>
<trkpt lat="39.826875" lon="9.569577"><ele>377.54</ele><time>2022-01-03T14:34:33Z</time></trkpt>
<trkpt lat="39.827046" lon="9.569617"><ele>378.11</ele><time>2022-01-03T14:34:37Z</time></trkpt>
<trkpt lat="39.82716" lon="9.569729"><ele>378.53</ele><time>2022-01-03T14:34:41Z</time></trkpt>
<trkpt lat="39.827208" lon="9.569917"><ele>378.2</ele><time>2022-01-03T14:34:45Z</time></trkpt>
<trkpt lat="39.827183" lon="9.570754"><ele>381.04</ele><time>2022-01-03T14:34:49Z</time></trkpt>
<trkpt lat="39.827203" lon="9.570972"><ele>382.02</ele><time>2022-01-03T14:34:53Z</time></trkpt>
<trkpt lat="39.82753" lon="9.571846"><ele>392.89</ele><time>2022-01-03T14:34:57Z</time></trkpt>
<trkpt lat="39.827711" lon="9.572425"><ele>395.02</ele><time>2022-01-03T14:35:01Z</time></trkpt>
<trkpt lat="39.827833" lon="9.57305"><ele>396.22</ele><time>2022-01-03T14:35:05Z</time></trkpt>
<trkpt lat="39.827945" lon="9.573364"><ele>399.35</ele><time>2022-01-03T14:35:09Z</time></trkpt>
<trkpt lat="39.828089" lon="9.573577"><ele>403.24</ele><time>2022-01-03T14:35:13Z</time></trkpt>
<trkpt lat="39.82815" lon="9.573808"><ele>401.65</ele><time>2022-01-03T14:35:16Z</time></trkpt>
<trkpt lat="39.828154" lon="9.574005"><ele>399.08</ele><time>2022-01-03T14:35:20Z</time></trkpt>
<trkpt lat="39.828227" lon="9.574136"><ele>399.09</ele><time>2022-01-03T14:35:24Z</time></trkpt>
<trkpt lat="39.828329" lon="9.574116"><ele>401.64</ele><time>2022-01-03T14:35:28Z</time></trkpt>
<trkpt lat="39.828483" lon="9.574"><ele>402.64</ele><time>2022-01-03T14:35:32Z</time></trkpt>
<trkpt lat="39.828967" lon="9.573467"><ele>411.53</ele><time>2022-01-03T14:35:36Z</time></trkpt>
<trkpt lat="39.829156" lon="9.573307"><ele>415.72</ele><time>2022-01-03T14:35:40Z</time></trkpt>
<trkpt lat="39.829338" lon="9.573235"><ele>417.25</ele><time>2022-01-03T14:35:44Z</time></trkpt>
<trkpt lat="39.829654" lon="9.573162"><ele>418.4</ele><time>2022-01-03T14:35:48Z</time></trkpt>
<trkpt lat="39.830183" lon="9.57295"><ele>419.16</ele><time>2022-01-03T14:35:52Z</time></trkpt>
<trkpt lat="39.830757" lon="9.572468"><ele>423.63</ele><time>2022-01-03T14:35:56Z</time></trkpt>
<trkpt lat="39.830971" lon="9.572108"><ele>428.71</ele><time>2022-01-03T14:36:00Z</time></trkpt>
<trkpt lat="39.831348" lon="9.571261"><ele>428.93</ele><time>2022-01-03T14:36:04Z</time></trkpt>
<trkpt lat="39.831421" lon="9.570981"><ele>434.07</ele><time>2022-01-03T14:36:08Z</time></trkpt>
<trkpt lat="39.831462" lon="9.570874"><ele>435.5</ele><time>2022-01-03T14:36:12Z</time></trkpt>
<trkpt lat="39.832054" lon="9.570482"><ele>432.89</ele><time>2022-01-03T14:36:16Z</time></trkpt>
<trkpt lat="39.832436" lon="9.570156"><ele>435.09</ele><time>2022-01-03T14:36:20Z</time></trkpt>
<trkpt lat="39.83265" lon="9.570024"><ele>436.23</ele><time>2022-01-03T14:36:24Z</time></trkpt>
<trkpt lat="39.832862" lon="9.56998"><ele>435.67</ele><time>2022-01-03T14:36:28Z</time></trkpt>
<trkpt lat="39.833531" lon="9.56989"><ele>433.26</ele><time>2022-01-03T14:36:32Z</time></trkpt>
<trkpt lat="39.833701" lon="9.569824"><ele>433.76</ele><time>2022-01-03T14:36:36Z</time></trkpt>
<trkpt lat="39.833865" lon="9.569671"><ele>435.09</ele><time>2022-01-03T14:36:39Z</time></trkpt>
<trkpt lat="39.833949" lon="9.569514"><ele>435.98</ele><time>2022-01-03T14:36:43Z</time></trkpt>
<trkpt lat="39.833947" lon="9.569304"><ele>437.06</ele><time>2022-01-03T14:36:47Z</time></trkpt>
<trkpt lat="39.83387" lon="9.568846"><ele>438.58</ele><time>2022-01-03T14:36:51Z</time></trkpt>
<trkpt lat="39.833907" lon="9.56863"><ele>440.86</ele><time>2022-01-03T14:36:55Z</time></trkpt>
<trkpt lat="39.834356" lon="9.567514"><ele>445.32</ele><time>2022-01-03T14:36:59Z</time></trkpt>
<trkpt lat="39.834605" lon="9.566654"><ele>445.92</ele><time>2022-01-03T14:37:03Z</time></trkpt>
<trkpt lat="39.834724" lon="9.566481"><ele>447.31</ele><time>2022-01-03T14:37:07Z</time></trkpt>
<trkpt lat="39.834913" lon="9.566358"><ele>446.25</ele><time>2022-01-03T14:37:11Z</time></trkpt>
<trkpt lat="39.835855" lon="9.56595"><ele>436.97</ele><time>2022-01-03T14:37:15Z</time></trkpt>
<trkpt lat="39.835997" lon="9.565843"><ele>439.67</ele><time>2022-01-03T14:37:19Z</time></trkpt>
<trkpt lat="39.836717" lon="9.566184"><ele>442.28</ele><time>2022-01-03T14:37:21Z</time></trkpt>
<trkpt lat="39.836865" lon="9.56627"><ele>441.82</ele><time>2022-01-03T14:37:22Z</time></trkpt>
<trkpt lat="39.836951" lon="9.566272"><ele>443.05</ele><time>2022-01-03T14:37:24Z</time></trkpt>
<trkpt lat="39.837145" lon="9.566162"><ele>449.78</ele><time>2022-01-03T14:37:26Z</time></trkpt>
<trkpt lat="39.837318" lon="9.566302"><ele>448.31</ele><time>2022-01-03T14:37:27Z</time></trkpt>
<trkpt lat="39.837429" lon="9.566369"><ele>447.68</ele><time>2022-01-03T14:37:29Z</time></trkpt>
<trkpt lat="39.837627" lon="9.56639"><ele>449.77</ele><time>2022-01-03T14:37:31Z</time></trkpt>
<trkpt lat="39.837866" lon="9.56638"><ele>452.65</ele><time>2022-01-03T14:37:33Z</time></trkpt>
<trkpt lat="39.837991" lon="9.566355"><ele>453.99</ele><time>2022-01-03T14:37:34Z</time></trkpt>
<trkpt lat="39.838089" lon="9.566371"><ele>454.7</ele><time>2022-01-03T14:37:36Z</time></trkpt>
<trkpt lat="39.83817" lon="9.566465"><ele>455.3</ele><time>2022-01-03T14:37:38Z</time></trkpt>
<trkpt lat="39.838241" lon="9.566795"><ele>454.34</ele><time>2022-01-03T14:37:39Z</time></trkpt>
<trkpt lat="39.838253" lon="9.567045"><ele>454.68</ele><time>2022-01-03T14:37:41Z</time></trkpt>
<trkpt lat="39.838039" lon="9.568107"><ele>451.64</ele><time>2022-01-03T14:37:43Z</time></trkpt>
<trkpt lat="39.838006" lon="9.568418"><ele>452.4</ele><time>2022-01-03T14:37:44Z</time></trkpt>
<trkpt lat="39.838014" lon="9.568675"><ele>453.89</ele><time>2022-01-03T14:37:46Z</time></trkpt>
<trkpt lat="39.838426" lon="9.570188"><ele>462.32</ele><time>2022-01-03T14:37:48Z</time></trkpt>
<trkpt lat="39.838727" lon="9.57069"><ele>466.5</ele><time>2022-01-03T14:37:49Z</time></trkpt>
<trkpt lat="39.838871" lon="9.570854"><ele>467.25</ele><time>2022-01-03T14:37:51Z</time></trkpt>
<trkpt lat="39.838966" lon="9.570915"><ele>468.84</ele><time>2022-01-03T14:37:53Z</time></trkpt>
<trkpt lat="39.839126" lon="9.570929"><ele>472.9</ele><time>2022-01-03T14:37:54Z</time></trkpt>
<trkpt lat="39.839221" lon="9.57099"><ele>474.79</ele><time>2022-01-03T14:37:56Z</time></trkpt>
<trkpt lat="39.839283" lon="9.571186"><ele>474.48</ele><time>2022-01-03T14:37:58Z</time></trkpt>
<trkpt lat="39.839241" lon="9.571401"><ele>470.66</ele><time>2022-01-03T14:37:59Z</time></trkpt>
<trkpt lat="39.839254" lon="9.57158"><ele>470.68</ele><time>2022-01-03T14:38:01Z</time></trkpt>
<trkpt lat="39.839414" lon="9.572087"><ele>471.84</ele><time>2022-01-03T14:38:03Z</time></trkpt>
<trkpt lat="39.839406" lon="9.57227"><ele>471.04</ele><time>2022-01-03T14:38:05Z</time></trkpt>
<trkpt lat="39.83934" lon="9.572441"><ele>470.72</ele><time>2022-01-03T14:38:06Z</time></trkpt>
<trkpt lat="39.839196" lon="9.572696"><ele>471.84</ele><time>2022-01-03T14:38:08Z</time></trkpt>
<trkpt lat="39.838842" lon="9.573104"><ele>466.33</ele><time>2022-01-03T14:38:10Z</time></trkpt>
<trkpt lat="39.838603" lon="9.573469"><ele>465.06</ele><time>2022-01-03T14:38:11Z</time></trkpt>
<trkpt lat="39.838579" lon="9.57363"><ele>467.56</ele><time>2022-01-03T14:38:13Z</time></trkpt>
<trkpt lat="39.838615" lon="9.573836"><ele>469.95</ele><time>2022-01-03T14:38:15Z</time></trkpt>
<trkpt lat="39.838665" lon="9.573997"><ele>471.81</ele><time>2022-01-03T14:38:16Z</time></trkpt>
<trkpt lat="39.838645" lon="9.574188"><ele>471.46</ele><time>2022-01-03T14:38:18Z</time></trkpt>
<trkpt lat="39.838468" lon="9.574693"><ele>471.06</ele><time>2022-01-03T14:38:20Z</time></trkpt>
<trkpt lat="39.83848" lon="9.574794"><ele>471.61</ele><time>2022-01-03T14:38:21Z</time></trkpt>
<trkpt lat="39.838534" lon="9.574833"><ele>473.2</ele><time>2022-01-03T14:38:23Z</time></trkpt>
<trkpt lat="39.838884" lon="9.574811"><ele>480.59</ele><time>2022-01-03T14:38:25Z</time></trkpt>
<trkpt lat="39.840362" lon="9.574101"><ele>489.18</ele><time>2022-01-03T14:38:26Z</time></trkpt>
<trkpt lat="39.840896" lon="9.573844"><ele>493.12</ele><time>2022-01-03T14:38:28Z</time></trkpt>
<trkpt lat="39.841124" lon="9.573715"><ele>491.37</ele><time>2022-01-03T14:38:29Z</time></trkpt>
<trkpt lat="39.841322" lon="9.573512"><ele>494.08</ele><time>2022-01-03T14:38:31Z</time></trkpt>
<trkpt lat="39.841713" lon="9.572935"><ele>499.41</ele><time>2022-01-03T14:38:32Z</time></trkpt>
<trkpt lat="39.841742" lon="9.572793"><ele>500.61</ele><time>2022-01-03T14:38:34Z</time></trkpt>
<trkpt lat="39.841717" lon="9.572664"><ele>501.69</ele><time>2022-01-03T14:38:35Z</time></trkpt>
<trkpt lat="39.841536" lon="9.572246"><ele>504.88</ele><time>2022-01-03T14:38:37Z</time></trkpt>
<trkpt lat="39.841503" lon="9.572052"><ele>506.22</ele><time>2022-01-03T14:38:38Z</time></trkpt>
<trkpt lat="39.841573" lon="9.571851"><ele>507.13</ele><time>2022-01-03T14:38:40Z</time></trkpt>
<trkpt lat="39.841762" lon="9.571583"><ele>509.46</ele><time>2022-01-03T14:38:41Z</time></trkpt>
<trkpt lat="39.841935" lon="9.571454"><ele>511.04</ele><time>2022-01-03T14:38:43Z</time></trkpt>
<trkpt lat="39.84231" lon="9.571398"><ele>512.15</ele><time>2022-01-03T14:38:44Z</time></trkpt>
<trkpt lat="39.842561" lon="9.571433"><ele>512.65</ele><time>2022-01-03T14:38:46Z</time></trkpt>
<trkpt lat="39.842796" lon="9.571613"><ele>511.12</ele><time>2022-01-03T14:38:47Z</time></trkpt>
<trkpt lat="39.842953" lon="9.571688"><ele>510.78</ele><time>2022-01-03T14:38:49Z</time></trkpt>
<trkpt lat="39.843097" lon="9.57168"><ele>512.15</ele><time>2022-01-03T14:38:50Z</time></trkpt>
<trkpt lat="39.843259" lon="9.571575"><ele>516.17</ele><time>2022-01-03T14:38:52Z</time></trkpt>
<trkpt lat="39.843561" lon="9.571181"><ele>520.72</ele><time>2022-01-03T14:38:53Z</time></trkpt>
<trkpt lat="39.843722" lon="9.570894"><ele>520.44</ele><time>2022-01-03T14:38:55Z</time></trkpt>
<trkpt lat="39.843761" lon="9.570726"><ele>521.15</ele><time>2022-01-03T14:38:56Z</time></trkpt>
<trkpt lat="39.843727" lon="9.570572"><ele>523.36</ele><time>2022-01-03T14:38:58Z</time></trkpt>
<trkpt lat="39.84357" lon="9.570158"><ele>525.66</ele><time>2022-01-03T14:38:59Z</time></trkpt>
<trkpt lat="39.843544" lon="9.569752"><ele>526.42</ele><time>2022-01-03T14:39:01Z</time></trkpt>
<trkpt lat="39.843583" lon="9.569453"><ele>529.29</ele><time>2022-01-03T14:39:02Z</time></trkpt>
<trkpt lat="39.843727" lon="9.569059"><ele>532.42</ele><time>2022-01-03T14:39:04Z</time></trkpt>
<trkpt lat="39.84395" lon="9.568598"><ele>532.65</ele><time>2022-01-03T14:39:05Z</time></trkpt>
<trkpt lat="39.844374" lon="9.568021"><ele>534.86</ele><time>2022-01-03T14:39:07Z</time></trkpt>
<trkpt lat="39.845103" lon="9.567278"><ele>544.09</ele><time>2022-01-03T14:39:08Z</time></trkpt>
<trkpt lat="39.845424" lon="9.566924"><ele>546.8</ele><time>2022-01-03T14:39:10Z</time></trkpt>
<trkpt lat="39.845894" lon="9.566613"><ele>547.49</ele><time>2022-01-03T14:39:11Z</time></trkpt>
<trkpt lat="39.84638" lon="9.566527"><ele>550.96</ele><time>2022-01-03T14:39:13Z</time></trkpt>
<trkpt lat="39.846676" lon="9.566366"><ele>550.31</ele><time>2022-01-03T14:39:14Z</time></trkpt>
<trkpt lat="39.8468" lon="9.566334"><ele>551.46</ele><time>2022-01-03T14:39:16Z</time></trkpt>
<trkpt lat="39.846919" lon="9.566401"><ele>551.64</ele><time>2022-01-03T14:39:17Z</time></trkpt>
<trkpt lat="39.847195" lon="9.566828"><ele>550.31</ele><time>2022-01-03T14:39:19Z</time></trkpt>
<trkpt lat="39.847434" lon="9.566967"><ele>549.66</ele><time>2022-01-03T14:39:20Z</time></trkpt>
<trkpt lat="39.847611" lon="9.566884"><ele>551.18</ele><time>2022-01-03T14:39:22Z</time></trkpt>
<trkpt lat="39.847895" lon="9.566645"><ele>552.38</ele><time>2022-01-03T14:39:23Z</time></trkpt>
<trkpt lat="39.848118" lon="9.566388"><ele>550.11</ele><time>2022-01-03T14:39:25Z</time></trkpt>
<trkpt lat="39.848245" lon="9.566197"><ele>550.12</ele><time>2022-01-03T14:39:26Z</time></trkpt>
<trkpt lat="39.84834" lon="9.566119"><ele>549.91</ele><time>2022-01-03T14:39:28Z</time></trkpt>
<trkpt lat="39.848628" lon="9.566076"><ele>550.61</ele><time>2022-01-03T14:39:29Z</time></trkpt>
<trkpt lat="39.848739" lon="9.566015"><ele>552.15</ele><time>2022-01-03T14:39:30Z</time></trkpt>
<trkpt lat="39.848818" lon="9.566012"><ele>552.65</ele><time>2022-01-03T14:39:32Z</time></trkpt>
<trkpt lat="39.848912" lon="9.566122"><ele>552.38</ele><time>2022-01-03T14:39:33Z</time></trkpt>
<trkpt lat="39.848991" lon="9.566366"><ele>553.26</ele><time>2022-01-03T14:39:35Z</time></trkpt>
<trkpt lat="39.849024" lon="9.566688"><ele>553.87</ele><time>2022-01-03T14:39:36Z</time></trkpt>
<trkpt lat="39.84892" lon="9.567088"><ele>549.65</ele><time>2022-01-03T14:39:38Z</time></trkpt>
<trkpt lat="39.848933" lon="9.567258"><ele>547.87</ele><time>2022-01-03T14:39:39Z</time></trkpt>
<trkpt lat="39.848974" lon="9.567402"><ele>544.82</ele><time>2022-01-03T14:39:41Z</time></trkpt>
<trkpt lat="39.849044" lon="9.567457"><ele>544.42</ele><time>2022-01-03T14:39:42Z</time></trkpt>
<trkpt lat="39.849172" lon="9.567459"><ele>546.2</ele><time>2022-01-03T14:39:44Z</time></trkpt>
<trkpt lat="39.849609" lon="9.567106"><ele>553.6</ele><time>2022-01-03T14:39:45Z</time></trkpt>
<trkpt lat="39.849724" lon="9.566956"><ele>553.75</ele><time>2022-01-03T14:39:47Z</time></trkpt>
<trkpt lat="39.849826" lon="9.566659"><ele>555.65</ele><time>2022-01-03T14:39:48Z</time></trkpt>
<trkpt lat="39.849925" lon="9.566476"><ele>557.5</ele><time>2022-01-03T14:39:50Z</time></trkpt>
<trkpt lat="39.850111" lon="9.56628"><ele>560.18</ele><time>2022-01-03T14:39:51Z</time></trkpt>
<trkpt lat="39.850259" lon="9.566184"><ele>561.54</ele><time>2022-01-03T14:39:53Z</time></trkpt>
<trkpt lat="39.850387" lon="9.566208"><ele>561.32</ele><time>2022-01-03T14:39:54Z</time></trkpt>
<trkpt lat="39.850424" lon="9.566291"><ele>560.14</ele><time>2022-01-03T14:39:56Z</time></trkpt>
<trkpt lat="39.850395" lon="9.566455"><ele>557.42</ele><time>2022-01-03T14:39:57Z</time></trkpt>
<trkpt lat="39.850342" lon="9.566591"><ele>554.94</ele><time>2022-01-03T14:39:59Z</time></trkpt>
<trkpt lat="39.850375" lon="9.566709"><ele>553.37</ele><time>2022-01-03T14:40:00Z</time></trkpt>
<trkpt lat="39.850461" lon="9.566766"><ele>553.37</ele><time>2022-01-03T14:40:02Z</time></trkpt>
<trkpt lat="39.850988" lon="9.566669"><ele>558.41</ele><time>2022-01-03T14:40:03Z</time></trkpt>
<trkpt lat="39.851177" lon="9.566573"><ele>559.08</ele><time>2022-01-03T14:40:05Z</time></trkpt>
<trkpt lat="39.851284" lon="9.566473"><ele>560.38</ele><time>2022-01-03T14:40:06Z</time></trkpt>
<trkpt lat="39.851532" lon="9.56624"><ele>561.48</ele><time>2022-01-03T14:40:07Z</time></trkpt>
<trkpt lat="39.851742" lon="9.566076"><ele>562.28</ele><time>2022-01-03T14:40:09Z</time></trkpt>
<trkpt lat="39.851898" lon="9.566034"><ele>560.18</ele><time>2022-01-03T14:40:10Z</time></trkpt>
<trkpt lat="39.852083" lon="9.566015"><ele>556.92</ele><time>2022-01-03T14:40:11Z</time></trkpt>
<trkpt lat="39.852207" lon="9.565907"><ele>556.75</ele><time>2022-01-03T14:40:12Z</time></trkpt>
<trkpt lat="39.852286" lon="9.565765"><ele>556.76</ele><time>2022-01-03T14:40:14Z</time></trkpt>
<trkpt lat="39.852286" lon="9.565615"><ele>558.55</ele><time>2022-01-03T14:40:15Z</time></trkpt>
<trkpt lat="39.852187" lon="9.565347"><ele>562.9</ele><time>2022-01-03T14:40:16Z</time></trkpt>
<trkpt lat="39.852162" lon="9.565122"><ele>563.64</ele><time>2022-01-03T14:40:17Z</time></trkpt>
<trkpt lat="39.852294" lon="9.564371"><ele>568.32</ele><time>2022-01-03T14:40:19Z</time></trkpt>
<trkpt lat="39.852396" lon="9.564212"><ele>568.27</ele><time>2022-01-03T14:40:20Z</time></trkpt>
<trkpt lat="39.852517" lon="9.564098"><ele>567.45</ele><time>2022-01-03T14:40:21Z</time></trkpt>
<trkpt lat="39.852557" lon="9.56406"><ele>567.2</ele><time>2022-01-03T14:40:23Z</time></trkpt>
<trkpt lat="39.853118" lon="9.563276"><ele>566.75</ele><time>2022-01-03T14:40:25Z</time></trkpt>
<trkpt lat="39.85348" lon="9.562858"><ele>568.06</ele><time>2022-01-03T14:40:27Z</time></trkpt>
<trkpt lat="39.853801" lon="9.562643"><ele>570.2</ele><time>2022-01-03T14:40:28Z</time></trkpt>
<trkpt lat="39.854011" lon="9.562528"><ele>570.71</ele><time>2022-01-03T14:40:30Z</time></trkpt>
<trkpt lat="39.854694" lon="9.562303"><ele>572.89</ele><time>2022-01-03T14:40:32Z</time></trkpt>
<trkpt lat="39.854941" lon="9.562163"><ele>569.66</ele><time>2022-01-03T14:40:34Z</time></trkpt>
<trkpt lat="39.855193" lon="9.561935"><ele>570.89</ele><time>2022-01-03T14:40:36Z</time></trkpt>
<trkpt lat="39.855407" lon="9.561678"><ele>579.13</ele><time>2022-01-03T14:40:38Z</time></trkpt>
<trkpt lat="39.855617" lon="9.561605"><ele>578.43</ele><time>2022-01-03T14:40:39Z</time></trkpt>
<trkpt lat="39.855757" lon="9.561627"><ele>575.17</ele><time>2022-01-03T14:40:41Z</time></trkpt>
<trkpt lat="39.855864" lon="9.561755"><ele>568.35</ele><time>2022-01-03T14:40:43Z</time></trkpt>
<trkpt lat="39.855959" lon="9.561828"><ele>566.01</ele><time>2022-01-03T14:40:45Z</time></trkpt>
<trkpt lat="39.856333" lon="9.561798"><ele>565.86</ele><time>2022-01-03T14:40:47Z</time></trkpt>
<trkpt lat="39.856502" lon="9.561731"><ele>565.94</ele><time>2022-01-03T14:40:48Z</time></trkpt>
<trkpt lat="39.856638" lon="9.561627"><ele>567.82</ele><time>2022-01-03T14:40:50Z</time></trkpt>
<trkpt lat="39.856848" lon="9.56127"><ele>574.79</ele><time>2022-01-03T14:40:52Z</time></trkpt>
<trkpt lat="39.856943" lon="9.561155"><ele>575.1</ele><time>2022-01-03T14:40:54Z</time></trkpt>
<trkpt lat="39.857231" lon="9.56094"><ele>573.46</ele><time>2022-01-03T14:40:56Z</time></trkpt>
<trkpt lat="39.857371" lon="9.560929"><ele>572.45</ele><time>2022-01-03T14:40:57Z</time></trkpt>
<trkpt lat="39.85775" lon="9.561069"><ele>565.95</ele><time>2022-01-03T14:40:59Z</time></trkpt>
<trkpt lat="39.857882" lon="9.561026"><ele>566.75</ele><time>2022-01-03T14:41:01Z</time></trkpt>
<trkpt lat="39.858133" lon="9.560787"><ele>572.91</ele><time>2022-01-03T14:41:03Z</time></trkpt>
<trkpt lat="39.858257" lon="9.560723"><ele>572.81</ele><time>2022-01-03T14:41:05Z</time></trkpt>
<trkpt lat="39.858611" lon="9.560712"><ele>569.24</ele><time>2022-01-03T14:41:06Z</time></trkpt>
<trkpt lat="39.858796" lon="9.56065"><ele>568.56</ele><time>2022-01-03T14:41:08Z</time></trkpt>
<trkpt lat="39.859015" lon="9.560498"><ele>571.94</ele><time>2022-01-03T14:41:10Z</time></trkpt>
<trkpt lat="39.859224" lon="9.560382"><ele>572.75</ele><time>2022-01-03T14:41:12Z</time></trkpt>
<trkpt lat="39.859558" lon="9.560294"><ele>574.4</ele><time>2022-01-03T14:41:14Z</time></trkpt>
<trkpt lat="39.859809" lon="9.560307"><ele>573.23</ele><time>2022-01-03T14:41:15Z</time></trkpt>
<trkpt lat="39.860039" lon="9.560371"><ele>568.38</ele><time>2022-01-03T14:41:17Z</time></trkpt>
<trkpt lat="39.860168" lon="9.560444"><ele>563.91</ele><time>2022-01-03T14:41:19Z</time></trkpt>
<trkpt lat="39.860566" lon="9.560468"><ele>565.6</ele><time>2022-01-03T14:41:21Z</time></trkpt>
<trkpt lat="39.860772" lon="9.560522"><ele>567.01</ele><time>2022-01-03T14:41:23Z</time></trkpt>
<trkpt lat="39.861106" lon="9.560712"><ele>561.22</ele><time>2022-01-03T14:41:24Z</time></trkpt>
<trkpt lat="39.861225" lon="9.560758"><ele>558.74</ele><time>2022-01-03T14:41:26Z</time></trkpt>
<trkpt lat="39.861329" lon="9.560744"><ele>558.82</ele><time>2022-01-03T14:41:28Z</time></trkpt>
<trkpt lat="39.861625" lon="9.56053"><ele>563.98</ele><time>2022-01-03T14:41:30Z</time></trkpt>
<trkpt lat="39.862041" lon="9.560543"><ele>561.63</ele><time>2022-01-03T14:41:32Z</time></trkpt>
<trkpt lat="39.862172" lon="9.560489"><ele>563.99</ele><time>2022-01-03T14:41:33Z</time></trkpt>
<trkpt lat="39.862436" lon="9.560211"><ele>571.2</ele><time>2022-01-03T14:41:35Z</time></trkpt>
<trkpt lat="39.862622" lon="9.560111"><ele>570.7</ele><time>2022-01-03T14:41:37Z</time></trkpt>
<trkpt lat="39.862786" lon="9.560101"><ele>568.43</ele><time>2022-01-03T14:41:39Z</time></trkpt>
<trkpt lat="39.863116" lon="9.560294"><ele>561.13</ele><time>2022-01-03T14:41:41Z</time></trkpt>
<trkpt lat="39.863544" lon="9.560476"><ele>558.54</ele><time>2022-01-03T14:41:43Z</time></trkpt>
<trkpt lat="39.864285" lon="9.560669"><ele>565.31</ele><time>2022-01-03T14:41:44Z</time></trkpt>
<trkpt lat="39.865405" lon="9.560712"><ele>561.67</ele><time>2022-01-03T14:41:46Z</time></trkpt>
<trkpt lat="39.865537" lon="9.560701"><ele>559.48</ele><time>2022-01-03T14:41:48Z</time></trkpt>
<trkpt lat="39.865907" lon="9.560433"><ele>571.56</ele><time>2022-01-03T14:41:50Z</time></trkpt>
<trkpt lat="39.86599" lon="9.56039"><ele>574.85</ele><time>2022-01-03T14:41:52Z</time></trkpt>
<trkpt lat="39.86608" lon="9.560422"><ele>574.32</ele><time>2022-01-03T14:41:53Z</time></trkpt>
<trkpt lat="39.866301" lon="9.560673"><ele>568.36</ele><time>2022-01-03T14:41:55Z</time></trkpt>
<trkpt lat="39.86684" lon="9.561163"><ele>560.85</ele><time>2022-01-03T14:41:57Z</time></trkpt>
<trkpt lat="39.867151" lon="9.561322"><ele>564.9</ele><time>2022-01-03T14:41:59Z</time></trkpt>
<trkpt lat="39.867608" lon="9.561471"><ele>574.17</ele><time>2022-01-03T14:42:01Z</time></trkpt>
<trkpt lat="39.867788" lon="9.561706"><ele>571.04</ele><time>2022-01-03T14:42:02Z</time></trkpt>
<trkpt lat="39.867886" lon="9.561876"><ele>568.63</ele><time>2022-01-03T14:42:04Z</time></trkpt>
<trkpt lat="39.868458" lon="9.562462"><ele>568.72</ele><time>2022-01-03T14:42:06Z</time></trkpt>
<trkpt lat="39.868589" lon="9.562643"><ele>568.34</ele><time>2022-01-03T14:42:08Z</time></trkpt>
<trkpt lat="39.868981" lon="9.563282"><ele>565.14</ele><time>2022-01-03T14:42:10Z</time></trkpt>
<trkpt lat="39.869194" lon="9.563452"><ele>567.15</ele><time>2022-01-03T14:42:11Z</time></trkpt>
<trkpt lat="39.869512" lon="9.563633"><ele>567.54</ele><time>2022-01-03T14:42:13Z</time></trkpt>
<trkpt lat="39.869807" lon="9.563676"><ele>565.79</ele><time>2022-01-03T14:42:15Z</time></trkpt>
<trkpt lat="39.869905" lon="9.563622"><ele>565.55</ele><time>2022-01-03T14:42:17Z</time></trkpt>
<trkpt lat="39.870027" lon="9.563345"><ele>566.22</ele><time>2022-01-03T14:42:19Z</time></trkpt>
<trkpt lat="39.870109" lon="9.56325"><ele>565.4</ele><time>2022-01-03T14:42:20Z</time></trkpt>
<trkpt lat="39.870321" lon="9.563207"><ele>560.86</ele><time>2022-01-03T14:42:22Z</time></trkpt>
<trkpt lat="39.870419" lon="9.563143"><ele>558.83</ele><time>2022-01-03T14:42:24Z</time></trkpt>
<trkpt lat="39.870509" lon="9.562962"><ele>560.02</ele><time>2022-01-03T14:42:26Z</time></trkpt>
<trkpt lat="39.87055" lon="9.562717"><ele>565.85</ele><time>2022-01-03T14:42:28Z</time></trkpt>
<trkpt lat="39.87064" lon="9.562568"><ele>568.43</ele><time>2022-01-03T14:42:29Z</time></trkpt>
<trkpt lat="39.870902" lon="9.56244"><ele>564.91</ele><time>2022-01-03T14:42:31Z</time></trkpt>
<trkpt lat="39.871572" lon="9.562046"><ele>555.97</ele><time>2022-01-03T14:42:33Z</time></trkpt>
<trkpt lat="39.87185" lon="9.561674"><ele>557.9</ele><time>2022-01-03T14:42:35Z</time></trkpt>
<trkpt lat="39.872005" lon="9.561567"><ele>557.99</ele><time>2022-01-03T14:42:37Z</time></trkpt>
<trkpt lat="39.872552" lon="9.561354"><ele>552.18</ele><time>2022-01-03T14:42:39Z</time></trkpt>
<trkpt lat="39.87305" lon="9.561088"><ele>547.39</ele><time>2022-01-03T14:42:40Z</time></trkpt>
<trkpt lat="39.873517" lon="9.56063"><ele>543.32</ele><time>2022-01-03T14:42:42Z</time></trkpt>
<trkpt lat="39.873631" lon="9.560407"><ele>542.57</ele><time>2022-01-03T14:42:44Z</time></trkpt>
<trkpt lat="39.873908" lon="9.559511"><ele>540.61</ele><time>2022-01-03T14:42:46Z</time></trkpt>
<trkpt lat="39.873915" lon="9.559202"><ele>538.78</ele><time>2022-01-03T14:42:48Z</time></trkpt>
<trkpt lat="39.87389" lon="9.558875"><ele>536.88</ele><time>2022-01-03T14:42:49Z</time></trkpt>
<trkpt lat="39.873654" lon="9.558158"><ele>532.79</ele><time>2022-01-03T14:42:51Z</time></trkpt>
<trkpt lat="39.873572" lon="9.557787"><ele>527.85</ele><time>2022-01-03T14:42:53Z</time></trkpt>
<trkpt lat="39.873499" lon="9.556911"><ele>521.18</ele><time>2022-01-03T14:42:55Z</time></trkpt>
<trkpt lat="39.87344" lon="9.556669"><ele>520.95</ele><time>2022-01-03T14:42:57Z</time></trkpt>
<trkpt lat="39.873328" lon="9.556489"><ele>522.83</ele><time>2022-01-03T14:42:58Z</time></trkpt>
<trkpt lat="39.872919" lon="9.555965"><ele>523.61</ele><time>2022-01-03T14:43:00Z</time></trkpt>
<trkpt lat="39.872854" lon="9.555731"><ele>523.42</ele><time>2022-01-03T14:43:02Z</time></trkpt>
<trkpt lat="39.872844" lon="9.555543"><ele>523.98</ele><time>2022-01-03T14:43:04Z</time></trkpt>
<trkpt lat="39.872893" lon="9.555393"><ele>523.89</ele><time>2022-01-03T14:43:06Z</time></trkpt>
<trkpt lat="39.872985" lon="9.555255"><ele>521.17</ele><time>2022-01-03T14:43:07Z</time></trkpt>
<trkpt lat="39.872973" lon="9.55538"><ele>520.85</ele><time>2022-01-03T14:43:09Z</time></trkpt>
<trkpt lat="39.872987" lon="9.555568"><ele>519.26</ele><time>2022-01-03T14:43:10Z</time></trkpt>
<trkpt lat="39.873066" lon="9.555739"><ele>518.09</ele><time>2022-01-03T14:43:12Z</time></trkpt>
<trkpt lat="39.873127" lon="9.555791"><ele>517.25</ele><time>2022-01-03T14:43:13Z</time></trkpt>
<trkpt lat="39.873667" lon="9.556106"><ele>512.89</ele><time>2022-01-03T14:43:14Z</time></trkpt>
<trkpt lat="39.873755" lon="9.55621"><ele>511.95</ele><time>2022-01-03T14:43:16Z</time></trkpt>
<trkpt lat="39.873862" lon="9.556396"><ele>511.39</ele><time>2022-01-03T14:43:17Z</time></trkpt>
<trkpt lat="39.874148" lon="9.557002"><ele>505.94</ele><time>2022-01-03T14:43:18Z</time></trkpt>
<trkpt lat="39.874251" lon="9.556992"><ele>504.45</ele><time>2022-01-03T14:43:21Z</time></trkpt>
<trkpt lat="39.874288" lon="9.556964"><ele>504.1</ele><time>2022-01-03T14:43:23Z</time></trkpt>
<trkpt lat="39.87436" lon="9.556848"><ele>503.67</ele><time>2022-01-03T14:43:25Z</time></trkpt>
<trkpt lat="39.874401" lon="9.556661"><ele>503.77</ele><time>2022-01-03T14:43:27Z</time></trkpt>
<trkpt lat="39.874489" lon="9.556388"><ele>501.86</ele><time>2022-01-03T14:43:29Z</time></trkpt>
<trkpt lat="39.874502" lon="9.556224"><ele>500.97</ele><time>2022-01-03T14:43:32Z</time></trkpt>
<trkpt lat="39.874469" lon="9.556032"><ele>500.52</ele><time>2022-01-03T14:43:34Z</time></trkpt>
<trkpt lat="39.874393" lon="9.555828"><ele>499.44</ele><time>2022-01-03T14:43:36Z</time></trkpt>
<trkpt lat="39.87433" lon="9.555736"><ele>498.08</ele><time>2022-01-03T14:43:38Z</time></trkpt>
<trkpt lat="39.8742" lon="9.555592"><ele>497.07</ele><time>2022-01-03T14:43:41Z</time></trkpt>
<trkpt lat="39.873669" lon="9.555283"><ele>500.42</ele><time>2022-01-03T14:43:43Z</time></trkpt>
<trkpt lat="39.873609" lon="9.555241"><ele>501.2</ele><time>2022-01-03T14:43:45Z</time></trkpt>
<trkpt lat="39.87357" lon="9.555175"><ele>502.5</ele><time>2022-01-03T14:43:47Z</time></trkpt>
<trkpt lat="39.873547" lon="9.555083"><ele>503.64</ele><time>2022-01-03T14:43:49Z</time></trkpt>
<trkpt lat="39.873558" lon="9.554861"><ele>504.33</ele><time>2022-01-03T14:43:52Z</time></trkpt>
<trkpt lat="39.873654" lon="9.554532"><ele>503.28</ele><time>2022-01-03T14:43:54Z</time></trkpt>
<trkpt lat="39.87375" lon="9.554355"><ele>503.12</ele><time>2022-01-03T14:43:56Z</time></trkpt>
<trkpt lat="39.873854" lon="9.554275"><ele>503.32</ele><time>2022-01-03T14:43:58Z</time></trkpt>
<trkpt lat="39.873917" lon="9.554253"><ele>503.52</ele><time>2022-01-03T14:44:00Z</time></trkpt>
<trkpt lat="39.874984" lon="9.554132"><ele>487.53</ele><time>2022-01-03T14:44:03Z</time></trkpt>
<trkpt lat="39.875569" lon="9.55409"><ele>474.99</ele><time>2022-01-03T14:44:05Z</time></trkpt>
<trkpt lat="39.875682" lon="9.55404"><ele>472.55</ele><time>2022-01-03T14:44:07Z</time></trkpt>
<trkpt lat="39.875789" lon="9.553954"><ele>469.63</ele><time>2022-01-03T14:44:09Z</time></trkpt>
<trkpt lat="39.875857" lon="9.55387"><ele>467.62</ele><time>2022-01-03T14:44:11Z</time></trkpt>
<trkpt lat="39.875944" lon="9.553652"><ele>466.64</ele><time>2022-01-03T14:44:14Z</time></trkpt>
<trkpt lat="39.876059" lon="9.553065"><ele>466.84</ele><time>2022-01-03T14:44:16Z</time></trkpt>
<trkpt lat="39.876109" lon="9.552944"><ele>465.87</ele><time>2022-01-03T14:44:18Z</time></trkpt>
<trkpt lat="39.876176" lon="9.552844"><ele>464.77</ele><time>2022-01-03T14:44:20Z</time></trkpt>
<trkpt lat="39.876237" lon="9.552797"><ele>463.63</ele><time>2022-01-03T14:44:22Z</time></trkpt>
<trkpt lat="39.876301" lon="9.552761"><ele>462.59</ele><time>2022-01-03T14:44:25Z</time></trkpt>
<trkpt lat="39.876362" lon="9.552752"><ele>461.32</ele><time>2022-01-03T14:44:27Z</time></trkpt>
<trkpt lat="39.876796" lon="9.552787"><ele>458.73</ele><time>2022-01-03T14:44:29Z</time></trkpt>
<trkpt lat="39.877006" lon="9.552726"><ele>458.24</ele><time>2022-01-03T14:44:31Z</time></trkpt>
<trkpt lat="39.877873" lon="9.552375"><ele>450.99</ele><time>2022-01-03T14:44:33Z</time></trkpt>
<trkpt lat="39.879017" lon="9.551862"><ele>452.26</ele><time>2022-01-03T14:44:36Z</time></trkpt>
<trkpt lat="39.879353" lon="9.551647"><ele>454.49</ele><time>2022-01-03T14:44:38Z</time></trkpt>
<trkpt lat="39.880181" lon="9.551021"><ele>451.8</ele><time>2022-01-03T14:44:40Z</time></trkpt>
<trkpt lat="39.880363" lon="9.550818"><ele>452.27</ele><time>2022-01-03T14:44:42Z</time></trkpt>
<trkpt lat="39.880465" lon="9.550673"><ele>452.5</ele><time>2022-01-03T14:44:44Z</time></trkpt>
<trkpt lat="39.880581" lon="9.55042"><ele>453.81</ele><time>2022-01-03T14:44:47Z</time></trkpt>
<trkpt lat="39.880609" lon="9.550295"><ele>455.21</ele><time>2022-01-03T14:44:49Z</time></trkpt>
<trkpt lat="39.88062" lon="9.549986"><ele>457.82</ele><time>2022-01-03T14:44:51Z</time></trkpt>
<trkpt lat="39.88061" lon="9.549862"><ele>457.82</ele><time>2022-01-03T14:44:53Z</time></trkpt>
<trkpt lat="39.880545" lon="9.549585"><ele>457.3</ele><time>2022-01-03T14:44:55Z</time></trkpt>
<trkpt lat="39.880487" lon="9.549406"><ele>456.88</ele><time>2022-01-03T14:44:58Z</time></trkpt>
<trkpt lat="39.880375" lon="9.54865"><ele>463.41</ele><time>2022-01-03T14:45:00Z</time></trkpt>
<trkpt lat="39.880383" lon="9.548332"><ele>464.98</ele><time>2022-01-03T14:45:02Z</time></trkpt>
<trkpt lat="39.880498" lon="9.548083"><ele>464.89</ele><time>2022-01-03T14:45:04Z</time></trkpt>
<trkpt lat="39.880714" lon="9.547947"><ele>465.17</ele><time>2022-01-03T14:45:07Z</time></trkpt>
<trkpt lat="39.881432" lon="9.547794"><ele>470.33</ele><time>2022-01-03T14:45:09Z</time></trkpt>
<trkpt lat="39.881796" lon="9.547636"><ele>474.34</ele><time>2022-01-03T14:45:11Z</time></trkpt>
<trkpt lat="39.882119" lon="9.547396"><ele>475.6</ele><time>2022-01-03T14:45:13Z</time></trkpt>
<trkpt lat="39.882555" lon="9.546841"><ele>481.61</ele><time>2022-01-03T14:45:15Z</time></trkpt>
<trkpt lat="39.882766" lon="9.546488"><ele>486.01</ele><time>2022-01-03T14:45:18Z</time></trkpt>
<trkpt lat="39.882851" lon="9.546166"><ele>487.98</ele><time>2022-01-03T14:45:20Z</time></trkpt>
<trkpt lat="39.883112" lon="9.544499"><ele>497.21</ele><time>2022-01-03T14:45:22Z</time></trkpt>
<trkpt lat="39.883159" lon="9.543703"><ele>496.07</ele><time>2022-01-03T14:45:24Z</time></trkpt>
<trkpt lat="39.883068" lon="9.542863"><ele>499.45</ele><time>2022-01-03T14:45:26Z</time></trkpt>
<trkpt lat="39.882977" lon="9.542512"><ele>501.72</ele><time>2022-01-03T14:45:29Z</time></trkpt>
<trkpt lat="39.882512" lon="9.541752"><ele>506.42</ele><time>2022-01-03T14:45:31Z</time></trkpt>
<trkpt lat="39.882403" lon="9.5414"><ele>511.94</ele><time>2022-01-03T14:45:33Z</time></trkpt>
<trkpt lat="39.882402" lon="9.541063"><ele>516.9</ele><time>2022-01-03T14:45:35Z</time></trkpt>
<trkpt lat="39.882603" lon="9.54026"><ele>511.78</ele><time>2022-01-03T14:45:37Z</time></trkpt>
<trkpt lat="39.882435" lon="9.53929"><ele>522.76</ele><time>2022-01-03T14:45:40Z</time></trkpt>
<trkpt lat="39.88259" lon="9.538775"><ele>525.94</ele><time>2022-01-03T14:45:42Z</time></trkpt>
<trkpt lat="39.882976" lon="9.537998"><ele>529.62</ele><time>2022-01-03T14:45:44Z</time></trkpt>
<trkpt lat="39.883157" lon="9.537741"><ele>530.1</ele><time>2022-01-03T14:45:46Z</time></trkpt>
<trkpt lat="39.883387" lon="9.537625"><ele>529.74</ele><time>2022-01-03T14:45:48Z</time></trkpt>
<trkpt lat="39.884261" lon="9.537858"><ele>526.14</ele><time>2022-01-03T14:45:51Z</time></trkpt>
<trkpt lat="39.885604" lon="9.537794"><ele>524.82</ele><time>2022-01-03T14:45:53Z</time></trkpt>
<trkpt lat="39.885482" lon="9.537571"><ele>528.52</ele><time>2022-01-03T14:45:55Z</time></trkpt>
<trkpt lat="39.885374" lon="9.537418"><ele>531.6</ele><time>2022-01-03T14:45:58Z</time></trkpt>
<trkpt lat="39.885866" lon="9.53737"><ele>532.29</ele><time>2022-01-03T14:46:01Z</time></trkpt>
<trkpt lat="39.886726" lon="9.53704"><ele>532.19</ele><time>2022-01-03T14:46:04Z</time></trkpt>
<trkpt lat="39.887166" lon="9.536744"><ele>531.56</ele><time>2022-01-03T14:46:07Z</time></trkpt>
<trkpt lat="39.887263" lon="9.53671"><ele>531.26</ele><time>2022-01-03T14:46:11Z</time></trkpt>
<trkpt lat="39.887365" lon="9.536706"><ele>530.99</ele><time>2022-01-03T14:46:14Z</time></trkpt>
<trkpt lat="39.887761" lon="9.536871"><ele>531.16</ele><time>2022-01-03T14:46:17Z</time></trkpt>
<trkpt lat="39.888077" lon="9.536954"><ele>535.07</ele><time>2022-01-03T14:46:20Z</time></trkpt>
<trkpt lat="39.888435" lon="9.53688"><ele>539.3</ele><time>2022-01-03T14:46:23Z</time></trkpt>
<trkpt lat="39.88996" lon="9.536212"><ele>547.98</ele><time>2022-01-03T14:46:26Z</time></trkpt>
<trkpt lat="39.890233" lon="9.536017"><ele>546.6</ele><time>2022-01-03T14:46:30Z</time></trkpt>
<trkpt lat="39.890407" lon="9.535753"><ele>546.58</ele><time>2022-01-03T14:46:33Z</time></trkpt>
<trkpt lat="39.89048" lon="9.535498"><ele>548.29</ele><time>2022-01-03T14:46:36Z</time></trkpt>
<trkpt lat="39.890426" lon="9.533662"><ele>566.47</ele><time>2022-01-03T14:46:39Z</time></trkpt>
<trkpt lat="39.890515" lon="9.533332"><ele>568.35</ele><time>2022-01-03T14:46:42Z</time></trkpt>
<trkpt lat="39.891322" lon="9.531467"><ele>584.36</ele><time>2022-01-03T14:46:46Z</time></trkpt>
<trkpt lat="39.891416" lon="9.531083"><ele>584.48</ele><time>2022-01-03T14:46:49Z</time></trkpt>
<trkpt lat="39.891361" lon="9.52924"><ele>588.28</ele><time>2022-01-03T14:46:52Z</time></trkpt>
<trkpt lat="39.891452" lon="9.528907"><ele>588.92</ele><time>2022-01-03T14:46:55Z</time></trkpt>
<trkpt lat="39.891562" lon="9.5286"><ele>594.45</ele><time>2022-01-03T14:46:58Z</time></trkpt>
<trkpt lat="39.893612" lon="9.52581"><ele>631.32</ele><time>2022-01-03T14:47:02Z</time></trkpt>
<trkpt lat="39.893777" lon="9.525605"><ele>631.58</ele><time>2022-01-03T14:47:05Z</time></trkpt>
<trkpt lat="39.894715" lon="9.525001"><ele>649.96</ele><time>2022-01-03T14:47:08Z</time></trkpt>
<trkpt lat="39.895126" lon="9.524669"><ele>652.96</ele><time>2022-01-03T14:47:11Z</time></trkpt>
<trkpt lat="39.895894" lon="9.523885"><ele>664.11</ele><time>2022-01-03T14:47:14Z</time></trkpt>
<trkpt lat="39.896247" lon="9.523711"><ele>665.91</ele><time>2022-01-03T14:47:17Z</time></trkpt>
<trkpt lat="39.896495" lon="9.52366"><ele>664.23</ele><time>2022-01-03T14:47:21Z</time></trkpt>
<trkpt lat="39.896801" lon="9.523701"><ele>662.23</ele><time>2022-01-03T14:47:24Z</time></trkpt>
<trkpt lat="39.897229" lon="9.523885"><ele>664.2</ele><time>2022-01-03T14:47:27Z</time></trkpt>
<trkpt lat="39.897528" lon="9.52387"><ele>667.66</ele><time>2022-01-03T14:47:30Z</time></trkpt>
<trkpt lat="39.898741" lon="9.523424"><ele>670.17</ele><time>2022-01-03T14:47:33Z</time></trkpt>
<trkpt lat="39.899029" lon="9.523167"><ele>669.45</ele><time>2022-01-03T14:47:37Z</time></trkpt>
<trkpt lat="39.899172" lon="9.522951"><ele>668.5</ele><time>2022-01-03T14:47:40Z</time></trkpt>
<trkpt lat="39.89927" lon="9.522506"><ele>677.35</ele><time>2022-01-03T14:47:43Z</time></trkpt>
<trkpt lat="39.899372" lon="9.522296"><ele>681.92</ele><time>2022-01-03T14:47:45Z</time></trkpt>
<trkpt lat="39.899608" lon="9.522123"><ele>683.67</ele><time>2022-01-03T14:47:48Z</time></trkpt>
<trkpt lat="39.89974" lon="9.52195"><ele>685.55</ele><time>2022-01-03T14:47:51Z</time></trkpt>
<trkpt lat="39.899836" lon="9.521682"><ele>690.18</ele><time>2022-01-03T14:47:54Z</time></trkpt>
<trkpt lat="39.899887" lon="9.52125"><ele>702.83</ele><time>2022-01-03T14:47:57Z</time></trkpt>
<trkpt lat="39.899991" lon="9.521106"><ele>704.49</ele><time>2022-01-03T14:47:59Z</time></trkpt>
<trkpt lat="39.90027" lon="9.520962"><ele>702.42</ele><time>2022-01-03T14:48:02Z</time></trkpt>
<trkpt lat="39.900653" lon="9.520646"><ele>709.71</ele><time>2022-01-03T14:48:05Z</time></trkpt>
<trkpt lat="39.900667" lon="9.520569"><ele>712.31</ele><time>2022-01-03T14:48:08Z</time></trkpt>
<trkpt lat="39.900631" lon="9.520502"><ele>715.15</ele><time>2022-01-03T14:48:11Z</time></trkpt>
<trkpt lat="39.90055" lon="9.520531"><ele>715.09</ele><time>2022-01-03T14:48:14Z</time></trkpt>
<trkpt lat="39.900292" lon="9.520713"><ele>710.89</ele><time>2022-01-03T14:48:16Z</time></trkpt>
<trkpt lat="39.900049" lon="9.520713"><ele>716.79</ele><time>2022-01-03T14:48:19Z</time></trkpt>
<trkpt lat="39.899807" lon="9.520636"><ele>724.14</ele><time>2022-01-03T14:48:22Z</time></trkpt>
<trkpt lat="39.89963" lon="9.520617"><ele>728.44</ele><time>2022-01-03T14:48:25Z</time></trkpt>
<trkpt lat="39.899476" lon="9.520684"><ele>730.08</ele><time>2022-01-03T14:48:28Z</time></trkpt>
<trkpt lat="39.899299" lon="9.520799"><ele>730.08</ele><time>2022-01-03T14:48:30Z</time></trkpt>
<trkpt lat="39.898961" lon="9.520886"><ele>734.17</ele><time>2022-01-03T14:48:33Z</time></trkpt>
<trkpt lat="39.898284" lon="9.521116"><ele>738.6</ele><time>2022-01-03T14:48:36Z</time></trkpt>
<trkpt lat="39.898048" lon="9.521078"><ele>742.35</ele><time>2022-01-03T14:48:39Z</time></trkpt>
<trkpt lat="39.897945" lon="9.52101"><ele>743.12</ele><time>2022-01-03T14:48:42Z</time></trkpt>
<trkpt lat="39.897864" lon="9.520847"><ele>746.12</ele><time>2022-01-03T14:48:45Z</time></trkpt>
<trkpt lat="39.897825" lon="9.520732"><ele>747.88</ele><time>2022-01-03T14:48:46Z</time></trkpt>
<trkpt lat="39.897747" lon="9.520502"><ele>750.37</ele><time>2022-01-03T14:48:49Z</time></trkpt>
<trkpt lat="39.89768" lon="9.520195"><ele>753.24</ele><time>2022-01-03T14:48:53Z</time></trkpt>
<trkpt lat="39.89771" lon="9.51985"><ele>755.97</ele><time>2022-01-03T14:48:56Z</time></trkpt>
<trkpt lat="39.897703" lon="9.519677"><ele>757.65</ele><time>2022-01-03T14:49:00Z</time></trkpt>
<trkpt lat="39.897614" lon="9.519543"><ele>759.58</ele><time>2022-01-03T14:49:03Z</time></trkpt>
<trkpt lat="39.897474" lon="9.519486"><ele>760.5</ele><time>2022-01-03T14:49:07Z</time></trkpt>
<trkpt lat="39.897173" lon="9.519505"><ele>761.63</ele><time>2022-01-03T14:49:10Z</time></trkpt>
<trkpt lat="39.896937" lon="9.519572"><ele>762.84</ele><time>2022-01-03T14:49:14Z</time></trkpt>
<trkpt lat="39.89668" lon="9.519735"><ele>766.48</ele><time>2022-01-03T14:49:17Z</time></trkpt>
<trkpt lat="39.89618" lon="9.520119"><ele>774.28</ele><time>2022-01-03T14:49:20Z</time></trkpt>
<trkpt lat="39.896106" lon="9.520147"><ele>775.38</ele><time>2022-01-03T14:49:24Z</time></trkpt>
<trkpt lat="39.896069" lon="9.52008"><ele>776.75</ele><time>2022-01-03T14:49:27Z</time></trkpt>
<trkpt lat="39.896269" lon="9.519458"><ele>780.49</ele><time>2022-01-03T14:49:31Z</time></trkpt>
<trkpt lat="39.896643" lon="9.518057"><ele>798.57</ele><time>2022-01-03T14:49:34Z</time></trkpt>
<trkpt lat="39.89682" lon="9.517577"><ele>808.08</ele><time>2022-01-03T14:49:38Z</time></trkpt>
<trkpt lat="39.896842" lon="9.517481"><ele>810.16</ele><time>2022-01-03T14:49:41Z</time></trkpt>
<trkpt lat="39.89682" lon="9.517395"><ele>812.21</ele><time>2022-01-03T14:49:45Z</time></trkpt>
<trkpt lat="39.896761" lon="9.517328"><ele>813.84</ele><time>2022-01-03T14:49:48Z</time></trkpt>
<trkpt lat="39.896165" lon="9.517366"><ele>816.41</ele><time>2022-01-03T14:49:52Z</time></trkpt>
<trkpt lat="39.896062" lon="9.517347"><ele>816.38</ele><time>2022-01-03T14:49:55Z</time></trkpt>
<trkpt lat="39.895665" lon="9.516829"><ele>820.0</ele><time>2022-01-03T14:49:59Z</time></trkpt>
<trkpt lat="39.895407" lon="9.516609"><ele>821.19</ele><time>2022-01-03T14:50:02Z</time></trkpt>
<trkpt lat="39.895055" lon="9.516408"><ele>825.21</ele><time>2022-01-03T14:50:06Z</time></trkpt>
<trkpt lat="39.895246" lon="9.516157"><ele>825.75</ele><time>2022-01-03T14:50:07Z</time></trkpt>
<trkpt lat="39.895304" lon="9.516033"><ele>827.54</ele><time>2022-01-03T14:50:07Z</time></trkpt>
<trkpt lat="39.895454" lon="9.515522"><ele>834.02</ele><time>2022-01-03T14:50:08Z</time></trkpt>
<trkpt lat="39.895522" lon="9.51537"><ele>834.65</ele><time>2022-01-03T14:50:09Z</time></trkpt>
<trkpt lat="39.895794" lon="9.515125"><ele>837.2</ele><time>2022-01-03T14:50:10Z</time></trkpt>
<trkpt lat="39.895902" lon="9.515072"><ele>838.64</ele><time>2022-01-03T14:50:11Z</time></trkpt>
<trkpt lat="39.896005" lon="9.51507"><ele>839.68</ele><time>2022-01-03T14:50:12Z</time></trkpt>
<trkpt lat="39.896073" lon="9.515102"><ele>839.8</ele><time>2022-01-03T14:50:13Z</time></trkpt>
<trkpt lat="39.896142" lon="9.51517"><ele>839.68</ele><time>2022-01-03T14:50:13Z</time></trkpt>
<trkpt lat="39.896187" lon="9.515256"><ele>839.27</ele><time>2022-01-03T14:50:14Z</time></trkpt>
<trkpt lat="39.89624" lon="9.515589"><ele>838.21</ele><time>2022-01-03T14:50:15Z</time></trkpt>
<trkpt lat="39.896299" lon="9.515689"><ele>838.73</ele><time>2022-01-03T14:50:16Z</time></trkpt>
<trkpt lat="39.896343" lon="9.515705"><ele>839.28</ele><time>2022-01-03T14:50:17Z</time></trkpt>
<trkpt lat="39.89639" lon="9.515706"><ele>839.93</ele><time>2022-01-03T14:50:18Z</time></trkpt>
<trkpt lat="39.896424" lon="9.515667"><ele>840.53</ele><time>2022-01-03T14:50:19Z</time></trkpt>
<trkpt lat="39.896492" lon="9.515714"><ele>840.76</ele><time>2022-01-03T14:50:20Z</time></trkpt>
<trkpt lat="39.896767" lon="9.515755"><ele>842.51</ele><time>2022-01-03T14:50:22Z</time></trkpt>
<trkpt lat="39.897189" lon="9.515977"><ele>842.98</ele><time>2022-01-03T14:50:24Z</time></trkpt>
<trkpt lat="39.897699" lon="9.516055"><ele>845.33</ele><time>2022-01-03T14:50:26Z</time></trkpt>
<trkpt lat="39.897972" lon="9.515917"><ele>847.02</ele><time>2022-01-03T14:50:28Z</time></trkpt>
<trkpt lat="39.898262" lon="9.51564"><ele>844.69</ele><time>2022-01-03T14:50:30Z</time></trkpt>
<trkpt lat="39.898496" lon="9.515312"><ele>841.61</ele><time>2022-01-03T14:50:32Z</time></trkpt>
<trkpt lat="39.898589" lon="9.515009"><ele>840.67</ele><time>2022-01-03T14:50:34Z</time></trkpt>
<trkpt lat="39.898641" lon="9.514577"><ele>846.24</ele><time>2022-01-03T14:50:36Z</time></trkpt>
<trkpt lat="39.898776" lon="9.514437"><ele>847.35</ele><time>2022-01-03T14:50:38Z</time></trkpt>
<trkpt lat="39.89896" lon="9.514368"><ele>847.39</ele><time>2022-01-03T14:50:39Z</time></trkpt>
<trkpt lat="39.899194" lon="9.514373"><ele>846.49</ele><time>2022-01-03T14:50:41Z</time></trkpt>
<trkpt lat="39.899354" lon="9.514247"><ele>848.29</ele><time>2022-01-03T14:50:43Z</time></trkpt>
<trkpt lat="39.899471" lon="9.514099"><ele>849.27</ele><time>2022-01-03T14:50:45Z</time></trkpt>
<trkpt lat="39.899613" lon="9.513755"><ele>850.15</ele><time>2022-01-03T14:50:47Z</time></trkpt>
<trkpt lat="39.900318" lon="9.512505"><ele>851.82</ele><time>2022-01-03T14:50:49Z</time></trkpt>
<trkpt lat="39.900428" lon="9.51242"><ele>852.46</ele><time>2022-01-03T14:50:51Z</time></trkpt>
<trkpt lat="39.900638" lon="9.5123"><ele>853.24</ele><time>2022-01-03T14:50:53Z</time></trkpt>
<trkpt lat="39.901193" lon="9.512054"><ele>852.97</ele><time>2022-01-03T14:50:55Z</time></trkpt>
<trkpt lat="39.901411" lon="9.5117"><ele>852.97</ele><time>2022-01-03T14:50:57Z</time></trkpt>
<trkpt lat="39.901462" lon="9.511488"><ele>853.57</ele><time>2022-01-03T14:50:58Z</time></trkpt>
<trkpt lat="39.901801" lon="9.509166"><ele>858.09</ele><time>2022-01-03T14:51:00Z</time></trkpt>
<trkpt lat="39.901835" lon="9.508798"><ele>858.17</ele><time>2022-01-03T14:51:02Z</time></trkpt>
<trkpt lat="39.901803" lon="9.508186"><ele>858.5</ele><time>2022-01-03T14:51:04Z</time></trkpt>
<trkpt lat="39.901843" lon="9.508012"><ele>857.36</ele><time>2022-01-03T14:51:06Z</time></trkpt>
<trkpt lat="39.901931" lon="9.507901"><ele>855.96</ele><time>2022-01-03T14:51:08Z</time></trkpt>
<trkpt lat="39.902029" lon="9.507699"><ele>854.63</ele><time>2022-01-03T14:51:10Z</time></trkpt>
<trkpt lat="39.902084" lon="9.507525"><ele>853.63</ele><time>2022-01-03T14:51:12Z</time></trkpt>
<trkpt lat="39.90245" lon="9.505213"><ele>854.88</ele><time>2022-01-03T14:51:14Z</time></trkpt>
<trkpt lat="39.902493" lon="9.504668"><ele>857.56</ele><time>2022-01-03T14:51:16Z</time></trkpt>
<trkpt lat="39.902477" lon="9.504255"><ele>861.06</ele><time>2022-01-03T14:51:17Z</time></trkpt>
<trkpt lat="39.902415" lon="9.503879"><ele>863.55</ele><time>2022-01-03T14:51:19Z</time></trkpt>
<trkpt lat="39.90188" lon="9.502042"><ele>860.22</ele><time>2022-01-03T14:51:21Z</time></trkpt>
<trkpt lat="39.901793" lon="9.501677"><ele>860.76</ele><time>2022-01-03T14:51:23Z</time></trkpt>
<trkpt lat="39.901793" lon="9.501466"><ele>860.89</ele><time>2022-01-03T14:51:25Z</time></trkpt>
<trkpt lat="39.901861" lon="9.501293"><ele>860.37</ele><time>2022-01-03T14:51:27Z</time></trkpt>
<trkpt lat="39.902016" lon="9.501079"><ele>859.37</ele><time>2022-01-03T14:51:29Z</time></trkpt>
<trkpt lat="39.902152" lon="9.500827"><ele>858.69</ele><time>2022-01-03T14:51:31Z</time></trkpt>
<trkpt lat="39.902285" lon="9.50026"><ele>854.92</ele><time>2022-01-03T14:51:33Z</time></trkpt>
<trkpt lat="39.90416" lon="9.496761"><ele>844.9</ele><time>2022-01-03T14:51:34Z</time></trkpt>
<trkpt lat="39.904263" lon="9.496385"><ele>844.68</ele><time>2022-01-03T14:51:36Z</time></trkpt>
<trkpt lat="39.9043" lon="9.496031"><ele>844.44</ele><time>2022-01-03T14:51:38Z</time></trkpt>
<trkpt lat="39.904308" lon="9.495613"><ele>844.14</ele><time>2022-01-03T14:51:40Z</time></trkpt>
<trkpt lat="39.904216" lon="9.495139"><ele>842.48</ele><time>2022-01-03T14:51:42Z</time></trkpt>
<trkpt lat="39.904178" lon="9.494794"><ele>841.25</ele><time>2022-01-03T14:51:44Z</time></trkpt>
<trkpt lat="39.904221" lon="9.494451"><ele>841.39</ele><time>2022-01-03T14:51:46Z</time></trkpt>
<trkpt lat="39.904302" lon="9.494025"><ele>843.16</ele><time>2022-01-03T14:51:48Z</time></trkpt>
<trkpt lat="39.904387" lon="9.493722"><ele>842.29</ele><time>2022-01-03T14:51:50Z</time></trkpt>
<trkpt lat="39.904518" lon="9.493495"><ele>841.84</ele><time>2022-01-03T14:51:52Z</time></trkpt>
<trkpt lat="39.904724" lon="9.493241"><ele>841.35</ele><time>2022-01-03T14:51:53Z</time></trkpt>
<trkpt lat="39.905056" lon="9.493047"><ele>840.53</ele><time>2022-01-03T14:51:55Z</time></trkpt>
<trkpt lat="39.906526" lon="9.49197"><ele>843.16</ele><time>2022-01-03T14:51:57Z</time></trkpt>
<trkpt lat="39.906987" lon="9.49144"><ele>838.22</ele><time>2022-01-03T14:51:59Z</time></trkpt>
<trkpt lat="39.907483" lon="9.490747"><ele>836.92</ele><time>2022-01-03T14:52:01Z</time></trkpt>
<trkpt lat="39.907553" lon="9.49061"><ele>836.17</ele><time>2022-01-03T14:52:03Z</time></trkpt>
<trkpt lat="39.907622" lon="9.490423"><ele>835.16</ele><time>2022-01-03T14:52:05Z</time></trkpt>
<trkpt lat="39.907719" lon="9.490082"><ele>833.17</ele><time>2022-01-03T14:52:07Z</time></trkpt>
<trkpt lat="39.907703" lon="9.489266"><ele>831.93</ele><time>2022-01-03T14:52:09Z</time></trkpt>
<trkpt lat="39.90778" lon="9.488932"><ele>833.88</ele><time>2022-01-03T14:52:11Z</time></trkpt>
<trkpt lat="39.90787" lon="9.488636"><ele>834.42</ele><time>2022-01-03T14:52:12Z</time></trkpt>
<trkpt lat="39.908004" lon="9.48822"><ele>834.25</ele><time>2022-01-03T14:52:14Z</time></trkpt>
<trkpt lat="39.908119" lon="9.487966"><ele>833.7</ele><time>2022-01-03T14:52:16Z</time></trkpt>
<trkpt lat="39.90953" lon="9.486783"><ele>828.16</ele><time>2022-01-03T14:52:18Z</time></trkpt>
<trkpt lat="39.910267" lon="9.486134"><ele>825.36</ele><time>2022-01-03T14:52:20Z</time></trkpt>
<trkpt lat="39.910621" lon="9.485785"><ele>822.84</ele><time>2022-01-03T14:52:22Z</time></trkpt>
<trkpt lat="39.910872" lon="9.485586"><ele>821.46</ele><time>2022-01-03T14:52:24Z</time></trkpt>
<trkpt lat="39.911525" lon="9.485215"><ele>820.26</ele><time>2022-01-03T14:52:26Z</time></trkpt>
<trkpt lat="39.911797" lon="9.484975"><ele>821.76</ele><time>2022-01-03T14:52:28Z</time></trkpt>
<trkpt lat="39.913106" lon="9.483602"><ele>823.26</ele><time>2022-01-03T14:52:30Z</time></trkpt>
<trkpt lat="39.913497" lon="9.483253"><ele>822.14</ele><time>2022-01-03T14:52:31Z</time></trkpt>
<trkpt lat="39.913661" lon="9.483151"><ele>821.56</ele><time>2022-01-03T14:52:33Z</time></trkpt>
<trkpt lat="39.913838" lon="9.48314"><ele>821.97</ele><time>2022-01-03T14:52:35Z</time></trkpt>
<trkpt lat="39.914051" lon="9.483216"><ele>823.37</ele><time>2022-01-03T14:52:37Z</time></trkpt>
<trkpt lat="39.914315" lon="9.483356"><ele>825.45</ele><time>2022-01-03T14:52:39Z</time></trkpt>
<trkpt lat="39.914511" lon="9.483412"><ele>826.1</ele><time>2022-01-03T14:52:41Z</time></trkpt>
<trkpt lat="39.914647" lon="9.483399"><ele>825.29</ele><time>2022-01-03T14:52:43Z</time></trkpt>
<trkpt lat="39.914759" lon="9.483268"><ele>823.39</ele><time>2022-01-03T14:52:45Z</time></trkpt>
<trkpt lat="39.914818" lon="9.48299"><ele>823.0</ele><time>2022-01-03T14:52:47Z</time></trkpt>
<trkpt lat="39.914634" lon="9.48261"><ele>823.38</ele><time>2022-01-03T14:52:49Z</time></trkpt>
<trkpt lat="39.914606" lon="9.482335"><ele>824.08</ele><time>2022-01-03T14:52:50Z</time></trkpt>
<trkpt lat="39.914612" lon="9.481429"><ele>822.7</ele><time>2022-01-03T14:52:52Z</time></trkpt>
<trkpt lat="39.914667" lon="9.481119"><ele>821.45</ele><time>2022-01-03T14:52:54Z</time></trkpt>
<trkpt lat="39.914797" lon="9.480903"><ele>820.56</ele><time>2022-01-03T14:52:56Z</time></trkpt>
<trkpt lat="39.914998" lon="9.480769"><ele>821.28</ele><time>2022-01-03T14:52:58Z</time></trkpt>
<trkpt lat="39.915352" lon="9.480571"><ele>821.45</ele><time>2022-01-03T14:53:00Z</time></trkpt>
<trkpt lat="39.915716" lon="9.480331"><ele>820.85</ele><time>2022-01-03T14:53:02Z</time></trkpt>
<trkpt lat="39.915788" lon="9.480263"><ele>820.75</ele><time>2022-01-03T14:53:04Z</time></trkpt>
<trkpt lat="39.915973" lon="9.479966"><ele>819.63</ele><time>2022-01-03T14:53:06Z</time></trkpt>
<trkpt lat="39.916077" lon="9.479867"><ele>818.96</ele><time>2022-01-03T14:53:07Z</time></trkpt>
<trkpt lat="39.916135" lon="9.47984"><ele>818.72</ele><time>2022-01-03T14:53:09Z</time></trkpt>
<trkpt lat="39.916453" lon="9.479781"><ele>817.33</ele><time>2022-01-03T14:53:11Z</time></trkpt>
<trkpt lat="39.916672" lon="9.47971"><ele>814.87</ele><time>2022-01-03T14:53:13Z</time></trkpt>
<trkpt lat="39.917224" lon="9.479703"><ele>814.79</ele><time>2022-01-03T14:53:15Z</time></trkpt>
<trkpt lat="39.917517" lon="9.479655"><ele>814.44</ele><time>2022-01-03T14:53:17Z</time></trkpt>
<trkpt lat="39.918268" lon="9.479486"><ele>815.48</ele><time>2022-01-03T14:53:19Z</time></trkpt>
<trkpt lat="39.91838" lon="9.479428"><ele>815.24</ele><time>2022-01-03T14:53:21Z</time></trkpt>
<trkpt lat="39.918483" lon="9.479346"><ele>814.82</ele><time>2022-01-03T14:53:23Z</time></trkpt>
<trkpt lat="39.918691" lon="9.479126"><ele>812.92</ele><time>2022-01-03T14:53:25Z</time></trkpt>
<trkpt lat="39.918922" lon="9.478931"><ele>813.24</ele><time>2022-01-03T14:53:26Z</time></trkpt>
<trkpt lat="39.91962" lon="9.478548"><ele>814.17</ele><time>2022-01-03T14:53:28Z</time></trkpt>
<trkpt lat="39.919836" lon="9.478512"><ele>812.79</ele><time>2022-01-03T14:53:30Z</time></trkpt>
<trkpt lat="39.919973" lon="9.478561"><ele>811.19</ele><time>2022-01-03T14:53:32Z</time></trkpt>
<trkpt lat="39.920228" lon="9.478699"><ele>810.87</ele><time>2022-01-03T14:53:34Z</time></trkpt>
<trkpt lat="39.920308" lon="9.478711"><ele>811.24</ele><time>2022-01-03T14:53:36Z</time></trkpt>
<trkpt lat="39.920378" lon="9.478683"><ele>812.15</ele><time>2022-01-03T14:53:38Z</time></trkpt>
<trkpt lat="39.920471" lon="9.478579"><ele>812.47</ele><time>2022-01-03T14:53:40Z</time></trkpt>
<trkpt lat="39.920767" lon="9.477895"><ele>811.21</ele><time>2022-01-03T14:53:42Z</time></trkpt>
<trkpt lat="39.920949" lon="9.477572"><ele>811.41</ele><time>2022-01-03T14:53:44Z</time></trkpt>
<trkpt lat="39.921265" lon="9.47718"><ele>809.85</ele><time>2022-01-03T14:53:45Z</time></trkpt>
<trkpt lat="39.921524" lon="9.476818"><ele>812.53</ele><time>2022-01-03T14:53:47Z</time></trkpt>
<trkpt lat="39.921781" lon="9.476422"><ele>814.9</ele><time>2022-01-03T14:53:49Z</time></trkpt>
<trkpt lat="39.922396" lon="9.475271"><ele>810.79</ele><time>2022-01-03T14:53:51Z</time></trkpt>
<trkpt lat="39.922552" lon="9.47504"><ele>809.01</ele><time>2022-01-03T14:53:53Z</time></trkpt>
<trkpt lat="39.922758" lon="9.474852"><ele>808.3</ele><time>2022-01-03T14:53:55Z</time></trkpt>
<trkpt lat="39.923038" lon="9.47474"><ele>808.18</ele><time>2022-01-03T14:53:57Z</time></trkpt>
<trkpt lat="39.923759" lon="9.474581"><ele>809.57</ele><time>2022-01-03T14:53:59Z</time></trkpt>
<trkpt lat="39.92428" lon="9.474659"><ele>813.91</ele><time>2022-01-03T14:54:01Z</time></trkpt>
<trkpt lat="39.92449" lon="9.474664"><ele>815.54</ele><time>2022-01-03T14:54:03Z</time></trkpt>
<trkpt lat="39.925059" lon="9.47457"><ele>819.09</ele><time>2022-01-03T14:54:04Z</time></trkpt>
<trkpt lat="39.925252" lon="9.474563"><ele>820.9</ele><time>2022-01-03T14:54:06Z</time></trkpt>
<trkpt lat="39.925346" lon="9.47463"><ele>821.56</ele><time>2022-01-03T14:54:08Z</time></trkpt>
<trkpt lat="39.925354" lon="9.474794"><ele>821.24</ele><time>2022-01-03T14:54:10Z</time></trkpt>
<trkpt lat="39.925269" lon="9.474952"><ele>819.96</ele><time>2022-01-03T14:54:12Z</time></trkpt>
<trkpt lat="39.925145" lon="9.475336"><ele>822.03</ele><time>2022-01-03T14:54:14Z</time></trkpt>
<trkpt lat="39.925126" lon="9.475612"><ele>823.26</ele><time>2022-01-03T14:54:16Z</time></trkpt>
<trkpt lat="39.925202" lon="9.475861"><ele>824.51</ele><time>2022-01-03T14:54:18Z</time></trkpt>
<trkpt lat="39.92532" lon="9.476098"><ele>826.11</ele><time>2022-01-03T14:54:20Z</time></trkpt>
<trkpt lat="39.92549" lon="9.476252"><ele>828.81</ele><time>2022-01-03T14:54:22Z</time></trkpt>
<trkpt lat="39.925734" lon="9.476271"><ele>833.48</ele><time>2022-01-03T14:54:23Z</time></trkpt>
<trkpt lat="39.925872" lon="9.476315"><ele>835.4</ele><time>2022-01-03T14:54:25Z</time></trkpt>
<trkpt lat="39.925943" lon="9.476423"><ele>835.51</ele><time>2022-01-03T14:54:27Z</time></trkpt>
<trkpt lat="39.925962" lon="9.476549"><ele>835.55</ele><time>2022-01-03T14:54:29Z</time></trkpt>
<trkpt lat="39.925922" lon="9.47681"><ele>834.75</ele><time>2022-01-03T14:54:31Z</time></trkpt>
<trkpt lat="39.92586" lon="9.477459"><ele>833.58</ele><time>2022-01-03T14:54:33Z</time></trkpt>
<trkpt lat="39.925858" lon="9.477628"><ele>833.08</ele><time>2022-01-03T14:54:35Z</time></trkpt>
<trkpt lat="39.925905" lon="9.47777"><ele>833.57</ele><time>2022-01-03T14:54:37Z</time></trkpt>
<trkpt lat="39.926013" lon="9.477823"><ele>835.46</ele><time>2022-01-03T14:54:39Z</time></trkpt>
<trkpt lat="39.926153" lon="9.477825"><ele>838.26</ele><time>2022-01-03T14:54:40Z</time></trkpt>
<trkpt lat="39.926296" lon="9.477888"><ele>840.41</ele><time>2022-01-03T14:54:42Z</time></trkpt>
<trkpt lat="39.926411" lon="9.478008"><ele>841.75</ele><time>2022-01-03T14:54:44Z</time></trkpt>
<trkpt lat="39.926455" lon="9.478274"><ele>840.01</ele><time>2022-01-03T14:54:46Z</time></trkpt>
<trkpt lat="39.926515" lon="9.478455"><ele>839.45</ele><time>2022-01-03T14:54:48Z</time></trkpt>
<trkpt lat="39.926623" lon="9.478623"><ele>839.12</ele><time>2022-01-03T14:54:50Z</time></trkpt>
<trkpt lat="39.92679" lon="9.478758"><ele>839.05</ele><time>2022-01-03T14:54:52Z</time></trkpt>
<trkpt lat="39.926978" lon="9.478831"><ele>841.12</ele><time>2022-01-03T14:54:54Z</time></trkpt>
<trkpt lat="39.927163" lon="9.478877"><ele>844.82</ele><time>2022-01-03T14:54:56Z</time></trkpt>
<trkpt lat="39.927528" lon="9.479344"><ele>844.91</ele><time>2022-01-03T14:54:58Z</time></trkpt>
<trkpt lat="39.927677" lon="9.479422"><ele>845.96</ele><time>2022-01-03T14:54:59Z</time></trkpt>
<trkpt lat="39.927825" lon="9.479389"><ele>849.56</ele><time>2022-01-03T14:55:01Z</time></trkpt>
<trkpt lat="39.927963" lon="9.47943"><ele>852.66</ele><time>2022-01-03T14:55:03Z</time></trkpt>
<trkpt lat="39.928074" lon="9.479529"><ele>853.78</ele><time>2022-01-03T14:55:05Z</time></trkpt>
<trkpt lat="39.928122" lon="9.479665"><ele>852.04</ele><time>2022-01-03T14:55:07Z</time></trkpt>
<trkpt lat="39.928197" lon="9.479997"><ele>847.58</ele><time>2022-01-03T14:55:09Z</time></trkpt>
<trkpt lat="39.928301" lon="9.480204"><ele>845.72</ele><time>2022-01-03T14:55:11Z</time></trkpt>
<trkpt lat="39.928448" lon="9.480257"><ele>846.13</ele><time>2022-01-03T14:55:13Z</time></trkpt>
<trkpt lat="39.9286" lon="9.480242"><ele>847.43</ele><time>2022-01-03T14:55:15Z</time></trkpt>
<trkpt lat="39.928733" lon="9.480093"><ele>850.54</ele><time>2022-01-03T14:55:17Z</time></trkpt>
<trkpt lat="39.928785" lon="9.479862"><ele>854.43</ele><time>2022-01-03T14:55:18Z</time></trkpt>
<trkpt lat="39.928799" lon="9.479717"><ele>856.78</ele><time>2022-01-03T14:55:20Z</time></trkpt>
<trkpt lat="39.928893" lon="9.479603"><ele>859.6</ele><time>2022-01-03T14:55:22Z</time></trkpt>
<trkpt lat="39.929006" lon="9.479576"><ele>860.77</ele><time>2022-01-03T14:55:24Z</time></trkpt>
<trkpt lat="39.929335" lon="9.479792"><ele>859.66</ele><time>2022-01-03T14:55:26Z</time></trkpt>
<trkpt lat="39.92948" lon="9.479843"><ele>859.96</ele><time>2022-01-03T14:55:28Z</time></trkpt>
<trkpt lat="39.929881" lon="9.47971"><ele>863.33</ele><time>2022-01-03T14:55:30Z</time></trkpt>
<trkpt lat="39.930097" lon="9.479729"><ele>863.6</ele><time>2022-01-03T14:55:32Z</time></trkpt>
<trkpt lat="39.930278" lon="9.479799"><ele>864.18</ele><time>2022-01-03T14:55:34Z</time></trkpt>
<trkpt lat="39.930374" lon="9.479887"><ele>865.29</ele><time>2022-01-03T14:55:36Z</time></trkpt>
<trkpt lat="39.930429" lon="9.480089"><ele>864.97</ele><time>2022-01-03T14:55:37Z</time></trkpt>
<trkpt lat="39.930416" lon="9.480381"><ele>863.78</ele><time>2022-01-03T14:55:39Z</time></trkpt>
<trkpt lat="39.930488" lon="9.480737"><ele>864.8</ele><time>2022-01-03T14:55:41Z</time></trkpt>
<trkpt lat="39.930607" lon="9.480976"><ele>866.64</ele><time>2022-01-03T14:55:43Z</time></trkpt>
<trkpt lat="39.93071" lon="9.481064"><ele>867.39</ele><time>2022-01-03T14:55:45Z</time></trkpt>
<trkpt lat="39.930933" lon="9.481105"><ele>868.43</ele><time>2022-01-03T14:55:47Z</time></trkpt>
<trkpt lat="39.931097" lon="9.481067"><ele>869.42</ele><time>2022-01-03T14:55:49Z</time></trkpt>
<trkpt lat="39.93148" lon="9.480602"><ele>876.7</ele><time>2022-01-03T14:55:51Z</time></trkpt>
<trkpt lat="39.931616" lon="9.480562"><ele>878.48</ele><time>2022-01-03T14:55:53Z</time></trkpt>
<trkpt lat="39.931754" lon="9.480573"><ele>878.92</ele><time>2022-01-03T14:55:55Z</time></trkpt>
<trkpt lat="39.931916" lon="9.48062"><ele>878.68</ele><time>2022-01-03T14:55:56Z</time></trkpt>
<trkpt lat="39.932088" lon="9.480603"><ele>879.84</ele><time>2022-01-03T14:55:58Z</time></trkpt>
<trkpt lat="39.933182" lon="9.480272"><ele>879.41</ele><time>2022-01-03T14:56:00Z</time></trkpt>
<trkpt lat="39.933516" lon="9.480154"><ele>879.25</ele><time>2022-01-03T14:56:02Z</time></trkpt>
<trkpt lat="39.934386" lon="9.479613"><ele>875.87</ele><time>2022-01-03T14:56:04Z</time></trkpt>
<trkpt lat="39.934534" lon="9.479451"><ele>875.07</ele><time>2022-01-03T14:56:06Z</time></trkpt>
<trkpt lat="39.934729" lon="9.479172"><ele>872.16</ele><time>2022-01-03T14:56:08Z</time></trkpt>
<trkpt lat="39.934855" lon="9.479052"><ele>872.6</ele><time>2022-01-03T14:56:10Z</time></trkpt>
<trkpt lat="39.935625" lon="9.478653"><ele>871.15</ele><time>2022-01-03T14:56:12Z</time></trkpt>
<trkpt lat="39.936765" lon="9.478123"><ele>867.4</ele><time>2022-01-03T14:56:13Z</time></trkpt>
<trkpt lat="39.936786" lon="9.478183"><ele>867.72</ele><time>2022-01-03T14:56:16Z</time></trkpt>
<trkpt lat="39.936823" lon="9.478229"><ele>867.9</ele><time>2022-01-03T14:56:19Z</time></trkpt>
<trkpt lat="39.93687" lon="9.478255"><ele>867.91</ele><time>2022-01-03T14:56:22Z</time></trkpt>
<trkpt lat="39.936921" lon="9.478259"><ele>867.79</ele><time>2022-01-03T14:56:25Z</time></trkpt>
<trkpt lat="39.936969" lon="9.478238"><ele>867.33</ele><time>2022-01-03T14:56:28Z</time></trkpt>
<trkpt lat="39.937009" lon="9.478197"><ele>866.69</ele><time>2022-01-03T14:56:31Z</time></trkpt>
<trkpt lat="39.937035" lon="9.47814"><ele>866.23</ele><time>2022-01-03T14:56:33Z</time></trkpt>
<trkpt lat="39.937044" lon="9.478075"><ele>865.97</ele><time>2022-01-03T14:56:36Z</time></trkpt>
<trkpt lat="39.937035" lon="9.47801"><ele>865.74</ele><time>2022-01-03T14:56:39Z</time></trkpt>
<trkpt lat="39.937321" lon="9.477875"><ele>862.52</ele><time>2022-01-03T14:56:42Z</time></trkpt>
<trkpt lat="39.937516" lon="9.477825"><ele>860.89</ele><time>2022-01-03T14:56:45Z</time></trkpt>
<trkpt lat="39.937584" lon="9.477845"><ele>860.47</ele><time>2022-01-03T14:56:48Z</time></trkpt>
<trkpt lat="39.937724" lon="9.477936"><ele>859.84</ele><time>2022-01-03T14:56:51Z</time></trkpt>
<trkpt lat="39.937913" lon="9.478178"><ele>858.75</ele><time>2022-01-03T14:56:53Z</time></trkpt>
<trkpt lat="39.938914" lon="9.479609"><ele>852.41</ele><time>2022-01-03T14:56:56Z</time></trkpt>
<trkpt lat="39.939023" lon="9.479731"><ele>852.06</ele><time>2022-01-03T14:56:59Z</time></trkpt>
<trkpt lat="39.939149" lon="9.479816"><ele>851.47</ele><time>2022-01-03T14:57:02Z</time></trkpt>
<trkpt lat="39.939282" lon="9.479865"><ele>850.67</ele><time>2022-01-03T14:57:05Z</time></trkpt>
<trkpt lat="39.93943" lon="9.479848"><ele>849.65</ele><time>2022-01-03T14:57:08Z</time></trkpt>
<trkpt lat="39.939521" lon="9.479808"><ele>849.5</ele><time>2022-01-03T14:57:11Z</time></trkpt>
<trkpt lat="39.94023" lon="9.479285"><ele>846.6</ele><time>2022-01-03T14:57:13Z</time></trkpt>
<trkpt lat="39.9409" lon="9.478817"><ele>842.36</ele><time>2022-01-03T14:57:16Z</time></trkpt>
<trkpt lat="39.943248" lon="9.47708"><ele>838.03</ele><time>2022-01-03T14:57:19Z</time></trkpt>
<trkpt lat="39.944901" lon="9.475841"><ele>846.29</ele><time>2022-01-03T14:57:22Z</time></trkpt>
<trkpt lat="39.945364" lon="9.475578"><ele>847.05</ele><time>2022-01-03T14:57:27Z</time></trkpt>
<trkpt lat="39.945723" lon="9.475334"><ele>846.4</ele><time>2022-01-03T14:57:32Z</time></trkpt>
<trkpt lat="39.946369" lon="9.474855"><ele>851.38</ele><time>2022-01-03T14:57:37Z</time></trkpt>
<trkpt lat="39.946573" lon="9.474665"><ele>853.46</ele><time>2022-01-03T14:57:43Z</time></trkpt>
<trkpt lat="39.946938" lon="9.474298"><ele>854.04</ele><time>2022-01-03T14:57:49Z</time></trkpt>
<trkpt lat="39.948548" lon="9.473091"><ele>858.54</ele><time>2022-01-03T14:57:54Z</time></trkpt>
<trkpt lat="39.948706" lon="9.472946"><ele>860.5</ele><time>2022-01-03T14:58:00Z</time></trkpt>
<trkpt lat="39.950899" lon="9.471327"><ele>861.29</ele><time>2022-01-03T14:58:06Z</time></trkpt>
<trkpt lat="39.951438" lon="9.470988"><ele>866.62</ele><time>2022-01-03T14:58:12Z</time></trkpt>
<trkpt lat="39.954742" lon="9.469601"><ele>863.93</ele><time>2022-01-03T14:58:18Z</time></trkpt>
<trkpt lat="39.955376" lon="9.46929"><ele>862.8</ele><time>2022-01-03T14:58:23Z</time></trkpt>
<trkpt lat="39.955485" lon="9.469195"><ele>862.84</ele><time>2022-01-03T14:58:29Z</time></trkpt>
<trkpt lat="39.955929" lon="9.468545"><ele>860.92</ele><time>2022-01-03T14:58:35Z</time></trkpt>
<trkpt lat="39.95675" lon="9.467276"><ele>854.68</ele><time>2022-01-03T14:58:41Z</time></trkpt>
<trkpt lat="39.956874" lon="9.467146"><ele>854.27</ele><time>2022-01-03T14:58:46Z</time></trkpt>
<trkpt lat="39.956972" lon="9.467097"><ele>854.09</ele><time>2022-01-03T14:58:52Z</time></trkpt>
<trkpt lat="39.957077" lon="9.46709"><ele>854.05</ele><time>2022-01-03T14:58:58Z</time></trkpt>
<trkpt lat="39.957511" lon="9.467199"><ele>854.66</ele><time>2022-01-03T14:59:04Z</time></trkpt>
<trkpt lat="39.957791" lon="9.467177"><ele>852.47</ele><time>2022-01-03T14:59:09Z</time></trkpt>
<trkpt lat="39.958202" lon="9.46709"><ele>851.84</ele><time>2022-01-03T14:59:15Z</time></trkpt>
<trkpt lat="39.958298" lon="9.467022"><ele>851.67</ele><time>2022-01-03T14:59:21Z</time></trkpt>
<trkpt lat="39.958405" lon="9.466912"><ele>850.99</ele><time>2022-01-03T14:59:27Z</time></trkpt>
<trkpt lat="39.95848" lon="9.466807"><ele>850.27</ele><time>2022-01-03T14:59:32Z</time></trkpt>
<trkpt lat="39.958528" lon="9.466692"><ele>849.25</ele><time>2022-01-03T14:59:38Z</time></trkpt>
<trkpt lat="39.95859" lon="9.466433"><ele>848.09</ele><time>2022-01-03T14:59:44Z</time></trkpt>
<trkpt lat="39.959447" lon="9.463498"><ele>841.22</ele><time>2022-01-03T14:59:50Z</time></trkpt>
<trkpt lat="39.95949" lon="9.463409"><ele>841.03</ele><time>2022-01-03T14:59:56Z</time></trkpt>
<trkpt lat="39.959564" lon="9.46334"><ele>841.35</ele><time>2022-01-03T15:00:01Z</time></trkpt>
<trkpt lat="39.959699" lon="9.463283"><ele>842.04</ele><time>2022-01-03T15:00:07Z</time></trkpt>
<trkpt lat="39.960666" lon="9.462994"><ele>836.67</ele><time>2022-01-03T15:00:13Z</time></trkpt>
<trkpt lat="39.961002" lon="9.46292"><ele>835.24</ele><time>2022-01-03T15:00:19Z</time></trkpt>
<trkpt lat="39.961287" lon="9.462938"><ele>834.31</ele><time>2022-01-03T15:00:24Z</time></trkpt>
<trkpt lat="39.96183" lon="9.46309"><ele>833.66</ele><time>2022-01-03T15:00:30Z</time></trkpt>
<trkpt lat="39.96191" lon="9.463099"><ele>833.44</ele><time>2022-01-03T15:00:32Z</time></trkpt>
<trkpt lat="39.962015" lon="9.463066"><ele>833.07</ele><time>2022-01-03T15:00:35Z</time></trkpt>
<trkpt lat="39.962103" lon="9.462995"><ele>832.56</ele><time>2022-01-03T15:00:37Z</time></trkpt>
<trkpt lat="39.962177" lon="9.462873"><ele>831.68</ele><time>2022-01-03T15:00:39Z</time></trkpt>
<trkpt lat="39.962501" lon="9.461618"><ele>824.82</ele><time>2022-01-03T15:00:42Z</time></trkpt>
<trkpt lat="39.96363" lon="9.457595"><ele>830.95</ele><time>2022-01-03T15:00:44Z</time></trkpt>
<trkpt lat="39.963803" lon="9.457355"><ele>834.08</ele><time>2022-01-03T15:00:46Z</time></trkpt>
<trkpt lat="39.964637" lon="9.4564"><ele>836.72</ele><time>2022-01-03T15:00:49Z</time></trkpt>
<trkpt lat="39.965499" lon="9.455751"><ele>842.0</ele><time>2022-01-03T15:00:51Z</time></trkpt>
<trkpt lat="39.966268" lon="9.455471"><ele>845.39</ele><time>2022-01-03T15:00:53Z</time></trkpt>
<trkpt lat="39.966348" lon="9.455403"><ele>846.01</ele><time>2022-01-03T15:00:56Z</time></trkpt>
<trkpt lat="39.966387" lon="9.455315"><ele>846.12</ele><time>2022-01-03T15:00:58Z</time></trkpt>
<trkpt lat="39.966395" lon="9.455142"><ele>846.57</ele><time>2022-01-03T15:01:00Z</time></trkpt>
<trkpt lat="39.966343" lon="9.454809"><ele>848.04</ele><time>2022-01-03T15:01:03Z</time></trkpt>
<trkpt lat="39.966315" lon="9.454713"><ele>848.56</ele><time>2022-01-03T15:01:05Z</time></trkpt>
<trkpt lat="39.966201" lon="9.454557"><ele>849.03</ele><time>2022-01-03T15:01:07Z</time></trkpt>
<trkpt lat="39.965734" lon="9.454136"><ele>851.19</ele><time>2022-01-03T15:01:10Z</time></trkpt>
<trkpt lat="39.965589" lon="9.454053"><ele>852.16</ele><time>2022-01-03T15:01:12Z</time></trkpt>
<trkpt lat="39.965331" lon="9.454052"><ele>852.86</ele><time>2022-01-03T15:01:14Z</time></trkpt>
<trkpt lat="39.965246" lon="9.454004"><ele>853.86</ele><time>2022-01-03T15:01:17Z</time></trkpt>
<trkpt lat="39.964999" lon="9.453739"><ele>857.16</ele><time>2022-01-03T15:01:19Z</time></trkpt>
<trkpt lat="39.964916" lon="9.453698"><ele>858.06</ele><time>2022-01-03T15:01:21Z</time></trkpt>
<trkpt lat="39.964838" lon="9.453687"><ele>858.49</ele><time>2022-01-03T15:01:24Z</time></trkpt>
<trkpt lat="39.964623" lon="9.453757"><ele>857.55</ele><time>2022-01-03T15:01:26Z</time></trkpt>
<trkpt lat="39.964455" lon="9.45377"><ele>856.75</ele><time>2022-01-03T15:01:28Z</time></trkpt>
<trkpt lat="39.964373" lon="9.45371"><ele>856.72</ele><time>2022-01-03T15:01:31Z</time></trkpt>
<trkpt lat="39.964157" lon="9.453476"><ele>857.25</ele><time>2022-01-03T15:01:33Z</time></trkpt>
<trkpt lat="39.964079" lon="9.453357"><ele>856.84</ele><time>2022-01-03T15:01:35Z</time></trkpt>
<trkpt lat="39.963951" lon="9.452959"><ele>856.25</ele><time>2022-01-03T15:01:38Z</time></trkpt>
<trkpt lat="39.963938" lon="9.45283"><ele>856.53</ele><time>2022-01-03T15:01:40Z</time></trkpt>
<trkpt lat="39.964041" lon="9.452461"><ele>858.84</ele><time>2022-01-03T15:01:42Z</time></trkpt>
<trkpt lat="39.96405" lon="9.452331"><ele>859.6</ele><time>2022-01-03T15:01:45Z</time></trkpt>
<trkpt lat="39.96404" lon="9.452198"><ele>860.06</ele><time>2022-01-03T15:01:47Z</time></trkpt>
<trkpt lat="39.963977" lon="9.451938"><ele>858.55</ele><time>2022-01-03T15:01:49Z</time></trkpt>
<trkpt lat="39.963968" lon="9.451777"><ele>857.56</ele><time>2022-01-03T15:01:52Z</time></trkpt>
<trkpt lat="39.963987" lon="9.45167"><ele>857.5</ele><time>2022-01-03T15:01:54Z</time></trkpt>
<trkpt lat="39.964027" lon="9.451602"><ele>858.25</ele><time>2022-01-03T15:01:56Z</time></trkpt>
<trkpt lat="39.964231" lon="9.451376"><ele>861.55</ele><time>2022-01-03T15:01:59Z</time></trkpt>
<trkpt lat="39.964333" lon="9.451228"><ele>862.92</ele><time>2022-01-03T15:02:01Z</time></trkpt>
<trkpt lat="39.964518" lon="9.450737"><ele>863.15</ele><time>2022-01-03T15:02:03Z</time></trkpt>
<trkpt lat="39.964599" lon="9.4506"><ele>863.85</ele><time>2022-01-03T15:02:06Z</time></trkpt>
<trkpt lat="39.964689" lon="9.450505"><ele>864.46</ele><time>2022-01-03T15:02:08Z</time></trkpt>
<trkpt lat="39.964768" lon="9.450454"><ele>865.06</ele><time>2022-01-03T15:02:10Z</time></trkpt>
<trkpt lat="39.96538" lon="9.450195"><ele>870.43</ele><time>2022-01-03T15:02:13Z</time></trkpt>
<trkpt lat="39.965464" lon="9.450131"><ele>871.47</ele><time>2022-01-03T15:02:15Z</time></trkpt>
<trkpt lat="39.965549" lon="9.450016"><ele>872.02</ele><time>2022-01-03T15:02:17Z</time></trkpt>
<trkpt lat="39.965745" lon="9.449627"><ele>872.82</ele><time>2022-01-03T15:02:20Z</time></trkpt>
<trkpt lat="39.965859" lon="9.449452"><ele>873.31</ele><time>2022-01-03T15:02:22Z</time></trkpt>
<trkpt lat="39.965951" lon="9.449379"><ele>874.27</ele><time>2022-01-03T15:02:24Z</time></trkpt>
<trkpt lat="39.966086" lon="9.449308"><ele>875.73</ele><time>2022-01-03T15:02:27Z</time></trkpt>
<trkpt lat="39.966488" lon="9.449169"><ele>879.72</ele><time>2022-01-03T15:02:29Z</time></trkpt>
<trkpt lat="39.966811" lon="9.448909"><ele>881.12</ele><time>2022-01-03T15:02:31Z</time></trkpt>
<trkpt lat="39.96706" lon="9.448818"><ele>882.16</ele><time>2022-01-03T15:02:34Z</time></trkpt>
<trkpt lat="39.967536" lon="9.448703"><ele>882.92</ele><time>2022-01-03T15:02:36Z</time></trkpt>
<trkpt lat="39.968602" lon="9.447976"><ele>889.69</ele><time>2022-01-03T15:02:38Z</time></trkpt>
<trkpt lat="39.96872" lon="9.447919"><ele>889.9</ele><time>2022-01-03T15:02:41Z</time></trkpt>
<trkpt lat="39.969193" lon="9.447774"><ele>890.08</ele><time>2022-01-03T15:02:43Z</time></trkpt>
<trkpt lat="39.969321" lon="9.4477"><ele>890.28</ele><time>2022-01-03T15:02:45Z</time></trkpt>
<trkpt lat="39.969429" lon="9.447586"><ele>890.25</ele><time>2022-01-03T15:02:48Z</time></trkpt>
<trkpt lat="39.969503" lon="9.447438"><ele>890.0</ele><time>2022-01-03T15:02:50Z</time></trkpt>
<trkpt lat="39.96992" lon="9.446434"><ele>887.16</ele><time>2022-01-03T15:02:52Z</time></trkpt>
<trkpt lat="39.969979" lon="9.446212"><ele>886.32</ele><time>2022-01-03T15:02:55Z</time></trkpt>
<trkpt lat="39.970032" lon="9.445773"><ele>882.98</ele><time>2022-01-03T15:02:57Z</time></trkpt>
<trkpt lat="39.97007" lon="9.445612"><ele>882.5</ele><time>2022-01-03T15:02:59Z</time></trkpt>
<trkpt lat="39.970137" lon="9.44546"><ele>882.32</ele><time>2022-01-03T15:03:02Z</time></trkpt>
<trkpt lat="39.970251" lon="9.445334"><ele>882.18</ele><time>2022-01-03T15:03:04Z</time></trkpt>
<trkpt lat="39.971945" lon="9.444228"><ele>876.0</ele><time>2022-01-03T15:03:06Z</time></trkpt>
<trkpt lat="39.972099" lon="9.44417"><ele>875.45</ele><time>2022-01-03T15:03:09Z</time></trkpt>
<trkpt lat="39.972249" lon="9.444142"><ele>875.0</ele><time>2022-01-03T15:03:11Z</time></trkpt>
<trkpt lat="39.972691" lon="9.444186"><ele>874.93</ele><time>2022-01-03T15:03:13Z</time></trkpt>
<trkpt lat="39.972806" lon="9.44417"><ele>874.89</ele><time>2022-01-03T15:03:16Z</time></trkpt>
<trkpt lat="39.972889" lon="9.444123"><ele>874.54</ele><time>2022-01-03T15:03:18Z</time></trkpt>
<trkpt lat="39.972978" lon="9.444043"><ele>873.96</ele><time>2022-01-03T15:03:20Z</time></trkpt>
<trkpt lat="39.973682" lon="9.443269"><ele>867.91</ele><time>2022-01-03T15:03:23Z</time></trkpt>
<trkpt lat="39.973834" lon="9.443129"><ele>867.34</ele><time>2022-01-03T15:03:25Z</time></trkpt>
<trkpt lat="39.974092" lon="9.442995"><ele>866.49</ele><time>2022-01-03T15:03:27Z</time></trkpt>
<trkpt lat="39.975052" lon="9.442734"><ele>865.5</ele><time>2022-01-03T15:03:30Z</time></trkpt>
<trkpt lat="39.97518" lon="9.442659"><ele>864.55</ele><time>2022-01-03T15:03:32Z</time></trkpt>
<trkpt lat="39.975455" lon="9.44245"><ele>862.84</ele><time>2022-01-03T15:03:34Z</time></trkpt>
<trkpt lat="39.97562" lon="9.442391"><ele>862.39</ele><time>2022-01-03T15:03:37Z</time></trkpt>
<trkpt lat="39.975827" lon="9.442366"><ele>862.48</ele><time>2022-01-03T15:03:39Z</time></trkpt>
<trkpt lat="39.97651" lon="9.442403"><ele>861.85</ele><time>2022-01-03T15:03:41Z</time></trkpt>
<trkpt lat="39.976697" lon="9.442458"><ele>861.76</ele><time>2022-01-03T15:03:44Z</time></trkpt>
<trkpt lat="39.976855" lon="9.442548"><ele>861.44</ele><time>2022-01-03T15:03:46Z</time></trkpt>
<trkpt lat="39.977061" lon="9.442713"><ele>861.25</ele><time>2022-01-03T15:03:48Z</time></trkpt>
<trkpt lat="39.977231" lon="9.442759"><ele>860.78</ele><time>2022-01-03T15:03:51Z</time></trkpt>
<trkpt lat="39.977338" lon="9.442738"><ele>859.59</ele><time>2022-01-03T15:03:53Z</time></trkpt>
<trkpt lat="39.978646" lon="9.442194"><ele>857.17</ele><time>2022-01-03T15:03:55Z</time></trkpt>
<trkpt lat="39.978812" lon="9.442079"><ele>857.45</ele><time>2022-01-03T15:03:58Z</time></trkpt>
<trkpt lat="39.979064" lon="9.441748"><ele>857.96</ele><time>2022-01-03T15:04:00Z</time></trkpt>
<trkpt lat="39.97912" lon="9.441642"><ele>857.85</ele><time>2022-01-03T15:04:02Z</time></trkpt>
<trkpt lat="39.979165" lon="9.441505"><ele>858.18</ele><time>2022-01-03T15:04:05Z</time></trkpt>
<trkpt lat="39.979205" lon="9.440896"><ele>858.58</ele><time>2022-01-03T15:04:07Z</time></trkpt>
<trkpt lat="39.979242" lon="9.440717"><ele>857.88</ele><time>2022-01-03T15:04:09Z</time></trkpt>
<trkpt lat="39.979305" lon="9.440582"><ele>857.05</ele><time>2022-01-03T15:04:12Z</time></trkpt>
<trkpt lat="39.979385" lon="9.440486"><ele>856.87</ele><time>2022-01-03T15:04:14Z</time></trkpt>
<trkpt lat="39.979945" lon="9.440112"><ele>855.39</ele><time>2022-01-03T15:04:16Z</time></trkpt>
<trkpt lat="39.980082" lon="9.440062"><ele>855.26</ele><time>2022-01-03T15:04:19Z</time></trkpt>
<trkpt lat="39.980269" lon="9.440026"><ele>854.84</ele><time>2022-01-03T15:04:21Z</time></trkpt>
<trkpt lat="39.980423" lon="9.440038"><ele>853.3</ele><time>2022-01-03T15:04:23Z</time></trkpt>
<trkpt lat="39.980546" lon="9.440096"><ele>852.08</ele><time>2022-01-03T15:04:26Z</time></trkpt>
<trkpt lat="39.981025" lon="9.440463"><ele>853.84</ele><time>2022-01-03T15:04:28Z</time></trkpt>
<trkpt lat="39.981131" lon="9.44052"><ele>855.24</ele><time>2022-01-03T15:04:30Z</time></trkpt>
<trkpt lat="39.981222" lon="9.440524"><ele>856.92</ele><time>2022-01-03T15:04:33Z</time></trkpt>
<trkpt lat="39.981327" lon="9.440451"><ele>858.81</ele><time>2022-01-03T15:04:35Z</time></trkpt>
<trkpt lat="39.981383" lon="9.44037"><ele>859.89</ele><time>2022-01-03T15:04:37Z</time></trkpt>
<trkpt lat="39.98142" lon="9.440268"><ele>860.65</ele><time>2022-01-03T15:04:40Z</time></trkpt>
<trkpt lat="39.981426" lon="9.440121"><ele>860.23</ele><time>2022-01-03T15:04:42Z</time></trkpt>
<trkpt lat="39.981334" lon="9.439476"><ele>859.68</ele><time>2022-01-03T15:04:44Z</time></trkpt>
<trkpt lat="39.981293" lon="9.439336"><ele>859.98</ele><time>2022-01-03T15:04:47Z</time></trkpt>
<trkpt lat="39.981063" lon="9.438783"><ele>858.1</ele><time>2022-01-03T15:04:49Z</time></trkpt>
<trkpt lat="39.981046" lon="9.438691"><ele>857.89</ele><time>2022-01-03T15:04:51Z</time></trkpt>
<trkpt lat="39.981053" lon="9.438585"><ele>858.25</ele><time>2022-01-03T15:04:54Z</time></trkpt>
<trkpt lat="39.981085" lon="9.43847"><ele>858.79</ele><time>2022-01-03T15:04:56Z</time></trkpt>
<trkpt lat="39.981255" lon="9.438229"><ele>861.76</ele><time>2022-01-03T15:04:58Z</time></trkpt>
<trkpt lat="39.981736" lon="9.437336"><ele>862.92</ele><time>2022-01-03T15:05:01Z</time></trkpt>
<trkpt lat="39.981834" lon="9.437248"><ele>863.87</ele><time>2022-01-03T15:05:03Z</time></trkpt>
<trkpt lat="39.9828" lon="9.436976"><ele>870.43</ele><time>2022-01-03T15:05:05Z</time></trkpt>
<trkpt lat="39.98293" lon="9.436884"><ele>870.23</ele><time>2022-01-03T15:05:08Z</time></trkpt>
<trkpt lat="39.983146" lon="9.436678"><ele>871.03</ele><time>2022-01-03T15:05:10Z</time></trkpt>
<trkpt lat="39.983281" lon="9.436622"><ele>872.14</ele><time>2022-01-03T15:05:12Z</time></trkpt>
<trkpt lat="39.984456" lon="9.43636"><ele>877.95</ele><time>2022-01-03T15:05:15Z</time></trkpt>
<trkpt lat="39.984545" lon="9.436302"><ele>878.32</ele><time>2022-01-03T15:05:17Z</time></trkpt>
<trkpt lat="39.98461" lon="9.436209"><ele>878.75</ele><time>2022-01-03T15:05:19Z</time></trkpt>
<trkpt lat="39.984645" lon="9.436052"><ele>879.38</ele><time>2022-01-03T15:05:22Z</time></trkpt>
<trkpt lat="39.984635" lon="9.435838"><ele>880.04</ele><time>2022-01-03T15:05:24Z</time></trkpt>
<trkpt lat="39.984526" lon="9.435121"><ele>880.6</ele><time>2022-01-03T15:05:26Z</time></trkpt>
<trkpt lat="39.984523" lon="9.43479"><ele>882.09</ele><time>2022-01-03T15:05:29Z</time></trkpt>
<trkpt lat="39.984545" lon="9.434621"><ele>883.54</ele><time>2022-01-03T15:05:31Z</time></trkpt>
<trkpt lat="39.984536" lon="9.434453"><ele>884.59</ele><time>2022-01-03T15:05:33Z</time></trkpt>
<trkpt lat="39.984496" lon="9.434293"><ele>884.58</ele><time>2022-01-03T15:05:36Z</time></trkpt>
<trkpt lat="39.984441" lon="9.434159"><ele>883.99</ele><time>2022-01-03T15:05:38Z</time></trkpt>
<trkpt lat="39.984422" lon="9.434043"><ele>884.21</ele><time>2022-01-03T15:05:40Z</time></trkpt>
<trkpt lat="39.984441" lon="9.433919"><ele>884.85</ele><time>2022-01-03T15:05:42Z</time></trkpt>
<trkpt lat="39.984617" lon="9.433652"><ele>886.42</ele><time>2022-01-03T15:05:45Z</time></trkpt>
<trkpt lat="39.9847" lon="9.433561"><ele>886.66</ele><time>2022-01-03T15:05:47Z</time></trkpt>
<trkpt lat="39.984816" lon="9.433515"><ele>887.66</ele><time>2022-01-03T15:05:49Z</time></trkpt>
<trkpt lat="39.985307" lon="9.433496"><ele>890.9</ele><time>2022-01-03T15:05:52Z</time></trkpt>
<trkpt lat="39.985598" lon="9.433442"><ele>892.03</ele><time>2022-01-03T15:05:54Z</time></trkpt>
<trkpt lat="39.986667" lon="9.433035"><ele>895.92</ele><time>2022-01-03T15:05:56Z</time></trkpt>
<trkpt lat="39.986753" lon="9.43297"><ele>896.84</ele><time>2022-01-03T15:05:59Z</time></trkpt>
<trkpt lat="39.986815" lon="9.432869"><ele>897.11</ele><time>2022-01-03T15:06:01Z</time></trkpt>
<trkpt lat="39.986837" lon="9.432735"><ele>896.68</ele><time>2022-01-03T15:06:03Z</time></trkpt>
<trkpt lat="39.98683" lon="9.432467"><ele>895.79</ele><time>2022-01-03T15:06:06Z</time></trkpt>
<trkpt lat="39.98685" lon="9.43236"><ele>896.14</ele><time>2022-01-03T15:06:08Z</time></trkpt>
<trkpt lat="39.987016" lon="9.432036"><ele>899.78</ele><time>2022-01-03T15:06:10Z</time></trkpt>
<trkpt lat="39.987043" lon="9.431931"><ele>900.39</ele><time>2022-01-03T15:06:13Z</time></trkpt>
<trkpt lat="39.987046" lon="9.431572"><ele>899.49</ele><time>2022-01-03T15:06:15Z</time></trkpt>
<trkpt lat="39.987068" lon="9.431444"><ele>899.43</ele><time>2022-01-03T15:06:17Z</time></trkpt>
<trkpt lat="39.987142" lon="9.431289"><ele>899.94</ele><time>2022-01-03T15:06:20Z</time></trkpt>
<trkpt lat="39.987289" lon="9.431138"><ele>901.16</ele><time>2022-01-03T15:06:22Z</time></trkpt>
<trkpt lat="39.987449" lon="9.431026"><ele>902.35</ele><time>2022-01-03T15:06:24Z</time></trkpt>
<trkpt lat="39.988405" lon="9.43055"><ele>909.96</ele><time>2022-01-03T15:06:27Z</time></trkpt>
<trkpt lat="39.988584" lon="9.430443"><ele>911.35</ele><time>2022-01-03T15:06:29Z</time></trkpt>
<trkpt lat="39.98868" lon="9.430336"><ele>912.05</ele><time>2022-01-03T15:06:31Z</time></trkpt>
<trkpt lat="39.989112" lon="9.429243"><ele>912.85</ele><time>2022-01-03T15:06:34Z</time></trkpt>
<trkpt lat="39.989203" lon="9.429131"><ele>913.24</ele><time>2022-01-03T15:06:36Z</time></trkpt>
<trkpt lat="39.989304" lon="9.429092"><ele>914.08</ele><time>2022-01-03T15:06:38Z</time></trkpt>
<trkpt lat="39.989811" lon="9.42902"><ele>917.26</ele><time>2022-01-03T15:06:41Z</time></trkpt>
<trkpt lat="39.989912" lon="9.428955"><ele>917.77</ele><time>2022-01-03T15:06:43Z</time></trkpt>
<trkpt lat="39.990774" lon="9.427332"><ele>922.57</ele><time>2022-01-03T15:06:45Z</time></trkpt>
<trkpt lat="39.990833" lon="9.427066"><ele>923.0</ele><time>2022-01-03T15:06:48Z</time></trkpt>
<trkpt lat="39.990908" lon="9.426146"><ele>924.82</ele><time>2022-01-03T15:06:50Z</time></trkpt>
<trkpt lat="39.990932" lon="9.426039"><ele>925.0</ele><time>2022-01-03T15:06:52Z</time></trkpt>
<trkpt lat="39.991018" lon="9.425799"><ele>924.92</ele><time>2022-01-03T15:06:55Z</time></trkpt>
<trkpt lat="39.991106" lon="9.425653"><ele>924.36</ele><time>2022-01-03T15:06:57Z</time></trkpt>
<trkpt lat="39.991898" lon="9.424591"><ele>918.44</ele><time>2022-01-03T15:06:59Z</time></trkpt>
<trkpt lat="39.991945" lon="9.424474"><ele>918.11</ele><time>2022-01-03T15:07:02Z</time></trkpt>
<trkpt lat="39.992047" lon="9.424077"><ele>916.84</ele><time>2022-01-03T15:07:04Z</time></trkpt>
<trkpt lat="39.992146" lon="9.423872"><ele>916.42</ele><time>2022-01-03T15:07:06Z</time></trkpt>
<trkpt lat="39.992407" lon="9.423449"><ele>918.11</ele><time>2022-01-03T15:07:09Z</time></trkpt>
<trkpt lat="39.992523" lon="9.423351"><ele>918.28</ele><time>2022-01-03T15:07:11Z</time></trkpt>
<trkpt lat="39.992681" lon="9.423291"><ele>918.14</ele><time>2022-01-03T15:07:13Z</time></trkpt>
<trkpt lat="39.99298" lon="9.423265"><ele>918.99</ele><time>2022-01-03T15:07:16Z</time></trkpt>
<trkpt lat="39.99327" lon="9.423146"><ele>917.45</ele><time>2022-01-03T15:07:18Z</time></trkpt>
<trkpt lat="39.993439" lon="9.423029"><ele>916.0</ele><time>2022-01-03T15:07:20Z</time></trkpt>
<trkpt lat="39.993564" lon="9.422888"><ele>914.42</ele><time>2022-01-03T15:07:23Z</time></trkpt>
<trkpt lat="39.993884" lon="9.422412"><ele>912.68</ele><time>2022-01-03T15:07:25Z</time></trkpt>
<trkpt lat="39.994014" lon="9.421894"><ele>906.28</ele><time>2022-01-03T15:07:27Z</time></trkpt>
<trkpt lat="39.99413" lon="9.421663"><ele>903.84</ele><time>2022-01-03T15:07:30Z</time></trkpt>
<trkpt lat="39.994281" lon="9.421487"><ele>903.38</ele><time>2022-01-03T15:07:32Z</time></trkpt>
<trkpt lat="39.994609" lon="9.421404"><ele>904.12</ele><time>2022-01-03T15:07:34Z</time></trkpt>
<trkpt lat="39.994975" lon="9.421475"><ele>904.3</ele><time>2022-01-03T15:07:37Z</time></trkpt>
<trkpt lat="39.995475" lon="9.421656"><ele>905.17</ele><time>2022-01-03T15:07:39Z</time></trkpt>
<trkpt lat="39.995702" lon="9.421703"><ele>905.46</ele><time>2022-01-03T15:07:41Z</time></trkpt>
<trkpt lat="39.995849" lon="9.421682"><ele>905.33</ele><time>2022-01-03T15:07:44Z</time></trkpt>
<trkpt lat="39.995997" lon="9.421624"><ele>905.32</ele><time>2022-01-03T15:07:46Z</time></trkpt>
<trkpt lat="39.996754" lon="9.421004"><ele>902.27</ele><time>2022-01-03T15:07:48Z</time></trkpt>
<trkpt lat="39.997951" lon="9.420412"><ele>896.62</ele><time>2022-01-03T15:07:51Z</time></trkpt>
<trkpt lat="39.998799" lon="9.419647"><ele>886.77</ele><time>2022-01-03T15:07:53Z</time></trkpt>
<trkpt lat="39.999031" lon="9.41954"><ele>886.28</ele><time>2022-01-03T15:07:55Z</time></trkpt>
<trkpt lat="39.999284" lon="9.419541"><ele>887.77</ele><time>2022-01-03T15:07:58Z</time></trkpt>
<trkpt lat="39.999552" lon="9.419602"><ele>887.87</ele><time>2022-01-03T15:08:00Z</time></trkpt>
<trkpt lat="39.999681" lon="9.419665"><ele>886.94</ele><time>2022-01-03T15:08:02Z</time></trkpt>
<trkpt lat="39.999797" lon="9.419759"><ele>887.14</ele><time>2022-01-03T15:08:05Z</time></trkpt>
<trkpt lat="40.000074" lon="9.420121"><ele>887.04</ele><time>2022-01-03T15:08:07Z</time></trkpt>
<trkpt lat="40.000351" lon="9.420785"><ele>883.11</ele><time>2022-01-03T15:08:09Z</time></trkpt>
<trkpt lat="40.00042" lon="9.42087"><ele>882.05</ele><time>2022-01-03T15:08:12Z</time></trkpt>
<trkpt lat="40.001098" lon="9.421156"><ele>879.7</ele><time>2022-01-03T15:08:14Z</time></trkpt>
<trkpt lat="40.001177" lon="9.421135"><ele>880.39</ele><time>2022-01-03T15:08:16Z</time></trkpt>
<trkpt lat="40.001297" lon="9.420972"><ele>880.84</ele><time>2022-01-03T15:08:19Z</time></trkpt>
<trkpt lat="40.001572" lon="9.420506"><ele>883.5</ele><time>2022-01-03T15:08:21Z</time></trkpt>
<trkpt lat="40.001666" lon="9.420424"><ele>884.47</ele><time>2022-01-03T15:08:23Z</time></trkpt>
<trkpt lat="40.002225" lon="9.420184"><ele>889.01</ele><time>2022-01-03T15:08:26Z</time></trkpt>
<trkpt lat="40.002457" lon="9.42004"><ele>889.84</ele><time>2022-01-03T15:08:28Z</time></trkpt>
<trkpt lat="40.002612" lon="9.419823"><ele>890.66</ele><time>2022-01-03T15:08:30Z</time></trkpt>
<trkpt lat="40.002857" lon="9.41927"><ele>891.57</ele><time>2022-01-03T15:08:33Z</time></trkpt>
<trkpt lat="40.002933" lon="9.419148"><ele>892.09</ele><time>2022-01-03T15:08:35Z</time></trkpt>
<trkpt lat="40.003163" lon="9.418917"><ele>893.82</ele><time>2022-01-03T15:08:37Z</time></trkpt>
<trkpt lat="40.00385" lon="9.418335"><ele>896.73</ele><time>2022-01-03T15:08:40Z</time></trkpt>
<trkpt lat="40.00398" lon="9.418201"><ele>898.81</ele><time>2022-01-03T15:08:42Z</time></trkpt>
<trkpt lat="40.004037" lon="9.418097"><ele>899.61</ele><time>2022-01-03T15:08:44Z</time></trkpt>
<trkpt lat="40.004079" lon="9.417969"><ele>900.58</ele><time>2022-01-03T15:08:47Z</time></trkpt>
<trkpt lat="40.004091" lon="9.417823"><ele>901.62</ele><time>2022-01-03T15:08:49Z</time></trkpt>
<trkpt lat="40.004069" lon="9.417683"><ele>902.28</ele><time>2022-01-03T15:08:51Z</time></trkpt>
<trkpt lat="40.003986" lon="9.417503"><ele>902.38</ele><time>2022-01-03T15:08:54Z</time></trkpt>
<trkpt lat="40.003622" lon="9.416911"><ele>903.2</ele><time>2022-01-03T15:08:56Z</time></trkpt>
<trkpt lat="40.003243" lon="9.416334"><ele>904.27</ele><time>2022-01-03T15:08:58Z</time></trkpt>
<trkpt lat="40.003201" lon="9.416246"><ele>905.07</ele><time>2022-01-03T15:09:01Z</time></trkpt>
<trkpt lat="40.003178" lon="9.41614"><ele>906.12</ele><time>2022-01-03T15:09:03Z</time></trkpt>
<trkpt lat="40.003197" lon="9.415911"><ele>907.23</ele><time>2022-01-03T15:09:05Z</time></trkpt>
<trkpt lat="40.003259" lon="9.415794"><ele>907.76</ele><time>2022-01-03T15:09:08Z</time></trkpt>
<trkpt lat="40.003717" lon="9.4154"><ele>910.38</ele><time>2022-01-03T15:09:10Z</time></trkpt>
<trkpt lat="40.003761" lon="9.41533"><ele>910.54</ele><time>2022-01-03T15:09:12Z</time></trkpt>
<trkpt lat="40.003812" lon="9.415141"><ele>910.45</ele><time>2022-01-03T15:09:15Z</time></trkpt>
<trkpt lat="40.003805" lon="9.415033"><ele>910.16</ele><time>2022-01-03T15:09:17Z</time></trkpt>
<trkpt lat="40.003567" lon="9.414117"><ele>914.45</ele><time>2022-01-03T15:09:19Z</time></trkpt>
<trkpt lat="40.003498" lon="9.413974"><ele>916.52</ele><time>2022-01-03T15:09:22Z</time></trkpt>
<trkpt lat="40.003393" lon="9.413877"><ele>917.7</ele><time>2022-01-03T15:09:24Z</time></trkpt>
<trkpt lat="40.003269" lon="9.413823"><ele>918.2</ele><time>2022-01-03T15:09:26Z</time></trkpt>
<trkpt lat="40.002808" lon="9.413776"><ele>916.23</ele><time>2022-01-03T15:09:29Z</time></trkpt>
<trkpt lat="40.002529" lon="9.413617"><ele>916.25</ele><time>2022-01-03T15:09:31Z</time></trkpt>
<trkpt lat="40.002477" lon="9.413555"><ele>916.07</ele><time>2022-01-03T15:09:33Z</time></trkpt>
<trkpt lat="40.002413" lon="9.413404"><ele>916.24</ele><time>2022-01-03T15:09:36Z</time></trkpt>
<trkpt lat="40.002408" lon="9.413303"><ele>916.89</ele><time>2022-01-03T15:09:38Z</time></trkpt>
<trkpt lat="40.00251" lon="9.412922"><ele>921.15</ele><time>2022-01-03T15:09:40Z</time></trkpt>
<trkpt lat="40.002507" lon="9.412792"><ele>922.02</ele><time>2022-01-03T15:09:43Z</time></trkpt>
<trkpt lat="40.002472" lon="9.412692"><ele>921.97</ele><time>2022-01-03T15:09:45Z</time></trkpt>
<trkpt lat="40.002322" lon="9.412526"><ele>921.5</ele><time>2022-01-03T15:09:47Z</time></trkpt>
<trkpt lat="40.002089" lon="9.41233"><ele>922.94</ele><time>2022-01-03T15:09:50Z</time></trkpt>
<trkpt lat="40.001882" lon="9.412209"><ele>925.32</ele><time>2022-01-03T15:09:52Z</time></trkpt>
<trkpt lat="40.001629" lon="9.412127"><ele>926.64</ele><time>2022-01-03T15:09:54Z</time></trkpt>
<trkpt lat="40.0015" lon="9.412036"><ele>926.94</ele><time>2022-01-03T15:09:57Z</time></trkpt>
<trkpt lat="40.001428" lon="9.411878"><ele>926.69</ele><time>2022-01-03T15:09:59Z</time></trkpt>
<trkpt lat="40.00142" lon="9.411703"><ele>925.47</ele><time>2022-01-03T15:10:01Z</time></trkpt>
<trkpt lat="40.001471" lon="9.411514"><ele>923.55</ele><time>2022-01-03T15:10:04Z</time></trkpt>
<trkpt lat="40.002079" lon="9.411015"><ele>921.1</ele><time>2022-01-03T15:10:06Z</time></trkpt>
<trkpt lat="40.002312" lon="9.410857"><ele>919.69</ele><time>2022-01-03T15:10:08Z</time></trkpt>
<trkpt lat="40.00255" lon="9.410747"><ele>918.56</ele><time>2022-01-03T15:10:11Z</time></trkpt>
<trkpt lat="40.003379" lon="9.410542"><ele>912.37</ele><time>2022-01-03T15:10:13Z</time></trkpt>
<trkpt lat="40.004057" lon="9.410471"><ele>909.51</ele><time>2022-01-03T15:10:15Z</time></trkpt>
<trkpt lat="40.0042" lon="9.410431"><ele>909.22</ele><time>2022-01-03T15:10:18Z</time></trkpt>
<trkpt lat="40.00482" lon="9.410183"><ele>906.97</ele><time>2022-01-03T15:10:20Z</time></trkpt>
<trkpt lat="40.005185" lon="9.410069"><ele>907.32</ele><time>2022-01-03T15:10:22Z</time></trkpt>
<trkpt lat="40.005783" lon="9.409946"><ele>905.31</ele><time>2022-01-03T15:10:25Z</time></trkpt>
<trkpt lat="40.005967" lon="9.409933"><ele>904.84</ele><time>2022-01-03T15:10:27Z</time></trkpt>
<trkpt lat="40.006512" lon="9.409969"><ele>905.67</ele><time>2022-01-03T15:10:29Z</time></trkpt>
<trkpt lat="40.007753" lon="9.409911"><ele>899.75</ele><time>2022-01-03T15:10:32Z</time></trkpt>
<trkpt lat="40.008244" lon="9.409997"><ele>898.23</ele><time>2022-01-03T15:10:34Z</time></trkpt>
<trkpt lat="40.008497" lon="9.409996"><ele>897.88</ele><time>2022-01-03T15:10:36Z</time></trkpt>
<trkpt lat="40.008746" lon="9.409881"><ele>894.57</ele><time>2022-01-03T15:10:39Z</time></trkpt>
<trkpt lat="40.009638" lon="9.409398"><ele>892.09</ele><time>2022-01-03T15:10:41Z</time></trkpt>
<trkpt lat="40.009853" lon="9.409265"><ele>890.76</ele><time>2022-01-03T15:10:43Z</time></trkpt>
<trkpt lat="40.01011" lon="9.408979"><ele>885.46</ele><time>2022-01-03T15:10:46Z</time></trkpt>
<trkpt lat="40.010643" lon="9.408727"><ele>886.6</ele><time>2022-01-03T15:10:48Z</time></trkpt>
<trkpt lat="40.01091" lon="9.408478"><ele>884.88</ele><time>2022-01-03T15:10:50Z</time></trkpt>
<trkpt lat="40.011055" lon="9.408425"><ele>886.05</ele><time>2022-01-03T15:10:53Z</time></trkpt>
<trkpt lat="40.01141" lon="9.408434"><ele>886.11</ele><time>2022-01-03T15:10:55Z</time></trkpt>
<trkpt lat="40.011593" lon="9.408413"><ele>884.99</ele><time>2022-01-03T15:10:57Z</time></trkpt>
<trkpt lat="40.011918" lon="9.408143"><ele>881.21</ele><time>2022-01-03T15:11:00Z</time></trkpt>
<trkpt lat="40.012153" lon="9.408062"><ele>880.67</ele><time>2022-01-03T15:11:02Z</time></trkpt>
<trkpt lat="40.012762" lon="9.407929"><ele>878.76</ele><time>2022-01-03T15:11:04Z</time></trkpt>
<trkpt lat="40.012898" lon="9.407832"><ele>878.19</ele><time>2022-01-03T15:11:07Z</time></trkpt>
<trkpt lat="40.014405" lon="9.406199"><ele>872.61</ele><time>2022-01-03T15:11:09Z</time></trkpt>
<trkpt lat="40.01447" lon="9.406048"><ele>872.0</ele><time>2022-01-03T15:11:11Z</time></trkpt>
<trkpt lat="40.014645" lon="9.405491"><ele>870.48</ele><time>2022-01-03T15:11:13Z</time></trkpt>
<trkpt lat="40.014683" lon="9.405264"><ele>869.15</ele><time>2022-01-03T15:11:16Z</time></trkpt>
<trkpt lat="40.014768" lon="9.404922"><ele>867.11</ele><time>2022-01-03T15:11:18Z</time></trkpt>
<trkpt lat="40.014851" lon="9.404767"><ele>866.89</ele><time>2022-01-03T15:11:20Z</time></trkpt>
<trkpt lat="40.014972" lon="9.404654"><ele>867.33</ele><time>2022-01-03T15:11:23Z</time></trkpt>
<trkpt lat="40.015093" lon="9.404591"><ele>867.81</ele><time>2022-01-03T15:11:25Z</time></trkpt>
<trkpt lat="40.01522" lon="9.404589"><ele>869.4</ele><time>2022-01-03T15:11:27Z</time></trkpt>
<trkpt lat="40.015619" lon="9.404656"><ele>870.57</ele><time>2022-01-03T15:11:30Z</time></trkpt>
<trkpt lat="40.016161" lon="9.404502"><ele>870.65</ele><time>2022-01-03T15:11:32Z</time></trkpt>
<trkpt lat="40.016354" lon="9.40449"><ele>869.78</ele><time>2022-01-03T15:11:34Z</time></trkpt>
<trkpt lat="40.016741" lon="9.404535"><ele>869.33</ele><time>2022-01-03T15:11:37Z</time></trkpt>
<trkpt lat="40.016806" lon="9.404493"><ele>869.17</ele><time>2022-01-03T15:11:39Z</time></trkpt>
<trkpt lat="40.016993" lon="9.40423"><ele>869.13</ele><time>2022-01-03T15:11:41Z</time></trkpt>
<trkpt lat="40.017004" lon="9.404121"><ele>869.84</ele><time>2022-01-03T15:11:44Z</time></trkpt>
<trkpt lat="40.016989" lon="9.404003"><ele>871.42</ele><time>2022-01-03T15:11:46Z</time></trkpt>
<trkpt lat="40.016861" lon="9.403828"><ele>873.49</ele><time>2022-01-03T15:11:48Z</time></trkpt>
<trkpt lat="40.016689" lon="9.403654"><ele>875.39</ele><time>2022-01-03T15:11:51Z</time></trkpt>
<trkpt lat="40.016507" lon="9.403542"><ele>876.97</ele><time>2022-01-03T15:11:53Z</time></trkpt>
<trkpt lat="40.015763" lon="9.403329"><ele>875.55</ele><time>2022-01-03T15:11:55Z</time></trkpt>
<trkpt lat="40.015625" lon="9.403258"><ele>875.18</ele><time>2022-01-03T15:11:58Z</time></trkpt>
<trkpt lat="40.015555" lon="9.403162"><ele>875.23</ele><time>2022-01-03T15:12:00Z</time></trkpt>
<trkpt lat="40.015559" lon="9.402906"><ele>874.99</ele><time>2022-01-03T15:12:02Z</time></trkpt>
<trkpt lat="40.015657" lon="9.402709"><ele>875.38</ele><time>2022-01-03T15:12:05Z</time></trkpt>
<trkpt lat="40.016067" lon="9.402233"><ele>879.77</ele><time>2022-01-03T15:12:07Z</time></trkpt>
<trkpt lat="40.016159" lon="9.402062"><ele>880.37</ele><time>2022-01-03T15:12:09Z</time></trkpt>
<trkpt lat="40.016271" lon="9.401691"><ele>878.01</ele><time>2022-01-03T15:12:12Z</time></trkpt>
<trkpt lat="40.016491" lon="9.400815"><ele>876.97</ele><time>2022-01-03T15:12:14Z</time></trkpt>
<trkpt lat="40.016548" lon="9.400518"><ele>876.66</ele><time>2022-01-03T15:12:16Z</time></trkpt>
<trkpt lat="40.016564" lon="9.399954"><ele>874.74</ele><time>2022-01-03T15:12:19Z</time></trkpt>
<trkpt lat="40.016347" lon="9.398994"><ele>878.05</ele><time>2022-01-03T15:12:21Z</time></trkpt>
<trkpt lat="40.0163" lon="9.398692"><ele>879.56</ele><time>2022-01-03T15:12:23Z</time></trkpt>
<trkpt lat="40.016244" lon="9.398508"><ele>879.62</ele><time>2022-01-03T15:12:26Z</time></trkpt>
<trkpt lat="40.016205" lon="9.398454"><ele>879.39</ele><time>2022-01-03T15:12:28Z</time></trkpt>
<trkpt lat="40.016106" lon="9.398332"><ele>878.99</ele><time>2022-01-03T15:12:30Z</time></trkpt>
<trkpt lat="40.015985" lon="9.39827"><ele>878.88</ele><time>2022-01-03T15:12:33Z</time></trkpt>
<trkpt lat="40.01585" lon="9.398251"><ele>878.63</ele><time>2022-01-03T15:12:35Z</time></trkpt>
<trkpt lat="40.015598" lon="9.398314"><ele>878.2</ele><time>2022-01-03T15:12:37Z</time></trkpt>
<trkpt lat="40.015331" lon="9.39841"><ele>875.78</ele><time>2022-01-03T15:12:40Z</time></trkpt>
<trkpt lat="40.015241" lon="9.398415"><ele>874.88</ele><time>2022-01-03T15:12:42Z</time></trkpt>
<trkpt lat="40.015155" lon="9.398373"><ele>873.95</ele><time>2022-01-03T15:12:44Z</time></trkpt>
<trkpt lat="40.015087" lon="9.398307"><ele>873.4</ele><time>2022-01-03T15:12:47Z</time></trkpt>
<trkpt lat="40.015023" lon="9.398183"><ele>872.96</ele><time>2022-01-03T15:12:49Z</time></trkpt>
<trkpt lat="40.01503" lon="9.398021"><ele>873.78</ele><time>2022-01-03T15:12:51Z</time></trkpt>
<trkpt lat="40.015198" lon="9.397342"><ele>876.7</ele><time>2022-01-03T15:12:54Z</time></trkpt>
<trkpt lat="40.015339" lon="9.39643"><ele>878.05</ele><time>2022-01-03T15:12:56Z</time></trkpt>
<trkpt lat="40.015367" lon="9.395904"><ele>877.41</ele><time>2022-01-03T15:12:58Z</time></trkpt>
<trkpt lat="40.015447" lon="9.395511"><ele>881.03</ele><time>2022-01-03T15:13:01Z</time></trkpt>
<trkpt lat="40.015492" lon="9.394779"><ele>881.56</ele><time>2022-01-03T15:13:03Z</time></trkpt>
<trkpt lat="40.015602" lon="9.394287"><ele>883.8</ele><time>2022-01-03T15:13:05Z</time></trkpt>
<trkpt lat="40.015614" lon="9.39411"><ele>885.03</ele><time>2022-01-03T15:13:08Z</time></trkpt>
<trkpt lat="40.01556" lon="9.393559"><ele>883.92</ele><time>2022-01-03T15:13:10Z</time></trkpt>
<trkpt lat="40.015563" lon="9.39338"><ele>883.37</ele><time>2022-01-03T15:13:12Z</time></trkpt>
<trkpt lat="40.015586" lon="9.393299"><ele>883.83</ele><time>2022-01-03T15:13:15Z</time></trkpt>
<trkpt lat="40.016144" lon="9.392541"><ele>885.32</ele><time>2022-01-03T15:13:17Z</time></trkpt>
<trkpt lat="40.016333" lon="9.392392"><ele>887.39</ele><time>2022-01-03T15:13:19Z</time></trkpt>
<trkpt lat="40.016731" lon="9.392358"><ele>888.15</ele><time>2022-01-03T15:13:22Z</time></trkpt>
<trkpt lat="40.016851" lon="9.392404"><ele>887.19</ele><time>2022-01-03T15:13:24Z</time></trkpt>
<trkpt lat="40.016953" lon="9.392515"><ele>887.29</ele><time>2022-01-03T15:13:26Z</time></trkpt>
<trkpt lat="40.017105" lon="9.392872"><ele>893.92</ele><time>2022-01-03T15:13:29Z</time></trkpt>
<trkpt lat="40.017238" lon="9.39301"><ele>896.01</ele><time>2022-01-03T15:13:31Z</time></trkpt>
<trkpt lat="40.017437" lon="9.39318"><ele>898.48</ele><time>2022-01-03T15:13:33Z</time></trkpt>
<trkpt lat="40.017583" lon="9.393233"><ele>898.58</ele><time>2022-01-03T15:13:36Z</time></trkpt>
<trkpt lat="40.017884" lon="9.393281"><ele>896.41</ele><time>2022-01-03T15:13:38Z</time></trkpt>
<trkpt lat="40.018298" lon="9.393284"><ele>898.0</ele><time>2022-01-03T15:13:40Z</time></trkpt>
<trkpt lat="40.018443" lon="9.393234"><ele>897.96</ele><time>2022-01-03T15:13:43Z</time></trkpt>
<trkpt lat="40.018949" lon="9.392581"><ele>889.66</ele><time>2022-01-03T15:13:45Z</time></trkpt>
<trkpt lat="40.019081" lon="9.392355"><ele>889.41</ele><time>2022-01-03T15:13:47Z</time></trkpt>
<trkpt lat="40.0194" lon="9.391267"><ele>888.02</ele><time>2022-01-03T15:13:50Z</time></trkpt>
<trkpt lat="40.019519" lon="9.391119"><ele>887.62</ele><time>2022-01-03T15:13:52Z</time></trkpt>
<trkpt lat="40.019657" lon="9.391063"><ele>887.87</ele><time>2022-01-03T15:13:54Z</time></trkpt>
<trkpt lat="40.019769" lon="9.391071"><ele>888.59</ele><time>2022-01-03T15:13:57Z</time></trkpt>
<trkpt lat="40.019996" lon="9.391154"><ele>890.6</ele><time>2022-01-03T15:13:59Z</time></trkpt>
<trkpt lat="40.020404" lon="9.391082"><ele>889.23</ele><time>2022-01-03T15:14:01Z</time></trkpt>
<trkpt lat="40.020617" lon="9.39115"><ele>889.84</ele><time>2022-01-03T15:14:04Z</time></trkpt>
<trkpt lat="40.021995" lon="9.391733"><ele>898.01</ele><time>2022-01-03T15:14:06Z</time></trkpt>
<trkpt lat="40.022433" lon="9.391953"><ele>897.32</ele><time>2022-01-03T15:14:08Z</time></trkpt>
<trkpt lat="40.02263" lon="9.392236"><ele>905.84</ele><time>2022-01-03T15:14:11Z</time></trkpt>
<trkpt lat="40.022779" lon="9.392361"><ele>908.49</ele><time>2022-01-03T15:14:13Z</time></trkpt>
<trkpt lat="40.022992" lon="9.392343"><ele>904.99</ele><time>2022-01-03T15:14:15Z</time></trkpt>
<trkpt lat="40.02318" lon="9.392257"><ele>902.71</ele><time>2022-01-03T15:14:18Z</time></trkpt>
<trkpt lat="40.023462" lon="9.392046"><ele>902.16</ele><time>2022-01-03T15:14:20Z</time></trkpt>
<trkpt lat="40.023709" lon="9.391661"><ele>900.45</ele><time>2022-01-03T15:14:22Z</time></trkpt>
<trkpt lat="40.023882" lon="9.391227"><ele>900.12</ele><time>2022-01-03T15:14:25Z</time></trkpt>
<trkpt lat="40.023945" lon="9.390817"><ele>900.28</ele><time>2022-01-03T15:14:27Z</time></trkpt>
<trkpt lat="40.023922" lon="9.390455"><ele>900.17</ele><time>2022-01-03T15:14:29Z</time></trkpt>
<trkpt lat="40.023831" lon="9.390079"><ele>899.8</ele><time>2022-01-03T15:14:32Z</time></trkpt>
<trkpt lat="40.023556" lon="9.389387"><ele>897.39</ele><time>2022-01-03T15:14:34Z</time></trkpt>
<trkpt lat="40.023571" lon="9.389121"><ele>895.6</ele><time>2022-01-03T15:14:36Z</time></trkpt>
<trkpt lat="40.023681" lon="9.38895"><ele>895.51</ele><time>2022-01-03T15:14:39Z</time></trkpt>
<trkpt lat="40.023864" lon="9.388891"><ele>897.67</ele><time>2022-01-03T15:14:41Z</time></trkpt>
<trkpt lat="40.024199" lon="9.388845"><ele>902.7</ele><time>2022-01-03T15:14:43Z</time></trkpt>
<trkpt lat="40.024693" lon="9.388677"><ele>906.86</ele><time>2022-01-03T15:14:46Z</time></trkpt>
<trkpt lat="40.024838" lon="9.388668"><ele>909.88</ele><time>2022-01-03T15:14:48Z</time></trkpt>
<trkpt lat="40.025106" lon="9.388699"><ele>914.97</ele><time>2022-01-03T15:14:50Z</time></trkpt>
<trkpt lat="40.025501" lon="9.388926"><ele>913.0</ele><time>2022-01-03T15:14:53Z</time></trkpt>
<trkpt lat="40.0261" lon="9.389434"><ele>902.16</ele><time>2022-01-03T15:14:55Z</time></trkpt>
<trkpt lat="40.026204" lon="9.38942"><ele>900.85</ele><time>2022-01-03T15:14:57Z</time></trkpt>
<trkpt lat="40.026332" lon="9.389293"><ele>899.78</ele><time>2022-01-03T15:15:00Z</time></trkpt>
<trkpt lat="40.026838" lon="9.388679"><ele>901.22</ele><time>2022-01-03T15:15:02Z</time></trkpt>
<trkpt lat="40.027466" lon="9.387501"><ele>904.76</ele><time>2022-01-03T15:15:04Z</time></trkpt>
<trkpt lat="40.02814" lon="9.386011"><ele>918.02</ele><time>2022-01-03T15:15:07Z</time></trkpt>
<trkpt lat="40.028522" lon="9.385424"><ele>920.93</ele><time>2022-01-03T15:15:09Z</time></trkpt>
<trkpt lat="40.028753" lon="9.385188"><ele>921.3</ele><time>2022-01-03T15:15:11Z</time></trkpt>
<trkpt lat="40.029014" lon="9.385044"><ele>921.93</ele><time>2022-01-03T15:15:14Z</time></trkpt>
<trkpt lat="40.029963" lon="9.384696"><ele>925.23</ele><time>2022-01-03T15:15:16Z</time></trkpt>
<trkpt lat="40.030153" lon="9.384674"><ele>927.05</ele><time>2022-01-03T15:15:18Z</time></trkpt>
<trkpt lat="40.030413" lon="9.384721"><ele>931.42</ele><time>2022-01-03T15:15:21Z</time></trkpt>
<trkpt lat="40.030506" lon="9.384644"><ele>932.73</ele><time>2022-01-03T15:15:23Z</time></trkpt>
<trkpt lat="40.030544" lon="9.384505"><ele>932.95</ele><time>2022-01-03T15:15:25Z</time></trkpt>
<trkpt lat="40.030343" lon="9.383974"><ele>930.26</ele><time>2022-01-03T15:15:28Z</time></trkpt>
<trkpt lat="40.030329" lon="9.383532"><ele>932.79</ele><time>2022-01-03T15:15:30Z</time></trkpt>
<trkpt lat="40.030243" lon="9.383308"><ele>933.73</ele><time>2022-01-03T15:15:32Z</time></trkpt>
<trkpt lat="40.030059" lon="9.38313"><ele>932.98</ele><time>2022-01-03T15:15:35Z</time></trkpt>
<trkpt lat="40.02998" lon="9.382916"><ele>934.03</ele><time>2022-01-03T15:15:37Z</time></trkpt>
<trkpt lat="40.030059" lon="9.382392"><ele>938.3</ele><time>2022-01-03T15:15:39Z</time></trkpt>
<trkpt lat="40.030316" lon="9.381902"><ele>940.91</ele><time>2022-01-03T15:15:42Z</time></trkpt>
<trkpt lat="40.030583" lon="9.381533"><ele>940.35</ele><time>2022-01-03T15:15:44Z</time></trkpt>
<trkpt lat="40.030953" lon="9.381251"><ele>945.2</ele><time>2022-01-03T15:15:46Z</time></trkpt>
<trkpt lat="40.03194" lon="9.380707"><ele>951.72</ele><time>2022-01-03T15:15:49Z</time></trkpt>
<trkpt lat="40.032816" lon="9.38009"><ele>955.27</ele><time>2022-01-03T15:15:51Z</time></trkpt>
<trkpt lat="40.033239" lon="9.379969"><ele>960.1</ele><time>2022-01-03T15:15:53Z</time></trkpt>
<trkpt lat="40.034053" lon="9.379618"><ele>961.72</ele><time>2022-01-03T15:15:56Z</time></trkpt>
<trkpt lat="40.034199" lon="9.37954"><ele>961.41</ele><time>2022-01-03T15:15:58Z</time></trkpt>
<trkpt lat="40.034394" lon="9.379527"><ele>962.88</ele><time>2022-01-03T15:16:00Z</time></trkpt>
<trkpt lat="40.034692" lon="9.379472"><ele>965.47</ele><time>2022-01-03T15:16:03Z</time></trkpt>
<trkpt lat="40.035158" lon="9.379236"><ele>968.43</ele><time>2022-01-03T15:16:05Z</time></trkpt>
<trkpt lat="40.035435" lon="9.379202"><ele>969.14</ele><time>2022-01-03T15:16:07Z</time></trkpt>
<trkpt lat="40.03561" lon="9.379336"><ele>973.25</ele><time>2022-01-03T15:16:10Z</time></trkpt>
<trkpt lat="40.035867" lon="9.379391"><ele>974.17</ele><time>2022-01-03T15:16:12Z</time></trkpt>
<trkpt lat="40.036125" lon="9.37928"><ele>976.47</ele><time>2022-01-03T15:16:14Z</time></trkpt>
<trkpt lat="40.036555" lon="9.378901"><ele>978.52</ele><time>2022-01-03T15:16:17Z</time></trkpt>
<trkpt lat="40.036862" lon="9.378715"><ele>977.39</ele><time>2022-01-03T15:16:19Z</time></trkpt>
<trkpt lat="40.037502" lon="9.378522"><ele>978.8</ele><time>2022-01-03T15:16:21Z</time></trkpt>
<trkpt lat="40.03767" lon="9.378538"><ele>980.3</ele><time>2022-01-03T15:16:24Z</time></trkpt>
<trkpt lat="40.038233" lon="9.37895"><ele>988.32</ele><time>2022-01-03T15:16:26Z</time></trkpt>
<trkpt lat="40.038562" lon="9.378985"><ele>991.29</ele><time>2022-01-03T15:16:28Z</time></trkpt>
<trkpt lat="40.0387" lon="9.378918"><ele>992.69</ele><time>2022-01-03T15:16:31Z</time></trkpt>
<trkpt lat="40.03877" lon="9.37884"><ele>993.24</ele><time>2022-01-03T15:16:33Z</time></trkpt>
<trkpt lat="40.038838" lon="9.378616"><ele>990.82</ele><time>2022-01-03T15:16:35Z</time></trkpt>
<trkpt lat="40.0389" lon="9.378149"><ele>989.18</ele><time>2022-01-03T15:16:38Z</time></trkpt>
<trkpt lat="40.039033" lon="9.377633"><ele>988.18</ele><time>2022-01-03T15:16:40Z</time></trkpt>
<trkpt lat="40.039285" lon="9.377157"><ele>992.45</ele><time>2022-01-03T15:16:42Z</time></trkpt>
<trkpt lat="40.039378" lon="9.377024"><ele>992.89</ele><time>2022-01-03T15:16:44Z</time></trkpt>
<trkpt lat="40.03992" lon="9.376637"><ele>997.52</ele><time>2022-01-03T15:16:47Z</time></trkpt>
<trkpt lat="40.040047" lon="9.376525"><ele>1000.17</ele><time>2022-01-03T15:16:49Z</time></trkpt>
<trkpt lat="40.040187" lon="9.376301"><ele>1002.84</ele><time>2022-01-03T15:16:51Z</time></trkpt>
<trkpt lat="40.040331" lon="9.375973"><ele>1002.33</ele><time>2022-01-03T15:16:54Z</time></trkpt>
<trkpt lat="40.040473" lon="9.375539"><ele>997.2</ele><time>2022-01-03T15:16:56Z</time></trkpt>
<trkpt lat="40.040731" lon="9.375324"><ele>997.74</ele><time>2022-01-03T15:16:58Z</time></trkpt>
<trkpt lat="40.040908" lon="9.375328"><ele>999.96</ele><time>2022-01-03T15:17:01Z</time></trkpt>
<trkpt lat="40.041395" lon="9.375715"><ele>1009.82</ele><time>2022-01-03T15:17:03Z</time></trkpt>
<trkpt lat="40.0418" lon="9.375933"><ele>1015.27</ele><time>2022-01-03T15:17:05Z</time></trkpt>
<trkpt lat="40.042039" lon="9.375924"><ele>1015.89</ele><time>2022-01-03T15:17:08Z</time></trkpt>
<trkpt lat="40.042176" lon="9.375869"><ele>1016.97</ele><time>2022-01-03T15:17:10Z</time></trkpt>
<trkpt lat="40.04229" lon="9.375763"><ele>1017.8</ele><time>2022-01-03T15:17:12Z</time></trkpt>
<trkpt lat="40.042358" lon="9.375591"><ele>1017.03</ele><time>2022-01-03T15:17:15Z</time></trkpt>
<trkpt lat="40.042431" lon="9.375229"><ele>1011.78</ele><time>2022-01-03T15:17:17Z</time></trkpt>
<trkpt lat="40.042512" lon="9.375088"><ele>1011.06</ele><time>2022-01-03T15:17:19Z</time></trkpt>
<trkpt lat="40.042633" lon="9.374967"><ele>1013.82</ele><time>2022-01-03T15:17:22Z</time></trkpt>
<trkpt lat="40.043044" lon="9.37465"><ele>1019.32</ele><time>2022-01-03T15:17:24Z</time></trkpt>
<trkpt lat="40.04365" lon="9.37445"><ele>1026.27</ele><time>2022-01-03T15:17:26Z</time></trkpt>
<trkpt lat="40.043918" lon="9.37411"><ele>1023.67</ele><time>2022-01-03T15:17:29Z</time></trkpt>
<trkpt lat="40.044155" lon="9.373898"><ele>1021.08</ele><time>2022-01-03T15:17:31Z</time></trkpt>
<trkpt lat="40.044802" lon="9.374003"><ele>1031.35</ele><time>2022-01-03T15:17:33Z</time></trkpt>
<trkpt lat="40.045036" lon="9.374009"><ele>1032.06</ele><time>2022-01-03T15:17:36Z</time></trkpt>
<trkpt lat="40.045558" lon="9.373736"><ele>1034.27</ele><time>2022-01-03T15:17:38Z</time></trkpt>
<trkpt lat="40.045958" lon="9.373632"><ele>1038.61</ele><time>2022-01-03T15:17:40Z</time></trkpt>
<trkpt lat="40.046311" lon="9.373382"><ele>1040.27</ele><time>2022-01-03T15:17:43Z</time></trkpt>
<trkpt lat="40.046559" lon="9.373231"><ele>1039.36</ele><time>2022-01-03T15:17:45Z</time></trkpt>
<trkpt lat="40.04665" lon="9.373201"><ele>1039.52</ele><time>2022-01-03T15:17:47Z</time></trkpt>
<trkpt lat="40.046742" lon="9.373209"><ele>1039.7</ele><time>2022-01-03T15:17:50Z</time></trkpt>
<trkpt lat="40.046833" lon="9.373238"><ele>1040.3</ele><time>2022-01-03T15:17:52Z</time></trkpt>
<trkpt lat="40.046915" lon="9.373308"><ele>1042.27</ele><time>2022-01-03T15:17:54Z</time></trkpt>
<trkpt lat="40.047427" lon="9.373849"><ele>1045.3</ele><time>2022-01-03T15:17:57Z</time></trkpt>
<trkpt lat="40.047799" lon="9.374304"><ele>1051.81</ele><time>2022-01-03T15:17:59Z</time></trkpt>
<trkpt lat="40.047867" lon="9.37435"><ele>1052.32</ele><time>2022-01-03T15:18:01Z</time></trkpt>
<trkpt lat="40.048052" lon="9.374404"><ele>1052.15</ele><time>2022-01-03T15:18:04Z</time></trkpt>
<trkpt lat="40.048217" lon="9.374362"><ele>1052.96</ele><time>2022-01-03T15:18:06Z</time></trkpt>
<trkpt lat="40.04868" lon="9.373989"><ele>1053.97</ele><time>2022-01-03T15:18:08Z</time></trkpt>
<trkpt lat="40.049293" lon="9.373307"><ele>1057.1</ele><time>2022-01-03T15:18:11Z</time></trkpt>
<trkpt lat="40.04945" lon="9.372837"><ele>1053.21</ele><time>2022-01-03T15:18:13Z</time></trkpt>
<trkpt lat="40.049511" lon="9.372706"><ele>1052.46</ele><time>2022-01-03T15:18:15Z</time></trkpt>
<trkpt lat="40.049582" lon="9.372637"><ele>1052.69</ele><time>2022-01-03T15:18:18Z</time></trkpt>
<trkpt lat="40.049675" lon="9.372602"><ele>1053.7</ele><time>2022-01-03T15:18:20Z</time></trkpt>
<trkpt lat="40.049865" lon="9.372658"><ele>1056.78</ele><time>2022-01-03T15:18:22Z</time></trkpt>
<trkpt lat="40.050554" lon="9.372958"><ele>1064.48</ele><time>2022-01-03T15:18:25Z</time></trkpt>
<trkpt lat="40.051233" lon="9.373317"><ele>1067.32</ele><time>2022-01-03T15:18:27Z</time></trkpt>
<trkpt lat="40.051384" lon="9.373405"><ele>1067.35</ele><time>2022-01-03T15:18:29Z</time></trkpt>
<trkpt lat="40.051472" lon="9.373564"><ele>1068.85</ele><time>2022-01-03T15:18:32Z</time></trkpt>
<trkpt lat="40.051512" lon="9.373716"><ele>1071.33</ele><time>2022-01-03T15:18:34Z</time></trkpt>
<trkpt lat="40.051604" lon="9.373874"><ele>1072.85</ele><time>2022-01-03T15:18:36Z</time></trkpt>
<trkpt lat="40.051783" lon="9.373917"><ele>1072.64</ele><time>2022-01-03T15:18:39Z</time></trkpt>
<trkpt lat="40.051958" lon="9.373923"><ele>1073.03</ele><time>2022-01-03T15:18:41Z</time></trkpt>
<trkpt lat="40.052124" lon="9.373859"><ele>1073.03</ele><time>2022-01-03T15:18:43Z</time></trkpt>
<trkpt lat="40.0527" lon="9.373483"><ele>1071.71</ele><time>2022-01-03T15:18:46Z</time></trkpt>
<trkpt lat="40.052884" lon="9.373321"><ele>1072.04</ele><time>2022-01-03T15:18:48Z</time></trkpt>
<trkpt lat="40.053208" lon="9.373234"><ele>1076.02</ele><time>2022-01-03T15:18:50Z</time></trkpt>
<trkpt lat="40.053567" lon="9.373188"><ele>1079.22</ele><time>2022-01-03T15:18:53Z</time></trkpt>
<trkpt lat="40.053977" lon="9.373193"><ele>1084.68</ele><time>2022-01-03T15:18:55Z</time></trkpt>
<trkpt lat="40.054109" lon="9.373162"><ele>1087.42</ele><time>2022-01-03T15:18:57Z</time></trkpt>
<trkpt lat="40.054229" lon="9.373044"><ele>1088.63</ele><time>2022-01-03T15:19:00Z</time></trkpt>
<trkpt lat="40.054515" lon="9.372162"><ele>1087.57</ele><time>2022-01-03T15:19:02Z</time></trkpt>
<trkpt lat="40.054702" lon="9.371835"><ele>1088.61</ele><time>2022-01-03T15:19:04Z</time></trkpt>
<trkpt lat="40.054928" lon="9.371513"><ele>1090.97</ele><time>2022-01-03T15:19:07Z</time></trkpt>
<trkpt lat="40.055204" lon="9.371213"><ele>1093.9</ele><time>2022-01-03T15:19:09Z</time></trkpt>
<trkpt lat="40.055419" lon="9.370902"><ele>1094.54</ele><time>2022-01-03T15:19:11Z</time></trkpt>
<trkpt lat="40.055649" lon="9.370379"><ele>1095.55</ele><time>2022-01-03T15:19:14Z</time></trkpt>
<trkpt lat="40.0558" lon="9.370203"><ele>1097.46</ele><time>2022-01-03T15:19:16Z</time></trkpt>
<trkpt lat="40.056" lon="9.370221"><ele>1100.22</ele><time>2022-01-03T15:19:18Z</time></trkpt>
<trkpt lat="40.056644" lon="9.370427"><ele>1104.82</ele><time>2022-01-03T15:19:21Z</time></trkpt>
<trkpt lat="40.056865" lon="9.370373"><ele>1105.29</ele><time>2022-01-03T15:19:23Z</time></trkpt>
<trkpt lat="40.057704" lon="9.369672"><ele>1108.68</ele><time>2022-01-03T15:19:25Z</time></trkpt>
<trkpt lat="40.057786" lon="9.369619"><ele>1108.77</ele><time>2022-01-03T15:19:28Z</time></trkpt>
<trkpt lat="40.057886" lon="9.369618"><ele>1108.6</ele><time>2022-01-03T15:19:30Z</time></trkpt>
<trkpt lat="40.058093" lon="9.369725"><ele>1110.63</ele><time>2022-01-03T15:19:32Z</time></trkpt>
<trkpt lat="40.058461" lon="9.369968"><ele>1114.24</ele><time>2022-01-03T15:19:35Z</time></trkpt>
<trkpt lat="40.058709" lon="9.370037"><ele>1116.9</ele><time>2022-01-03T15:19:37Z</time></trkpt>
<trkpt lat="40.058803" lon="9.370018"><ele>1117.43</ele><time>2022-01-03T15:19:39Z</time></trkpt>
<trkpt lat="40.058897" lon="9.369945"><ele>1117.13</ele><time>2022-01-03T15:19:42Z</time></trkpt>
<trkpt lat="40.058995" lon="9.369758"><ele>1115.51</ele><time>2022-01-03T15:19:44Z</time></trkpt>
<trkpt lat="40.059304" lon="9.369"><ele>1114.65</ele><time>2022-01-03T15:19:46Z</time></trkpt>
<trkpt lat="40.059407" lon="9.368871"><ele>1115.75</ele><time>2022-01-03T15:19:49Z</time></trkpt>
<trkpt lat="40.059549" lon="9.368792"><ele>1116.24</ele><time>2022-01-03T15:19:51Z</time></trkpt>
<trkpt lat="40.059644" lon="9.368772"><ele>1116.74</ele><time>2022-01-03T15:19:53Z</time></trkpt>
<trkpt lat="40.059765" lon="9.368788"><ele>1117.36</ele><time>2022-01-03T15:19:56Z</time></trkpt>
<trkpt lat="40.059928" lon="9.368917"><ele>1118.18</ele><time>2022-01-03T15:19:58Z</time></trkpt>
<trkpt lat="40.060058" lon="9.369106"><ele>1119.15</ele><time>2022-01-03T15:20:00Z</time></trkpt>
<trkpt lat="40.060135" lon="9.369352"><ele>1123.06</ele><time>2022-01-03T15:20:03Z</time></trkpt>
<trkpt lat="40.060257" lon="9.36959"><ele>1125.39</ele><time>2022-01-03T15:20:05Z</time></trkpt>
<trkpt lat="40.06039" lon="9.369758"><ele>1126.62</ele><time>2022-01-03T15:20:07Z</time></trkpt>
<trkpt lat="40.060901" lon="9.369964"><ele>1128.2</ele><time>2022-01-03T15:20:10Z</time></trkpt>
<trkpt lat="40.061084" lon="9.370086"><ele>1129.23</ele><time>2022-01-03T15:20:12Z</time></trkpt>
<trkpt lat="40.061267" lon="9.370283"><ele>1130.91</ele><time>2022-01-03T15:20:14Z</time></trkpt>
<trkpt lat="40.061557" lon="9.370715"><ele>1134.69</ele><time>2022-01-03T15:20:17Z</time></trkpt>
<trkpt lat="40.061769" lon="9.371174"><ele>1139.66</ele><time>2022-01-03T15:20:19Z</time></trkpt>
<trkpt lat="40.061906" lon="9.371324"><ele>1140.4</ele><time>2022-01-03T15:20:21Z</time></trkpt>
<trkpt lat="40.062077" lon="9.371372"><ele>1141.58</ele><time>2022-01-03T15:20:24Z</time></trkpt>
<trkpt lat="40.062204" lon="9.371348"><ele>1141.98</ele><time>2022-01-03T15:20:26Z</time></trkpt>
<trkpt lat="40.062327" lon="9.371243"><ele>1141.35</ele><time>2022-01-03T15:20:28Z</time></trkpt>
<trkpt lat="40.062538" lon="9.370985"><ele>1138.76</ele><time>2022-01-03T15:20:31Z</time></trkpt>
<trkpt lat="40.062614" lon="9.370936"><ele>1138.72</ele><time>2022-01-03T15:20:33Z</time></trkpt>
<trkpt lat="40.062702" lon="9.37093"><ele>1139.75</ele><time>2022-01-03T15:20:35Z</time></trkpt>
<trkpt lat="40.062806" lon="9.370974"><ele>1141.13</ele><time>2022-01-03T15:20:38Z</time></trkpt>
<trkpt lat="40.062905" lon="9.371071"><ele>1141.78</ele><time>2022-01-03T15:20:40Z</time></trkpt>
<trkpt lat="40.063809" lon="9.37217"><ele>1152.32</ele><time>2022-01-03T15:20:42Z</time></trkpt>
<trkpt lat="40.063951" lon="9.372304"><ele>1155.52</ele><time>2022-01-03T15:20:45Z</time></trkpt>
<trkpt lat="40.064042" lon="9.372315"><ele>1156.43</ele><time>2022-01-03T15:20:47Z</time></trkpt>
<trkpt lat="40.064134" lon="9.372259"><ele>1155.68</ele><time>2022-01-03T15:20:49Z</time></trkpt>
<trkpt lat="40.064267" lon="9.372037"><ele>1152.26</ele><time>2022-01-03T15:20:52Z</time></trkpt>
<trkpt lat="40.064416" lon="9.371833"><ele>1150.98</ele><time>2022-01-03T15:20:54Z</time></trkpt>
<trkpt lat="40.064825" lon="9.37146"><ele>1154.76</ele><time>2022-01-03T15:20:56Z</time></trkpt>
<trkpt lat="40.065102" lon="9.371272"><ele>1160.68</ele><time>2022-01-03T15:20:59Z</time></trkpt>
<trkpt lat="40.065524" lon="9.370594"><ele>1157.39</ele><time>2022-01-03T15:21:01Z</time></trkpt>
<trkpt lat="40.06567" lon="9.370451"><ele>1157.51</ele><time>2022-01-03T15:21:03Z</time></trkpt>
<trkpt lat="40.065868" lon="9.370326"><ele>1159.29</ele><time>2022-01-03T15:21:06Z</time></trkpt>
<trkpt lat="40.066363" lon="9.370143"><ele>1169.27</ele><time>2022-01-03T15:21:08Z</time></trkpt>
<trkpt lat="40.066474" lon="9.370046"><ele>1170.02</ele><time>2022-01-03T15:21:10Z</time></trkpt>
<trkpt lat="40.066557" lon="9.369861"><ele>1171.06</ele><time>2022-01-03T15:21:13Z</time></trkpt>
<trkpt lat="40.066576" lon="9.369497"><ele>1171.83</ele><time>2022-01-03T15:21:15Z</time></trkpt>
<trkpt lat="40.066561" lon="9.36924"><ele>1172.19</ele><time>2022-01-03T15:21:17Z</time></trkpt>
<trkpt lat="40.066512" lon="9.368968"><ele>1170.31</ele><time>2022-01-03T15:21:20Z</time></trkpt>
<trkpt lat="40.066485" lon="9.368595"><ele>1170.77</ele><time>2022-01-03T15:21:22Z</time></trkpt>
<trkpt lat="40.066523" lon="9.368337"><ele>1171.82</ele><time>2022-01-03T15:21:24Z</time></trkpt>
<trkpt lat="40.066589" lon="9.368065"><ele>1171.86</ele><time>2022-01-03T15:21:27Z</time></trkpt>
<trkpt lat="40.06669" lon="9.367848"><ele>1172.56</ele><time>2022-01-03T15:21:29Z</time></trkpt>
<trkpt lat="40.066847" lon="9.367624"><ele>1174.82</ele><time>2022-01-03T15:21:31Z</time></trkpt>
<trkpt lat="40.067003" lon="9.367473"><ele>1176.55</ele><time>2022-01-03T15:21:34Z</time></trkpt>
<trkpt lat="40.067194" lon="9.367355"><ele>1177.41</ele><time>2022-01-03T15:21:36Z</time></trkpt>
<trkpt lat="40.067331" lon="9.367318"><ele>1178.39</ele><time>2022-01-03T15:21:38Z</time></trkpt>
<trkpt lat="40.067821" lon="9.367291"><ele>1181.43</ele><time>2022-01-03T15:21:41Z</time></trkpt>
<trkpt lat="40.068015" lon="9.367243"><ele>1180.59</ele><time>2022-01-03T15:21:43Z</time></trkpt>
<trkpt lat="40.069167" lon="9.366484"><ele>1186.38</ele><time>2022-01-03T15:21:45Z</time></trkpt>
<trkpt lat="40.069306" lon="9.366368"><ele>1186.62</ele><time>2022-01-03T15:21:48Z</time></trkpt>
<trkpt lat="40.069447" lon="9.366352"><ele>1188.36</ele><time>2022-01-03T15:21:50Z</time></trkpt>
<trkpt lat="40.069562" lon="9.366407"><ele>1190.14</ele><time>2022-01-03T15:21:52Z</time></trkpt>
<trkpt lat="40.06967" lon="9.366522"><ele>1192.94</ele><time>2022-01-03T15:21:55Z</time></trkpt>
<trkpt lat="40.069844" lon="9.366765"><ele>1195.14</ele><time>2022-01-03T15:21:57Z</time></trkpt>
<trkpt lat="40.06996" lon="9.367112"><ele>1200.1</ele><time>2022-01-03T15:21:59Z</time></trkpt>
<trkpt lat="40.070216" lon="9.367643"><ele>1204.15</ele><time>2022-01-03T15:22:02Z</time></trkpt>
<trkpt lat="40.070282" lon="9.368003"><ele>1204.93</ele><time>2022-01-03T15:22:04Z</time></trkpt>
<trkpt lat="40.070334" lon="9.368121"><ele>1205.15</ele><time>2022-01-03T15:22:06Z</time></trkpt>
<trkpt lat="40.070422" lon="9.368212"><ele>1205.43</ele><time>2022-01-03T15:22:09Z</time></trkpt>
<trkpt lat="40.070556" lon="9.368267"><ele>1205.05</ele><time>2022-01-03T15:22:11Z</time></trkpt>
<trkpt lat="40.070689" lon="9.368294"><ele>1205.72</ele><time>2022-01-03T15:22:13Z</time></trkpt>
<trkpt lat="40.071017" lon="9.368213"><ele>1206.23</ele><time>2022-01-03T15:22:16Z</time></trkpt>
<trkpt lat="40.071319" lon="9.368041"><ele>1206.64</ele><time>2022-01-03T15:22:18Z</time></trkpt>
<trkpt lat="40.071445" lon="9.367919"><ele>1206.75</ele><time>2022-01-03T15:22:20Z</time></trkpt>
<trkpt lat="40.071879" lon="9.367254"><ele>1209.85</ele><time>2022-01-03T15:22:22Z</time></trkpt>
<trkpt lat="40.07202" lon="9.366705"><ele>1209.72</ele><time>2022-01-03T15:22:25Z</time></trkpt>
<trkpt lat="40.072075" lon="9.366566"><ele>1210.13</ele><time>2022-01-03T15:22:27Z</time></trkpt>
<trkpt lat="40.072532" lon="9.365865"><ele>1214.72</ele><time>2022-01-03T15:22:29Z</time></trkpt>
<trkpt lat="40.07311" lon="9.364897"><ele>1221.0</ele><time>2022-01-03T15:22:32Z</time></trkpt>
<trkpt lat="40.07343" lon="9.364396"><ele>1226.06</ele><time>2022-01-03T15:22:34Z</time></trkpt>
<trkpt lat="40.073533" lon="9.364194"><ele>1226.66</ele><time>2022-01-03T15:22:36Z</time></trkpt>
<trkpt lat="40.073589" lon="9.364023"><ele>1227.68</ele><time>2022-01-03T15:22:39Z</time></trkpt>
<trkpt lat="40.073617" lon="9.363807"><ele>1228.56</ele><time>2022-01-03T15:22:41Z</time></trkpt>
<trkpt lat="40.073598" lon="9.363604"><ele>1228.51</ele><time>2022-01-03T15:22:43Z</time></trkpt>
<trkpt lat="40.073596" lon="9.362958"><ele>1229.47</ele><time>2022-01-03T15:22:46Z</time></trkpt>
<trkpt lat="40.073606" lon="9.362766"><ele>1227.83</ele><time>2022-01-03T15:22:48Z</time></trkpt>
<trkpt lat="40.073665" lon="9.362581"><ele>1228.62</ele><time>2022-01-03T15:22:50Z</time></trkpt>
<trkpt lat="40.073873" lon="9.362261"><ele>1230.03</ele><time>2022-01-03T15:22:53Z</time></trkpt>
<trkpt lat="40.074071" lon="9.362185"><ele>1233.23</ele><time>2022-01-03T15:22:55Z</time></trkpt>
<trkpt lat="40.074208" lon="9.362158"><ele>1236.11</ele><time>2022-01-03T15:22:57Z</time></trkpt>
<trkpt lat="40.074292" lon="9.362109"><ele>1237.95</ele><time>2022-01-03T15:23:00Z</time></trkpt>
<trkpt lat="40.074361" lon="9.362013"><ele>1238.87</ele><time>2022-01-03T15:23:02Z</time></trkpt>
<trkpt lat="40.074414" lon="9.361756"><ele>1237.88</ele><time>2022-01-03T15:23:04Z</time></trkpt>
<trkpt lat="40.074441" lon="9.361503"><ele>1237.86</ele><time>2022-01-03T15:23:07Z</time></trkpt>
<trkpt lat="40.074377" lon="9.361146"><ele>1236.4</ele><time>2022-01-03T15:23:09Z</time></trkpt>
<trkpt lat="40.074375" lon="9.361016"><ele>1237.18</ele><time>2022-01-03T15:23:11Z</time></trkpt>
<trkpt lat="40.074514" lon="9.360174"><ele>1244.1</ele><time>2022-01-03T15:23:14Z</time></trkpt>
<trkpt lat="40.074554" lon="9.359614"><ele>1246.46</ele><time>2022-01-03T15:23:16Z</time></trkpt>
<trkpt lat="40.074578" lon="9.359508"><ele>1247.86</ele><time>2022-01-03T15:23:18Z</time></trkpt>
<trkpt lat="40.074612" lon="9.359448"><ele>1248.79</ele><time>2022-01-03T15:23:21Z</time></trkpt>
<trkpt lat="40.074707" lon="9.359357"><ele>1250.84</ele><time>2022-01-03T15:23:23Z</time></trkpt>
<trkpt lat="40.075034" lon="9.359135"><ele>1249.28</ele><time>2022-01-03T15:23:25Z</time></trkpt>
<trkpt lat="40.075131" lon="9.359035"><ele>1247.18</ele><time>2022-01-03T15:23:28Z</time></trkpt>
<trkpt lat="40.075188" lon="9.358946"><ele>1245.82</ele><time>2022-01-03T15:23:30Z</time></trkpt>
<trkpt lat="40.075233" lon="9.358832"><ele>1244.74</ele><time>2022-01-03T15:23:32Z</time></trkpt>
<trkpt lat="40.07536" lon="9.358267"><ele>1239.85</ele><time>2022-01-03T15:23:35Z</time></trkpt>
<trkpt lat="40.076023" lon="9.356586"><ele>1234.46</ele><time>2022-01-03T15:23:37Z</time></trkpt>
<trkpt lat="40.076106" lon="9.356418"><ele>1232.92</ele><time>2022-01-03T15:23:39Z</time></trkpt>
<trkpt lat="40.076213" lon="9.35626"><ele>1233.44</ele><time>2022-01-03T15:23:42Z</time></trkpt>
<trkpt lat="40.077176" lon="9.355629"><ele>1225.96</ele><time>2022-01-03T15:23:44Z</time></trkpt>
<trkpt lat="40.07734" lon="9.355576"><ele>1226.3</ele><time>2022-01-03T15:23:46Z</time></trkpt>
<trkpt lat="40.07781" lon="9.355606"><ele>1222.93</ele><time>2022-01-03T15:23:49Z</time></trkpt>
<trkpt lat="40.077988" lon="9.355588"><ele>1221.02</ele><time>2022-01-03T15:23:51Z</time></trkpt>
<trkpt lat="40.078295" lon="9.355474"><ele>1219.68</ele><time>2022-01-03T15:23:53Z</time></trkpt>
<trkpt lat="40.078455" lon="9.355384"><ele>1216.93</ele><time>2022-01-03T15:23:56Z</time></trkpt>
<trkpt lat="40.078738" lon="9.355111"><ele>1213.63</ele><time>2022-01-03T15:23:58Z</time></trkpt>
<trkpt lat="40.079451" lon="9.354194"><ele>1211.87</ele><time>2022-01-03T15:24:00Z</time></trkpt>
<trkpt lat="40.079555" lon="9.354131"><ele>1210.03</ele><time>2022-01-03T15:24:03Z</time></trkpt>
<trkpt lat="40.079878" lon="9.353993"><ele>1204.28</ele><time>2022-01-03T15:24:05Z</time></trkpt>
<trkpt lat="40.079942" lon="9.353934"><ele>1204.29</ele><time>2022-01-03T15:24:07Z</time></trkpt>
<trkpt lat="40.08045" lon="9.353247"><ele>1198.82</ele><time>2022-01-03T15:24:10Z</time></trkpt>
<trkpt lat="40.080549" lon="9.353063"><ele>1195.29</ele><time>2022-01-03T15:24:12Z</time></trkpt>
<trkpt lat="40.080652" lon="9.352784"><ele>1191.86</ele><time>2022-01-03T15:24:14Z</time></trkpt>
<trkpt lat="40.080665" lon="9.352481"><ele>1191.98</ele><time>2022-01-03T15:24:17Z</time></trkpt>
<trkpt lat="40.080444" lon="9.351723"><ele>1195.47</ele><time>2022-01-03T15:24:19Z</time></trkpt>
<trkpt lat="40.080298" lon="9.351049"><ele>1195.61</ele><time>2022-01-03T15:24:21Z</time></trkpt>
<trkpt lat="40.080292" lon="9.350905"><ele>1194.89</ele><time>2022-01-03T15:24:24Z</time></trkpt>
<trkpt lat="40.080304" lon="9.350756"><ele>1194.48</ele><time>2022-01-03T15:24:26Z</time></trkpt>
<trkpt lat="40.080348" lon="9.350637"><ele>1193.74</ele><time>2022-01-03T15:24:28Z</time></trkpt>
<trkpt lat="40.080456" lon="9.350521"><ele>1191.4</ele><time>2022-01-03T15:24:31Z</time></trkpt>
<trkpt lat="40.080602" lon="9.350446"><ele>1188.59</ele><time>2022-01-03T15:24:33Z</time></trkpt>
<trkpt lat="40.08091" lon="9.350436"><ele>1180.42</ele><time>2022-01-03T15:24:35Z</time></trkpt>
<trkpt lat="40.080995" lon="9.350404"><ele>1178.26</ele><time>2022-01-03T15:24:38Z</time></trkpt>
<trkpt lat="40.081066" lon="9.350333"><ele>1177.4</ele><time>2022-01-03T15:24:40Z</time></trkpt>
<trkpt lat="40.08111" lon="9.350228"><ele>1177.94</ele><time>2022-01-03T15:24:42Z</time></trkpt>
<trkpt lat="40.081195" lon="9.349805"><ele>1180.87</ele><time>2022-01-03T15:24:45Z</time></trkpt>
<trkpt lat="40.08126" lon="9.349674"><ele>1179.8</ele><time>2022-01-03T15:24:47Z</time></trkpt>
<trkpt lat="40.081599" lon="9.34926"><ele>1173.23</ele><time>2022-01-03T15:24:49Z</time></trkpt>
<trkpt lat="40.081731" lon="9.349134"><ele>1172.22</ele><time>2022-01-03T15:24:52Z</time></trkpt>
<trkpt lat="40.081915" lon="9.349027"><ele>1170.24</ele><time>2022-01-03T15:24:54Z</time></trkpt>
<trkpt lat="40.082316" lon="9.348877"><ele>1166.09</ele><time>2022-01-03T15:24:56Z</time></trkpt>
<trkpt lat="40.082424" lon="9.348716"><ele>1163.86</ele><time>2022-01-03T15:24:59Z</time></trkpt>
<trkpt lat="40.082461" lon="9.348134"><ele>1162.59</ele><time>2022-01-03T15:25:01Z</time></trkpt>
<trkpt lat="40.082441" lon="9.347952"><ele>1163.72</ele><time>2022-01-03T15:25:03Z</time></trkpt>
<trkpt lat="40.082309" lon="9.347457"><ele>1169.92</ele><time>2022-01-03T15:25:06Z</time></trkpt>
<trkpt lat="40.08236" lon="9.347272"><ele>1167.06</ele><time>2022-01-03T15:25:08Z</time></trkpt>
<trkpt lat="40.082408" lon="9.347191"><ele>1165.27</ele><time>2022-01-03T15:25:10Z</time></trkpt>
<trkpt lat="40.082587" lon="9.34704"><ele>1164.93</ele><time>2022-01-03T15:25:13Z</time></trkpt>
<trkpt lat="40.082744" lon="9.347069"><ele>1163.22</ele><time>2022-01-03T15:25:15Z</time></trkpt>
<trkpt lat="40.083035" lon="9.347239"><ele>1155.43</ele><time>2022-01-03T15:25:17Z</time></trkpt>
<trkpt lat="40.08314" lon="9.34724"><ele>1153.23</ele><time>2022-01-03T15:25:20Z</time></trkpt>
<trkpt lat="40.08324" lon="9.3472"><ele>1152.24</ele><time>2022-01-03T15:25:22Z</time></trkpt>
<trkpt lat="40.083607" lon="9.346746"><ele>1156.58</ele><time>2022-01-03T15:25:24Z</time></trkpt>
<trkpt lat="40.083725" lon="9.346663"><ele>1155.82</ele><time>2022-01-03T15:25:27Z</time></trkpt>
<trkpt lat="40.083889" lon="9.3466"><ele>1152.44</ele><time>2022-01-03T15:25:29Z</time></trkpt>
<trkpt lat="40.084062" lon="9.346578"><ele>1149.59</ele><time>2022-01-03T15:25:31Z</time></trkpt>
<trkpt lat="40.084809" lon="9.346729"><ele>1141.71</ele><time>2022-01-03T15:25:34Z</time></trkpt>
<trkpt lat="40.084872" lon="9.34671"><ele>1141.84</ele><time>2022-01-03T15:25:36Z</time></trkpt>
<trkpt lat="40.084929" lon="9.346663"><ele>1142.29</ele><time>2022-01-03T15:25:38Z</time></trkpt>
<trkpt lat="40.084981" lon="9.346584"><ele>1142.72</ele><time>2022-01-03T15:25:41Z</time></trkpt>
<trkpt lat="40.085002" lon="9.346514"><ele>1143.04</ele><time>2022-01-03T15:25:43Z</time></trkpt>
<trkpt lat="40.085008" lon="9.346419"><ele>1143.53</ele><time>2022-01-03T15:25:45Z</time></trkpt>
<trkpt lat="40.084989" lon="9.346155"><ele>1141.71</ele><time>2022-01-03T15:25:48Z</time></trkpt>
<trkpt lat="40.084945" lon="9.34588"><ele>1138.54</ele><time>2022-01-03T15:25:50Z</time></trkpt>
<trkpt lat="40.084859" lon="9.345727"><ele>1137.88</ele><time>2022-01-03T15:25:52Z</time></trkpt>
<trkpt lat="40.08466" lon="9.345492"><ele>1139.42</ele><time>2022-01-03T15:25:55Z</time></trkpt>
<trkpt lat="40.08443" lon="9.345152"><ele>1138.21</ele><time>2022-01-03T15:25:57Z</time></trkpt>
<trkpt lat="40.084114" lon="9.344868"><ele>1140.44</ele><time>2022-01-03T15:25:59Z</time></trkpt>
<trkpt lat="40.083532" lon="9.343837"><ele>1136.88</ele><time>2022-01-03T15:26:02Z</time></trkpt>
<trkpt lat="40.083425" lon="9.343485"><ele>1136.51</ele><time>2022-01-03T15:26:04Z</time></trkpt>
<trkpt lat="40.083097" lon="9.342122"><ele>1128.97</ele><time>2022-01-03T15:26:06Z</time></trkpt>
<trkpt lat="40.082886" lon="9.340996"><ele>1126.3</ele><time>2022-01-03T15:26:09Z</time></trkpt>
<trkpt lat="40.082713" lon="9.340577"><ele>1124.57</ele><time>2022-01-03T15:26:11Z</time></trkpt>
<trkpt lat="40.082318" lon="9.33978"><ele>1121.52</ele><time>2022-01-03T15:26:13Z</time></trkpt>
<trkpt lat="40.08203" lon="9.339611"><ele>1125.2</ele><time>2022-01-03T15:26:16Z</time></trkpt>
<trkpt lat="40.081922" lon="9.339466"><ele>1125.8</ele><time>2022-01-03T15:26:18Z</time></trkpt>
<trkpt lat="40.081929" lon="9.339284"><ele>1125.91</ele><time>2022-01-03T15:26:20Z</time></trkpt>
<trkpt lat="40.081971" lon="9.339088"><ele>1128.07</ele><time>2022-01-03T15:26:23Z</time></trkpt>
<trkpt lat="40.082085" lon="9.338964"><ele>1131.78</ele><time>2022-01-03T15:26:25Z</time></trkpt>
<trkpt lat="40.082783" lon="9.338969"><ele>1130.66</ele><time>2022-01-03T15:26:27Z</time></trkpt>
<trkpt lat="40.083087" lon="9.338878"><ele>1135.05</ele><time>2022-01-03T15:26:30Z</time></trkpt>
<trkpt lat="40.083252" lon="9.338862"><ele>1134.54</ele><time>2022-01-03T15:26:32Z</time></trkpt>
<trkpt lat="40.083568" lon="9.339102"><ele>1127.67</ele><time>2022-01-03T15:26:34Z</time></trkpt>
<trkpt lat="40.083752" lon="9.339118"><ele>1129.08</ele><time>2022-01-03T15:26:37Z</time></trkpt>
<trkpt lat="40.083948" lon="9.339027"><ele>1134.15</ele><time>2022-01-03T15:26:39Z</time></trkpt>
<trkpt lat="40.084052" lon="9.33904"><ele>1134.86</ele><time>2022-01-03T15:26:41Z</time></trkpt>
<trkpt lat="40.084134" lon="9.339076"><ele>1134.59</ele><time>2022-01-03T15:26:44Z</time></trkpt>
<trkpt lat="40.084448" lon="9.339275"><ele>1137.34</ele><time>2022-01-03T15:26:46Z</time></trkpt>
<trkpt lat="40.084957" lon="9.339795"><ele>1136.5</ele><time>2022-01-03T15:26:48Z</time></trkpt>
<trkpt lat="40.085108" lon="9.339884"><ele>1135.39</ele><time>2022-01-03T15:26:51Z</time></trkpt>
<trkpt lat="40.085285" lon="9.339951"><ele>1135.41</ele><time>2022-01-03T15:26:53Z</time></trkpt>
<trkpt lat="40.085398" lon="9.339951"><ele>1135.53</ele><time>2022-01-03T15:26:55Z</time></trkpt>
<trkpt lat="40.085515" lon="9.339898"><ele>1136.54</ele><time>2022-01-03T15:26:58Z</time></trkpt>
<trkpt lat="40.085593" lon="9.339799"><ele>1136.95</ele><time>2022-01-03T15:27:00Z</time></trkpt>
<trkpt lat="40.085611" lon="9.339675"><ele>1138.13</ele><time>2022-01-03T15:27:02Z</time></trkpt>
<trkpt lat="40.085607" lon="9.339469"><ele>1141.34</ele><time>2022-01-03T15:27:05Z</time></trkpt>
<trkpt lat="40.085576" lon="9.339245"><ele>1144.58</ele><time>2022-01-03T15:27:07Z</time></trkpt>
<trkpt lat="40.085597" lon="9.339128"><ele>1144.98</ele><time>2022-01-03T15:27:09Z</time></trkpt>
<trkpt lat="40.085704" lon="9.338977"><ele>1143.14</ele><time>2022-01-03T15:27:12Z</time></trkpt>
<trkpt lat="40.086075" lon="9.338691"><ele>1143.82</ele><time>2022-01-03T15:27:14Z</time></trkpt>
<trkpt lat="40.086256" lon="9.338669"><ele>1144.23</ele><time>2022-01-03T15:27:16Z</time></trkpt>
<trkpt lat="40.086622" lon="9.33879"><ele>1145.05</ele><time>2022-01-03T15:27:19Z</time></trkpt>
<trkpt lat="40.087001" lon="9.339348"><ele>1141.41</ele><time>2022-01-03T15:27:21Z</time></trkpt>
<trkpt lat="40.087118" lon="9.339442"><ele>1142.06</ele><time>2022-01-03T15:27:23Z</time></trkpt>
<trkpt lat="40.087288" lon="9.339514"><ele>1142.99</ele><time>2022-01-03T15:27:26Z</time></trkpt>
<trkpt lat="40.08747" lon="9.339536"><ele>1143.49</ele><time>2022-01-03T15:27:28Z</time></trkpt>
<trkpt lat="40.0876" lon="9.339505"><ele>1144.12</ele><time>2022-01-03T15:27:30Z</time></trkpt>
<trkpt lat="40.088003" lon="9.339353"><ele>1150.17</ele><time>2022-01-03T15:27:33Z</time></trkpt>
<trkpt lat="40.088225" lon="9.339388"><ele>1149.11</ele><time>2022-01-03T15:27:35Z</time></trkpt>
<trkpt lat="40.088779" lon="9.339554"><ele>1150.92</ele><time>2022-01-03T15:27:37Z</time></trkpt>
<trkpt lat="40.088847" lon="9.339634"><ele>1150.38</ele><time>2022-01-03T15:27:40Z</time></trkpt>
<trkpt lat="40.088898" lon="9.339822"><ele>1148.34</ele><time>2022-01-03T15:27:42Z</time></trkpt>
<trkpt lat="40.088926" lon="9.340237"><ele>1145.74</ele><time>2022-01-03T15:27:44Z</time></trkpt>
<trkpt lat="40.089049" lon="9.340639"><ele>1145.35</ele><time>2022-01-03T15:27:47Z</time></trkpt>
<trkpt lat="40.08922" lon="9.341032"><ele>1144.19</ele><time>2022-01-03T15:27:49Z</time></trkpt>
<trkpt lat="40.089343" lon="9.341224"><ele>1143.58</ele><time>2022-01-03T15:27:51Z</time></trkpt>
<trkpt lat="40.089452" lon="9.341327"><ele>1143.92</ele><time>2022-01-03T15:27:53Z</time></trkpt>
<trkpt lat="40.089551" lon="9.34139"><ele>1143.89</ele><time>2022-01-03T15:27:56Z</time></trkpt>
<trkpt lat="40.089838" lon="9.34143"><ele>1146.29</ele><time>2022-01-03T15:27:58Z</time></trkpt>
<trkpt lat="40.09046" lon="9.341439"><ele>1149.76</ele><time>2022-01-03T15:28:00Z</time></trkpt>
<trkpt lat="40.090577" lon="9.341477"><ele>1150.49</ele><time>2022-01-03T15:28:03Z</time></trkpt>
<trkpt lat="40.090795" lon="9.341761"><ele>1148.28</ele><time>2022-01-03T15:28:05Z</time></trkpt>
<trkpt lat="40.091011" lon="9.342194"><ele>1145.74</ele><time>2022-01-03T15:28:07Z</time></trkpt>
<trkpt lat="40.09125" lon="9.342551"><ele>1146.07</ele><time>2022-01-03T15:28:10Z</time></trkpt>
<trkpt lat="40.091485" lon="9.342721"><ele>1146.43</ele><time>2022-01-03T15:28:12Z</time></trkpt>
<trkpt lat="40.091622" lon="9.342748"><ele>1146.85</ele><time>2022-01-03T15:28:14Z</time></trkpt>
<trkpt lat="40.091742" lon="9.342681"><ele>1145.82</ele><time>2022-01-03T15:28:17Z</time></trkpt>
<trkpt lat="40.091801" lon="9.342592"><ele>1145.08</ele><time>2022-01-03T15:28:19Z</time></trkpt>
<trkpt lat="40.092029" lon="9.341698"><ele>1149.66</ele><time>2022-01-03T15:28:21Z</time></trkpt>
<trkpt lat="40.092142" lon="9.341542"><ele>1150.08</ele><time>2022-01-03T15:28:24Z</time></trkpt>
<trkpt lat="40.092306" lon="9.341457"><ele>1148.77</ele><time>2022-01-03T15:28:26Z</time></trkpt>
<trkpt lat="40.092574" lon="9.341443"><ele>1145.6</ele><time>2022-01-03T15:28:28Z</time></trkpt>
<trkpt lat="40.093074" lon="9.34149"><ele>1137.92</ele><time>2022-01-03T15:28:31Z</time></trkpt>
<trkpt lat="40.093232" lon="9.341413"><ele>1136.8</ele><time>2022-01-03T15:28:33Z</time></trkpt>
<trkpt lat="40.09338" lon="9.341254"><ele>1137.31</ele><time>2022-01-03T15:28:35Z</time></trkpt>
<trkpt lat="40.093522" lon="9.341041"><ele>1137.28</ele><time>2022-01-03T15:28:38Z</time></trkpt>
<trkpt lat="40.093707" lon="9.340644"><ele>1138.95</ele><time>2022-01-03T15:28:40Z</time></trkpt>
<trkpt lat="40.093817" lon="9.340289"><ele>1141.86</ele><time>2022-01-03T15:28:42Z</time></trkpt>
<trkpt lat="40.093879" lon="9.340205"><ele>1141.76</ele><time>2022-01-03T15:28:45Z</time></trkpt>
<trkpt lat="40.093957" lon="9.340153"><ele>1141.78</ele><time>2022-01-03T15:28:47Z</time></trkpt>
<trkpt lat="40.09411" lon="9.340156"><ele>1138.88</ele><time>2022-01-03T15:28:49Z</time></trkpt>
<trkpt lat="40.094302" lon="9.340264"><ele>1132.09</ele><time>2022-01-03T15:28:52Z</time></trkpt>
<trkpt lat="40.094429" lon="9.34029"><ele>1129.6</ele><time>2022-01-03T15:28:54Z</time></trkpt>
<trkpt lat="40.094524" lon="9.34025"><ele>1130.35</ele><time>2022-01-03T15:28:56Z</time></trkpt>
<trkpt lat="40.094714" lon="9.340073"><ele>1135.95</ele><time>2022-01-03T15:28:59Z</time></trkpt>
<trkpt lat="40.095038" lon="9.339838"><ele>1132.49</ele><time>2022-01-03T15:29:01Z</time></trkpt>
<trkpt lat="40.095273" lon="9.33959"><ele>1130.54</ele><time>2022-01-03T15:29:03Z</time></trkpt>
<trkpt lat="40.095432" lon="9.339286"><ele>1130.56</ele><time>2022-01-03T15:29:06Z</time></trkpt>
<trkpt lat="40.095912" lon="9.338237"><ele>1128.42</ele><time>2022-01-03T15:29:08Z</time></trkpt>
<trkpt lat="40.096034" lon="9.337915"><ele>1126.42</ele><time>2022-01-03T15:29:10Z</time></trkpt>
<trkpt lat="40.0963" lon="9.336911"><ele>1124.74</ele><time>2022-01-03T15:29:13Z</time></trkpt>
<trkpt lat="40.096435" lon="9.336498"><ele>1121.86</ele><time>2022-01-03T15:29:15Z</time></trkpt>
<trkpt lat="40.096513" lon="9.336346"><ele>1120.54</ele><time>2022-01-03T15:29:17Z</time></trkpt>
<trkpt lat="40.096606" lon="9.336208"><ele>1119.47</ele><time>2022-01-03T15:29:20Z</time></trkpt>
<trkpt lat="40.096887" lon="9.335914"><ele>1116.54</ele><time>2022-01-03T15:29:22Z</time></trkpt>
<trkpt lat="40.096983" lon="9.335739"><ele>1115.63</ele><time>2022-01-03T15:29:24Z</time></trkpt>
<trkpt lat="40.097033" lon="9.335502"><ele>1115.35</ele><time>2022-01-03T15:29:27Z</time></trkpt>
<trkpt lat="40.09709" lon="9.335434"><ele>1115.2</ele><time>2022-01-03T15:29:27Z</time></trkpt>
<trkpt lat="40.097145" lon="9.335408"><ele>1115.18</ele><time>2022-01-03T15:29:28Z</time></trkpt>
<trkpt lat="40.097214" lon="9.335423"><ele>1114.97</ele><time>2022-01-03T15:29:29Z</time></trkpt>
<trkpt lat="40.097266" lon="9.335512"><ele>1114.21</ele><time>2022-01-03T15:29:29Z</time></trkpt>
<trkpt lat="40.097274" lon="9.335638"><ele>1113.4</ele><time>2022-01-03T15:29:30Z</time></trkpt>
<trkpt lat="40.097012" lon="9.336012"><ele>1114.31</ele><time>2022-01-03T15:29:31Z</time></trkpt>
<trkpt lat="40.096514" lon="9.33687"><ele>1117.6</ele><time>2022-01-03T15:29:32Z</time></trkpt>
<trkpt lat="40.096463" lon="9.33705"><ele>1117.06</ele><time>2022-01-03T15:29:34Z</time></trkpt>
<trkpt lat="40.096416" lon="9.337486"><ele>1114.23</ele><time>2022-01-03T15:29:35Z</time></trkpt>
<trkpt lat="40.096322" lon="9.337942"><ele>1113.09</ele><time>2022-01-03T15:29:36Z</time></trkpt>
<trkpt lat="40.096064" lon="9.338835"><ele>1112.84</ele><time>2022-01-03T15:29:38Z</time></trkpt>
<trkpt lat="40.095821" lon="9.339939"><ele>1106.46</ele><time>2022-01-03T15:29:39Z</time></trkpt>
<trkpt lat="40.095732" lon="9.340167"><ele>1104.1</ele><time>2022-01-03T15:29:40Z</time></trkpt>
<trkpt lat="40.095654" lon="9.340314"><ele>1102.53</ele><time>2022-01-03T15:29:42Z</time></trkpt>
<trkpt lat="40.095182" lon="9.340946"><ele>1092.96</ele><time>2022-01-03T15:29:43Z</time></trkpt>
<trkpt lat="40.094946" lon="9.341171"><ele>1090.28</ele><time>2022-01-03T15:29:45Z</time></trkpt>
<trkpt lat="40.094804" lon="9.341225"><ele>1090.96</ele><time>2022-01-03T15:29:46Z</time></trkpt>
<trkpt lat="40.094498" lon="9.341157"><ele>1097.22</ele><time>2022-01-03T15:29:47Z</time></trkpt>
<trkpt lat="40.09442" lon="9.341193"><ele>1098.2</ele><time>2022-01-03T15:29:49Z</time></trkpt>
<trkpt lat="40.09433" lon="9.341347"><ele>1098.43</ele><time>2022-01-03T15:29:50Z</time></trkpt>
<trkpt lat="40.094263" lon="9.341775"><ele>1090.22</ele><time>2022-01-03T15:29:51Z</time></trkpt>
<trkpt lat="40.094211" lon="9.342373"><ele>1083.32</ele><time>2022-01-03T15:29:53Z</time></trkpt>
<trkpt lat="40.094146" lon="9.342601"><ele>1082.51</ele><time>2022-01-03T15:29:54Z</time></trkpt>
<trkpt lat="40.094063" lon="9.342785"><ele>1079.6</ele><time>2022-01-03T15:29:55Z</time></trkpt>
<trkpt lat="40.093921" lon="9.342851"><ele>1078.97</ele><time>2022-01-03T15:29:57Z</time></trkpt>
<trkpt lat="40.093685" lon="9.342811"><ele>1080.16</ele><time>2022-01-03T15:29:58Z</time></trkpt>
<trkpt lat="40.093518" lon="9.342838"><ele>1081.65</ele><time>2022-01-03T15:29:59Z</time></trkpt>
<trkpt lat="40.093387" lon="9.342991"><ele>1081.72</ele><time>2022-01-03T15:30:01Z</time></trkpt>
<trkpt lat="40.093303" lon="9.343184"><ele>1082.31</ele><time>2022-01-03T15:30:02Z</time></trkpt>
<trkpt lat="40.093261" lon="9.344089"><ele>1073.28</ele><time>2022-01-03T15:30:04Z</time></trkpt>
<trkpt lat="40.093282" lon="9.345036"><ele>1065.52</ele><time>2022-01-03T15:30:05Z</time></trkpt>
<trkpt lat="40.093412" lon="9.345818"><ele>1057.54</ele><time>2022-01-03T15:30:06Z</time></trkpt>
<trkpt lat="40.093433" lon="9.346077"><ele>1055.33</ele><time>2022-01-03T15:30:08Z</time></trkpt>
<trkpt lat="40.093395" lon="9.346393"><ele>1053.59</ele><time>2022-01-03T15:30:09Z</time></trkpt>
<trkpt lat="40.093397" lon="9.346519"><ele>1051.13</ele><time>2022-01-03T15:30:10Z</time></trkpt>
<trkpt lat="40.093455" lon="9.346627"><ele>1048.35</ele><time>2022-01-03T15:30:12Z</time></trkpt>
<trkpt lat="40.093523" lon="9.346664"><ele>1046.98</ele><time>2022-01-03T15:30:13Z</time></trkpt>
<trkpt lat="40.093609" lon="9.346683"><ele>1045.79</ele><time>2022-01-03T15:30:14Z</time></trkpt>
<trkpt lat="40.093714" lon="9.346589"><ele>1045.05</ele><time>2022-01-03T15:30:16Z</time></trkpt>
<trkpt lat="40.093774" lon="9.346424"><ele>1044.73</ele><time>2022-01-03T15:30:17Z</time></trkpt>
<trkpt lat="40.093887" lon="9.345145"><ele>1042.07</ele><time>2022-01-03T15:30:19Z</time></trkpt>
<trkpt lat="40.093859" lon="9.344867"><ele>1043.07</ele><time>2022-01-03T15:30:20Z</time></trkpt>
<trkpt lat="40.093871" lon="9.344646"><ele>1043.27</ele><time>2022-01-03T15:30:21Z</time></trkpt>
<trkpt lat="40.093941" lon="9.344513"><ele>1042.71</ele><time>2022-01-03T15:30:23Z</time></trkpt>
<trkpt lat="40.094076" lon="9.344431"><ele>1041.62</ele><time>2022-01-03T15:30:24Z</time></trkpt>
<trkpt lat="40.094611" lon="9.344311"><ele>1038.08</ele><time>2022-01-03T15:30:25Z</time></trkpt>
<trkpt lat="40.094952" lon="9.344201"><ele>1030.82</ele><time>2022-01-03T15:30:27Z</time></trkpt>
<trkpt lat="40.095104" lon="9.34397"><ele>1030.26</ele><time>2022-01-03T15:30:28Z</time></trkpt>
<trkpt lat="40.09528" lon="9.343566"><ele>1029.61</ele><time>2022-01-03T15:30:29Z</time></trkpt>
<trkpt lat="40.095413" lon="9.343408"><ele>1029.37</ele><time>2022-01-03T15:30:31Z</time></trkpt>
<trkpt lat="40.095543" lon="9.34337"><ele>1027.57</ele><time>2022-01-03T15:30:32Z</time></trkpt>
<trkpt lat="40.09563" lon="9.343376"><ele>1027.77</ele><time>2022-01-03T15:30:34Z</time></trkpt>
<trkpt lat="40.095754" lon="9.34349"><ele>1026.61</ele><time>2022-01-03T15:30:35Z</time></trkpt>
<trkpt lat="40.09593" lon="9.344065"><ele>1017.58</ele><time>2022-01-03T15:30:36Z</time></trkpt>
<trkpt lat="40.096034" lon="9.344311"><ele>1014.4</ele><time>2022-01-03T15:30:38Z</time></trkpt>
<trkpt lat="40.096188" lon="9.344469"><ele>1011.58</ele><time>2022-01-03T15:30:39Z</time></trkpt>
<trkpt lat="40.096334" lon="9.344507"><ele>1011.05</ele><time>2022-01-03T15:30:40Z</time></trkpt>
<trkpt lat="40.09642" lon="9.344493"><ele>1010.87</ele><time>2022-01-03T15:30:42Z</time></trkpt>
<trkpt lat="40.09642" lon="9.344493"><ele>1010.87</ele><time>2022-01-03T15:30:42Z</time></trkpt>
<trkpt lat="40.096508" lon="9.34448"><ele>1009.41</ele><time>2022-01-03T15:30:43Z</time></trkpt>
<trkpt lat="40.097189" lon="9.343919"><ele>1007.83</ele><time>2022-01-03T15:30:44Z</time></trkpt>
<trkpt lat="40.097358" lon="9.343894"><ele>1006.4</ele><time>2022-01-03T15:30:46Z</time></trkpt>
<trkpt lat="40.097455" lon="9.343919"><ele>1004.72</ele><time>2022-01-03T15:30:47Z</time></trkpt>
<trkpt lat="40.097566" lon="9.343989"><ele>1002.57</ele><time>2022-01-03T15:30:49Z</time></trkpt>
<trkpt lat="40.09766" lon="9.344109"><ele>999.91</ele><time>2022-01-03T15:30:50Z</time></trkpt>
<trkpt lat="40.097813" lon="9.344383"><ele>995.33</ele><time>2022-01-03T15:30:51Z</time></trkpt>
<trkpt lat="40.097919" lon="9.344475"><ele>993.78</ele><time>2022-01-03T15:30:53Z</time></trkpt>
<trkpt lat="40.098054" lon="9.34451"><ele>993.34</ele><time>2022-01-03T15:30:54Z</time></trkpt>
<trkpt lat="40.09832" lon="9.344507"><ele>992.05</ele><time>2022-01-03T15:30:55Z</time></trkpt>
<trkpt lat="40.098721" lon="9.344444"><ele>986.44</ele><time>2022-01-03T15:30:57Z</time></trkpt>
<trkpt lat="40.099083" lon="9.344333"><ele>984.56</ele><time>2022-01-03T15:30:58Z</time></trkpt>
<trkpt lat="40.099475" lon="9.344175"><ele>979.33</ele><time>2022-01-03T15:31:00Z</time></trkpt>
<trkpt lat="40.099591" lon="9.344087"><ele>978.65</ele><time>2022-01-03T15:31:01Z</time></trkpt>
<trkpt lat="40.100181" lon="9.343422"><ele>973.32</ele><time>2022-01-03T15:31:02Z</time></trkpt>
<trkpt lat="40.100285" lon="9.34335"><ele>971.88</ele><time>2022-01-03T15:31:04Z</time></trkpt>
<trkpt lat="40.100372" lon="9.34332"><ele>971.32</ele><time>2022-01-03T15:31:05Z</time></trkpt>
<trkpt lat="40.100759" lon="9.343324"><ele>969.34</ele><time>2022-01-03T15:31:06Z</time></trkpt>
<trkpt lat="40.100963" lon="9.343306"><ele>968.83</ele><time>2022-01-03T15:31:08Z</time></trkpt>
<trkpt lat="40.102591" lon="9.342774"><ele>955.04</ele><time>2022-01-03T15:31:09Z</time></trkpt>
<trkpt lat="40.102711" lon="9.342774"><ele>955.04</ele><time>2022-01-03T15:31:11Z</time></trkpt>
<trkpt lat="40.102831" lon="9.342825"><ele>954.66</ele><time>2022-01-03T15:31:12Z</time></trkpt>
<trkpt lat="40.102944" lon="9.34293"><ele>953.9</ele><time>2022-01-03T15:31:13Z</time></trkpt>
<trkpt lat="40.103012" lon="9.343051"><ele>953.03</ele><time>2022-01-03T15:31:15Z</time></trkpt>
<trkpt lat="40.103233" lon="9.343551"><ele>953.0</ele><time>2022-01-03T15:31:16Z</time></trkpt>
<trkpt lat="40.103368" lon="9.343696"><ele>952.77</ele><time>2022-01-03T15:31:17Z</time></trkpt>
<trkpt lat="40.10348" lon="9.343789"><ele>953.03</ele><time>2022-01-03T15:31:19Z</time></trkpt>
<trkpt lat="40.103738" lon="9.343772"><ele>954.3</ele><time>2022-01-03T15:31:23Z</time></trkpt>
<trkpt lat="40.104201" lon="9.343644"><ele>954.62</ele><time>2022-01-03T15:31:27Z</time></trkpt>
<trkpt lat="40.10542" lon="9.343131"><ele>954.86</ele><time>2022-01-03T15:31:31Z</time></trkpt>
<trkpt lat="40.105545" lon="9.343006"><ele>955.14</ele><time>2022-01-03T15:31:35Z</time></trkpt>
<trkpt lat="40.105694" lon="9.342774"><ele>953.95</ele><time>2022-01-03T15:31:39Z</time></trkpt>
<trkpt lat="40.105887" lon="9.342595"><ele>954.09</ele><time>2022-01-03T15:31:43Z</time></trkpt>
<trkpt lat="40.106112" lon="9.342488"><ele>954.84</ele><time>2022-01-03T15:31:47Z</time></trkpt>
<trkpt lat="40.106513" lon="9.342387"><ele>956.18</ele><time>2022-01-03T15:31:52Z</time></trkpt>
<trkpt lat="40.106887" lon="9.342204"><ele>954.45</ele><time>2022-01-03T15:31:56Z</time></trkpt>
<trkpt lat="40.107217" lon="9.342016"><ele>952.27</ele><time>2022-01-03T15:32:00Z</time></trkpt>
<trkpt lat="40.1075" lon="9.341815"><ele>949.13</ele><time>2022-01-03T15:32:04Z</time></trkpt>
<trkpt lat="40.107994" lon="9.34138"><ele>949.23</ele><time>2022-01-03T15:32:08Z</time></trkpt>
<trkpt lat="40.108732" lon="9.340801"><ele>947.59</ele><time>2022-01-03T15:32:12Z</time></trkpt>
<trkpt lat="40.109047" lon="9.340581"><ele>946.33</ele><time>2022-01-03T15:32:16Z</time></trkpt>
<trkpt lat="40.110201" lon="9.339875"><ele>947.23</ele><time>2022-01-03T15:32:20Z</time></trkpt>
<trkpt lat="40.110687" lon="9.339334"><ele>945.2</ele><time>2022-01-03T15:32:24Z</time></trkpt>
<trkpt lat="40.111192" lon="9.338908"><ele>945.23</ele><time>2022-01-03T15:32:28Z</time></trkpt>
<trkpt lat="40.111367" lon="9.338787"><ele>944.95</ele><time>2022-01-03T15:32:32Z</time></trkpt>
<trkpt lat="40.111843" lon="9.338559"><ele>946.08</ele><time>2022-01-03T15:32:37Z</time></trkpt>
<trkpt lat="40.112378" lon="9.338156"><ele>944.6</ele><time>2022-01-03T15:32:41Z</time></trkpt>
<trkpt lat="40.112543" lon="9.338073"><ele>944.13</ele><time>2022-01-03T15:32:45Z</time></trkpt>
<trkpt lat="40.113028" lon="9.337908"><ele>944.8</ele><time>2022-01-03T15:32:49Z</time></trkpt>
<trkpt lat="40.113135" lon="9.337848"><ele>944.79</ele><time>2022-01-03T15:32:53Z</time></trkpt>
<trkpt lat="40.113205" lon="9.337743"><ele>944.35</ele><time>2022-01-03T15:32:57Z</time></trkpt>
<trkpt lat="40.113279" lon="9.337586"><ele>943.98</ele><time>2022-01-03T15:33:01Z</time></trkpt>
<trkpt lat="40.113328" lon="9.337405"><ele>943.28</ele><time>2022-01-03T15:33:05Z</time></trkpt>
<trkpt lat="40.113422" lon="9.337218"><ele>942.27</ele><time>2022-01-03T15:33:09Z</time></trkpt>
<trkpt lat="40.11352" lon="9.337126"><ele>941.64</ele><time>2022-01-03T15:33:13Z</time></trkpt>
<trkpt lat="40.113904" lon="9.33689"><ele>939.54</ele><time>2022-01-03T15:33:17Z</time></trkpt>
<trkpt lat="40.11399" lon="9.336772"><ele>939.1</ele><time>2022-01-03T15:33:22Z</time></trkpt>
<trkpt lat="40.114488" lon="9.335731"><ele>936.25</ele><time>2022-01-03T15:33:26Z</time></trkpt>
<trkpt lat="40.114819" lon="9.335238"><ele>936.61</ele><time>2022-01-03T15:33:30Z</time></trkpt>
<trkpt lat="40.115087" lon="9.334971"><ele>936.21</ele><time>2022-01-03T15:33:34Z</time></trkpt>
<trkpt lat="40.115396" lon="9.334758"><ele>935.32</ele><time>2022-01-03T15:33:38Z</time></trkpt>
<trkpt lat="40.116306" lon="9.334687"><ele>933.57</ele><time>2022-01-03T15:33:42Z</time></trkpt>
<trkpt lat="40.116957" lon="9.334566"><ele>932.57</ele><time>2022-01-03T15:33:46Z</time></trkpt>
<trkpt lat="40.117159" lon="9.334511"><ele>934.55</ele><time>2022-01-03T15:33:50Z</time></trkpt>
<trkpt lat="40.117652" lon="9.334018"><ele>933.49</ele><time>2022-01-03T15:33:54Z</time></trkpt>
<trkpt lat="40.11775" lon="9.333961"><ele>933.58</ele><time>2022-01-03T15:33:58Z</time></trkpt>
<trkpt lat="40.118682" lon="9.333822"><ele>937.35</ele><time>2022-01-03T15:34:02Z</time></trkpt>
<trkpt lat="40.118772" lon="9.333776"><ele>937.19</ele><time>2022-01-03T15:34:07Z</time></trkpt>
<trkpt lat="40.119272" lon="9.333355"><ele>937.0</ele><time>2022-01-03T15:34:11Z</time></trkpt>
<trkpt lat="40.120842" lon="9.331786"><ele>937.95</ele><time>2022-01-03T15:34:15Z</time></trkpt>
<trkpt lat="40.121813" lon="9.331335"><ele>933.38</ele><time>2022-01-03T15:34:19Z</time></trkpt>
<trkpt lat="40.122554" lon="9.33104"><ele>934.15</ele><time>2022-01-03T15:34:23Z</time></trkpt>
<trkpt lat="40.123664" lon="9.330689"><ele>928.57</ele><time>2022-01-03T15:34:27Z</time></trkpt>
<trkpt lat="40.125116" lon="9.330271"><ele>925.37</ele><time>2022-01-03T15:34:31Z</time></trkpt>
<trkpt lat="40.125245" lon="9.330189"><ele>925.24</ele><time>2022-01-03T15:34:35Z</time></trkpt>
<trkpt lat="40.12592" lon="9.329649"><ele>926.96</ele><time>2022-01-03T15:34:39Z</time></trkpt>
<trkpt lat="40.126098" lon="9.329573"><ele>926.9</ele><time>2022-01-03T15:34:43Z</time></trkpt>
<trkpt lat="40.126274" lon="9.329583"><ele>926.99</ele><time>2022-01-03T15:34:48Z</time></trkpt>
<trkpt lat="40.127978" lon="9.330112"><ele>925.25</ele><time>2022-01-03T15:34:52Z</time></trkpt>
<trkpt lat="40.12814" lon="9.330085"><ele>924.4</ele><time>2022-01-03T15:34:56Z</time></trkpt>
<trkpt lat="40.128278" lon="9.330017"><ele>923.37</ele><time>2022-01-03T15:35:00Z</time></trkpt>
<trkpt lat="40.128379" lon="9.329918"><ele>923.45</ele><time>2022-01-03T15:35:04Z</time></trkpt>
<trkpt lat="40.128468" lon="9.329747"><ele>924.02</ele><time>2022-01-03T15:35:08Z</time></trkpt>
<trkpt lat="40.128648" lon="9.329173"><ele>925.14</ele><time>2022-01-03T15:35:12Z</time></trkpt>
<trkpt lat="40.128783" lon="9.328959"><ele>925.62</ele><time>2022-01-03T15:35:16Z</time></trkpt>
<trkpt lat="40.129822" lon="9.327861"><ele>924.64</ele><time>2022-01-03T15:35:20Z</time></trkpt>
<trkpt lat="40.129928" lon="9.327766"><ele>924.27</ele><time>2022-01-03T15:35:24Z</time></trkpt>
<trkpt lat="40.130103" lon="9.327691"><ele>924.0</ele><time>2022-01-03T15:35:28Z</time></trkpt>
<trkpt lat="40.131099" lon="9.327684"><ele>921.34</ele><time>2022-01-03T15:35:33Z</time></trkpt>
<trkpt lat="40.131366" lon="9.327608"><ele>918.94</ele><time>2022-01-03T15:35:37Z</time></trkpt>
<trkpt lat="40.132111" lon="9.327309"><ele>917.31</ele><time>2022-01-03T15:35:41Z</time></trkpt>
<trkpt lat="40.134044" lon="9.326019"><ele>911.19</ele><time>2022-01-03T15:35:45Z</time></trkpt>
<trkpt lat="40.136862" lon="9.323366"><ele>907.12</ele><time>2022-01-03T15:35:49Z</time></trkpt>
<trkpt lat="40.138386" lon="9.321978"><ele>906.62</ele><time>2022-01-03T15:35:53Z</time></trkpt>
<trkpt lat="40.138692" lon="9.321748"><ele>907.67</ele><time>2022-01-03T15:35:57Z</time></trkpt>
<trkpt lat="40.138922" lon="9.321661"><ele>908.1</ele><time>2022-01-03T15:36:01Z</time></trkpt>
<trkpt lat="40.139454" lon="9.321549"><ele>908.14</ele><time>2022-01-03T15:36:05Z</time></trkpt>
<trkpt lat="40.139683" lon="9.321448"><ele>906.75</ele><time>2022-01-03T15:36:09Z</time></trkpt>
<trkpt lat="40.13986" lon="9.321276"><ele>904.99</ele><time>2022-01-03T15:36:13Z</time></trkpt>
<trkpt lat="40.140216" lon="9.320706"><ele>905.08</ele><time>2022-01-03T15:36:18Z</time></trkpt>
<trkpt lat="40.140443" lon="9.320384"><ele>904.86</ele><time>2022-01-03T15:36:22Z</time></trkpt>
<trkpt lat="40.140701" lon="9.320185"><ele>903.82</ele><time>2022-01-03T15:36:26Z</time></trkpt>
<trkpt lat="40.141308" lon="9.319853"><ele>901.09</ele><time>2022-01-03T15:36:30Z</time></trkpt>
<trkpt lat="40.141748" lon="9.319461"><ele>898.71</ele><time>2022-01-03T15:36:34Z</time></trkpt>
<trkpt lat="40.143795" lon="9.317355"><ele>879.53</ele><time>2022-01-03T15:36:38Z</time></trkpt>
<trkpt lat="40.144366" lon="9.317025"><ele>874.08</ele><time>2022-01-03T15:36:42Z</time></trkpt>
<trkpt lat="40.144884" lon="9.316686"><ele>875.78</ele><time>2022-01-03T15:36:46Z</time></trkpt>
<trkpt lat="40.145065" lon="9.316469"><ele>876.52</ele><time>2022-01-03T15:36:50Z</time></trkpt>
<trkpt lat="40.145223" lon="9.316166"><ele>877.44</ele><time>2022-01-03T15:36:54Z</time></trkpt>
<trkpt lat="40.145735" lon="9.315081"><ele>881.54</ele><time>2022-01-03T15:36:58Z</time></trkpt>
<trkpt lat="40.145834" lon="9.314926"><ele>881.73</ele><time>2022-01-03T15:37:03Z</time></trkpt>
<trkpt lat="40.145887" lon="9.314805"><ele>881.3</ele><time>2022-01-03T15:37:07Z</time></trkpt>
<trkpt lat="40.146088" lon="9.314609"><ele>880.59</ele><time>2022-01-03T15:37:11Z</time></trkpt>
<trkpt lat="40.14641" lon="9.314435"><ele>878.04</ele><time>2022-01-03T15:37:15Z</time></trkpt>
<trkpt lat="40.14687" lon="9.31423"><ele>877.08</ele><time>2022-01-03T15:37:19Z</time></trkpt>
<trkpt lat="40.148116" lon="9.313732"><ele>878.43</ele><time>2022-01-03T15:37:23Z</time></trkpt>
<trkpt lat="40.150219" lon="9.312478"><ele>883.02</ele><time>2022-01-03T15:37:27Z</time></trkpt>
<trkpt lat="40.155522" lon="9.309249"><ele>897.55</ele><time>2022-01-03T15:37:31Z</time></trkpt>
<trkpt lat="40.156856" lon="9.308485"><ele>900.77</ele><time>2022-01-03T15:37:35Z</time></trkpt>
<trkpt lat="40.161249" lon="9.306489"><ele>894.46</ele><time>2022-01-03T15:37:39Z</time></trkpt>
<trkpt lat="40.161958" lon="9.306058"><ele>889.82</ele><time>2022-01-03T15:37:44Z</time></trkpt>
<trkpt lat="40.164316" lon="9.304299"><ele>885.01</ele><time>2022-01-03T15:37:48Z</time></trkpt>
<trkpt lat="40.167012" lon="9.302899"><ele>877.17</ele><time>2022-01-03T15:37:52Z</time></trkpt>
<trkpt lat="40.167313" lon="9.302842"><ele>875.19</ele><time>2022-01-03T15:37:56Z</time></trkpt>
<trkpt lat="40.168332" lon="9.302796"><ele>877.86</ele><time>2022-01-03T15:38:00Z</time></trkpt>
<trkpt lat="40.169657" lon="9.302771"><ele>877.8</ele><time>2022-01-03T15:38:04Z</time></trkpt>
<trkpt lat="40.170265" lon="9.302591"><ele>880.59</ele><time>2022-01-03T15:38:08Z</time></trkpt>
<trkpt lat="40.171275" lon="9.30191"><ele>884.53</ele><time>2022-01-03T15:38:12Z</time></trkpt>
<trkpt lat="40.171458" lon="9.301698"><ele>884.64</ele><time>2022-01-03T15:38:16Z</time></trkpt>
<trkpt lat="40.173392" lon="9.298395"><ele>884.64</ele><time>2022-01-03T15:38:20Z</time></trkpt>
<trkpt lat="40.173488" lon="9.298267"><ele>884.5</ele><time>2022-01-03T15:38:24Z</time></trkpt>
<trkpt lat="40.174087" lon="9.297679"><ele>883.82</ele><time>2022-01-03T15:38:29Z</time></trkpt>
<trkpt lat="40.175461" lon="9.296417"><ele>884.59</ele><time>2022-01-03T15:38:33Z</time></trkpt>
<trkpt lat="40.175671" lon="9.29626"><ele>884.07</ele><time>2022-01-03T15:38:37Z</time></trkpt>
<trkpt lat="40.175764" lon="9.296233"><ele>883.88</ele><time>2022-01-03T15:38:41Z</time></trkpt>
<trkpt lat="40.175973" lon="9.296251"><ele>884.26</ele><time>2022-01-03T15:38:45Z</time></trkpt>
<trkpt lat="40.176287" lon="9.296354"><ele>885.7</ele><time>2022-01-03T15:38:49Z</time></trkpt>
<trkpt lat="40.177447" lon="9.296941"><ele>882.18</ele><time>2022-01-03T15:38:53Z</time></trkpt>
<trkpt lat="40.177607" lon="9.29704"><ele>880.98</ele><time>2022-01-03T15:38:57Z</time></trkpt>
<trkpt lat="40.177684" lon="9.297131"><ele>880.46</ele><time>2022-01-03T15:39:01Z</time></trkpt>
<trkpt lat="40.177718" lon="9.297214"><ele>880.4</ele><time>2022-01-03T15:39:05Z</time></trkpt>
<trkpt lat="40.17772" lon="9.297398"><ele>879.78</ele><time>2022-01-03T15:39:09Z</time></trkpt>
<trkpt lat="40.177666" lon="9.297522"><ele>879.69</ele><time>2022-01-03T15:39:14Z</time></trkpt>
<trkpt lat="40.177393" lon="9.297808"><ele>879.23</ele><time>2022-01-03T15:39:18Z</time></trkpt>
<trkpt lat="40.177349" lon="9.297883"><ele>878.96</ele><time>2022-01-03T15:39:22Z</time></trkpt>
<trkpt lat="40.177315" lon="9.298039"><ele>878.1</ele><time>2022-01-03T15:39:26Z</time></trkpt>
<trkpt lat="40.177393" lon="9.298223"><ele>877.77</ele><time>2022-01-03T15:39:30Z</time></trkpt>
<trkpt lat="40.177528" lon="9.298318"><ele>877.99</ele><time>2022-01-03T15:39:34Z</time></trkpt>
<trkpt lat="40.177821" lon="9.298335"><ele>877.86</ele><time>2022-01-03T15:39:38Z</time></trkpt>
<trkpt lat="40.178129" lon="9.298332"><ele>875.93</ele><time>2022-01-03T15:39:42Z</time></trkpt>
<trkpt lat="40.178447" lon="9.298273"><ele>872.57</ele><time>2022-01-03T15:39:44Z</time></trkpt>
<trkpt lat="40.17877" lon="9.298122"><ele>871.62</ele><time>2022-01-03T15:39:47Z</time></trkpt>
<trkpt lat="40.179157" lon="9.297935"><ele>870.9</ele><time>2022-01-03T15:39:48Z</time></trkpt>
<trkpt lat="40.180141" lon="9.297547"><ele>866.35</ele><time>2022-01-03T15:39:50Z</time></trkpt>
<trkpt lat="40.181688" lon="9.296201"><ele>856.07</ele><time>2022-01-03T15:39:52Z</time></trkpt>
<trkpt lat="40.18197" lon="9.295887"><ele>849.63</ele><time>2022-01-03T15:39:54Z</time></trkpt>
<trkpt lat="40.182117" lon="9.295774"><ele>848.67</ele><time>2022-01-03T15:39:56Z</time></trkpt>
<trkpt lat="40.182276" lon="9.295761"><ele>850.07</ele><time>2022-01-03T15:39:58Z</time></trkpt>
<trkpt lat="40.182528" lon="9.295794"><ele>853.49</ele><time>2022-01-03T15:39:59Z</time></trkpt>
<trkpt lat="40.182735" lon="9.295658"><ele>852.54</ele><time>2022-01-03T15:40:01Z</time></trkpt>
<trkpt lat="40.182933" lon="9.29536"><ele>846.87</ele><time>2022-01-03T15:40:03Z</time></trkpt>
<trkpt lat="40.183101" lon="9.295257"><ele>845.79</ele><time>2022-01-03T15:40:05Z</time></trkpt>
<trkpt lat="40.183387" lon="9.295212"><ele>846.2</ele><time>2022-01-03T15:40:07Z</time></trkpt>
<trkpt lat="40.183575" lon="9.295044"><ele>844.52</ele><time>2022-01-03T15:40:09Z</time></trkpt>
<trkpt lat="40.183758" lon="9.294843"><ele>842.27</ele><time>2022-01-03T15:40:11Z</time></trkpt>
<trkpt lat="40.183971" lon="9.294798"><ele>842.09</ele><time>2022-01-03T15:40:12Z</time></trkpt>
<trkpt lat="40.184346" lon="9.294817"><ele>841.94</ele><time>2022-01-03T15:40:14Z</time></trkpt>
<trkpt lat="40.184613" lon="9.294714"><ele>840.51</ele><time>2022-01-03T15:40:16Z</time></trkpt>
<trkpt lat="40.18487" lon="9.294157"><ele>837.03</ele><time>2022-01-03T15:40:18Z</time></trkpt>
<trkpt lat="40.185606" lon="9.293026"><ele>832.98</ele><time>2022-01-03T15:40:20Z</time></trkpt>
<trkpt lat="40.185863" lon="9.292773"><ele>829.91</ele><time>2022-01-03T15:40:22Z</time></trkpt>
<trkpt lat="40.186209" lon="9.292637"><ele>828.0</ele><time>2022-01-03T15:40:23Z</time></trkpt>
<trkpt lat="40.186965" lon="9.292431"><ele>826.44</ele><time>2022-01-03T15:40:25Z</time></trkpt>
<trkpt lat="40.187276" lon="9.292295"><ele>823.37</ele><time>2022-01-03T15:40:27Z</time></trkpt>
<trkpt lat="40.187424" lon="9.29214"><ele>821.17</ele><time>2022-01-03T15:40:29Z</time></trkpt>
<trkpt lat="40.187649" lon="9.291697"><ele>820.3</ele><time>2022-01-03T15:40:31Z</time></trkpt>
<trkpt lat="40.188041" lon="9.29062"><ele>816.77</ele><time>2022-01-03T15:40:33Z</time></trkpt>
<trkpt lat="40.188086" lon="9.290323"><ele>817.43</ele><time>2022-01-03T15:40:34Z</time></trkpt>
<trkpt lat="40.188086" lon="9.289986"><ele>815.19</ele><time>2022-01-03T15:40:36Z</time></trkpt>
<trkpt lat="40.18812" lon="9.289728"><ele>811.03</ele><time>2022-01-03T15:40:38Z</time></trkpt>
<trkpt lat="40.188274" lon="9.28945"><ele>807.25</ele><time>2022-01-03T15:40:40Z</time></trkpt>
<trkpt lat="40.188565" lon="9.289197"><ele>806.05</ele><time>2022-01-03T15:40:42Z</time></trkpt>
<trkpt lat="40.188708" lon="9.289158"><ele>806.22</ele><time>2022-01-03T15:40:44Z</time></trkpt>
<trkpt lat="40.188955" lon="9.289133"><ele>807.56</ele><time>2022-01-03T15:40:46Z</time></trkpt>
<trkpt lat="40.189163" lon="9.28901"><ele>808.7</ele><time>2022-01-03T15:40:47Z</time></trkpt>
<trkpt lat="40.189375" lon="9.288732"><ele>805.71</ele><time>2022-01-03T15:40:49Z</time></trkpt>
<trkpt lat="40.189519" lon="9.288609"><ele>803.74</ele><time>2022-01-03T15:40:51Z</time></trkpt>
<trkpt lat="40.18985" lon="9.288447"><ele>803.38</ele><time>2022-01-03T15:40:53Z</time></trkpt>
<trkpt lat="40.190581" lon="9.28767"><ele>795.13</ele><time>2022-01-03T15:40:55Z</time></trkpt>
<trkpt lat="40.190831" lon="9.287548"><ele>794.17</ele><time>2022-01-03T15:40:57Z</time></trkpt>
<trkpt lat="40.191142" lon="9.287473"><ele>793.04</ele><time>2022-01-03T15:40:58Z</time></trkpt>
<trkpt lat="40.191601" lon="9.287202"><ele>785.24</ele><time>2022-01-03T15:41:00Z</time></trkpt>
<trkpt lat="40.191811" lon="9.287188"><ele>784.69</ele><time>2022-01-03T15:41:02Z</time></trkpt>
<trkpt lat="40.192108" lon="9.287227"><ele>783.32</ele><time>2022-01-03T15:41:04Z</time></trkpt>
<trkpt lat="40.192261" lon="9.287202"><ele>781.65</ele><time>2022-01-03T15:41:06Z</time></trkpt>
<trkpt lat="40.192595" lon="9.286959"><ele>779.82</ele><time>2022-01-03T15:41:08Z</time></trkpt>
<trkpt lat="40.192726" lon="9.28694"><ele>780.58</ele><time>2022-01-03T15:41:09Z</time></trkpt>
<trkpt lat="40.192803" lon="9.286974"><ele>781.02</ele><time>2022-01-03T15:41:11Z</time></trkpt>
<trkpt lat="40.192861" lon="9.28705"><ele>780.93</ele><time>2022-01-03T15:41:13Z</time></trkpt>
<trkpt lat="40.192896" lon="9.287237"><ele>781.32</ele><time>2022-01-03T15:41:15Z</time></trkpt>
<trkpt lat="40.193091" lon="9.28897"><ele>774.4</ele><time>2022-01-03T15:41:17Z</time></trkpt>
<trkpt lat="40.193182" lon="9.289158"><ele>773.16</ele><time>2022-01-03T15:41:19Z</time></trkpt>
<trkpt lat="40.193353" lon="9.289394"><ele>771.54</ele><time>2022-01-03T15:41:20Z</time></trkpt>
<trkpt lat="40.193454" lon="9.289646"><ele>770.26</ele><time>2022-01-03T15:41:22Z</time></trkpt>
<trkpt lat="40.194027" lon="9.291693"><ele>768.3</ele><time>2022-01-03T15:41:24Z</time></trkpt>
<trkpt lat="40.194166" lon="9.291884"><ele>767.37</ele><time>2022-01-03T15:41:26Z</time></trkpt>
<trkpt lat="40.19443" lon="9.292026"><ele>766.03</ele><time>2022-01-03T15:41:28Z</time></trkpt>
<trkpt lat="40.194773" lon="9.292081"><ele>763.97</ele><time>2022-01-03T15:41:30Z</time></trkpt>
<trkpt lat="40.195035" lon="9.292081"><ele>759.22</ele><time>2022-01-03T15:41:32Z</time></trkpt>
<trkpt lat="40.195859" lon="9.29187"><ele>750.49</ele><time>2022-01-03T15:41:33Z</time></trkpt>
<trkpt lat="40.195988" lon="9.291893"><ele>750.73</ele><time>2022-01-03T15:41:35Z</time></trkpt>
<trkpt lat="40.196132" lon="9.291971"><ele>751.06</ele><time>2022-01-03T15:41:37Z</time></trkpt>
<trkpt lat="40.196191" lon="9.2922"><ele>752.63</ele><time>2022-01-03T15:41:39Z</time></trkpt>
<trkpt lat="40.196201" lon="9.292566"><ele>755.01</ele><time>2022-01-03T15:41:41Z</time></trkpt>
<trkpt lat="40.196261" lon="9.29273"><ele>755.35</ele><time>2022-01-03T15:41:43Z</time></trkpt>
<trkpt lat="40.196387" lon="9.292909"><ele>754.93</ele><time>2022-01-03T15:41:44Z</time></trkpt>
<trkpt lat="40.196533" lon="9.292991"><ele>753.07</ele><time>2022-01-03T15:41:46Z</time></trkpt>
<trkpt lat="40.196673" lon="9.292986"><ele>750.27</ele><time>2022-01-03T15:41:48Z</time></trkpt>
<trkpt lat="40.196767" lon="9.292869"><ele>749.11</ele><time>2022-01-03T15:41:50Z</time></trkpt>
<trkpt lat="40.196958" lon="9.292575"><ele>745.96</ele><time>2022-01-03T15:41:52Z</time></trkpt>
<trkpt lat="40.19702" lon="9.292339"><ele>744.65</ele><time>2022-01-03T15:41:54Z</time></trkpt>
<trkpt lat="40.197079" lon="9.291999"><ele>743.23</ele><time>2022-01-03T15:41:55Z</time></trkpt>
<trkpt lat="40.197081" lon="9.291695"><ele>741.62</ele><time>2022-01-03T15:41:57Z</time></trkpt>
<trkpt lat="40.197138" lon="9.291394"><ele>739.84</ele><time>2022-01-03T15:41:59Z</time></trkpt>
<trkpt lat="40.197294" lon="9.291145"><ele>736.77</ele><time>2022-01-03T15:42:01Z</time></trkpt>
<trkpt lat="40.197479" lon="9.290993"><ele>735.76</ele><time>2022-01-03T15:42:03Z</time></trkpt>
<trkpt lat="40.197795" lon="9.290828"><ele>734.08</ele><time>2022-01-03T15:42:05Z</time></trkpt>
<trkpt lat="40.197916" lon="9.290728"><ele>733.22</ele><time>2022-01-03T15:42:07Z</time></trkpt>
<trkpt lat="40.198163" lon="9.290395"><ele>729.08</ele><time>2022-01-03T15:42:08Z</time></trkpt>
<trkpt lat="40.198321" lon="9.29024"><ele>728.14</ele><time>2022-01-03T15:42:10Z</time></trkpt>
<trkpt lat="40.198521" lon="9.290094"><ele>732.02</ele><time>2022-01-03T15:42:12Z</time></trkpt>
<trkpt lat="40.198679" lon="9.289865"><ele>730.57</ele><time>2022-01-03T15:42:14Z</time></trkpt>
<trkpt lat="40.199151" lon="9.28892"><ele>720.29</ele><time>2022-01-03T15:42:16Z</time></trkpt>
<trkpt lat="40.199448" lon="9.288578"><ele>719.72</ele><time>2022-01-03T15:42:18Z</time></trkpt>
<trkpt lat="40.199519" lon="9.2884"><ele>719.81</ele><time>2022-01-03T15:42:19Z</time></trkpt>
<trkpt lat="40.199532" lon="9.288219"><ele>718.4</ele><time>2022-01-03T15:42:21Z</time></trkpt>
<trkpt lat="40.19929" lon="9.287216"><ele>707.55</ele><time>2022-01-03T15:42:23Z</time></trkpt>
<trkpt lat="40.199302" lon="9.287025"><ele>704.4</ele><time>2022-01-03T15:42:25Z</time></trkpt>
<trkpt lat="40.199396" lon="9.286864"><ele>702.55</ele><time>2022-01-03T15:42:27Z</time></trkpt>
<trkpt lat="40.199576" lon="9.286679"><ele>702.11</ele><time>2022-01-03T15:42:29Z</time></trkpt>
<trkpt lat="40.199754" lon="9.286631"><ele>704.47</ele><time>2022-01-03T15:42:30Z</time></trkpt>
<trkpt lat="40.199981" lon="9.286605"><ele>704.82</ele><time>2022-01-03T15:42:32Z</time></trkpt>
<trkpt lat="40.200285" lon="9.28664"><ele>702.62</ele><time>2022-01-03T15:42:34Z</time></trkpt>
<trkpt lat="40.20053" lon="9.286601"><ele>702.28</ele><time>2022-01-03T15:42:36Z</time></trkpt>
<trkpt lat="40.201735" lon="9.286152"><ele>698.29</ele><time>2022-01-03T15:42:38Z</time></trkpt>
<trkpt lat="40.201819" lon="9.286055"><ele>697.73</ele><time>2022-01-03T15:42:40Z</time></trkpt>
<trkpt lat="40.20191" lon="9.285835"><ele>694.79</ele><time>2022-01-03T15:42:41Z</time></trkpt>
<trkpt lat="40.202382" lon="9.283989"><ele>685.55</ele><time>2022-01-03T15:42:43Z</time></trkpt>
<trkpt lat="40.202508" lon="9.283736"><ele>684.96</ele><time>2022-01-03T15:42:45Z</time></trkpt>
<trkpt lat="40.20274" lon="9.283432"><ele>683.37</ele><time>2022-01-03T15:42:47Z</time></trkpt>
<trkpt lat="40.202933" lon="9.283258"><ele>680.53</ele><time>2022-01-03T15:42:49Z</time></trkpt>
<trkpt lat="40.203071" lon="9.28318"><ele>679.03</ele><time>2022-01-03T15:42:51Z</time></trkpt>
<trkpt lat="40.203335" lon="9.283161"><ele>676.62</ele><time>2022-01-03T15:42:53Z</time></trkpt>
<trkpt lat="40.203503" lon="9.283206"><ele>675.07</ele><time>2022-01-03T15:42:54Z</time></trkpt>
<trkpt lat="40.20416" lon="9.283846"><ele>676.22</ele><time>2022-01-03T15:42:56Z</time></trkpt>
<trkpt lat="40.204617" lon="9.284063"><ele>669.82</ele><time>2022-01-03T15:42:58Z</time></trkpt>
<trkpt lat="40.205227" lon="9.284302"><ele>665.74</ele><time>2022-01-03T15:43:00Z</time></trkpt>
<trkpt lat="40.205383" lon="9.284406"><ele>666.03</ele><time>2022-01-03T15:43:02Z</time></trkpt>
<trkpt lat="40.205541" lon="9.28459"><ele>667.84</ele><time>2022-01-03T15:43:04Z</time></trkpt>
<trkpt lat="40.205655" lon="9.284655"><ele>668.08</ele><time>2022-01-03T15:43:05Z</time></trkpt>
<trkpt lat="40.205756" lon="9.284665"><ele>667.52</ele><time>2022-01-03T15:43:07Z</time></trkpt>
<trkpt lat="40.2062" lon="9.284319"><ele>663.14</ele><time>2022-01-03T15:43:09Z</time></trkpt>
<trkpt lat="40.206393" lon="9.284267"><ele>661.48</ele><time>2022-01-03T15:43:11Z</time></trkpt>
<trkpt lat="40.20723" lon="9.284332"><ele>660.15</ele><time>2022-01-03T15:43:13Z</time></trkpt>
<trkpt lat="40.207364" lon="9.284277"><ele>658.88</ele><time>2022-01-03T15:43:15Z</time></trkpt>
<trkpt lat="40.207467" lon="9.284183"><ele>657.18</ele><time>2022-01-03T15:43:16Z</time></trkpt>
<trkpt lat="40.207549" lon="9.284008"><ele>654.46</ele><time>2022-01-03T15:43:18Z</time></trkpt>
<trkpt lat="40.207682" lon="9.283633"><ele>649.39</ele><time>2022-01-03T15:43:20Z</time></trkpt>
<trkpt lat="40.207743" lon="9.283541"><ele>648.61</ele><time>2022-01-03T15:43:22Z</time></trkpt>
<trkpt lat="40.207816" lon="9.283481"><ele>648.21</ele><time>2022-01-03T15:43:24Z</time></trkpt>
<trkpt lat="40.207969" lon="9.283439"><ele>647.62</ele><time>2022-01-03T15:43:26Z</time></trkpt>
<trkpt lat="40.208518" lon="9.283466"><ele>648.62</ele><time>2022-01-03T15:43:28Z</time></trkpt>
<trkpt lat="40.209041" lon="9.283342"><ele>645.76</ele><time>2022-01-03T15:43:29Z</time></trkpt>
<trkpt lat="40.209259" lon="9.283328"><ele>645.21</ele><time>2022-01-03T15:43:31Z</time></trkpt>
<trkpt lat="40.209481" lon="9.283358"><ele>646.43</ele><time>2022-01-03T15:43:33Z</time></trkpt>
<trkpt lat="40.210255" lon="9.283518"><ele>647.04</ele><time>2022-01-03T15:43:35Z</time></trkpt>
<trkpt lat="40.210883" lon="9.283702"><ele>643.57</ele><time>2022-01-03T15:43:37Z</time></trkpt>
<trkpt lat="40.210808" lon="9.283598"><ele>643.08</ele><time>2022-01-03T15:43:39Z</time></trkpt>
<trkpt lat="40.210666" lon="9.283475"><ele>643.23</ele><time>2022-01-03T15:43:41Z</time></trkpt>
<trkpt lat="40.210441" lon="9.283335"><ele>643.03</ele><time>2022-01-03T15:43:42Z</time></trkpt>
<trkpt lat="40.210203" lon="9.283213"><ele>641.59</ele><time>2022-01-03T15:43:44Z</time></trkpt>
<trkpt lat="40.208025" lon="9.282377"><ele>632.84</ele><time>2022-01-03T15:43:46Z</time></trkpt>
<trkpt lat="40.207874" lon="9.282363"><ele>631.38</ele><time>2022-01-03T15:43:48Z</time></trkpt>
<trkpt lat="40.207721" lon="9.282395"><ele>630.59</ele><time>2022-01-03T15:43:50Z</time></trkpt>
<trkpt lat="40.207156" lon="9.282632"><ele>631.18</ele><time>2022-01-03T15:43:52Z</time></trkpt>
<trkpt lat="40.206963" lon="9.282675"><ele>629.73</ele><time>2022-01-03T15:43:54Z</time></trkpt>
<trkpt lat="40.206552" lon="9.28267"><ele>627.83</ele><time>2022-01-03T15:43:56Z</time></trkpt>
<trkpt lat="40.206444" lon="9.282704"><ele>628.2</ele><time>2022-01-03T15:43:58Z</time></trkpt>
<trkpt lat="40.205974" lon="9.282984"><ele>630.72</ele><time>2022-01-03T15:43:59Z</time></trkpt>
<trkpt lat="40.205846" lon="9.283031"><ele>630.64</ele><time>2022-01-03T15:44:01Z</time></trkpt>
<trkpt lat="40.2056" lon="9.283008"><ele>629.6</ele><time>2022-01-03T15:44:03Z</time></trkpt>
<trkpt lat="40.205194" lon="9.282885"><ele>632.8</ele><time>2022-01-03T15:44:05Z</time></trkpt>
<trkpt lat="40.205093" lon="9.282814"><ele>634.13</ele><time>2022-01-03T15:44:07Z</time></trkpt>
<trkpt lat="40.204988" lon="9.282659"><ele>634.95</ele><time>2022-01-03T15:44:09Z</time></trkpt>
<trkpt lat="40.204937" lon="9.282506"><ele>633.98</ele><time>2022-01-03T15:44:11Z</time></trkpt>
<trkpt lat="40.204928" lon="9.282393"><ele>633.65</ele><time>2022-01-03T15:44:13Z</time></trkpt>
<trkpt lat="40.204973" lon="9.282252"><ele>632.49</ele><time>2022-01-03T15:44:15Z</time></trkpt>
<trkpt lat="40.205032" lon="9.282177"><ele>632.34</ele><time>2022-01-03T15:44:16Z</time></trkpt>
<trkpt lat="40.205152" lon="9.282111"><ele>633.02</ele><time>2022-01-03T15:44:18Z</time></trkpt>
<trkpt lat="40.20525" lon="9.28212"><ele>633.06</ele><time>2022-01-03T15:44:20Z</time></trkpt>
<trkpt lat="40.205372" lon="9.282219"><ele>632.03</ele><time>2022-01-03T15:44:22Z</time></trkpt>
<trkpt lat="40.205447" lon="9.282257"><ele>631.55</ele><time>2022-01-03T15:44:24Z</time></trkpt>
<trkpt lat="40.205528" lon="9.282255"><ele>631.55</ele><time>2022-01-03T15:44:26Z</time></trkpt>
<trkpt lat="40.205609" lon="9.282191"><ele>631.82</ele><time>2022-01-03T15:44:28Z</time></trkpt>
<trkpt lat="40.205735" lon="9.282008"><ele>631.76</ele><time>2022-01-03T15:44:30Z</time></trkpt>
<trkpt lat="40.205828" lon="9.281799"><ele>631.08</ele><time>2022-01-03T15:44:32Z</time></trkpt>
<trkpt lat="40.205798" lon="9.281253"><ele>634.18</ele><time>2022-01-03T15:44:33Z</time></trkpt>
<trkpt lat="40.20584" lon="9.281064"><ele>635.53</ele><time>2022-01-03T15:44:35Z</time></trkpt>
<trkpt lat="40.205978" lon="9.28091"><ele>635.52</ele><time>2022-01-03T15:44:37Z</time></trkpt>
<trkpt lat="40.206497" lon="9.280607"><ele>632.17</ele><time>2022-01-03T15:44:39Z</time></trkpt>
<trkpt lat="40.206632" lon="9.280463"><ele>631.55</ele><time>2022-01-03T15:44:41Z</time></trkpt>
<trkpt lat="40.206748" lon="9.280233"><ele>632.22</ele><time>2022-01-03T15:44:43Z</time></trkpt>
<trkpt lat="40.207113" lon="9.279247"><ele>632.67</ele><time>2022-01-03T15:44:45Z</time></trkpt>
<trkpt lat="40.207124" lon="9.279052"><ele>633.39</ele><time>2022-01-03T15:44:47Z</time></trkpt>
<trkpt lat="40.207088" lon="9.278842"><ele>634.41</ele><time>2022-01-03T15:44:49Z</time></trkpt>
<trkpt lat="40.20697" lon="9.278488"><ele>635.65</ele><time>2022-01-03T15:44:50Z</time></trkpt>
<trkpt lat="40.206836" lon="9.278223"><ele>635.53</ele><time>2022-01-03T15:44:52Z</time></trkpt>
<trkpt lat="40.206745" lon="9.277949"><ele>635.87</ele><time>2022-01-03T15:44:54Z</time></trkpt>
<trkpt lat="40.206286" lon="9.276797"><ele>640.66</ele><time>2022-01-03T15:44:56Z</time></trkpt>
<trkpt lat="40.206242" lon="9.276594"><ele>642.64</ele><time>2022-01-03T15:44:58Z</time></trkpt>
<trkpt lat="40.20625" lon="9.276343"><ele>644.34</ele><time>2022-01-03T15:45:00Z</time></trkpt>
<trkpt lat="40.206348" lon="9.276153"><ele>643.7</ele><time>2022-01-03T15:45:02Z</time></trkpt>
<trkpt lat="40.206474" lon="9.275985"><ele>641.79</ele><time>2022-01-03T15:45:04Z</time></trkpt>
<trkpt lat="40.206552" lon="9.275799"><ele>640.44</ele><time>2022-01-03T15:45:06Z</time></trkpt>
<trkpt lat="40.206584" lon="9.275589"><ele>640.27</ele><time>2022-01-03T15:45:07Z</time></trkpt>
<trkpt lat="40.206592" lon="9.275201"><ele>642.5</ele><time>2022-01-03T15:45:09Z</time></trkpt>
<trkpt lat="40.206677" lon="9.274937"><ele>643.58</ele><time>2022-01-03T15:45:11Z</time></trkpt>
<trkpt lat="40.206806" lon="9.274788"><ele>644.17</ele><time>2022-01-03T15:45:13Z</time></trkpt>
<trkpt lat="40.207104" lon="9.274665"><ele>642.99</ele><time>2022-01-03T15:45:15Z</time></trkpt>
<trkpt lat="40.207206" lon="9.274562"><ele>642.94</ele><time>2022-01-03T15:45:17Z</time></trkpt>
<trkpt lat="40.207257" lon="9.274434"><ele>643.32</ele><time>2022-01-03T15:45:19Z</time></trkpt>
<trkpt lat="40.207285" lon="9.274236"><ele>643.97</ele><time>2022-01-03T15:45:21Z</time></trkpt>
<trkpt lat="40.207279" lon="9.273236"><ele>648.14</ele><time>2022-01-03T15:45:23Z</time></trkpt>
<trkpt lat="40.207249" lon="9.272997"><ele>648.78</ele><time>2022-01-03T15:45:24Z</time></trkpt>
<trkpt lat="40.207155" lon="9.272766"><ele>651.32</ele><time>2022-01-03T15:45:26Z</time></trkpt>
<trkpt lat="40.207019" lon="9.272593"><ele>654.5</ele><time>2022-01-03T15:45:28Z</time></trkpt>
<trkpt lat="40.206708" lon="9.272314"><ele>658.71</ele><time>2022-01-03T15:45:30Z</time></trkpt>
<trkpt lat="40.206525" lon="9.272056"><ele>660.72</ele><time>2022-01-03T15:45:32Z</time></trkpt>
<trkpt lat="40.206292" lon="9.271608"><ele>661.6</ele><time>2022-01-03T15:45:34Z</time></trkpt>
<trkpt lat="40.206167" lon="9.271301"><ele>663.07</ele><time>2022-01-03T15:45:36Z</time></trkpt>
<trkpt lat="40.206124" lon="9.271047"><ele>663.85</ele><time>2022-01-03T15:45:38Z</time></trkpt>
<trkpt lat="40.206152" lon="9.270857"><ele>663.74</ele><time>2022-01-03T15:45:39Z</time></trkpt>
<trkpt lat="40.206242" lon="9.270736"><ele>662.27</ele><time>2022-01-03T15:45:41Z</time></trkpt>
<trkpt lat="40.206591" lon="9.270549"><ele>657.94</ele><time>2022-01-03T15:45:43Z</time></trkpt>
<trkpt lat="40.2067" lon="9.270364"><ele>659.83</ele><time>2022-01-03T15:45:45Z</time></trkpt>
<trkpt lat="40.206736" lon="9.270169"><ele>661.39</ele><time>2022-01-03T15:45:47Z</time></trkpt>
<trkpt lat="40.206722" lon="9.269835"><ele>664.78</ele><time>2022-01-03T15:45:49Z</time></trkpt>
<trkpt lat="40.206779" lon="9.26961"><ele>665.79</ele><time>2022-01-03T15:45:51Z</time></trkpt>
<trkpt lat="40.206916" lon="9.269502"><ele>664.1</ele><time>2022-01-03T15:45:53Z</time></trkpt>
<trkpt lat="40.207061" lon="9.26946"><ele>662.62</ele><time>2022-01-03T15:45:55Z</time></trkpt>
<trkpt lat="40.20721" lon="9.269322"><ele>661.59</ele><time>2022-01-03T15:45:56Z</time></trkpt>
<trkpt lat="40.207312" lon="9.269102"><ele>661.27</ele><time>2022-01-03T15:45:58Z</time></trkpt>
<trkpt lat="40.20734" lon="9.268852"><ele>661.79</ele><time>2022-01-03T15:46:00Z</time></trkpt>
<trkpt lat="40.207294" lon="9.268615"><ele>662.48</ele><time>2022-01-03T15:46:02Z</time></trkpt>
<trkpt lat="40.207203" lon="9.268412"><ele>663.99</ele><time>2022-01-03T15:46:04Z</time></trkpt>
<trkpt lat="40.207102" lon="9.26823"><ele>666.43</ele><time>2022-01-03T15:46:06Z</time></trkpt>
<trkpt lat="40.20703" lon="9.268024"><ele>669.62</ele><time>2022-01-03T15:46:08Z</time></trkpt>
<trkpt lat="40.207041" lon="9.26786"><ele>671.73</ele><time>2022-01-03T15:46:10Z</time></trkpt>
<trkpt lat="40.207124" lon="9.26772"><ele>672.28</ele><time>2022-01-03T15:46:12Z</time></trkpt>
<trkpt lat="40.207356" lon="9.267408"><ele>674.25</ele><time>2022-01-03T15:46:13Z</time></trkpt>
<trkpt lat="40.207635" lon="9.267118"><ele>673.85</ele><time>2022-01-03T15:46:15Z</time></trkpt>
<trkpt lat="40.207914" lon="9.266871"><ele>672.25</ele><time>2022-01-03T15:46:17Z</time></trkpt>
<trkpt lat="40.208034" lon="9.266692"><ele>672.17</ele><time>2022-01-03T15:46:19Z</time></trkpt>
<trkpt lat="40.208123" lon="9.266387"><ele>673.07</ele><time>2022-01-03T15:46:21Z</time></trkpt>
<trkpt lat="40.20817" lon="9.266099"><ele>673.92</ele><time>2022-01-03T15:46:23Z</time></trkpt>
<trkpt lat="40.20815" lon="9.26582"><ele>675.65</ele><time>2022-01-03T15:46:25Z</time></trkpt>
<trkpt lat="40.207974" lon="9.265099"><ele>680.99</ele><time>2022-01-03T15:46:27Z</time></trkpt>
<trkpt lat="40.20794" lon="9.264758"><ele>680.37</ele><time>2022-01-03T15:46:29Z</time></trkpt>
<trkpt lat="40.207933" lon="9.26444"><ele>678.8</ele><time>2022-01-03T15:46:30Z</time></trkpt>
<trkpt lat="40.207875" lon="9.264222"><ele>678.5</ele><time>2022-01-03T15:46:32Z</time></trkpt>
<trkpt lat="40.207771" lon="9.264024"><ele>678.05</ele><time>2022-01-03T15:46:34Z</time></trkpt>
<trkpt lat="40.207628" lon="9.263894"><ele>678.33</ele><time>2022-01-03T15:46:36Z</time></trkpt>
<trkpt lat="40.207414" lon="9.26384"><ele>680.26</ele><time>2022-01-03T15:46:38Z</time></trkpt>
<trkpt lat="40.206823" lon="9.263744"><ele>680.62</ele><time>2022-01-03T15:46:40Z</time></trkpt>
<trkpt lat="40.206682" lon="9.263689"><ele>681.47</ele><time>2022-01-03T15:46:42Z</time></trkpt>
<trkpt lat="40.206306" lon="9.263607"><ele>685.84</ele><time>2022-01-03T15:46:44Z</time></trkpt>
<trkpt lat="40.206116" lon="9.263512"><ele>687.22</ele><time>2022-01-03T15:46:46Z</time></trkpt>
<trkpt lat="40.205995" lon="9.263346"><ele>688.19</ele><time>2022-01-03T15:46:47Z</time></trkpt>
<trkpt lat="40.205914" lon="9.263141"><ele>689.06</ele><time>2022-01-03T15:46:49Z</time></trkpt>
<trkpt lat="40.20579" lon="9.262693"><ele>689.37</ele><time>2022-01-03T15:46:51Z</time></trkpt>
<trkpt lat="40.205587" lon="9.262096"><ele>692.38</ele><time>2022-01-03T15:46:53Z</time></trkpt>
<trkpt lat="40.205513" lon="9.261945"><ele>694.24</ele><time>2022-01-03T15:46:55Z</time></trkpt>
<trkpt lat="40.205308" lon="9.261634"><ele>697.14</ele><time>2022-01-03T15:46:57Z</time></trkpt>
<trkpt lat="40.205096" lon="9.261354"><ele>700.99</ele><time>2022-01-03T15:46:59Z</time></trkpt>
<trkpt lat="40.205085" lon="9.261221"><ele>702.87</ele><time>2022-01-03T15:47:01Z</time></trkpt>
<trkpt lat="40.205128" lon="9.261072"><ele>704.29</ele><time>2022-01-03T15:47:03Z</time></trkpt>
<trkpt lat="40.205249" lon="9.260969"><ele>704.65</ele><time>2022-01-03T15:47:04Z</time></trkpt>
<trkpt lat="40.205661" lon="9.260846"><ele>704.15</ele><time>2022-01-03T15:47:06Z</time></trkpt>
<trkpt lat="40.205802" lon="9.260779"><ele>703.64</ele><time>2022-01-03T15:47:08Z</time></trkpt>
<trkpt lat="40.205919" lon="9.260646"><ele>703.88</ele><time>2022-01-03T15:47:10Z</time></trkpt>
<trkpt lat="40.206143" lon="9.260266"><ele>705.21</ele><time>2022-01-03T15:47:12Z</time></trkpt>
<trkpt lat="40.2063" lon="9.259907"><ele>703.0</ele><time>2022-01-03T15:47:14Z</time></trkpt>
<trkpt lat="40.206319" lon="9.259676"><ele>702.55</ele><time>2022-01-03T15:47:16Z</time></trkpt>
<trkpt lat="40.206296" lon="9.259522"><ele>703.6</ele><time>2022-01-03T15:47:18Z</time></trkpt>
<trkpt lat="40.206221" lon="9.259368"><ele>706.09</ele><time>2022-01-03T15:47:20Z</time></trkpt>
<trkpt lat="40.205927" lon="9.258978"><ele>711.14</ele><time>2022-01-03T15:47:21Z</time></trkpt>
<trkpt lat="40.205821" lon="9.258804"><ele>712.07</ele><time>2022-01-03T15:47:23Z</time></trkpt>
<trkpt lat="40.205696" lon="9.258506"><ele>710.94</ele><time>2022-01-03T15:47:25Z</time></trkpt>
<trkpt lat="40.205363" lon="9.257475"><ele>711.31</ele><time>2022-01-03T15:47:27Z</time></trkpt>
<trkpt lat="40.205269" lon="9.257285"><ele>709.13</ele><time>2022-01-03T15:47:29Z</time></trkpt>
<trkpt lat="40.204955" lon="9.256884"><ele>705.79</ele><time>2022-01-03T15:47:31Z</time></trkpt>
<trkpt lat="40.204849" lon="9.256802"><ele>706.45</ele><time>2022-01-03T15:47:33Z</time></trkpt>
<trkpt lat="40.204552" lon="9.256761"><ele>712.47</ele><time>2022-01-03T15:47:35Z</time></trkpt>
<trkpt lat="40.204426" lon="9.256689"><ele>713.89</ele><time>2022-01-03T15:47:37Z</time></trkpt>
<trkpt lat="40.203485" lon="9.256027"><ele>723.25</ele><time>2022-01-03T15:47:38Z</time></trkpt>
<trkpt lat="40.203094" lon="9.255771"><ele>722.78</ele><time>2022-01-03T15:47:40Z</time></trkpt>
<trkpt lat="40.202655" lon="9.25554"><ele>728.6</ele><time>2022-01-03T15:47:42Z</time></trkpt>
<trkpt lat="40.202588" lon="9.255478"><ele>729.82</ele><time>2022-01-03T15:47:44Z</time></trkpt>
<trkpt lat="40.202553" lon="9.25535"><ele>730.12</ele><time>2022-01-03T15:47:46Z</time></trkpt>
<trkpt lat="40.202596" lon="9.255186"><ele>730.26</ele><time>2022-01-03T15:47:48Z</time></trkpt>
<trkpt lat="40.202709" lon="9.255032"><ele>730.02</ele><time>2022-01-03T15:47:50Z</time></trkpt>
<trkpt lat="40.202882" lon="9.254929"><ele>729.64</ele><time>2022-01-03T15:47:52Z</time></trkpt>
<trkpt lat="40.203141" lon="9.254903"><ele>727.82</ele><time>2022-01-03T15:47:54Z</time></trkpt>
<trkpt lat="40.204356" lon="9.254939"><ele>728.63</ele><time>2022-01-03T15:47:55Z</time></trkpt>
<trkpt lat="40.20454" lon="9.254873"><ele>726.8</ele><time>2022-01-03T15:47:57Z</time></trkpt>
<trkpt lat="40.20463" lon="9.254765"><ele>727.25</ele><time>2022-01-03T15:47:59Z</time></trkpt>
<trkpt lat="40.204755" lon="9.254519"><ele>728.88</ele><time>2022-01-03T15:48:01Z</time></trkpt>
<trkpt lat="40.204912" lon="9.254288"><ele>731.77</ele><time>2022-01-03T15:48:03Z</time></trkpt>
<trkpt lat="40.205057" lon="9.254149"><ele>733.27</ele><time>2022-01-03T15:48:05Z</time></trkpt>
<trkpt lat="40.20523" lon="9.254098"><ele>733.87</ele><time>2022-01-03T15:48:07Z</time></trkpt>
<trkpt lat="40.205465" lon="9.254103"><ele>732.52</ele><time>2022-01-03T15:48:09Z</time></trkpt>
<trkpt lat="40.205547" lon="9.254062"><ele>732.94</ele><time>2022-01-03T15:48:11Z</time></trkpt>
<trkpt lat="40.205614" lon="9.253939"><ele>734.06</ele><time>2022-01-03T15:48:12Z</time></trkpt>
<trkpt lat="40.20572" lon="9.253641"><ele>737.87</ele><time>2022-01-03T15:48:14Z</time></trkpt>
<trkpt lat="40.205829" lon="9.253215"><ele>743.23</ele><time>2022-01-03T15:48:16Z</time></trkpt>
<trkpt lat="40.205919" lon="9.253092"><ele>744.68</ele><time>2022-01-03T15:48:18Z</time></trkpt>
<trkpt lat="40.20598" lon="9.253067"><ele>744.72</ele><time>2022-01-03T15:48:20Z</time></trkpt>
<trkpt lat="40.206206" lon="9.253087"><ele>744.6</ele><time>2022-01-03T15:48:22Z</time></trkpt>
<trkpt lat="40.206583" lon="9.253352"><ele>741.65</ele><time>2022-01-03T15:48:24Z</time></trkpt>
<trkpt lat="40.206702" lon="9.253356"><ele>742.42</ele><time>2022-01-03T15:48:26Z</time></trkpt>
<trkpt lat="40.207755" lon="9.253046"><ele>753.27</ele><time>2022-01-03T15:48:28Z</time></trkpt>
<trkpt lat="40.20804" lon="9.253156"><ele>750.67</ele><time>2022-01-03T15:48:29Z</time></trkpt>
<trkpt lat="40.208292" lon="9.253204"><ele>750.03</ele><time>2022-01-03T15:48:31Z</time></trkpt>
<trkpt lat="40.208525" lon="9.253164"><ele>750.91</ele><time>2022-01-03T15:48:33Z</time></trkpt>
<trkpt lat="40.208784" lon="9.253009"><ele>750.37</ele><time>2022-01-03T15:48:35Z</time></trkpt>
<trkpt lat="40.209033" lon="9.252809"><ele>750.73</ele><time>2022-01-03T15:48:37Z</time></trkpt>
<trkpt lat="40.209142" lon="9.252658"><ele>751.22</ele><time>2022-01-03T15:48:39Z</time></trkpt>
<trkpt lat="40.2092" lon="9.252486"><ele>752.37</ele><time>2022-01-03T15:48:41Z</time></trkpt>
<trkpt lat="40.209242" lon="9.252289"><ele>752.68</ele><time>2022-01-03T15:48:43Z</time></trkpt>
<trkpt lat="40.209236" lon="9.252037"><ele>753.42</ele><time>2022-01-03T15:48:45Z</time></trkpt>
<trkpt lat="40.20918" lon="9.251848"><ele>754.04</ele><time>2022-01-03T15:48:46Z</time></trkpt>
<trkpt lat="40.209049" lon="9.251712"><ele>755.16</ele><time>2022-01-03T15:48:48Z</time></trkpt>
<trkpt lat="40.208723" lon="9.251565"><ele>756.98</ele><time>2022-01-03T15:48:50Z</time></trkpt>
<trkpt lat="40.207888" lon="9.251528"><ele>767.83</ele><time>2022-01-03T15:48:52Z</time></trkpt>
<trkpt lat="40.207341" lon="9.250873"><ele>771.41</ele><time>2022-01-03T15:48:54Z</time></trkpt>
<trkpt lat="40.206608" lon="9.250545"><ele>779.65</ele><time>2022-01-03T15:48:56Z</time></trkpt>
<trkpt lat="40.206281" lon="9.249862"><ele>783.04</ele><time>2022-01-03T15:48:58Z</time></trkpt>
<trkpt lat="40.206265" lon="9.24945"><ele>785.31</ele><time>2022-01-03T15:49:00Z</time></trkpt>
<trkpt lat="40.206633" lon="9.247933"><ele>795.21</ele><time>2022-01-03T15:49:02Z</time></trkpt>
<trkpt lat="40.206854" lon="9.247482"><ele>796.38</ele><time>2022-01-03T15:49:03Z</time></trkpt>
<trkpt lat="40.207154" lon="9.246425"><ele>805.04</ele><time>2022-01-03T15:49:05Z</time></trkpt>
<trkpt lat="40.207362" lon="9.246004"><ele>807.59</ele><time>2022-01-03T15:49:07Z</time></trkpt>
<trkpt lat="40.207567" lon="9.245751"><ele>807.01</ele><time>2022-01-03T15:49:09Z</time></trkpt>
<trkpt lat="40.208272" lon="9.245266"><ele>807.69</ele><time>2022-01-03T15:49:11Z</time></trkpt>
<trkpt lat="40.208468" lon="9.244986"><ele>811.21</ele><time>2022-01-03T15:49:13Z</time></trkpt>
<trkpt lat="40.208501" lon="9.244781"><ele>812.95</ele><time>2022-01-03T15:49:15Z</time></trkpt>
<trkpt lat="40.208315" lon="9.243259"><ele>818.22</ele><time>2022-01-03T15:49:17Z</time></trkpt>
<trkpt lat="40.20839" lon="9.242964"><ele>818.46</ele><time>2022-01-03T15:49:19Z</time></trkpt>
<trkpt lat="40.208686" lon="9.242312"><ele>824.39</ele><time>2022-01-03T15:49:20Z</time></trkpt>
<trkpt lat="40.209255" lon="9.240525"><ele>826.26</ele><time>2022-01-03T15:49:22Z</time></trkpt>
<trkpt lat="40.209339" lon="9.24005"><ele>823.58</ele><time>2022-01-03T15:49:24Z</time></trkpt>
<trkpt lat="40.20934" lon="9.239618"><ele>822.88</ele><time>2022-01-03T15:49:26Z</time></trkpt>
<trkpt lat="40.2092" lon="9.238657"><ele>818.09</ele><time>2022-01-03T15:49:28Z</time></trkpt>
<trkpt lat="40.209216" lon="9.238563"><ele>817.49</ele><time>2022-01-03T15:49:30Z</time></trkpt>
<trkpt lat="40.209272" lon="9.238422"><ele>817.12</ele><time>2022-01-03T15:49:32Z</time></trkpt>
<trkpt lat="40.209392" lon="9.238279"><ele>816.73</ele><time>2022-01-03T15:49:34Z</time></trkpt>
<trkpt lat="40.210046" lon="9.237939"><ele>812.12</ele><time>2022-01-03T15:49:35Z</time></trkpt>
<trkpt lat="40.210225" lon="9.237773"><ele>808.54</ele><time>2022-01-03T15:49:37Z</time></trkpt>
<trkpt lat="40.210311" lon="9.237526"><ele>807.86</ele><time>2022-01-03T15:49:39Z</time></trkpt>
<trkpt lat="40.210458" lon="9.23612"><ele>800.82</ele><time>2022-01-03T15:49:41Z</time></trkpt>
<trkpt lat="40.210497" lon="9.235926"><ele>799.91</ele><time>2022-01-03T15:49:43Z</time></trkpt>
<trkpt lat="40.211062" lon="9.234721"><ele>794.71</ele><time>2022-01-03T15:49:45Z</time></trkpt>
<trkpt lat="40.211505" lon="9.232629"><ele>785.83</ele><time>2022-01-03T15:49:47Z</time></trkpt>
<trkpt lat="40.211464" lon="9.232433"><ele>784.91</ele><time>2022-01-03T15:49:49Z</time></trkpt>
<trkpt lat="40.211394" lon="9.232227"><ele>783.98</ele><time>2022-01-03T15:49:51Z</time></trkpt>
<trkpt lat="40.210702" lon="9.23111"><ele>777.29</ele><time>2022-01-03T15:49:52Z</time></trkpt>
<trkpt lat="40.210643" lon="9.231039"><ele>776.97</ele><time>2022-01-03T15:49:54Z</time></trkpt>
<trkpt lat="40.210566" lon="9.230991"><ele>777.31</ele><time>2022-01-03T15:49:56Z</time></trkpt>
<trkpt lat="40.210438" lon="9.23095"><ele>777.7</ele><time>2022-01-03T15:49:58Z</time></trkpt>
<trkpt lat="40.209921" lon="9.230886"><ele>779.37</ele><time>2022-01-03T15:50:00Z</time></trkpt>
<trkpt lat="40.20982" lon="9.23078"><ele>778.13</ele><time>2022-01-03T15:50:02Z</time></trkpt>
<trkpt lat="40.209708" lon="9.230426"><ele>776.67</ele><time>2022-01-03T15:50:04Z</time></trkpt>
<trkpt lat="40.209605" lon="9.230223"><ele>776.56</ele><time>2022-01-03T15:50:06Z</time></trkpt>
<trkpt lat="40.209398" lon="9.230143"><ele>776.7</ele><time>2022-01-03T15:50:08Z</time></trkpt>
<trkpt lat="40.20848" lon="9.23059"><ele>772.84</ele><time>2022-01-03T15:50:09Z</time></trkpt>
<trkpt lat="40.207935" lon="9.230665"><ele>772.88</ele><time>2022-01-03T15:50:11Z</time></trkpt>
<trkpt lat="40.207788" lon="9.230435"><ele>773.8</ele><time>2022-01-03T15:50:13Z</time></trkpt>
<trkpt lat="40.207784" lon="9.230274"><ele>774.95</ele><time>2022-01-03T15:50:15Z</time></trkpt>
<trkpt lat="40.208079" lon="9.229899"><ele>772.78</ele><time>2022-01-03T15:50:17Z</time></trkpt>
<trkpt lat="40.20834" lon="9.229061"><ele>770.85</ele><time>2022-01-03T15:50:19Z</time></trkpt>
<trkpt lat="40.208173" lon="9.228098"><ele>767.85</ele><time>2022-01-03T15:50:21Z</time></trkpt>
<trkpt lat="40.208079" lon="9.22784"><ele>766.47</ele><time>2022-01-03T15:50:23Z</time></trkpt>
<trkpt lat="40.207309" lon="9.227331"><ele>762.54</ele><time>2022-01-03T15:50:25Z</time></trkpt>
<trkpt lat="40.20692" lon="9.227358"><ele>763.49</ele><time>2022-01-03T15:50:26Z</time></trkpt>
<trkpt lat="40.206834" lon="9.227294"><ele>762.59</ele><time>2022-01-03T15:50:28Z</time></trkpt>
<trkpt lat="40.206803" lon="9.227179"><ele>761.66</ele><time>2022-01-03T15:50:30Z</time></trkpt>
<trkpt lat="40.206807" lon="9.227067"><ele>762.05</ele><time>2022-01-03T15:50:32Z</time></trkpt>
<trkpt lat="40.206833" lon="9.226976"><ele>762.11</ele><time>2022-01-03T15:50:34Z</time></trkpt>
<trkpt lat="40.206877" lon="9.226898"><ele>762.4</ele><time>2022-01-03T15:50:36Z</time></trkpt>
<trkpt lat="40.207645" lon="9.226101"><ele>766.03</ele><time>2022-01-03T15:50:38Z</time></trkpt>
<trkpt lat="40.207957" lon="9.225411"><ele>771.23</ele><time>2022-01-03T15:50:40Z</time></trkpt>
<trkpt lat="40.208179" lon="9.225061"><ele>772.43</ele><time>2022-01-03T15:50:42Z</time></trkpt>
<trkpt lat="40.208414" lon="9.224918"><ele>771.22</ele><time>2022-01-03T15:50:43Z</time></trkpt>
<trkpt lat="40.209046" lon="9.224422"><ele>770.46</ele><time>2022-01-03T15:50:45Z</time></trkpt>
<trkpt lat="40.209111" lon="9.224307"><ele>770.0</ele><time>2022-01-03T15:50:47Z</time></trkpt>
<trkpt lat="40.20917" lon="9.224146"><ele>769.0</ele><time>2022-01-03T15:50:49Z</time></trkpt>
<trkpt lat="40.209187" lon="9.223982"><ele>768.85</ele><time>2022-01-03T15:50:51Z</time></trkpt>
<trkpt lat="40.209069" lon="9.222821"><ele>763.32</ele><time>2022-01-03T15:50:53Z</time></trkpt>
<trkpt lat="40.209086" lon="9.222449"><ele>762.6</ele><time>2022-01-03T15:50:55Z</time></trkpt>
<trkpt lat="40.209297" lon="9.221889"><ele>757.82</ele><time>2022-01-03T15:50:57Z</time></trkpt>
<trkpt lat="40.209416" lon="9.221475"><ele>754.92</ele><time>2022-01-03T15:50:59Z</time></trkpt>
<trkpt lat="40.209335" lon="9.22099"><ele>755.92</ele><time>2022-01-03T15:51:00Z</time></trkpt>
<trkpt lat="40.208206" lon="9.218131"><ele>758.86</ele><time>2022-01-03T15:51:02Z</time></trkpt>
<trkpt lat="40.208034" lon="9.217868"><ele>757.73</ele><time>2022-01-03T15:51:04Z</time></trkpt>
<trkpt lat="40.207678" lon="9.217794"><ele>758.45</ele><time>2022-01-03T15:51:06Z</time></trkpt>
<trkpt lat="40.207572" lon="9.217689"><ele>758.57</ele><time>2022-01-03T15:51:08Z</time></trkpt>
<trkpt lat="40.20751" lon="9.217542"><ele>758.9</ele><time>2022-01-03T15:51:10Z</time></trkpt>
<trkpt lat="40.207412" lon="9.216845"><ele>759.28</ele><time>2022-01-03T15:51:12Z</time></trkpt>
<trkpt lat="40.20735" lon="9.216684"><ele>759.14</ele><time>2022-01-03T15:51:14Z</time></trkpt>
<trkpt lat="40.207244" lon="9.216566"><ele>759.45</ele><time>2022-01-03T15:51:16Z</time></trkpt>
<trkpt lat="40.206306" lon="9.215848"><ele>761.64</ele><time>2022-01-03T15:51:17Z</time></trkpt>
<trkpt lat="40.206178" lon="9.21564"><ele>762.57</ele><time>2022-01-03T15:51:19Z</time></trkpt>
<trkpt lat="40.206137" lon="9.21549"><ele>762.66</ele><time>2022-01-03T15:51:21Z</time></trkpt>
<trkpt lat="40.206126" lon="9.215371"><ele>762.86</ele><time>2022-01-03T15:51:23Z</time></trkpt>
<trkpt lat="40.206151" lon="9.215254"><ele>762.88</ele><time>2022-01-03T15:51:25Z</time></trkpt>
<trkpt lat="40.206457" lon="9.21502"><ele>762.35</ele><time>2022-01-03T15:51:27Z</time></trkpt>
<trkpt lat="40.206482" lon="9.21484"><ele>762.52</ele><time>2022-01-03T15:51:29Z</time></trkpt>
<trkpt lat="40.206457" lon="9.214736"><ele>762.74</ele><time>2022-01-03T15:51:31Z</time></trkpt>
<trkpt lat="40.206375" lon="9.214659"><ele>763.13</ele><time>2022-01-03T15:51:33Z</time></trkpt>
<trkpt lat="40.206211" lon="9.21459"><ele>764.61</ele><time>2022-01-03T15:51:34Z</time></trkpt>
<trkpt lat="40.206036" lon="9.214432"><ele>765.53</ele><time>2022-01-03T15:51:36Z</time></trkpt>
<trkpt lat="40.206057" lon="9.214229"><ele>765.24</ele><time>2022-01-03T15:51:38Z</time></trkpt>
<trkpt lat="40.206351" lon="9.213865"><ele>765.53</ele><time>2022-01-03T15:51:40Z</time></trkpt>
<trkpt lat="40.206749" lon="9.213822"><ele>763.22</ele><time>2022-01-03T15:51:42Z</time></trkpt>
<trkpt lat="40.206801" lon="9.213763"><ele>763.22</ele><time>2022-01-03T15:51:44Z</time></trkpt>
<trkpt lat="40.206987" lon="9.213347"><ele>762.34</ele><time>2022-01-03T15:51:46Z</time></trkpt>
<trkpt lat="40.206994" lon="9.213216"><ele>763.48</ele><time>2022-01-03T15:51:48Z</time></trkpt>
<trkpt lat="40.206965" lon="9.212793"><ele>768.39</ele><time>2022-01-03T15:51:50Z</time></trkpt>
<trkpt lat="40.207153" lon="9.21232"><ele>765.38</ele><time>2022-01-03T15:51:51Z</time></trkpt>
<trkpt lat="40.207272" lon="9.212133"><ele>765.08</ele><time>2022-01-03T15:51:53Z</time></trkpt>
<trkpt lat="40.207407" lon="9.212122"><ele>765.56</ele><time>2022-01-03T15:51:55Z</time></trkpt>
<trkpt lat="40.207703" lon="9.212554"><ele>763.8</ele><time>2022-01-03T15:51:57Z</time></trkpt>
<trkpt lat="40.208574" lon="9.2129"><ele>767.97</ele><time>2022-01-03T15:51:59Z</time></trkpt>
<trkpt lat="40.209065" lon="9.212781"><ele>768.68</ele><time>2022-01-03T15:52:01Z</time></trkpt>
<trkpt lat="40.209364" lon="9.212589"><ele>768.55</ele><time>2022-01-03T15:52:03Z</time></trkpt>
<trkpt lat="40.209647" lon="9.212214"><ele>774.0</ele><time>2022-01-03T15:52:05Z</time></trkpt>
<trkpt lat="40.209982" lon="9.212053"><ele>773.85</ele><time>2022-01-03T15:52:07Z</time></trkpt>
<trkpt lat="40.210615" lon="9.211681"><ele>777.58</ele><time>2022-01-03T15:52:08Z</time></trkpt>
<trkpt lat="40.211477" lon="9.211774"><ele>773.47</ele><time>2022-01-03T15:52:10Z</time></trkpt>
<trkpt lat="40.211689" lon="9.211603"><ele>772.43</ele><time>2022-01-03T15:52:12Z</time></trkpt>
<trkpt lat="40.211779" lon="9.211099"><ele>778.75</ele><time>2022-01-03T15:52:14Z</time></trkpt>
<trkpt lat="40.212021" lon="9.210524"><ele>782.3</ele><time>2022-01-03T15:52:16Z</time></trkpt>
<trkpt lat="40.212181" lon="9.210311"><ele>785.55</ele><time>2022-01-03T15:52:18Z</time></trkpt>
<trkpt lat="40.212279" lon="9.210327"><ele>785.56</ele><time>2022-01-03T15:52:20Z</time></trkpt>
<trkpt lat="40.212406" lon="9.210413"><ele>785.21</ele><time>2022-01-03T15:52:22Z</time></trkpt>
<trkpt lat="40.212647" lon="9.211103"><ele>782.18</ele><time>2022-01-03T15:52:24Z</time></trkpt>
<trkpt lat="40.212728" lon="9.211245"><ele>781.75</ele><time>2022-01-03T15:52:25Z</time></trkpt>
<trkpt lat="40.212868" lon="9.211324"><ele>782.43</ele><time>2022-01-03T15:52:27Z</time></trkpt>
<trkpt lat="40.213269" lon="9.211253"><ele>786.09</ele><time>2022-01-03T15:52:29Z</time></trkpt>
<trkpt lat="40.213669" lon="9.211147"><ele>788.31</ele><time>2022-01-03T15:52:31Z</time></trkpt>
<trkpt lat="40.213813" lon="9.211011"><ele>788.88</ele><time>2022-01-03T15:52:33Z</time></trkpt>
<trkpt lat="40.214499" lon="9.209889"><ele>792.4</ele><time>2022-01-03T15:52:35Z</time></trkpt>
<trkpt lat="40.214735" lon="9.209555"><ele>795.92</ele><time>2022-01-03T15:52:37Z</time></trkpt>
<trkpt lat="40.214821" lon="9.20948"><ele>796.64</ele><time>2022-01-03T15:52:39Z</time></trkpt>
<trkpt lat="40.215809" lon="9.209317"><ele>794.06</ele><time>2022-01-03T15:52:41Z</time></trkpt>
<trkpt lat="40.216019" lon="9.209136"><ele>794.43</ele><time>2022-01-03T15:52:42Z</time></trkpt>
<trkpt lat="40.216237" lon="9.208879"><ele>795.24</ele><time>2022-01-03T15:52:44Z</time></trkpt>
<trkpt lat="40.216299" lon="9.208722"><ele>795.1</ele><time>2022-01-03T15:52:46Z</time></trkpt>
<trkpt lat="40.216313" lon="9.208486"><ele>794.59</ele><time>2022-01-03T15:52:48Z</time></trkpt>
<trkpt lat="40.216262" lon="9.208266"><ele>793.64</ele><time>2022-01-03T15:52:50Z</time></trkpt>
<trkpt lat="40.216187" lon="9.208092"><ele>792.64</ele><time>2022-01-03T15:52:52Z</time></trkpt>
<trkpt lat="40.215704" lon="9.207419"><ele>795.18</ele><time>2022-01-03T15:52:54Z</time></trkpt>
<trkpt lat="40.215654" lon="9.207205"><ele>795.82</ele><time>2022-01-03T15:52:56Z</time></trkpt>
<trkpt lat="40.215595" lon="9.206706"><ele>795.31</ele><time>2022-01-03T15:52:58Z</time></trkpt>
<trkpt lat="40.215471" lon="9.206508"><ele>795.54</ele><time>2022-01-03T15:52:59Z</time></trkpt>
<trkpt lat="40.215062" lon="9.206224"><ele>798.65</ele><time>2022-01-03T15:53:01Z</time></trkpt>
<trkpt lat="40.214948" lon="9.205989"><ele>796.88</ele><time>2022-01-03T15:53:03Z</time></trkpt>
<trkpt lat="40.214755" lon="9.205165"><ele>795.13</ele><time>2022-01-03T15:53:05Z</time></trkpt>
<trkpt lat="40.214338" lon="9.204146"><ele>803.87</ele><time>2022-01-03T15:53:07Z</time></trkpt>
<trkpt lat="40.214328" lon="9.20392"><ele>805.1</ele><time>2022-01-03T15:53:09Z</time></trkpt>
<trkpt lat="40.214489" lon="9.203679"><ele>803.09</ele><time>2022-01-03T15:53:11Z</time></trkpt>
<trkpt lat="40.214493" lon="9.203404"><ele>802.21</ele><time>2022-01-03T15:53:13Z</time></trkpt>
<trkpt lat="40.213597" lon="9.201008"><ele>804.97</ele><time>2022-01-03T15:53:15Z</time></trkpt>
<trkpt lat="40.213493" lon="9.200622"><ele>807.63</ele><time>2022-01-03T15:53:16Z</time></trkpt>
<trkpt lat="40.213505" lon="9.200479"><ele>807.96</ele><time>2022-01-03T15:53:18Z</time></trkpt>
<trkpt lat="40.213616" lon="9.200146"><ele>806.35</ele><time>2022-01-03T15:53:20Z</time></trkpt>
<trkpt lat="40.213755" lon="9.199936"><ele>804.23</ele><time>2022-01-03T15:53:22Z</time></trkpt>
<trkpt lat="40.213809" lon="9.199895"><ele>803.36</ele><time>2022-01-03T15:53:24Z</time></trkpt>
<trkpt lat="40.213832" lon="9.199855"><ele>803.17</ele><time>2022-01-03T15:53:26Z</time></trkpt>
<trkpt lat="40.213844" lon="9.199758"><ele>803.58</ele><time>2022-01-03T15:53:28Z</time></trkpt>
<trkpt lat="40.21381" lon="9.19967"><ele>804.68</ele><time>2022-01-03T15:53:30Z</time></trkpt>
<trkpt lat="40.213756" lon="9.199628"><ele>805.75</ele><time>2022-01-03T15:53:32Z</time></trkpt>
<trkpt lat="40.213506" lon="9.199306"><ele>806.76</ele><time>2022-01-03T15:53:34Z</time></trkpt>
<trkpt lat="40.212702" lon="9.197792"><ele>805.74</ele><time>2022-01-03T15:53:36Z</time></trkpt>
<trkpt lat="40.21221" lon="9.196388"><ele>807.35</ele><time>2022-01-03T15:53:38Z</time></trkpt>
<trkpt lat="40.211903" lon="9.19572"><ele>808.16</ele><time>2022-01-03T15:53:39Z</time></trkpt>
<trkpt lat="40.211752" lon="9.195633"><ele>808.42</ele><time>2022-01-03T15:53:41Z</time></trkpt>
<trkpt lat="40.211629" lon="9.195598"><ele>808.85</ele><time>2022-01-03T15:53:43Z</time></trkpt>
<trkpt lat="40.211504" lon="9.195622"><ele>809.98</ele><time>2022-01-03T15:53:45Z</time></trkpt>
<trkpt lat="40.211222" lon="9.19576"><ele>811.77</ele><time>2022-01-03T15:53:47Z</time></trkpt>
<trkpt lat="40.211068" lon="9.195722"><ele>811.26</ele><time>2022-01-03T15:53:49Z</time></trkpt>
<trkpt lat="40.210997" lon="9.195628"><ele>810.83</ele><time>2022-01-03T15:53:51Z</time></trkpt>
<trkpt lat="40.210834" lon="9.195006"><ele>809.99</ele><time>2022-01-03T15:53:53Z</time></trkpt>
<trkpt lat="40.210332" lon="9.192919"><ele>811.93</ele><time>2022-01-03T15:53:55Z</time></trkpt>
<trkpt lat="40.210219" lon="9.192607"><ele>810.6</ele><time>2022-01-03T15:53:57Z</time></trkpt>
<trkpt lat="40.210066" lon="9.192478"><ele>810.76</ele><time>2022-01-03T15:53:59Z</time></trkpt>
<trkpt lat="40.209991" lon="9.192462"><ele>810.97</ele><time>2022-01-03T15:54:01Z</time></trkpt>
<trkpt lat="40.209266" lon="9.192734"><ele>808.1</ele><time>2022-01-03T15:54:03Z</time></trkpt>
<trkpt lat="40.209103" lon="9.192941"><ele>808.58</ele><time>2022-01-03T15:54:05Z</time></trkpt>
<trkpt lat="40.209024" lon="9.193217"><ele>808.16</ele><time>2022-01-03T15:54:06Z</time></trkpt>
<trkpt lat="40.209056" lon="9.194058"><ele>806.0</ele><time>2022-01-03T15:54:08Z</time></trkpt>
<trkpt lat="40.208989" lon="9.19421"><ele>804.17</ele><time>2022-01-03T15:54:10Z</time></trkpt>
<trkpt lat="40.208836" lon="9.194394"><ele>801.77</ele><time>2022-01-03T15:54:12Z</time></trkpt>
<trkpt lat="40.208682" lon="9.194488"><ele>801.41</ele><time>2022-01-03T15:54:14Z</time></trkpt>
<trkpt lat="40.208558" lon="9.194471"><ele>801.09</ele><time>2022-01-03T15:54:16Z</time></trkpt>
<trkpt lat="40.208486" lon="9.194385"><ele>800.79</ele><time>2022-01-03T15:54:18Z</time></trkpt>
<trkpt lat="40.207901" lon="9.193436"><ele>792.6</ele><time>2022-01-03T15:54:20Z</time></trkpt>
<trkpt lat="40.207867" lon="9.193313"><ele>791.27</ele><time>2022-01-03T15:54:22Z</time></trkpt>
<trkpt lat="40.207886" lon="9.193182"><ele>791.06</ele><time>2022-01-03T15:54:24Z</time></trkpt>
<trkpt lat="40.207987" lon="9.193017"><ele>791.47</ele><time>2022-01-03T15:54:26Z</time></trkpt>
<trkpt lat="40.208013" lon="9.192911"><ele>791.61</ele><time>2022-01-03T15:54:28Z</time></trkpt>
<trkpt lat="40.207987" lon="9.192716"><ele>791.21</ele><time>2022-01-03T15:54:30Z</time></trkpt>
<trkpt lat="40.207536" lon="9.191422"><ele>778.01</ele><time>2022-01-03T15:54:32Z</time></trkpt>
<trkpt lat="40.207511" lon="9.191259"><ele>777.28</ele><time>2022-01-03T15:54:33Z</time></trkpt>
<trkpt lat="40.20757" lon="9.190975"><ele>779.51</ele><time>2022-01-03T15:54:35Z</time></trkpt>
<trkpt lat="40.207565" lon="9.190856"><ele>779.79</ele><time>2022-01-03T15:54:37Z</time></trkpt>
<trkpt lat="40.207534" lon="9.190751"><ele>779.4</ele><time>2022-01-03T15:54:39Z</time></trkpt>
<trkpt lat="40.207386" lon="9.190537"><ele>775.89</ele><time>2022-01-03T15:54:41Z</time></trkpt>
<trkpt lat="40.207141" lon="9.190009"><ele>772.3</ele><time>2022-01-03T15:54:43Z</time></trkpt>
<trkpt lat="40.206905" lon="9.189421"><ele>768.82</ele><time>2022-01-03T15:54:45Z</time></trkpt>
<trkpt lat="40.206872" lon="9.189196"><ele>768.54</ele><time>2022-01-03T15:54:47Z</time></trkpt>
<trkpt lat="40.206859" lon="9.188961"><ele>766.25</ele><time>2022-01-03T15:54:49Z</time></trkpt>
<trkpt lat="40.206897" lon="9.188787"><ele>765.29</ele><time>2022-01-03T15:54:51Z</time></trkpt>
<trkpt lat="40.206951" lon="9.18864"><ele>764.54</ele><time>2022-01-03T15:54:53Z</time></trkpt>
<trkpt lat="40.207294" lon="9.188288"><ele>766.6</ele><time>2022-01-03T15:54:55Z</time></trkpt>
<trkpt lat="40.207317" lon="9.188164"><ele>767.26</ele><time>2022-01-03T15:54:57Z</time></trkpt>
<trkpt lat="40.207309" lon="9.188077"><ele>767.16</ele><time>2022-01-03T15:54:59Z</time></trkpt>
<trkpt lat="40.207251" lon="9.18798"><ele>766.6</ele><time>2022-01-03T15:55:00Z</time></trkpt>
<trkpt lat="40.207053" lon="9.187757"><ele>762.68</ele><time>2022-01-03T15:55:02Z</time></trkpt>
<trkpt lat="40.206939" lon="9.187561"><ele>760.4</ele><time>2022-01-03T15:55:04Z</time></trkpt>
<trkpt lat="40.20675" lon="9.186905"><ele>754.68</ele><time>2022-01-03T15:55:06Z</time></trkpt>
<trkpt lat="40.206694" lon="9.186658"><ele>752.85</ele><time>2022-01-03T15:55:08Z</time></trkpt>
<trkpt lat="40.206704" lon="9.186424"><ele>752.46</ele><time>2022-01-03T15:55:10Z</time></trkpt>
<trkpt lat="40.20676" lon="9.1861"><ele>752.3</ele><time>2022-01-03T15:55:12Z</time></trkpt>
<trkpt lat="40.206756" lon="9.185826"><ele>750.51</ele><time>2022-01-03T15:55:14Z</time></trkpt>
<trkpt lat="40.20657" lon="9.184279"><ele>743.65</ele><time>2022-01-03T15:55:16Z</time></trkpt>
<trkpt lat="40.206528" lon="9.184073"><ele>743.18</ele><time>2022-01-03T15:55:18Z</time></trkpt>
<trkpt lat="40.206379" lon="9.183598"><ele>739.76</ele><time>2022-01-03T15:55:20Z</time></trkpt>
<trkpt lat="40.206358" lon="9.182685"><ele>735.84</ele><time>2022-01-03T15:55:22Z</time></trkpt>
<trkpt lat="40.206371" lon="9.182523"><ele>735.58</ele><time>2022-01-03T15:55:24Z</time></trkpt>
<trkpt lat="40.206755" lon="9.181827"><ele>732.42</ele><time>2022-01-03T15:55:26Z</time></trkpt>
<trkpt lat="40.206798" lon="9.181628"><ele>730.76</ele><time>2022-01-03T15:55:27Z</time></trkpt>
<trkpt lat="40.206756" lon="9.181437"><ele>729.37</ele><time>2022-01-03T15:55:29Z</time></trkpt>
<trkpt lat="40.206458" lon="9.181007"><ele>724.34</ele><time>2022-01-03T15:55:31Z</time></trkpt>
<trkpt lat="40.206399" lon="9.180725"><ele>723.22</ele><time>2022-01-03T15:55:33Z</time></trkpt>
<trkpt lat="40.206497" lon="9.179832"><ele>721.13</ele><time>2022-01-03T15:55:35Z</time></trkpt>
<trkpt lat="40.206473" lon="9.179639"><ele>719.21</ele><time>2022-01-03T15:55:37Z</time></trkpt>
<trkpt lat="40.206359" lon="9.179235"><ele>714.68</ele><time>2022-01-03T15:55:39Z</time></trkpt>
<trkpt lat="40.206358" lon="9.178169"><ele>715.14</ele><time>2022-01-03T15:55:41Z</time></trkpt>
<trkpt lat="40.206497" lon="9.177335"><ele>714.36</ele><time>2022-01-03T15:55:43Z</time></trkpt>
<trkpt lat="40.206413" lon="9.177077"><ele>712.32</ele><time>2022-01-03T15:55:45Z</time></trkpt>
<trkpt lat="40.206314" lon="9.176049"><ele>709.52</ele><time>2022-01-03T15:55:47Z</time></trkpt>
<trkpt lat="40.206419" lon="9.175308"><ele>705.49</ele><time>2022-01-03T15:55:48Z</time></trkpt>
<trkpt lat="40.206489" lon="9.175105"><ele>704.92</ele><time>2022-01-03T15:55:50Z</time></trkpt>
<trkpt lat="40.206846" lon="9.1744"><ele>700.02</ele><time>2022-01-03T15:55:52Z</time></trkpt>
<trkpt lat="40.20695" lon="9.17429"><ele>699.78</ele><time>2022-01-03T15:55:53Z</time></trkpt>
<trkpt lat="40.207356" lon="9.174038"><ele>701.42</ele><time>2022-01-03T15:55:55Z</time></trkpt>
<trkpt lat="40.207455" lon="9.173934"><ele>700.35</ele><time>2022-01-03T15:55:57Z</time></trkpt>
<trkpt lat="40.207702" lon="9.173604"><ele>694.57</ele><time>2022-01-03T15:55:58Z</time></trkpt>
<trkpt lat="40.207842" lon="9.173495"><ele>693.2</ele><time>2022-01-03T15:56:00Z</time></trkpt>
<trkpt lat="40.208583" lon="9.173103"><ele>692.55</ele><time>2022-01-03T15:56:02Z</time></trkpt>
<trkpt lat="40.208748" lon="9.173044"><ele>691.73</ele><time>2022-01-03T15:56:03Z</time></trkpt>
<trkpt lat="40.20915" lon="9.172991"><ele>688.5</ele><time>2022-01-03T15:56:05Z</time></trkpt>
<trkpt lat="40.209356" lon="9.172929"><ele>685.83</ele><time>2022-01-03T15:56:07Z</time></trkpt>
<trkpt lat="40.209968" lon="9.172665"><ele>676.86</ele><time>2022-01-03T15:56:08Z</time></trkpt>
<trkpt lat="40.210301" lon="9.17258"><ele>676.95</ele><time>2022-01-03T15:56:10Z</time></trkpt>
<trkpt lat="40.210431" lon="9.172593"><ele>677.7</ele><time>2022-01-03T15:56:12Z</time></trkpt>
<trkpt lat="40.210787" lon="9.172705"><ele>679.8</ele><time>2022-01-03T15:56:14Z</time></trkpt>
<trkpt lat="40.211032" lon="9.172745"><ele>679.41</ele><time>2022-01-03T15:56:15Z</time></trkpt>
<trkpt lat="40.211704" lon="9.172664"><ele>675.25</ele><time>2022-01-03T15:56:17Z</time></trkpt>
<trkpt lat="40.211898" lon="9.17268"><ele>673.15</ele><time>2022-01-03T15:56:19Z</time></trkpt>
<trkpt lat="40.212274" lon="9.172818"><ele>670.09</ele><time>2022-01-03T15:56:20Z</time></trkpt>
<trkpt lat="40.212705" lon="9.173097"><ele>668.8</ele><time>2022-01-03T15:56:22Z</time></trkpt>
<trkpt lat="40.212825" lon="9.173147"><ele>668.2</ele><time>2022-01-03T15:56:24Z</time></trkpt>
<trkpt lat="40.212942" lon="9.173163"><ele>667.29</ele><time>2022-01-03T15:56:25Z</time></trkpt>
<trkpt lat="40.213058" lon="9.173152"><ele>666.04</ele><time>2022-01-03T15:56:27Z</time></trkpt>
<trkpt lat="40.21318" lon="9.173102"><ele>665.5</ele><time>2022-01-03T15:56:29Z</time></trkpt>
<trkpt lat="40.213619" lon="9.172739"><ele>663.07</ele><time>2022-01-03T15:56:30Z</time></trkpt>
<trkpt lat="40.213721" lon="9.172713"><ele>661.24</ele><time>2022-01-03T15:56:32Z</time></trkpt>
<trkpt lat="40.213821" lon="9.172731"><ele>660.47</ele><time>2022-01-03T15:56:34Z</time></trkpt>
<trkpt lat="40.214573" lon="9.173189"><ele>655.9</ele><time>2022-01-03T15:56:35Z</time></trkpt>
<trkpt lat="40.214729" lon="9.173325"><ele>654.68</ele><time>2022-01-03T15:56:37Z</time></trkpt>
<trkpt lat="40.214794" lon="9.173458"><ele>654.87</ele><time>2022-01-03T15:56:39Z</time></trkpt>
<trkpt lat="40.214813" lon="9.173928"><ele>658.9</ele><time>2022-01-03T15:56:40Z</time></trkpt>
<trkpt lat="40.214861" lon="9.174143"><ele>658.88</ele><time>2022-01-03T15:56:42Z</time></trkpt>
<trkpt lat="40.21494" lon="9.174355"><ele>658.8</ele><time>2022-01-03T15:56:44Z</time></trkpt>
<trkpt lat="40.214995" lon="9.174305"><ele>657.11</ele><time>2022-01-03T15:56:45Z</time></trkpt>
<trkpt lat="40.215006" lon="9.174235"><ele>656.47</ele><time>2022-01-03T15:56:47Z</time></trkpt>
<trkpt lat="40.21494" lon="9.173991"><ele>656.16</ele><time>2022-01-03T15:56:48Z</time></trkpt>
<trkpt lat="40.214909" lon="9.173794"><ele>655.38</ele><time>2022-01-03T15:56:49Z</time></trkpt>
<trkpt lat="40.214963" lon="9.173491"><ele>650.71</ele><time>2022-01-03T15:56:51Z</time></trkpt>
<trkpt lat="40.214983" lon="9.173182"><ele>646.73</ele><time>2022-01-03T15:56:52Z</time></trkpt>
<trkpt lat="40.21493" lon="9.173015"><ele>645.75</ele><time>2022-01-03T15:56:53Z</time></trkpt>
<trkpt lat="40.213471" lon="9.171657"><ele>637.37</ele><time>2022-01-03T15:56:55Z</time></trkpt>
<trkpt lat="40.213286" lon="9.171445"><ele>635.35</ele><time>2022-01-03T15:56:56Z</time></trkpt>
<trkpt lat="40.213129" lon="9.171171"><ele>633.43</ele><time>2022-01-03T15:56:57Z</time></trkpt>
<trkpt lat="40.212967" lon="9.170707"><ele>634.65</ele><time>2022-01-03T15:56:59Z</time></trkpt>
<trkpt lat="40.212853" lon="9.16975"><ele>641.06</ele><time>2022-01-03T15:57:00Z</time></trkpt>
<trkpt lat="40.212745" lon="9.169423"><ele>640.31</ele><time>2022-01-03T15:57:01Z</time></trkpt>
<trkpt lat="40.212597" lon="9.169097"><ele>640.43</ele><time>2022-01-03T15:57:03Z</time></trkpt>
<trkpt lat="40.211884" lon="9.168125"><ele>647.97</ele><time>2022-01-03T15:57:04Z</time></trkpt>
<trkpt lat="40.211791" lon="9.167961"><ele>650.76</ele><time>2022-01-03T15:57:05Z</time></trkpt>
<trkpt lat="40.211707" lon="9.167744"><ele>653.86</ele><time>2022-01-03T15:57:07Z</time></trkpt>
<trkpt lat="40.211677" lon="9.167323"><ele>656.57</ele><time>2022-01-03T15:57:08Z</time></trkpt>
<trkpt lat="40.211705" lon="9.166529"><ele>661.89</ele><time>2022-01-03T15:57:09Z</time></trkpt>
<trkpt lat="40.211592" lon="9.164165"><ele>672.27</ele><time>2022-01-03T15:57:11Z</time></trkpt>
<trkpt lat="40.21148" lon="9.163789"><ele>671.6</ele><time>2022-01-03T15:57:12Z</time></trkpt>
<trkpt lat="40.211237" lon="9.163275"><ele>672.93</ele><time>2022-01-03T15:57:13Z</time></trkpt>
<trkpt lat="40.211188" lon="9.163092"><ele>674.7</ele><time>2022-01-03T15:57:15Z</time></trkpt>
<trkpt lat="40.211199" lon="9.162923"><ele>675.1</ele><time>2022-01-03T15:57:16Z</time></trkpt>
<trkpt lat="40.211257" lon="9.162755"><ele>673.94</ele><time>2022-01-03T15:57:18Z</time></trkpt>
<trkpt lat="40.211443" lon="9.162405"><ele>672.09</ele><time>2022-01-03T15:57:19Z</time></trkpt>
<trkpt lat="40.211486" lon="9.162259"><ele>672.68</ele><time>2022-01-03T15:57:20Z</time></trkpt>
<trkpt lat="40.211517" lon="9.16204"><ele>672.16</ele><time>2022-01-03T15:57:22Z</time></trkpt>
<trkpt lat="40.211491" lon="9.161791"><ele>672.71</ele><time>2022-01-03T15:57:23Z</time></trkpt>
<trkpt lat="40.211352" lon="9.161364"><ele>671.64</ele><time>2022-01-03T15:57:24Z</time></trkpt>
<trkpt lat="40.210944" lon="9.160707"><ele>674.85</ele><time>2022-01-03T15:57:26Z</time></trkpt>
<trkpt lat="40.21043" lon="9.158429"><ele>679.14</ele><time>2022-01-03T15:57:27Z</time></trkpt>
<trkpt lat="40.21035" lon="9.158271"><ele>679.6</ele><time>2022-01-03T15:57:28Z</time></trkpt>
<trkpt lat="40.210122" lon="9.157963"><ele>682.78</ele><time>2022-01-03T15:57:30Z</time></trkpt>
<trkpt lat="40.210034" lon="9.157812"><ele>684.91</ele><time>2022-01-03T15:57:31Z</time></trkpt>
<trkpt lat="40.209902" lon="9.157434"><ele>683.24</ele><time>2022-01-03T15:57:32Z</time></trkpt>
<trkpt lat="40.209705" lon="9.157177"><ele>683.02</ele><time>2022-01-03T15:57:34Z</time></trkpt>
<trkpt lat="40.209524" lon="9.157042"><ele>685.05</ele><time>2022-01-03T15:57:35Z</time></trkpt>
<trkpt lat="40.209471" lon="9.156978"><ele>685.08</ele><time>2022-01-03T15:57:36Z</time></trkpt>
<trkpt lat="40.209431" lon="9.156882"><ele>684.94</ele><time>2022-01-03T15:57:38Z</time></trkpt>
<trkpt lat="40.209409" lon="9.156719"><ele>684.29</ele><time>2022-01-03T15:57:39Z</time></trkpt>
<trkpt lat="40.209512" lon="9.156441"><ele>683.32</ele><time>2022-01-03T15:57:40Z</time></trkpt>
<trkpt lat="40.209536" lon="9.156329"><ele>683.05</ele><time>2022-01-03T15:57:42Z</time></trkpt>
<trkpt lat="40.209529" lon="9.156199"><ele>682.49</ele><time>2022-01-03T15:57:43Z</time></trkpt>
<trkpt lat="40.209482" lon="9.156068"><ele>682.11</ele><time>2022-01-03T15:57:44Z</time></trkpt>
<trkpt lat="40.209414" lon="9.15595"><ele>681.59</ele><time>2022-01-03T15:57:46Z</time></trkpt>
<trkpt lat="40.209143" lon="9.155719"><ele>681.03</ele><time>2022-01-03T15:57:47Z</time></trkpt>
<trkpt lat="40.208948" lon="9.155524"><ele>677.84</ele><time>2022-01-03T15:57:48Z</time></trkpt>
<trkpt lat="40.208751" lon="9.155411"><ele>675.34</ele><time>2022-01-03T15:57:50Z</time></trkpt>
<trkpt lat="40.208315" lon="9.155302"><ele>673.97</ele><time>2022-01-03T15:57:51Z</time></trkpt>
<trkpt lat="40.208193" lon="9.15524"><ele>673.34</ele><time>2022-01-03T15:57:53Z</time></trkpt>
<trkpt lat="40.207913" lon="9.155032"><ele>670.53</ele><time>2022-01-03T15:57:54Z</time></trkpt>
<trkpt lat="40.207752" lon="9.154955"><ele>669.74</ele><time>2022-01-03T15:57:55Z</time></trkpt>
<trkpt lat="40.207569" lon="9.154908"><ele>668.1</ele><time>2022-01-03T15:57:57Z</time></trkpt>
<trkpt lat="40.207022" lon="9.154929"><ele>664.14</ele><time>2022-01-03T15:57:58Z</time></trkpt>
<trkpt lat="40.206644" lon="9.154905"><ele>658.7</ele><time>2022-01-03T15:57:59Z</time></trkpt>
<trkpt lat="40.206239" lon="9.155026"><ele>659.39</ele><time>2022-01-03T15:58:01Z</time></trkpt>
<trkpt lat="40.205724" lon="9.155053"><ele>656.64</ele><time>2022-01-03T15:58:02Z</time></trkpt>
<trkpt lat="40.205586" lon="9.155041"><ele>656.42</ele><time>2022-01-03T15:58:03Z</time></trkpt>
<trkpt lat="40.205477" lon="9.155003"><ele>656.78</ele><time>2022-01-03T15:58:05Z</time></trkpt>
<trkpt lat="40.205387" lon="9.154943"><ele>657.01</ele><time>2022-01-03T15:58:06Z</time></trkpt>
<trkpt lat="40.205276" lon="9.154813"><ele>655.71</ele><time>2022-01-03T15:58:07Z</time></trkpt>
<trkpt lat="40.205204" lon="9.154682"><ele>656.26</ele><time>2022-01-03T15:58:09Z</time></trkpt>
<trkpt lat="40.205145" lon="9.154499"><ele>654.68</ele><time>2022-01-03T15:58:10Z</time></trkpt>
<trkpt lat="40.205099" lon="9.154069"><ele>647.17</ele><time>2022-01-03T15:58:11Z</time></trkpt>
<trkpt lat="40.205067" lon="9.1539"><ele>644.35</ele><time>2022-01-03T15:58:13Z</time></trkpt>
<trkpt lat="40.204997" lon="9.153775"><ele>643.24</ele><time>2022-01-03T15:58:14Z</time></trkpt>
<trkpt lat="40.204902" lon="9.153663"><ele>642.98</ele><time>2022-01-03T15:58:15Z</time></trkpt>
<trkpt lat="40.20475" lon="9.153538"><ele>642.76</ele><time>2022-01-03T15:58:17Z</time></trkpt>
<trkpt lat="40.204657" lon="9.153503"><ele>642.24</ele><time>2022-01-03T15:58:18Z</time></trkpt>
<trkpt lat="40.204345" lon="9.153512"><ele>642.84</ele><time>2022-01-03T15:58:19Z</time></trkpt>
<trkpt lat="40.203954" lon="9.15337"><ele>638.07</ele><time>2022-01-03T15:58:21Z</time></trkpt>
<trkpt lat="40.203834" lon="9.153361"><ele>637.3</ele><time>2022-01-03T15:58:22Z</time></trkpt>
<trkpt lat="40.203742" lon="9.153376"><ele>636.53</ele><time>2022-01-03T15:58:23Z</time></trkpt>
<trkpt lat="40.203326" lon="9.153654"><ele>634.16</ele><time>2022-01-03T15:58:25Z</time></trkpt>
<trkpt lat="40.203204" lon="9.153707"><ele>634.85</ele><time>2022-01-03T15:58:26Z</time></trkpt>
<trkpt lat="40.203061" lon="9.153743"><ele>635.24</ele><time>2022-01-03T15:58:28Z</time></trkpt>
<trkpt lat="40.202932" lon="9.153746"><ele>634.89</ele><time>2022-01-03T15:58:29Z</time></trkpt>
<trkpt lat="40.202785" lon="9.153713"><ele>633.07</ele><time>2022-01-03T15:58:30Z</time></trkpt>
<trkpt lat="40.202536" lon="9.153601"><ele>631.27</ele><time>2022-01-03T15:58:32Z</time></trkpt>
<trkpt lat="40.202342" lon="9.153488"><ele>631.24</ele><time>2022-01-03T15:58:33Z</time></trkpt>
<trkpt lat="40.202189" lon="9.153347"><ele>629.14</ele><time>2022-01-03T15:58:34Z</time></trkpt>
<trkpt lat="40.201931" lon="9.153006"><ele>628.95</ele><time>2022-01-03T15:58:36Z</time></trkpt>
<trkpt lat="40.201872" lon="9.15289"><ele>627.78</ele><time>2022-01-03T15:58:37Z</time></trkpt>
<trkpt lat="40.201822" lon="9.15265"><ele>622.58</ele><time>2022-01-03T15:58:38Z</time></trkpt>
<trkpt lat="40.20177" lon="9.152474"><ele>619.9</ele><time>2022-01-03T15:58:40Z</time></trkpt>
<trkpt lat="40.201471" lon="9.151818"><ele>617.75</ele><time>2022-01-03T15:58:41Z</time></trkpt>
<trkpt lat="40.201436" lon="9.151684"><ele>617.98</ele><time>2022-01-03T15:58:42Z</time></trkpt>
<trkpt lat="40.201424" lon="9.151408"><ele>613.57</ele><time>2022-01-03T15:58:44Z</time></trkpt>
<trkpt lat="40.201447" lon="9.15122"><ele>611.96</ele><time>2022-01-03T15:58:45Z</time></trkpt>
<trkpt lat="40.20145" lon="9.150979"><ele>611.71</ele><time>2022-01-03T15:58:46Z</time></trkpt>
<trkpt lat="40.201429" lon="9.150791"><ele>612.26</ele><time>2022-01-03T15:58:48Z</time></trkpt>
<trkpt lat="40.201319" lon="9.150445"><ele>610.88</ele><time>2022-01-03T15:58:49Z</time></trkpt>
<trkpt lat="40.201173" lon="9.150077"><ele>608.27</ele><time>2022-01-03T15:58:50Z</time></trkpt>
<trkpt lat="40.200997" lon="9.14929"><ele>600.08</ele><time>2022-01-03T15:58:52Z</time></trkpt>
<trkpt lat="40.200961" lon="9.149176"><ele>599.07</ele><time>2022-01-03T15:58:53Z</time></trkpt>
<trkpt lat="40.200866" lon="9.149011"><ele>596.96</ele><time>2022-01-03T15:58:54Z</time></trkpt>
<trkpt lat="40.200228" lon="9.148115"><ele>593.24</ele><time>2022-01-03T15:58:56Z</time></trkpt>
<trkpt lat="40.200089" lon="9.147876"><ele>590.52</ele><time>2022-01-03T15:58:57Z</time></trkpt>
<trkpt lat="40.199972" lon="9.147562"><ele>584.1</ele><time>2022-01-03T15:58:58Z</time></trkpt>
<trkpt lat="40.19987" lon="9.147339"><ele>582.42</ele><time>2022-01-03T15:59:00Z</time></trkpt>
<trkpt lat="40.199624" lon="9.147025"><ele>582.06</ele><time>2022-01-03T15:59:01Z</time></trkpt>
<trkpt lat="40.199538" lon="9.146948"><ele>582.07</ele><time>2022-01-03T15:59:03Z</time></trkpt>
<trkpt lat="40.199454" lon="9.146906"><ele>582.29</ele><time>2022-01-03T15:59:04Z</time></trkpt>
<trkpt lat="40.199267" lon="9.146865"><ele>580.84</ele><time>2022-01-03T15:59:05Z</time></trkpt>
<trkpt lat="40.198929" lon="9.146962"><ele>582.14</ele><time>2022-01-03T15:59:07Z</time></trkpt>
<trkpt lat="40.198844" lon="9.146973"><ele>582.27</ele><time>2022-01-03T15:59:08Z</time></trkpt>
<trkpt lat="40.198702" lon="9.146956"><ele>582.12</ele><time>2022-01-03T15:59:09Z</time></trkpt>
<trkpt lat="40.198413" lon="9.146777"><ele>576.55</ele><time>2022-01-03T15:59:11Z</time></trkpt>
<trkpt lat="40.198256" lon="9.146715"><ele>573.77</ele><time>2022-01-03T15:59:12Z</time></trkpt>
<trkpt lat="40.197917" lon="9.146661"><ele>570.28</ele><time>2022-01-03T15:59:13Z</time></trkpt>
<trkpt lat="40.197764" lon="9.146672"><ele>570.02</ele><time>2022-01-03T15:59:15Z</time></trkpt>
<trkpt lat="40.197511" lon="9.146797"><ele>572.27</ele><time>2022-01-03T15:59:16Z</time></trkpt>
<trkpt lat="40.197356" lon="9.146843"><ele>573.33</ele><time>2022-01-03T15:59:17Z</time></trkpt>
<trkpt lat="40.196636" lon="9.14668"><ele>566.01</ele><time>2022-01-03T15:59:19Z</time></trkpt>
<trkpt lat="40.196473" lon="9.146581"><ele>566.03</ele><time>2022-01-03T15:59:20Z</time></trkpt>
<trkpt lat="40.196411" lon="9.146502"><ele>564.85</ele><time>2022-01-03T15:59:21Z</time></trkpt>
<trkpt lat="40.195966" lon="9.145727"><ele>556.82</ele><time>2022-01-03T15:59:23Z</time></trkpt>
<trkpt lat="40.195757" lon="9.145487"><ele>554.71</ele><time>2022-01-03T15:59:24Z</time></trkpt>
<trkpt lat="40.19568" lon="9.145445"><ele>553.1</ele><time>2022-01-03T15:59:25Z</time></trkpt>
<trkpt lat="40.195517" lon="9.145428"><ele>551.23</ele><time>2022-01-03T15:59:27Z</time></trkpt>
<trkpt lat="40.195409" lon="9.145451"><ele>550.26</ele><time>2022-01-03T15:59:28Z</time></trkpt>
<trkpt lat="40.195131" lon="9.145567"><ele>550.17</ele><time>2022-01-03T15:59:29Z</time></trkpt>
<trkpt lat="40.195006" lon="9.145592"><ele>549.7</ele><time>2022-01-03T15:59:31Z</time></trkpt>
<trkpt lat="40.194903" lon="9.145575"><ele>548.96</ele><time>2022-01-03T15:59:32Z</time></trkpt>
<trkpt lat="40.194808" lon="9.145516"><ele>547.75</ele><time>2022-01-03T15:59:33Z</time></trkpt>
<trkpt lat="40.194708" lon="9.145398"><ele>546.33</ele><time>2022-01-03T15:59:35Z</time></trkpt>
<trkpt lat="40.194059" lon="9.144042"><ele>535.1</ele><time>2022-01-03T15:59:36Z</time></trkpt>
<trkpt lat="40.19398" lon="9.143808"><ele>532.38</ele><time>2022-01-03T15:59:38Z</time></trkpt>
<trkpt lat="40.193767" lon="9.14302"><ele>528.35</ele><time>2022-01-03T15:59:39Z</time></trkpt>
<trkpt lat="40.193729" lon="9.142822"><ele>526.45</ele><time>2022-01-03T15:59:40Z</time></trkpt>
<trkpt lat="40.193722" lon="9.142683"><ele>524.56</ele><time>2022-01-03T15:59:42Z</time></trkpt>
<trkpt lat="40.193745" lon="9.142431"><ele>520.65</ele><time>2022-01-03T15:59:43Z</time></trkpt>
<trkpt lat="40.193731" lon="9.142307"><ele>520.15</ele><time>2022-01-03T15:59:44Z</time></trkpt>
<trkpt lat="40.193682" lon="9.142167"><ele>520.58</ele><time>2022-01-03T15:59:46Z</time></trkpt>
<trkpt lat="40.193263" lon="9.141451"><ele>520.74</ele><time>2022-01-03T15:59:47Z</time></trkpt>
<trkpt lat="40.193033" lon="9.140871"><ele>520.66</ele><time>2022-01-03T15:59:48Z</time></trkpt>
<trkpt lat="40.19294" lon="9.140708"><ele>518.2</ele><time>2022-01-03T15:59:50Z</time></trkpt>
<trkpt lat="40.192551" lon="9.140251"><ele>516.01</ele><time>2022-01-03T15:59:51Z</time></trkpt>
<trkpt lat="40.192486" lon="9.140026"><ele>515.49</ele><time>2022-01-03T15:59:52Z</time></trkpt>
<trkpt lat="40.19247" lon="9.139414"><ele>510.67</ele><time>2022-01-03T15:59:54Z</time></trkpt>
<trkpt lat="40.192436" lon="9.139206"><ele>509.69</ele><time>2022-01-03T15:59:55Z</time></trkpt>
<trkpt lat="40.192332" lon="9.138839"><ele>507.53</ele><time>2022-01-03T15:59:56Z</time></trkpt>
<trkpt lat="40.192178" lon="9.13851"><ele>506.5</ele><time>2022-01-03T15:59:58Z</time></trkpt>
<trkpt lat="40.192058" lon="9.138323"><ele>504.21</ele><time>2022-01-03T15:59:59Z</time></trkpt>
<trkpt lat="40.19188" lon="9.13816"><ele>502.87</ele><time>2022-01-03T16:00:00Z</time></trkpt>
<trkpt lat="40.191742" lon="9.138084"><ele>502.65</ele><time>2022-01-03T16:00:02Z</time></trkpt>
<trkpt lat="40.191552" lon="9.137885"><ele>502.04</ele><time>2022-01-03T16:00:03Z</time></trkpt>
<trkpt lat="40.191251" lon="9.13732"><ele>493.61</ele><time>2022-01-03T16:00:04Z</time></trkpt>
<trkpt lat="40.191185" lon="9.137231"><ele>492.61</ele><time>2022-01-03T16:00:06Z</time></trkpt>
<trkpt lat="40.191108" lon="9.137178"><ele>493.01</ele><time>2022-01-03T16:00:07Z</time></trkpt>
<trkpt lat="40.191027" lon="9.137166"><ele>491.99</ele><time>2022-01-03T16:00:08Z</time></trkpt>
<trkpt lat="40.190943" lon="9.137213"><ele>492.03</ele><time>2022-01-03T16:00:10Z</time></trkpt>
<trkpt lat="40.190835" lon="9.137334"><ele>492.64</ele><time>2022-01-03T16:00:11Z</time></trkpt>
<trkpt lat="40.190509" lon="9.137974"><ele>488.49</ele><time>2022-01-03T16:00:13Z</time></trkpt>
<trkpt lat="40.190471" lon="9.138104"><ele>487.14</ele><time>2022-01-03T16:00:14Z</time></trkpt>
<trkpt lat="40.190459" lon="9.138202"><ele>486.52</ele><time>2022-01-03T16:00:15Z</time></trkpt>
<trkpt lat="40.190468" lon="9.138365"><ele>486.36</ele><time>2022-01-03T16:00:17Z</time></trkpt>
<trkpt lat="40.190581" lon="9.138904"><ele>486.98</ele><time>2022-01-03T16:00:18Z</time></trkpt>
<trkpt lat="40.190604" lon="9.139081"><ele>487.35</ele><time>2022-01-03T16:00:19Z</time></trkpt>
<trkpt lat="40.190604" lon="9.1392"><ele>486.96</ele><time>2022-01-03T16:00:21Z</time></trkpt>
<trkpt lat="40.190552" lon="9.139531"><ele>483.54</ele><time>2022-01-03T16:00:22Z</time></trkpt>
<trkpt lat="40.190498" lon="9.139718"><ele>480.52</ele><time>2022-01-03T16:00:23Z</time></trkpt>
<trkpt lat="40.190444" lon="9.139987"><ele>478.16</ele><time>2022-01-03T16:00:25Z</time></trkpt>
<trkpt lat="40.190417" lon="9.140244"><ele>478.34</ele><time>2022-01-03T16:00:26Z</time></trkpt>
<trkpt lat="40.190342" lon="9.141552"><ele>474.66</ele><time>2022-01-03T16:00:27Z</time></trkpt>
<trkpt lat="40.190312" lon="9.141688"><ele>474.71</ele><time>2022-01-03T16:00:29Z</time></trkpt>
<trkpt lat="40.190224" lon="9.141818"><ele>473.45</ele><time>2022-01-03T16:00:30Z</time></trkpt>
<trkpt lat="40.190144" lon="9.141868"><ele>472.99</ele><time>2022-01-03T16:00:31Z</time></trkpt>
<trkpt lat="40.190045" lon="9.141879"><ele>472.36</ele><time>2022-01-03T16:00:33Z</time></trkpt>
<trkpt lat="40.189973" lon="9.141853"><ele>471.76</ele><time>2022-01-03T16:00:34Z</time></trkpt>
<trkpt lat="40.18956" lon="9.141477"><ele>464.0</ele><time>2022-01-03T16:00:35Z</time></trkpt>
<trkpt lat="40.189397" lon="9.141399"><ele>460.99</ele><time>2022-01-03T16:00:37Z</time></trkpt>
<trkpt lat="40.189264" lon="9.141397"><ele>459.95</ele><time>2022-01-03T16:00:38Z</time></trkpt>
<trkpt lat="40.18877" lon="9.141535"><ele>455.73</ele><time>2022-01-03T16:00:39Z</time></trkpt>
<trkpt lat="40.188692" lon="9.141581"><ele>455.24</ele><time>2022-01-03T16:00:41Z</time></trkpt>
<trkpt lat="40.188613" lon="9.141684"><ele>455.11</ele><time>2022-01-03T16:00:42Z</time></trkpt>
<trkpt lat="40.188567" lon="9.14181"><ele>455.04</ele><time>2022-01-03T16:00:43Z</time></trkpt>
<trkpt lat="40.188573" lon="9.142023"><ele>454.78</ele><time>2022-01-03T16:00:45Z</time></trkpt>
<trkpt lat="40.188816" lon="9.142576"><ele>454.49</ele><time>2022-01-03T16:00:46Z</time></trkpt>
<trkpt lat="40.188831" lon="9.142691"><ele>454.41</ele><time>2022-01-03T16:00:48Z</time></trkpt>
<trkpt lat="40.188824" lon="9.142785"><ele>454.11</ele><time>2022-01-03T16:00:49Z</time></trkpt>
<trkpt lat="40.188781" lon="9.142886"><ele>454.14</ele><time>2022-01-03T16:00:50Z</time></trkpt>
<trkpt lat="40.188706" lon="9.142969"><ele>453.96</ele><time>2022-01-03T16:00:52Z</time></trkpt>
<trkpt lat="40.188135" lon="9.14338"><ele>445.89</ele><time>2022-01-03T16:00:53Z</time></trkpt>
<trkpt lat="40.188062" lon="9.143453"><ele>443.73</ele><time>2022-01-03T16:00:54Z</time></trkpt>
<trkpt lat="40.188009" lon="9.143564"><ele>441.79</ele><time>2022-01-03T16:00:56Z</time></trkpt>
<trkpt lat="40.187977" lon="9.14369"><ele>440.25</ele><time>2022-01-03T16:00:57Z</time></trkpt>
<trkpt lat="40.187982" lon="9.143851"><ele>439.37</ele><time>2022-01-03T16:00:58Z</time></trkpt>
<trkpt lat="40.188023" lon="9.143999"><ele>437.89</ele><time>2022-01-03T16:01:00Z</time></trkpt>
<trkpt lat="40.188114" lon="9.144163"><ele>435.93</ele><time>2022-01-03T16:01:01Z</time></trkpt>
<trkpt lat="40.188289" lon="9.144408"><ele>432.28</ele><time>2022-01-03T16:01:02Z</time></trkpt>
<trkpt lat="40.188356" lon="9.144471"><ele>431.58</ele><time>2022-01-03T16:01:04Z</time></trkpt>
<trkpt lat="40.188444" lon="9.144516"><ele>431.38</ele><time>2022-01-03T16:01:05Z</time></trkpt>
<trkpt lat="40.188615" lon="9.1445"><ele>433.58</ele><time>2022-01-03T16:01:06Z</time></trkpt>
<trkpt lat="40.188852" lon="9.144343"><ele>436.83</ele><time>2022-01-03T16:01:08Z</time></trkpt>
<trkpt lat="40.189039" lon="9.144263"><ele>437.39</ele><time>2022-01-03T16:01:09Z</time></trkpt>
<trkpt lat="40.189213" lon="9.144238"><ele>435.45</ele><time>2022-01-03T16:01:10Z</time></trkpt>
<trkpt lat="40.189931" lon="9.144349"><ele>432.96</ele><time>2022-01-03T16:01:12Z</time></trkpt>
<trkpt lat="40.190027" lon="9.144401"><ele>433.86</ele><time>2022-01-03T16:01:13Z</time></trkpt>
<trkpt lat="40.190088" lon="9.144471"><ele>433.95</ele><time>2022-01-03T16:01:14Z</time></trkpt>
<trkpt lat="40.190153" lon="9.144621"><ele>433.36</ele><time>2022-01-03T16:01:16Z</time></trkpt>
<trkpt lat="40.190161" lon="9.144745"><ele>432.31</ele><time>2022-01-03T16:01:17Z</time></trkpt>
<trkpt lat="40.190147" lon="9.144872"><ele>431.06</ele><time>2022-01-03T16:01:18Z</time></trkpt>
<trkpt lat="40.189862" lon="9.145521"><ele>428.39</ele><time>2022-01-03T16:01:20Z</time></trkpt>
<trkpt lat="40.189794" lon="9.145645"><ele>428.09</ele><time>2022-01-03T16:01:21Z</time></trkpt>
<trkpt lat="40.189678" lon="9.145789"><ele>427.34</ele><time>2022-01-03T16:01:23Z</time></trkpt>
<trkpt lat="40.189467" lon="9.145907"><ele>425.99</ele><time>2022-01-03T16:01:24Z</time></trkpt>
<trkpt lat="40.189242" lon="9.145982"><ele>425.14</ele><time>2022-01-03T16:01:25Z</time></trkpt>
<trkpt lat="40.189064" lon="9.146154"><ele>425.1</ele><time>2022-01-03T16:01:27Z</time></trkpt>
<trkpt lat="40.188984" lon="9.146306"><ele>425.2</ele><time>2022-01-03T16:01:28Z</time></trkpt>
<trkpt lat="40.188765" lon="9.146995"><ele>424.31</ele><time>2022-01-03T16:01:29Z</time></trkpt>
<trkpt lat="40.188722" lon="9.147058"><ele>424.59</ele><time>2022-01-03T16:01:31Z</time></trkpt>
<trkpt lat="40.188636" lon="9.147131"><ele>424.34</ele><time>2022-01-03T16:01:32Z</time></trkpt>
<trkpt lat="40.188354" lon="9.147263"><ele>424.04</ele><time>2022-01-03T16:01:33Z</time></trkpt>
<trkpt lat="40.188249" lon="9.147288"><ele>425.04</ele><time>2022-01-03T16:01:35Z</time></trkpt>
<trkpt lat="40.188124" lon="9.14727"><ele>425.53</ele><time>2022-01-03T16:01:36Z</time></trkpt>
<trkpt lat="40.188057" lon="9.147211"><ele>424.7</ele><time>2022-01-03T16:01:37Z</time></trkpt>
<trkpt lat="40.187554" lon="9.146448"><ele>413.68</ele><time>2022-01-03T16:01:39Z</time></trkpt>
<trkpt lat="40.187449" lon="9.146392"><ele>413.06</ele><time>2022-01-03T16:01:40Z</time></trkpt>
<trkpt lat="40.187331" lon="9.146363"><ele>412.45</ele><time>2022-01-03T16:01:41Z</time></trkpt>
<trkpt lat="40.187192" lon="9.146366"><ele>412.19</ele><time>2022-01-03T16:01:43Z</time></trkpt>
<trkpt lat="40.186959" lon="9.146498"><ele>412.53</ele><time>2022-01-03T16:01:44Z</time></trkpt>
<trkpt lat="40.18654" lon="9.146832"><ele>412.65</ele><time>2022-01-03T16:01:45Z</time></trkpt>
<trkpt lat="40.186335" lon="9.146947"><ele>411.83</ele><time>2022-01-03T16:01:47Z</time></trkpt>
<trkpt lat="40.186191" lon="9.146951"><ele>411.35</ele><time>2022-01-03T16:01:48Z</time></trkpt>
<trkpt lat="40.186115" lon="9.146912"><ele>410.55</ele><time>2022-01-03T16:01:49Z</time></trkpt>
<trkpt lat="40.186039" lon="9.146832"><ele>409.39</ele><time>2022-01-03T16:01:51Z</time></trkpt>
<trkpt lat="40.185993" lon="9.146734"><ele>407.98</ele><time>2022-01-03T16:01:52Z</time></trkpt>
<trkpt lat="40.18596" lon="9.146598"><ele>406.53</ele><time>2022-01-03T16:01:53Z</time></trkpt>
<trkpt lat="40.185923" lon="9.146327"><ele>405.06</ele><time>2022-01-03T16:01:55Z</time></trkpt>
<trkpt lat="40.185818" lon="9.145985"><ele>404.55</ele><time>2022-01-03T16:01:56Z</time></trkpt>
<trkpt lat="40.185718" lon="9.145881"><ele>403.9</ele><time>2022-01-03T16:01:58Z</time></trkpt>
<trkpt lat="40.185591" lon="9.145848"><ele>403.27</ele><time>2022-01-03T16:01:59Z</time></trkpt>
<trkpt lat="40.185468" lon="9.145874"><ele>402.5</ele><time>2022-01-03T16:02:00Z</time></trkpt>
<trkpt lat="40.185394" lon="9.145936"><ele>402.37</ele><time>2022-01-03T16:02:02Z</time></trkpt>
<trkpt lat="40.185316" lon="9.146042"><ele>402.67</ele><time>2022-01-03T16:02:03Z</time></trkpt>
<trkpt lat="40.184837" lon="9.147086"><ele>405.06</ele><time>2022-01-03T16:02:04Z</time></trkpt>
<trkpt lat="40.184757" lon="9.147222"><ele>405.37</ele><time>2022-01-03T16:02:06Z</time></trkpt>
<trkpt lat="40.184671" lon="9.147283"><ele>405.43</ele><time>2022-01-03T16:02:07Z</time></trkpt>
<trkpt lat="40.184607" lon="9.147296"><ele>405.27</ele><time>2022-01-03T16:02:08Z</time></trkpt>
<trkpt lat="40.184514" lon="9.147266"><ele>404.61</ele><time>2022-01-03T16:02:10Z</time></trkpt>
<trkpt lat="40.184431" lon="9.147172"><ele>403.7</ele><time>2022-01-03T16:02:11Z</time></trkpt>
<trkpt lat="40.184311" lon="9.146969"><ele>403.09</ele><time>2022-01-03T16:02:12Z</time></trkpt>
<trkpt lat="40.18422" lon="9.146644"><ele>402.21</ele><time>2022-01-03T16:02:14Z</time></trkpt>
<trkpt lat="40.184274" lon="9.146489"><ele>400.42</ele><time>2022-01-03T16:02:21Z</time></trkpt>
<trkpt lat="40.1843" lon="9.146167"><ele>397.92</ele><time>2022-01-03T16:02:28Z</time></trkpt>
<trkpt lat="40.184294" lon="9.145876"><ele>396.63</ele><time>2022-01-03T16:02:35Z</time></trkpt>
<trkpt lat="40.183953" lon="9.143961"><ele>379.83</ele><time>2022-01-03T16:02:42Z</time></trkpt>
<trkpt lat="40.1841" lon="9.143894"><ele>381.43</ele><time>2022-01-03T16:02:43Z</time></trkpt>
<trkpt lat="40.18419" lon="9.143806"><ele>382.83</ele><time>2022-01-03T16:02:45Z</time></trkpt>
<trkpt lat="40.184213" lon="9.143691"><ele>384.01</ele><time>2022-01-03T16:02:46Z</time></trkpt>
<trkpt lat="40.184204" lon="9.143633"><ele>384.08</ele><time>2022-01-03T16:02:48Z</time></trkpt>
<trkpt lat="40.184167" lon="9.143564"><ele>383.88</ele><time>2022-01-03T16:02:49Z</time></trkpt>
<trkpt lat="40.183909" lon="9.143225"><ele>380.82</ele><time>2022-01-03T16:02:51Z</time></trkpt>
<trkpt lat="40.183846" lon="9.143115"><ele>380.38</ele><time>2022-01-03T16:02:52Z</time></trkpt>
<trkpt lat="40.183781" lon="9.142954"><ele>380.08</ele><time>2022-01-03T16:02:54Z</time></trkpt>
<trkpt lat="40.183632" lon="9.142481"><ele>379.82</ele><time>2022-01-03T16:02:55Z</time></trkpt>
<trkpt lat="40.183424" lon="9.142048"><ele>378.04</ele><time>2022-01-03T16:02:57Z</time></trkpt>
<trkpt lat="40.183398" lon="9.141822"><ele>376.85</ele><time>2022-01-03T16:02:59Z</time></trkpt>
<trkpt lat="40.183607" lon="9.140879"><ele>374.53</ele><time>2022-01-03T16:03:00Z</time></trkpt>
<trkpt lat="40.183626" lon="9.140702"><ele>373.8</ele><time>2022-01-03T16:03:02Z</time></trkpt>
<trkpt lat="40.183625" lon="9.140385"><ele>370.8</ele><time>2022-01-03T16:03:03Z</time></trkpt>
<trkpt lat="40.183643" lon="9.140223"><ele>370.02</ele><time>2022-01-03T16:03:05Z</time></trkpt>
<trkpt lat="40.183726" lon="9.139913"><ele>370.38</ele><time>2022-01-03T16:03:06Z</time></trkpt>
<trkpt lat="40.183777" lon="9.139651"><ele>370.27</ele><time>2022-01-03T16:03:08Z</time></trkpt>
<trkpt lat="40.183783" lon="9.139485"><ele>370.23</ele><time>2022-01-03T16:03:09Z</time></trkpt>
<trkpt lat="40.18374" lon="9.13922"><ele>369.44</ele><time>2022-01-03T16:03:11Z</time></trkpt>
<trkpt lat="40.183702" lon="9.1391"><ele>368.91</ele><time>2022-01-03T16:03:13Z</time></trkpt>
<trkpt lat="40.183588" lon="9.13889"><ele>367.4</ele><time>2022-01-03T16:03:14Z</time></trkpt>
<trkpt lat="40.183447" lon="9.138697"><ele>366.34</ele><time>2022-01-03T16:03:16Z</time></trkpt>
<trkpt lat="40.183315" lon="9.138396"><ele>367.0</ele><time>2022-01-03T16:03:17Z</time></trkpt>
<trkpt lat="40.183068" lon="9.137678"><ele>361.85</ele><time>2022-01-03T16:03:19Z</time></trkpt>
<trkpt lat="40.183052" lon="9.137539"><ele>361.06</ele><time>2022-01-03T16:03:20Z</time></trkpt>
<trkpt lat="40.18307" lon="9.137312"><ele>359.86</ele><time>2022-01-03T16:03:22Z</time></trkpt>
<trkpt lat="40.183109" lon="9.137219"><ele>359.75</ele><time>2022-01-03T16:03:23Z</time></trkpt>
<trkpt lat="40.184259" lon="9.13515"><ele>356.77</ele><time>2022-01-03T16:03:25Z</time></trkpt>
<trkpt lat="40.184616" lon="9.134672"><ele>354.12</ele><time>2022-01-03T16:03:27Z</time></trkpt>
<trkpt lat="40.184768" lon="9.13451"><ele>354.64</ele><time>2022-01-03T16:03:28Z</time></trkpt>
<trkpt lat="40.184908" lon="9.134304"><ele>355.0</ele><time>2022-01-03T16:03:30Z</time></trkpt>
<trkpt lat="40.185249" lon="9.133627"><ele>355.0</ele><time>2022-01-03T16:03:31Z</time></trkpt>
<trkpt lat="40.18606" lon="9.13178"><ele>349.7</ele><time>2022-01-03T16:03:33Z</time></trkpt>
<trkpt lat="40.186099" lon="9.13155"><ele>350.33</ele><time>2022-01-03T16:03:34Z</time></trkpt>
<trkpt lat="40.186092" lon="9.131445"><ele>349.84</ele><time>2022-01-03T16:03:36Z</time></trkpt>
<trkpt lat="40.186049" lon="9.131224"><ele>348.89</ele><time>2022-01-03T16:03:37Z</time></trkpt>
<trkpt lat="40.185677" lon="9.129775"><ele>347.98</ele><time>2022-01-03T16:03:39Z</time></trkpt>
<trkpt lat="40.185544" lon="9.128806"><ele>345.92</ele><time>2022-01-03T16:03:40Z</time></trkpt>
<trkpt lat="40.185541" lon="9.128366"><ele>345.85</ele><time>2022-01-03T16:03:42Z</time></trkpt>
<trkpt lat="40.185562" lon="9.128011"><ele>343.74</ele><time>2022-01-03T16:03:44Z</time></trkpt>
<trkpt lat="40.185591" lon="9.127809"><ele>342.5</ele><time>2022-01-03T16:03:45Z</time></trkpt>
<trkpt lat="40.185674" lon="9.127533"><ele>339.83</ele><time>2022-01-03T16:03:47Z</time></trkpt>
<trkpt lat="40.185918" lon="9.126914"><ele>336.47</ele><time>2022-01-03T16:03:48Z</time></trkpt>
<trkpt lat="40.186015" lon="9.12676"><ele>336.21</ele><time>2022-01-03T16:03:50Z</time></trkpt>
<trkpt lat="40.186165" lon="9.126652"><ele>335.65</ele><time>2022-01-03T16:03:51Z</time></trkpt>
<trkpt lat="40.186253" lon="9.126634"><ele>335.14</ele><time>2022-01-03T16:03:53Z</time></trkpt>
<trkpt lat="40.186634" lon="9.12669"><ele>334.37</ele><time>2022-01-03T16:03:54Z</time></trkpt>
<trkpt lat="40.186748" lon="9.126681"><ele>334.73</ele><time>2022-01-03T16:03:56Z</time></trkpt>
<trkpt lat="40.186844" lon="9.126632"><ele>335.03</ele><time>2022-01-03T16:03:58Z</time></trkpt>
<trkpt lat="40.186973" lon="9.126487"><ele>334.78</ele><time>2022-01-03T16:03:59Z</time></trkpt>
<trkpt lat="40.187607" lon="9.12518"><ele>326.45</ele><time>2022-01-03T16:04:01Z</time></trkpt>
<trkpt lat="40.187779" lon="9.124903"><ele>325.35</ele><time>2022-01-03T16:04:02Z</time></trkpt>
<trkpt lat="40.187905" lon="9.124764"><ele>325.07</ele><time>2022-01-03T16:04:04Z</time></trkpt>
<trkpt lat="40.188062" lon="9.124649"><ele>323.51</ele><time>2022-01-03T16:04:05Z</time></trkpt>
<trkpt lat="40.188205" lon="9.124477"><ele>322.83</ele><time>2022-01-03T16:04:07Z</time></trkpt>
<trkpt lat="40.188441" lon="9.124112"><ele>321.58</ele><time>2022-01-03T16:04:08Z</time></trkpt>
<trkpt lat="40.18832" lon="9.123635"><ele>319.91</ele><time>2022-01-03T16:04:11Z</time></trkpt>
<trkpt lat="40.188166" lon="9.123176"><ele>318.42</ele><time>2022-01-03T16:04:13Z</time></trkpt>
<trkpt lat="40.187798" lon="9.122177"><ele>314.49</ele><time>2022-01-03T16:04:15Z</time></trkpt>
<trkpt lat="40.187621" lon="9.121526"><ele>311.93</ele><time>2022-01-03T16:04:17Z</time></trkpt>
<trkpt lat="40.187585" lon="9.121348"><ele>310.97</ele><time>2022-01-03T16:04:19Z</time></trkpt>
<trkpt lat="40.187449" lon="9.12001"><ele>309.24</ele><time>2022-01-03T16:04:21Z</time></trkpt>
<trkpt lat="40.187354" lon="9.119761"><ele>310.08</ele><time>2022-01-03T16:04:24Z</time></trkpt>
<trkpt lat="40.187179" lon="9.119617"><ele>309.83</ele><time>2022-01-03T16:04:26Z</time></trkpt>
<trkpt lat="40.185776" lon="9.118955"><ele>304.54</ele><time>2022-01-03T16:04:28Z</time></trkpt>
<trkpt lat="40.185633" lon="9.11886"><ele>303.73</ele><time>2022-01-03T16:04:30Z</time></trkpt>
<trkpt lat="40.185434" lon="9.118658"><ele>303.79</ele><time>2022-01-03T16:04:32Z</time></trkpt>
<trkpt lat="40.185319" lon="9.118486"><ele>303.3</ele><time>2022-01-03T16:04:34Z</time></trkpt>
<trkpt lat="40.185293" lon="9.118327"><ele>303.09</ele><time>2022-01-03T16:04:36Z</time></trkpt>
<trkpt lat="40.185296" lon="9.11816"><ele>302.51</ele><time>2022-01-03T16:04:39Z</time></trkpt>
<trkpt lat="40.185374" lon="9.11795"><ele>301.8</ele><time>2022-01-03T16:04:41Z</time></trkpt>
<trkpt lat="40.185893" lon="9.11686"><ele>297.06</ele><time>2022-01-03T16:04:43Z</time></trkpt>
<trkpt lat="40.186003" lon="9.116703"><ele>296.82</ele><time>2022-01-03T16:04:45Z</time></trkpt>
<trkpt lat="40.186109" lon="9.116594"><ele>296.73</ele><time>2022-01-03T16:04:47Z</time></trkpt>
<trkpt lat="40.186646" lon="9.116167"><ele>296.0</ele><time>2022-01-03T16:04:49Z</time></trkpt>
<trkpt lat="40.186819" lon="9.11593"><ele>296.26</ele><time>2022-01-03T16:04:52Z</time></trkpt>
<trkpt lat="40.187315" lon="9.11507"><ele>296.09</ele><time>2022-01-03T16:04:54Z</time></trkpt>
<trkpt lat="40.187398" lon="9.114835"><ele>294.45</ele><time>2022-01-03T16:04:56Z</time></trkpt>
<trkpt lat="40.187443" lon="9.114618"><ele>294.09</ele><time>2022-01-03T16:04:58Z</time></trkpt>
<trkpt lat="40.187445" lon="9.114383"><ele>294.64</ele><time>2022-01-03T16:05:00Z</time></trkpt>
<trkpt lat="40.187373" lon="9.113579"><ele>294.51</ele><time>2022-01-03T16:05:02Z</time></trkpt>
<trkpt lat="40.187321" lon="9.113345"><ele>295.26</ele><time>2022-01-03T16:05:05Z</time></trkpt>
<trkpt lat="40.187113" lon="9.112932"><ele>298.38</ele><time>2022-01-03T16:05:07Z</time></trkpt>
<trkpt lat="40.186726" lon="9.11239"><ele>298.61</ele><time>2022-01-03T16:05:09Z</time></trkpt>
<trkpt lat="40.186394" lon="9.111984"><ele>299.86</ele><time>2022-01-03T16:05:11Z</time></trkpt>
<trkpt lat="40.185957" lon="9.111572"><ele>301.15</ele><time>2022-01-03T16:05:13Z</time></trkpt>
<trkpt lat="40.185527" lon="9.111327"><ele>302.14</ele><time>2022-01-03T16:05:15Z</time></trkpt>
<trkpt lat="40.185092" lon="9.111159"><ele>303.09</ele><time>2022-01-03T16:05:17Z</time></trkpt>
<trkpt lat="40.18439" lon="9.111005"><ele>308.54</ele><time>2022-01-03T16:05:20Z</time></trkpt>
<trkpt lat="40.184153" lon="9.110919"><ele>311.05</ele><time>2022-01-03T16:05:22Z</time></trkpt>
<trkpt lat="40.183901" lon="9.11075"><ele>311.66</ele><time>2022-01-03T16:05:24Z</time></trkpt>
<trkpt lat="40.183129" lon="9.110095"><ele>312.99</ele><time>2022-01-03T16:05:26Z</time></trkpt>
<trkpt lat="40.182967" lon="9.109939"><ele>312.99</ele><time>2022-01-03T16:05:28Z</time></trkpt>
<trkpt lat="40.182829" lon="9.109582"><ele>314.15</ele><time>2022-01-03T16:05:30Z</time></trkpt>
<trkpt lat="40.182728" lon="9.108894"><ele>316.08</ele><time>2022-01-03T16:05:33Z</time></trkpt>
<trkpt lat="40.182755" lon="9.108654"><ele>315.81</ele><time>2022-01-03T16:05:35Z</time></trkpt>
<trkpt lat="40.182827" lon="9.108509"><ele>316.1</ele><time>2022-01-03T16:05:37Z</time></trkpt>
<trkpt lat="40.183142" lon="9.108169"><ele>317.16</ele><time>2022-01-03T16:05:39Z</time></trkpt>
<trkpt lat="40.183248" lon="9.108077"><ele>317.51</ele><time>2022-01-03T16:05:41Z</time></trkpt>
<trkpt lat="40.183323" lon="9.107976"><ele>317.36</ele><time>2022-01-03T16:05:43Z</time></trkpt>
<trkpt lat="40.183395" lon="9.107772"><ele>316.66</ele><time>2022-01-03T16:05:46Z</time></trkpt>
<trkpt lat="40.183413" lon="9.107535"><ele>316.61</ele><time>2022-01-03T16:05:48Z</time></trkpt>
<trkpt lat="40.183411" lon="9.106015"><ele>321.74</ele><time>2022-01-03T16:05:50Z</time></trkpt>
<trkpt lat="40.183433" lon="9.1058"><ele>321.28</ele><time>2022-01-03T16:05:52Z</time></trkpt>
<trkpt lat="40.18356" lon="9.105335"><ele>317.86</ele><time>2022-01-03T16:05:54Z</time></trkpt>
<trkpt lat="40.183696" lon="9.105027"><ele>316.8</ele><time>2022-01-03T16:05:56Z</time></trkpt>
<trkpt lat="40.183988" lon="9.104619"><ele>317.36</ele><time>2022-01-03T16:05:58Z</time></trkpt>
<trkpt lat="40.184148" lon="9.104319"><ele>317.45</ele><time>2022-01-03T16:06:01Z</time></trkpt>
<trkpt lat="40.184186" lon="9.104094"><ele>316.88</ele><time>2022-01-03T16:06:03Z</time></trkpt>
<trkpt lat="40.184197" lon="9.103775"><ele>315.86</ele><time>2022-01-03T16:06:05Z</time></trkpt>
<trkpt lat="40.184142" lon="9.100903"><ele>318.66</ele><time>2022-01-03T16:06:07Z</time></trkpt>
<trkpt lat="40.184029" lon="9.099263"><ele>314.03</ele><time>2022-01-03T16:06:09Z</time></trkpt>
<trkpt lat="40.183963" lon="9.098949"><ele>312.8</ele><time>2022-01-03T16:06:11Z</time></trkpt>
<trkpt lat="40.183785" lon="9.098321"><ele>310.57</ele><time>2022-01-03T16:06:14Z</time></trkpt>
<trkpt lat="40.183676" lon="9.097824"><ele>309.98</ele><time>2022-01-03T16:06:16Z</time></trkpt>
<trkpt lat="40.18344" lon="9.09652"><ele>306.86</ele><time>2022-01-03T16:06:18Z</time></trkpt>
<trkpt lat="40.183414" lon="9.0963"><ele>305.97</ele><time>2022-01-03T16:06:20Z</time></trkpt>
<trkpt lat="40.183434" lon="9.096081"><ele>305.18</ele><time>2022-01-03T16:06:22Z</time></trkpt>
<trkpt lat="40.183538" lon="9.095557"><ele>303.48</ele><time>2022-01-03T16:06:24Z</time></trkpt>
<trkpt lat="40.183536" lon="9.095385"><ele>302.85</ele><time>2022-01-03T16:06:27Z</time></trkpt>
<trkpt lat="40.183515" lon="9.095222"><ele>302.17</ele><time>2022-01-03T16:06:29Z</time></trkpt>
<trkpt lat="40.183483" lon="9.09511"><ele>301.75</ele><time>2022-01-03T16:06:31Z</time></trkpt>
<trkpt lat="40.18336" lon="9.094829"><ele>300.48</ele><time>2022-01-03T16:06:33Z</time></trkpt>
<trkpt lat="40.183259" lon="9.094547"><ele>298.56</ele><time>2022-01-03T16:06:35Z</time></trkpt>
<trkpt lat="40.183208" lon="9.094315"><ele>297.64</ele><time>2022-01-03T16:06:37Z</time></trkpt>
<trkpt lat="40.183192" lon="9.09416"><ele>297.47</ele><time>2022-01-03T16:06:40Z</time></trkpt>
<trkpt lat="40.183239" lon="9.09381"><ele>297.7</ele><time>2022-01-03T16:06:42Z</time></trkpt>
<trkpt lat="40.183444" lon="9.091461"><ele>299.45</ele><time>2022-01-03T16:06:44Z</time></trkpt>
<trkpt lat="40.183451" lon="9.090942"><ele>300.92</ele><time>2022-01-03T16:06:46Z</time></trkpt>
<trkpt lat="40.183423" lon="9.09077"><ele>301.58</ele><time>2022-01-03T16:06:48Z</time></trkpt>
<trkpt lat="40.183359" lon="9.090632"><ele>302.54</ele><time>2022-01-03T16:06:50Z</time></trkpt>
<trkpt lat="40.183266" lon="9.090548"><ele>303.78</ele><time>2022-01-03T16:06:52Z</time></trkpt>
<trkpt lat="40.182789" lon="9.090331"><ele>308.57</ele><time>2022-01-03T16:06:55Z</time></trkpt>
<trkpt lat="40.182645" lon="9.090284"><ele>310.37</ele><time>2022-01-03T16:06:57Z</time></trkpt>
<trkpt lat="40.18246" lon="9.090289"><ele>312.03</ele><time>2022-01-03T16:06:59Z</time></trkpt>
<trkpt lat="40.182367" lon="9.090347"><ele>311.85</ele><time>2022-01-03T16:07:01Z</time></trkpt>
<trkpt lat="40.182247" lon="9.090477"><ele>311.41</ele><time>2022-01-03T16:07:03Z</time></trkpt>
<trkpt lat="40.182196" lon="9.090647"><ele>311.53</ele><time>2022-01-03T16:07:05Z</time></trkpt>
<trkpt lat="40.182158" lon="9.091086"><ele>312.64</ele><time>2022-01-03T16:07:08Z</time></trkpt>
<trkpt lat="40.182071" lon="9.09125"><ele>313.13</ele><time>2022-01-03T16:07:10Z</time></trkpt>
<trkpt lat="40.181964" lon="9.09134"><ele>313.97</ele><time>2022-01-03T16:07:12Z</time></trkpt>
<trkpt lat="40.179981" lon="9.091218"><ele>322.92</ele><time>2022-01-03T16:07:14Z</time></trkpt>
<trkpt lat="40.179413" lon="9.09115"><ele>323.74</ele><time>2022-01-03T16:07:16Z</time></trkpt>
<trkpt lat="40.178552" lon="9.090919"><ele>333.67</ele><time>2022-01-03T16:07:18Z</time></trkpt>
<trkpt lat="40.177928" lon="9.090862"><ele>337.19</ele><time>2022-01-03T16:07:21Z</time></trkpt>
<trkpt lat="40.177799" lon="9.090762"><ele>338.43</ele><time>2022-01-03T16:07:23Z</time></trkpt>
<trkpt lat="40.177739" lon="9.090678"><ele>339.4</ele><time>2022-01-03T16:07:25Z</time></trkpt>
<trkpt lat="40.177486" lon="9.090021"><ele>343.0</ele><time>2022-01-03T16:07:27Z</time></trkpt>
<trkpt lat="40.177221" lon="9.089729"><ele>342.03</ele><time>2022-01-03T16:07:29Z</time></trkpt>
<trkpt lat="40.176738" lon="9.089291"><ele>344.55</ele><time>2022-01-03T16:07:31Z</time></trkpt>
<trkpt lat="40.176597" lon="9.08912"><ele>345.12</ele><time>2022-01-03T16:07:33Z</time></trkpt>
<trkpt lat="40.176502" lon="9.088859"><ele>345.47</ele><time>2022-01-03T16:07:36Z</time></trkpt>
<trkpt lat="40.17647" lon="9.088642"><ele>345.92</ele><time>2022-01-03T16:07:38Z</time></trkpt>
<trkpt lat="40.176486" lon="9.088461"><ele>345.84</ele><time>2022-01-03T16:07:40Z</time></trkpt>
<trkpt lat="40.176691" lon="9.088015"><ele>345.09</ele><time>2022-01-03T16:07:42Z</time></trkpt>
<trkpt lat="40.176726" lon="9.087903"><ele>344.99</ele><time>2022-01-03T16:07:44Z</time></trkpt>
<trkpt lat="40.176724" lon="9.087812"><ele>344.44</ele><time>2022-01-03T16:07:46Z</time></trkpt>
<trkpt lat="40.176487" lon="9.086858"><ele>337.37</ele><time>2022-01-03T16:07:49Z</time></trkpt>
<trkpt lat="40.176192" lon="9.086255"><ele>332.8</ele><time>2022-01-03T16:07:51Z</time></trkpt>
<trkpt lat="40.176139" lon="9.086061"><ele>332.38</ele><time>2022-01-03T16:07:53Z</time></trkpt>
<trkpt lat="40.176159" lon="9.085793"><ele>332.13</ele><time>2022-01-03T16:07:55Z</time></trkpt>
<trkpt lat="40.176248" lon="9.085478"><ele>330.91</ele><time>2022-01-03T16:07:57Z</time></trkpt>
<trkpt lat="40.176769" lon="9.084616"><ele>329.96</ele><time>2022-01-03T16:07:59Z</time></trkpt>
<trkpt lat="40.176914" lon="9.084267"><ele>327.76</ele><time>2022-01-03T16:08:02Z</time></trkpt>
<trkpt lat="40.177071" lon="9.083776"><ele>324.32</ele><time>2022-01-03T16:08:04Z</time></trkpt>
<trkpt lat="40.177065" lon="9.083661"><ele>323.69</ele><time>2022-01-03T16:08:06Z</time></trkpt>
<trkpt lat="40.177032" lon="9.083519"><ele>323.65</ele><time>2022-01-03T16:08:08Z</time></trkpt>
<trkpt lat="40.176959" lon="9.083403"><ele>323.8</ele><time>2022-01-03T16:08:10Z</time></trkpt>
<trkpt lat="40.176272" lon="9.082765"><ele>322.36</ele><time>2022-01-03T16:08:12Z</time></trkpt>
<trkpt lat="40.175994" lon="9.082439"><ele>319.63</ele><time>2022-01-03T16:08:15Z</time></trkpt>
<trkpt lat="40.175719" lon="9.082065"><ele>319.54</ele><time>2022-01-03T16:08:17Z</time></trkpt>
<trkpt lat="40.175482" lon="9.08164"><ele>320.47</ele><time>2022-01-03T16:08:19Z</time></trkpt>
<trkpt lat="40.175432" lon="9.081447"><ele>320.11</ele><time>2022-01-03T16:08:21Z</time></trkpt>
<trkpt lat="40.17544" lon="9.081177"><ele>319.4</ele><time>2022-01-03T16:08:23Z</time></trkpt>
<trkpt lat="40.175528" lon="9.080828"><ele>316.6</ele><time>2022-01-03T16:08:25Z</time></trkpt>
<trkpt lat="40.17565" lon="9.080629"><ele>314.67</ele><time>2022-01-03T16:08:27Z</time></trkpt>
<trkpt lat="40.17586" lon="9.080486"><ele>314.33</ele><time>2022-01-03T16:08:30Z</time></trkpt>
<trkpt lat="40.176358" lon="9.08043"><ele>314.73</ele><time>2022-01-03T16:08:32Z</time></trkpt>
<trkpt lat="40.176435" lon="9.080393"><ele>314.52</ele><time>2022-01-03T16:08:34Z</time></trkpt>
<trkpt lat="40.176504" lon="9.080331"><ele>314.16</ele><time>2022-01-03T16:08:36Z</time></trkpt>
<trkpt lat="40.17656" lon="9.080224"><ele>313.53</ele><time>2022-01-03T16:08:38Z</time></trkpt>
<trkpt lat="40.176601" lon="9.0801"><ele>313.24</ele><time>2022-01-03T16:08:40Z</time></trkpt>
<trkpt lat="40.176614" lon="9.079965"><ele>312.78</ele><time>2022-01-03T16:08:43Z</time></trkpt>
<trkpt lat="40.176604" lon="9.079839"><ele>312.87</ele><time>2022-01-03T16:08:45Z</time></trkpt>
<trkpt lat="40.176568" lon="9.079697"><ele>312.45</ele><time>2022-01-03T16:08:47Z</time></trkpt>
<trkpt lat="40.173275" lon="9.075806"><ele>286.89</ele><time>2022-01-03T16:08:49Z</time></trkpt>
<trkpt lat="40.17314" lon="9.075703"><ele>287.34</ele><time>2022-01-03T16:08:51Z</time></trkpt>
<trkpt lat="40.172986" lon="9.075631"><ele>288.48</ele><time>2022-01-03T16:08:53Z</time></trkpt>
<trkpt lat="40.172492" lon="9.075655"><ele>291.28</ele><time>2022-01-03T16:08:56Z</time></trkpt>
<trkpt lat="40.172373" lon="9.075632"><ele>291.45</ele><time>2022-01-03T16:08:58Z</time></trkpt>
<trkpt lat="40.172252" lon="9.075528"><ele>292.2</ele><time>2022-01-03T16:09:00Z</time></trkpt>
<trkpt lat="40.171988" lon="9.075129"><ele>295.07</ele><time>2022-01-03T16:09:02Z</time></trkpt>
<trkpt lat="40.171825" lon="9.075027"><ele>295.89</ele><time>2022-01-03T16:09:04Z</time></trkpt>
<trkpt lat="40.171717" lon="9.074994"><ele>296.07</ele><time>2022-01-03T16:09:06Z</time></trkpt>
<trkpt lat="40.171598" lon="9.07501"><ele>296.49</ele><time>2022-01-03T16:09:08Z</time></trkpt>
<trkpt lat="40.171491" lon="9.075056"><ele>297.26</ele><time>2022-01-03T16:09:11Z</time></trkpt>
<trkpt lat="40.17139" lon="9.075142"><ele>297.99</ele><time>2022-01-03T16:09:13Z</time></trkpt>
<trkpt lat="40.171267" lon="9.075371"><ele>299.32</ele><time>2022-01-03T16:09:15Z</time></trkpt>
<trkpt lat="40.17119" lon="9.075704"><ele>300.54</ele><time>2022-01-03T16:09:17Z</time></trkpt>
<trkpt lat="40.17113" lon="9.076056"><ele>302.47</ele><time>2022-01-03T16:09:19Z</time></trkpt>
<trkpt lat="40.171119" lon="9.076344"><ele>303.69</ele><time>2022-01-03T16:09:21Z</time></trkpt>
<trkpt lat="40.171144" lon="9.076825"><ele>305.36</ele><time>2022-01-03T16:09:24Z</time></trkpt>
<trkpt lat="40.171109" lon="9.076959"><ele>306.03</ele><time>2022-01-03T16:09:26Z</time></trkpt>
<trkpt lat="40.17103" lon="9.077112"><ele>306.93</ele><time>2022-01-03T16:09:28Z</time></trkpt>
<trkpt lat="40.170944" lon="9.077217"><ele>307.23</ele><time>2022-01-03T16:09:30Z</time></trkpt>
<trkpt lat="40.17082" lon="9.077276"><ele>307.45</ele><time>2022-01-03T16:09:32Z</time></trkpt>
<trkpt lat="40.17069" lon="9.077277"><ele>307.72</ele><time>2022-01-03T16:09:34Z</time></trkpt>
<trkpt lat="40.170421" lon="9.077227"><ele>309.87</ele><time>2022-01-03T16:09:37Z</time></trkpt>
<trkpt lat="40.17021" lon="9.077107"><ele>312.59</ele><time>2022-01-03T16:09:39Z</time></trkpt>
<trkpt lat="40.170031" lon="9.076892"><ele>314.93</ele><time>2022-01-03T16:09:41Z</time></trkpt>
<trkpt lat="40.169729" lon="9.076309"><ele>316.64</ele><time>2022-01-03T16:09:43Z</time></trkpt>
<trkpt lat="40.169066" lon="9.075103"><ele>316.13</ele><time>2022-01-03T16:09:45Z</time></trkpt>
<trkpt lat="40.167725" lon="9.07316"><ele>319.86</ele><time>2022-01-03T16:09:47Z</time></trkpt>
<trkpt lat="40.167533" lon="9.072818"><ele>320.3</ele><time>2022-01-03T16:09:50Z</time></trkpt>
<trkpt lat="40.167009" lon="9.071591"><ele>317.27</ele><time>2022-01-03T16:09:52Z</time></trkpt>
<trkpt lat="40.16681" lon="9.070612"><ele>314.58</ele><time>2022-01-03T16:09:54Z</time></trkpt>
<trkpt lat="40.166767" lon="9.07047"><ele>314.0</ele><time>2022-01-03T16:09:56Z</time></trkpt>
<trkpt lat="40.1667" lon="9.070364"><ele>313.21</ele><time>2022-01-03T16:09:58Z</time></trkpt>
<trkpt lat="40.166556" lon="9.070264"><ele>312.37</ele><time>2022-01-03T16:10:00Z</time></trkpt>
<trkpt lat="40.16602" lon="9.070091"><ele>308.27</ele><time>2022-01-03T16:10:02Z</time></trkpt>
<trkpt lat="40.165855" lon="9.069971"><ele>306.93</ele><time>2022-01-03T16:10:05Z</time></trkpt>
<trkpt lat="40.16566" lon="9.069781"><ele>305.84</ele><time>2022-01-03T16:10:07Z</time></trkpt>
<trkpt lat="40.16422" lon="9.067659"><ele>301.69</ele><time>2022-01-03T16:10:09Z</time></trkpt>
<trkpt lat="40.164126" lon="9.067427"><ele>300.82</ele><time>2022-01-03T16:10:11Z</time></trkpt>
<trkpt lat="40.164086" lon="9.06716"><ele>301.13</ele><time>2022-01-03T16:10:13Z</time></trkpt>
<trkpt lat="40.1641" lon="9.066908"><ele>301.15</ele><time>2022-01-03T16:10:15Z</time></trkpt>
<trkpt lat="40.164175" lon="9.066586"><ele>300.54</ele><time>2022-01-03T16:10:18Z</time></trkpt>
<trkpt lat="40.165806" lon="9.064968"><ele>291.05</ele><time>2022-01-03T16:10:20Z</time></trkpt>
<trkpt lat="40.165972" lon="9.064749"><ele>290.59</ele><time>2022-01-03T16:10:22Z</time></trkpt>
<trkpt lat="40.166018" lon="9.064639"><ele>290.86</ele><time>2022-01-03T16:10:24Z</time></trkpt>
<trkpt lat="40.166052" lon="9.064367"><ele>291.79</ele><time>2022-01-03T16:10:26Z</time></trkpt>
<trkpt lat="40.166029" lon="9.064229"><ele>291.95</ele><time>2022-01-03T16:10:28Z</time></trkpt>
<trkpt lat="40.164155" lon="9.060108"><ele>283.05</ele><time>2022-01-03T16:10:31Z</time></trkpt>
<trkpt lat="40.164061" lon="9.059445"><ele>286.34</ele><time>2022-01-03T16:10:33Z</time></trkpt>
<trkpt lat="40.164025" lon="9.059335"><ele>287.2</ele><time>2022-01-03T16:10:35Z</time></trkpt>
<trkpt lat="40.163987" lon="9.059253"><ele>287.48</ele><time>2022-01-03T16:10:37Z</time></trkpt>
<trkpt lat="40.163501" lon="9.058497"><ele>281.67</ele><time>2022-01-03T16:10:39Z</time></trkpt>
<trkpt lat="40.163396" lon="9.058219"><ele>279.72</ele><time>2022-01-03T16:10:41Z</time></trkpt>
<trkpt lat="40.163084" lon="9.056561"><ele>277.96</ele><time>2022-01-03T16:10:43Z</time></trkpt>
<trkpt lat="40.16296" lon="9.056254"><ele>278.36</ele><time>2022-01-03T16:10:46Z</time></trkpt>
<trkpt lat="40.162867" lon="9.056124"><ele>278.69</ele><time>2022-01-03T16:10:48Z</time></trkpt>
<trkpt lat="40.16277" lon="9.056061"><ele>278.2</ele><time>2022-01-03T16:10:50Z</time></trkpt>
<trkpt lat="40.16264" lon="9.056038"><ele>277.48</ele><time>2022-01-03T16:10:52Z</time></trkpt>
<trkpt lat="40.16252" lon="9.056059"><ele>275.69</ele><time>2022-01-03T16:10:54Z</time></trkpt>
<trkpt lat="40.162087" lon="9.056251"><ele>269.75</ele><time>2022-01-03T16:10:56Z</time></trkpt>
<trkpt lat="40.161894" lon="9.056285"><ele>268.5</ele><time>2022-01-03T16:10:59Z</time></trkpt>
<trkpt lat="40.161679" lon="9.056245"><ele>269.07</ele><time>2022-01-03T16:11:01Z</time></trkpt>
<trkpt lat="40.161463" lon="9.056148"><ele>269.0</ele><time>2022-01-03T16:11:03Z</time></trkpt>
<trkpt lat="40.160972" lon="9.055812"><ele>269.73</ele><time>2022-01-03T16:11:05Z</time></trkpt>
<trkpt lat="40.16072" lon="9.055594"><ele>269.37</ele><time>2022-01-03T16:11:07Z</time></trkpt>
<trkpt lat="40.160495" lon="9.05529"><ele>271.39</ele><time>2022-01-03T16:11:09Z</time></trkpt>
<trkpt lat="40.160424" lon="9.055158"><ele>272.37</ele><time>2022-01-03T16:11:12Z</time></trkpt>
<trkpt lat="40.160375" lon="9.054993"><ele>273.43</ele><time>2022-01-03T16:11:14Z</time></trkpt>
<trkpt lat="40.160285" lon="9.054224"><ele>274.75</ele><time>2022-01-03T16:11:16Z</time></trkpt>
<trkpt lat="40.160241" lon="9.054059"><ele>275.32</ele><time>2022-01-03T16:11:18Z</time></trkpt>
<trkpt lat="40.159962" lon="9.053353"><ele>278.71</ele><time>2022-01-03T16:11:20Z</time></trkpt>
<trkpt lat="40.159937" lon="9.053181"><ele>279.94</ele><time>2022-01-03T16:11:22Z</time></trkpt>
<trkpt lat="40.159939" lon="9.053014"><ele>281.31</ele><time>2022-01-03T16:11:25Z</time></trkpt>
<trkpt lat="40.159972" lon="9.052794"><ele>282.38</ele><time>2022-01-03T16:11:27Z</time></trkpt>
<trkpt lat="40.160229" lon="9.052257"><ele>283.3</ele><time>2022-01-03T16:11:29Z</time></trkpt>
<trkpt lat="40.160613" lon="9.051522"><ele>293.25</ele><time>2022-01-03T16:11:31Z</time></trkpt>
<trkpt lat="40.160654" lon="9.051383"><ele>294.57</ele><time>2022-01-03T16:11:33Z</time></trkpt>
<trkpt lat="40.160656" lon="9.051098"><ele>296.39</ele><time>2022-01-03T16:11:35Z</time></trkpt>
<trkpt lat="40.160612" lon="9.05098"><ele>296.51</ele><time>2022-01-03T16:11:37Z</time></trkpt>
<trkpt lat="40.160485" lon="9.050776"><ele>296.95</ele><time>2022-01-03T16:11:40Z</time></trkpt>
<trkpt lat="40.160142" lon="9.050575"><ele>295.69</ele><time>2022-01-03T16:11:42Z</time></trkpt>
<trkpt lat="40.159988" lon="9.050422"><ele>295.75</ele><time>2022-01-03T16:11:44Z</time></trkpt>
<trkpt lat="40.159933" lon="9.050323"><ele>296.38</ele><time>2022-01-03T16:11:46Z</time></trkpt>
<trkpt lat="40.159909" lon="9.050174"><ele>297.42</ele><time>2022-01-03T16:11:48Z</time></trkpt>
<trkpt lat="40.159909" lon="9.050038"><ele>298.42</ele><time>2022-01-03T16:11:50Z</time></trkpt>
<trkpt lat="40.15997" lon="9.04988"><ele>299.13</ele><time>2022-01-03T16:11:53Z</time></trkpt>
<trkpt lat="40.160137" lon="9.04969"><ele>301.24</ele><time>2022-01-03T16:11:55Z</time></trkpt>
<trkpt lat="40.160513" lon="9.049321"><ele>306.18</ele><time>2022-01-03T16:11:57Z</time></trkpt>
<trkpt lat="40.160631" lon="9.049129"><ele>308.16</ele><time>2022-01-03T16:11:59Z</time></trkpt>
<trkpt lat="40.160666" lon="9.048945"><ele>309.19</ele><time>2022-01-03T16:12:01Z</time></trkpt>
<trkpt lat="40.160597" lon="9.048618"><ele>308.99</ele><time>2022-01-03T16:12:03Z</time></trkpt>
<trkpt lat="40.160513" lon="9.048468"><ele>308.62</ele><time>2022-01-03T16:12:06Z</time></trkpt>
<trkpt lat="40.160319" lon="9.048212"><ele>307.78</ele><time>2022-01-03T16:12:08Z</time></trkpt>
<trkpt lat="40.160112" lon="9.047994"><ele>306.3</ele><time>2022-01-03T16:12:10Z</time></trkpt>
<trkpt lat="40.159958" lon="9.047876"><ele>305.08</ele><time>2022-01-03T16:12:12Z</time></trkpt>
<trkpt lat="40.158703" lon="9.047604"><ele>300.04</ele><time>2022-01-03T16:12:14Z</time></trkpt>
<trkpt lat="40.158471" lon="9.047572"><ele>299.59</ele><time>2022-01-03T16:12:16Z</time></trkpt>
<trkpt lat="40.158149" lon="9.047664"><ele>296.63</ele><time>2022-01-03T16:12:18Z</time></trkpt>
<trkpt lat="40.157866" lon="9.047835"><ele>293.36</ele><time>2022-01-03T16:12:21Z</time></trkpt>
<trkpt lat="40.157411" lon="9.04816"><ele>288.52</ele><time>2022-01-03T16:12:23Z</time></trkpt>
<trkpt lat="40.157248" lon="9.048201"><ele>287.18</ele><time>2022-01-03T16:12:25Z</time></trkpt>
<trkpt lat="40.157067" lon="9.048215"><ele>286.76</ele><time>2022-01-03T16:12:27Z</time></trkpt>
<trkpt lat="40.156886" lon="9.048155"><ele>286.36</ele><time>2022-01-03T16:12:29Z</time></trkpt>
<trkpt lat="40.15595" lon="9.047445"><ele>279.95</ele><time>2022-01-03T16:12:31Z</time></trkpt>
<trkpt lat="40.155784" lon="9.04727"><ele>279.65</ele><time>2022-01-03T16:12:34Z</time></trkpt>
<trkpt lat="40.155665" lon="9.047044"><ele>280.42</ele><time>2022-01-03T16:12:36Z</time></trkpt>
<trkpt lat="40.155609" lon="9.046768"><ele>282.39</ele><time>2022-01-03T16:12:38Z</time></trkpt>
<trkpt lat="40.155618" lon="9.04636"><ele>285.76</ele><time>2022-01-03T16:12:40Z</time></trkpt>
<trkpt lat="40.155676" lon="9.045595"><ele>290.49</ele><time>2022-01-03T16:12:42Z</time></trkpt>
<trkpt lat="40.155749" lon="9.045213"><ele>290.09</ele><time>2022-01-03T16:12:44Z</time></trkpt>
<trkpt lat="40.155881" lon="9.044814"><ele>292.36</ele><time>2022-01-03T16:12:47Z</time></trkpt>
<trkpt lat="40.157107" lon="9.041651"><ele>292.23</ele><time>2022-01-03T16:12:49Z</time></trkpt>
<trkpt lat="40.157221" lon="9.041422"><ele>291.79</ele><time>2022-01-03T16:12:51Z</time></trkpt>
<trkpt lat="40.157373" lon="9.041214"><ele>292.43</ele><time>2022-01-03T16:12:53Z</time></trkpt>
<trkpt lat="40.157473" lon="9.041037"><ele>293.24</ele><time>2022-01-03T16:12:55Z</time></trkpt>
<trkpt lat="40.15751" lon="9.040934"><ele>293.42</ele><time>2022-01-03T16:12:57Z</time></trkpt>
<trkpt lat="40.157531" lon="9.040798"><ele>292.97</ele><time>2022-01-03T16:13:00Z</time></trkpt>
<trkpt lat="40.157507" lon="9.040422"><ele>290.76</ele><time>2022-01-03T16:13:02Z</time></trkpt>
<trkpt lat="40.15741" lon="9.040052"><ele>287.83</ele><time>2022-01-03T16:13:04Z</time></trkpt>
<trkpt lat="40.157295" lon="9.039783"><ele>287.49</ele><time>2022-01-03T16:13:06Z</time></trkpt>
<trkpt lat="40.157159" lon="9.039553"><ele>287.05</ele><time>2022-01-03T16:13:08Z</time></trkpt>
<trkpt lat="40.157038" lon="9.03943"><ele>286.05</ele><time>2022-01-03T16:13:10Z</time></trkpt>
<trkpt lat="40.156914" lon="9.039355"><ele>284.93</ele><time>2022-01-03T16:13:12Z</time></trkpt>
<trkpt lat="40.156632" lon="9.039298"><ele>283.56</ele><time>2022-01-03T16:13:15Z</time></trkpt>
<trkpt lat="40.156388" lon="9.039318"><ele>282.27</ele><time>2022-01-03T16:13:17Z</time></trkpt>
<trkpt lat="40.156212" lon="9.039271"><ele>281.2</ele><time>2022-01-03T16:13:19Z</time></trkpt>
<trkpt lat="40.156042" lon="9.039102"><ele>281.06</ele><time>2022-01-03T16:13:21Z</time></trkpt>
<trkpt lat="40.155879" lon="9.038728"><ele>278.91</ele><time>2022-01-03T16:13:23Z</time></trkpt>
<trkpt lat="40.155806" lon="9.038331"><ele>277.78</ele><time>2022-01-03T16:13:25Z</time></trkpt>
<trkpt lat="40.15586" lon="9.037897"><ele>273.58</ele><time>2022-01-03T16:13:28Z</time></trkpt>
<trkpt lat="40.156175" lon="9.037074"><ele>264.0</ele><time>2022-01-03T16:13:30Z</time></trkpt>
<trkpt lat="40.156469" lon="9.036646"><ele>258.57</ele><time>2022-01-03T16:13:32Z</time></trkpt>
<trkpt lat="40.15688" lon="9.036332"><ele>256.44</ele><time>2022-01-03T16:13:34Z</time></trkpt>
<trkpt lat="40.15725" lon="9.036205"><ele>258.45</ele><time>2022-01-03T16:13:36Z</time></trkpt>
<trkpt lat="40.157609" lon="9.036126"><ele>260.63</ele><time>2022-01-03T16:13:38Z</time></trkpt>
<trkpt lat="40.157848" lon="9.035981"><ele>259.84</ele><time>2022-01-03T16:13:41Z</time></trkpt>
<trkpt lat="40.157998" lon="9.035771"><ele>258.07</ele><time>2022-01-03T16:13:43Z</time></trkpt>
<trkpt lat="40.158283" lon="9.034464"><ele>253.06</ele><time>2022-01-03T16:13:45Z</time></trkpt>
<trkpt lat="40.158405" lon="9.034079"><ele>252.1</ele><time>2022-01-03T16:13:47Z</time></trkpt>
<trkpt lat="40.158556" lon="9.033677"><ele>252.11</ele><time>2022-01-03T16:13:49Z</time></trkpt>
<trkpt lat="40.158707" lon="9.033439"><ele>253.65</ele><time>2022-01-03T16:13:51Z</time></trkpt>
<trkpt lat="40.158886" lon="9.033254"><ele>255.15</ele><time>2022-01-03T16:13:53Z</time></trkpt>
<trkpt lat="40.159069" lon="9.032986"><ele>257.13</ele><time>2022-01-03T16:13:56Z</time></trkpt>
<trkpt lat="40.159216" lon="9.032684"><ele>259.55</ele><time>2022-01-03T16:13:58Z</time></trkpt>
<trkpt lat="40.15938" lon="9.032397"><ele>261.86</ele><time>2022-01-03T16:14:00Z</time></trkpt>
<trkpt lat="40.159741" lon="9.032278"><ele>264.33</ele><time>2022-01-03T16:14:02Z</time></trkpt>
<trkpt lat="40.160359" lon="9.032124"><ele>270.0</ele><time>2022-01-03T16:14:04Z</time></trkpt>
<trkpt lat="40.160624" lon="9.032128"><ele>271.17</ele><time>2022-01-03T16:14:06Z</time></trkpt>
<trkpt lat="40.160886" lon="9.03224"><ele>272.39</ele><time>2022-01-03T16:14:09Z</time></trkpt>
<trkpt lat="40.161153" lon="9.032386"><ele>274.8</ele><time>2022-01-03T16:14:11Z</time></trkpt>
<trkpt lat="40.161286" lon="9.032404"><ele>275.5</ele><time>2022-01-03T16:14:13Z</time></trkpt>
<trkpt lat="40.161417" lon="9.032369"><ele>276.05</ele><time>2022-01-03T16:14:15Z</time></trkpt>
<trkpt lat="40.161699" lon="9.032137"><ele>277.73</ele><time>2022-01-03T16:14:17Z</time></trkpt>
<trkpt lat="40.161928" lon="9.031856"><ele>280.6</ele><time>2022-01-03T16:14:19Z</time></trkpt>
<trkpt lat="40.162133" lon="9.031429"><ele>282.14</ele><time>2022-01-03T16:14:22Z</time></trkpt>
<trkpt lat="40.162298" lon="9.030819"><ele>282.54</ele><time>2022-01-03T16:14:24Z</time></trkpt>
<trkpt lat="40.162416" lon="9.030514"><ele>283.21</ele><time>2022-01-03T16:14:26Z</time></trkpt>
<trkpt lat="40.16267" lon="9.030226"><ele>284.52</ele><time>2022-01-03T16:14:28Z</time></trkpt>
<trkpt lat="40.1635" lon="9.029496"><ele>291.45</ele><time>2022-01-03T16:14:30Z</time></trkpt>
<trkpt lat="40.163825" lon="9.029091"><ele>294.83</ele><time>2022-01-03T16:14:32Z</time></trkpt>
<trkpt lat="40.16458" lon="9.027742"><ele>302.75</ele><time>2022-01-03T16:14:34Z</time></trkpt>
<trkpt lat="40.16539" lon="9.026764"><ele>306.39</ele><time>2022-01-03T16:14:37Z</time></trkpt>
<trkpt lat="40.16736" lon="9.025562"><ele>315.55</ele><time>2022-01-03T16:14:39Z</time></trkpt>
<trkpt lat="40.168247" lon="9.024573"><ele>315.46</ele><time>2022-01-03T16:14:41Z</time></trkpt>
<trkpt lat="40.168452" lon="9.024398"><ele>314.33</ele><time>2022-01-03T16:14:43Z</time></trkpt>
<trkpt lat="40.170179" lon="9.023358"><ele>304.08</ele><time>2022-01-03T16:14:45Z</time></trkpt>
<trkpt lat="40.172667" lon="9.020832"><ele>295.99</ele><time>2022-01-03T16:14:47Z</time></trkpt>
<trkpt lat="40.172894" lon="9.020706"><ele>294.93</ele><time>2022-01-03T16:14:50Z</time></trkpt>
<trkpt lat="40.173071" lon="9.020642"><ele>293.56</ele><time>2022-01-03T16:14:52Z</time></trkpt>
<trkpt lat="40.17558" lon="9.021189"><ele>290.53</ele><time>2022-01-03T16:14:54Z</time></trkpt>
<trkpt lat="40.175822" lon="9.021271"><ele>290.81</ele><time>2022-01-03T16:14:56Z</time></trkpt>
<trkpt lat="40.176291" lon="9.021614"><ele>287.86</ele><time>2022-01-03T16:14:58Z</time></trkpt>
<trkpt lat="40.176471" lon="9.021676"><ele>286.64</ele><time>2022-01-03T16:15:00Z</time></trkpt>
<trkpt lat="40.176633" lon="9.021625"><ele>286.44</ele><time>2022-01-03T16:15:03Z</time></trkpt>
<trkpt lat="40.177406" lon="9.021116"><ele>285.31</ele><time>2022-01-03T16:15:05Z</time></trkpt>
<trkpt lat="40.177604" lon="9.021099"><ele>285.16</ele><time>2022-01-03T16:15:07Z</time></trkpt>
<trkpt lat="40.177713" lon="9.021125"><ele>284.9</ele><time>2022-01-03T16:15:09Z</time></trkpt>
<trkpt lat="40.17783" lon="9.021187"><ele>285.02</ele><time>2022-01-03T16:15:11Z</time></trkpt>
<trkpt lat="40.179503" lon="9.022818"><ele>279.0</ele><time>2022-01-03T16:15:13Z</time></trkpt>
<trkpt lat="40.179675" lon="9.022875"><ele>279.0</ele><time>2022-01-03T16:15:16Z</time></trkpt>
<trkpt lat="40.180951" lon="9.02307"><ele>277.49</ele><time>2022-01-03T16:15:18Z</time></trkpt>
<trkpt lat="40.181067" lon="9.023062"><ele>277.13</ele><time>2022-01-03T16:15:20Z</time></trkpt>
<trkpt lat="40.181182" lon="9.023008"><ele>276.74</ele><time>2022-01-03T16:15:22Z</time></trkpt>
<trkpt lat="40.181367" lon="9.022831"><ele>276.08</ele><time>2022-01-03T16:15:24Z</time></trkpt>
<trkpt lat="40.183774" lon="9.020151"><ele>263.96</ele><time>2022-01-03T16:15:26Z</time></trkpt>
<trkpt lat="40.186479" lon="9.019871"><ele>261.92</ele><time>2022-01-03T16:15:28Z</time></trkpt>
<trkpt lat="40.187026" lon="9.019502"><ele>260.62</ele><time>2022-01-03T16:15:31Z</time></trkpt>
<trkpt lat="40.187165" lon="9.019341"><ele>260.14</ele><time>2022-01-03T16:15:33Z</time></trkpt>
<trkpt lat="40.187287" lon="9.019105"><ele>259.65</ele><time>2022-01-03T16:15:35Z</time></trkpt>
<trkpt lat="40.187324" lon="9.018885"><ele>259.57</ele><time>2022-01-03T16:15:37Z</time></trkpt>
<trkpt lat="40.187299" lon="9.01868"><ele>261.73</ele><time>2022-01-03T16:15:39Z</time></trkpt>
<trkpt lat="40.187192" lon="9.018258"><ele>264.57</ele><time>2022-01-03T16:15:41Z</time></trkpt>
<trkpt lat="40.187171" lon="9.018063"><ele>264.33</ele><time>2022-01-03T16:15:44Z</time></trkpt>
<trkpt lat="40.18718" lon="9.017823"><ele>261.69</ele><time>2022-01-03T16:15:46Z</time></trkpt>
<trkpt lat="40.187483" lon="9.016883"><ele>254.44</ele><time>2022-01-03T16:15:48Z</time></trkpt>
<trkpt lat="40.187587" lon="9.016611"><ele>250.89</ele><time>2022-01-03T16:15:50Z</time></trkpt>
<trkpt lat="40.187609" lon="9.016273"><ele>248.74</ele><time>2022-01-03T16:15:52Z</time></trkpt>
<trkpt lat="40.187556" lon="9.015987"><ele>247.49</ele><time>2022-01-03T16:15:54Z</time></trkpt>
<trkpt lat="40.18648" lon="9.012146"><ele>228.52</ele><time>2022-01-03T16:15:57Z</time></trkpt>
<trkpt lat="40.186431" lon="9.011841"><ele>225.85</ele><time>2022-01-03T16:15:59Z</time></trkpt>
<trkpt lat="40.186454" lon="9.011563"><ele>224.2</ele><time>2022-01-03T16:16:01Z</time></trkpt>
<trkpt lat="40.186556" lon="9.011299"><ele>223.63</ele><time>2022-01-03T16:16:03Z</time></trkpt>
<trkpt lat="40.187388" lon="9.009601"><ele>217.99</ele><time>2022-01-03T16:16:05Z</time></trkpt>
<trkpt lat="40.187571" lon="9.009154"><ele>218.49</ele><time>2022-01-03T16:16:07Z</time></trkpt>
<trkpt lat="40.187711" lon="9.008811"><ele>217.72</ele><time>2022-01-03T16:16:09Z</time></trkpt>
<trkpt lat="40.187857" lon="9.008568"><ele>217.0</ele><time>2022-01-03T16:16:12Z</time></trkpt>
<trkpt lat="40.192589" lon="9.004353"><ele>227.12</ele><time>2022-01-03T16:16:14Z</time></trkpt>
<trkpt lat="40.193789" lon="9.001083"><ele>212.13</ele><time>2022-01-03T16:16:16Z</time></trkpt>
<trkpt lat="40.194637" lon="8.999799"><ele>200.56</ele><time>2022-01-03T16:16:18Z</time></trkpt>
<trkpt lat="40.194749" lon="8.99956"><ele>197.41</ele><time>2022-01-03T16:16:20Z</time></trkpt>
<trkpt lat="40.194755" lon="8.999322"><ele>196.69</ele><time>2022-01-03T16:16:22Z</time></trkpt>
<trkpt lat="40.194505" lon="8.998133"><ele>190.53</ele><time>2022-01-03T16:16:25Z</time></trkpt>
<trkpt lat="40.194143" lon="8.997637"><ele>191.4</ele><time>2022-01-03T16:16:27Z</time></trkpt>
<trkpt lat="40.194026" lon="8.997378"><ele>189.93</ele><time>2022-01-03T16:16:29Z</time></trkpt>
<trkpt lat="40.194001" lon="8.997202"><ele>188.95</ele><time>2022-01-03T16:16:31Z</time></trkpt>
<trkpt lat="40.194061" lon="8.996183"><ele>184.99</ele><time>2022-01-03T16:16:33Z</time></trkpt>
<trkpt lat="40.193864" lon="8.995649"><ele>182.18</ele><time>2022-01-03T16:16:35Z</time></trkpt>
<trkpt lat="40.193785" lon="8.995215"><ele>180.05</ele><time>2022-01-03T16:16:38Z</time></trkpt>
<trkpt lat="40.193709" lon="8.994456"><ele>180.59</ele><time>2022-01-03T16:16:40Z</time></trkpt>
<trkpt lat="40.193719" lon="8.994064"><ele>178.9</ele><time>2022-01-03T16:16:42Z</time></trkpt>
<trkpt lat="40.193917" lon="8.993125"><ele>168.32</ele><time>2022-01-03T16:16:44Z</time></trkpt>
<trkpt lat="40.193819" lon="8.991677"><ele>160.57</ele><time>2022-01-03T16:16:46Z</time></trkpt>
<trkpt lat="40.193822" lon="8.991226"><ele>158.24</ele><time>2022-01-03T16:16:48Z</time></trkpt>
<trkpt lat="40.193882" lon="8.99085"><ele>156.12</ele><time>2022-01-03T16:16:51Z</time></trkpt>
<trkpt lat="40.194052" lon="8.990344"><ele>154.92</ele><time>2022-01-03T16:16:53Z</time></trkpt>
<trkpt lat="40.194289" lon="8.989883"><ele>149.78</ele><time>2022-01-03T16:16:55Z</time></trkpt>
<trkpt lat="40.194847" lon="8.988978"><ele>143.82</ele><time>2022-01-03T16:16:57Z</time></trkpt>
<trkpt lat="40.194847" lon="8.988978"><ele>143.82</ele><time>2022-01-03T16:16:57Z</time></trkpt>
<trkpt lat="40.194849" lon="8.988976"><ele>143.26</ele><time>2022-01-03T16:17:01Z</time></trkpt>
<trkpt lat="40.195335" lon="8.988199"><ele>143.49</ele><time>2022-01-03T16:17:04Z</time></trkpt>
<trkpt lat="40.195535" lon="8.987871"><ele>143.33</ele><time>2022-01-03T16:17:08Z</time></trkpt>
<trkpt lat="40.195736" lon="8.987543"><ele>144.3</ele><time>2022-01-03T16:17:12Z</time></trkpt>
<trkpt lat="40.195892" lon="8.98735"><ele>144.79</ele><time>2022-01-03T16:17:15Z</time></trkpt>
<trkpt lat="40.195839" lon="8.98715"><ele>143.77</ele><time>2022-01-03T16:17:19Z</time></trkpt>
<trkpt lat="40.19577" lon="8.986973"><ele>143.08</ele><time>2022-01-03T16:17:22Z</time></trkpt>
<trkpt lat="40.193825" lon="8.984406"><ele>141.32</ele><time>2022-01-03T16:17:26Z</time></trkpt>
<trkpt lat="40.193612" lon="8.984067"><ele>141.63</ele><time>2022-01-03T16:17:30Z</time></trkpt>
<trkpt lat="40.190668" lon="8.975662"><ele>145.0</ele><time>2022-01-03T16:17:33Z</time></trkpt>
<trkpt lat="40.190558" lon="8.975146"><ele>144.0</ele><time>2022-01-03T16:17:37Z</time></trkpt>
<trkpt lat="40.190363" lon="8.973734"><ele>140.83</ele><time>2022-01-03T16:17:40Z</time></trkpt>
<trkpt lat="40.190374" lon="8.973575"><ele>140.31</ele><time>2022-01-03T16:17:44Z</time></trkpt>
<trkpt lat="40.190436" lon="8.973358"><ele>139.86</ele><time>2022-01-03T16:17:47Z</time></trkpt>
<trkpt lat="40.190543" lon="8.973204"><ele>139.54</ele><time>2022-01-03T16:17:51Z</time></trkpt>
<trkpt lat="40.190797" lon="8.973074"><ele>138.2</ele><time>2022-01-03T16:17:55Z</time></trkpt>
<trkpt lat="40.191434" lon="8.972801"><ele>136.41</ele><time>2022-01-03T16:17:58Z</time></trkpt>
<trkpt lat="40.191788" lon="8.972649"><ele>138.67</ele><time>2022-01-03T16:18:02Z</time></trkpt>
<trkpt lat="40.191858" lon="8.972582"><ele>138.89</ele><time>2022-01-03T16:18:05Z</time></trkpt>
<trkpt lat="40.191891" lon="8.97251"><ele>138.83</ele><time>2022-01-03T16:18:09Z</time></trkpt>
<trkpt lat="40.191916" lon="8.972317"><ele>138.9</ele><time>2022-01-03T16:18:13Z</time></trkpt>
<trkpt lat="40.192032" lon="8.966781"><ele>138.0</ele><time>2022-01-03T16:18:16Z</time></trkpt>
<trkpt lat="40.192051" lon="8.966555"><ele>137.6</ele><time>2022-01-03T16:18:20Z</time></trkpt>
<trkpt lat="40.192124" lon="8.96629"><ele>136.64</ele><time>2022-01-03T16:18:23Z</time></trkpt>
<trkpt lat="40.192283" lon="8.965821"><ele>136.01</ele><time>2022-01-03T16:18:27Z</time></trkpt>
<trkpt lat="40.192299" lon="8.965624"><ele>136.21</ele><time>2022-01-03T16:18:30Z</time></trkpt>
<trkpt lat="40.192262" lon="8.965454"><ele>136.51</ele><time>2022-01-03T16:18:34Z</time></trkpt>
<trkpt lat="40.188336" lon="8.958568"><ele>146.81</ele><time>2022-01-03T16:18:38Z</time></trkpt>
<trkpt lat="40.187261" lon="8.956452"><ele>156.86</ele><time>2022-01-03T16:18:41Z</time></trkpt>
<trkpt lat="40.186302" lon="8.955092"><ele>157.4</ele><time>2022-01-03T16:18:45Z</time></trkpt>
<trkpt lat="40.186239" lon="8.954907"><ele>158.78</ele><time>2022-01-03T16:18:48Z</time></trkpt>
<trkpt lat="40.186239" lon="8.95471"><ele>160.27</ele><time>2022-01-03T16:18:52Z</time></trkpt>
<trkpt lat="40.186307" lon="8.954345"><ele>162.49</ele><time>2022-01-03T16:18:56Z</time></trkpt>
<trkpt lat="40.186299" lon="8.954201"><ele>163.43</ele><time>2022-01-03T16:18:59Z</time></trkpt>
<trkpt lat="40.186044" lon="8.95373"><ele>164.21</ele><time>2022-01-03T16:19:03Z</time></trkpt>
<trkpt lat="40.184907" lon="8.951775"><ele>164.32</ele><time>2022-01-03T16:19:06Z</time></trkpt>
<trkpt lat="40.183694" lon="8.950179"><ele>165.35</ele><time>2022-01-03T16:19:10Z</time></trkpt>
<trkpt lat="40.181724" lon="8.94851"><ele>165.09</ele><time>2022-01-03T16:19:13Z</time></trkpt>
<trkpt lat="40.181539" lon="8.948281"><ele>166.54</ele><time>2022-01-03T16:19:17Z</time></trkpt>
<trkpt lat="40.181323" lon="8.947353"><ele>168.72</ele><time>2022-01-03T16:19:21Z</time></trkpt>
<trkpt lat="40.181268" lon="8.946853"><ele>171.13</ele><time>2022-01-03T16:19:24Z</time></trkpt>
<trkpt lat="40.181277" lon="8.946407"><ele>175.06</ele><time>2022-01-03T16:19:28Z</time></trkpt>
<trkpt lat="40.181286" lon="8.946178"><ele>174.87</ele><time>2022-01-03T16:19:31Z</time></trkpt>
<trkpt lat="40.181254" lon="8.945925"><ele>174.08</ele><time>2022-01-03T16:19:35Z</time></trkpt>
<trkpt lat="40.181176" lon="8.945732"><ele>174.27</ele><time>2022-01-03T16:19:39Z</time></trkpt>
<trkpt lat="40.180702" lon="8.945334"><ele>176.19</ele><time>2022-01-03T16:19:42Z</time></trkpt>
<trkpt lat="40.180453" lon="8.944967"><ele>177.81</ele><time>2022-01-03T16:19:46Z</time></trkpt>
<trkpt lat="40.18032" lon="8.944533"><ele>176.94</ele><time>2022-01-03T16:19:49Z</time></trkpt>
<trkpt lat="40.180149" lon="8.943358"><ele>173.29</ele><time>2022-01-03T16:19:53Z</time></trkpt>
<trkpt lat="40.180053" lon="8.943039"><ele>171.67</ele><time>2022-01-03T16:19:56Z</time></trkpt>
<trkpt lat="40.179887" lon="8.942888"><ele>172.66</ele><time>2022-01-03T16:20:00Z</time></trkpt>
<trkpt lat="40.179677" lon="8.942808"><ele>175.18</ele><time>2022-01-03T16:20:04Z</time></trkpt>
<trkpt lat="40.179319" lon="8.942838"><ele>181.06</ele><time>2022-01-03T16:20:07Z</time></trkpt>
<trkpt lat="40.17917" lon="8.942832"><ele>181.96</ele><time>2022-01-03T16:20:11Z</time></trkpt>
<trkpt lat="40.179003" lon="8.94279"><ele>181.87</ele><time>2022-01-03T16:20:14Z</time></trkpt>
<trkpt lat="40.178626" lon="8.942623"><ele>182.53</ele><time>2022-01-03T16:20:18Z</time></trkpt>
<trkpt lat="40.178151" lon="8.942496"><ele>187.85</ele><time>2022-01-03T16:20:22Z</time></trkpt>
<trkpt lat="40.177794" lon="8.942479"><ele>192.22</ele><time>2022-01-03T16:20:25Z</time></trkpt>
<trkpt lat="40.176994" lon="8.942514"><ele>193.09</ele><time>2022-01-03T16:20:29Z</time></trkpt>
<trkpt lat="40.176746" lon="8.942567"><ele>194.21</ele><time>2022-01-03T16:20:32Z</time></trkpt>
<trkpt lat="40.176389" lon="8.942718"><ele>196.7</ele><time>2022-01-03T16:20:36Z</time></trkpt>
<trkpt lat="40.175814" lon="8.942823"><ele>203.24</ele><time>2022-01-03T16:20:40Z</time></trkpt>
<trkpt lat="40.175572" lon="8.942846"><ele>206.77</ele><time>2022-01-03T16:20:43Z</time></trkpt>
<trkpt lat="40.175365" lon="8.942778"><ele>208.06</ele><time>2022-01-03T16:20:47Z</time></trkpt>
<trkpt lat="40.173224" lon="8.941543"><ele>222.2</ele><time>2022-01-03T16:20:50Z</time></trkpt>
<trkpt lat="40.173023" lon="8.941294"><ele>225.35</ele><time>2022-01-03T16:20:54Z</time></trkpt>
<trkpt lat="40.172873" lon="8.941053"><ele>229.58</ele><time>2022-01-03T16:20:57Z</time></trkpt>
<trkpt lat="40.172856" lon="8.94079"><ele>230.4</ele><time>2022-01-03T16:21:01Z</time></trkpt>
<trkpt lat="40.172902" lon="8.940586"><ele>231.05</ele><time>2022-01-03T16:21:05Z</time></trkpt>
<trkpt lat="40.173092" lon="8.940398"><ele>230.17</ele><time>2022-01-03T16:21:08Z</time></trkpt>
<trkpt lat="40.173345" lon="8.940074"><ele>229.59</ele><time>2022-01-03T16:21:12Z</time></trkpt>
<trkpt lat="40.173529" lon="8.939735"><ele>229.18</ele><time>2022-01-03T16:21:15Z</time></trkpt>
<trkpt lat="40.173598" lon="8.939381"><ele>231.52</ele><time>2022-01-03T16:21:19Z</time></trkpt>
<trkpt lat="40.173587" lon="8.93911"><ele>232.8</ele><time>2022-01-03T16:21:23Z</time></trkpt>
<trkpt lat="40.173138" lon="8.937461"><ele>243.76</ele><time>2022-01-03T16:21:26Z</time></trkpt>
<trkpt lat="40.172994" lon="8.937159"><ele>246.78</ele><time>2022-01-03T16:21:30Z</time></trkpt>
<trkpt lat="40.172908" lon="8.936911"><ele>249.61</ele><time>2022-01-03T16:21:33Z</time></trkpt>
<trkpt lat="40.172798" lon="8.936014"><ele>253.46</ele><time>2022-01-03T16:21:37Z</time></trkpt>
<trkpt lat="40.172614" lon="8.935216"><ele>257.45</ele><time>2022-01-03T16:21:40Z</time></trkpt>
<trkpt lat="40.172384" lon="8.934463"><ele>261.26</ele><time>2022-01-03T16:21:44Z</time></trkpt>
<trkpt lat="40.17232" lon="8.934086"><ele>261.33</ele><time>2022-01-03T16:21:48Z</time></trkpt>
<trkpt lat="40.172297" lon="8.933702"><ele>261.37</ele><time>2022-01-03T16:21:51Z</time></trkpt>
<trkpt lat="40.172211" lon="8.933326"><ele>263.2</ele><time>2022-01-03T16:21:55Z</time></trkpt>
<trkpt lat="40.172037" lon="8.932813"><ele>266.55</ele><time>2022-01-03T16:21:58Z</time></trkpt>
<trkpt lat="40.171883" lon="8.932187"><ele>269.63</ele><time>2022-01-03T16:22:02Z</time></trkpt>
<trkpt lat="40.170911" lon="8.932426"><ele>272.27</ele><time>2022-01-03T16:22:17Z</time></trkpt>
<trkpt lat="40.170536" lon="8.933825"><ele>271.45</ele><time>2022-01-03T16:22:22Z</time></trkpt>
<trkpt lat="40.170459" lon="8.93423"><ele>270.08</ele><time>2022-01-03T16:22:26Z</time></trkpt>
<trkpt lat="40.170411" lon="8.934867"><ele>271.0</ele><time>2022-01-03T16:22:30Z</time></trkpt>
<trkpt lat="40.170389" lon="8.9354"><ele>269.73</ele><time>2022-01-03T16:22:35Z</time></trkpt>
<trkpt lat="40.17039" lon="8.936051"><ele>269.19</ele><time>2022-01-03T16:22:39Z</time></trkpt>
<trkpt lat="40.170348" lon="8.93686"><ele>270.27</ele><time>2022-01-03T16:22:43Z</time></trkpt>
<trkpt lat="40.170225" lon="8.937292"><ele>269.45</ele><time>2022-01-03T16:22:48Z</time></trkpt>
<trkpt lat="40.170135" lon="8.937492"><ele>267.55</ele><time>2022-01-03T16:22:52Z</time></trkpt>
<trkpt lat="40.170036" lon="8.93786"><ele>265.57</ele><time>2022-01-03T16:22:57Z</time></trkpt>
<trkpt lat="40.169806" lon="8.939438"><ele>265.98</ele><time>2022-01-03T16:23:01Z</time></trkpt>
<trkpt lat="40.169667" lon="8.939928"><ele>265.26</ele><time>2022-01-03T16:23:05Z</time></trkpt>
<trkpt lat="40.16952" lon="8.940335"><ele>263.73</ele><time>2022-01-03T16:23:10Z</time></trkpt>
<trkpt lat="40.169175" lon="8.940736"><ele>264.99</ele><time>2022-01-03T16:23:14Z</time></trkpt>
<trkpt lat="40.169052" lon="8.940779"><ele>264.92</ele><time>2022-01-03T16:23:19Z</time></trkpt>
<trkpt lat="40.168954" lon="8.940757"><ele>264.79</ele><time>2022-01-03T16:23:23Z</time></trkpt>
<trkpt lat="40.168151" lon="8.940189"><ele>263.89</ele><time>2022-01-03T16:23:27Z</time></trkpt>
<trkpt lat="40.167339" lon="8.939717"><ele>263.42</ele><time>2022-01-03T16:23:32Z</time></trkpt>
<trkpt lat="40.166863" lon="8.939416"><ele>264.1</ele><time>2022-01-03T16:23:36Z</time></trkpt>
<trkpt lat="40.166568" lon="8.93932"><ele>264.25</ele><time>2022-01-03T16:23:40Z</time></trkpt>
<trkpt lat="40.165962" lon="8.939223"><ele>264.0</ele><time>2022-01-03T16:23:45Z</time></trkpt>
<trkpt lat="40.165511" lon="8.939116"><ele>262.87</ele><time>2022-01-03T16:23:49Z</time></trkpt>
<trkpt lat="40.165388" lon="8.939137"><ele>262.46</ele><time>2022-01-03T16:23:54Z</time></trkpt>
<trkpt lat="40.164819" lon="8.939567"><ele>261.5</ele><time>2022-01-03T16:23:58Z</time></trkpt>
<trkpt lat="40.164437" lon="8.939778"><ele>261.78</ele><time>2022-01-03T16:24:02Z</time></trkpt>
<trkpt lat="40.163986" lon="8.940296"><ele>259.37</ele><time>2022-01-03T16:24:07Z</time></trkpt>
<trkpt lat="40.163338" lon="8.940371"><ele>257.34</ele><time>2022-01-03T16:24:11Z</time></trkpt>
<trkpt lat="40.162813" lon="8.940339"><ele>252.24</ele><time>2022-01-03T16:24:15Z</time></trkpt>
<trkpt lat="40.162723" lon="8.940253"><ele>249.99</ele><time>2022-01-03T16:24:20Z</time></trkpt>
<trkpt lat="40.162698" lon="8.940114"><ele>249.06</ele><time>2022-01-03T16:24:24Z</time></trkpt>
<trkpt lat="40.162748" lon="8.939824"><ele>250.1</ele><time>2022-01-03T16:24:29Z</time></trkpt>
<trkpt lat="40.162928" lon="8.939277"><ele>251.3</ele><time>2022-01-03T16:24:33Z</time></trkpt>
<trkpt lat="40.163838" lon="8.9377"><ele>253.34</ele><time>2022-01-03T16:24:37Z</time></trkpt>
<trkpt lat="40.163969" lon="8.937592"><ele>252.34</ele><time>2022-01-03T16:24:42Z</time></trkpt>
<trkpt lat="40.164937" lon="8.937367"><ele>254.04</ele><time>2022-01-03T16:24:46Z</time></trkpt>
<trkpt lat="40.16571" lon="8.937255"><ele>253.43</ele><time>2022-01-03T16:24:50Z</time></trkpt>
<trkpt lat="40.165925" lon="8.937296"><ele>251.45</ele><time>2022-01-03T16:24:55Z</time></trkpt>
<trkpt lat="40.166224" lon="8.937299"><ele>249.51</ele><time>2022-01-03T16:24:59Z</time></trkpt>
<trkpt lat="40.166432" lon="8.937337"><ele>250.91</ele><time>2022-01-03T16:25:04Z</time></trkpt>
<trkpt lat="40.166592" lon="8.937314"><ele>250.55</ele><time>2022-01-03T16:25:08Z</time></trkpt>
<trkpt lat="40.167026" lon="8.937195"><ele>250.12</ele><time>2022-01-03T16:25:12Z</time></trkpt>
<trkpt lat="40.167056" lon="8.937118"><ele>249.08</ele><time>2022-01-03T16:25:17Z</time></trkpt>
<trkpt lat="40.167059" lon="8.937046"><ele>247.9</ele><time>2022-01-03T16:25:21Z</time></trkpt>
<trkpt lat="40.167035" lon="8.936955"><ele>246.16</ele><time>2022-01-03T16:25:25Z</time></trkpt>
<trkpt lat="40.16699" lon="8.936889"><ele>244.7</ele><time>2022-01-03T16:25:30Z</time></trkpt>
<trkpt lat="40.166827" lon="8.936808"><ele>242.4</ele><time>2022-01-03T16:25:34Z</time></trkpt>
<trkpt lat="40.166536" lon="8.936728"><ele>239.54</ele><time>2022-01-03T16:25:39Z</time></trkpt>
<trkpt lat="40.166331" lon="8.936702"><ele>238.51</ele><time>2022-01-03T16:25:43Z</time></trkpt>
<trkpt lat="40.166241" lon="8.93663"><ele>237.41</ele><time>2022-01-03T16:25:47Z</time></trkpt>
<trkpt lat="40.166185" lon="8.936553"><ele>236.07</ele><time>2022-01-03T16:25:52Z</time></trkpt>
<trkpt lat="40.166176" lon="8.936465"><ele>234.54</ele><time>2022-01-03T16:25:56Z</time></trkpt>
<trkpt lat="40.166201" lon="8.936374"><ele>233.14</ele><time>2022-01-03T16:26:00Z</time></trkpt>
<trkpt lat="40.166421" lon="8.935897"><ele>228.83</ele><time>2022-01-03T16:26:05Z</time></trkpt>
<trkpt lat="40.166472" lon="8.935738"><ele>228.65</ele><time>2022-01-03T16:26:09Z</time></trkpt>
<trkpt lat="40.166486" lon="8.935629"><ele>228.57</ele><time>2022-01-03T16:26:14Z</time></trkpt>
<trkpt lat="40.166485" lon="8.935491"><ele>227.93</ele><time>2022-01-03T16:26:18Z</time></trkpt>
<trkpt lat="40.166462" lon="8.935361"><ele>226.5</ele><time>2022-01-03T16:26:22Z</time></trkpt>
<trkpt lat="40.166295" lon="8.93512"><ele>221.65</ele><time>2022-01-03T16:26:27Z</time></trkpt>
<trkpt lat="40.166404" lon="8.934792"><ele>221.6</ele><time>2022-01-03T16:26:30Z</time></trkpt>
<trkpt lat="40.166515" lon="8.934399"><ele>222.3</ele><time>2022-01-03T16:26:33Z</time></trkpt>
<trkpt lat="40.166526" lon="8.934287"><ele>221.53</ele><time>2022-01-03T16:26:36Z</time></trkpt>
<trkpt lat="40.166213" lon="8.933196"><ele>205.72</ele><time>2022-01-03T16:26:39Z</time></trkpt>
<trkpt lat="40.166077" lon="8.933108"><ele>201.96</ele><time>2022-01-03T16:26:42Z</time></trkpt>
<trkpt lat="40.165855" lon="8.933108"><ele>198.13</ele><time>2022-01-03T16:26:44Z</time></trkpt>
<trkpt lat="40.16546" lon="8.933212"><ele>197.05</ele><time>2022-01-03T16:26:47Z</time></trkpt>
<trkpt lat="40.165217" lon="8.933208"><ele>196.76</ele><time>2022-01-03T16:26:50Z</time></trkpt>
<trkpt lat="40.16514" lon="8.933142"><ele>196.09</ele><time>2022-01-03T16:26:53Z</time></trkpt>
<trkpt lat="40.165082" lon="8.933059"><ele>195.05</ele><time>2022-01-03T16:26:56Z</time></trkpt>
<trkpt lat="40.165053" lon="8.932935"><ele>193.62</ele><time>2022-01-03T16:26:59Z</time></trkpt>
<trkpt lat="40.165065" lon="8.932718"><ele>190.96</ele><time>2022-01-03T16:27:02Z</time></trkpt>
<trkpt lat="40.16578" lon="8.931662"><ele>188.77</ele><time>2022-01-03T16:27:06Z</time></trkpt>
<trkpt lat="40.166015" lon="8.931242"><ele>190.4</ele><time>2022-01-03T16:27:10Z</time></trkpt>
<trkpt lat="40.166187" lon="8.930814"><ele>192.24</ele><time>2022-01-03T16:27:15Z</time></trkpt>
<trkpt lat="40.16629" lon="8.930459"><ele>192.39</ele><time>2022-01-03T16:27:19Z</time></trkpt>
<trkpt lat="40.166367" lon="8.930103"><ele>192.18</ele><time>2022-01-03T16:27:23Z</time></trkpt>
<trkpt lat="40.166409" lon="8.929808"><ele>193.75</ele><time>2022-01-03T16:27:28Z</time></trkpt>
<trkpt lat="40.166406" lon="8.929648"><ele>194.6</ele><time>2022-01-03T16:27:32Z</time></trkpt>
<trkpt lat="40.166379" lon="8.929504"><ele>194.59</ele><time>2022-01-03T16:27:36Z</time></trkpt>
<trkpt lat="40.166336" lon="8.929372"><ele>194.61</ele><time>2022-01-03T16:27:40Z</time></trkpt>
<trkpt lat="40.166124" lon="8.929055"><ele>194.78</ele><time>2022-01-03T16:27:45Z</time></trkpt>
<trkpt lat="40.165543" lon="8.928312"><ele>203.03</ele><time>2022-01-03T16:27:49Z</time></trkpt>
<trkpt lat="40.165296" lon="8.928021"><ele>203.07</ele><time>2022-01-03T16:27:53Z</time></trkpt>
<trkpt lat="40.165641" lon="8.926821"><ele>201.69</ele><time>2022-01-03T16:27:57Z</time></trkpt>
<trkpt lat="40.165727" lon="8.926476"><ele>201.85</ele><time>2022-01-03T16:28:01Z</time></trkpt>
<trkpt lat="40.16576" lon="8.926221"><ele>203.58</ele><time>2022-01-03T16:28:04Z</time></trkpt>
<trkpt lat="40.16574" lon="8.925999"><ele>205.94</ele><time>2022-01-03T16:28:08Z</time></trkpt>
<trkpt lat="40.165653" lon="8.925821"><ele>207.87</ele><time>2022-01-03T16:28:12Z</time></trkpt>
<trkpt lat="40.165488" lon="8.925652"><ele>208.22</ele><time>2022-01-03T16:28:15Z</time></trkpt>
<trkpt lat="40.165281" lon="8.925551"><ele>207.11</ele><time>2022-01-03T16:28:19Z</time></trkpt>
<trkpt lat="40.164965" lon="8.925363"><ele>206.73</ele><time>2022-01-03T16:28:23Z</time></trkpt>
<trkpt lat="40.164677" lon="8.925054"><ele>208.35</ele><time>2022-01-03T16:28:26Z</time></trkpt>
<trkpt lat="40.164423" lon="8.924611"><ele>206.66</ele><time>2022-01-03T16:28:30Z</time></trkpt>
<trkpt lat="40.164228" lon="8.924042"><ele>210.55</ele><time>2022-01-03T16:28:34Z</time></trkpt>
<trkpt lat="40.164077" lon="8.92342"><ele>212.09</ele><time>2022-01-03T16:28:37Z</time></trkpt>
<trkpt lat="40.164044" lon="8.922856"><ele>212.49</ele><time>2022-01-03T16:28:41Z</time></trkpt>
<trkpt lat="40.164103" lon="8.92222"><ele>210.84</ele><time>2022-01-03T16:28:44Z</time></trkpt>
<trkpt lat="40.164287" lon="8.921743"><ele>211.4</ele><time>2022-01-03T16:28:48Z</time></trkpt>
<trkpt lat="40.164593" lon="8.921343"><ele>210.41</ele><time>2022-01-03T16:28:52Z</time></trkpt>
<trkpt lat="40.164965" lon="8.921087"><ele>209.61</ele><time>2022-01-03T16:28:55Z</time></trkpt>
<trkpt lat="40.165348" lon="8.920986"><ele>212.48</ele><time>2022-01-03T16:28:59Z</time></trkpt>
<trkpt lat="40.165838" lon="8.921015"><ele>216.61</ele><time>2022-01-03T16:29:03Z</time></trkpt>
<trkpt lat="40.167472" lon="8.921241"><ele>229.29</ele><time>2022-01-03T16:29:06Z</time></trkpt>
<trkpt lat="40.167595" lon="8.921213"><ele>229.6</ele><time>2022-01-03T16:29:10Z</time></trkpt>
<trkpt lat="40.167724" lon="8.921134"><ele>229.69</ele><time>2022-01-03T16:29:14Z</time></trkpt>
<trkpt lat="40.167823" lon="8.921034"><ele>230.58</ele><time>2022-01-03T16:29:17Z</time></trkpt>
<trkpt lat="40.16791" lon="8.920876"><ele>231.93</ele><time>2022-01-03T16:29:21Z</time></trkpt>
<trkpt lat="40.167952" lon="8.92075"><ele>233.36</ele><time>2022-01-03T16:29:25Z</time></trkpt>
<trkpt lat="40.167972" lon="8.920484"><ele>235.96</ele><time>2022-01-03T16:29:28Z</time></trkpt>
<trkpt lat="40.167949" lon="8.920332"><ele>237.12</ele><time>2022-01-03T16:29:32Z</time></trkpt>
<trkpt lat="40.167724" lon="8.919709"><ele>241.16</ele><time>2022-01-03T16:29:36Z</time></trkpt>
<trkpt lat="40.167683" lon="8.919299"><ele>243.99</ele><time>2022-01-03T16:29:39Z</time></trkpt>
<trkpt lat="40.167694" lon="8.918971"><ele>244.31</ele><time>2022-01-03T16:29:43Z</time></trkpt>
<trkpt lat="40.167801" lon="8.918581"><ele>244.31</ele><time>2022-01-03T16:29:47Z</time></trkpt>
<trkpt lat="40.16792" lon="8.918351"><ele>245.62</ele><time>2022-01-03T16:29:50Z</time></trkpt>
<trkpt lat="40.168055" lon="8.918152"><ele>247.34</ele><time>2022-01-03T16:29:54Z</time></trkpt>
<trkpt lat="40.168733" lon="8.917612"><ele>254.77</ele><time>2022-01-03T16:29:58Z</time></trkpt>
<trkpt lat="40.16902" lon="8.917313"><ele>258.81</ele><time>2022-01-03T16:30:01Z</time></trkpt>
<trkpt lat="40.169263" lon="8.91685"><ele>263.1</ele><time>2022-01-03T16:30:05Z</time></trkpt>
<trkpt lat="40.16937" lon="8.916571"><ele>265.04</ele><time>2022-01-03T16:30:09Z</time></trkpt>
<trkpt lat="40.169451" lon="8.916302"><ele>267.11</ele><time>2022-01-03T16:30:12Z</time></trkpt>
<trkpt lat="40.169677" lon="8.915332"><ele>271.29</ele><time>2022-01-03T16:30:16Z</time></trkpt>
<trkpt lat="40.169776" lon="8.915063"><ele>273.2</ele><time>2022-01-03T16:30:19Z</time></trkpt>
<trkpt lat="40.170225" lon="8.91416"><ele>276.81</ele><time>2022-01-03T16:30:23Z</time></trkpt>
<trkpt lat="40.170567" lon="8.913749"><ele>277.52</ele><time>2022-01-03T16:30:27Z</time></trkpt>
<trkpt lat="40.170946" lon="8.913396"><ele>278.09</ele><time>2022-01-03T16:30:30Z</time></trkpt>
<trkpt lat="40.171092" lon="8.913304"><ele>277.9</ele><time>2022-01-03T16:30:34Z</time></trkpt>
<trkpt lat="40.17152" lon="8.913099"><ele>280.17</ele><time>2022-01-03T16:30:38Z</time></trkpt>
<trkpt lat="40.172529" lon="8.912701"><ele>286.83</ele><time>2022-01-03T16:30:41Z</time></trkpt>
<trkpt lat="40.173603" lon="8.912401"><ele>290.58</ele><time>2022-01-03T16:30:45Z</time></trkpt>
<trkpt lat="40.174581" lon="8.912197"><ele>288.95</ele><time>2022-01-03T16:30:49Z</time></trkpt>
<trkpt lat="40.174822" lon="8.912205"><ele>289.3</ele><time>2022-01-03T16:30:52Z</time></trkpt>
<trkpt lat="40.174983" lon="8.912174"><ele>289.77</ele><time>2022-01-03T16:30:54Z</time></trkpt>
<trkpt lat="40.175086" lon="8.912092"><ele>289.53</ele><time>2022-01-03T16:30:55Z</time></trkpt>
<trkpt lat="40.175051" lon="8.911535"><ele>288.39</ele><time>2022-01-03T16:31:10Z</time></trkpt>
<trkpt lat="40.175053" lon="8.911335"><ele>288.81</ele><time>2022-01-03T16:31:25Z</time></trkpt>
<trkpt lat="40.175299" lon="8.908611"><ele>291.08</ele><time>2022-01-03T16:31:40Z</time></trkpt>
<trkpt lat="40.176015" lon="8.901188"><ele>300.47</ele><time>2022-01-03T16:31:55Z</time></trkpt>
<trkpt lat="40.176169" lon="8.89985"><ele>299.09</ele><time>2022-01-03T16:32:09Z</time></trkpt>
<trkpt lat="40.176701" lon="8.895675"><ele>297.55</ele><time>2022-01-03T16:32:24Z</time></trkpt>
<trkpt lat="40.17689" lon="8.894076"><ele>297.8</ele><time>2022-01-03T16:32:39Z</time></trkpt>
<trkpt lat="40.177554" lon="8.887337"><ele>290.11</ele><time>2022-01-03T16:32:54Z</time></trkpt>
<trkpt lat="40.178058" lon="8.882527"><ele>298.9</ele><time>2022-01-03T16:33:09Z</time></trkpt>
<trkpt lat="40.178333" lon="8.879603"><ele>306.57</ele><time>2022-01-03T16:33:23Z</time></trkpt>
<trkpt lat="40.178333" lon="8.879281"><ele>306.0</ele><time>2022-01-03T16:33:38Z</time></trkpt>
<trkpt lat="40.178279" lon="8.878946"><ele>305.36</ele><time>2022-01-03T16:33:53Z</time></trkpt>
<trkpt lat="40.177028" lon="8.873943"><ele>317.7</ele><time>2022-01-03T16:34:08Z</time></trkpt>
<trkpt lat="40.176947" lon="8.873541"><ele>318.0</ele><time>2022-01-03T16:34:23Z</time></trkpt>
<trkpt lat="40.176923" lon="8.873079"><ele>317.01</ele><time>2022-01-03T16:34:37Z</time></trkpt>
<trkpt lat="40.178037" lon="8.865089"><ele>317.91</ele><time>2022-01-03T16:34:52Z</time></trkpt>
<trkpt lat="40.178677" lon="8.860302"><ele>323.26</ele><time>2022-01-03T16:35:07Z</time></trkpt>
<trkpt lat="40.178824" lon="8.859593"><ele>322.23</ele><time>2022-01-03T16:35:22Z</time></trkpt>
<trkpt lat="40.178947" lon="8.859164"><ele>322.99</ele><time>2022-01-03T16:35:37Z</time></trkpt>
<trkpt lat="40.181989" lon="8.852405"><ele>319.79</ele><time>2022-01-03T16:35:52Z</time></trkpt>
<trkpt lat="40.182193" lon="8.85204"><ele>321.58</ele><time>2022-01-03T16:36:06Z</time></trkpt>
<trkpt lat="40.182521" lon="8.851729"><ele>319.05</ele><time>2022-01-03T16:36:21Z</time></trkpt>
<trkpt lat="40.182931" lon="8.851482"><ele>315.08</ele><time>2022-01-03T16:36:36Z</time></trkpt>
<trkpt lat="40.184964" lon="8.850946"><ele>314.25</ele><time>2022-01-03T16:36:51Z</time></trkpt>
<trkpt lat="40.185218" lon="8.850828"><ele>316.33</ele><time>2022-01-03T16:37:06Z</time></trkpt>
<trkpt lat="40.185546" lon="8.850603"><ele>317.77</ele><time>2022-01-03T16:37:20Z</time></trkpt>
<trkpt lat="40.185825" lon="8.850302"><ele>318.88</ele><time>2022-01-03T16:37:35Z</time></trkpt>
<trkpt lat="40.190259" lon="8.844895"><ele>331.65</ele><time>2022-01-03T16:37:50Z</time></trkpt>
<trkpt lat="40.19796" lon="8.835567"><ele>355.0</ele><time>2022-01-03T16:38:05Z</time></trkpt>
<trkpt lat="40.200191" lon="8.832793"><ele>362.69</ele><time>2022-01-03T16:38:20Z</time></trkpt>
<trkpt lat="40.204706" lon="8.827375"><ele>380.89</ele><time>2022-01-03T16:38:34Z</time></trkpt>
<trkpt lat="40.204919" lon="8.827043"><ele>382.61</ele><time>2022-01-03T16:38:49Z</time></trkpt>
<trkpt lat="40.206001" lon="8.822837"><ele>378.6</ele><time>2022-01-03T16:39:04Z</time></trkpt>
<trkpt lat="40.208287" lon="8.813728"><ele>374.9</ele><time>2022-01-03T16:39:19Z</time></trkpt>
<trkpt lat="40.20878" lon="8.811911"><ele>378.93</ele><time>2022-01-03T16:39:34Z</time></trkpt>
<trkpt lat="40.20889" lon="8.811774"><ele>378.39</ele><time>2022-01-03T16:39:35Z</time></trkpt>
<trkpt lat="40.209086" lon="8.811636"><ele>378.0</ele><time>2022-01-03T16:39:37Z</time></trkpt>
<trkpt lat="40.209293" lon="8.811579"><ele>378.31</ele><time>2022-01-03T16:39:38Z</time></trkpt>
<trkpt lat="40.209476" lon="8.811671"><ele>379.0</ele><time>2022-01-03T16:39:40Z</time></trkpt>
<trkpt lat="40.209669" lon="8.81173"><ele>379.18</ele><time>2022-01-03T16:39:41Z</time></trkpt>
<trkpt lat="40.209898" lon="8.811734"><ele>379.09</ele><time>2022-01-03T16:39:43Z</time></trkpt>
<trkpt lat="40.210103" lon="8.811661"><ele>378.96</ele><time>2022-01-03T16:39:44Z</time></trkpt>
<trkpt lat="40.210262" lon="8.811647"><ele>378.92</ele><time>2022-01-03T16:39:46Z</time></trkpt>
<trkpt lat="40.210433" lon="8.811695"><ele>379.56</ele><time>2022-01-03T16:39:47Z</time></trkpt>
<trkpt lat="40.21" lon="8.810584"><ele>379.8</ele><time>2022-01-03T16:39:52Z</time></trkpt>
<trkpt lat="40.20977" lon="8.809924"><ele>380.95</ele><time>2022-01-03T16:39:58Z</time></trkpt>
<trkpt lat="40.209603" lon="8.809337"><ele>380.43</ele><time>2022-01-03T16:40:03Z</time></trkpt>
<trkpt lat="40.209491" lon="8.808739"><ele>381.76</ele><time>2022-01-03T16:40:08Z</time></trkpt>
<trkpt lat="40.209392" lon="8.808062"><ele>383.79</ele><time>2022-01-03T16:40:13Z</time></trkpt>
<trkpt lat="40.209359" lon="8.807294"><ele>384.69</ele><time>2022-01-03T16:40:19Z</time></trkpt>
<trkpt lat="40.209378" lon="8.80657"><ele>383.5</ele><time>2022-01-03T16:40:24Z</time></trkpt>
<trkpt lat="40.209571" lon="8.80514"><ele>383.19</ele><time>2022-01-03T16:40:29Z</time></trkpt>
<trkpt lat="40.209981" lon="8.803316"><ele>386.93</ele><time>2022-01-03T16:40:34Z</time></trkpt>
<trkpt lat="40.210344" lon="8.801524"><ele>382.97</ele><time>2022-01-03T16:40:40Z</time></trkpt>
<trkpt lat="40.210507" lon="8.800537"><ele>380.99</ele><time>2022-01-03T16:40:45Z</time></trkpt>
<trkpt lat="40.211032" lon="8.795543"><ele>388.43</ele><time>2022-01-03T16:40:50Z</time></trkpt>
<trkpt lat="40.211175" lon="8.794255"><ele>391.84</ele><time>2022-01-03T16:40:55Z</time></trkpt>
<trkpt lat="40.211252" lon="8.793711"><ele>395.66</ele><time>2022-01-03T16:41:01Z</time></trkpt>
<trkpt lat="40.211341" lon="8.792813"><ele>399.53</ele><time>2022-01-03T16:41:06Z</time></trkpt>
<trkpt lat="40.211385" lon="8.791954"><ele>401.93</ele><time>2022-01-03T16:41:11Z</time></trkpt>
<trkpt lat="40.211398" lon="8.790904"><ele>408.75</ele><time>2022-01-03T16:41:16Z</time></trkpt>
<trkpt lat="40.211214" lon="8.789015"><ele>413.37</ele><time>2022-01-03T16:41:22Z</time></trkpt>
<trkpt lat="40.211143" lon="8.788129"><ele>415.82</ele><time>2022-01-03T16:41:27Z</time></trkpt>
<trkpt lat="40.211046" lon="8.787665"><ele>417.86</ele><time>2022-01-03T16:41:32Z</time></trkpt>
<trkpt lat="40.210909" lon="8.787231"><ele>417.3</ele><time>2022-01-03T16:41:37Z</time></trkpt>
<trkpt lat="40.210388" lon="8.785867"><ele>422.48</ele><time>2022-01-03T16:41:43Z</time></trkpt>
<trkpt lat="40.210264" lon="8.785585"><ele>423.05</ele><time>2022-01-03T16:41:48Z</time></trkpt>
<trkpt lat="40.210096" lon="8.785061"><ele>424.16</ele><time>2022-01-03T16:41:53Z</time></trkpt>
<trkpt lat="40.210019" lon="8.784661"><ele>425.08</ele><time>2022-01-03T16:41:58Z</time></trkpt>
<trkpt lat="40.209966" lon="8.784282"><ele>425.83</ele><time>2022-01-03T16:42:03Z</time></trkpt>
<trkpt lat="40.209893" lon="8.783514"><ele>427.25</ele><time>2022-01-03T16:42:09Z</time></trkpt>
<trkpt lat="40.209874" lon="8.783041"><ele>426.48</ele><time>2022-01-03T16:42:14Z</time></trkpt>
<trkpt lat="40.209892" lon="8.782544"><ele>428.36</ele><time>2022-01-03T16:42:19Z</time></trkpt>
<trkpt lat="40.209929" lon="8.782219"><ele>428.74</ele><time>2022-01-03T16:42:24Z</time></trkpt>
<trkpt lat="40.210047" lon="8.781961"><ele>429.0</ele><time>2022-01-03T16:42:27Z</time></trkpt>
<trkpt lat="40.210148" lon="8.781866"><ele>429.0</ele><time>2022-01-03T16:42:30Z</time></trkpt>
<trkpt lat="40.210313" lon="8.78184"><ele>428.87</ele><time>2022-01-03T16:42:33Z</time></trkpt>
<trkpt lat="40.210432" lon="8.781863"><ele>428.44</ele><time>2022-01-03T16:42:36Z</time></trkpt>
<trkpt lat="40.210548" lon="8.781923"><ele>428.03</ele><time>2022-01-03T16:42:39Z</time></trkpt>
<trkpt lat="40.210788" lon="8.782178"><ele>428.0</ele><time>2022-01-03T16:42:42Z</time></trkpt>
<trkpt lat="40.211125" lon="8.782591"><ele>426.64</ele><time>2022-01-03T16:42:45Z</time></trkpt>
<trkpt lat="40.211209" lon="8.782614"><ele>426.38</ele><time>2022-01-03T16:42:50Z</time></trkpt>
<trkpt lat="40.211305" lon="8.782605"><ele>426.19</ele><time>2022-01-03T16:42:55Z</time></trkpt>
<trkpt lat="40.211674" lon="8.782387"><ele>427.0</ele><time>2022-01-03T16:43:01Z</time></trkpt>
<trkpt lat="40.211799" lon="8.782379"><ele>427.0</ele><time>2022-01-03T16:43:06Z</time></trkpt>
<trkpt lat="40.211964" lon="8.782417"><ele>427.05</ele><time>2022-01-03T16:43:12Z</time></trkpt>
<trkpt lat="40.212249" lon="8.782681"><ele>428.71</ele><time>2022-01-03T16:43:17Z</time></trkpt>
<trkpt lat="40.212512" lon="8.782895"><ele>429.94</ele><time>2022-01-03T16:43:23Z</time></trkpt>
<trkpt lat="40.212851" lon="8.783056"><ele>427.74</ele><time>2022-01-03T16:43:28Z</time></trkpt>
<trkpt lat="40.213138" lon="8.783086"><ele>427.3</ele><time>2022-01-03T16:43:33Z</time></trkpt>
<trkpt lat="40.213296" lon="8.783062"><ele>427.86</ele><time>2022-01-03T16:43:39Z</time></trkpt>
<trkpt lat="40.216359" lon="8.78212"><ele>431.37</ele><time>2022-01-03T16:43:44Z</time></trkpt>
<trkpt lat="40.217357" lon="8.781764"><ele>432.65</ele><time>2022-01-03T16:43:50Z</time></trkpt>
<trkpt lat="40.21795" lon="8.781501"><ele>433.0</ele><time>2022-01-03T16:43:55Z</time></trkpt>
<trkpt lat="40.219171" lon="8.780886"><ele>432.81</ele><time>2022-01-03T16:44:01Z</time></trkpt>
<trkpt lat="40.220149" lon="8.780511"><ele>433.08</ele><time>2022-01-03T16:44:06Z</time></trkpt>
<trkpt lat="40.221495" lon="8.780084"><ele>434.08</ele><time>2022-01-03T16:44:11Z</time></trkpt>
<trkpt lat="40.223726" lon="8.779656"><ele>433.24</ele><time>2022-01-03T16:44:17Z</time></trkpt>
<trkpt lat="40.224524" lon="8.779407"><ele>434.85</ele><time>2022-01-03T16:44:22Z</time></trkpt>
<trkpt lat="40.225391" lon="8.779084"><ele>431.88</ele><time>2022-01-03T16:44:28Z</time></trkpt>
<trkpt lat="40.226025" lon="8.778797"><ele>432.36</ele><time>2022-01-03T16:44:33Z</time></trkpt>
<trkpt lat="40.226228" lon="8.778665"><ele>433.03</ele><time>2022-01-03T16:44:39Z</time></trkpt>
<trkpt lat="40.22708" lon="8.77808"><ele>431.66</ele><time>2022-01-03T16:44:44Z</time></trkpt>
<trkpt lat="40.227888" lon="8.777432"><ele>429.6</ele><time>2022-01-03T16:44:49Z</time></trkpt>
<trkpt lat="40.228084" lon="8.777299"><ele>428.97</ele><time>2022-01-03T16:44:55Z</time></trkpt>
<trkpt lat="40.238616" lon="8.771686"><ele>413.98</ele><time>2022-01-03T16:45:00Z</time></trkpt>
<trkpt lat="40.238631" lon="8.77161"><ele>413.94</ele><time>2022-01-03T16:45:04Z</time></trkpt>
<trkpt lat="40.238613" lon="8.771499"><ele>414.0</ele><time>2022-01-03T16:45:08Z</time></trkpt>
<trkpt lat="40.23833" lon="8.771224"><ele>414.01</ele><time>2022-01-03T16:45:13Z</time></trkpt>
<trkpt lat="40.238105" lon="8.770963"><ele>415.45</ele><time>2022-01-03T16:45:17Z</time></trkpt>
<trkpt lat="40.237823" lon="8.770548"><ele>417.02</ele><time>2022-01-03T16:45:21Z</time></trkpt>
<trkpt lat="40.237573" lon="8.77033"><ele>417.95</ele><time>2022-01-03T16:45:25Z</time></trkpt>
<trkpt lat="40.237311" lon="8.770276"><ele>418.68</ele><time>2022-01-03T16:45:29Z</time></trkpt>
<trkpt lat="40.236881" lon="8.77028"><ele>420.99</ele><time>2022-01-03T16:45:33Z</time></trkpt>
<trkpt lat="40.23666" lon="8.770183"><ele>421.36</ele><time>2022-01-03T16:45:37Z</time></trkpt>
<trkpt lat="40.236528" lon="8.769969"><ele>422.0</ele><time>2022-01-03T16:45:41Z</time></trkpt>
<trkpt lat="40.235832" lon="8.768263"><ele>426.26</ele><time>2022-01-03T16:45:45Z</time></trkpt>
<trkpt lat="40.236905" lon="8.766817"><ele>418.29</ele><time>2022-01-03T16:45:55Z</time></trkpt>
<trkpt lat="40.237335" lon="8.766264"><ele>418.59</ele><time>2022-01-03T16:46:04Z</time></trkpt>
<trkpt lat="40.238212" lon="8.765041"><ele>425.04</ele><time>2022-01-03T16:46:13Z</time></trkpt>
<trkpt lat="40.23867" lon="8.764429"><ele>428.0</ele><time>2022-01-03T16:46:22Z</time></trkpt>
<trkpt lat="40.240079" lon="8.76223"><ele>436.26</ele><time>2022-01-03T16:46:32Z</time></trkpt>
<trkpt lat="40.240194" lon="8.761929"><ele>438.45</ele><time>2022-01-03T16:46:41Z</time></trkpt>
<trkpt lat="40.240276" lon="8.761575"><ele>440.31</ele><time>2022-01-03T16:46:50Z</time></trkpt>
<trkpt lat="40.2403" lon="8.761071"><ele>444.52</ele><time>2022-01-03T16:46:59Z</time></trkpt>
<trkpt lat="40.239872" lon="8.75744"><ele>459.88</ele><time>2022-01-03T16:47:08Z</time></trkpt>
<trkpt lat="40.239782" lon="8.756897"><ele>461.91</ele><time>2022-01-03T16:47:18Z</time></trkpt>
<trkpt lat="40.239764" lon="8.756354"><ele>465.61</ele><time>2022-01-03T16:47:27Z</time></trkpt>
<trkpt lat="40.239801" lon="8.755631"><ele>469.67</ele><time>2022-01-03T16:47:36Z</time></trkpt>
<trkpt lat="40.239936" lon="8.755088"><ele>473.07</ele><time>2022-01-03T16:47:45Z</time></trkpt>
<trkpt lat="40.240095" lon="8.754784"><ele>475.11</ele><time>2022-01-03T16:47:55Z</time></trkpt>
<trkpt lat="40.240333" lon="8.75458"><ele>478.2</ele><time>2022-01-03T16:48:04Z</time></trkpt>
<trkpt lat="40.240558" lon="8.754466"><ele>481.02</ele><time>2022-01-03T16:48:13Z</time></trkpt>
<trkpt lat="40.241537" lon="8.75444"><ele>491.6</ele><time>2022-01-03T16:48:22Z</time></trkpt>
<trkpt lat="40.240583" lon="8.752738"><ele>476.08</ele><time>2022-01-03T16:48:28Z</time></trkpt>
<trkpt lat="40.240472" lon="8.752091"><ele>473.48</ele><time>2022-01-03T16:48:33Z</time></trkpt>
<trkpt lat="40.240333" lon="8.750975"><ele>468.81</ele><time>2022-01-03T16:48:39Z</time></trkpt>
<trkpt lat="40.240337" lon="8.750732"><ele>466.39</ele><time>2022-01-03T16:48:44Z</time></trkpt>
<trkpt lat="40.240374" lon="8.750546"><ele>464.26</ele><time>2022-01-03T16:48:50Z</time></trkpt>
<trkpt lat="40.240451" lon="8.750367"><ele>463.04</ele><time>2022-01-03T16:48:55Z</time></trkpt>
<trkpt lat="40.240636" lon="8.750095"><ele>462.07</ele><time>2022-01-03T16:49:01Z</time></trkpt>
<trkpt lat="40.240644" lon="8.749945"><ele>461.06</ele><time>2022-01-03T16:49:06Z</time></trkpt>
<trkpt lat="40.240576" lon="8.74979"><ele>460.26</ele><time>2022-01-03T16:49:12Z</time></trkpt>
<trkpt lat="40.23953" lon="8.748615"><ele>455.31</ele><time>2022-01-03T16:49:17Z</time></trkpt>
<trkpt lat="40.23944" lon="8.748454"><ele>455.57</ele><time>2022-01-03T16:49:22Z</time></trkpt>
<trkpt lat="40.239407" lon="8.748304"><ele>456.29</ele><time>2022-01-03T16:49:28Z</time></trkpt>
<trkpt lat="40.239415" lon="8.748153"><ele>457.81</ele><time>2022-01-03T16:49:33Z</time></trkpt>
<trkpt lat="40.239481" lon="8.747767"><ele>461.21</ele><time>2022-01-03T16:49:39Z</time></trkpt>
<trkpt lat="40.239407" lon="8.747467"><ele>462.99</ele><time>2022-01-03T16:49:44Z</time></trkpt>
<trkpt lat="40.23847" lon="8.745786"><ele>472.07</ele><time>2022-01-03T16:49:50Z</time></trkpt>
<trkpt lat="40.238212" lon="8.745278"><ele>474.68</ele><time>2022-01-03T16:49:55Z</time></trkpt>
<trkpt lat="40.238081" lon="8.744398"><ele>473.83</ele><time>2022-01-03T16:50:01Z</time></trkpt>
<trkpt lat="40.237982" lon="8.743991"><ele>475.58</ele><time>2022-01-03T16:50:06Z</time></trkpt>
<trkpt lat="40.237839" lon="8.743673"><ele>475.1</ele><time>2022-01-03T16:50:12Z</time></trkpt>
<trkpt lat="40.237704" lon="8.743315"><ele>475.49</ele><time>2022-01-03T16:50:17Z</time></trkpt>
<trkpt lat="40.238703" lon="8.743164"><ele>482.79</ele><time>2022-01-03T16:50:22Z</time></trkpt>
<trkpt lat="40.239301" lon="8.743025"><ele>487.42</ele><time>2022-01-03T16:50:27Z</time></trkpt>
<trkpt lat="40.239661" lon="8.742875"><ele>490.61</ele><time>2022-01-03T16:50:31Z</time></trkpt>
<trkpt lat="40.239956" lon="8.742703"><ele>494.37</ele><time>2022-01-03T16:50:36Z</time></trkpt>
<trkpt lat="40.240185" lon="8.74251"><ele>497.64</ele><time>2022-01-03T16:50:41Z</time></trkpt>
<trkpt lat="40.240337" lon="8.742292"><ele>498.84</ele><time>2022-01-03T16:50:45Z</time></trkpt>
<trkpt lat="40.240587" lon="8.741812"><ele>500.33</ele><time>2022-01-03T16:50:50Z</time></trkpt>
<trkpt lat="40.240726" lon="8.741448"><ele>501.14</ele><time>2022-01-03T16:50:55Z</time></trkpt>
<trkpt lat="40.241127" lon="8.740203"><ele>506.44</ele><time>2022-01-03T16:50:59Z</time></trkpt>
<trkpt lat="40.24132" lon="8.739535"><ele>510.33</ele><time>2022-01-03T16:51:04Z</time></trkpt>
<trkpt lat="40.241553" lon="8.738454"><ele>518.39</ele><time>2022-01-03T16:51:09Z</time></trkpt>
<trkpt lat="40.24168" lon="8.738011"><ele>521.26</ele><time>2022-01-03T16:51:14Z</time></trkpt>
<trkpt lat="40.241823" lon="8.73766"><ele>523.84</ele><time>2022-01-03T16:51:18Z</time></trkpt>
<trkpt lat="40.242405" lon="8.736684"><ele>531.31</ele><time>2022-01-03T16:51:23Z</time></trkpt>
<trkpt lat="40.242634" lon="8.736362"><ele>535.15</ele><time>2022-01-03T16:51:28Z</time></trkpt>
<trkpt lat="40.242835" lon="8.736155"><ele>539.0</ele><time>2022-01-03T16:51:32Z</time></trkpt>
<trkpt lat="40.243031" lon="8.73608"><ele>541.15</ele><time>2022-01-03T16:51:37Z</time></trkpt>
<trkpt lat="40.243207" lon="8.736126"><ele>543.65</ele><time>2022-01-03T16:51:42Z</time></trkpt>
<trkpt lat="40.24383" lon="8.736448"><ele>550.72</ele><time>2022-01-03T16:51:46Z</time></trkpt>
<trkpt lat="40.243961" lon="8.73647"><ele>552.27</ele><time>2022-01-03T16:51:51Z</time></trkpt>
<trkpt lat="40.244076" lon="8.736437"><ele>553.78</ele><time>2022-01-03T16:51:56Z</time></trkpt>
<trkpt lat="40.244182" lon="8.736308"><ele>556.45</ele><time>2022-01-03T16:52:01Z</time></trkpt>
<trkpt lat="40.244206" lon="8.736115"><ele>559.52</ele><time>2022-01-03T16:52:05Z</time></trkpt>
<trkpt lat="40.24419" lon="8.735879"><ele>561.01</ele><time>2022-01-03T16:52:10Z</time></trkpt>
<trkpt lat="40.2441" lon="8.7356"><ele>561.72</ele><time>2022-01-03T16:52:15Z</time></trkpt>
<trkpt lat="40.244059" lon="8.735268"><ele>564.51</ele><time>2022-01-03T16:52:19Z</time></trkpt>
<trkpt lat="40.244084" lon="8.735043"><ele>566.16</ele><time>2022-01-03T16:52:24Z</time></trkpt>
<trkpt lat="40.244464" lon="8.734288"><ele>572.71</ele><time>2022-01-03T16:52:29Z</time></trkpt>
<trkpt lat="40.244657" lon="8.734088"><ele>575.1</ele><time>2022-01-03T16:52:34Z</time></trkpt>
<trkpt lat="40.245017" lon="8.733852"><ele>578.2</ele><time>2022-01-03T16:52:38Z</time></trkpt>
<trkpt lat="40.245492" lon="8.733616"><ele>580.76</ele><time>2022-01-03T16:52:43Z</time></trkpt>
<trkpt lat="40.246336" lon="8.733272"><ele>574.37</ele><time>2022-01-03T16:52:48Z</time></trkpt>
<trkpt lat="40.247236" lon="8.733026"><ele>575.26</ele><time>2022-01-03T16:52:52Z</time></trkpt>
<trkpt lat="40.247654" lon="8.733026"><ele>576.66</ele><time>2022-01-03T16:52:57Z</time></trkpt>
<trkpt lat="40.248539" lon="8.733144"><ele>574.86</ele><time>2022-01-03T16:53:02Z</time></trkpt>
<trkpt lat="40.248858" lon="8.733047"><ele>574.14</ele><time>2022-01-03T16:53:06Z</time></trkpt>
<trkpt lat="40.249411" lon="8.733087"><ele>574.89</ele><time>2022-01-03T16:53:11Z</time></trkpt>
<trkpt lat="40.249578" lon="8.733133"><ele>574.72</ele><time>2022-01-03T16:53:16Z</time></trkpt>
<trkpt lat="40.24971" lon="8.733197"><ele>574.49</ele><time>2022-01-03T16:53:21Z</time></trkpt>
<trkpt lat="40.249898" lon="8.733433"><ele>574.27</ele><time>2022-01-03T16:53:25Z</time></trkpt>
<trkpt lat="40.250094" lon="8.733616"><ele>573.98</ele><time>2022-01-03T16:53:30Z</time></trkpt>
<trkpt lat="40.250283" lon="8.733744"><ele>573.52</ele><time>2022-01-03T16:53:35Z</time></trkpt>
<trkpt lat="40.250479" lon="8.733809"><ele>573.29</ele><time>2022-01-03T16:53:39Z</time></trkpt>
<trkpt lat="40.250676" lon="8.733819"><ele>573.25</ele><time>2022-01-03T16:53:44Z</time></trkpt>
<trkpt lat="40.251115" lon="8.733804"><ele>572.61</ele><time>2022-01-03T16:53:49Z</time></trkpt>
<trkpt lat="40.250658" lon="8.732201"><ele>579.0</ele><time>2022-01-03T16:53:59Z</time></trkpt>
<trkpt lat="40.248066" lon="8.727224"><ele>594.95</ele><time>2022-01-03T16:54:09Z</time></trkpt>
<trkpt lat="40.246894" lon="8.725643"><ele>606.24</ele><time>2022-01-03T16:54:20Z</time></trkpt>
<trkpt lat="40.24291" lon="8.721998"><ele>622.81</ele><time>2022-01-03T16:54:30Z</time></trkpt>
<trkpt lat="40.242221" lon="8.720963"><ele>628.13</ele><time>2022-01-03T16:54:40Z</time></trkpt>
<trkpt lat="40.240205" lon="8.717612"><ele>639.0</ele><time>2022-01-03T16:54:50Z</time></trkpt>
<trkpt lat="40.237804" lon="8.7152"><ele>640.12</ele><time>2022-01-03T16:55:01Z</time></trkpt>
<trkpt lat="40.235962" lon="8.713443"><ele>642.07</ele><time>2022-01-03T16:55:11Z</time></trkpt>
<trkpt lat="40.235785" lon="8.713315"><ele>641.88</ele><time>2022-01-03T16:55:21Z</time></trkpt>
<trkpt lat="40.233957" lon="8.712336"><ele>638.67</ele><time>2022-01-03T16:55:31Z</time></trkpt>
<trkpt lat="40.233529" lon="8.712006"><ele>638.56</ele><time>2022-01-03T16:55:42Z</time></trkpt>
<trkpt lat="40.232065" lon="8.710595"><ele>639.86</ele><time>2022-01-03T16:55:52Z</time></trkpt>
<trkpt lat="40.231072" lon="8.709673"><ele>643.0</ele><time>2022-01-03T16:56:02Z</time></trkpt>
<trkpt lat="40.227929" lon="8.707969"><ele>638.02</ele><time>2022-01-03T16:56:12Z</time></trkpt>
<trkpt lat="40.228031" lon="8.707826"><ele>640.3</ele><time>2022-01-03T16:56:20Z</time></trkpt>
<trkpt lat="40.22806" lon="8.707669"><ele>642.19</ele><time>2022-01-03T16:56:27Z</time></trkpt>
<trkpt lat="40.228007" lon="8.707459"><ele>643.75</ele><time>2022-01-03T16:56:35Z</time></trkpt>
<trkpt lat="40.227907" lon="8.707333"><ele>643.28</ele><time>2022-01-03T16:56:42Z</time></trkpt>
<trkpt lat="40.225984" lon="8.703499"><ele>648.59</ele><time>2022-01-03T16:56:50Z</time></trkpt>
<trkpt lat="40.225837" lon="8.702666"><ele>651.37</ele><time>2022-01-03T16:56:58Z</time></trkpt>
<trkpt lat="40.225799" lon="8.701754"><ele>653.93</ele><time>2022-01-03T16:57:05Z</time></trkpt>
<trkpt lat="40.225746" lon="8.701399"><ele>655.59</ele><time>2022-01-03T16:57:13Z</time></trkpt>
<trkpt lat="40.223833" lon="8.693975"><ele>691.49</ele><time>2022-01-03T16:57:20Z</time></trkpt>
<trkpt lat="40.223706" lon="8.693615"><ele>692.66</ele><time>2022-01-03T16:57:28Z</time></trkpt>
<trkpt lat="40.223428" lon="8.693281"><ele>693.44</ele><time>2022-01-03T16:57:35Z</time></trkpt>
<trkpt lat="40.223158" lon="8.693136"><ele>695.05</ele><time>2022-01-03T16:57:43Z</time></trkpt>
<trkpt lat="40.222507" lon="8.693066"><ele>697.86</ele><time>2022-01-03T16:57:50Z</time></trkpt>
<trkpt lat="40.222222" lon="8.692942"><ele>698.82</ele><time>2022-01-03T16:57:58Z</time></trkpt>
<trkpt lat="40.222144" lon="8.692864"><ele>699.49</ele><time>2022-01-03T16:58:06Z</time></trkpt>
<trkpt lat="40.222031" lon="8.692698"><ele>701.55</ele><time>2022-01-03T16:58:13Z</time></trkpt>
<trkpt lat="40.221898" lon="8.692304"><ele>705.34</ele><time>2022-01-03T16:58:21Z</time></trkpt>
<trkpt lat="40.221934" lon="8.691865"><ele>705.68</ele><time>2022-01-03T16:58:28Z</time></trkpt>
<trkpt lat="40.222712" lon="8.688675"><ele>719.36</ele><time>2022-01-03T16:58:36Z</time></trkpt>
<trkpt lat="40.224945" lon="8.672348"><ele>696.45</ele><time>2022-01-03T16:58:43Z</time></trkpt>
<trkpt lat="40.224959" lon="8.671531"><ele>695.37</ele><time>2022-01-03T16:58:51Z</time></trkpt>
<trkpt lat="40.224818" lon="8.670698"><ele>689.84</ele><time>2022-01-03T16:58:58Z</time></trkpt>
<trkpt lat="40.224787" lon="8.670182"><ele>688.66</ele><time>2022-01-03T16:59:06Z</time></trkpt>
<trkpt lat="40.224953" lon="8.664786"><ele>672.57</ele><time>2022-01-03T16:59:14Z</time></trkpt>
<trkpt lat="40.225155" lon="8.659156"><ele>658.41</ele><time>2022-01-03T16:59:21Z</time></trkpt>
<trkpt lat="40.225071" lon="8.658734"><ele>657.18</ele><time>2022-01-03T16:59:29Z</time></trkpt>
<trkpt lat="40.222323" lon="8.649"><ele>628.0</ele><time>2022-01-03T16:59:36Z</time></trkpt>
<trkpt lat="40.220979" lon="8.637227"><ele>587.12</ele><time>2022-01-03T16:59:44Z</time></trkpt>
<trkpt lat="40.222597" lon="8.6291"><ele>560.91</ele><time>2022-01-03T16:59:51Z</time></trkpt>
<trkpt lat="40.223623" lon="8.626579"><ele>543.03</ele><time>2022-01-03T16:59:59Z</time></trkpt>
<trkpt lat="40.225498" lon="8.622109"><ele>520.68</ele><time>2022-01-03T17:00:06Z</time></trkpt>
<trkpt lat="40.22559" lon="8.621842"><ele>519.59</ele><time>2022-01-03T17:00:14Z</time></trkpt>
<trkpt lat="40.22562" lon="8.621548"><ele>517.91</ele><time>2022-01-03T17:00:22Z</time></trkpt>
<trkpt lat="40.225221" lon="8.618662"><ele>502.36</ele><time>2022-01-03T17:00:29Z</time></trkpt>
<trkpt lat="40.225283" lon="8.618163"><ele>501.44</ele><time>2022-01-03T17:00:37Z</time></trkpt>
<trkpt lat="40.225896" lon="8.616361"><ele>491.61</ele><time>2022-01-03T17:00:44Z</time></trkpt>
<trkpt lat="40.22593" lon="8.616013"><ele>488.91</ele><time>2022-01-03T17:00:52Z</time></trkpt>
<trkpt lat="40.225712" lon="8.614191"><ele>481.75</ele><time>2022-01-03T17:00:59Z</time></trkpt>
<trkpt lat="40.225795" lon="8.613727"><ele>481.22</ele><time>2022-01-03T17:01:07Z</time></trkpt>
<trkpt lat="40.227389" lon="8.610915"><ele>480.82</ele><time>2022-01-03T17:01:14Z</time></trkpt>
<trkpt lat="40.227531" lon="8.610382"><ele>481.44</ele><time>2022-01-03T17:01:22Z</time></trkpt>
<trkpt lat="40.22752" lon="8.609681"><ele>480.08</ele><time>2022-01-03T17:01:29Z</time></trkpt>
<trkpt lat="40.227407" lon="8.609316"><ele>477.87</ele><time>2022-01-03T17:01:37Z</time></trkpt>
<trkpt lat="40.226881" lon="8.608303"><ele>470.8</ele><time>2022-01-03T17:01:45Z</time></trkpt>
<trkpt lat="40.225832" lon="8.606418"><ele>460.54</ele><time>2022-01-03T17:01:52Z</time></trkpt>
<trkpt lat="40.225605" lon="8.60607"><ele>456.7</ele><time>2022-01-03T17:02:00Z</time></trkpt>
<trkpt lat="40.225376" lon="8.605881"><ele>454.73</ele><time>2022-01-03T17:02:07Z</time></trkpt>
<trkpt lat="40.225142" lon="8.6058"><ele>454.14</ele><time>2022-01-03T17:02:15Z</time></trkpt>
<trkpt lat="40.223708" lon="8.60578"><ele>447.51</ele><time>2022-01-03T17:02:22Z</time></trkpt>
<trkpt lat="40.223394" lon="8.605891"><ele>446.28</ele><time>2022-01-03T17:02:30Z</time></trkpt>
<trkpt lat="40.223198" lon="8.60614"><ele>445.01</ele><time>2022-01-03T17:02:37Z</time></trkpt>
<trkpt lat="40.222519" lon="8.607293"><ele>441.0</ele><time>2022-01-03T17:02:45Z</time></trkpt>
<trkpt lat="40.221732" lon="8.60825"><ele>428.1</ele><time>2022-01-03T17:02:53Z</time></trkpt>
<trkpt lat="40.221559" lon="8.608319"><ele>427.47</ele><time>2022-01-03T17:03:00Z</time></trkpt>
<trkpt lat="40.221261" lon="8.60828"><ele>428.17</ele><time>2022-01-03T17:03:08Z</time></trkpt>
<trkpt lat="40.221138" lon="8.60818"><ele>429.6</ele><time>2022-01-03T17:03:15Z</time></trkpt>
<trkpt lat="40.221033" lon="8.608012"><ele>430.78</ele><time>2022-01-03T17:03:23Z</time></trkpt>
<trkpt lat="40.220972" lon="8.607844"><ele>431.5</ele><time>2022-01-03T17:03:30Z</time></trkpt>
<trkpt lat="40.220955" lon="8.607628"><ele>432.41</ele><time>2022-01-03T17:03:38Z</time></trkpt>
<trkpt lat="40.221113" lon="8.604625"><ele>441.01</ele><time>2022-01-03T17:03:45Z</time></trkpt>
<trkpt lat="40.221268" lon="8.604241"><ele>443.11</ele><time>2022-01-03T17:03:53Z</time></trkpt>
<trkpt lat="40.222069" lon="8.603266"><ele>446.77</ele><time>2022-01-03T17:04:01Z</time></trkpt>
<trkpt lat="40.222166" lon="8.603095"><ele>447.08</ele><time>2022-01-03T17:04:08Z</time></trkpt>
<trkpt lat="40.222243" lon="8.602889"><ele>446.01</ele><time>2022-01-03T17:04:16Z</time></trkpt>
<trkpt lat="40.222485" lon="8.600983"><ele>446.0</ele><time>2022-01-03T17:04:23Z</time></trkpt>
<trkpt lat="40.222911" lon="8.600057"><ele>447.11</ele><time>2022-01-03T17:04:31Z</time></trkpt>
<trkpt lat="40.222982" lon="8.599806"><ele>447.96</ele><time>2022-01-03T17:04:38Z</time></trkpt>
<trkpt lat="40.223021" lon="8.599481"><ele>447.36</ele><time>2022-01-03T17:04:46Z</time></trkpt>
<trkpt lat="40.222949" lon="8.599089"><ele>446.66</ele><time>2022-01-03T17:04:53Z</time></trkpt>
<trkpt lat="40.222782" lon="8.59865"><ele>446.13</ele><time>2022-01-03T17:05:01Z</time></trkpt>
<trkpt lat="40.222461" lon="8.598355"><ele>447.15</ele><time>2022-01-03T17:05:08Z</time></trkpt>
<trkpt lat="40.221056" lon="8.59754"><ele>444.72</ele><time>2022-01-03T17:05:16Z</time></trkpt>
<trkpt lat="40.220938" lon="8.597434"><ele>444.3</ele><time>2022-01-03T17:05:24Z</time></trkpt>
<trkpt lat="40.220844" lon="8.59731"><ele>444.25</ele><time>2022-01-03T17:05:31Z</time></trkpt>
<trkpt lat="40.220718" lon="8.597006"><ele>443.73</ele><time>2022-01-03T17:05:39Z</time></trkpt>
<trkpt lat="40.220643" lon="8.596738"><ele>441.96</ele><time>2022-01-03T17:05:46Z</time></trkpt>
<trkpt lat="40.220636" lon="8.596549"><ele>440.88</ele><time>2022-01-03T17:05:54Z</time></trkpt>
<trkpt lat="40.220649" lon="8.596332"><ele>439.65</ele><time>2022-01-03T17:06:01Z</time></trkpt>
<trkpt lat="40.221104" lon="8.592562"><ele>437.02</ele><time>2022-01-03T17:06:09Z</time></trkpt>
<trkpt lat="40.221815" lon="8.586895"><ele>415.67</ele><time>2022-01-03T17:06:16Z</time></trkpt>
<trkpt lat="40.22187" lon="8.586672"><ele>414.29</ele><time>2022-01-03T17:06:24Z</time></trkpt>
<trkpt lat="40.221941" lon="8.586519"><ele>412.96</ele><time>2022-01-03T17:06:32Z</time></trkpt>
<trkpt lat="40.222086" lon="8.586429"><ele>412.29</ele><time>2022-01-03T17:06:33Z</time></trkpt>
<trkpt lat="40.22226" lon="8.586377"><ele>411.91</ele><time>2022-01-03T17:06:34Z</time></trkpt>
<trkpt lat="40.222902" lon="8.586554"><ele>412.6</ele><time>2022-01-03T17:06:37Z</time></trkpt>
<trkpt lat="40.223252" lon="8.586555"><ele>412.6</ele><time>2022-01-03T17:06:41Z</time></trkpt>
<trkpt lat="40.223886" lon="8.586519"><ele>412.94</ele><time>2022-01-03T17:06:45Z</time></trkpt>
<trkpt lat="40.224086" lon="8.586612"><ele>412.33</ele><time>2022-01-03T17:06:48Z</time></trkpt>
<trkpt lat="40.22511" lon="8.587796"><ele>408.83</ele><time>2022-01-03T17:06:52Z</time></trkpt>
<trkpt lat="40.22527" lon="8.587888"><ele>407.47</ele><time>2022-01-03T17:06:56Z</time></trkpt>
<trkpt lat="40.22551" lon="8.587872"><ele>404.83</ele><time>2022-01-03T17:06:59Z</time></trkpt>
<trkpt lat="40.231" lon="8.586357"><ele>391.36</ele><time>2022-01-03T17:07:03Z</time></trkpt>
<trkpt lat="40.231192" lon="8.586318"><ele>391.0</ele><time>2022-01-03T17:07:07Z</time></trkpt>
<trkpt lat="40.231384" lon="8.586327"><ele>391.0</ele><time>2022-01-03T17:07:10Z</time></trkpt>
<trkpt lat="40.232873" lon="8.586797"><ele>388.32</ele><time>2022-01-03T17:07:14Z</time></trkpt>
<trkpt lat="40.233265" lon="8.587165"><ele>384.33</ele><time>2022-01-03T17:07:18Z</time></trkpt>
<trkpt lat="40.2335" lon="8.587586"><ele>378.87</ele><time>2022-01-03T17:07:21Z</time></trkpt>
<trkpt lat="40.233829" lon="8.588805"><ele>371.3</ele><time>2022-01-03T17:07:25Z</time></trkpt>
<trkpt lat="40.233831" lon="8.589025"><ele>371.24</ele><time>2022-01-03T17:07:29Z</time></trkpt>
<trkpt lat="40.233761" lon="8.589308"><ele>372.54</ele><time>2022-01-03T17:07:33Z</time></trkpt>
<trkpt lat="40.233761" lon="8.58947"><ele>372.3</ele><time>2022-01-03T17:07:36Z</time></trkpt>
<trkpt lat="40.233809" lon="8.589645"><ele>371.12</ele><time>2022-01-03T17:07:40Z</time></trkpt>
<trkpt lat="40.233994" lon="8.589864"><ele>369.13</ele><time>2022-01-03T17:07:44Z</time></trkpt>
<trkpt lat="40.234124" lon="8.589919"><ele>368.86</ele><time>2022-01-03T17:07:47Z</time></trkpt>
<trkpt lat="40.234261" lon="8.589912"><ele>370.27</ele><time>2022-01-03T17:07:51Z</time></trkpt>
<trkpt lat="40.234451" lon="8.589741"><ele>372.3</ele><time>2022-01-03T17:07:55Z</time></trkpt>
<trkpt lat="40.234545" lon="8.589528"><ele>372.89</ele><time>2022-01-03T17:07:58Z</time></trkpt>
<trkpt lat="40.234722" lon="8.589003"><ele>372.82</ele><time>2022-01-03T17:08:02Z</time></trkpt>
<trkpt lat="40.234813" lon="8.588677"><ele>374.36</ele><time>2022-01-03T17:08:06Z</time></trkpt>
<trkpt lat="40.234862" lon="8.588324"><ele>376.02</ele><time>2022-01-03T17:08:09Z</time></trkpt>
<trkpt lat="40.23491" lon="8.587662"><ele>374.71</ele><time>2022-01-03T17:08:13Z</time></trkpt>
<trkpt lat="40.235012" lon="8.587395"><ele>375.1</ele><time>2022-01-03T17:08:17Z</time></trkpt>
<trkpt lat="40.236482" lon="8.586289"><ele>384.39</ele><time>2022-01-03T17:08:20Z</time></trkpt>
<trkpt lat="40.246372" lon="8.580873"><ele>402.0</ele><time>2022-01-03T17:08:24Z</time></trkpt>
<trkpt lat="40.246499" lon="8.580738"><ele>401.79</ele><time>2022-01-03T17:08:28Z</time></trkpt>
<trkpt lat="40.246613" lon="8.58054"><ele>401.71</ele><time>2022-01-03T17:08:31Z</time></trkpt>
<trkpt lat="40.247521" lon="8.578282"><ele>393.64</ele><time>2022-01-03T17:08:35Z</time></trkpt>
<trkpt lat="40.247648" lon="8.577658"><ele>390.57</ele><time>2022-01-03T17:08:39Z</time></trkpt>
<trkpt lat="40.247765" lon="8.577454"><ele>389.67</ele><time>2022-01-03T17:08:42Z</time></trkpt>
<trkpt lat="40.247995" lon="8.577309"><ele>387.06</ele><time>2022-01-03T17:08:46Z</time></trkpt>
<trkpt lat="40.248757" lon="8.5772"><ele>382.38</ele><time>2022-01-03T17:08:50Z</time></trkpt>
<trkpt lat="40.249115" lon="8.577311"><ele>380.62</ele><time>2022-01-03T17:08:53Z</time></trkpt>
<trkpt lat="40.249445" lon="8.577548"><ele>377.35</ele><time>2022-01-03T17:08:57Z</time></trkpt>
<trkpt lat="40.249699" lon="8.577946"><ele>376.59</ele><time>2022-01-03T17:09:01Z</time></trkpt>
<trkpt lat="40.250196" lon="8.58045"><ele>375.72</ele><time>2022-01-03T17:09:04Z</time></trkpt>
<trkpt lat="40.250652" lon="8.581092"><ele>371.7</ele><time>2022-01-03T17:09:08Z</time></trkpt>
<trkpt lat="40.251668" lon="8.581826"><ele>359.7</ele><time>2022-01-03T17:09:12Z</time></trkpt>
<trkpt lat="40.251883" lon="8.58208"><ele>358.18</ele><time>2022-01-03T17:09:15Z</time></trkpt>
<trkpt lat="40.25227" lon="8.582974"><ele>353.96</ele><time>2022-01-03T17:09:19Z</time></trkpt>
<trkpt lat="40.253218" lon="8.58439"><ele>341.93</ele><time>2022-01-03T17:09:23Z</time></trkpt>
<trkpt lat="40.253374" lon="8.584709"><ele>340.17</ele><time>2022-01-03T17:09:26Z</time></trkpt>
<trkpt lat="40.253511" lon="8.585437"><ele>339.75</ele><time>2022-01-03T17:09:30Z</time></trkpt>
<trkpt lat="40.253618" lon="8.585675"><ele>337.95</ele><time>2022-01-03T17:09:34Z</time></trkpt>
<trkpt lat="40.253746" lon="8.58582"><ele>337.03</ele><time>2022-01-03T17:09:37Z</time></trkpt>
<trkpt lat="40.253985" lon="8.585898"><ele>336.85</ele><time>2022-01-03T17:09:41Z</time></trkpt>
<trkpt lat="40.254145" lon="8.585813"><ele>337.77</ele><time>2022-01-03T17:09:45Z</time></trkpt>
<trkpt lat="40.254332" lon="8.585631"><ele>339.65</ele><time>2022-01-03T17:09:48Z</time></trkpt>
<trkpt lat="40.254413" lon="8.585332"><ele>339.74</ele><time>2022-01-03T17:09:52Z</time></trkpt>
<trkpt lat="40.254515" lon="8.584828"><ele>338.24</ele><time>2022-01-03T17:09:56Z</time></trkpt>
<trkpt lat="40.254562" lon="8.584683"><ele>338.15</ele><time>2022-01-03T17:09:59Z</time></trkpt>
<trkpt lat="40.254679" lon="8.584505"><ele>338.21</ele><time>2022-01-03T17:10:03Z</time></trkpt>
<trkpt lat="40.255381" lon="8.583758"><ele>343.21</ele><time>2022-01-03T17:10:07Z</time></trkpt>
<trkpt lat="40.255547" lon="8.583075"><ele>339.21</ele><time>2022-01-03T17:10:10Z</time></trkpt>
<trkpt lat="40.255719" lon="8.582697"><ele>339.23</ele><time>2022-01-03T17:10:14Z</time></trkpt>
<trkpt lat="40.256122" lon="8.582184"><ele>341.75</ele><time>2022-01-03T17:10:18Z</time></trkpt>
<trkpt lat="40.256563" lon="8.581958"><ele>338.51</ele><time>2022-01-03T17:10:21Z</time></trkpt>
<trkpt lat="40.256864" lon="8.581921"><ele>337.8</ele><time>2022-01-03T17:10:25Z</time></trkpt>
<trkpt lat="40.257769" lon="8.582182"><ele>332.06</ele><time>2022-01-03T17:10:29Z</time></trkpt>
<trkpt lat="40.258198" lon="8.582328"><ele>330.36</ele><time>2022-01-03T17:10:32Z</time></trkpt>
<trkpt lat="40.259522" lon="8.583388"><ele>323.64</ele><time>2022-01-03T17:10:36Z</time></trkpt>
<trkpt lat="40.25982" lon="8.583409"><ele>321.92</ele><time>2022-01-03T17:10:40Z</time></trkpt>
<trkpt lat="40.260026" lon="8.583371"><ele>321.13</ele><time>2022-01-03T17:10:43Z</time></trkpt>
<trkpt lat="40.260691" lon="8.582879"><ele>320.8</ele><time>2022-01-03T17:10:47Z</time></trkpt>
<trkpt lat="40.260937" lon="8.582538"><ele>323.12</ele><time>2022-01-03T17:10:51Z</time></trkpt>
<trkpt lat="40.261306" lon="8.581776"><ele>321.98</ele><time>2022-01-03T17:10:54Z</time></trkpt>
<trkpt lat="40.261372" lon="8.581501"><ele>322.53</ele><time>2022-01-03T17:10:58Z</time></trkpt>
<trkpt lat="40.261368" lon="8.581152"><ele>323.77</ele><time>2022-01-03T17:11:02Z</time></trkpt>
<trkpt lat="40.260822" lon="8.578921"><ele>332.63</ele><time>2022-01-03T17:11:05Z</time></trkpt>
<trkpt lat="40.260821" lon="8.578525"><ele>334.38</ele><time>2022-01-03T17:11:09Z</time></trkpt>
<trkpt lat="40.261045" lon="8.577746"><ele>332.76</ele><time>2022-01-03T17:11:13Z</time></trkpt>
<trkpt lat="40.261307" lon="8.577048"><ele>329.94</ele><time>2022-01-03T17:11:16Z</time></trkpt>
<trkpt lat="40.261372" lon="8.576834"><ele>329.36</ele><time>2022-01-03T17:11:20Z</time></trkpt>
<trkpt lat="40.261389" lon="8.576578"><ele>328.68</ele><time>2022-01-03T17:11:24Z</time></trkpt>
<trkpt lat="40.261294" lon="8.576267"><ele>326.2</ele><time>2022-01-03T17:11:27Z</time></trkpt>
<trkpt lat="40.261203" lon="8.575899"><ele>322.29</ele><time>2022-01-03T17:11:31Z</time></trkpt>
<trkpt lat="40.261066" lon="8.575967"><ele>320.63</ele><time>2022-01-03T17:11:33Z</time></trkpt>
<trkpt lat="40.261007" lon="8.5755"><ele>316.09</ele><time>2022-01-03T17:11:38Z</time></trkpt>
<trkpt lat="40.261088" lon="8.575016"><ele>312.92</ele><time>2022-01-03T17:11:42Z</time></trkpt>
<trkpt lat="40.261156" lon="8.574921"><ele>312.14</ele><time>2022-01-03T17:11:47Z</time></trkpt>
<trkpt lat="40.26144" lon="8.574833"><ele>312.28</ele><time>2022-01-03T17:11:51Z</time></trkpt>
<trkpt lat="40.261833" lon="8.574554"><ele>310.54</ele><time>2022-01-03T17:11:56Z</time></trkpt>
<trkpt lat="40.262027" lon="8.574288"><ele>310.3</ele><time>2022-01-03T17:12:00Z</time></trkpt>
<trkpt lat="40.262115" lon="8.574051"><ele>311.45</ele><time>2022-01-03T17:12:05Z</time></trkpt>
<trkpt lat="40.262067" lon="8.574027"><ele>311.45</ele><time>2022-01-03T17:12:09Z</time></trkpt>
<trkpt lat="40.26178" lon="8.573882"><ele>312.21</ele><time>2022-01-03T17:12:13Z</time></trkpt>
<trkpt lat="40.261518" lon="8.573614"><ele>316.17</ele><time>2022-01-03T17:12:17Z</time></trkpt>
<trkpt lat="40.261301" lon="8.573216"><ele>316.32</ele><time>2022-01-03T17:12:21Z</time></trkpt>
<trkpt lat="40.261255" lon="8.572954"><ele>316.32</ele><time>2022-01-03T17:12:25Z</time></trkpt>
<trkpt lat="40.26123" lon="8.572609"><ele>315.39</ele><time>2022-01-03T17:12:28Z</time></trkpt>
<trkpt lat="40.261301" lon="8.572246"><ele>316.79</ele><time>2022-01-03T17:12:32Z</time></trkpt>
<trkpt lat="40.261793" lon="8.570664"><ele>319.72</ele><time>2022-01-03T17:12:36Z</time></trkpt>
<trkpt lat="40.261796" lon="8.570457"><ele>318.8</ele><time>2022-01-03T17:12:40Z</time></trkpt>
<trkpt lat="40.261766" lon="8.570259"><ele>318.31</ele><time>2022-01-03T17:12:44Z</time></trkpt>
<trkpt lat="40.260724" lon="8.567818"><ele>321.69</ele><time>2022-01-03T17:12:48Z</time></trkpt>
<trkpt lat="40.260599" lon="8.567423"><ele>323.02</ele><time>2022-01-03T17:12:52Z</time></trkpt>
<trkpt lat="40.260587" lon="8.567014"><ele>323.45</ele><time>2022-01-03T17:12:56Z</time></trkpt>
<trkpt lat="40.260652" lon="8.566673"><ele>323.07</ele><time>2022-01-03T17:13:00Z</time></trkpt>
<trkpt lat="40.260942" lon="8.566211"><ele>321.47</ele><time>2022-01-03T17:13:04Z</time></trkpt>
<trkpt lat="40.262085" lon="8.565312"><ele>322.02</ele><time>2022-01-03T17:13:07Z</time></trkpt>
<trkpt lat="40.262855" lon="8.564837"><ele>321.82</ele><time>2022-01-03T17:13:11Z</time></trkpt>
<trkpt lat="40.263038" lon="8.564772"><ele>321.49</ele><time>2022-01-03T17:13:15Z</time></trkpt>
<trkpt lat="40.264951" lon="8.564581"><ele>323.55</ele><time>2022-01-03T17:13:19Z</time></trkpt>
<trkpt lat="40.265085" lon="8.564503"><ele>324.04</ele><time>2022-01-03T17:13:23Z</time></trkpt>
<trkpt lat="40.265156" lon="8.56436"><ele>323.99</ele><time>2022-01-03T17:13:27Z</time></trkpt>
<trkpt lat="40.265256" lon="8.563937"><ele>324.76</ele><time>2022-01-03T17:13:31Z</time></trkpt>
<trkpt lat="40.265527" lon="8.561642"><ele>333.8</ele><time>2022-01-03T17:13:35Z</time></trkpt>
<trkpt lat="40.265348" lon="8.560616"><ele>334.29</ele><time>2022-01-03T17:13:39Z</time></trkpt>
<trkpt lat="40.26526" lon="8.559788"><ele>333.92</ele><time>2022-01-03T17:13:43Z</time></trkpt>
<trkpt lat="40.265357" lon="8.558572"><ele>334.28</ele><time>2022-01-03T17:13:47Z</time></trkpt>
<trkpt lat="40.265762" lon="8.5567"><ele>333.0</ele><time>2022-01-03T17:13:50Z</time></trkpt>
<trkpt lat="40.267202" lon="8.550312"><ele>326.92</ele><time>2022-01-03T17:13:54Z</time></trkpt>
<trkpt lat="40.267321" lon="8.549992"><ele>327.37</ele><time>2022-01-03T17:13:58Z</time></trkpt>
<trkpt lat="40.267724" lon="8.548953"><ele>327.8</ele><time>2022-01-03T17:14:02Z</time></trkpt>
<trkpt lat="40.268046" lon="8.548428"><ele>327.65</ele><time>2022-01-03T17:14:06Z</time></trkpt>
<trkpt lat="40.268215" lon="8.54782"><ele>327.57</ele><time>2022-01-03T17:14:10Z</time></trkpt>
<trkpt lat="40.26879" lon="8.548069"><ele>330.0</ele><time>2022-01-03T17:14:17Z</time></trkpt>
<trkpt lat="40.269087" lon="8.548166"><ele>329.57</ele><time>2022-01-03T17:14:23Z</time></trkpt>
<trkpt lat="40.271041" lon="8.549406"><ele>329.0</ele><time>2022-01-03T17:14:30Z</time></trkpt>
<trkpt lat="40.271382" lon="8.549526"><ele>328.31</ele><time>2022-01-03T17:14:36Z</time></trkpt>
<trkpt lat="40.271898" lon="8.549635"><ele>325.97</ele><time>2022-01-03T17:14:43Z</time></trkpt>
<trkpt lat="40.272092" lon="8.549723"><ele>324.94</ele><time>2022-01-03T17:14:49Z</time></trkpt>
<trkpt lat="40.272284" lon="8.549857"><ele>323.7</ele><time>2022-01-03T17:14:56Z</time></trkpt>
<trkpt lat="40.272503" lon="8.550085"><ele>322.26</ele><time>2022-01-03T17:15:02Z</time></trkpt>
<trkpt lat="40.272756" lon="8.550363"><ele>319.88</ele><time>2022-01-03T17:15:09Z</time></trkpt>
<trkpt lat="40.272909" lon="8.550473"><ele>319.32</ele><time>2022-01-03T17:15:16Z</time></trkpt>
<trkpt lat="40.273058" lon="8.55055"><ele>318.91</ele><time>2022-01-03T17:15:22Z</time></trkpt>
<trkpt lat="40.273203" lon="8.550587"><ele>317.58</ele><time>2022-01-03T17:15:29Z</time></trkpt>
<trkpt lat="40.273393" lon="8.550594"><ele>316.09</ele><time>2022-01-03T17:15:35Z</time></trkpt>
<trkpt lat="40.273684" lon="8.550562"><ele>315.58</ele><time>2022-01-03T17:15:42Z</time></trkpt>
<trkpt lat="40.276946" lon="8.550021"><ele>330.0</ele><time>2022-01-03T17:15:48Z</time></trkpt>
<trkpt lat="40.277061" lon="8.550037"><ele>330.0</ele><time>2022-01-03T17:15:55Z</time></trkpt>
<trkpt lat="40.277183" lon="8.550116"><ele>330.0</ele><time>2022-01-03T17:16:02Z</time></trkpt>
<trkpt lat="40.27726" lon="8.550103"><ele>330.0</ele><time>2022-01-03T17:16:10Z</time></trkpt>
<trkpt lat="40.277345" lon="8.550054"><ele>330.0</ele><time>2022-01-03T17:16:18Z</time></trkpt>
<trkpt lat="40.277484" lon="8.549927"><ele>330.25</ele><time>2022-01-03T17:16:27Z</time></trkpt>
<trkpt lat="40.279056" lon="8.549652"><ele>335.2</ele><time>2022-01-03T17:16:35Z</time></trkpt>
<trkpt lat="40.280554" lon="8.549358"><ele>339.99</ele><time>2022-01-03T17:16:43Z</time></trkpt>
<trkpt lat="40.281005" lon="8.549247"><ele>340.18</ele><time>2022-01-03T17:16:52Z</time></trkpt>
<trkpt lat="40.280839" lon="8.548152"><ele>340.0</ele><time>2022-01-03T17:16:56Z</time></trkpt>
<trkpt lat="40.280872" lon="8.547417"><ele>339.65</ele><time>2022-01-03T17:17:00Z</time></trkpt>
<trkpt lat="40.280931" lon="8.546755"><ele>339.0</ele><time>2022-01-03T17:17:05Z</time></trkpt>
<trkpt lat="40.280966" lon="8.546576"><ele>339.0</ele><time>2022-01-03T17:17:09Z</time></trkpt>
<trkpt lat="40.281036" lon="8.546359"><ele>338.97</ele><time>2022-01-03T17:17:14Z</time></trkpt>
<trkpt lat="40.281154" lon="8.546187"><ele>339.0</ele><time>2022-01-03T17:17:18Z</time></trkpt>
<trkpt lat="40.281231" lon="8.546105"><ele>338.98</ele><time>2022-01-03T17:17:22Z</time></trkpt>
<trkpt lat="40.281343" lon="8.546042"><ele>338.96</ele><time>2022-01-03T17:17:27Z</time></trkpt>
<trkpt lat="40.281281" lon="8.545901"><ele>338.7</ele><time>2022-01-03T17:17:30Z</time></trkpt>
<trkpt lat="40.281224" lon="8.545821"><ele>338.36</ele><time>2022-01-03T17:17:33Z</time></trkpt>
<trkpt lat="40.281122" lon="8.545762"><ele>337.78</ele><time>2022-01-03T17:17:36Z</time></trkpt>
<trkpt lat="40.280733" lon="8.545651"><ele>335.62</ele><time>2022-01-03T17:17:39Z</time></trkpt>
<trkpt lat="40.280673" lon="8.545657"><ele>335.21</ele><time>2022-01-03T17:17:42Z</time></trkpt>
<trkpt lat="40.280471" lon="8.545783"><ele>334.57</ele><time>2022-01-03T17:17:45Z</time></trkpt>
<trkpt lat="40.280398" lon="8.545802"><ele>334.39</ele><time>2022-01-03T17:17:48Z</time></trkpt>
<trkpt lat="40.280317" lon="8.545777"><ele>334.11</ele><time>2022-01-03T17:17:51Z</time></trkpt>
<trkpt lat="40.279699" lon="8.545483"><ele>331.74</ele><time>2022-01-03T17:17:54Z</time></trkpt>
<trkpt lat="40.279543" lon="8.545449"><ele>331.62</ele><time>2022-01-03T17:17:57Z</time></trkpt>
<trkpt lat="40.279154" lon="8.544908"><ele>329.58</ele><time>2022-01-03T17:18:02Z</time></trkpt>
<trkpt lat="40.278994" lon="8.544351"><ele>326.58</ele><time>2022-01-03T17:18:06Z</time></trkpt>
<trkpt lat="40.278984" lon="8.543479"><ele>318.55</ele><time>2022-01-03T17:18:11Z</time></trkpt>
<trkpt lat="40.278927" lon="8.543303"><ele>317.45</ele><time>2022-01-03T17:18:15Z</time></trkpt>
<trkpt lat="40.278828" lon="8.542531"><ele>309.58</ele><time>2022-01-03T17:18:20Z</time></trkpt>
<trkpt lat="40.27874" lon="8.542447"><ele>305.93</ele><time>2022-01-03T17:18:25Z</time></trkpt>
<trkpt lat="40.278554" lon="8.542328"><ele>299.55</ele><time>2022-01-03T17:18:29Z</time></trkpt>
<trkpt lat="40.278258" lon="8.541865"><ele>288.77</ele><time>2022-01-03T17:18:34Z</time></trkpt>
<trkpt lat="40.278489" lon="8.541625"><ele>288.63</ele><time>2022-01-03T17:18:39Z</time></trkpt>
<trkpt lat="40.278595" lon="8.541446"><ele>287.6</ele><time>2022-01-03T17:18:43Z</time></trkpt>
<trkpt lat="40.278654" lon="8.541224"><ele>285.15</ele><time>2022-01-03T17:18:48Z</time></trkpt>
<trkpt lat="40.27861" lon="8.540842"><ele>280.08</ele><time>2022-01-03T17:18:52Z</time></trkpt>
<trkpt lat="40.278618" lon="8.540669"><ele>278.28</ele><time>2022-01-03T17:18:57Z</time></trkpt>
<trkpt lat="40.278651" lon="8.540499"><ele>276.82</ele><time>2022-01-03T17:19:01Z</time></trkpt>
<trkpt lat="40.278772" lon="8.540398"><ele>277.04</ele><time>2022-01-03T17:19:06Z</time></trkpt>
<trkpt lat="40.279686" lon="8.53992"><ele>274.13</ele><time>2022-01-03T17:19:10Z</time></trkpt>
<trkpt lat="40.280563" lon="8.540142"><ele>276.45</ele><time>2022-01-03T17:19:15Z</time></trkpt>
<trkpt lat="40.281289" lon="8.540606"><ele>278.08</ele><time>2022-01-03T17:19:20Z</time></trkpt>
<trkpt lat="40.281525" lon="8.540659"><ele>277.82</ele><time>2022-01-03T17:19:24Z</time></trkpt>
<trkpt lat="40.282849" lon="8.54135"><ele>285.56</ele><time>2022-01-03T17:19:29Z</time></trkpt>
<trkpt lat="40.283016" lon="8.541302"><ele>285.3</ele><time>2022-01-03T17:19:33Z</time></trkpt>
<trkpt lat="40.283177" lon="8.541156"><ele>284.48</ele><time>2022-01-03T17:19:38Z</time></trkpt>
<trkpt lat="40.283636" lon="8.540414"><ele>277.9</ele><time>2022-01-03T17:19:42Z</time></trkpt>
<trkpt lat="40.283909" lon="8.540141"><ele>278.87</ele><time>2022-01-03T17:19:47Z</time></trkpt>
<trkpt lat="40.284363" lon="8.539892"><ele>279.57</ele><time>2022-01-03T17:19:51Z</time></trkpt>
<trkpt lat="40.284735" lon="8.539865"><ele>283.22</ele><time>2022-01-03T17:19:56Z</time></trkpt>
<trkpt lat="40.285788" lon="8.539458"><ele>289.96</ele><time>2022-01-03T17:20:00Z</time></trkpt>
<trkpt lat="40.285931" lon="8.539455"><ele>291.04</ele><time>2022-01-03T17:20:05Z</time></trkpt>
<trkpt lat="40.286087" lon="8.539711"><ele>300.46</ele><time>2022-01-03T17:20:10Z</time></trkpt>
<trkpt lat="40.286267" lon="8.540131"><ele>307.64</ele><time>2022-01-03T17:20:14Z</time></trkpt>
<trkpt lat="40.286371" lon="8.540691"><ele>310.45</ele><time>2022-01-03T17:20:19Z</time></trkpt>
<trkpt lat="40.286551" lon="8.541036"><ele>313.61</ele><time>2022-01-03T17:20:23Z</time></trkpt>
<trkpt lat="40.286744" lon="8.541318"><ele>315.39</ele><time>2022-01-03T17:20:28Z</time></trkpt>
<trkpt lat="40.286761" lon="8.541425"><ele>316.86</ele><time>2022-01-03T17:20:32Z</time></trkpt>
<trkpt lat="40.286683" lon="8.541591"><ele>320.66</ele><time>2022-01-03T17:20:37Z</time></trkpt>
<trkpt lat="40.286511" lon="8.541661"><ele>323.61</ele><time>2022-01-03T17:20:41Z</time></trkpt>
<trkpt lat="40.286444" lon="8.541736"><ele>324.7</ele><time>2022-01-03T17:20:46Z</time></trkpt>
<trkpt lat="40.287144" lon="8.541684"><ele>316.75</ele><time>2022-01-03T17:20:48Z</time></trkpt>
<trkpt lat="40.287283" lon="8.541644"><ele>315.97</ele><time>2022-01-03T17:20:50Z</time></trkpt>
<trkpt lat="40.287521" lon="8.541445"><ele>314.74</ele><time>2022-01-03T17:20:52Z</time></trkpt>
<trkpt lat="40.287664" lon="8.541229"><ele>313.8</ele><time>2022-01-03T17:20:54Z</time></trkpt>
<trkpt lat="40.287711" lon="8.541082"><ele>313.07</ele><time>2022-01-03T17:20:56Z</time></trkpt>
<trkpt lat="40.287736" lon="8.540899"><ele>312.02</ele><time>2022-01-03T17:20:58Z</time></trkpt>
<trkpt lat="40.28772" lon="8.540561"><ele>310.98</ele><time>2022-01-03T17:21:00Z</time></trkpt>
<trkpt lat="40.287672" lon="8.540225"><ele>308.4</ele><time>2022-01-03T17:21:02Z</time></trkpt>
<trkpt lat="40.287686" lon="8.539969"><ele>307.12</ele><time>2022-01-03T17:21:04Z</time></trkpt>
<trkpt lat="40.28791" lon="8.539319"><ele>304.04</ele><time>2022-01-03T17:21:07Z</time></trkpt>
<trkpt lat="40.287986" lon="8.539022"><ele>301.94</ele><time>2022-01-03T17:21:09Z</time></trkpt>
<trkpt lat="40.288018" lon="8.53871"><ele>299.8</ele><time>2022-01-03T17:21:11Z</time></trkpt>
<trkpt lat="40.288026" lon="8.538321"><ele>298.21</ele><time>2022-01-03T17:21:13Z</time></trkpt>
<trkpt lat="40.287932" lon="8.537988"><ele>295.46</ele><time>2022-01-03T17:21:15Z</time></trkpt>
<trkpt lat="40.287784" lon="8.537612"><ele>293.32</ele><time>2022-01-03T17:21:17Z</time></trkpt>
<trkpt lat="40.287582" lon="8.537283"><ele>290.47</ele><time>2022-01-03T17:21:19Z</time></trkpt>
<trkpt lat="40.286635" lon="8.536071"><ele>283.78</ele><time>2022-01-03T17:21:21Z</time></trkpt>
<trkpt lat="40.286204" lon="8.535317"><ele>278.81</ele><time>2022-01-03T17:21:23Z</time></trkpt>
<trkpt lat="40.285791" lon="8.533898"><ele>269.92</ele><time>2022-01-03T17:21:25Z</time></trkpt>
<trkpt lat="40.285773" lon="8.533155"><ele>266.97</ele><time>2022-01-03T17:21:27Z</time></trkpt>
<trkpt lat="40.285642" lon="8.532587"><ele>265.02</ele><time>2022-01-03T17:21:29Z</time></trkpt>
<trkpt lat="40.285354" lon="8.532158"><ele>262.89</ele><time>2022-01-03T17:21:31Z</time></trkpt>
<trkpt lat="40.285149" lon="8.531986"><ele>261.76</ele><time>2022-01-03T17:21:33Z</time></trkpt>
<trkpt lat="40.284313" lon="8.531875"><ele>257.94</ele><time>2022-01-03T17:21:35Z</time></trkpt>
<trkpt lat="40.283774" lon="8.531705"><ele>251.93</ele><time>2022-01-03T17:21:37Z</time></trkpt>
<trkpt lat="40.28359" lon="8.531527"><ele>251.74</ele><time>2022-01-03T17:21:39Z</time></trkpt>
<trkpt lat="40.283102" lon="8.530757"><ele>247.45</ele><time>2022-01-03T17:21:41Z</time></trkpt>
<trkpt lat="40.282939" lon="8.530283"><ele>243.65</ele><time>2022-01-03T17:21:43Z</time></trkpt>
<trkpt lat="40.283018" lon="8.529157"><ele>237.28</ele><time>2022-01-03T17:21:46Z</time></trkpt>
<trkpt lat="40.282915" lon="8.528868"><ele>237.29</ele><time>2022-01-03T17:21:48Z</time></trkpt>
<trkpt lat="40.282781" lon="8.528768"><ele>235.26</ele><time>2022-01-03T17:21:50Z</time></trkpt>
<trkpt lat="40.281854" lon="8.528201"><ele>224.09</ele><time>2022-01-03T17:21:52Z</time></trkpt>
<trkpt lat="40.281405" lon="8.527707"><ele>222.89</ele><time>2022-01-03T17:21:54Z</time></trkpt>
<trkpt lat="40.281224" lon="8.52713"><ele>221.59</ele><time>2022-01-03T17:21:56Z</time></trkpt>
<trkpt lat="40.281203" lon="8.525948"><ele>216.75</ele><time>2022-01-03T17:21:58Z</time></trkpt>
<trkpt lat="40.281161" lon="8.525668"><ele>216.06</ele><time>2022-01-03T17:22:00Z</time></trkpt>
<trkpt lat="40.280947" lon="8.525289"><ele>207.84</ele><time>2022-01-03T17:22:02Z</time></trkpt>
<trkpt lat="40.280706" lon="8.524581"><ele>208.1</ele><time>2022-01-03T17:22:04Z</time></trkpt>
<trkpt lat="40.280504" lon="8.524305"><ele>203.42</ele><time>2022-01-03T17:22:06Z</time></trkpt>
<trkpt lat="40.280296" lon="8.523831"><ele>200.81</ele><time>2022-01-03T17:22:08Z</time></trkpt>
<trkpt lat="40.280009" lon="8.523451"><ele>195.42</ele><time>2022-01-03T17:22:10Z</time></trkpt>
<trkpt lat="40.279432" lon="8.52193"><ele>181.31</ele><time>2022-01-03T17:22:12Z</time></trkpt>
<trkpt lat="40.279404" lon="8.521525"><ele>178.28</ele><time>2022-01-03T17:22:14Z</time></trkpt>
<trkpt lat="40.279424" lon="8.521308"><ele>176.74</ele><time>2022-01-03T17:22:16Z</time></trkpt>
<trkpt lat="40.279557" lon="8.520828"><ele>174.85</ele><time>2022-01-03T17:22:18Z</time></trkpt>
<trkpt lat="40.279587" lon="8.520617"><ele>174.97</ele><time>2022-01-03T17:22:20Z</time></trkpt>
<trkpt lat="40.27959" lon="8.52014"><ele>174.74</ele><time>2022-01-03T17:22:23Z</time></trkpt>
<trkpt lat="40.279557" lon="8.520008"><ele>174.39</ele><time>2022-01-03T17:22:25Z</time></trkpt>
<trkpt lat="40.279382" lon="8.519713"><ele>170.69</ele><time>2022-01-03T17:22:27Z</time></trkpt>
<trkpt lat="40.279072" lon="8.519006"><ele>165.29</ele><time>2022-01-03T17:22:29Z</time></trkpt>
<trkpt lat="40.278939" lon="8.518308"><ele>165.32</ele><time>2022-01-03T17:22:31Z</time></trkpt>
<trkpt lat="40.278909" lon="8.517954"><ele>163.31</ele><time>2022-01-03T17:22:33Z</time></trkpt>
<trkpt lat="40.278913" lon="8.517756"><ele>162.27</ele><time>2022-01-03T17:22:35Z</time></trkpt>
<trkpt lat="40.278966" lon="8.517579"><ele>160.88</ele><time>2022-01-03T17:22:37Z</time></trkpt>
<trkpt lat="40.279299" lon="8.517136"><ele>160.41</ele><time>2022-01-03T17:22:39Z</time></trkpt>
<trkpt lat="40.279355" lon="8.516995"><ele>160.19</ele><time>2022-01-03T17:22:41Z</time></trkpt>
<trkpt lat="40.279389" lon="8.516788"><ele>159.8</ele><time>2022-01-03T17:22:43Z</time></trkpt>
<trkpt lat="40.279408" lon="8.516528"><ele>159.48</ele><time>2022-01-03T17:22:45Z</time></trkpt>
<trkpt lat="40.279389" lon="8.516098"><ele>156.99</ele><time>2022-01-03T17:22:47Z</time></trkpt>
<trkpt lat="40.279357" lon="8.515827"><ele>154.54</ele><time>2022-01-03T17:22:49Z</time></trkpt>
<trkpt lat="40.279205" lon="8.515201"><ele>143.9</ele><time>2022-01-03T17:22:51Z</time></trkpt>
<trkpt lat="40.279195" lon="8.515106"><ele>142.67</ele><time>2022-01-03T17:22:53Z</time></trkpt>
<trkpt lat="40.279204" lon="8.515019"><ele>142.13</ele><time>2022-01-03T17:22:55Z</time></trkpt>
<trkpt lat="40.279237" lon="8.51491"><ele>140.75</ele><time>2022-01-03T17:22:57Z</time></trkpt>
<trkpt lat="40.279281" lon="8.514816"><ele>139.64</ele><time>2022-01-03T17:22:59Z</time></trkpt>
<trkpt lat="40.279352" lon="8.514743"><ele>139.52</ele><time>2022-01-03T17:23:02Z</time></trkpt>
<trkpt lat="40.279449" lon="8.514722"><ele>141.02</ele><time>2022-01-03T17:23:04Z</time></trkpt>
<trkpt lat="40.27972" lon="8.514719"><ele>142.84</ele><time>2022-01-03T17:23:06Z</time></trkpt>
<trkpt lat="40.280528" lon="8.514569"><ele>134.49</ele><time>2022-01-03T17:23:08Z</time></trkpt>
<trkpt lat="40.281167" lon="8.514577"><ele>132.63</ele><time>2022-01-03T17:23:10Z</time></trkpt>
<trkpt lat="40.281637" lon="8.514442"><ele>128.74</ele><time>2022-01-03T17:23:12Z</time></trkpt>
<trkpt lat="40.281993" lon="8.514174"><ele>126.13</ele><time>2022-01-03T17:23:14Z</time></trkpt>
<trkpt lat="40.282354" lon="8.513668"><ele>122.89</ele><time>2022-01-03T17:23:16Z</time></trkpt>
<trkpt lat="40.281497" lon="8.513915"><ele>115.58</ele><time>2022-01-03T17:23:18Z</time></trkpt>
<trkpt lat="40.280704" lon="8.514095"><ele>118.19</ele><time>2022-01-03T17:23:21Z</time></trkpt>
<trkpt lat="40.280003" lon="8.514084"><ele>121.49</ele><time>2022-01-03T17:23:23Z</time></trkpt>
<trkpt lat="40.279504" lon="8.513865"><ele>119.69</ele><time>2022-01-03T17:23:26Z</time></trkpt>
<trkpt lat="40.279048" lon="8.5137"><ele>111.49</ele><time>2022-01-03T17:23:28Z</time></trkpt>
<trkpt lat="40.278882" lon="8.513723"><ele>108.76</ele><time>2022-01-03T17:23:31Z</time></trkpt>
<trkpt lat="40.278772" lon="8.513913"><ele>111.81</ele><time>2022-01-03T17:23:33Z</time></trkpt>
<trkpt lat="40.278376" lon="8.514791"><ele>111.97</ele><time>2022-01-03T17:23:35Z</time></trkpt>
<trkpt lat="40.27836" lon="8.515079"><ele>113.44</ele><time>2022-01-03T17:23:38Z</time></trkpt>
<trkpt lat="40.278413" lon="8.515628"><ele>117.84</ele><time>2022-01-03T17:23:40Z</time></trkpt>
<trkpt lat="40.278412" lon="8.51576"><ele>118.3</ele><time>2022-01-03T17:23:43Z</time></trkpt>
<trkpt lat="40.278403" lon="8.515884"><ele>118.34</ele><time>2022-01-03T17:23:45Z</time></trkpt>
<trkpt lat="40.278365" lon="8.515998"><ele>117.49</ele><time>2022-01-03T17:23:48Z</time></trkpt>
<trkpt lat="40.278303" lon="8.516092"><ele>116.48</ele><time>2022-01-03T17:23:50Z</time></trkpt>
<trkpt lat="40.277869" lon="8.5164"><ele>115.28</ele><time>2022-01-03T17:23:53Z</time></trkpt>
<trkpt lat="40.277675" lon="8.516409"><ele>114.16</ele><time>2022-01-03T17:23:55Z</time></trkpt>
<trkpt lat="40.277485" lon="8.51632"><ele>111.89</ele><time>2022-01-03T17:23:58Z</time></trkpt>
<trkpt lat="40.27721" lon="8.516142"><ele>111.75</ele><time>2022-01-03T17:24:00Z</time></trkpt>
<trkpt lat="40.277076" lon="8.515908"><ele>112.11</ele><time>2022-01-03T17:24:02Z</time></trkpt>
<trkpt lat="40.276828" lon="8.514906"><ele>102.72</ele><time>2022-01-03T17:24:05Z</time></trkpt>
<trkpt lat="40.276657" lon="8.51412"><ele>94.24</ele><time>2022-01-03T17:24:07Z</time></trkpt>
<trkpt lat="40.276372" lon="8.51356"><ele>92.82</ele><time>2022-01-03T17:24:10Z</time></trkpt>
<trkpt lat="40.275839" lon="8.513194"><ele>92.41</ele><time>2022-01-03T17:24:12Z</time></trkpt>
<trkpt lat="40.275537" lon="8.512932"><ele>91.63</ele><time>2022-01-03T17:24:15Z</time></trkpt>
<trkpt lat="40.27522" lon="8.512377"><ele>85.63</ele><time>2022-01-03T17:24:17Z</time></trkpt>
<trkpt lat="40.275097" lon="8.512236"><ele>84.26</ele><time>2022-01-03T17:24:20Z</time></trkpt>
<trkpt lat="40.274809" lon="8.512041"><ele>82.71</ele><time>2022-01-03T17:24:22Z</time></trkpt>
<trkpt lat="40.273705" lon="8.511511"><ele>75.61</ele><time>2022-01-03T17:24:24Z</time></trkpt>
<trkpt lat="40.273465" lon="8.511505"><ele>74.2</ele><time>2022-01-03T17:24:27Z</time></trkpt>
<trkpt lat="40.273466" lon="8.511504"><ele>73.0</ele><time>2022-01-03T17:24:27Z</time></trkpt>
<trkpt lat="40.273466" lon="8.511504"><ele>73.0</ele><time>2022-01-03T17:24:27Z</time></trkpt>
<trkpt lat="40.273629" lon="8.511081"><ele>71.79</ele><time>2022-01-03T17:24:29Z</time></trkpt>
<trkpt lat="40.273829" lon="8.50992"><ele>61.36</ele><time>2022-01-03T17:24:30Z</time></trkpt>
<trkpt lat="40.273873" lon="8.509792"><ele>60.46</ele><time>2022-01-03T17:24:32Z</time></trkpt>
<trkpt lat="40.274053" lon="8.509643"><ele>58.84</ele><time>2022-01-03T17:24:34Z</time></trkpt>
<trkpt lat="40.274106" lon="8.509551"><ele>57.99</ele><time>2022-01-03T17:24:36Z</time></trkpt>
<trkpt lat="40.274039" lon="8.509331"><ele>56.86</ele><time>2022-01-03T17:24:37Z</time></trkpt>
<trkpt lat="40.273587" lon="8.509301"><ele>56.88</ele><time>2022-01-03T17:24:39Z</time></trkpt>
<trkpt lat="40.273504" lon="8.509254"><ele>56.24</ele><time>2022-01-03T17:24:41Z</time></trkpt>
<trkpt lat="40.273511" lon="8.509047"><ele>54.93</ele><time>2022-01-03T17:24:44Z</time></trkpt>
<trkpt lat="40.274682" lon="8.506172"><ele>50.78</ele><time>2022-01-03T17:24:47Z</time></trkpt>
<trkpt lat="40.274739" lon="8.505903"><ele>50.55</ele><time>2022-01-03T17:24:51Z</time></trkpt>
<trkpt lat="40.274839" lon="8.503995"><ele>49.06</ele><time>2022-01-03T17:24:54Z</time></trkpt>
<trkpt lat="40.274822" lon="8.503273"><ele>46.72</ele><time>2022-01-03T17:24:57Z</time></trkpt>
<trkpt lat="40.274836" lon="8.503113"><ele>46.73</ele><time>2022-01-03T17:25:01Z</time></trkpt>
<trkpt lat="40.274881" lon="8.502881"><ele>46.03</ele><time>2022-01-03T17:25:04Z</time></trkpt>
<trkpt lat="40.274995" lon="8.502644"><ele>45.01</ele><time>2022-01-03T17:25:07Z</time></trkpt>
<trkpt lat="40.275141" lon="8.502419"><ele>43.8</ele><time>2022-01-03T17:25:10Z</time></trkpt>
<trkpt lat="40.275475" lon="8.50205"><ele>43.36</ele><time>2022-01-03T17:25:14Z</time></trkpt>
<trkpt lat="40.275594" lon="8.501842"><ele>42.96</ele><time>2022-01-03T17:25:17Z</time></trkpt>
<trkpt lat="40.275666" lon="8.501463"><ele>42.46</ele><time>2022-01-03T17:25:20Z</time></trkpt>
<trkpt lat="40.275496" lon="8.500254"><ele>39.13</ele><time>2022-01-03T17:25:24Z</time></trkpt>
<trkpt lat="40.275488" lon="8.499301"><ele>39.25</ele><time>2022-01-03T17:25:27Z</time></trkpt>
<trkpt lat="40.275392" lon="8.498597"><ele>43.05</ele><time>2022-01-03T17:25:30Z</time></trkpt>
<trkpt lat="40.275502" lon="8.497409"><ele>43.07</ele><time>2022-01-03T17:25:34Z</time></trkpt>
<trkpt lat="40.275552" lon="8.497195"><ele>42.15</ele><time>2022-01-03T17:25:37Z</time></trkpt>
<trkpt lat="40.275691" lon="8.496758"><ele>40.35</ele><time>2022-01-03T17:25:40Z</time></trkpt>
<trkpt lat="40.275728" lon="8.496549"><ele>39.13</ele><time>2022-01-03T17:25:43Z</time></trkpt>
<trkpt lat="40.275674" lon="8.496042"><ele>36.15</ele><time>2022-01-03T17:25:47Z</time></trkpt>
<trkpt lat="40.275701" lon="8.495852"><ele>34.04</ele><time>2022-01-03T17:25:50Z</time></trkpt>
<trkpt lat="40.276165" lon="8.494354"><ele>28.22</ele><time>2022-01-03T17:25:53Z</time></trkpt>
<trkpt lat="40.276232" lon="8.494096"><ele>27.14</ele><time>2022-01-03T17:25:57Z</time></trkpt>
<trkpt lat="40.276207" lon="8.493863"><ele>27.09</ele><time>2022-01-03T17:26:00Z</time></trkpt>
<trkpt lat="40.275929" lon="8.493004"><ele>24.25</ele><time>2022-01-03T17:26:03Z</time></trkpt>
<trkpt lat="40.275526" lon="8.491261"><ele>21.68</ele><time>2022-01-03T17:26:07Z</time></trkpt>
<trkpt lat="40.275411" lon="8.490999"><ele>21.25</ele><time>2022-01-03T17:26:10Z</time></trkpt>
<trkpt lat="40.274125" lon="8.489061"><ele>19.38</ele><time>2022-01-03T17:26:13Z</time></trkpt>
<trkpt lat="40.273904" lon="8.488478"><ele>16.92</ele><time>2022-01-03T17:26:16Z</time></trkpt>
<trkpt lat="40.273617" lon="8.487943"><ele>15.7</ele><time>2022-01-03T17:26:20Z</time></trkpt>
<trkpt lat="40.273306" lon="8.487472"><ele>19.99</ele><time>2022-01-03T17:26:23Z</time></trkpt>
<trkpt lat="40.273167" lon="8.48731"><ele>19.43</ele><time>2022-01-03T17:26:26Z</time></trkpt>
<trkpt lat="40.272903" lon="8.487095"><ele>17.92</ele><time>2022-01-03T17:26:30Z</time></trkpt>
<trkpt lat="40.272696" lon="8.487298"><ele>22.74</ele><time>2022-01-03T17:26:33Z</time></trkpt>
<trkpt lat="40.272537" lon="8.487341"><ele>25.66</ele><time>2022-01-03T17:26:37Z</time></trkpt>
<trkpt lat="40.272445" lon="8.487326"><ele>27.32</ele><time>2022-01-03T17:26:41Z</time></trkpt>
<trkpt lat="40.272328" lon="8.487211"><ele>28.11</ele><time>2022-01-03T17:26:45Z</time></trkpt>
<trkpt lat="40.272284" lon="8.487126"><ele>27.38</ele><time>2022-01-03T17:26:48Z</time></trkpt>
<trkpt lat="40.272246" lon="8.486752"><ele>21.68</ele><time>2022-01-03T17:26:52Z</time></trkpt>
<trkpt lat="40.272193" lon="8.486625"><ele>21.71</ele><time>2022-01-03T17:26:56Z</time></trkpt>
<trkpt lat="40.271875" lon="8.486187"><ele>26.42</ele><time>2022-01-03T17:26:59Z</time></trkpt>
<trkpt lat="40.271479" lon="8.485527"><ele>30.38</ele><time>2022-01-03T17:27:03Z</time></trkpt>
<trkpt lat="40.271124" lon="8.485146"><ele>37.13</ele><time>2022-01-03T17:27:07Z</time></trkpt>
<trkpt lat="40.270513" lon="8.484718"><ele>51.25</ele><time>2022-01-03T17:27:11Z</time></trkpt>
<trkpt lat="40.269841" lon="8.483858"><ele>53.79</ele><time>2022-01-03T17:27:14Z</time></trkpt>
<trkpt lat="40.269649" lon="8.483868"><ele>58.81</ele><time>2022-01-03T17:27:17Z</time></trkpt>
<trkpt lat="40.269523" lon="8.48392"><ele>62.19</ele><time>2022-01-03T17:27:21Z</time></trkpt>
<trkpt lat="40.269396" lon="8.484032"><ele>65.39</ele><time>2022-01-03T17:27:24Z</time></trkpt>
<trkpt lat="40.268717" lon="8.484776"><ele>70.22</ele><time>2022-01-03T17:27:27Z</time></trkpt>
<trkpt lat="40.268596" lon="8.484941"><ele>70.37</ele><time>2022-01-03T17:27:30Z</time></trkpt>
<trkpt lat="40.26853" lon="8.485702"><ele>72.85</ele><time>2022-01-03T17:27:34Z</time></trkpt>
<trkpt lat="40.268447" lon="8.486068"><ele>72.95</ele><time>2022-01-03T17:27:38Z</time></trkpt>
<trkpt lat="40.267824" lon="8.487329"><ele>73.88</ele><time>2022-01-03T17:27:42Z</time></trkpt>
<trkpt lat="40.267797" lon="8.487449"><ele>74.78</ele><time>2022-01-03T17:27:46Z</time></trkpt>
<trkpt lat="40.267788" lon="8.48774"><ele>76.94</ele><time>2022-01-03T17:27:49Z</time></trkpt>
<trkpt lat="40.267838" lon="8.489294"><ele>83.32</ele><time>2022-01-03T17:27:53Z</time></trkpt>
<trkpt lat="40.267799" lon="8.490007"><ele>87.21</ele><time>2022-01-03T17:27:57Z</time></trkpt>
<trkpt lat="40.267769" lon="8.490138"><ele>87.98</ele><time>2022-01-03T17:28:01Z</time></trkpt>
<trkpt lat="40.267289" lon="8.491278"><ele>93.54</ele><time>2022-01-03T17:28:05Z</time></trkpt>
<trkpt lat="40.267178" lon="8.491821"><ele>99.97</ele><time>2022-01-03T17:28:09Z</time></trkpt>
<trkpt lat="40.266974" lon="8.492535"><ele>103.59</ele><time>2022-01-03T17:28:12Z</time></trkpt>
<trkpt lat="40.266707" lon="8.493083"><ele>109.31</ele><time>2022-01-03T17:28:16Z</time></trkpt>
<trkpt lat="40.266256" lon="8.493889"><ele>116.52</ele><time>2022-01-03T17:28:20Z</time></trkpt>
<trkpt lat="40.265967" lon="8.494728"><ele>125.05</ele><time>2022-01-03T17:28:24Z</time></trkpt>
<trkpt lat="40.265294" lon="8.495522"><ele>134.66</ele><time>2022-01-03T17:28:28Z</time></trkpt>
<trkpt lat="40.264834" lon="8.496199"><ele>143.51</ele><time>2022-01-03T17:28:32Z</time></trkpt>
<trkpt lat="40.264464" lon="8.496609"><ele>146.38</ele><time>2022-01-03T17:28:36Z</time></trkpt>
<trkpt lat="40.26415" lon="8.497204"><ele>150.92</ele><time>2022-01-03T17:28:39Z</time></trkpt>
<trkpt lat="40.264069" lon="8.49746"><ele>153.37</ele><time>2022-01-03T17:28:43Z</time></trkpt>
<trkpt lat="40.263785" lon="8.498527"><ele>163.9</ele><time>2022-01-03T17:28:47Z</time></trkpt>
<trkpt lat="40.263369" lon="8.499425"><ele>169.05</ele><time>2022-01-03T17:28:51Z</time></trkpt>
<trkpt lat="40.262561" lon="8.500305"><ele>181.78</ele><time>2022-01-03T17:28:55Z</time></trkpt>
<trkpt lat="40.262105" lon="8.500701"><ele>182.58</ele><time>2022-01-03T17:28:59Z</time></trkpt>
<trkpt lat="40.261917" lon="8.501148"><ele>181.91</ele><time>2022-01-03T17:29:03Z</time></trkpt>
<trkpt lat="40.26175" lon="8.50172"><ele>182.3</ele><time>2022-01-03T17:29:06Z</time></trkpt>
<trkpt lat="40.26164" lon="8.503297"><ele>181.52</ele><time>2022-01-03T17:29:10Z</time></trkpt>
<trkpt lat="40.261671" lon="8.50487"><ele>175.5</ele><time>2022-01-03T17:29:14Z</time></trkpt>
<trkpt lat="40.261627" lon="8.505591"><ele>175.17</ele><time>2022-01-03T17:29:18Z</time></trkpt>
<trkpt lat="40.261541" lon="8.506334"><ele>169.66</ele><time>2022-01-03T17:29:22Z</time></trkpt>
<trkpt lat="40.261261" lon="8.507048"><ele>169.16</ele><time>2022-01-03T17:29:26Z</time></trkpt>
<trkpt lat="40.260728" lon="8.508124"><ele>176.34</ele><time>2022-01-03T17:29:29Z</time></trkpt>
<trkpt lat="40.259748" lon="8.508714"><ele>179.0</ele><time>2022-01-03T17:29:33Z</time></trkpt>
<trkpt lat="40.259599" lon="8.50892"><ele>179.54</ele><time>2022-01-03T17:29:37Z</time></trkpt>
<trkpt lat="40.259396" lon="8.509316"><ele>179.43</ele><time>2022-01-03T17:29:41Z</time></trkpt>
<trkpt lat="40.258937" lon="8.511786"><ele>202.58</ele><time>2022-01-03T17:29:45Z</time></trkpt>
<trkpt lat="40.258966" lon="8.51225"><ele>202.92</ele><time>2022-01-03T17:29:49Z</time></trkpt>
<trkpt lat="40.25925" lon="8.512782"><ele>202.16</ele><time>2022-01-03T17:29:53Z</time></trkpt>
<trkpt lat="40.259353" lon="8.513028"><ele>200.68</ele><time>2022-01-03T17:29:56Z</time></trkpt>
<trkpt lat="40.259469" lon="8.513888"><ele>198.37</ele><time>2022-01-03T17:30:00Z</time></trkpt>
<trkpt lat="40.259567" lon="8.514264"><ele>195.85</ele><time>2022-01-03T17:30:04Z</time></trkpt>
<trkpt lat="40.259993" lon="8.514876"><ele>194.01</ele><time>2022-01-03T17:30:08Z</time></trkpt>
<trkpt lat="40.260528" lon="8.515912"><ele>191.71</ele><time>2022-01-03T17:30:12Z</time></trkpt>
<trkpt lat="40.26078" lon="8.516432"><ele>194.15</ele><time>2022-01-03T17:30:16Z</time></trkpt>
<trkpt lat="40.260831" lon="8.51661"><ele>194.79</ele><time>2022-01-03T17:30:20Z</time></trkpt>
<trkpt lat="40.260816" lon="8.516993"><ele>197.12</ele><time>2022-01-03T17:30:23Z</time></trkpt>
<trkpt lat="40.260722" lon="8.517356"><ele>198.58</ele><time>2022-01-03T17:30:27Z</time></trkpt>
<trkpt lat="40.260694" lon="8.517777"><ele>201.0</ele><time>2022-01-03T17:30:31Z</time></trkpt>
<trkpt lat="40.26079" lon="8.518531"><ele>207.84</ele><time>2022-01-03T17:30:35Z</time></trkpt>
<trkpt lat="40.261073" lon="8.519516"><ele>211.5</ele><time>2022-01-03T17:30:39Z</time></trkpt>
<trkpt lat="40.261143" lon="8.520214"><ele>215.98</ele><time>2022-01-03T17:30:43Z</time></trkpt>
<trkpt lat="40.261128" lon="8.520698"><ele>219.58</ele><time>2022-01-03T17:30:46Z</time></trkpt>
<trkpt lat="40.261087" lon="8.521139"><ele>220.56</ele><time>2022-01-03T17:30:50Z</time></trkpt>
<trkpt lat="40.260851" lon="8.522922"><ele>231.77</ele><time>2022-01-03T17:30:54Z</time></trkpt>
<trkpt lat="40.260816" lon="8.523284"><ele>236.49</ele><time>2022-01-03T17:30:58Z</time></trkpt>
<trkpt lat="40.260818" lon="8.523566"><ele>238.68</ele><time>2022-01-03T17:31:02Z</time></trkpt>
<trkpt lat="40.260854" lon="8.52388"><ele>240.71</ele><time>2022-01-03T17:31:06Z</time></trkpt>
<trkpt lat="40.260972" lon="8.524308"><ele>241.27</ele><time>2022-01-03T17:31:10Z</time></trkpt>
<trkpt lat="40.261935" lon="8.525731"><ele>250.18</ele><time>2022-01-03T17:31:13Z</time></trkpt>
<trkpt lat="40.262015" lon="8.525997"><ele>253.25</ele><time>2022-01-03T17:31:17Z</time></trkpt>
<trkpt lat="40.261966" lon="8.526229"><ele>255.3</ele><time>2022-01-03T17:31:19Z</time></trkpt>
<trkpt lat="40.261885" lon="8.526362"><ele>256.31</ele><time>2022-01-03T17:31:21Z</time></trkpt>
<trkpt lat="40.261747" lon="8.526325"><ele>257.03</ele><time>2022-01-03T17:31:32Z</time></trkpt>
<trkpt lat="40.260015" lon="8.525662"><ele>261.33</ele><time>2022-01-03T17:31:43Z</time></trkpt>
<trkpt lat="40.25943" lon="8.52551"><ele>261.62</ele><time>2022-01-03T17:31:54Z</time></trkpt>
<trkpt lat="40.259369" lon="8.525343"><ele>260.2</ele><time>2022-01-03T17:31:58Z</time></trkpt>
<trkpt lat="40.259197" lon="8.525056"><ele>258.31</ele><time>2022-01-03T17:32:03Z</time></trkpt>
<trkpt lat="40.258942" lon="8.524407"><ele>255.37</ele><time>2022-01-03T17:32:07Z</time></trkpt>
<trkpt lat="40.258889" lon="8.524081"><ele>252.38</ele><time>2022-01-03T17:32:11Z</time></trkpt>
<trkpt lat="40.258772" lon="8.522839"><ele>251.2</ele><time>2022-01-03T17:32:16Z</time></trkpt>
<trkpt lat="40.258433" lon="8.522126"><ele>253.43</ele><time>2022-01-03T17:32:20Z</time></trkpt>
<trkpt lat="40.258136" lon="8.521746"><ele>250.57</ele><time>2022-01-03T17:32:24Z</time></trkpt>
<trkpt lat="40.25803" lon="8.521666"><ele>250.09</ele><time>2022-01-03T17:32:28Z</time></trkpt>
<trkpt lat="40.257946" lon="8.521726"><ele>250.82</ele><time>2022-01-03T17:32:35Z</time></trkpt>
<trkpt lat="40.257752" lon="8.521704"><ele>251.44</ele><time>2022-01-03T17:32:42Z</time></trkpt>
<trkpt lat="40.257459" lon="8.521721"><ele>253.64</ele><time>2022-01-03T17:32:48Z</time></trkpt>
<trkpt lat="40.256878" lon="8.521812"><ele>260.08</ele><time>2022-01-03T17:32:55Z</time></trkpt>
<trkpt lat="40.255828" lon="8.522113"><ele>265.25</ele><time>2022-01-03T17:33:01Z</time></trkpt>
<trkpt lat="40.255704" lon="8.522511"><ele>266.93</ele><time>2022-01-03T17:33:08Z</time></trkpt>
<trkpt lat="40.255316" lon="8.522215"><ele>267.84</ele><time>2022-01-03T17:33:13Z</time></trkpt>
<trkpt lat="40.255083" lon="8.522135"><ele>267.2</ele><time>2022-01-03T17:33:18Z</time></trkpt>
<trkpt lat="40.254982" lon="8.522119"><ele>267.06</ele><time>2022-01-03T17:33:23Z</time></trkpt>
<trkpt lat="40.254826" lon="8.522165"><ele>267.63</ele><time>2022-01-03T17:33:28Z</time></trkpt>
<trkpt lat="40.253887" lon="8.522194"><ele>267.89</ele><time>2022-01-03T17:33:34Z</time></trkpt>
<trkpt lat="40.253423" lon="8.522038"><ele>266.32</ele><time>2022-01-03T17:33:39Z</time></trkpt>
<trkpt lat="40.253189" lon="8.521942"><ele>265.47</ele><time>2022-01-03T17:33:44Z</time></trkpt>
<trkpt lat="40.252571" lon="8.521501"><ele>261.06</ele><time>2022-01-03T17:33:49Z</time></trkpt>
<trkpt lat="40.252424" lon="8.521349"><ele>259.87</ele><time>2022-01-03T17:33:54Z</time></trkpt>
<trkpt lat="40.252261" lon="8.521423"><ele>259.05</ele><time>2022-01-03T17:33:58Z</time></trkpt>
<trkpt lat="40.252148" lon="8.521405"><ele>258.39</ele><time>2022-01-03T17:34:02Z</time></trkpt>
<trkpt lat="40.252007" lon="8.521713"><ele>255.67</ele><time>2022-01-03T17:34:05Z</time></trkpt>
<trkpt lat="40.251849" lon="8.52194"><ele>254.66</ele><time>2022-01-03T17:34:09Z</time></trkpt>
<trkpt lat="40.251734" lon="8.522299"><ele>254.31</ele><time>2022-01-03T17:34:13Z</time></trkpt>
<trkpt lat="40.251659" lon="8.522429"><ele>253.94</ele><time>2022-01-03T17:34:16Z</time></trkpt>
<trkpt lat="40.251372" lon="8.522748"><ele>251.99</ele><time>2022-01-03T17:34:20Z</time></trkpt>
<trkpt lat="40.251093" lon="8.522989"><ele>251.83</ele><time>2022-01-03T17:34:24Z</time></trkpt>
<trkpt lat="40.249834" lon="8.522604"><ele>246.2</ele><time>2022-01-03T17:34:42Z</time></trkpt>
<trkpt lat="40.248237" lon="8.5228"><ele>246.0</ele><time>2022-01-03T17:35:00Z</time></trkpt>
<trkpt lat="40.24661" lon="8.52252"><ele>250.18</ele><time>2022-01-03T17:35:19Z</time></trkpt>
<trkpt lat="40.246402" lon="8.522346"><ele>253.57</ele><time>2022-01-03T17:35:37Z</time></trkpt>
<trkpt lat="40.246072" lon="8.522481"><ele>250.55</ele><time>2022-01-03T17:35:40Z</time></trkpt>
<trkpt lat="40.245381" lon="8.522608"><ele>255.32</ele><time>2022-01-03T17:35:42Z</time></trkpt>
<trkpt lat="40.245141" lon="8.522739"><ele>255.4</ele><time>2022-01-03T17:35:45Z</time></trkpt>
<trkpt lat="40.244931" lon="8.522994"><ele>253.96</ele><time>2022-01-03T17:35:47Z</time></trkpt>
<trkpt lat="40.244678" lon="8.523511"><ele>254.09</ele><time>2022-01-03T17:35:50Z</time></trkpt>
<trkpt lat="40.244608" lon="8.523771"><ele>254.32</ele><time>2022-01-03T17:35:52Z</time></trkpt>
<trkpt lat="40.244501" lon="8.524825"><ele>253.39</ele><time>2022-01-03T17:35:55Z</time></trkpt>
<trkpt lat="40.244419" lon="8.525092"><ele>253.85</ele><time>2022-01-03T17:35:57Z</time></trkpt>
<trkpt lat="40.24417" lon="8.525659"><ele>251.49</ele><time>2022-01-03T17:36:00Z</time></trkpt>
<trkpt lat="40.244012" lon="8.525837"><ele>250.07</ele><time>2022-01-03T17:36:02Z</time></trkpt>
<trkpt lat="40.243837" lon="8.525829"><ele>250.85</ele><time>2022-01-03T17:36:05Z</time></trkpt>
<trkpt lat="40.242924" lon="8.525438"><ele>249.52</ele><time>2022-01-03T17:36:07Z</time></trkpt>
<trkpt lat="40.242672" lon="8.525417"><ele>249.19</ele><time>2022-01-03T17:36:10Z</time></trkpt>
<trkpt lat="40.24257" lon="8.525457"><ele>248.68</ele><time>2022-01-03T17:36:12Z</time></trkpt>
<trkpt lat="40.242431" lon="8.525681"><ele>246.0</ele><time>2022-01-03T17:36:15Z</time></trkpt>
<trkpt lat="40.242022" lon="8.525954"><ele>245.74</ele><time>2022-01-03T17:36:17Z</time></trkpt>
<trkpt lat="40.240795" lon="8.527682"><ele>238.53</ele><time>2022-01-03T17:36:20Z</time></trkpt>
<trkpt lat="40.240464" lon="8.527934"><ele>238.2</ele><time>2022-01-03T17:36:22Z</time></trkpt>
<trkpt lat="40.239768" lon="8.528223"><ele>235.86</ele><time>2022-01-03T17:36:25Z</time></trkpt>
<trkpt lat="40.239476" lon="8.528551"><ele>234.82</ele><time>2022-01-03T17:36:27Z</time></trkpt>
<trkpt lat="40.23698" lon="8.532507"><ele>245.49</ele><time>2022-01-03T17:36:30Z</time></trkpt>
<trkpt lat="40.236007" lon="8.534249"><ele>249.92</ele><time>2022-01-03T17:36:32Z</time></trkpt>
<trkpt lat="40.235781" lon="8.534531"><ele>249.49</ele><time>2022-01-03T17:36:35Z</time></trkpt>
<trkpt lat="40.2353" lon="8.534938"><ele>246.58</ele><time>2022-01-03T17:36:37Z</time></trkpt>
<trkpt lat="40.234961" lon="8.535401"><ele>246.5</ele><time>2022-01-03T17:36:40Z</time></trkpt>
<trkpt lat="40.234549" lon="8.536276"><ele>248.06</ele><time>2022-01-03T17:36:42Z</time></trkpt>
<trkpt lat="40.234277" lon="8.537259"><ele>246.88</ele><time>2022-01-03T17:36:45Z</time></trkpt>
<trkpt lat="40.234121" lon="8.537621"><ele>245.45</ele><time>2022-01-03T17:36:47Z</time></trkpt>
<trkpt lat="40.233897" lon="8.538056"><ele>245.29</ele><time>2022-01-03T17:36:50Z</time></trkpt>
<trkpt lat="40.232833" lon="8.539646"><ele>232.98</ele><time>2022-01-03T17:36:52Z</time></trkpt>
<trkpt lat="40.23277" lon="8.539684"><ele>231.35</ele><time>2022-01-03T17:36:55Z</time></trkpt>
<trkpt lat="40.232714" lon="8.539676"><ele>230.53</ele><time>2022-01-03T17:36:57Z</time></trkpt>
<trkpt lat="40.232555" lon="8.539566"><ele>227.9</ele><time>2022-01-03T17:37:00Z</time></trkpt>
<trkpt lat="40.23238" lon="8.539446"><ele>231.76</ele><time>2022-01-03T17:37:02Z</time></trkpt>
<trkpt lat="40.232293" lon="8.539327"><ele>236.77</ele><time>2022-01-03T17:37:05Z</time></trkpt>
<trkpt lat="40.23227" lon="8.539214"><ele>239.28</ele><time>2022-01-03T17:37:07Z</time></trkpt>
<trkpt lat="40.232565" lon="8.538162"><ele>235.74</ele><time>2022-01-03T17:37:10Z</time></trkpt>
<trkpt lat="40.232586" lon="8.537955"><ele>237.36</ele><time>2022-01-03T17:37:12Z</time></trkpt>
<trkpt lat="40.23234" lon="8.536088"><ele>250.9</ele><time>2022-01-03T17:37:15Z</time></trkpt>
<trkpt lat="40.232215" lon="8.535917"><ele>253.43</ele><time>2022-01-03T17:37:17Z</time></trkpt>
<trkpt lat="40.231756" lon="8.535568"><ele>257.8</ele><time>2022-01-03T17:37:20Z</time></trkpt>
<trkpt lat="40.231629" lon="8.535501"><ele>259.67</ele><time>2022-01-03T17:37:22Z</time></trkpt>
<trkpt lat="40.231354" lon="8.535435"><ele>264.25</ele><time>2022-01-03T17:37:25Z</time></trkpt>
<trkpt lat="40.231209" lon="8.535444"><ele>265.29</ele><time>2022-01-03T17:37:27Z</time></trkpt>
<trkpt lat="40.231002" lon="8.53551"><ele>266.33</ele><time>2022-01-03T17:37:30Z</time></trkpt>
<trkpt lat="40.230812" lon="8.535659"><ele>267.03</ele><time>2022-01-03T17:37:32Z</time></trkpt>
<trkpt lat="40.228444" lon="8.538222"><ele>274.6</ele><time>2022-01-03T17:37:35Z</time></trkpt>
<trkpt lat="40.2244" lon="8.542519"><ele>275.16</ele><time>2022-01-03T17:37:37Z</time></trkpt>
<trkpt lat="40.223044" lon="8.543938"><ele>276.92</ele><time>2022-01-03T17:37:40Z</time></trkpt>
<trkpt lat="40.222661" lon="8.544405"><ele>275.52</ele><time>2022-01-03T17:37:42Z</time></trkpt>
<trkpt lat="40.222326" lon="8.544958"><ele>274.65</ele><time>2022-01-03T17:37:45Z</time></trkpt>
<trkpt lat="40.222133" lon="8.545414"><ele>273.85</ele><time>2022-01-03T17:37:47Z</time></trkpt>
<trkpt lat="40.220855" lon="8.549132"><ele>277.88</ele><time>2022-01-03T17:37:50Z</time></trkpt>
<trkpt lat="40.220468" lon="8.550201"><ele>278.68</ele><time>2022-01-03T17:37:52Z</time></trkpt>
<trkpt lat="40.22033" lon="8.550491"><ele>278.81</ele><time>2022-01-03T17:37:55Z</time></trkpt>
<trkpt lat="40.220159" lon="8.550741"><ele>278.57</ele><time>2022-01-03T17:37:57Z</time></trkpt>
<trkpt lat="40.219978" lon="8.550929"><ele>277.97</ele><time>2022-01-03T17:38:00Z</time></trkpt>
<trkpt lat="40.219805" lon="8.551051"><ele>277.45</ele><time>2022-01-03T17:38:02Z</time></trkpt>
<trkpt lat="40.219501" lon="8.551182"><ele>277.2</ele><time>2022-01-03T17:38:05Z</time></trkpt>
<trkpt lat="40.216326" lon="8.551569"><ele>277.65</ele><time>2022-01-03T17:38:07Z</time></trkpt>
<trkpt lat="40.215636" lon="8.551797"><ele>279.0</ele><time>2022-01-03T17:38:10Z</time></trkpt>
<trkpt lat="40.215346" lon="8.551998"><ele>279.61</ele><time>2022-01-03T17:38:12Z</time></trkpt>
<trkpt lat="40.214841" lon="8.552456"><ele>276.44</ele><time>2022-01-03T17:38:15Z</time></trkpt>
<trkpt lat="40.21458" lon="8.552824"><ele>273.49</ele><time>2022-01-03T17:38:17Z</time></trkpt>
<trkpt lat="40.213148" lon="8.555197"><ele>270.0</ele><time>2022-01-03T17:38:20Z</time></trkpt>
<trkpt lat="40.213065" lon="8.555355"><ele>270.0</ele><time>2022-01-03T17:38:23Z</time></trkpt>
<trkpt lat="40.213034" lon="8.555469"><ele>270.0</ele><time>2022-01-03T17:38:25Z</time></trkpt>
<trkpt lat="40.213021" lon="8.555607"><ele>270.0</ele><time>2022-01-03T17:38:28Z</time></trkpt>
<trkpt lat="40.213042" lon="8.555772"><ele>270.0</ele><time>2022-01-03T17:38:30Z</time></trkpt>
<trkpt lat="40.213139" lon="8.556095"><ele>269.72</ele><time>2022-01-03T17:38:33Z</time></trkpt>
<trkpt lat="40.213214" lon="8.556256"><ele>269.88</ele><time>2022-01-03T17:38:35Z</time></trkpt>
<trkpt lat="40.213288" lon="8.556355"><ele>269.45</ele><time>2022-01-03T17:38:38Z</time></trkpt>
<trkpt lat="40.213748" lon="8.556751"><ele>265.39</ele><time>2022-01-03T17:38:40Z</time></trkpt>
<trkpt lat="40.213924" lon="8.556983"><ele>264.24</ele><time>2022-01-03T17:38:43Z</time></trkpt>
<trkpt lat="40.213999" lon="8.557132"><ele>264.24</ele><time>2022-01-03T17:38:45Z</time></trkpt>
<trkpt lat="40.214214" lon="8.557673"><ele>261.13</ele><time>2022-01-03T17:38:48Z</time></trkpt>
<trkpt lat="40.214238" lon="8.557762"><ele>260.24</ele><time>2022-01-03T17:38:50Z</time></trkpt>
<trkpt lat="40.214236" lon="8.557912"><ele>259.51</ele><time>2022-01-03T17:38:53Z</time></trkpt>
<trkpt lat="40.214216" lon="8.557979"><ele>258.88</ele><time>2022-01-03T17:38:55Z</time></trkpt>
<trkpt lat="40.214126" lon="8.5581"><ele>258.07</ele><time>2022-01-03T17:38:58Z</time></trkpt>
<trkpt lat="40.214053" lon="8.558129"><ele>257.68</ele><time>2022-01-03T17:39:00Z</time></trkpt>
<trkpt lat="40.213896" lon="8.558146"><ele>256.36</ele><time>2022-01-03T17:39:03Z</time></trkpt>
<trkpt lat="40.213816" lon="8.55819"><ele>256.02</ele><time>2022-01-03T17:39:05Z</time></trkpt>
<trkpt lat="40.213719" lon="8.5583"><ele>255.67</ele><time>2022-01-03T17:39:08Z</time></trkpt>
<trkpt lat="40.212784" lon="8.559601"><ele>243.11</ele><time>2022-01-03T17:39:10Z</time></trkpt>
<trkpt lat="40.212728" lon="8.559767"><ele>242.65</ele><time>2022-01-03T17:39:13Z</time></trkpt>
<trkpt lat="40.212703" lon="8.559933"><ele>242.46</ele><time>2022-01-03T17:39:15Z</time></trkpt>
<trkpt lat="40.21274" lon="8.560219"><ele>242.73</ele><time>2022-01-03T17:39:18Z</time></trkpt>
<trkpt lat="40.212839" lon="8.560751"><ele>244.03</ele><time>2022-01-03T17:39:20Z</time></trkpt>
<trkpt lat="40.21284" lon="8.560966"><ele>244.6</ele><time>2022-01-03T17:39:23Z</time></trkpt>
<trkpt lat="40.212796" lon="8.561106"><ele>244.31</ele><time>2022-01-03T17:39:25Z</time></trkpt>
<trkpt lat="40.212651" lon="8.561238"><ele>241.68</ele><time>2022-01-03T17:39:28Z</time></trkpt>
<trkpt lat="40.211305" lon="8.561765"><ele>245.77</ele><time>2022-01-03T17:39:30Z</time></trkpt>
<trkpt lat="40.211052" lon="8.561937"><ele>248.46</ele><time>2022-01-03T17:39:33Z</time></trkpt>
<trkpt lat="40.210655" lon="8.562346"><ele>251.53</ele><time>2022-01-03T17:39:35Z</time></trkpt>
<trkpt lat="40.209662" lon="8.563698"><ele>257.14</ele><time>2022-01-03T17:39:38Z</time></trkpt>
<trkpt lat="40.209577" lon="8.563903"><ele>258.61</ele><time>2022-01-03T17:39:40Z</time></trkpt>
<trkpt lat="40.209465" lon="8.564268"><ele>260.99</ele><time>2022-01-03T17:39:43Z</time></trkpt>
<trkpt lat="40.209439" lon="8.564422"><ele>261.76</ele><time>2022-01-03T17:39:45Z</time></trkpt>
<trkpt lat="40.209439" lon="8.564582"><ele>261.94</ele><time>2022-01-03T17:39:48Z</time></trkpt>
<trkpt lat="40.209698" lon="8.565632"><ele>266.59</ele><time>2022-01-03T17:39:50Z</time></trkpt>
<trkpt lat="40.209699" lon="8.565748"><ele>266.64</ele><time>2022-01-03T17:39:53Z</time></trkpt>
<trkpt lat="40.20963" lon="8.565924"><ele>265.89</ele><time>2022-01-03T17:39:55Z</time></trkpt>
<trkpt lat="40.209519" lon="8.565992"><ele>265.17</ele><time>2022-01-03T17:39:58Z</time></trkpt>
<trkpt lat="40.209413" lon="8.566024"><ele>264.56</ele><time>2022-01-03T17:40:00Z</time></trkpt>
<trkpt lat="40.209281" lon="8.566005"><ele>265.18</ele><time>2022-01-03T17:40:03Z</time></trkpt>
<trkpt lat="40.209227" lon="8.565964"><ele>265.1</ele><time>2022-01-03T17:40:05Z</time></trkpt>
<trkpt lat="40.208965" lon="8.565596"><ele>264.57</ele><time>2022-01-03T17:40:08Z</time></trkpt>
<trkpt lat="40.208875" lon="8.565518"><ele>264.69</ele><time>2022-01-03T17:40:10Z</time></trkpt>
<trkpt lat="40.208739" lon="8.565456"><ele>264.81</ele><time>2022-01-03T17:40:13Z</time></trkpt>
<trkpt lat="40.208545" lon="8.565402"><ele>265.16</ele><time>2022-01-03T17:40:15Z</time></trkpt>
<trkpt lat="40.20759" lon="8.565304"><ele>275.86</ele><time>2022-01-03T17:40:18Z</time></trkpt>
<trkpt lat="40.207322" lon="8.5653"><ele>277.91</ele><time>2022-01-03T17:40:20Z</time></trkpt>
<trkpt lat="40.205832" lon="8.565575"><ele>290.36</ele><time>2022-01-03T17:40:23Z</time></trkpt>
<trkpt lat="40.205376" lon="8.565688"><ele>292.12</ele><time>2022-01-03T17:40:25Z</time></trkpt>
<trkpt lat="40.205094" lon="8.565821"><ele>293.6</ele><time>2022-01-03T17:40:28Z</time></trkpt>
<trkpt lat="40.204763" lon="8.566096"><ele>299.44</ele><time>2022-01-03T17:40:30Z</time></trkpt>
<trkpt lat="40.204496" lon="8.566403"><ele>302.64</ele><time>2022-01-03T17:40:33Z</time></trkpt>
<trkpt lat="40.202815" lon="8.568872"><ele>320.18</ele><time>2022-01-03T17:40:35Z</time></trkpt>
<trkpt lat="40.202713" lon="8.568991"><ele>319.64</ele><time>2022-01-03T17:40:38Z</time></trkpt>
<trkpt lat="40.202262" lon="8.569388"><ele>319.3</ele><time>2022-01-03T17:40:40Z</time></trkpt>
<trkpt lat="40.202132" lon="8.569588"><ele>320.44</ele><time>2022-01-03T17:40:43Z</time></trkpt>
<trkpt lat="40.202063" lon="8.569768"><ele>321.54</ele><time>2022-01-03T17:40:45Z</time></trkpt>
<trkpt lat="40.202046" lon="8.569942"><ele>322.7</ele><time>2022-01-03T17:40:48Z</time></trkpt>
<trkpt lat="40.20206" lon="8.5702"><ele>324.94</ele><time>2022-01-03T17:40:50Z</time></trkpt>
<trkpt lat="40.202115" lon="8.570511"><ele>328.54</ele><time>2022-01-03T17:40:53Z</time></trkpt>
<trkpt lat="40.20212" lon="8.570666"><ele>330.64</ele><time>2022-01-03T17:40:55Z</time></trkpt>
<trkpt lat="40.202106" lon="8.570783"><ele>331.94</ele><time>2022-01-03T17:40:58Z</time></trkpt>
<trkpt lat="40.202066" lon="8.570908"><ele>332.7</ele><time>2022-01-03T17:41:00Z</time></trkpt>
<trkpt lat="40.201953" lon="8.571122"><ele>332.51</ele><time>2022-01-03T17:41:03Z</time></trkpt>
<trkpt lat="40.201881" lon="8.571322"><ele>334.21</ele><time>2022-01-03T17:41:05Z</time></trkpt>
<trkpt lat="40.201834" lon="8.571513"><ele>335.4</ele><time>2022-01-03T17:41:08Z</time></trkpt>
<trkpt lat="40.201758" lon="8.572148"><ele>339.76</ele><time>2022-01-03T17:41:10Z</time></trkpt>
<trkpt lat="40.201704" lon="8.572372"><ele>340.42</ele><time>2022-01-03T17:41:13Z</time></trkpt>
<trkpt lat="40.201625" lon="8.572567"><ele>340.96</ele><time>2022-01-03T17:41:15Z</time></trkpt>
<trkpt lat="40.200904" lon="8.574014"><ele>346.77</ele><time>2022-01-03T17:41:18Z</time></trkpt>
<trkpt lat="40.20082" lon="8.574138"><ele>346.79</ele><time>2022-01-03T17:41:20Z</time></trkpt>
<trkpt lat="40.200752" lon="8.574208"><ele>347.26</ele><time>2022-01-03T17:41:23Z</time></trkpt>
<trkpt lat="40.200665" lon="8.574262"><ele>347.48</ele><time>2022-01-03T17:41:25Z</time></trkpt>
<trkpt lat="40.20056" lon="8.574286"><ele>347.43</ele><time>2022-01-03T17:41:28Z</time></trkpt>
<trkpt lat="40.199709" lon="8.574271"><ele>350.67</ele><time>2022-01-03T17:41:30Z</time></trkpt>
<trkpt lat="40.199585" lon="8.574303"><ele>350.23</ele><time>2022-01-03T17:41:33Z</time></trkpt>
<trkpt lat="40.199503" lon="8.574357"><ele>350.33</ele><time>2022-01-03T17:41:35Z</time></trkpt>
<trkpt lat="40.199436" lon="8.574431"><ele>350.85</ele><time>2022-01-03T17:41:38Z</time></trkpt>
<trkpt lat="40.199354" lon="8.574574"><ele>352.25</ele><time>2022-01-03T17:41:40Z</time></trkpt>
<trkpt lat="40.198227" lon="8.577676"><ele>372.77</ele><time>2022-01-03T17:41:43Z</time></trkpt>
<trkpt lat="40.198141" lon="8.577839"><ele>372.98</ele><time>2022-01-03T17:41:45Z</time></trkpt>
<trkpt lat="40.198091" lon="8.577894"><ele>372.47</ele><time>2022-01-03T17:41:48Z</time></trkpt>
<trkpt lat="40.197981" lon="8.577958"><ele>371.67</ele><time>2022-01-03T17:41:50Z</time></trkpt>
<trkpt lat="40.197853" lon="8.577986"><ele>370.86</ele><time>2022-01-03T17:41:53Z</time></trkpt>
<trkpt lat="40.197101" lon="8.577922"><ele>374.42</ele><time>2022-01-03T17:41:55Z</time></trkpt>
<trkpt lat="40.196883" lon="8.577858"><ele>375.73</ele><time>2022-01-03T17:41:58Z</time></trkpt>
<trkpt lat="40.196778" lon="8.577773"><ele>376.16</ele><time>2022-01-03T17:42:00Z</time></trkpt>
<trkpt lat="40.196657" lon="8.577594"><ele>376.53</ele><time>2022-01-03T17:42:03Z</time></trkpt>
<trkpt lat="40.196606" lon="8.577384"><ele>377.31</ele><time>2022-01-03T17:42:05Z</time></trkpt>
<trkpt lat="40.196506" lon="8.576633"><ele>380.89</ele><time>2022-01-03T17:42:08Z</time></trkpt>
<trkpt lat="40.196256" lon="8.574396"><ele>387.55</ele><time>2022-01-03T17:42:10Z</time></trkpt>
<trkpt lat="40.196261" lon="8.57421"><ele>388.07</ele><time>2022-01-03T17:42:13Z</time></trkpt>
<trkpt lat="40.196413" lon="8.573552"><ele>386.01</ele><time>2022-01-03T17:42:15Z</time></trkpt>
<trkpt lat="40.196416" lon="8.573432"><ele>385.47</ele><time>2022-01-03T17:42:18Z</time></trkpt>
<trkpt lat="40.196401" lon="8.573298"><ele>385.23</ele><time>2022-01-03T17:42:20Z</time></trkpt>
<trkpt lat="40.196342" lon="8.573165"><ele>385.75</ele><time>2022-01-03T17:42:23Z</time></trkpt>
<trkpt lat="40.196271" lon="8.573056"><ele>386.84</ele><time>2022-01-03T17:42:25Z</time></trkpt>
<trkpt lat="40.195423" lon="8.572239"><ele>394.66</ele><time>2022-01-03T17:42:28Z</time></trkpt>
<trkpt lat="40.195315" lon="8.572192"><ele>394.73</ele><time>2022-01-03T17:42:30Z</time></trkpt>
<trkpt lat="40.195208" lon="8.572184"><ele>394.83</ele><time>2022-01-03T17:42:33Z</time></trkpt>
<trkpt lat="40.195103" lon="8.572213"><ele>394.94</ele><time>2022-01-03T17:42:36Z</time></trkpt>
<trkpt lat="40.195014" lon="8.572277"><ele>395.59</ele><time>2022-01-03T17:42:38Z</time></trkpt>
<trkpt lat="40.194676" lon="8.572691"><ele>398.73</ele><time>2022-01-03T17:42:41Z</time></trkpt>
<trkpt lat="40.194378" lon="8.573096"><ele>402.99</ele><time>2022-01-03T17:42:43Z</time></trkpt>
<trkpt lat="40.194271" lon="8.573174"><ele>404.72</ele><time>2022-01-03T17:42:46Z</time></trkpt>
<trkpt lat="40.194179" lon="8.573205"><ele>405.25</ele><time>2022-01-03T17:42:48Z</time></trkpt>
<trkpt lat="40.194056" lon="8.5732"><ele>405.72</ele><time>2022-01-03T17:42:51Z</time></trkpt>
<trkpt lat="40.193824" lon="8.573151"><ele>406.02</ele><time>2022-01-03T17:42:53Z</time></trkpt>
<trkpt lat="40.193749" lon="8.573156"><ele>406.85</ele><time>2022-01-03T17:42:56Z</time></trkpt>
<trkpt lat="40.19361" lon="8.573128"><ele>407.58</ele><time>2022-01-03T17:42:58Z</time></trkpt>
<trkpt lat="40.193469" lon="8.57303"><ele>406.24</ele><time>2022-01-03T17:43:01Z</time></trkpt>
<trkpt lat="40.193374" lon="8.572904"><ele>405.99</ele><time>2022-01-03T17:43:03Z</time></trkpt>
<trkpt lat="40.193281" lon="8.572867"><ele>407.2</ele><time>2022-01-03T17:43:06Z</time></trkpt>
<trkpt lat="40.193185" lon="8.57288"><ele>408.84</ele><time>2022-01-03T17:43:08Z</time></trkpt>
<trkpt lat="40.193084" lon="8.572962"><ele>410.55</ele><time>2022-01-03T17:43:11Z</time></trkpt>
<trkpt lat="40.193026" lon="8.573097"><ele>411.9</ele><time>2022-01-03T17:43:14Z</time></trkpt>
<trkpt lat="40.193025" lon="8.573253"><ele>412.92</ele><time>2022-01-03T17:43:16Z</time></trkpt>
<trkpt lat="40.193081" lon="8.57339"><ele>413.94</ele><time>2022-01-03T17:43:19Z</time></trkpt>
<trkpt lat="40.193109" lon="8.573581"><ele>417.44</ele><time>2022-01-03T17:43:21Z</time></trkpt>
<trkpt lat="40.19309" lon="8.573711"><ele>419.88</ele><time>2022-01-03T17:43:24Z</time></trkpt>
<trkpt lat="40.193027" lon="8.57388"><ele>422.64</ele><time>2022-01-03T17:43:26Z</time></trkpt>
<trkpt lat="40.192879" lon="8.574024"><ele>425.67</ele><time>2022-01-03T17:43:29Z</time></trkpt>
<trkpt lat="40.192736" lon="8.57413"><ele>426.51</ele><time>2022-01-03T17:43:32Z</time></trkpt>
<trkpt lat="40.192513" lon="8.574246"><ele>428.42</ele><time>2022-01-03T17:43:34Z</time></trkpt>
<trkpt lat="40.192323" lon="8.57428"><ele>431.53</ele><time>2022-01-03T17:43:37Z</time></trkpt>
<trkpt lat="40.191196" lon="8.574256"><ele>430.39</ele><time>2022-01-03T17:43:39Z</time></trkpt>
<trkpt lat="40.191078" lon="8.574203"><ele>429.94</ele><time>2022-01-03T17:43:42Z</time></trkpt>
<trkpt lat="40.191009" lon="8.574106"><ele>430.98</ele><time>2022-01-03T17:43:44Z</time></trkpt>
<trkpt lat="40.19097" lon="8.574018"><ele>431.83</ele><time>2022-01-03T17:43:47Z</time></trkpt>
<trkpt lat="40.190959" lon="8.573932"><ele>432.42</ele><time>2022-01-03T17:43:50Z</time></trkpt>
<trkpt lat="40.190978" lon="8.573774"><ele>433.89</ele><time>2022-01-03T17:43:52Z</time></trkpt>
<trkpt lat="40.191054" lon="8.573651"><ele>434.86</ele><time>2022-01-03T17:43:55Z</time></trkpt>
<trkpt lat="40.19136" lon="8.573315"><ele>433.48</ele><time>2022-01-03T17:43:57Z</time></trkpt>
<trkpt lat="40.191448" lon="8.573155"><ele>432.72</ele><time>2022-01-03T17:44:00Z</time></trkpt>
<trkpt lat="40.191496" lon="8.572992"><ele>433.14</ele><time>2022-01-03T17:44:02Z</time></trkpt>
<trkpt lat="40.191539" lon="8.572711"><ele>435.19</ele><time>2022-01-03T17:44:05Z</time></trkpt>
<trkpt lat="40.191566" lon="8.572147"><ele>437.44</ele><time>2022-01-03T17:44:07Z</time></trkpt>
<trkpt lat="40.191555" lon="8.572013"><ele>438.67</ele><time>2022-01-03T17:44:10Z</time></trkpt>
<trkpt lat="40.19149" lon="8.57187"><ele>439.91</ele><time>2022-01-03T17:44:13Z</time></trkpt>
<trkpt lat="40.191412" lon="8.571755"><ele>440.75</ele><time>2022-01-03T17:44:15Z</time></trkpt>
<trkpt lat="40.191213" lon="8.571559"><ele>443.53</ele><time>2022-01-03T17:44:18Z</time></trkpt>
<trkpt lat="40.191006" lon="8.571136"><ele>446.98</ele><time>2022-01-03T17:44:20Z</time></trkpt>
<trkpt lat="40.190955" lon="8.570973"><ele>448.09</ele><time>2022-01-03T17:44:23Z</time></trkpt>
<trkpt lat="40.190947" lon="8.570828"><ele>448.55</ele><time>2022-01-03T17:44:25Z</time></trkpt>
<trkpt lat="40.190972" lon="8.570649"><ele>448.67</ele><time>2022-01-03T17:44:28Z</time></trkpt>
<trkpt lat="40.191281" lon="8.569586"><ele>448.52</ele><time>2022-01-03T17:44:31Z</time></trkpt>
<trkpt lat="40.191302" lon="8.56939"><ele>447.94</ele><time>2022-01-03T17:44:33Z</time></trkpt>
<trkpt lat="40.191287" lon="8.569256"><ele>448.39</ele><time>2022-01-03T17:44:36Z</time></trkpt>
<trkpt lat="40.191219" lon="8.569034"><ele>449.52</ele><time>2022-01-03T17:44:38Z</time></trkpt>
<trkpt lat="40.191142" lon="8.568841"><ele>449.93</ele><time>2022-01-03T17:44:41Z</time></trkpt>
<trkpt lat="40.191086" lon="8.568718"><ele>450.03</ele><time>2022-01-03T17:44:43Z</time></trkpt>
<trkpt lat="40.191012" lon="8.568616"><ele>450.01</ele><time>2022-01-03T17:44:46Z</time></trkpt>
<trkpt lat="40.190328" lon="8.568107"><ele>445.57</ele><time>2022-01-03T17:44:49Z</time></trkpt>
<trkpt lat="40.189502" lon="8.5678"><ele>441.27</ele><time>2022-01-03T17:44:51Z</time></trkpt>
<trkpt lat="40.188456" lon="8.567345"><ele>443.77</ele><time>2022-01-03T17:44:54Z</time></trkpt>
<trkpt lat="40.188354" lon="8.567459"><ele>446.18</ele><time>2022-01-03T17:44:55Z</time></trkpt>
<trkpt lat="40.187976" lon="8.56764"><ele>448.46</ele><time>2022-01-03T17:44:57Z</time></trkpt>
<trkpt lat="40.187832" lon="8.56778"><ele>450.42</ele><time>2022-01-03T17:44:58Z</time></trkpt>
<trkpt lat="40.187418" lon="8.568445"><ele>453.29</ele><time>2022-01-03T17:45:00Z</time></trkpt>
<trkpt lat="40.187381" lon="8.568798"><ele>453.0</ele><time>2022-01-03T17:45:01Z</time></trkpt>
<trkpt lat="40.187297" lon="8.569152"><ele>452.28</ele><time>2022-01-03T17:45:03Z</time></trkpt>
<trkpt lat="40.187281" lon="8.569358"><ele>451.81</ele><time>2022-01-03T17:45:04Z</time></trkpt>
<trkpt lat="40.187319" lon="8.569905"><ele>452.71</ele><time>2022-01-03T17:45:06Z</time></trkpt>
<trkpt lat="40.187316" lon="8.570102"><ele>454.21</ele><time>2022-01-03T17:45:07Z</time></trkpt>
<trkpt lat="40.187274" lon="8.570343"><ele>455.6</ele><time>2022-01-03T17:45:09Z</time></trkpt>
<trkpt lat="40.187248" lon="8.570419"><ele>455.94</ele><time>2022-01-03T17:45:10Z</time></trkpt>
<trkpt lat="40.18694" lon="8.570995"><ele>456.66</ele><time>2022-01-03T17:45:12Z</time></trkpt>
<trkpt lat="40.186682" lon="8.571738"><ele>458.81</ele><time>2022-01-03T17:45:13Z</time></trkpt>
<trkpt lat="40.186558" lon="8.571914"><ele>459.11</ele><time>2022-01-03T17:45:15Z</time></trkpt>
<trkpt lat="40.186211" lon="8.572204"><ele>460.6</ele><time>2022-01-03T17:45:16Z</time></trkpt>
<trkpt lat="40.185973" lon="8.572426"><ele>463.54</ele><time>2022-01-03T17:45:18Z</time></trkpt>
<trkpt lat="40.185712" lon="8.572895"><ele>466.73</ele><time>2022-01-03T17:45:20Z</time></trkpt>
<trkpt lat="40.18567" lon="8.573004"><ele>467.12</ele><time>2022-01-03T17:45:21Z</time></trkpt>
<trkpt lat="40.185532" lon="8.573363"><ele>468.49</ele><time>2022-01-03T17:45:23Z</time></trkpt>
<trkpt lat="40.185435" lon="8.573474"><ele>470.02</ele><time>2022-01-03T17:45:24Z</time></trkpt>
<trkpt lat="40.185331" lon="8.573532"><ele>470.51</ele><time>2022-01-03T17:45:26Z</time></trkpt>
<trkpt lat="40.185256" lon="8.573553"><ele>470.7</ele><time>2022-01-03T17:45:27Z</time></trkpt>
<trkpt lat="40.185099" lon="8.57355"><ele>471.56</ele><time>2022-01-03T17:45:29Z</time></trkpt>
<trkpt lat="40.184396" lon="8.573374"><ele>472.96</ele><time>2022-01-03T17:45:30Z</time></trkpt>
<trkpt lat="40.184342" lon="8.573381"><ele>472.94</ele><time>2022-01-03T17:45:32Z</time></trkpt>
<trkpt lat="40.184298" lon="8.57342"><ele>473.81</ele><time>2022-01-03T17:45:33Z</time></trkpt>
<trkpt lat="40.184279" lon="8.573472"><ele>475.09</ele><time>2022-01-03T17:45:35Z</time></trkpt>
<trkpt lat="40.184284" lon="8.57355"><ele>477.22</ele><time>2022-01-03T17:45:36Z</time></trkpt>
<trkpt lat="40.184344" lon="8.573619"><ele>479.43</ele><time>2022-01-03T17:45:38Z</time></trkpt>
<trkpt lat="40.184707" lon="8.573704"><ele>477.57</ele><time>2022-01-03T17:45:39Z</time></trkpt>
<trkpt lat="40.184837" lon="8.573747"><ele>477.41</ele><time>2022-01-03T17:45:41Z</time></trkpt>
<trkpt lat="40.184983" lon="8.573834"><ele>477.99</ele><time>2022-01-03T17:45:42Z</time></trkpt>
<trkpt lat="40.185108" lon="8.573946"><ele>479.45</ele><time>2022-01-03T17:45:44Z</time></trkpt>
<trkpt lat="40.185435" lon="8.574474"><ele>485.84</ele><time>2022-01-03T17:45:45Z</time></trkpt>
<trkpt lat="40.185527" lon="8.574589"><ele>486.77</ele><time>2022-01-03T17:45:47Z</time></trkpt>
<trkpt lat="40.186107" lon="8.574918"><ele>490.7</ele><time>2022-01-03T17:45:48Z</time></trkpt>
<trkpt lat="40.186151" lon="8.574985"><ele>491.09</ele><time>2022-01-03T17:45:50Z</time></trkpt>
<trkpt lat="40.186167" lon="8.575052"><ele>491.54</ele><time>2022-01-03T17:45:51Z</time></trkpt>
<trkpt lat="40.18616" lon="8.575137"><ele>492.07</ele><time>2022-01-03T17:45:53Z</time></trkpt>
<trkpt lat="40.186133" lon="8.575188"><ele>492.38</ele><time>2022-01-03T17:45:54Z</time></trkpt>
<trkpt lat="40.18605" lon="8.575245"><ele>492.95</ele><time>2022-01-03T17:45:56Z</time></trkpt>
<trkpt lat="40.185511" lon="8.575277"><ele>496.47</ele><time>2022-01-03T17:45:57Z</time></trkpt>
<trkpt lat="40.185391" lon="8.575233"><ele>497.04</ele><time>2022-01-03T17:45:59Z</time></trkpt>
<trkpt lat="40.184614" lon="8.574679"><ele>498.24</ele><time>2022-01-03T17:46:00Z</time></trkpt>
<trkpt lat="40.184417" lon="8.574568"><ele>497.53</ele><time>2022-01-03T17:46:02Z</time></trkpt>
<trkpt lat="40.184331" lon="8.574556"><ele>496.83</ele><time>2022-01-03T17:46:03Z</time></trkpt>
<trkpt lat="40.184253" lon="8.574571"><ele>496.73</ele><time>2022-01-03T17:46:05Z</time></trkpt>
<trkpt lat="40.184198" lon="8.574616"><ele>497.27</ele><time>2022-01-03T17:46:06Z</time></trkpt>
<trkpt lat="40.18416" lon="8.5747"><ele>498.44</ele><time>2022-01-03T17:46:08Z</time></trkpt>
<trkpt lat="40.18413" lon="8.575362"><ele>508.11</ele><time>2022-01-03T17:46:10Z</time></trkpt>
<trkpt lat="40.184072" lon="8.575551"><ele>508.87</ele><time>2022-01-03T17:46:11Z</time></trkpt>
<trkpt lat="40.183914" lon="8.575959"><ele>508.58</ele><time>2022-01-03T17:46:13Z</time></trkpt>
<trkpt lat="40.1839" lon="8.576086"><ele>509.14</ele><time>2022-01-03T17:46:14Z</time></trkpt>
<trkpt lat="40.183941" lon="8.576203"><ele>510.24</ele><time>2022-01-03T17:46:16Z</time></trkpt>
<trkpt lat="40.184154" lon="8.576605"><ele>515.79</ele><time>2022-01-03T17:46:17Z</time></trkpt>
<trkpt lat="40.184227" lon="8.5768"><ele>517.24</ele><time>2022-01-03T17:46:19Z</time></trkpt>
<trkpt lat="40.184271" lon="8.576989"><ele>518.7</ele><time>2022-01-03T17:46:20Z</time></trkpt>
<trkpt lat="40.184262" lon="8.577177"><ele>519.76</ele><time>2022-01-03T17:46:22Z</time></trkpt>
<trkpt lat="40.184122" lon="8.577818"><ele>522.95</ele><time>2022-01-03T17:46:23Z</time></trkpt>
<trkpt lat="40.18406" lon="8.577919"><ele>524.14</ele><time>2022-01-03T17:46:25Z</time></trkpt>
<trkpt lat="40.183985" lon="8.577996"><ele>524.81</ele><time>2022-01-03T17:46:26Z</time></trkpt>
<trkpt lat="40.183907" lon="8.57804"><ele>524.81</ele><time>2022-01-03T17:46:28Z</time></trkpt>
<trkpt lat="40.183822" lon="8.578058"><ele>525.08</ele><time>2022-01-03T17:46:29Z</time></trkpt>
<trkpt lat="40.183578" lon="8.578029"><ele>524.48</ele><time>2022-01-03T17:46:31Z</time></trkpt>
<trkpt lat="40.183413" lon="8.577987"><ele>524.93</ele><time>2022-01-03T17:46:32Z</time></trkpt>
<trkpt lat="40.183296" lon="8.577922"><ele>524.41</ele><time>2022-01-03T17:46:34Z</time></trkpt>
<trkpt lat="40.18317" lon="8.5778"><ele>523.19</ele><time>2022-01-03T17:46:35Z</time></trkpt>
<trkpt lat="40.182737" lon="8.57725"><ele>517.55</ele><time>2022-01-03T17:46:37Z</time></trkpt>
<trkpt lat="40.182636" lon="8.577265"><ele>517.48</ele><time>2022-01-03T17:46:38Z</time></trkpt>
<trkpt lat="40.1826" lon="8.577308"><ele>518.33</ele><time>2022-01-03T17:46:40Z</time></trkpt>
<trkpt lat="40.182589" lon="8.577388"><ele>520.1</ele><time>2022-01-03T17:46:41Z</time></trkpt>
<trkpt lat="40.182786" lon="8.577857"><ele>531.17</ele><time>2022-01-03T17:46:43Z</time></trkpt>
<trkpt lat="40.182824" lon="8.578036"><ele>532.02</ele><time>2022-01-03T17:46:44Z</time></trkpt>
<trkpt lat="40.182824" lon="8.578225"><ele>534.81</ele><time>2022-01-03T17:46:46Z</time></trkpt>
<trkpt lat="40.182781" lon="8.578399"><ele>537.22</ele><time>2022-01-03T17:46:47Z</time></trkpt>
<trkpt lat="40.182712" lon="8.57857"><ele>539.32</ele><time>2022-01-03T17:46:49Z</time></trkpt>
<trkpt lat="40.182642" lon="8.578689"><ele>541.03</ele><time>2022-01-03T17:46:50Z</time></trkpt>
<trkpt lat="40.182568" lon="8.578777"><ele>542.15</ele><time>2022-01-03T17:46:52Z</time></trkpt>
<trkpt lat="40.182497" lon="8.578825"><ele>542.42</ele><time>2022-01-03T17:46:53Z</time></trkpt>
<trkpt lat="40.182424" lon="8.578832"><ele>543.38</ele><time>2022-01-03T17:46:55Z</time></trkpt>
<trkpt lat="40.182249" lon="8.578714"><ele>542.29</ele><time>2022-01-03T17:46:56Z</time></trkpt>
<trkpt lat="40.182126" lon="8.578567"><ele>541.22</ele><time>2022-01-03T17:46:58Z</time></trkpt>
<trkpt lat="40.181968" lon="8.578238"><ele>537.25</ele><time>2022-01-03T17:47:00Z</time></trkpt>
<trkpt lat="40.181859" lon="8.578132"><ele>535.31</ele><time>2022-01-03T17:47:01Z</time></trkpt>
<trkpt lat="40.181731" lon="8.578113"><ele>535.37</ele><time>2022-01-03T17:47:03Z</time></trkpt>
<trkpt lat="40.181557" lon="8.578141"><ele>534.87</ele><time>2022-01-03T17:47:04Z</time></trkpt>
<trkpt lat="40.181431" lon="8.578253"><ele>537.27</ele><time>2022-01-03T17:47:06Z</time></trkpt>
<trkpt lat="40.181366" lon="8.578352"><ele>539.6</ele><time>2022-01-03T17:47:07Z</time></trkpt>
<trkpt lat="40.18117" lon="8.578897"><ele>547.65</ele><time>2022-01-03T17:47:09Z</time></trkpt>
<trkpt lat="40.181096" lon="8.579263"><ele>553.62</ele><time>2022-01-03T17:47:10Z</time></trkpt>
<trkpt lat="40.180996" lon="8.57945"><ele>555.25</ele><time>2022-01-03T17:47:12Z</time></trkpt>
<trkpt lat="40.180851" lon="8.579596"><ele>556.32</ele><time>2022-01-03T17:47:13Z</time></trkpt>
<trkpt lat="40.180594" lon="8.579693"><ele>552.86</ele><time>2022-01-03T17:47:15Z</time></trkpt>
<trkpt lat="40.180495" lon="8.57976"><ele>551.92</ele><time>2022-01-03T17:47:16Z</time></trkpt>
<trkpt lat="40.180397" lon="8.57989"><ele>552.86</ele><time>2022-01-03T17:47:18Z</time></trkpt>
<trkpt lat="40.180325" lon="8.580084"><ele>556.04</ele><time>2022-01-03T17:47:19Z</time></trkpt>
<trkpt lat="40.180113" lon="8.581377"><ele>564.36</ele><time>2022-01-03T17:47:21Z</time></trkpt>
<trkpt lat="40.180042" lon="8.581596"><ele>565.17</ele><time>2022-01-03T17:47:22Z</time></trkpt>
<trkpt lat="40.179975" lon="8.581735"><ele>565.08</ele><time>2022-01-03T17:47:24Z</time></trkpt>
<trkpt lat="40.179947" lon="8.581844"><ele>565.63</ele><time>2022-01-03T17:47:25Z</time></trkpt>
<trkpt lat="40.17987" lon="8.582528"><ele>570.93</ele><time>2022-01-03T17:47:27Z</time></trkpt>
<trkpt lat="40.179789" lon="8.582951"><ele>572.35</ele><time>2022-01-03T17:47:28Z</time></trkpt>
<trkpt lat="40.179791" lon="8.583177"><ele>574.3</ele><time>2022-01-03T17:47:30Z</time></trkpt>
<trkpt lat="40.179839" lon="8.583767"><ele>579.87</ele><time>2022-01-03T17:47:31Z</time></trkpt>
<trkpt lat="40.179791" lon="8.584771"><ele>584.57</ele><time>2022-01-03T17:47:33Z</time></trkpt>
<trkpt lat="40.179766" lon="8.584984"><ele>587.29</ele><time>2022-01-03T17:47:34Z</time></trkpt>
<trkpt lat="40.179702" lon="8.585107"><ele>587.96</ele><time>2022-01-03T17:47:36Z</time></trkpt>
<trkpt lat="40.179471" lon="8.58542"><ele>590.17</ele><time>2022-01-03T17:47:37Z</time></trkpt>
<trkpt lat="40.179333" lon="8.585479"><ele>589.24</ele><time>2022-01-03T17:47:39Z</time></trkpt>
<trkpt lat="40.179218" lon="8.585473"><ele>588.31</ele><time>2022-01-03T17:47:40Z</time></trkpt>
<trkpt lat="40.179094" lon="8.585421"><ele>587.57</ele><time>2022-01-03T17:47:42Z</time></trkpt>
<trkpt lat="40.178881" lon="8.585184"><ele>587.8</ele><time>2022-01-03T17:47:43Z</time></trkpt>
<trkpt lat="40.178865" lon="8.585036"><ele>587.48</ele><time>2022-01-03T17:47:45Z</time></trkpt>
<trkpt lat="40.178904" lon="8.584858"><ele>585.68</ele><time>2022-01-03T17:47:46Z</time></trkpt>
<trkpt lat="40.178907" lon="8.584697"><ele>584.25</ele><time>2022-01-03T17:47:48Z</time></trkpt>
<trkpt lat="40.178867" lon="8.584524"><ele>583.38</ele><time>2022-01-03T17:47:50Z</time></trkpt>
<trkpt lat="40.178759" lon="8.584388"><ele>584.57</ele><time>2022-01-03T17:47:51Z</time></trkpt>
<trkpt lat="40.178629" lon="8.584291"><ele>586.37</ele><time>2022-01-03T17:47:53Z</time></trkpt>
<trkpt lat="40.178404" lon="8.584256"><ele>588.04</ele><time>2022-01-03T17:47:54Z</time></trkpt>
<trkpt lat="40.177766" lon="8.584361"><ele>588.14</ele><time>2022-01-03T17:47:56Z</time></trkpt>
<trkpt lat="40.17754" lon="8.584291"><ele>588.2</ele><time>2022-01-03T17:47:57Z</time></trkpt>
<trkpt lat="40.177386" lon="8.584207"><ele>588.67</ele><time>2022-01-03T17:47:59Z</time></trkpt>
<trkpt lat="40.177236" lon="8.584045"><ele>589.0</ele><time>2022-01-03T17:48:00Z</time></trkpt>
<trkpt lat="40.176865" lon="8.583501"><ele>590.59</ele><time>2022-01-03T17:48:02Z</time></trkpt>
<trkpt lat="40.176704" lon="8.583438"><ele>592.87</ele><time>2022-01-03T17:48:03Z</time></trkpt>
<trkpt lat="40.176581" lon="8.583462"><ele>593.77</ele><time>2022-01-03T17:48:05Z</time></trkpt>
<trkpt lat="40.176484" lon="8.583521"><ele>594.33</ele><time>2022-01-03T17:48:06Z</time></trkpt>
<trkpt lat="40.176405" lon="8.583661"><ele>595.47</ele><time>2022-01-03T17:48:08Z</time></trkpt>
<trkpt lat="40.176357" lon="8.583787"><ele>596.49</ele><time>2022-01-03T17:48:09Z</time></trkpt>
<trkpt lat="40.176318" lon="8.583954"><ele>597.45</ele><time>2022-01-03T17:48:11Z</time></trkpt>
<trkpt lat="40.176322" lon="8.584174"><ele>599.09</ele><time>2022-01-03T17:48:12Z</time></trkpt>
<trkpt lat="40.176501" lon="8.585042"><ele>606.09</ele><time>2022-01-03T17:48:14Z</time></trkpt>
<trkpt lat="40.176579" lon="8.585617"><ele>608.73</ele><time>2022-01-03T17:48:15Z</time></trkpt>
<trkpt lat="40.176592" lon="8.585903"><ele>609.35</ele><time>2022-01-03T17:48:17Z</time></trkpt>
<trkpt lat="40.176544" lon="8.586448"><ele>612.11</ele><time>2022-01-03T17:48:18Z</time></trkpt>
<trkpt lat="40.17658" lon="8.58741"><ele>618.27</ele><time>2022-01-03T17:48:20Z</time></trkpt>
<trkpt lat="40.176567" lon="8.587569"><ele>619.89</ele><time>2022-01-03T17:48:21Z</time></trkpt>
<trkpt lat="40.176533" lon="8.587683"><ele>620.54</ele><time>2022-01-03T17:48:23Z</time></trkpt>
<trkpt lat="40.176358" lon="8.587839"><ele>620.33</ele><time>2022-01-03T17:48:24Z</time></trkpt>
<trkpt lat="40.176235" lon="8.587911"><ele>619.77</ele><time>2022-01-03T17:48:26Z</time></trkpt>
<trkpt lat="40.176138" lon="8.588028"><ele>620.0</ele><time>2022-01-03T17:48:27Z</time></trkpt>
<trkpt lat="40.175974" lon="8.588356"><ele>620.32</ele><time>2022-01-03T17:48:29Z</time></trkpt>
<trkpt lat="40.175896" lon="8.588654"><ele>622.43</ele><time>2022-01-03T17:48:30Z</time></trkpt>
<trkpt lat="40.17589" lon="8.588894"><ele>624.04</ele><time>2022-01-03T17:48:32Z</time></trkpt>
<trkpt lat="40.175905" lon="8.589198"><ele>625.97</ele><time>2022-01-03T17:48:33Z</time></trkpt>
<trkpt lat="40.175877" lon="8.589473"><ele>629.16</ele><time>2022-01-03T17:48:35Z</time></trkpt>
<trkpt lat="40.175832" lon="8.589614"><ele>630.41</ele><time>2022-01-03T17:48:36Z</time></trkpt>
<trkpt lat="40.1754" lon="8.590468"><ele>634.24</ele><time>2022-01-03T17:48:38Z</time></trkpt>
<trkpt lat="40.175333" lon="8.590645"><ele>635.5</ele><time>2022-01-03T17:48:40Z</time></trkpt>
<trkpt lat="40.175304" lon="8.590825"><ele>637.09</ele><time>2022-01-03T17:48:41Z</time></trkpt>
<trkpt lat="40.175358" lon="8.59172"><ele>643.69</ele><time>2022-01-03T17:48:43Z</time></trkpt>
<trkpt lat="40.17547" lon="8.592841"><ele>649.13</ele><time>2022-01-03T17:48:44Z</time></trkpt>
<trkpt lat="40.175443" lon="8.593241"><ele>650.9</ele><time>2022-01-03T17:48:46Z</time></trkpt>
<trkpt lat="40.175272" lon="8.594698"><ele>659.72</ele><time>2022-01-03T17:48:47Z</time></trkpt>
<trkpt lat="40.175274" lon="8.595127"><ele>661.91</ele><time>2022-01-03T17:48:49Z</time></trkpt>
<trkpt lat="40.175304" lon="8.595453"><ele>663.2</ele><time>2022-01-03T17:48:50Z</time></trkpt>
<trkpt lat="40.175362" lon="8.595518"><ele>664.68</ele><time>2022-01-03T17:48:52Z</time></trkpt>
<trkpt lat="40.175413" lon="8.595524"><ele>665.79</ele><time>2022-01-03T17:48:53Z</time></trkpt>
<trkpt lat="40.17546" lon="8.595497"><ele>666.73</ele><time>2022-01-03T17:48:55Z</time></trkpt>
<trkpt lat="40.175505" lon="8.5954"><ele>667.36</ele><time>2022-01-03T17:48:56Z</time></trkpt>
<trkpt lat="40.175509" lon="8.595084"><ele>667.0</ele><time>2022-01-03T17:48:58Z</time></trkpt>
<trkpt lat="40.175542" lon="8.5949"><ele>667.33</ele><time>2022-01-03T17:48:59Z</time></trkpt>
<trkpt lat="40.175598" lon="8.594774"><ele>667.8</ele><time>2022-01-03T17:49:01Z</time></trkpt>
<trkpt lat="40.176383" lon="8.593455"><ele>674.28</ele><time>2022-01-03T17:49:02Z</time></trkpt>
<trkpt lat="40.176435" lon="8.593283"><ele>675.78</ele><time>2022-01-03T17:49:04Z</time></trkpt>
<trkpt lat="40.176489" lon="8.592911"><ele>677.38</ele><time>2022-01-03T17:49:05Z</time></trkpt>
<trkpt lat="40.176487" lon="8.592461"><ele>676.29</ele><time>2022-01-03T17:49:07Z</time></trkpt>
<trkpt lat="40.176539" lon="8.592321"><ele>676.79</ele><time>2022-01-03T17:49:08Z</time></trkpt>
<trkpt lat="40.176767" lon="8.592004"><ele>681.35</ele><time>2022-01-03T17:49:10Z</time></trkpt>
<trkpt lat="40.176983" lon="8.591518"><ele>680.06</ele><time>2022-01-03T17:49:11Z</time></trkpt>
<trkpt lat="40.177032" lon="8.591488"><ele>680.98</ele><time>2022-01-03T17:49:13Z</time></trkpt>
<trkpt lat="40.177086" lon="8.591503"><ele>683.06</ele><time>2022-01-03T17:49:14Z</time></trkpt>
<trkpt lat="40.177131" lon="8.591569"><ele>685.93</ele><time>2022-01-03T17:49:16Z</time></trkpt>
<trkpt lat="40.177136" lon="8.591633"><ele>687.49</ele><time>2022-01-03T17:49:17Z</time></trkpt>
<trkpt lat="40.176952" lon="8.592053"><ele>687.89</ele><time>2022-01-03T17:49:19Z</time></trkpt>
<trkpt lat="40.176838" lon="8.592368"><ele>686.85</ele><time>2022-01-03T17:49:20Z</time></trkpt>
<trkpt lat="40.17684" lon="8.59287"><ele>689.84</ele><time>2022-01-03T17:49:22Z</time></trkpt>
<trkpt lat="40.177032" lon="8.59397"><ele>701.26</ele><time>2022-01-03T17:49:23Z</time></trkpt>
<trkpt lat="40.177032" lon="8.594254"><ele>703.89</ele><time>2022-01-03T17:49:25Z</time></trkpt>
<trkpt lat="40.177005" lon="8.594526"><ele>705.15</ele><time>2022-01-03T17:49:26Z</time></trkpt>
<trkpt lat="40.176809" lon="8.595509"><ele>703.62</ele><time>2022-01-03T17:49:28Z</time></trkpt>
<trkpt lat="40.176704" lon="8.595809"><ele>701.18</ele><time>2022-01-03T17:49:30Z</time></trkpt>
<trkpt lat="40.176659" lon="8.596012"><ele>702.33</ele><time>2022-01-03T17:49:31Z</time></trkpt>
<trkpt lat="40.176634" lon="8.59633"><ele>705.22</ele><time>2022-01-03T17:49:33Z</time></trkpt>
<trkpt lat="40.176621" lon="8.596721"><ele>707.95</ele><time>2022-01-03T17:49:34Z</time></trkpt>
<trkpt lat="40.176632" lon="8.596865"><ele>710.41</ele><time>2022-01-03T17:49:36Z</time></trkpt>
<trkpt lat="40.176664" lon="8.597041"><ele>713.23</ele><time>2022-01-03T17:49:37Z</time></trkpt>
<trkpt lat="40.176759" lon="8.597361"><ele>717.34</ele><time>2022-01-03T17:49:39Z</time></trkpt>
<trkpt lat="40.176774" lon="8.59752"><ele>717.96</ele><time>2022-01-03T17:49:40Z</time></trkpt>
<trkpt lat="40.17675" lon="8.597647"><ele>717.69</ele><time>2022-01-03T17:49:42Z</time></trkpt>
<trkpt lat="40.176611" lon="8.598118"><ele>714.89</ele><time>2022-01-03T17:49:43Z</time></trkpt>
<trkpt lat="40.176628" lon="8.598471"><ele>717.61</ele><time>2022-01-03T17:49:45Z</time></trkpt>
<trkpt lat="40.176737" lon="8.598996"><ele>721.74</ele><time>2022-01-03T17:49:46Z</time></trkpt>
<trkpt lat="40.176744" lon="8.599142"><ele>721.69</ele><time>2022-01-03T17:49:48Z</time></trkpt>
<trkpt lat="40.176719" lon="8.599592"><ele>723.99</ele><time>2022-01-03T17:49:49Z</time></trkpt>
<trkpt lat="40.176685" lon="8.599875"><ele>727.02</ele><time>2022-01-03T17:49:51Z</time></trkpt>
<trkpt lat="40.176447" lon="8.600727"><ele>731.87</ele><time>2022-01-03T17:49:52Z</time></trkpt>
<trkpt lat="40.176446" lon="8.60097"><ele>733.43</ele><time>2022-01-03T17:49:54Z</time></trkpt>
<trkpt lat="40.176569" lon="8.601437"><ele>738.52</ele><time>2022-01-03T17:49:55Z</time></trkpt>
<trkpt lat="40.176569" lon="8.601598"><ele>739.68</ele><time>2022-01-03T17:49:57Z</time></trkpt>
<trkpt lat="40.176352" lon="8.602203"><ele>740.81</ele><time>2022-01-03T17:49:58Z</time></trkpt>
<trkpt lat="40.176106" lon="8.602684"><ele>744.32</ele><time>2022-01-03T17:50:00Z</time></trkpt>
<trkpt lat="40.176024" lon="8.602773"><ele>745.92</ele><time>2022-01-03T17:50:01Z</time></trkpt>
<trkpt lat="40.175875" lon="8.602768"><ele>745.82</ele><time>2022-01-03T17:50:03Z</time></trkpt>
<trkpt lat="40.175674" lon="8.602665"><ele>745.22</ele><time>2022-01-03T17:50:04Z</time></trkpt>
<trkpt lat="40.175491" lon="8.602521"><ele>743.44</ele><time>2022-01-03T17:50:06Z</time></trkpt>
<trkpt lat="40.175319" lon="8.602445"><ele>743.89</ele><time>2022-01-03T17:50:07Z</time></trkpt>
<trkpt lat="40.175063" lon="8.602418"><ele>744.41</ele><time>2022-01-03T17:50:09Z</time></trkpt>
<trkpt lat="40.174693" lon="8.602445"><ele>745.51</ele><time>2022-01-03T17:50:10Z</time></trkpt>
<trkpt lat="40.174418" lon="8.602534"><ele>748.22</ele><time>2022-01-03T17:50:12Z</time></trkpt>
<trkpt lat="40.174294" lon="8.602629"><ele>747.9</ele><time>2022-01-03T17:50:13Z</time></trkpt>
<trkpt lat="40.174259" lon="8.602761"><ele>749.39</ele><time>2022-01-03T17:50:15Z</time></trkpt>
<trkpt lat="40.174271" lon="8.60307"><ele>752.44</ele><time>2022-01-03T17:50:16Z</time></trkpt>
<trkpt lat="40.174248" lon="8.603348"><ele>752.72</ele><time>2022-01-03T17:50:18Z</time></trkpt>
<trkpt lat="40.174256" lon="8.603504"><ele>753.89</ele><time>2022-01-03T17:50:19Z</time></trkpt>
<trkpt lat="40.174448" lon="8.604204"><ele>762.23</ele><time>2022-01-03T17:50:21Z</time></trkpt>
<trkpt lat="40.174464" lon="8.604404"><ele>763.34</ele><time>2022-01-03T17:50:23Z</time></trkpt>
<trkpt lat="40.174403" lon="8.604662"><ele>763.78</ele><time>2022-01-03T17:50:24Z</time></trkpt>
<trkpt lat="40.174136" lon="8.604958"><ele>763.8</ele><time>2022-01-03T17:50:26Z</time></trkpt>
<trkpt lat="40.1736" lon="8.605786"><ele>767.03</ele><time>2022-01-03T17:50:27Z</time></trkpt>
<trkpt lat="40.17341" lon="8.606271"><ele>773.85</ele><time>2022-01-03T17:50:29Z</time></trkpt>
<trkpt lat="40.173289" lon="8.606399"><ele>774.49</ele><time>2022-01-03T17:50:30Z</time></trkpt>
<trkpt lat="40.173032" lon="8.606612"><ele>774.39</ele><time>2022-01-03T17:50:32Z</time></trkpt>
<trkpt lat="40.172699" lon="8.607051"><ele>781.1</ele><time>2022-01-03T17:50:33Z</time></trkpt>
<trkpt lat="40.172042" lon="8.607463"><ele>785.29</ele><time>2022-01-03T17:50:35Z</time></trkpt>
<trkpt lat="40.171853" lon="8.607487"><ele>787.04</ele><time>2022-01-03T17:50:36Z</time></trkpt>
<trkpt lat="40.171721" lon="8.607439"><ele>788.08</ele><time>2022-01-03T17:50:38Z</time></trkpt>
<trkpt lat="40.171688" lon="8.607357"><ele>787.08</ele><time>2022-01-03T17:50:39Z</time></trkpt>
<trkpt lat="40.171552" lon="8.607157"><ele>787.82</ele><time>2022-01-03T17:50:41Z</time></trkpt>
<trkpt lat="40.171079" lon="8.606706"><ele>791.42</ele><time>2022-01-03T17:50:42Z</time></trkpt>
<trkpt lat="40.170448" lon="8.605742"><ele>795.84</ele><time>2022-01-03T17:50:44Z</time></trkpt>
<trkpt lat="40.170161" lon="8.605166"><ele>792.99</ele><time>2022-01-03T17:50:45Z</time></trkpt>
<trkpt lat="40.170113" lon="8.605117"><ele>794.21</ele><time>2022-01-03T17:50:47Z</time></trkpt>
<trkpt lat="40.170023" lon="8.605147"><ele>797.75</ele><time>2022-01-03T17:50:48Z</time></trkpt>
<trkpt lat="40.170015" lon="8.605292"><ele>799.68</ele><time>2022-01-03T17:50:50Z</time></trkpt>
<trkpt lat="40.170535" lon="8.606534"><ele>800.72</ele><time>2022-01-03T17:50:51Z</time></trkpt>
<trkpt lat="40.17062" lon="8.606948"><ele>805.42</ele><time>2022-01-03T17:50:53Z</time></trkpt>
<trkpt lat="40.170743" lon="8.607169"><ele>804.95</ele><time>2022-01-03T17:50:54Z</time></trkpt>
<trkpt lat="40.17099" lon="8.607429"><ele>801.57</ele><time>2022-01-03T17:50:56Z</time></trkpt>
<trkpt lat="40.17102" lon="8.607492"><ele>801.25</ele><time>2022-01-03T17:50:57Z</time></trkpt>
<trkpt lat="40.171013" lon="8.607587"><ele>802.84</ele><time>2022-01-03T17:50:59Z</time></trkpt>
<trkpt lat="40.170984" lon="8.607674"><ele>804.99</ele><time>2022-01-03T17:51:00Z</time></trkpt>
<trkpt lat="40.17088" lon="8.607749"><ele>809.16</ele><time>2022-01-03T17:51:02Z</time></trkpt>
<trkpt lat="40.170801" lon="8.607724"><ele>810.78</ele><time>2022-01-03T17:51:03Z</time></trkpt>
<trkpt lat="40.170717" lon="8.607611"><ele>811.02</ele><time>2022-01-03T17:51:05Z</time></trkpt>
<trkpt lat="40.17062" lon="8.607385"><ele>810.89</ele><time>2022-01-03T17:51:06Z</time></trkpt>
<trkpt lat="40.170105" lon="8.606563"><ele>813.23</ele><time>2022-01-03T17:51:08Z</time></trkpt>
<trkpt lat="40.169833" lon="8.606342"><ele>814.86</ele><time>2022-01-03T17:51:09Z</time></trkpt>
<trkpt lat="40.169582" lon="8.606264"><ele>815.65</ele><time>2022-01-03T17:51:11Z</time></trkpt>
<trkpt lat="40.169458" lon="8.606287"><ele>816.47</ele><time>2022-01-03T17:51:13Z</time></trkpt>
<trkpt lat="40.169047" lon="8.606689"><ele>819.63</ele><time>2022-01-03T17:51:14Z</time></trkpt>
<trkpt lat="40.16848" lon="8.607102"><ele>820.82</ele><time>2022-01-03T17:51:16Z</time></trkpt>
<trkpt lat="40.168028" lon="8.607576"><ele>819.99</ele><time>2022-01-03T17:51:17Z</time></trkpt>
<trkpt lat="40.167707" lon="8.608308"><ele>823.06</ele><time>2022-01-03T17:51:19Z</time></trkpt>
<trkpt lat="40.16766" lon="8.608565"><ele>825.59</ele><time>2022-01-03T17:51:20Z</time></trkpt>
<trkpt lat="40.167554" lon="8.609872"><ele>836.92</ele><time>2022-01-03T17:51:22Z</time></trkpt>
<trkpt lat="40.167512" lon="8.610194"><ele>833.32</ele><time>2022-01-03T17:51:23Z</time></trkpt>
<trkpt lat="40.167438" lon="8.610481"><ele>832.45</ele><time>2022-01-03T17:51:25Z</time></trkpt>
<trkpt lat="40.167255" lon="8.610993"><ele>833.02</ele><time>2022-01-03T17:51:26Z</time></trkpt>
<trkpt lat="40.167163" lon="8.611321"><ele>836.15</ele><time>2022-01-03T17:51:28Z</time></trkpt>
<trkpt lat="40.16704" lon="8.612224"><ele>844.5</ele><time>2022-01-03T17:51:29Z</time></trkpt>
<trkpt lat="40.16696" lon="8.612455"><ele>844.85</ele><time>2022-01-03T17:51:31Z</time></trkpt>
<trkpt lat="40.166652" lon="8.612919"><ele>845.08</ele><time>2022-01-03T17:51:32Z</time></trkpt>
<trkpt lat="40.166143" lon="8.613478"><ele>845.91</ele><time>2022-01-03T17:51:34Z</time></trkpt>
<trkpt lat="40.165763" lon="8.613648"><ele>848.83</ele><time>2022-01-03T17:51:35Z</time></trkpt>
<trkpt lat="40.165556" lon="8.613656"><ele>850.62</ele><time>2022-01-03T17:51:37Z</time></trkpt>
<trkpt lat="40.165148" lon="8.61352"><ele>852.44</ele><time>2022-01-03T17:51:38Z</time></trkpt>
<trkpt lat="40.164982" lon="8.61349"><ele>853.35</ele><time>2022-01-03T17:51:40Z</time></trkpt>
<trkpt lat="40.164553" lon="8.613509"><ele>857.3</ele><time>2022-01-03T17:51:41Z</time></trkpt>
<trkpt lat="40.164179" lon="8.613469"><ele>856.4</ele><time>2022-01-03T17:51:43Z</time></trkpt>
<trkpt lat="40.163853" lon="8.613544"><ele>855.02</ele><time>2022-01-03T17:51:44Z</time></trkpt>
<trkpt lat="40.163667" lon="8.613658"><ele>856.97</ele><time>2022-01-03T17:51:46Z</time></trkpt>
<trkpt lat="40.163422" lon="8.614048"><ele>864.42</ele><time>2022-01-03T17:51:47Z</time></trkpt>
<trkpt lat="40.163298" lon="8.614193"><ele>865.16</ele><time>2022-01-03T17:51:49Z</time></trkpt>
<trkpt lat="40.16317" lon="8.614276"><ele>864.95</ele><time>2022-01-03T17:51:50Z</time></trkpt>
<trkpt lat="40.162761" lon="8.614404"><ele>860.28</ele><time>2022-01-03T17:51:52Z</time></trkpt>
<trkpt lat="40.162682" lon="8.614495"><ele>859.8</ele><time>2022-01-03T17:51:53Z</time></trkpt>
<trkpt lat="40.162561" lon="8.614691"><ele>859.41</ele><time>2022-01-03T17:51:55Z</time></trkpt>
<trkpt lat="40.162522" lon="8.614811"><ele>860.34</ele><time>2022-01-03T17:51:56Z</time></trkpt>
<trkpt lat="40.162528" lon="8.614959"><ele>863.26</ele><time>2022-01-03T17:51:58Z</time></trkpt>
<trkpt lat="40.162605" lon="8.615348"><ele>872.23</ele><time>2022-01-03T17:51:59Z</time></trkpt>
<trkpt lat="40.162604" lon="8.615541"><ele>875.15</ele><time>2022-01-03T17:52:01Z</time></trkpt>
<trkpt lat="40.162555" lon="8.61571"><ele>875.89</ele><time>2022-01-03T17:52:03Z</time></trkpt>
<trkpt lat="40.162381" lon="8.616024"><ele>874.87</ele><time>2022-01-03T17:52:04Z</time></trkpt>
<trkpt lat="40.162329" lon="8.616178"><ele>874.71</ele><time>2022-01-03T17:52:06Z</time></trkpt>
<trkpt lat="40.162338" lon="8.616496"><ele>875.51</ele><time>2022-01-03T17:52:07Z</time></trkpt>
<trkpt lat="40.16236" lon="8.616623"><ele>876.04</ele><time>2022-01-03T17:52:09Z</time></trkpt>
<trkpt lat="40.162534" lon="8.617015"><ele>880.2</ele><time>2022-01-03T17:52:10Z</time></trkpt>
<trkpt lat="40.162558" lon="8.617142"><ele>879.68</ele><time>2022-01-03T17:52:12Z</time></trkpt>
<trkpt lat="40.162556" lon="8.617757"><ele>877.49</ele><time>2022-01-03T17:52:13Z</time></trkpt>
<trkpt lat="40.162708" lon="8.618806"><ele>873.4</ele><time>2022-01-03T17:52:15Z</time></trkpt>
<trkpt lat="40.162845" lon="8.619543"><ele>873.05</ele><time>2022-01-03T17:52:16Z</time></trkpt>
<trkpt lat="40.162942" lon="8.620834"><ele>875.04</ele><time>2022-01-03T17:52:18Z</time></trkpt>
<trkpt lat="40.163177" lon="8.621974"><ele>875.38</ele><time>2022-01-03T17:52:19Z</time></trkpt>
<trkpt lat="40.1632" lon="8.622196"><ele>874.89</ele><time>2022-01-03T17:52:21Z</time></trkpt>
<trkpt lat="40.163179" lon="8.62261"><ele>877.42</ele><time>2022-01-03T17:52:22Z</time></trkpt>
<trkpt lat="40.163245" lon="8.623061"><ele>878.28</ele><time>2022-01-03T17:52:24Z</time></trkpt>
<trkpt lat="40.16331" lon="8.623372"><ele>878.43</ele><time>2022-01-03T17:52:25Z</time></trkpt>
<trkpt lat="40.163407" lon="8.62362"><ele>879.01</ele><time>2022-01-03T17:52:27Z</time></trkpt>
<trkpt lat="40.16356" lon="8.623833"><ele>878.98</ele><time>2022-01-03T17:52:28Z</time></trkpt>
<trkpt lat="40.164854" lon="8.625178"><ele>879.97</ele><time>2022-01-03T17:52:30Z</time></trkpt>
<trkpt lat="40.164936" lon="8.625375"><ele>880.23</ele><time>2022-01-03T17:52:31Z</time></trkpt>
<trkpt lat="40.164997" lon="8.626191"><ele>875.48</ele><time>2022-01-03T17:52:33Z</time></trkpt>
<trkpt lat="40.165128" lon="8.626796"><ele>872.17</ele><time>2022-01-03T17:52:34Z</time></trkpt>
<trkpt lat="40.165865" lon="8.628713"><ele>862.4</ele><time>2022-01-03T17:52:36Z</time></trkpt>
<trkpt lat="40.166194" lon="8.629959"><ele>855.58</ele><time>2022-01-03T17:52:37Z</time></trkpt>
<trkpt lat="40.166377" lon="8.630442"><ele>855.76</ele><time>2022-01-03T17:52:39Z</time></trkpt>
<trkpt lat="40.166497" lon="8.630641"><ele>854.05</ele><time>2022-01-03T17:52:40Z</time></trkpt>
<trkpt lat="40.166606" lon="8.630753"><ele>852.09</ele><time>2022-01-03T17:52:42Z</time></trkpt>
<trkpt lat="40.166894" lon="8.630847"><ele>851.17</ele><time>2022-01-03T17:52:43Z</time></trkpt>
<trkpt lat="40.168368" lon="8.63037"><ele>845.86</ele><time>2022-01-03T17:52:45Z</time></trkpt>
<trkpt lat="40.168792" lon="8.630166"><ele>843.86</ele><time>2022-01-03T17:52:46Z</time></trkpt>
<trkpt lat="40.168886" lon="8.630185"><ele>844.0</ele><time>2022-01-03T17:52:48Z</time></trkpt>
<trkpt lat="40.169002" lon="8.630298"><ele>845.13</ele><time>2022-01-03T17:52:49Z</time></trkpt>
<trkpt lat="40.169086" lon="8.63051"><ele>845.73</ele><time>2022-01-03T17:52:51Z</time></trkpt>
<trkpt lat="40.169168" lon="8.630825"><ele>844.99</ele><time>2022-01-03T17:52:53Z</time></trkpt>
<trkpt lat="40.169234" lon="8.631137"><ele>845.33</ele><time>2022-01-03T17:52:54Z</time></trkpt>
<trkpt lat="40.169263" lon="8.631426"><ele>845.63</ele><time>2022-01-03T17:52:56Z</time></trkpt>
<trkpt lat="40.169705" lon="8.632829"><ele>842.58</ele><time>2022-01-03T17:52:57Z</time></trkpt>
<trkpt lat="40.16989" lon="8.633373"><ele>840.91</ele><time>2022-01-03T17:52:59Z</time></trkpt>
<trkpt lat="40.170531" lon="8.63476"><ele>839.4</ele><time>2022-01-03T17:53:00Z</time></trkpt>
<trkpt lat="40.170737" lon="8.63543"><ele>839.01</ele><time>2022-01-03T17:53:02Z</time></trkpt>
<trkpt lat="40.170934" lon="8.63624"><ele>837.19</ele><time>2022-01-03T17:53:03Z</time></trkpt>
<trkpt lat="40.170967" lon="8.636464"><ele>836.8</ele><time>2022-01-03T17:53:05Z</time></trkpt>
<trkpt lat="40.170981" lon="8.636956"><ele>836.88</ele><time>2022-01-03T17:53:06Z</time></trkpt>
<trkpt lat="40.170973" lon="8.637135"><ele>838.01</ele><time>2022-01-03T17:53:08Z</time></trkpt>
<trkpt lat="40.17103" lon="8.637709"><ele>836.37</ele><time>2022-01-03T17:53:09Z</time></trkpt>
<trkpt lat="40.17102" lon="8.637969"><ele>834.14</ele><time>2022-01-03T17:53:11Z</time></trkpt>
<trkpt lat="40.170946" lon="8.638262"><ele>833.34</ele><time>2022-01-03T17:53:12Z</time></trkpt>
<trkpt lat="40.170752" lon="8.638631"><ele>836.37</ele><time>2022-01-03T17:53:14Z</time></trkpt>
<trkpt lat="40.170696" lon="8.638774"><ele>836.6</ele><time>2022-01-03T17:53:15Z</time></trkpt>
<trkpt lat="40.170652" lon="8.63932"><ele>835.16</ele><time>2022-01-03T17:53:17Z</time></trkpt>
<trkpt lat="40.170621" lon="8.640065"><ele>836.11</ele><time>2022-01-03T17:53:18Z</time></trkpt>
<trkpt lat="40.170647" lon="8.640203"><ele>835.92</ele><time>2022-01-03T17:53:20Z</time></trkpt>
<trkpt lat="40.170805" lon="8.640479"><ele>835.11</ele><time>2022-01-03T17:53:21Z</time></trkpt>
<trkpt lat="40.170871" lon="8.640632"><ele>835.14</ele><time>2022-01-03T17:53:23Z</time></trkpt>
<trkpt lat="40.171084" lon="8.641379"><ele>838.19</ele><time>2022-01-03T17:53:24Z</time></trkpt>
<trkpt lat="40.171135" lon="8.641514"><ele>838.31</ele><time>2022-01-03T17:53:26Z</time></trkpt>
<trkpt lat="40.171301" lon="8.641825"><ele>839.07</ele><time>2022-01-03T17:53:27Z</time></trkpt>
<trkpt lat="40.17136" lon="8.641988"><ele>839.38</ele><time>2022-01-03T17:53:29Z</time></trkpt>
<trkpt lat="40.171381" lon="8.642132"><ele>839.75</ele><time>2022-01-03T17:53:30Z</time></trkpt>
<trkpt lat="40.171377" lon="8.642275"><ele>840.49</ele><time>2022-01-03T17:53:32Z</time></trkpt>
<trkpt lat="40.17135" lon="8.64244"><ele>841.77</ele><time>2022-01-03T17:53:33Z</time></trkpt>
<trkpt lat="40.171206" lon="8.643018"><ele>844.52</ele><time>2022-01-03T17:53:35Z</time></trkpt>
<trkpt lat="40.171131" lon="8.643204"><ele>844.36</ele><time>2022-01-03T17:53:36Z</time></trkpt>
<trkpt lat="40.170879" lon="8.643639"><ele>844.67</ele><time>2022-01-03T17:53:38Z</time></trkpt>
<trkpt lat="40.170839" lon="8.643801"><ele>844.96</ele><time>2022-01-03T17:53:39Z</time></trkpt>
<trkpt lat="40.170834" lon="8.643918"><ele>844.78</ele><time>2022-01-03T17:53:41Z</time></trkpt>
<trkpt lat="40.170881" lon="8.644741"><ele>840.68</ele><time>2022-01-03T17:53:43Z</time></trkpt>
<trkpt lat="40.170869" lon="8.644971"><ele>838.97</ele><time>2022-01-03T17:53:44Z</time></trkpt>
<trkpt lat="40.17085" lon="8.645147"><ele>837.29</ele><time>2022-01-03T17:53:46Z</time></trkpt>
<trkpt lat="40.170673" lon="8.64606"><ele>831.73</ele><time>2022-01-03T17:53:47Z</time></trkpt>
<trkpt lat="40.170619" lon="8.646587"><ele>832.16</ele><time>2022-01-03T17:53:49Z</time></trkpt>
<trkpt lat="40.170626" lon="8.646968"><ele>830.19</ele><time>2022-01-03T17:53:50Z</time></trkpt>
<trkpt lat="40.170798" lon="8.64834"><ele>830.09</ele><time>2022-01-03T17:53:52Z</time></trkpt>
<trkpt lat="40.170849" lon="8.648556"><ele>828.34</ele><time>2022-01-03T17:53:53Z</time></trkpt>
<trkpt lat="40.172138" lon="8.652549"><ele>817.37</ele><time>2022-01-03T17:53:55Z</time></trkpt>
<trkpt lat="40.17221" lon="8.652834"><ele>816.05</ele><time>2022-01-03T17:53:56Z</time></trkpt>
<trkpt lat="40.172255" lon="8.653228"><ele>816.62</ele><time>2022-01-03T17:53:58Z</time></trkpt>
<trkpt lat="40.17223" lon="8.653527"><ele>816.34</ele><time>2022-01-03T17:53:59Z</time></trkpt>
<trkpt lat="40.172168" lon="8.653746"><ele>815.42</ele><time>2022-01-03T17:54:01Z</time></trkpt>
<trkpt lat="40.172067" lon="8.653978"><ele>813.8</ele><time>2022-01-03T17:54:02Z</time></trkpt>
<trkpt lat="40.171931" lon="8.654146"><ele>812.24</ele><time>2022-01-03T17:54:04Z</time></trkpt>
<trkpt lat="40.171734" lon="8.654318"><ele>811.47</ele><time>2022-01-03T17:54:05Z</time></trkpt>
<trkpt lat="40.170891" lon="8.654743"><ele>807.03</ele><time>2022-01-03T17:54:07Z</time></trkpt>
<trkpt lat="40.170376" lon="8.654962"><ele>804.26</ele><time>2022-01-03T17:54:08Z</time></trkpt>
<trkpt lat="40.169906" lon="8.655308"><ele>800.47</ele><time>2022-01-03T17:54:10Z</time></trkpt>
<trkpt lat="40.169156" lon="8.656092"><ele>797.5</ele><time>2022-01-03T17:54:11Z</time></trkpt>
<trkpt lat="40.16876" lon="8.656408"><ele>792.8</ele><time>2022-01-03T17:54:13Z</time></trkpt>
<trkpt lat="40.168555" lon="8.656541"><ele>790.51</ele><time>2022-01-03T17:54:14Z</time></trkpt>
<trkpt lat="40.168312" lon="8.656661"><ele>790.25</ele><time>2022-01-03T17:54:16Z</time></trkpt>
<trkpt lat="40.167874" lon="8.656763"><ele>787.3</ele><time>2022-01-03T17:54:17Z</time></trkpt>
<trkpt lat="40.167406" lon="8.656723"><ele>786.09</ele><time>2022-01-03T17:54:19Z</time></trkpt>
<trkpt lat="40.167241" lon="8.656734"><ele>784.46</ele><time>2022-01-03T17:54:20Z</time></trkpt>
<trkpt lat="40.166857" lon="8.656794"><ele>781.4</ele><time>2022-01-03T17:54:22Z</time></trkpt>
<trkpt lat="40.166449" lon="8.656882"><ele>779.42</ele><time>2022-01-03T17:54:23Z</time></trkpt>
<trkpt lat="40.166015" lon="8.657013"><ele>774.66</ele><time>2022-01-03T17:54:25Z</time></trkpt>
<trkpt lat="40.165906" lon="8.657004"><ele>774.17</ele><time>2022-01-03T17:54:26Z</time></trkpt>
<trkpt lat="40.165824" lon="8.65697"><ele>774.29</ele><time>2022-01-03T17:54:28Z</time></trkpt>
<trkpt lat="40.165735" lon="8.65687"><ele>774.31</ele><time>2022-01-03T17:54:29Z</time></trkpt>
<trkpt lat="40.16548" lon="8.656167"><ele>775.12</ele><time>2022-01-03T17:54:31Z</time></trkpt>
<trkpt lat="40.165389" lon="8.656023"><ele>774.09</ele><time>2022-01-03T17:54:33Z</time></trkpt>
<trkpt lat="40.165029" lon="8.65569"><ele>772.05</ele><time>2022-01-03T17:54:34Z</time></trkpt>
<trkpt lat="40.164862" lon="8.655566"><ele>770.81</ele><time>2022-01-03T17:54:36Z</time></trkpt>
<trkpt lat="40.16374" lon="8.65538"><ele>763.46</ele><time>2022-01-03T17:54:37Z</time></trkpt>
<trkpt lat="40.163132" lon="8.655131"><ele>761.14</ele><time>2022-01-03T17:54:39Z</time></trkpt>
<trkpt lat="40.162948" lon="8.655098"><ele>760.17</ele><time>2022-01-03T17:54:40Z</time></trkpt>
<trkpt lat="40.162736" lon="8.655104"><ele>758.4</ele><time>2022-01-03T17:54:42Z</time></trkpt>
<trkpt lat="40.162568" lon="8.655139"><ele>755.85</ele><time>2022-01-03T17:54:43Z</time></trkpt>
<trkpt lat="40.162422" lon="8.655207"><ele>753.87</ele><time>2022-01-03T17:54:45Z</time></trkpt>
<trkpt lat="40.162285" lon="8.655356"><ele>753.05</ele><time>2022-01-03T17:54:46Z</time></trkpt>
<trkpt lat="40.162212" lon="8.655492"><ele>752.49</ele><time>2022-01-03T17:54:48Z</time></trkpt>
<trkpt lat="40.162135" lon="8.655761"><ele>751.58</ele><time>2022-01-03T17:54:49Z</time></trkpt>
<trkpt lat="40.162018" lon="8.656431"><ele>745.58</ele><time>2022-01-03T17:54:51Z</time></trkpt>
<trkpt lat="40.161912" lon="8.656943"><ele>745.23</ele><time>2022-01-03T17:54:52Z</time></trkpt>
<trkpt lat="40.161924" lon="8.657144"><ele>745.15</ele><time>2022-01-03T17:54:54Z</time></trkpt>
<trkpt lat="40.161975" lon="8.657304"><ele>744.89</ele><time>2022-01-03T17:54:55Z</time></trkpt>
<trkpt lat="40.162062" lon="8.657438"><ele>744.58</ele><time>2022-01-03T17:54:57Z</time></trkpt>
<trkpt lat="40.162198" lon="8.657543"><ele>744.09</ele><time>2022-01-03T17:54:58Z</time></trkpt>
<trkpt lat="40.162711" lon="8.657815"><ele>743.51</ele><time>2022-01-03T17:55:00Z</time></trkpt>
<trkpt lat="40.162789" lon="8.657896"><ele>742.83</ele><time>2022-01-03T17:55:01Z</time></trkpt>
<trkpt lat="40.16288" lon="8.658038"><ele>741.53</ele><time>2022-01-03T17:55:03Z</time></trkpt>
<trkpt lat="40.163321" lon="8.659547"><ele>736.59</ele><time>2022-01-03T17:55:04Z</time></trkpt>
<trkpt lat="40.16334" lon="8.659709"><ele>734.92</ele><time>2022-01-03T17:55:06Z</time></trkpt>
<trkpt lat="40.163322" lon="8.659872"><ele>733.21</ele><time>2022-01-03T17:55:07Z</time></trkpt>
<trkpt lat="40.163264" lon="8.660021"><ele>732.96</ele><time>2022-01-03T17:55:09Z</time></trkpt>
<trkpt lat="40.163097" lon="8.660294"><ele>734.49</ele><time>2022-01-03T17:55:10Z</time></trkpt>
<trkpt lat="40.163016" lon="8.660458"><ele>734.91</ele><time>2022-01-03T17:55:12Z</time></trkpt>
<trkpt lat="40.162884" lon="8.66079"><ele>733.86</ele><time>2022-01-03T17:55:13Z</time></trkpt>
<trkpt lat="40.162809" lon="8.660874"><ele>734.21</ele><time>2022-01-03T17:55:15Z</time></trkpt>
<trkpt lat="40.162358" lon="8.661127"><ele>732.06</ele><time>2022-01-03T17:55:16Z</time></trkpt>
<trkpt lat="40.162234" lon="8.661134"><ele>731.54</ele><time>2022-01-03T17:55:18Z</time></trkpt>
<trkpt lat="40.16211" lon="8.661106"><ele>730.46</ele><time>2022-01-03T17:55:19Z</time></trkpt>
<trkpt lat="40.161994" lon="8.661048"><ele>729.44</ele><time>2022-01-03T17:55:21Z</time></trkpt>
<trkpt lat="40.16153" lon="8.660694"><ele>726.28</ele><time>2022-01-03T17:55:22Z</time></trkpt>
<trkpt lat="40.16137" lon="8.660536"><ele>725.87</ele><time>2022-01-03T17:55:24Z</time></trkpt>
<trkpt lat="40.161214" lon="8.660328"><ele>725.12</ele><time>2022-01-03T17:55:26Z</time></trkpt>
<trkpt lat="40.160988" lon="8.659924"><ele>724.07</ele><time>2022-01-03T17:55:27Z</time></trkpt>
<trkpt lat="40.160783" lon="8.659693"><ele>723.81</ele><time>2022-01-03T17:55:29Z</time></trkpt>
<trkpt lat="40.160669" lon="8.659617"><ele>723.81</ele><time>2022-01-03T17:55:30Z</time></trkpt>
<trkpt lat="40.160464" lon="8.659546"><ele>723.19</ele><time>2022-01-03T17:55:32Z</time></trkpt>
<trkpt lat="40.160238" lon="8.659567"><ele>720.63</ele><time>2022-01-03T17:55:33Z</time></trkpt>
<trkpt lat="40.160116" lon="8.659613"><ele>719.51</ele><time>2022-01-03T17:55:35Z</time></trkpt>
<trkpt lat="40.159535" lon="8.659963"><ele>719.19</ele><time>2022-01-03T17:55:36Z</time></trkpt>
<trkpt lat="40.159281" lon="8.660197"><ele>718.88</ele><time>2022-01-03T17:55:38Z</time></trkpt>
<trkpt lat="40.159068" lon="8.66036"><ele>717.21</ele><time>2022-01-03T17:55:39Z</time></trkpt>
<trkpt lat="40.158831" lon="8.660469"><ele>714.17</ele><time>2022-01-03T17:55:41Z</time></trkpt>
<trkpt lat="40.158752" lon="8.660473"><ele>713.07</ele><time>2022-01-03T17:55:42Z</time></trkpt>
<trkpt lat="40.158584" lon="8.660423"><ele>711.56</ele><time>2022-01-03T17:55:44Z</time></trkpt>
<trkpt lat="40.157953" lon="8.659869"><ele>707.48</ele><time>2022-01-03T17:55:45Z</time></trkpt>
<trkpt lat="40.157853" lon="8.659751"><ele>706.57</ele><time>2022-01-03T17:55:47Z</time></trkpt>
<trkpt lat="40.157731" lon="8.659496"><ele>704.26</ele><time>2022-01-03T17:55:48Z</time></trkpt>
<trkpt lat="40.157673" lon="8.659247"><ele>704.03</ele><time>2022-01-03T17:55:50Z</time></trkpt>
<trkpt lat="40.157678" lon="8.659081"><ele>704.55</ele><time>2022-01-03T17:55:51Z</time></trkpt>
<trkpt lat="40.157851" lon="8.657882"><ele>702.39</ele><time>2022-01-03T17:55:53Z</time></trkpt>
<trkpt lat="40.158148" lon="8.655636"><ele>698.84</ele><time>2022-01-03T17:55:54Z</time></trkpt>
<trkpt lat="40.158141" lon="8.65554"><ele>699.38</ele><time>2022-01-03T17:55:56Z</time></trkpt>
<trkpt lat="40.158114" lon="8.655446"><ele>699.95</ele><time>2022-01-03T17:55:57Z</time></trkpt>
<trkpt lat="40.158066" lon="8.655356"><ele>700.28</ele><time>2022-01-03T17:55:59Z</time></trkpt>
<trkpt lat="40.158009" lon="8.655294"><ele>700.59</ele><time>2022-01-03T17:56:00Z</time></trkpt>
<trkpt lat="40.157949" lon="8.655259"><ele>700.84</ele><time>2022-01-03T17:56:02Z</time></trkpt>
<trkpt lat="40.15784" lon="8.65526"><ele>700.47</ele><time>2022-01-03T17:56:03Z</time></trkpt>
<trkpt lat="40.157691" lon="8.655399"><ele>698.42</ele><time>2022-01-03T17:56:05Z</time></trkpt>
<trkpt lat="40.157291" lon="8.655876"><ele>690.86</ele><time>2022-01-03T17:56:06Z</time></trkpt>
<trkpt lat="40.157083" lon="8.656079"><ele>688.2</ele><time>2022-01-03T17:56:08Z</time></trkpt>
<trkpt lat="40.156885" lon="8.656252"><ele>687.53</ele><time>2022-01-03T17:56:09Z</time></trkpt>
<trkpt lat="40.156472" lon="8.656563"><ele>685.24</ele><time>2022-01-03T17:56:11Z</time></trkpt>
<trkpt lat="40.155989" lon="8.657022"><ele>678.48</ele><time>2022-01-03T17:56:12Z</time></trkpt>
<trkpt lat="40.155551" lon="8.65755"><ele>673.01</ele><time>2022-01-03T17:56:14Z</time></trkpt>
<trkpt lat="40.154579" lon="8.658516"><ele>668.08</ele><time>2022-01-03T17:56:16Z</time></trkpt>
<trkpt lat="40.154426" lon="8.658715"><ele>667.11</ele><time>2022-01-03T17:56:17Z</time></trkpt>
<trkpt lat="40.154128" lon="8.659237"><ele>663.5</ele><time>2022-01-03T17:56:19Z</time></trkpt>
<trkpt lat="40.153808" lon="8.660139"><ele>655.11</ele><time>2022-01-03T17:56:20Z</time></trkpt>
<trkpt lat="40.15374" lon="8.660293"><ele>654.98</ele><time>2022-01-03T17:56:22Z</time></trkpt>
<trkpt lat="40.153558" lon="8.66055"><ele>653.07</ele><time>2022-01-03T17:56:23Z</time></trkpt>
<trkpt lat="40.153435" lon="8.660664"><ele>651.83</ele><time>2022-01-03T17:56:25Z</time></trkpt>
<trkpt lat="40.153276" lon="8.660702"><ele>650.79</ele><time>2022-01-03T17:56:26Z</time></trkpt>
<trkpt lat="40.153165" lon="8.660688"><ele>649.75</ele><time>2022-01-03T17:56:28Z</time></trkpt>
<trkpt lat="40.152702" lon="8.660364"><ele>649.4</ele><time>2022-01-03T17:56:29Z</time></trkpt>
<trkpt lat="40.152496" lon="8.660294"><ele>649.68</ele><time>2022-01-03T17:56:31Z</time></trkpt>
<trkpt lat="40.152281" lon="8.660306"><ele>648.78</ele><time>2022-01-03T17:56:32Z</time></trkpt>
<trkpt lat="40.152144" lon="8.660334"><ele>648.7</ele><time>2022-01-03T17:56:34Z</time></trkpt>
<trkpt lat="40.151621" lon="8.660572"><ele>644.89</ele><time>2022-01-03T17:56:35Z</time></trkpt>
<trkpt lat="40.151532" lon="8.660641"><ele>644.24</ele><time>2022-01-03T17:56:37Z</time></trkpt>
<trkpt lat="40.151152" lon="8.66105"><ele>641.78</ele><time>2022-01-03T17:56:38Z</time></trkpt>
<trkpt lat="40.150666" lon="8.661396"><ele>636.9</ele><time>2022-01-03T17:56:40Z</time></trkpt>
<trkpt lat="40.150511" lon="8.661478"><ele>635.4</ele><time>2022-01-03T17:56:41Z</time></trkpt>
<trkpt lat="40.150192" lon="8.661572"><ele>631.54</ele><time>2022-01-03T17:56:43Z</time></trkpt>
<trkpt lat="40.150053" lon="8.661568"><ele>630.27</ele><time>2022-01-03T17:56:44Z</time></trkpt>
<trkpt lat="40.149584" lon="8.661475"><ele>624.76</ele><time>2022-01-03T17:56:46Z</time></trkpt>
<trkpt lat="40.149346" lon="8.661364"><ele>623.39</ele><time>2022-01-03T17:56:47Z</time></trkpt>
<trkpt lat="40.149157" lon="8.661218"><ele>623.93</ele><time>2022-01-03T17:56:49Z</time></trkpt>
<trkpt lat="40.148772" lon="8.66077"><ele>622.93</ele><time>2022-01-03T17:56:50Z</time></trkpt>
<trkpt lat="40.14868" lon="8.66061"><ele>622.09</ele><time>2022-01-03T17:56:52Z</time></trkpt>
<trkpt lat="40.148574" lon="8.660374"><ele>620.82</ele><time>2022-01-03T17:56:53Z</time></trkpt>
<trkpt lat="40.148491" lon="8.660141"><ele>619.2</ele><time>2022-01-03T17:56:55Z</time></trkpt>
<trkpt lat="40.148424" lon="8.659876"><ele>618.4</ele><time>2022-01-03T17:56:56Z</time></trkpt>
<trkpt lat="40.148404" lon="8.659693"><ele>618.52</ele><time>2022-01-03T17:56:58Z</time></trkpt>
<trkpt lat="40.148407" lon="8.659361"><ele>619.2</ele><time>2022-01-03T17:56:59Z</time></trkpt>
<trkpt lat="40.148372" lon="8.659184"><ele>619.7</ele><time>2022-01-03T17:57:01Z</time></trkpt>
<trkpt lat="40.148298" lon="8.659083"><ele>619.41</ele><time>2022-01-03T17:57:02Z</time></trkpt>
<trkpt lat="40.14822" lon="8.659028"><ele>618.35</ele><time>2022-01-03T17:57:04Z</time></trkpt>
<trkpt lat="40.147926" lon="8.658944"><ele>613.26</ele><time>2022-01-03T17:57:06Z</time></trkpt>
<trkpt lat="40.147802" lon="8.658853"><ele>611.47</ele><time>2022-01-03T17:57:07Z</time></trkpt>
<trkpt lat="40.147748" lon="8.658777"><ele>610.48</ele><time>2022-01-03T17:57:09Z</time></trkpt>
<trkpt lat="40.14771" lon="8.658665"><ele>609.63</ele><time>2022-01-03T17:57:10Z</time></trkpt>
<trkpt lat="40.147695" lon="8.657128"><ele>603.84</ele><time>2022-01-03T17:57:12Z</time></trkpt>
<trkpt lat="40.147673" lon="8.656743"><ele>602.59</ele><time>2022-01-03T17:57:13Z</time></trkpt>
<trkpt lat="40.147637" lon="8.656482"><ele>602.42</ele><time>2022-01-03T17:57:15Z</time></trkpt>
<trkpt lat="40.147497" lon="8.655736"><ele>598.86</ele><time>2022-01-03T17:57:16Z</time></trkpt>
<trkpt lat="40.147469" lon="8.655432"><ele>596.38</ele><time>2022-01-03T17:57:18Z</time></trkpt>
<trkpt lat="40.14744" lon="8.655307"><ele>595.9</ele><time>2022-01-03T17:57:19Z</time></trkpt>
<trkpt lat="40.147359" lon="8.655147"><ele>595.9</ele><time>2022-01-03T17:57:21Z</time></trkpt>
<trkpt lat="40.147316" lon="8.655127"><ele>595.85</ele><time>2022-01-03T17:57:22Z</time></trkpt>
<trkpt lat="40.147212" lon="8.655142"><ele>595.3</ele><time>2022-01-03T17:57:24Z</time></trkpt>
<trkpt lat="40.147171" lon="8.655185"><ele>595.86</ele><time>2022-01-03T17:57:25Z</time></trkpt>
<trkpt lat="40.147091" lon="8.655387"><ele>595.21</ele><time>2022-01-03T17:57:27Z</time></trkpt>
<trkpt lat="40.147041" lon="8.655692"><ele>593.14</ele><time>2022-01-03T17:57:28Z</time></trkpt>
<trkpt lat="40.146996" lon="8.656231"><ele>587.61</ele><time>2022-01-03T17:57:30Z</time></trkpt>
<trkpt lat="40.146976" lon="8.656308"><ele>586.84</ele><time>2022-01-03T17:57:31Z</time></trkpt>
<trkpt lat="40.146817" lon="8.656662"><ele>586.78</ele><time>2022-01-03T17:57:33Z</time></trkpt>
<trkpt lat="40.14666" lon="8.65712"><ele>582.01</ele><time>2022-01-03T17:57:34Z</time></trkpt>
<trkpt lat="40.146581" lon="8.657351"><ele>580.5</ele><time>2022-01-03T17:57:36Z</time></trkpt>
<trkpt lat="40.146488" lon="8.657533"><ele>579.09</ele><time>2022-01-03T17:57:37Z</time></trkpt>
<trkpt lat="40.146171" lon="8.658005"><ele>576.53</ele><time>2022-01-03T17:57:39Z</time></trkpt>
<trkpt lat="40.146039" lon="8.65817"><ele>575.66</ele><time>2022-01-03T17:57:40Z</time></trkpt>
<trkpt lat="40.145462" lon="8.658663"><ele>572.02</ele><time>2022-01-03T17:57:42Z</time></trkpt>
<trkpt lat="40.14535" lon="8.65881"><ele>568.72</ele><time>2022-01-03T17:57:43Z</time></trkpt>
<trkpt lat="40.145086" lon="8.659319"><ele>567.59</ele><time>2022-01-03T17:57:45Z</time></trkpt>
<trkpt lat="40.144889" lon="8.659759"><ele>567.46</ele><time>2022-01-03T17:57:46Z</time></trkpt>
<trkpt lat="40.144815" lon="8.659886"><ele>565.86</ele><time>2022-01-03T17:57:48Z</time></trkpt>
<trkpt lat="40.144707" lon="8.66002"><ele>564.69</ele><time>2022-01-03T17:57:49Z</time></trkpt>
<trkpt lat="40.144605" lon="8.660111"><ele>563.43</ele><time>2022-01-03T17:57:51Z</time></trkpt>
<trkpt lat="40.144444" lon="8.660152"><ele>563.26</ele><time>2022-01-03T17:57:52Z</time></trkpt>
<trkpt lat="40.144005" lon="8.660146"><ele>560.29</ele><time>2022-01-03T17:57:54Z</time></trkpt>
<trkpt lat="40.143671" lon="8.660047"><ele>556.22</ele><time>2022-01-03T17:57:56Z</time></trkpt>
<trkpt lat="40.143264" lon="8.659848"><ele>553.96</ele><time>2022-01-03T17:57:57Z</time></trkpt>
<trkpt lat="40.143028" lon="8.65968"><ele>553.22</ele><time>2022-01-03T17:57:59Z</time></trkpt>
<trkpt lat="40.142806" lon="8.659453"><ele>553.28</ele><time>2022-01-03T17:58:00Z</time></trkpt>
<trkpt lat="40.142608" lon="8.659331"><ele>551.88</ele><time>2022-01-03T17:58:02Z</time></trkpt>
<trkpt lat="40.142529" lon="8.659303"><ele>551.35</ele><time>2022-01-03T17:58:03Z</time></trkpt>
<trkpt lat="40.141945" lon="8.659234"><ele>548.76</ele><time>2022-01-03T17:58:05Z</time></trkpt>
<trkpt lat="40.141652" lon="8.659078"><ele>550.37</ele><time>2022-01-03T17:58:06Z</time></trkpt>
<trkpt lat="40.14155" lon="8.660092"><ele>545.53</ele><time>2022-01-03T17:58:09Z</time></trkpt>
<trkpt lat="40.141487" lon="8.660494"><ele>544.59</ele><time>2022-01-03T17:58:12Z</time></trkpt>
<trkpt lat="40.141101" lon="8.662347"><ele>533.33</ele><time>2022-01-03T17:58:15Z</time></trkpt>
<trkpt lat="40.140788" lon="8.66406"><ele>531.38</ele><time>2022-01-03T17:58:18Z</time></trkpt>
<trkpt lat="40.14077" lon="8.664238"><ele>530.98</ele><time>2022-01-03T17:58:21Z</time></trkpt>
<trkpt lat="40.140744" lon="8.665598"><ele>528.42</ele><time>2022-01-03T17:58:25Z</time></trkpt>
<trkpt lat="40.140723" lon="8.665856"><ele>527.58</ele><time>2022-01-03T17:58:28Z</time></trkpt>
<trkpt lat="40.140684" lon="8.66602"><ele>527.54</ele><time>2022-01-03T17:58:31Z</time></trkpt>
<trkpt lat="40.140637" lon="8.666106"><ele>527.0</ele><time>2022-01-03T17:58:34Z</time></trkpt>
<trkpt lat="40.140588" lon="8.666166"><ele>526.7</ele><time>2022-01-03T17:58:37Z</time></trkpt>
<trkpt lat="40.140449" lon="8.666181"><ele>525.03</ele><time>2022-01-03T17:58:40Z</time></trkpt>
<trkpt lat="40.140105" lon="8.666125"><ele>522.62</ele><time>2022-01-03T17:58:43Z</time></trkpt>
<trkpt lat="40.13985" lon="8.665994"><ele>521.78</ele><time>2022-01-03T17:58:46Z</time></trkpt>
<trkpt lat="40.139691" lon="8.665875"><ele>521.16</ele><time>2022-01-03T17:58:49Z</time></trkpt>
<trkpt lat="40.139433" lon="8.665603"><ele>520.69</ele><time>2022-01-03T17:58:52Z</time></trkpt>
<trkpt lat="40.139347" lon="8.665552"><ele>519.94</ele><time>2022-01-03T17:58:55Z</time></trkpt>
<trkpt lat="40.139169" lon="8.665539"><ele>519.69</ele><time>2022-01-03T17:58:58Z</time></trkpt>
<trkpt lat="40.139" lon="8.665601"><ele>518.41</ele><time>2022-01-03T17:59:01Z</time></trkpt>
<trkpt lat="40.138883" lon="8.66568"><ele>518.14</ele><time>2022-01-03T17:59:04Z</time></trkpt>
<trkpt lat="40.138618" lon="8.66591"><ele>517.24</ele><time>2022-01-03T17:59:07Z</time></trkpt>
<trkpt lat="40.138391" lon="8.666136"><ele>517.22</ele><time>2022-01-03T17:59:10Z</time></trkpt>
<trkpt lat="40.138244" lon="8.666317"><ele>517.36</ele><time>2022-01-03T17:59:13Z</time></trkpt>
<trkpt lat="40.138113" lon="8.666516"><ele>517.5</ele><time>2022-01-03T17:59:16Z</time></trkpt>
<trkpt lat="40.13659" lon="8.669182"><ele>508.87</ele><time>2022-01-03T17:59:19Z</time></trkpt>
<trkpt lat="40.136365" lon="8.669262"><ele>506.03</ele><time>2022-01-03T17:59:22Z</time></trkpt>
<trkpt lat="40.136092" lon="8.669273"><ele>502.61</ele><time>2022-01-03T17:59:25Z</time></trkpt>
<trkpt lat="40.135638" lon="8.669265"><ele>498.95</ele><time>2022-01-03T17:59:27Z</time></trkpt>
<trkpt lat="40.13547" lon="8.669324"><ele>498.08</ele><time>2022-01-03T17:59:30Z</time></trkpt>
<trkpt lat="40.135307" lon="8.669436"><ele>497.2</ele><time>2022-01-03T17:59:33Z</time></trkpt>
<trkpt lat="40.134961" lon="8.669902"><ele>494.16</ele><time>2022-01-03T17:59:35Z</time></trkpt>
<trkpt lat="40.134525" lon="8.670572"><ele>489.52</ele><time>2022-01-03T17:59:38Z</time></trkpt>
<trkpt lat="40.133746" lon="8.672011"><ele>478.45</ele><time>2022-01-03T17:59:41Z</time></trkpt>
<trkpt lat="40.132397" lon="8.674398"><ele>471.46</ele><time>2022-01-03T17:59:43Z</time></trkpt>
<trkpt lat="40.130881" lon="8.677232"><ele>456.47</ele><time>2022-01-03T17:59:46Z</time></trkpt>
<trkpt lat="40.130019" lon="8.678436"><ele>447.55</ele><time>2022-01-03T17:59:49Z</time></trkpt>
<trkpt lat="40.127903" lon="8.680495"><ele>431.88</ele><time>2022-01-03T17:59:51Z</time></trkpt>
<trkpt lat="40.126795" lon="8.681031"><ele>429.13</ele><time>2022-01-03T17:59:54Z</time></trkpt>
<trkpt lat="40.126054" lon="8.681427"><ele>429.31</ele><time>2022-01-03T17:59:56Z</time></trkpt>
<trkpt lat="40.125746" lon="8.681656"><ele>430.32</ele><time>2022-01-03T17:59:59Z</time></trkpt>
<trkpt lat="40.125564" lon="8.681889"><ele>430.19</ele><time>2022-01-03T18:00:02Z</time></trkpt>
<trkpt lat="40.125171" lon="8.682596"><ele>426.27</ele><time>2022-01-03T18:00:04Z</time></trkpt>
<trkpt lat="40.12453" lon="8.683576"><ele>415.17</ele><time>2022-01-03T18:00:07Z</time></trkpt>
<trkpt lat="40.123672" lon="8.684518"><ele>402.69</ele><time>2022-01-03T18:00:10Z</time></trkpt>
<trkpt lat="40.123319" lon="8.684953"><ele>398.33</ele><time>2022-01-03T18:00:12Z</time></trkpt>
<trkpt lat="40.122813" lon="8.685699"><ele>392.51</ele><time>2022-01-03T18:00:15Z</time></trkpt>
<trkpt lat="40.12262" lon="8.686089"><ele>388.76</ele><time>2022-01-03T18:00:18Z</time></trkpt>
<trkpt lat="40.122458" lon="8.686552"><ele>385.09</ele><time>2022-01-03T18:00:20Z</time></trkpt>
<trkpt lat="40.122405" lon="8.686748"><ele>382.88</ele><time>2022-01-03T18:00:23Z</time></trkpt>
<trkpt lat="40.122389" lon="8.686949"><ele>380.97</ele><time>2022-01-03T18:00:26Z</time></trkpt>
<trkpt lat="40.122452" lon="8.687245"><ele>378.83</ele><time>2022-01-03T18:00:28Z</time></trkpt>
<trkpt lat="40.122605" lon="8.687597"><ele>376.7</ele><time>2022-01-03T18:00:31Z</time></trkpt>
<trkpt lat="40.122728" lon="8.687946"><ele>373.82</ele><time>2022-01-03T18:00:33Z</time></trkpt>
<trkpt lat="40.122796" lon="8.68828"><ele>371.53</ele><time>2022-01-03T18:00:36Z</time></trkpt>
<trkpt lat="40.122824" lon="8.688521"><ele>369.98</ele><time>2022-01-03T18:00:39Z</time></trkpt>
<trkpt lat="40.122815" lon="8.688708"><ele>368.57</ele><time>2022-01-03T18:00:41Z</time></trkpt>
<trkpt lat="40.122777" lon="8.688871"><ele>367.12</ele><time>2022-01-03T18:00:44Z</time></trkpt>
<trkpt lat="40.122059" lon="8.690945"><ele>351.01</ele><time>2022-01-03T18:00:47Z</time></trkpt>
<trkpt lat="40.121743" lon="8.692053"><ele>350.39</ele><time>2022-01-03T18:00:49Z</time></trkpt>
<trkpt lat="40.121555" lon="8.692592"><ele>350.6</ele><time>2022-01-03T18:00:52Z</time></trkpt>
<trkpt lat="40.121094" lon="8.693744"><ele>347.03</ele><time>2022-01-03T18:00:55Z</time></trkpt>
<trkpt lat="40.120422" lon="8.694733"><ele>340.46</ele><time>2022-01-03T18:00:57Z</time></trkpt>
<trkpt lat="40.119638" lon="8.695025"><ele>338.91</ele><time>2022-01-03T18:01:00Z</time></trkpt>
<trkpt lat="40.118915" lon="8.695527"><ele>332.2</ele><time>2022-01-03T18:01:03Z</time></trkpt>
<trkpt lat="40.118455" lon="8.696565"><ele>324.73</ele><time>2022-01-03T18:01:05Z</time></trkpt>
<trkpt lat="40.117926" lon="8.69711"><ele>318.88</ele><time>2022-01-03T18:01:08Z</time></trkpt>
<trkpt lat="40.117633" lon="8.697381"><ele>315.16</ele><time>2022-01-03T18:01:10Z</time></trkpt>
<trkpt lat="40.11755" lon="8.697468"><ele>314.38</ele><time>2022-01-03T18:01:13Z</time></trkpt>
<trkpt lat="40.117472" lon="8.69759"><ele>313.47</ele><time>2022-01-03T18:01:16Z</time></trkpt>
<trkpt lat="40.117345" lon="8.697877"><ele>311.52</ele><time>2022-01-03T18:01:18Z</time></trkpt>
<trkpt lat="40.11712" lon="8.698691"><ele>307.35</ele><time>2022-01-03T18:01:21Z</time></trkpt>
<trkpt lat="40.117082" lon="8.698791"><ele>306.85</ele><time>2022-01-03T18:01:24Z</time></trkpt>
<trkpt lat="40.117034" lon="8.698869"><ele>306.39</ele><time>2022-01-03T18:01:26Z</time></trkpt>
<trkpt lat="40.116885" lon="8.699033"><ele>304.86</ele><time>2022-01-03T18:01:29Z</time></trkpt>
<trkpt lat="40.116507" lon="8.699284"><ele>302.92</ele><time>2022-01-03T18:01:32Z</time></trkpt>
<trkpt lat="40.116286" lon="8.699483"><ele>300.12</ele><time>2022-01-03T18:01:34Z</time></trkpt>
<trkpt lat="40.116107" lon="8.699704"><ele>297.17</ele><time>2022-01-03T18:01:37Z</time></trkpt>
<trkpt lat="40.115419" lon="8.700743"><ele>294.35</ele><time>2022-01-03T18:01:40Z</time></trkpt>
<trkpt lat="40.115338" lon="8.700905"><ele>295.57</ele><time>2022-01-03T18:01:42Z</time></trkpt>
<trkpt lat="40.115181" lon="8.70129"><ele>298.7</ele><time>2022-01-03T18:01:45Z</time></trkpt>
<trkpt lat="40.115102" lon="8.701417"><ele>299.67</ele><time>2022-01-03T18:01:47Z</time></trkpt>
<trkpt lat="40.115019" lon="8.701511"><ele>300.39</ele><time>2022-01-03T18:01:50Z</time></trkpt>
<trkpt lat="40.114917" lon="8.701582"><ele>301.39</ele><time>2022-01-03T18:01:53Z</time></trkpt>
<trkpt lat="40.114723" lon="8.701639"><ele>302.69</ele><time>2022-01-03T18:01:55Z</time></trkpt>
<trkpt lat="40.114216" lon="8.70161"><ele>303.41</ele><time>2022-01-03T18:01:58Z</time></trkpt>
<trkpt lat="40.113945" lon="8.701631"><ele>304.64</ele><time>2022-01-03T18:02:01Z</time></trkpt>
<trkpt lat="40.113752" lon="8.701702"><ele>305.68</ele><time>2022-01-03T18:02:03Z</time></trkpt>
<trkpt lat="40.113596" lon="8.701834"><ele>307.22</ele><time>2022-01-03T18:02:06Z</time></trkpt>
<trkpt lat="40.113426" lon="8.702055"><ele>308.8</ele><time>2022-01-03T18:02:09Z</time></trkpt>
<trkpt lat="40.113206" lon="8.702536"><ele>311.67</ele><time>2022-01-03T18:02:11Z</time></trkpt>
<trkpt lat="40.113007" lon="8.702878"><ele>312.83</ele><time>2022-01-03T18:02:14Z</time></trkpt>
<trkpt lat="40.112787" lon="8.703116"><ele>314.22</ele><time>2022-01-03T18:02:16Z</time></trkpt>
<trkpt lat="40.112098" lon="8.703689"><ele>314.4</ele><time>2022-01-03T18:02:19Z</time></trkpt>
<trkpt lat="40.11189" lon="8.703909"><ele>316.07</ele><time>2022-01-03T18:02:22Z</time></trkpt>
<trkpt lat="40.111615" lon="8.704483"><ele>316.81</ele><time>2022-01-03T18:02:24Z</time></trkpt>
<trkpt lat="40.111097" lon="8.705224"><ele>313.99</ele><time>2022-01-03T18:02:27Z</time></trkpt>
<trkpt lat="40.110259" lon="8.706331"><ele>314.93</ele><time>2022-01-03T18:02:30Z</time></trkpt>
<trkpt lat="40.110116" lon="8.706692"><ele>313.8</ele><time>2022-01-03T18:02:32Z</time></trkpt>
<trkpt lat="40.109692" lon="8.708096"><ele>313.63</ele><time>2022-01-03T18:02:35Z</time></trkpt>
<trkpt lat="40.109588" lon="8.708332"><ele>312.49</ele><time>2022-01-03T18:02:38Z</time></trkpt>
<trkpt lat="40.109267" lon="8.708812"><ele>313.46</ele><time>2022-01-03T18:02:40Z</time></trkpt>
<trkpt lat="40.108887" lon="8.709321"><ele>314.56</ele><time>2022-01-03T18:02:43Z</time></trkpt>
<trkpt lat="40.108705" lon="8.709615"><ele>316.02</ele><time>2022-01-03T18:02:46Z</time></trkpt>
<trkpt lat="40.108626" lon="8.710035"><ele>318.25</ele><time>2022-01-03T18:02:48Z</time></trkpt>
<trkpt lat="40.108582" lon="8.711467"><ele>321.18</ele><time>2022-01-03T18:02:51Z</time></trkpt>
<trkpt lat="40.108539" lon="8.713956"><ele>324.98</ele><time>2022-01-03T18:02:53Z</time></trkpt>
<trkpt lat="40.108519" lon="8.714141"><ele>325.58</ele><time>2022-01-03T18:02:56Z</time></trkpt>
<trkpt lat="40.108472" lon="8.714294"><ele>325.73</ele><time>2022-01-03T18:02:59Z</time></trkpt>
<trkpt lat="40.10842" lon="8.7144"><ele>325.89</ele><time>2022-01-03T18:03:01Z</time></trkpt>
<trkpt lat="40.108283" lon="8.714556"><ele>326.07</ele><time>2022-01-03T18:03:04Z</time></trkpt>
<trkpt lat="40.107785" lon="8.714954"><ele>326.98</ele><time>2022-01-03T18:03:07Z</time></trkpt>
<trkpt lat="40.107516" lon="8.715063"><ele>327.0</ele><time>2022-01-03T18:03:09Z</time></trkpt>
<trkpt lat="40.107106" lon="8.715168"><ele>328.63</ele><time>2022-01-03T18:03:12Z</time></trkpt>
<trkpt lat="40.106919" lon="8.715257"><ele>329.95</ele><time>2022-01-03T18:03:15Z</time></trkpt>
<trkpt lat="40.106525" lon="8.715644"><ele>331.65</ele><time>2022-01-03T18:03:17Z</time></trkpt>
<trkpt lat="40.106328" lon="8.715907"><ele>331.84</ele><time>2022-01-03T18:03:20Z</time></trkpt>
<trkpt lat="40.106187" lon="8.716174"><ele>332.23</ele><time>2022-01-03T18:03:23Z</time></trkpt>
<trkpt lat="40.10584" lon="8.717093"><ele>332.0</ele><time>2022-01-03T18:03:25Z</time></trkpt>
<trkpt lat="40.105736" lon="8.717261"><ele>332.14</ele><time>2022-01-03T18:03:28Z</time></trkpt>
<trkpt lat="40.105195" lon="8.717811"><ele>332.0</ele><time>2022-01-03T18:03:30Z</time></trkpt>
<trkpt lat="40.105042" lon="8.717919"><ele>332.0</ele><time>2022-01-03T18:03:33Z</time></trkpt>
<trkpt lat="40.104726" lon="8.718053"><ele>332.01</ele><time>2022-01-03T18:03:36Z</time></trkpt>
<trkpt lat="40.104595" lon="8.718138"><ele>331.57</ele><time>2022-01-03T18:03:38Z</time></trkpt>
<trkpt lat="40.104457" lon="8.718281"><ele>330.41</ele><time>2022-01-03T18:03:41Z</time></trkpt>
<trkpt lat="40.104392" lon="8.718426"><ele>329.6</ele><time>2022-01-03T18:03:44Z</time></trkpt>
<trkpt lat="40.104254" lon="8.718977"><ele>326.68</ele><time>2022-01-03T18:03:46Z</time></trkpt>
<trkpt lat="40.1042" lon="8.719296"><ele>325.07</ele><time>2022-01-03T18:03:49Z</time></trkpt>
<trkpt lat="40.104198" lon="8.719531"><ele>323.69</ele><time>2022-01-03T18:03:52Z</time></trkpt>
<trkpt lat="40.104363" lon="8.720341"><ele>319.71</ele><time>2022-01-03T18:03:54Z</time></trkpt>
<trkpt lat="40.104361" lon="8.720554"><ele>318.71</ele><time>2022-01-03T18:03:57Z</time></trkpt>
<trkpt lat="40.104304" lon="8.721124"><ele>319.57</ele><time>2022-01-03T18:04:00Z</time></trkpt>
<trkpt lat="40.104205" lon="8.722455"><ele>322.72</ele><time>2022-01-03T18:04:02Z</time></trkpt>
<trkpt lat="40.104128" lon="8.722845"><ele>321.97</ele><time>2022-01-03T18:04:05Z</time></trkpt>
<trkpt lat="40.103194" lon="8.725566"><ele>318.02</ele><time>2022-01-03T18:04:07Z</time></trkpt>
<trkpt lat="40.103137" lon="8.7257"><ele>318.15</ele><time>2022-01-03T18:04:10Z</time></trkpt>
<trkpt lat="40.102975" lon="8.725972"><ele>318.35</ele><time>2022-01-03T18:04:13Z</time></trkpt>
<trkpt lat="40.102459" lon="8.726697"><ele>317.83</ele><time>2022-01-03T18:04:15Z</time></trkpt>
<trkpt lat="40.102306" lon="8.726971"><ele>316.54</ele><time>2022-01-03T18:04:18Z</time></trkpt>
<trkpt lat="40.102197" lon="8.727292"><ele>315.66</ele><time>2022-01-03T18:04:21Z</time></trkpt>
<trkpt lat="40.102058" lon="8.728367"><ele>314.29</ele><time>2022-01-03T18:04:23Z</time></trkpt>
<trkpt lat="40.102077" lon="8.728957"><ele>313.88</ele><time>2022-01-03T18:04:26Z</time></trkpt>
<trkpt lat="40.102056" lon="8.729318"><ele>312.51</ele><time>2022-01-03T18:04:29Z</time></trkpt>
<trkpt lat="40.101822" lon="8.730992"><ele>308.32</ele><time>2022-01-03T18:04:31Z</time></trkpt>
<trkpt lat="40.101759" lon="8.731267"><ele>308.89</ele><time>2022-01-03T18:04:34Z</time></trkpt>
<trkpt lat="40.101525" lon="8.731791"><ele>310.68</ele><time>2022-01-03T18:04:37Z</time></trkpt>
<trkpt lat="40.100497" lon="8.733873"><ele>311.84</ele><time>2022-01-03T18:04:39Z</time></trkpt>
<trkpt lat="40.100323" lon="8.734278"><ele>310.16</ele><time>2022-01-03T18:04:42Z</time></trkpt>
<trkpt lat="40.099926" lon="8.735565"><ele>310.73</ele><time>2022-01-03T18:04:44Z</time></trkpt>
<trkpt lat="40.099683" lon="8.736448"><ele>309.51</ele><time>2022-01-03T18:04:47Z</time></trkpt>
<trkpt lat="40.099511" lon="8.737262"><ele>307.35</ele><time>2022-01-03T18:04:50Z</time></trkpt>
<trkpt lat="40.099155" lon="8.739117"><ele>303.18</ele><time>2022-01-03T18:04:52Z</time></trkpt>
<trkpt lat="40.099035" lon="8.739515"><ele>303.0</ele><time>2022-01-03T18:04:55Z</time></trkpt>
<trkpt lat="40.098693" lon="8.740355"><ele>304.87</ele><time>2022-01-03T18:04:58Z</time></trkpt>
<trkpt lat="40.097709" lon="8.743126"><ele>295.24</ele><time>2022-01-03T18:05:00Z</time></trkpt>
<trkpt lat="40.097689" lon="8.743248"><ele>294.2</ele><time>2022-01-03T18:05:03Z</time></trkpt>
<trkpt lat="40.097686" lon="8.74339"><ele>292.92</ele><time>2022-01-03T18:05:06Z</time></trkpt>
<trkpt lat="40.097703" lon="8.74352"><ele>291.73</ele><time>2022-01-03T18:05:08Z</time></trkpt>
<trkpt lat="40.097975" lon="8.744104"><ele>290.55</ele><time>2022-01-03T18:05:11Z</time></trkpt>
<trkpt lat="40.098011" lon="8.74428"><ele>291.18</ele><time>2022-01-03T18:05:14Z</time></trkpt>
<trkpt lat="40.098019" lon="8.744473"><ele>291.83</ele><time>2022-01-03T18:05:16Z</time></trkpt>
<trkpt lat="40.097879" lon="8.745155"><ele>291.73</ele><time>2022-01-03T18:05:19Z</time></trkpt>
<trkpt lat="40.09781" lon="8.745359"><ele>291.85</ele><time>2022-01-03T18:05:21Z</time></trkpt>
<trkpt lat="40.096955" lon="8.747095"><ele>290.12</ele><time>2022-01-03T18:05:24Z</time></trkpt>
<trkpt lat="40.095505" lon="8.7493"><ele>295.39</ele><time>2022-01-03T18:05:27Z</time></trkpt>
<trkpt lat="40.094486" lon="8.750255"><ele>294.85</ele><time>2022-01-03T18:05:29Z</time></trkpt>
<trkpt lat="40.093805" lon="8.750959"><ele>291.86</ele><time>2022-01-03T18:05:32Z</time></trkpt>
<trkpt lat="40.093387" lon="8.751522"><ele>291.39</ele><time>2022-01-03T18:05:35Z</time></trkpt>
<trkpt lat="40.093082" lon="8.752146"><ele>292.73</ele><time>2022-01-03T18:05:37Z</time></trkpt>
<trkpt lat="40.092857" lon="8.75291"><ele>293.0</ele><time>2022-01-03T18:05:40Z</time></trkpt>
<trkpt lat="40.092383" lon="8.754661"><ele>294.03</ele><time>2022-01-03T18:05:43Z</time></trkpt>
<trkpt lat="40.092271" lon="8.75489"><ele>294.0</ele><time>2022-01-03T18:05:45Z</time></trkpt>
<trkpt lat="40.092176" lon="8.755009"><ele>293.97</ele><time>2022-01-03T18:05:48Z</time></trkpt>
<trkpt lat="40.09166" lon="8.75548"><ele>292.97</ele><time>2022-01-03T18:05:50Z</time></trkpt>
<trkpt lat="40.091525" lon="8.755499"><ele>292.39</ele><time>2022-01-03T18:05:53Z</time></trkpt>
<trkpt lat="40.091443" lon="8.755477"><ele>291.97</ele><time>2022-01-03T18:05:56Z</time></trkpt>
<trkpt lat="40.091378" lon="8.755489"><ele>291.76</ele><time>2022-01-03T18:05:56Z</time></trkpt>
<trkpt lat="40.091306" lon="8.75553"><ele>291.91</ele><time>2022-01-03T18:05:57Z</time></trkpt>
<trkpt lat="40.091139" lon="8.755948"><ele>293.0</ele><time>2022-01-03T18:06:03Z</time></trkpt>
<trkpt lat="40.090842" lon="8.756355"><ele>294.06</ele><time>2022-01-03T18:06:09Z</time></trkpt>
<trkpt lat="40.090044" lon="8.757293"><ele>292.06</ele><time>2022-01-03T18:06:16Z</time></trkpt>
<trkpt lat="40.08977" lon="8.757608"><ele>293.89</ele><time>2022-01-03T18:06:22Z</time></trkpt>
<trkpt lat="40.087303" lon="8.760134"><ele>292.15</ele><time>2022-01-03T18:06:28Z</time></trkpt>
<trkpt lat="40.08622" lon="8.761191"><ele>285.39</ele><time>2022-01-03T18:06:35Z</time></trkpt>
<trkpt lat="40.086109" lon="8.761267"><ele>285.0</ele><time>2022-01-03T18:06:41Z</time></trkpt>
<trkpt lat="40.085292" lon="8.762082"><ele>285.95</ele><time>2022-01-03T18:06:47Z</time></trkpt>
<trkpt lat="40.08513" lon="8.762214"><ele>286.53</ele><time>2022-01-03T18:06:54Z</time></trkpt>
<trkpt lat="40.08447" lon="8.762868"><ele>288.61</ele><time>2022-01-03T18:07:00Z</time></trkpt>
<trkpt lat="40.084286" lon="8.763184"><ele>287.93</ele><time>2022-01-03T18:07:06Z</time></trkpt>
<trkpt lat="40.083997" lon="8.763972"><ele>286.08</ele><time>2022-01-03T18:07:13Z</time></trkpt>
<trkpt lat="40.08392" lon="8.76416"><ele>286.2</ele><time>2022-01-03T18:07:19Z</time></trkpt>
<trkpt lat="40.083361" lon="8.764777"><ele>285.3</ele><time>2022-01-03T18:07:25Z</time></trkpt>
<trkpt lat="40.083139" lon="8.764957"><ele>285.25</ele><time>2022-01-03T18:07:32Z</time></trkpt>
<trkpt lat="40.082776" lon="8.765109"><ele>284.0</ele><time>2022-01-03T18:07:38Z</time></trkpt>
<trkpt lat="40.082716" lon="8.765142"><ele>283.89</ele><time>2022-01-03T18:07:44Z</time></trkpt>
<trkpt lat="40.082649" lon="8.765212"><ele>283.64</ele><time>2022-01-03T18:07:51Z</time></trkpt>
<trkpt lat="40.082586" lon="8.76532"><ele>283.16</ele><time>2022-01-03T18:07:57Z</time></trkpt>
<trkpt lat="40.082552" lon="8.76542"><ele>282.67</ele><time>2022-01-03T18:08:03Z</time></trkpt>
<trkpt lat="40.082543" lon="8.76552"><ele>282.28</ele><time>2022-01-03T18:08:10Z</time></trkpt>
<trkpt lat="40.082584" lon="8.766172"><ele>281.6</ele><time>2022-01-03T18:08:16Z</time></trkpt>
<trkpt lat="40.082531" lon="8.766447"><ele>281.41</ele><time>2022-01-03T18:08:22Z</time></trkpt>
<trkpt lat="40.082456" lon="8.766567"><ele>281.48</ele><time>2022-01-03T18:08:29Z</time></trkpt>
<trkpt lat="40.082219" lon="8.76684"><ele>281.61</ele><time>2022-01-03T18:08:35Z</time></trkpt>
<trkpt lat="40.082155" lon="8.766883"><ele>281.54</ele><time>2022-01-03T18:08:41Z</time></trkpt>
<trkpt lat="40.082029" lon="8.766887"><ele>281.1</ele><time>2022-01-03T18:08:48Z</time></trkpt>
<trkpt lat="40.081838" lon="8.767052"><ele>280.23</ele><time>2022-01-03T18:08:54Z</time></trkpt>
<trkpt lat="40.081823" lon="8.767078"><ele>280.13</ele><time>2022-01-03T18:09:00Z</time></trkpt>
<trkpt lat="40.081807" lon="8.767314"><ele>279.68</ele><time>2022-01-03T18:09:07Z</time></trkpt>
<trkpt lat="40.081776" lon="8.767405"><ele>279.13</ele><time>2022-01-03T18:09:13Z</time></trkpt>
<trkpt lat="40.081165" lon="8.767948"><ele>277.01</ele><time>2022-01-03T18:09:19Z</time></trkpt>
<trkpt lat="40.08037" lon="8.768431"><ele>275.11</ele><time>2022-01-03T18:09:26Z</time></trkpt>
<trkpt lat="40.080272" lon="8.76857"><ele>274.98</ele><time>2022-01-03T18:09:32Z</time></trkpt>
<trkpt lat="40.080206" lon="8.768785"><ele>275.2</ele><time>2022-01-03T18:09:38Z</time></trkpt>
<trkpt lat="40.080206" lon="8.768871"><ele>275.43</ele><time>2022-01-03T18:09:45Z</time></trkpt>
<trkpt lat="40.080411" lon="8.769697"><ele>277.48</ele><time>2022-01-03T18:09:51Z</time></trkpt>
<trkpt lat="40.080411" lon="8.769836"><ele>277.27</ele><time>2022-01-03T18:09:57Z</time></trkpt>
<trkpt lat="40.08037" lon="8.769976"><ele>276.72</ele><time>2022-01-03T18:10:04Z</time></trkpt>
<trkpt lat="40.078153" lon="8.77313"><ele>274.91</ele><time>2022-01-03T18:10:10Z</time></trkpt>
<trkpt lat="40.078009" lon="8.773299"><ele>272.74</ele><time>2022-01-03T18:10:16Z</time></trkpt>
<trkpt lat="40.077903" lon="8.773361"><ele>271.11</ele><time>2022-01-03T18:10:23Z</time></trkpt>
<trkpt lat="40.077792" lon="8.773398"><ele>269.67</ele><time>2022-01-03T18:10:29Z</time></trkpt>
<trkpt lat="40.077537" lon="8.773388"><ele>267.87</ele><time>2022-01-03T18:10:35Z</time></trkpt>
<trkpt lat="40.077365" lon="8.773334"><ele>267.99</ele><time>2022-01-03T18:10:41Z</time></trkpt>
<trkpt lat="40.077146" lon="8.773293"><ele>268.06</ele><time>2022-01-03T18:10:48Z</time></trkpt>
<trkpt lat="40.076947" lon="8.773345"><ele>266.85</ele><time>2022-01-03T18:10:54Z</time></trkpt>
<trkpt lat="40.07643" lon="8.773549"><ele>261.37</ele><time>2022-01-03T18:11:00Z</time></trkpt>
<trkpt lat="40.076126" lon="8.773785"><ele>260.34</ele><time>2022-01-03T18:11:07Z</time></trkpt>
<trkpt lat="40.075978" lon="8.773978"><ele>260.16</ele><time>2022-01-03T18:11:13Z</time></trkpt>
<trkpt lat="40.075674" lon="8.774514"><ele>259.21</ele><time>2022-01-03T18:11:19Z</time></trkpt>
<trkpt lat="40.075354" lon="8.774986"><ele>258.05</ele><time>2022-01-03T18:11:26Z</time></trkpt>
<trkpt lat="40.070334" lon="8.783668"><ele>229.2</ele><time>2022-01-03T18:11:32Z</time></trkpt>
<trkpt lat="40.066313" lon="8.790671"><ele>232.14</ele><time>2022-01-03T18:11:38Z</time></trkpt>
<trkpt lat="40.065681" lon="8.791714"><ele>232.81</ele><time>2022-01-03T18:11:45Z</time></trkpt>
<trkpt lat="40.065593" lon="8.791937"><ele>231.42</ele><time>2022-01-03T18:11:51Z</time></trkpt>
<trkpt lat="40.06556" lon="8.792174"><ele>231.86</ele><time>2022-01-03T18:11:57Z</time></trkpt>
<trkpt lat="40.06543" lon="8.796532"><ele>230.37</ele><time>2022-01-03T18:12:04Z</time></trkpt>
<trkpt lat="40.06576" lon="8.797896"><ele>223.46</ele><time>2022-01-03T18:12:10Z</time></trkpt>
<trkpt lat="40.065753" lon="8.798174"><ele>220.56</ele><time>2022-01-03T18:12:16Z</time></trkpt>
<trkpt lat="40.065573" lon="8.798736"><ele>219.42</ele><time>2022-01-03T18:12:23Z</time></trkpt>
<trkpt lat="40.065385" lon="8.799177"><ele>224.8</ele><time>2022-01-03T18:12:29Z</time></trkpt>
<trkpt lat="40.065309" lon="8.799264"><ele>226.64</ele><time>2022-01-03T18:12:35Z</time></trkpt>
<trkpt lat="40.06517" lon="8.799334"><ele>229.18</ele><time>2022-01-03T18:12:42Z</time></trkpt>
<trkpt lat="40.065015" lon="8.799354"><ele>231.21</ele><time>2022-01-03T18:12:48Z</time></trkpt>
<trkpt lat="40.063047" lon="8.798709"><ele>238.49</ele><time>2022-01-03T18:12:54Z</time></trkpt>
<trkpt lat="40.062903" lon="8.79869"><ele>239.63</ele><time>2022-01-03T18:13:01Z</time></trkpt>
<trkpt lat="40.062831" lon="8.798737"><ele>240.87</ele><time>2022-01-03T18:13:07Z</time></trkpt>
<trkpt lat="40.062771" lon="8.798819"><ele>242.29</ele><time>2022-01-03T18:13:13Z</time></trkpt>
<trkpt lat="40.062736" lon="8.798925"><ele>243.56</ele><time>2022-01-03T18:13:20Z</time></trkpt>
<trkpt lat="40.062736" lon="8.799054"><ele>244.49</ele><time>2022-01-03T18:13:26Z</time></trkpt>
<trkpt lat="40.062776" lon="8.799239"><ele>245.01</ele><time>2022-01-03T18:13:32Z</time></trkpt>
<trkpt lat="40.062935" lon="8.799637"><ele>244.69</ele><time>2022-01-03T18:13:39Z</time></trkpt>
<trkpt lat="40.06333" lon="8.800171"><ele>248.84</ele><time>2022-01-03T18:13:45Z</time></trkpt>
<trkpt lat="40.063425" lon="8.800413"><ele>250.65</ele><time>2022-01-03T18:13:51Z</time></trkpt>
<trkpt lat="40.063448" lon="8.800561"><ele>251.59</ele><time>2022-01-03T18:13:58Z</time></trkpt>
<trkpt lat="40.063442" lon="8.80072"><ele>251.84</ele><time>2022-01-03T18:14:04Z</time></trkpt>
<trkpt lat="40.063394" lon="8.800961"><ele>252.46</ele><time>2022-01-03T18:14:10Z</time></trkpt>
<trkpt lat="40.062368" lon="8.802902"><ele>252.26</ele><time>2022-01-03T18:14:17Z</time></trkpt>
<trkpt lat="40.060987" lon="8.805579"><ele>250.0</ele><time>2022-01-03T18:14:23Z</time></trkpt>
<trkpt lat="40.054705" lon="8.81755"><ele>235.99</ele><time>2022-01-03T18:14:29Z</time></trkpt>
<trkpt lat="40.05086" lon="8.824834"><ele>228.06</ele><time>2022-01-03T18:14:36Z</time></trkpt>
<trkpt lat="40.049992" lon="8.826477"><ele>229.31</ele><time>2022-01-03T18:14:42Z</time></trkpt>
<trkpt lat="40.049874" lon="8.826766"><ele>229.55</ele><time>2022-01-03T18:14:48Z</time></trkpt>
<trkpt lat="40.0498" lon="8.827061"><ele>229.93</ele><time>2022-01-03T18:14:55Z</time></trkpt>
<trkpt lat="40.049447" lon="8.828794"><ele>223.33</ele><time>2022-01-03T18:15:01Z</time></trkpt>
<trkpt lat="40.046402" lon="8.845183"><ele>226.09</ele><time>2022-01-03T18:15:07Z</time></trkpt>
<trkpt lat="40.046224" lon="8.84562"><ele>225.54</ele><time>2022-01-03T18:15:14Z</time></trkpt>
<trkpt lat="40.046157" lon="8.845842"><ele>225.94</ele><time>2022-01-03T18:15:20Z</time></trkpt>
<trkpt lat="40.046202" lon="8.845995"><ele>224.84</ele><time>2022-01-03T18:15:21Z</time></trkpt>
<trkpt lat="40.046252" lon="8.846072"><ele>224.28</ele><time>2022-01-03T18:15:21Z</time></trkpt>
<trkpt lat="40.046162" lon="8.846292"><ele>222.7</ele><time>2022-01-03T18:15:24Z</time></trkpt>
<trkpt lat="40.046126" lon="8.846419"><ele>222.0</ele><time>2022-01-03T18:15:27Z</time></trkpt>
<trkpt lat="40.046143" lon="8.846695"><ele>222.09</ele><time>2022-01-03T18:15:29Z</time></trkpt>
<trkpt lat="40.046106" lon="8.847018"><ele>223.0</ele><time>2022-01-03T18:15:32Z</time></trkpt>
<trkpt lat="40.045442" lon="8.851005"><ele>223.84</ele><time>2022-01-03T18:15:34Z</time></trkpt>
<trkpt lat="40.045247" lon="8.852087"><ele>221.94</ele><time>2022-01-03T18:15:37Z</time></trkpt>
<trkpt lat="40.044641" lon="8.855798"><ele>220.04</ele><time>2022-01-03T18:15:40Z</time></trkpt>
<trkpt lat="40.044523" lon="8.856059"><ele>220.0</ele><time>2022-01-03T18:15:42Z</time></trkpt>
<trkpt lat="40.044371" lon="8.85627"><ele>220.0</ele><time>2022-01-03T18:15:45Z</time></trkpt>
<trkpt lat="40.044147" lon="8.856486"><ele>220.0</ele><time>2022-01-03T18:15:48Z</time></trkpt>
<trkpt lat="40.043239" lon="8.856783"><ele>219.49</ele><time>2022-01-03T18:15:50Z</time></trkpt>
<trkpt lat="40.04296" lon="8.857062"><ele>215.74</ele><time>2022-01-03T18:15:53Z</time></trkpt>
<trkpt lat="40.042763" lon="8.857362"><ele>212.59</ele><time>2022-01-03T18:15:55Z</time></trkpt>
<trkpt lat="40.04268" lon="8.857662"><ele>209.2</ele><time>2022-01-03T18:15:58Z</time></trkpt>
<trkpt lat="40.04264" lon="8.859504"><ele>196.02</ele><time>2022-01-03T18:16:01Z</time></trkpt>
<trkpt lat="40.04268" lon="8.859894"><ele>194.56</ele><time>2022-01-03T18:16:03Z</time></trkpt>
<trkpt lat="40.042839" lon="8.860371"><ele>192.84</ele><time>2022-01-03T18:16:06Z</time></trkpt>
<trkpt lat="40.043035" lon="8.860656"><ele>189.35</ele><time>2022-01-03T18:16:09Z</time></trkpt>
<trkpt lat="40.043341" lon="8.860917"><ele>186.66</ele><time>2022-01-03T18:16:11Z</time></trkpt>
<trkpt lat="40.044441" lon="8.861304"><ele>183.79</ele><time>2022-01-03T18:16:14Z</time></trkpt>
<trkpt lat="40.044694" lon="8.861356"><ele>180.39</ele><time>2022-01-03T18:16:16Z</time></trkpt>
<trkpt lat="40.045621" lon="8.86101"><ele>179.41</ele><time>2022-01-03T18:16:19Z</time></trkpt>
<trkpt lat="40.04592" lon="8.860917"><ele>177.76</ele><time>2022-01-03T18:16:22Z</time></trkpt>
<trkpt lat="40.04613" lon="8.860945"><ele>174.34</ele><time>2022-01-03T18:16:24Z</time></trkpt>
<trkpt lat="40.04636" lon="8.86101"><ele>171.72</ele><time>2022-01-03T18:16:27Z</time></trkpt>
<trkpt lat="40.046524" lon="8.861138"><ele>170.38</ele><time>2022-01-03T18:16:30Z</time></trkpt>
<trkpt lat="40.048236" lon="8.863922"><ele>154.25</ele><time>2022-01-03T18:16:32Z</time></trkpt>
<trkpt lat="40.04838" lon="8.864336"><ele>155.35</ele><time>2022-01-03T18:16:35Z</time></trkpt>
<trkpt lat="40.048515" lon="8.864952"><ele>146.25</ele><time>2022-01-03T18:16:38Z</time></trkpt>
<trkpt lat="40.04884" lon="8.865752"><ele>139.91</ele><time>2022-01-03T18:16:40Z</time></trkpt>
<trkpt lat="40.049002" lon="8.866066"><ele>133.96</ele><time>2022-01-03T18:16:43Z</time></trkpt>
<trkpt lat="40.049253" lon="8.86621"><ele>133.09</ele><time>2022-01-03T18:16:45Z</time></trkpt>
<trkpt lat="40.049856" lon="8.866434"><ele>136.82</ele><time>2022-01-03T18:16:48Z</time></trkpt>
<trkpt lat="40.050362" lon="8.866694"><ele>140.17</ele><time>2022-01-03T18:16:51Z</time></trkpt>
<trkpt lat="40.050588" lon="8.866841"><ele>141.0</ele><time>2022-01-03T18:16:53Z</time></trkpt>
<trkpt lat="40.050743" lon="8.866998"><ele>139.35</ele><time>2022-01-03T18:16:56Z</time></trkpt>
<trkpt lat="40.050868" lon="8.867164"><ele>137.6</ele><time>2022-01-03T18:16:59Z</time></trkpt>
<trkpt lat="40.050991" lon="8.867417"><ele>133.64</ele><time>2022-01-03T18:17:01Z</time></trkpt>
<trkpt lat="40.051089" lon="8.867821"><ele>131.32</ele><time>2022-01-03T18:17:04Z</time></trkpt>
<trkpt lat="40.051128" lon="8.868171"><ele>131.36</ele><time>2022-01-03T18:17:06Z</time></trkpt>
<trkpt lat="40.051538" lon="8.874199"><ele>125.83</ele><time>2022-01-03T18:17:09Z</time></trkpt>
<trkpt lat="40.051558" lon="8.874853"><ele>123.74</ele><time>2022-01-03T18:17:12Z</time></trkpt>
<trkpt lat="40.051534" lon="8.875091"><ele>122.69</ele><time>2022-01-03T18:17:14Z</time></trkpt>
<trkpt lat="40.051463" lon="8.875357"><ele>122.07</ele><time>2022-01-03T18:17:17Z</time></trkpt>
<trkpt lat="40.051349" lon="8.875614"><ele>122.67</ele><time>2022-01-03T18:17:20Z</time></trkpt>
<trkpt lat="40.051206" lon="8.875825"><ele>123.16</ele><time>2022-01-03T18:17:22Z</time></trkpt>
<trkpt lat="40.049975" lon="8.876675"><ele>135.8</ele><time>2022-01-03T18:17:25Z</time></trkpt>
<trkpt lat="40.049755" lon="8.876859"><ele>139.9</ele><time>2022-01-03T18:17:27Z</time></trkpt>
<trkpt lat="40.049532" lon="8.877121"><ele>141.46</ele><time>2022-01-03T18:17:30Z</time></trkpt>
<trkpt lat="40.046076" lon="8.882056"><ele>180.39</ele><time>2022-01-03T18:17:33Z</time></trkpt>
<trkpt lat="40.045589" lon="8.882784"><ele>186.01</ele><time>2022-01-03T18:17:35Z</time></trkpt>
<trkpt lat="40.045312" lon="8.883155"><ele>190.73</ele><time>2022-01-03T18:17:38Z</time></trkpt>
<trkpt lat="40.04514" lon="8.883445"><ele>194.98</ele><time>2022-01-03T18:17:41Z</time></trkpt>
<trkpt lat="40.044999" lon="8.883735"><ele>198.02</ele><time>2022-01-03T18:17:43Z</time></trkpt>
<trkpt lat="40.044866" lon="8.884082"><ele>202.6</ele><time>2022-01-03T18:17:46Z</time></trkpt>
<trkpt lat="40.044782" lon="8.884374"><ele>208.74</ele><time>2022-01-03T18:17:49Z</time></trkpt>
<trkpt lat="40.044719" lon="8.884685"><ele>213.88</ele><time>2022-01-03T18:17:51Z</time></trkpt>
<trkpt lat="40.044684" lon="8.884987"><ele>212.53</ele><time>2022-01-03T18:17:54Z</time></trkpt>
<trkpt lat="40.04467" lon="8.885337"><ele>210.35</ele><time>2022-01-03T18:17:56Z</time></trkpt>
<trkpt lat="40.044684" lon="8.885735"><ele>210.81</ele><time>2022-01-03T18:17:59Z</time></trkpt>
<trkpt lat="40.044725" lon="8.886137"><ele>214.1</ele><time>2022-01-03T18:18:02Z</time></trkpt>
<trkpt lat="40.04485" lon="8.886713"><ele>216.91</ele><time>2022-01-03T18:18:04Z</time></trkpt>
<trkpt lat="40.044941" lon="8.886985"><ele>219.61</ele><time>2022-01-03T18:18:07Z</time></trkpt>
<trkpt lat="40.045113" lon="8.887391"><ele>224.02</ele><time>2022-01-03T18:18:10Z</time></trkpt>
<trkpt lat="40.045852" lon="8.888878"><ele>229.43</ele><time>2022-01-03T18:18:12Z</time></trkpt>
<trkpt lat="40.046038" lon="8.88933"><ele>228.32</ele><time>2022-01-03T18:18:15Z</time></trkpt>
<trkpt lat="40.04604" lon="8.889399"><ele>228.59</ele><time>2022-01-03T18:18:17Z</time></trkpt>
<trkpt lat="40.046014" lon="8.889478"><ele>229.37</ele><time>2022-01-03T18:18:20Z</time></trkpt>
<trkpt lat="40.045618" lon="8.890129"><ele>238.71</ele><time>2022-01-03T18:18:23Z</time></trkpt>
<trkpt lat="40.04507" lon="8.893018"><ele>250.83</ele><time>2022-01-03T18:18:25Z</time></trkpt>
<trkpt lat="40.045056" lon="8.893176"><ele>251.89</ele><time>2022-01-03T18:18:28Z</time></trkpt>
<trkpt lat="40.045081" lon="8.89331"><ele>252.13</ele><time>2022-01-03T18:18:31Z</time></trkpt>
<trkpt lat="40.045348" lon="8.893836"><ele>253.07</ele><time>2022-01-03T18:18:33Z</time></trkpt>
<trkpt lat="40.045401" lon="8.893985"><ele>253.89</ele><time>2022-01-03T18:18:36Z</time></trkpt>
<trkpt lat="40.045414" lon="8.894134"><ele>255.63</ele><time>2022-01-03T18:18:38Z</time></trkpt>
<trkpt lat="40.045322" lon="8.894762"><ele>263.09</ele><time>2022-01-03T18:18:41Z</time></trkpt>
<trkpt lat="40.045313" lon="8.894905"><ele>265.25</ele><time>2022-01-03T18:18:44Z</time></trkpt>
<trkpt lat="40.045329" lon="8.894944"><ele>265.64</ele><time>2022-01-03T18:18:46Z</time></trkpt>
<trkpt lat="40.045359" lon="8.894965"><ele>265.61</ele><time>2022-01-03T18:18:49Z</time></trkpt>
<trkpt lat="40.045656" lon="8.89502"><ele>265.97</ele><time>2022-01-03T18:18:52Z</time></trkpt>
<trkpt lat="40.045724" lon="8.894938"><ele>265.88</ele><time>2022-01-03T18:18:54Z</time></trkpt>
<trkpt lat="40.045798" lon="8.894793"><ele>264.09</ele><time>2022-01-03T18:18:57Z</time></trkpt>
<trkpt lat="40.045868" lon="8.894605"><ele>261.08</ele><time>2022-01-03T18:18:59Z</time></trkpt>
<trkpt lat="40.046133" lon="8.894464"><ele>264.41</ele><time>2022-01-03T18:19:02Z</time></trkpt>
<trkpt lat="40.046318" lon="8.894254"><ele>264.45</ele><time>2022-01-03T18:19:05Z</time></trkpt>
<trkpt lat="40.046499" lon="8.894008"><ele>263.23</ele><time>2022-01-03T18:19:07Z</time></trkpt>
<trkpt lat="40.046551" lon="8.893864"><ele>260.91</ele><time>2022-01-03T18:19:10Z</time></trkpt>
<trkpt lat="40.046569" lon="8.893269"><ele>253.73</ele><time>2022-01-03T18:19:13Z</time></trkpt>
<trkpt lat="40.046636" lon="8.893043"><ele>253.93</ele><time>2022-01-03T18:19:15Z</time></trkpt>
<trkpt lat="40.047043" lon="8.8927"><ele>258.42</ele><time>2022-01-03T18:19:18Z</time></trkpt>
<trkpt lat="40.047176" lon="8.892682"><ele>261.15</ele><time>2022-01-03T18:19:21Z</time></trkpt>
<trkpt lat="40.047499" lon="8.89277"><ele>268.77</ele><time>2022-01-03T18:19:23Z</time></trkpt>
<trkpt lat="40.047719" lon="8.892801"><ele>270.44</ele><time>2022-01-03T18:19:26Z</time></trkpt>
<trkpt lat="40.047876" lon="8.892774"><ele>270.96</ele><time>2022-01-03T18:19:28Z</time></trkpt>
<trkpt lat="40.048034" lon="8.892694"><ele>270.93</ele><time>2022-01-03T18:19:31Z</time></trkpt>
<trkpt lat="40.048343" lon="8.892463"><ele>271.23</ele><time>2022-01-03T18:19:34Z</time></trkpt>
<trkpt lat="40.048437" lon="8.892425"><ele>271.72</ele><time>2022-01-03T18:19:36Z</time></trkpt>
<trkpt lat="40.048537" lon="8.892436"><ele>273.49</ele><time>2022-01-03T18:19:39Z</time></trkpt>
<trkpt lat="40.048614" lon="8.892506"><ele>276.09</ele><time>2022-01-03T18:19:42Z</time></trkpt>
<trkpt lat="40.048852" lon="8.892973"><ele>280.02</ele><time>2022-01-03T18:19:44Z</time></trkpt>
<trkpt lat="40.048887" lon="8.893066"><ele>280.1</ele><time>2022-01-03T18:19:47Z</time></trkpt>
<trkpt lat="40.048886" lon="8.8932"><ele>281.08</ele><time>2022-01-03T18:19:49Z</time></trkpt>
<trkpt lat="40.048749" lon="8.893656"><ele>285.68</ele><time>2022-01-03T18:19:52Z</time></trkpt>
<trkpt lat="40.048735" lon="8.893751"><ele>286.17</ele><time>2022-01-03T18:19:55Z</time></trkpt>
<trkpt lat="40.048744" lon="8.893903"><ele>286.74</ele><time>2022-01-03T18:19:57Z</time></trkpt>
<trkpt lat="40.048769" lon="8.894011"><ele>287.81</ele><time>2022-01-03T18:20:00Z</time></trkpt>
<trkpt lat="40.048902" lon="8.894448"><ele>289.95</ele><time>2022-01-03T18:20:03Z</time></trkpt>
<trkpt lat="40.048881" lon="8.894957"><ele>295.6</ele><time>2022-01-03T18:20:05Z</time></trkpt>
<trkpt lat="40.048885" lon="8.895035"><ele>296.16</ele><time>2022-01-03T18:20:08Z</time></trkpt>
<trkpt lat="40.048915" lon="8.895114"><ele>296.36</ele><time>2022-01-03T18:20:10Z</time></trkpt>
<trkpt lat="40.04896" lon="8.895157"><ele>296.45</ele><time>2022-01-03T18:20:13Z</time></trkpt>
<trkpt lat="40.049071" lon="8.895169"><ele>296.35</ele><time>2022-01-03T18:20:16Z</time></trkpt>
<trkpt lat="40.049124" lon="8.895124"><ele>295.98</ele><time>2022-01-03T18:20:18Z</time></trkpt>
<trkpt lat="40.04927" lon="8.894911"><ele>294.67</ele><time>2022-01-03T18:20:21Z</time></trkpt>
<trkpt lat="40.049387" lon="8.894811"><ele>294.01</ele><time>2022-01-03T18:20:24Z</time></trkpt>
<trkpt lat="40.049468" lon="8.89479"><ele>294.02</ele><time>2022-01-03T18:20:26Z</time></trkpt>
<trkpt lat="40.049553" lon="8.89481"><ele>294.4</ele><time>2022-01-03T18:20:29Z</time></trkpt>
<trkpt lat="40.049659" lon="8.894882"><ele>295.19</ele><time>2022-01-03T18:20:32Z</time></trkpt>
<trkpt lat="40.049768" lon="8.89501"><ele>295.82</ele><time>2022-01-03T18:20:34Z</time></trkpt>
<trkpt lat="40.049914" lon="8.895314"><ele>299.14</ele><time>2022-01-03T18:20:37Z</time></trkpt>
<trkpt lat="40.04993" lon="8.895454"><ele>301.05</ele><time>2022-01-03T18:20:39Z</time></trkpt>
<trkpt lat="40.049923" lon="8.895621"><ele>303.3</ele><time>2022-01-03T18:20:42Z</time></trkpt>
<trkpt lat="40.049869" lon="8.895802"><ele>305.24</ele><time>2022-01-03T18:20:45Z</time></trkpt>
<trkpt lat="40.049212" lon="8.896944"><ele>310.49</ele><time>2022-01-03T18:20:47Z</time></trkpt>
<trkpt lat="40.049075" lon="8.89735"><ele>313.81</ele><time>2022-01-03T18:20:50Z</time></trkpt>
<trkpt lat="40.04895" lon="8.899217"><ele>331.55</ele><time>2022-01-03T18:20:53Z</time></trkpt>
<trkpt lat="40.048899" lon="8.899322"><ele>332.34</ele><time>2022-01-03T18:20:55Z</time></trkpt>
<trkpt lat="40.048343" lon="8.89984"><ele>333.19</ele><time>2022-01-03T18:20:58Z</time></trkpt>
<trkpt lat="40.048164" lon="8.90005"><ele>334.05</ele><time>2022-01-03T18:21:00Z</time></trkpt>
<trkpt lat="40.047833" lon="8.900936"><ele>339.33</ele><time>2022-01-03T18:21:03Z</time></trkpt>
<trkpt lat="40.04755" lon="8.901392"><ele>341.23</ele><time>2022-01-03T18:21:06Z</time></trkpt>
<trkpt lat="40.047385" lon="8.901845"><ele>349.53</ele><time>2022-01-03T18:21:08Z</time></trkpt>
<trkpt lat="40.047323" lon="8.902112"><ele>353.39</ele><time>2022-01-03T18:21:11Z</time></trkpt>
<trkpt lat="40.047281" lon="8.902407"><ele>355.75</ele><time>2022-01-03T18:21:14Z</time></trkpt>
<trkpt lat="40.047263" lon="8.90267"><ele>358.13</ele><time>2022-01-03T18:21:16Z</time></trkpt>
<trkpt lat="40.047271" lon="8.902896"><ele>360.63</ele><time>2022-01-03T18:21:19Z</time></trkpt>
<trkpt lat="40.047523" lon="8.90539"><ele>382.54</ele><time>2022-01-03T18:21:21Z</time></trkpt>
<trkpt lat="40.047748" lon="8.906458"><ele>388.52</ele><time>2022-01-03T18:21:24Z</time></trkpt>
<trkpt lat="40.047776" lon="8.906669"><ele>389.0</ele><time>2022-01-03T18:21:27Z</time></trkpt>
<trkpt lat="40.047779" lon="8.906883"><ele>390.59</ele><time>2022-01-03T18:21:29Z</time></trkpt>
<trkpt lat="40.047754" lon="8.907305"><ele>394.03</ele><time>2022-01-03T18:21:32Z</time></trkpt>
<trkpt lat="40.047542" lon="8.908166"><ele>399.73</ele><time>2022-01-03T18:21:35Z</time></trkpt>
<trkpt lat="40.047271" lon="8.909096"><ele>406.33</ele><time>2022-01-03T18:21:37Z</time></trkpt>
<trkpt lat="40.04718" lon="8.909351"><ele>408.44</ele><time>2022-01-03T18:21:40Z</time></trkpt>
<trkpt lat="40.047062" lon="8.909583"><ele>408.69</ele><time>2022-01-03T18:21:42Z</time></trkpt>
<trkpt lat="40.046386" lon="8.910367"><ele>405.96</ele><time>2022-01-03T18:21:45Z</time></trkpt>
<trkpt lat="40.046205" lon="8.910907"><ele>413.4</ele><time>2022-01-03T18:21:48Z</time></trkpt>
<trkpt lat="40.045598" lon="8.911741"><ele>419.64</ele><time>2022-01-03T18:21:50Z</time></trkpt>
<trkpt lat="40.045564" lon="8.911878"><ele>420.53</ele><time>2022-01-03T18:21:53Z</time></trkpt>
<trkpt lat="40.045601" lon="8.91213"><ele>420.55</ele><time>2022-01-03T18:21:56Z</time></trkpt>
<trkpt lat="40.045748" lon="8.912469"><ele>422.88</ele><time>2022-01-03T18:21:58Z</time></trkpt>
<trkpt lat="40.045776" lon="8.912661"><ele>425.0</ele><time>2022-01-03T18:22:01Z</time></trkpt>
<trkpt lat="40.04572" lon="8.912975"><ele>426.08</ele><time>2022-01-03T18:22:04Z</time></trkpt>
<trkpt lat="40.045727" lon="8.913114"><ele>426.13</ele><time>2022-01-03T18:22:06Z</time></trkpt>
<trkpt lat="40.045763" lon="8.913279"><ele>425.58</ele><time>2022-01-03T18:22:09Z</time></trkpt>
<trkpt lat="40.045867" lon="8.913507"><ele>425.12</ele><time>2022-01-03T18:22:11Z</time></trkpt>
<trkpt lat="40.046244" lon="8.914156"><ele>425.9</ele><time>2022-01-03T18:22:14Z</time></trkpt>
<trkpt lat="40.046343" lon="8.914478"><ele>425.92</ele><time>2022-01-03T18:22:17Z</time></trkpt>
<trkpt lat="40.046449" lon="8.915185"><ele>424.27</ele><time>2022-01-03T18:22:19Z</time></trkpt>
<trkpt lat="40.046638" lon="8.915549"><ele>423.95</ele><time>2022-01-03T18:22:22Z</time></trkpt>
<trkpt lat="40.047618" lon="8.91716"><ele>419.83</ele><time>2022-01-03T18:22:25Z</time></trkpt>
<trkpt lat="40.047669" lon="8.917314"><ele>419.39</ele><time>2022-01-03T18:22:27Z</time></trkpt>
<trkpt lat="40.047683" lon="8.917493"><ele>419.34</ele><time>2022-01-03T18:22:30Z</time></trkpt>
<trkpt lat="40.047657" lon="8.917656"><ele>419.19</ele><time>2022-01-03T18:22:32Z</time></trkpt>
<trkpt lat="40.047458" lon="8.918211"><ele>416.25</ele><time>2022-01-03T18:22:35Z</time></trkpt>
<trkpt lat="40.047166" lon="8.918934"><ele>418.6</ele><time>2022-01-03T18:22:38Z</time></trkpt>
<trkpt lat="40.047109" lon="8.919024"><ele>419.5</ele><time>2022-01-03T18:22:40Z</time></trkpt>
<trkpt lat="40.047042" lon="8.91908"><ele>420.43</ele><time>2022-01-03T18:22:43Z</time></trkpt>
<trkpt lat="40.046977" lon="8.919127"><ele>421.38</ele><time>2022-01-03T18:22:46Z</time></trkpt>
<trkpt lat="40.046903" lon="8.919138"><ele>421.93</ele><time>2022-01-03T18:22:48Z</time></trkpt>
<trkpt lat="40.046573" lon="8.919086"><ele>422.56</ele><time>2022-01-03T18:22:51Z</time></trkpt>
<trkpt lat="40.04616" lon="8.918975"><ele>425.1</ele><time>2022-01-03T18:22:53Z</time></trkpt>
<trkpt lat="40.046014" lon="8.918969"><ele>425.58</ele><time>2022-01-03T18:22:56Z</time></trkpt>
<trkpt lat="40.045874" lon="8.919004"><ele>425.83</ele><time>2022-01-03T18:22:59Z</time></trkpt>
<trkpt lat="40.045299" lon="8.919315"><ele>429.03</ele><time>2022-01-03T18:23:01Z</time></trkpt>
<trkpt lat="40.044988" lon="8.919548"><ele>432.39</ele><time>2022-01-03T18:23:04Z</time></trkpt>
<trkpt lat="40.044521" lon="8.920073"><ele>434.73</ele><time>2022-01-03T18:23:07Z</time></trkpt>
<trkpt lat="40.044229" lon="8.920446"><ele>436.57</ele><time>2022-01-03T18:23:09Z</time></trkpt>
<trkpt lat="40.043855" lon="8.920883"><ele>439.71</ele><time>2022-01-03T18:23:12Z</time></trkpt>
<trkpt lat="40.043421" lon="8.921535"><ele>448.41</ele><time>2022-01-03T18:23:15Z</time></trkpt>
<trkpt lat="40.043146" lon="8.922027"><ele>451.13</ele><time>2022-01-03T18:23:17Z</time></trkpt>
<trkpt lat="40.042939" lon="8.92303"><ele>456.83</ele><time>2022-01-03T18:23:20Z</time></trkpt>
<trkpt lat="40.042335" lon="8.924472"><ele>468.13</ele><time>2022-01-03T18:23:22Z</time></trkpt>
<trkpt lat="40.042162" lon="8.924779"><ele>472.17</ele><time>2022-01-03T18:23:25Z</time></trkpt>
<trkpt lat="40.041878" lon="8.924799"><ele>473.67</ele><time>2022-01-03T18:23:28Z</time></trkpt>
<trkpt lat="40.0417" lon="8.924564"><ele>474.01</ele><time>2022-01-03T18:23:30Z</time></trkpt>
<trkpt lat="40.041486" lon="8.924379"><ele>476.87</ele><time>2022-01-03T18:23:33Z</time></trkpt>
<trkpt lat="40.041172" lon="8.924279"><ele>480.87</ele><time>2022-01-03T18:23:36Z</time></trkpt>
<trkpt lat="40.040722" lon="8.924615"><ele>489.78</ele><time>2022-01-03T18:23:38Z</time></trkpt>
<trkpt lat="40.039793" lon="8.925384"><ele>495.31</ele><time>2022-01-03T18:23:41Z</time></trkpt>
<trkpt lat="40.039529" lon="8.925478"><ele>497.55</ele><time>2022-01-03T18:23:43Z</time></trkpt>
<trkpt lat="40.039045" lon="8.925236"><ele>501.25</ele><time>2022-01-03T18:23:46Z</time></trkpt>
<trkpt lat="40.038397" lon="8.925025"><ele>506.4</ele><time>2022-01-03T18:23:49Z</time></trkpt>
<trkpt lat="40.038187" lon="8.92485"><ele>507.81</ele><time>2022-01-03T18:23:51Z</time></trkpt>
<trkpt lat="40.038034" lon="8.924907"><ele>508.26</ele><time>2022-01-03T18:23:53Z</time></trkpt>
<trkpt lat="40.038066" lon="8.925081"><ele>507.97</ele><time>2022-01-03T18:23:55Z</time></trkpt>
<trkpt lat="40.038146" lon="8.925287"><ele>508.04</ele><time>2022-01-03T18:23:57Z</time></trkpt>
<trkpt lat="40.038237" lon="8.925458"><ele>509.07</ele><time>2022-01-03T18:23:59Z</time></trkpt>
<trkpt lat="40.039783" lon="8.927167"><ele>520.01</ele><time>2022-01-03T18:24:01Z</time></trkpt>
<trkpt lat="40.040022" lon="8.9273"><ele>519.89</ele><time>2022-01-03T18:24:03Z</time></trkpt>
<trkpt lat="40.040407" lon="8.927464"><ele>520.96</ele><time>2022-01-03T18:24:05Z</time></trkpt>
<trkpt lat="40.040508" lon="8.927529"><ele>521.52</ele><time>2022-01-03T18:24:07Z</time></trkpt>
<trkpt lat="40.040616" lon="8.927639"><ele>522.28</ele><time>2022-01-03T18:24:09Z</time></trkpt>
<trkpt lat="40.040702" lon="8.927755"><ele>523.23</ele><time>2022-01-03T18:24:11Z</time></trkpt>
<trkpt lat="40.040771" lon="8.927897"><ele>523.75</ele><time>2022-01-03T18:24:13Z</time></trkpt>
<trkpt lat="40.040982" lon="8.928572"><ele>525.12</ele><time>2022-01-03T18:24:15Z</time></trkpt>
<trkpt lat="40.041056" lon="8.928751"><ele>526.52</ele><time>2022-01-03T18:24:17Z</time></trkpt>
<trkpt lat="40.041207" lon="8.929001"><ele>528.49</ele><time>2022-01-03T18:24:19Z</time></trkpt>
<trkpt lat="40.041625" lon="8.929519"><ele>530.44</ele><time>2022-01-03T18:24:21Z</time></trkpt>
<trkpt lat="40.041772" lon="8.929752"><ele>530.99</ele><time>2022-01-03T18:24:23Z</time></trkpt>
<trkpt lat="40.042293" lon="8.930891"><ele>539.39</ele><time>2022-01-03T18:24:25Z</time></trkpt>
<trkpt lat="40.042394" lon="8.931478"><ele>540.43</ele><time>2022-01-03T18:24:27Z</time></trkpt>
<trkpt lat="40.042436" lon="8.931593"><ele>540.45</ele><time>2022-01-03T18:24:29Z</time></trkpt>
<trkpt lat="40.043573" lon="8.933491"><ele>550.47</ele><time>2022-01-03T18:24:31Z</time></trkpt>
<trkpt lat="40.043682" lon="8.93375"><ele>550.14</ele><time>2022-01-03T18:24:33Z</time></trkpt>
<trkpt lat="40.043941" lon="8.93463"><ele>553.04</ele><time>2022-01-03T18:24:35Z</time></trkpt>
<trkpt lat="40.044052" lon="8.934877"><ele>555.29</ele><time>2022-01-03T18:24:37Z</time></trkpt>
<trkpt lat="40.044254" lon="8.935082"><ele>557.61</ele><time>2022-01-03T18:24:39Z</time></trkpt>
<trkpt lat="40.04526" lon="8.935817"><ele>558.07</ele><time>2022-01-03T18:24:41Z</time></trkpt>
<trkpt lat="40.045584" lon="8.935975"><ele>560.81</ele><time>2022-01-03T18:24:44Z</time></trkpt>
<trkpt lat="40.045905" lon="8.936051"><ele>564.54</ele><time>2022-01-03T18:24:46Z</time></trkpt>
<trkpt lat="40.046883" lon="8.935966"><ele>568.32</ele><time>2022-01-03T18:24:48Z</time></trkpt>
<trkpt lat="40.047747" lon="8.935633"><ele>568.17</ele><time>2022-01-03T18:24:50Z</time></trkpt>
<trkpt lat="40.048042" lon="8.935565"><ele>568.13</ele><time>2022-01-03T18:24:52Z</time></trkpt>
<trkpt lat="40.048211" lon="8.935557"><ele>568.58</ele><time>2022-01-03T18:24:54Z</time></trkpt>
<trkpt lat="40.04839" lon="8.935588"><ele>569.14</ele><time>2022-01-03T18:24:56Z</time></trkpt>
<trkpt lat="40.048696" lon="8.935717"><ele>569.01</ele><time>2022-01-03T18:24:58Z</time></trkpt>
<trkpt lat="40.049702" lon="8.9362"><ele>568.65</ele><time>2022-01-03T18:25:00Z</time></trkpt>
<trkpt lat="40.049892" lon="8.93636"><ele>568.14</ele><time>2022-01-03T18:25:02Z</time></trkpt>
<trkpt lat="40.050015" lon="8.936595"><ele>568.21</ele><time>2022-01-03T18:25:04Z</time></trkpt>
<trkpt lat="40.050217" lon="8.937516"><ele>570.84</ele><time>2022-01-03T18:25:06Z</time></trkpt>
<trkpt lat="40.050335" lon="8.938583"><ele>572.91</ele><time>2022-01-03T18:25:08Z</time></trkpt>
<trkpt lat="40.050274" lon="8.93886"><ele>572.42</ele><time>2022-01-03T18:25:10Z</time></trkpt>
<trkpt lat="40.049932" lon="8.939396"><ele>574.03</ele><time>2022-01-03T18:25:12Z</time></trkpt>
<trkpt lat="40.049892" lon="8.939638"><ele>573.53</ele><time>2022-01-03T18:25:14Z</time></trkpt>
<trkpt lat="40.049907" lon="8.939931"><ele>574.18</ele><time>2022-01-03T18:25:16Z</time></trkpt>
<trkpt lat="40.050031" lon="8.940264"><ele>576.3</ele><time>2022-01-03T18:25:18Z</time></trkpt>
<trkpt lat="40.050429" lon="8.940475"><ele>574.37</ele><time>2022-01-03T18:25:20Z</time></trkpt>
<trkpt lat="40.05114" lon="8.941087"><ele>579.27</ele><time>2022-01-03T18:25:22Z</time></trkpt>
<trkpt lat="40.052563" lon="8.941566"><ele>583.57</ele><time>2022-01-03T18:25:24Z</time></trkpt>
<trkpt lat="40.052711" lon="8.941632"><ele>583.3</ele><time>2022-01-03T18:25:26Z</time></trkpt>
<trkpt lat="40.052755" lon="8.941662"><ele>583.09</ele><time>2022-01-03T18:25:28Z</time></trkpt>
<trkpt lat="40.052818" lon="8.941771"><ele>583.55</ele><time>2022-01-03T18:25:30Z</time></trkpt>
<trkpt lat="40.052866" lon="8.941922"><ele>584.23</ele><time>2022-01-03T18:25:32Z</time></trkpt>
<trkpt lat="40.05288" lon="8.942207"><ele>586.5</ele><time>2022-01-03T18:25:34Z</time></trkpt>
<trkpt lat="40.052882" lon="8.943365"><ele>590.49</ele><time>2022-01-03T18:25:36Z</time></trkpt>
<trkpt lat="40.052866" lon="8.943657"><ele>588.1</ele><time>2022-01-03T18:25:38Z</time></trkpt>
<trkpt lat="40.052822" lon="8.943864"><ele>586.24</ele><time>2022-01-03T18:25:41Z</time></trkpt>
<trkpt lat="40.052667" lon="8.944221"><ele>584.31</ele><time>2022-01-03T18:25:43Z</time></trkpt>
<trkpt lat="40.052307" lon="8.944723"><ele>579.07</ele><time>2022-01-03T18:25:45Z</time></trkpt>
<trkpt lat="40.052213" lon="8.94493"><ele>577.23</ele><time>2022-01-03T18:25:47Z</time></trkpt>
<trkpt lat="40.052184" lon="8.94515"><ele>576.3</ele><time>2022-01-03T18:25:49Z</time></trkpt>
<trkpt lat="40.052225" lon="8.945655"><ele>577.14</ele><time>2022-01-03T18:25:51Z</time></trkpt>
<trkpt lat="40.052191" lon="8.945854"><ele>578.28</ele><time>2022-01-03T18:25:53Z</time></trkpt>
<trkpt lat="40.052124" lon="8.945994"><ele>578.33</ele><time>2022-01-03T18:25:55Z</time></trkpt>
<trkpt lat="40.05205" lon="8.94609"><ele>577.7</ele><time>2022-01-03T18:25:57Z</time></trkpt>
<trkpt lat="40.051618" lon="8.946514"><ele>573.6</ele><time>2022-01-03T18:25:59Z</time></trkpt>
<trkpt lat="40.051384" lon="8.946885"><ele>573.79</ele><time>2022-01-03T18:26:01Z</time></trkpt>
<trkpt lat="40.051217" lon="8.947234"><ele>574.56</ele><time>2022-01-03T18:26:03Z</time></trkpt>
<trkpt lat="40.051051" lon="8.947943"><ele>574.06</ele><time>2022-01-03T18:26:05Z</time></trkpt>
<trkpt lat="40.050921" lon="8.948281"><ele>570.69</ele><time>2022-01-03T18:26:07Z</time></trkpt>
<trkpt lat="40.050724" lon="8.948459"><ele>568.53</ele><time>2022-01-03T18:26:09Z</time></trkpt>
<trkpt lat="40.050277" lon="8.948752"><ele>568.52</ele><time>2022-01-03T18:26:11Z</time></trkpt>
<trkpt lat="40.050062" lon="8.948866"><ele>567.55</ele><time>2022-01-03T18:26:13Z</time></trkpt>
<trkpt lat="40.049946" lon="8.948898"><ele>566.6</ele><time>2022-01-03T18:26:15Z</time></trkpt>
<trkpt lat="40.049868" lon="8.94889"><ele>565.6</ele><time>2022-01-03T18:26:17Z</time></trkpt>
<trkpt lat="40.049433" lon="8.948778"><ele>560.93</ele><time>2022-01-03T18:26:19Z</time></trkpt>
<trkpt lat="40.049284" lon="8.948784"><ele>560.17</ele><time>2022-01-03T18:26:21Z</time></trkpt>
<trkpt lat="40.049094" lon="8.948868"><ele>559.39</ele><time>2022-01-03T18:26:23Z</time></trkpt>
<trkpt lat="40.049011" lon="8.948971"><ele>559.05</ele><time>2022-01-03T18:26:25Z</time></trkpt>
<trkpt lat="40.048953" lon="8.949169"><ele>559.61</ele><time>2022-01-03T18:26:27Z</time></trkpt>
<trkpt lat="40.048922" lon="8.949546"><ele>559.78</ele><time>2022-01-03T18:26:29Z</time></trkpt>
<trkpt lat="40.048877" lon="8.949684"><ele>558.72</ele><time>2022-01-03T18:26:31Z</time></trkpt>
<trkpt lat="40.048792" lon="8.949838"><ele>557.74</ele><time>2022-01-03T18:26:33Z</time></trkpt>
<trkpt lat="40.048506" lon="8.950122"><ele>552.4</ele><time>2022-01-03T18:26:35Z</time></trkpt>
<trkpt lat="40.048436" lon="8.950291"><ele>550.97</ele><time>2022-01-03T18:26:38Z</time></trkpt>
<trkpt lat="40.048407" lon="8.950791"><ele>549.9</ele><time>2022-01-03T18:26:40Z</time></trkpt>
<trkpt lat="40.048342" lon="8.950919"><ele>548.85</ele><time>2022-01-03T18:26:42Z</time></trkpt>
<trkpt lat="40.048248" lon="8.950986"><ele>548.05</ele><time>2022-01-03T18:26:44Z</time></trkpt>
<trkpt lat="40.047933" lon="8.951124"><ele>546.3</ele><time>2022-01-03T18:26:46Z</time></trkpt>
<trkpt lat="40.047529" lon="8.951387"><ele>546.29</ele><time>2022-01-03T18:26:48Z</time></trkpt>
<trkpt lat="40.047245" lon="8.951493"><ele>542.57</ele><time>2022-01-03T18:26:50Z</time></trkpt>
<trkpt lat="40.047146" lon="8.951565"><ele>541.73</ele><time>2022-01-03T18:26:52Z</time></trkpt>
<trkpt lat="40.047041" lon="8.951766"><ele>541.22</ele><time>2022-01-03T18:26:54Z</time></trkpt>
<trkpt lat="40.047015" lon="8.951939"><ele>541.5</ele><time>2022-01-03T18:26:56Z</time></trkpt>
<trkpt lat="40.046985" lon="8.952666"><ele>539.82</ele><time>2022-01-03T18:26:58Z</time></trkpt>
<trkpt lat="40.046958" lon="8.952862"><ele>539.6</ele><time>2022-01-03T18:27:00Z</time></trkpt>
<trkpt lat="40.046893" lon="8.953043"><ele>539.22</ele><time>2022-01-03T18:27:02Z</time></trkpt>
<trkpt lat="40.046804" lon="8.953177"><ele>538.41</ele><time>2022-01-03T18:27:04Z</time></trkpt>
<trkpt lat="40.046611" lon="8.953344"><ele>537.29</ele><time>2022-01-03T18:27:06Z</time></trkpt>
<trkpt lat="40.046225" lon="8.953513"><ele>538.42</ele><time>2022-01-03T18:27:08Z</time></trkpt>
<trkpt lat="40.046139" lon="8.95361"><ele>538.01</ele><time>2022-01-03T18:27:10Z</time></trkpt>
<trkpt lat="40.04607" lon="8.95381"><ele>535.23</ele><time>2022-01-03T18:27:12Z</time></trkpt>
<trkpt lat="40.046074" lon="8.953885"><ele>534.19</ele><time>2022-01-03T18:27:14Z</time></trkpt>
<trkpt lat="40.046126" lon="8.954039"><ele>533.16</ele><time>2022-01-03T18:27:16Z</time></trkpt>
<trkpt lat="40.04635" lon="8.954383"><ele>533.78</ele><time>2022-01-03T18:27:18Z</time></trkpt>
<trkpt lat="40.046497" lon="8.954676"><ele>532.55</ele><time>2022-01-03T18:27:20Z</time></trkpt>
<trkpt lat="40.046581" lon="8.954962"><ele>531.13</ele><time>2022-01-03T18:27:22Z</time></trkpt>
<trkpt lat="40.046618" lon="8.955199"><ele>529.87</ele><time>2022-01-03T18:27:24Z</time></trkpt>
<trkpt lat="40.046635" lon="8.955595"><ele>524.2</ele><time>2022-01-03T18:27:26Z</time></trkpt>
<trkpt lat="40.046689" lon="8.955722"><ele>522.85</ele><time>2022-01-03T18:27:28Z</time></trkpt>
<trkpt lat="40.046795" lon="8.955817"><ele>522.62</ele><time>2022-01-03T18:27:30Z</time></trkpt>
<trkpt lat="40.047131" lon="8.955907"><ele>526.07</ele><time>2022-01-03T18:27:32Z</time></trkpt>
<trkpt lat="40.047204" lon="8.955944"><ele>526.91</ele><time>2022-01-03T18:27:35Z</time></trkpt>
<trkpt lat="40.04726" lon="8.956032"><ele>526.98</ele><time>2022-01-03T18:27:37Z</time></trkpt>
<trkpt lat="40.047298" lon="8.956144"><ele>526.62</ele><time>2022-01-03T18:27:39Z</time></trkpt>
<trkpt lat="40.047295" lon="8.956253"><ele>525.9</ele><time>2022-01-03T18:27:41Z</time></trkpt>
<trkpt lat="40.047255" lon="8.956413"><ele>524.4</ele><time>2022-01-03T18:27:43Z</time></trkpt>
<trkpt lat="40.046793" lon="8.957486"><ele>517.88</ele><time>2022-01-03T18:27:45Z</time></trkpt>
<trkpt lat="40.046521" lon="8.957982"><ele>518.35</ele><time>2022-01-03T18:27:47Z</time></trkpt>
<trkpt lat="40.046485" lon="8.958332"><ele>518.03</ele><time>2022-01-03T18:27:49Z</time></trkpt>
<trkpt lat="40.046625" lon="8.959363"><ele>516.3</ele><time>2022-01-03T18:27:51Z</time></trkpt>
<trkpt lat="40.046701" lon="8.960245"><ele>518.25</ele><time>2022-01-03T18:27:53Z</time></trkpt>
<trkpt lat="40.046775" lon="8.960578"><ele>517.77</ele><time>2022-01-03T18:27:55Z</time></trkpt>
<trkpt lat="40.047044" lon="8.961431"><ele>512.48</ele><time>2022-01-03T18:27:57Z</time></trkpt>
<trkpt lat="40.047084" lon="8.961669"><ele>511.5</ele><time>2022-01-03T18:27:59Z</time></trkpt>
<trkpt lat="40.047058" lon="8.962039"><ele>510.11</ele><time>2022-01-03T18:28:01Z</time></trkpt>
<trkpt lat="40.047001" lon="8.962223"><ele>509.62</ele><time>2022-01-03T18:28:03Z</time></trkpt>
<trkpt lat="40.046874" lon="8.962466"><ele>510.72</ele><time>2022-01-03T18:28:05Z</time></trkpt>
<trkpt lat="40.046652" lon="8.962711"><ele>513.28</ele><time>2022-01-03T18:28:07Z</time></trkpt>
<trkpt lat="40.046351" lon="8.962907"><ele>514.94</ele><time>2022-01-03T18:28:09Z</time></trkpt>
<trkpt lat="40.046216" lon="8.963081"><ele>515.39</ele><time>2022-01-03T18:28:11Z</time></trkpt>
<trkpt lat="40.046122" lon="8.963295"><ele>514.28</ele><time>2022-01-03T18:28:13Z</time></trkpt>
<trkpt lat="40.046011" lon="8.963775"><ele>511.36</ele><time>2022-01-03T18:28:15Z</time></trkpt>
<trkpt lat="40.045914" lon="8.96404"><ele>509.97</ele><time>2022-01-03T18:28:17Z</time></trkpt>
<trkpt lat="40.045807" lon="8.964207"><ele>509.11</ele><time>2022-01-03T18:28:19Z</time></trkpt>
<trkpt lat="40.045673" lon="8.964353"><ele>509.18</ele><time>2022-01-03T18:28:21Z</time></trkpt>
<trkpt lat="40.045559" lon="8.964411"><ele>508.45</ele><time>2022-01-03T18:28:23Z</time></trkpt>
<trkpt lat="40.045285" lon="8.964484"><ele>506.94</ele><time>2022-01-03T18:28:25Z</time></trkpt>
<trkpt lat="40.044677" lon="8.964812"><ele>501.1</ele><time>2022-01-03T18:28:27Z</time></trkpt>
<trkpt lat="40.044492" lon="8.964946"><ele>498.6</ele><time>2022-01-03T18:28:30Z</time></trkpt>
<trkpt lat="40.044418" lon="8.965051"><ele>497.18</ele><time>2022-01-03T18:28:32Z</time></trkpt>
<trkpt lat="40.044371" lon="8.965191"><ele>495.48</ele><time>2022-01-03T18:28:34Z</time></trkpt>
<trkpt lat="40.044369" lon="8.965302"><ele>494.65</ele><time>2022-01-03T18:28:36Z</time></trkpt>
<trkpt lat="40.044387" lon="8.965384"><ele>494.02</ele><time>2022-01-03T18:28:38Z</time></trkpt>
<trkpt lat="40.04443" lon="8.965438"><ele>494.05</ele><time>2022-01-03T18:28:40Z</time></trkpt>
<trkpt lat="40.044736" lon="8.965676"><ele>496.99</ele><time>2022-01-03T18:28:42Z</time></trkpt>
<trkpt lat="40.04485" lon="8.965822"><ele>497.88</ele><time>2022-01-03T18:28:44Z</time></trkpt>
<trkpt lat="40.04491" lon="8.965986"><ele>497.41</ele><time>2022-01-03T18:28:46Z</time></trkpt>
<trkpt lat="40.045031" lon="8.966485"><ele>495.91</ele><time>2022-01-03T18:28:48Z</time></trkpt>
<trkpt lat="40.045217" lon="8.967011"><ele>496.05</ele><time>2022-01-03T18:28:50Z</time></trkpt>
<trkpt lat="40.045237" lon="8.967146"><ele>496.11</ele><time>2022-01-03T18:28:52Z</time></trkpt>
<trkpt lat="40.045203" lon="8.967312"><ele>496.51</ele><time>2022-01-03T18:28:54Z</time></trkpt>
<trkpt lat="40.045145" lon="8.967411"><ele>496.83</ele><time>2022-01-03T18:28:56Z</time></trkpt>
<trkpt lat="40.045076" lon="8.967467"><ele>496.97</ele><time>2022-01-03T18:28:58Z</time></trkpt>
<trkpt lat="40.044973" lon="8.967461"><ele>497.74</ele><time>2022-01-03T18:29:00Z</time></trkpt>
<trkpt lat="40.044892" lon="8.967414"><ele>499.74</ele><time>2022-01-03T18:29:02Z</time></trkpt>
<trkpt lat="40.044423" lon="8.966716"><ele>500.65</ele><time>2022-01-03T18:29:04Z</time></trkpt>
<trkpt lat="40.044264" lon="8.96657"><ele>500.16</ele><time>2022-01-03T18:29:06Z</time></trkpt>
<trkpt lat="40.044085" lon="8.966468"><ele>500.29</ele><time>2022-01-03T18:29:08Z</time></trkpt>
<trkpt lat="40.043855" lon="8.966421"><ele>500.8</ele><time>2022-01-03T18:29:10Z</time></trkpt>
<trkpt lat="40.043231" lon="8.966529"><ele>503.97</ele><time>2022-01-03T18:29:12Z</time></trkpt>
<trkpt lat="40.043034" lon="8.966611"><ele>504.01</ele><time>2022-01-03T18:29:14Z</time></trkpt>
<trkpt lat="40.042839" lon="8.966734"><ele>504.94</ele><time>2022-01-03T18:29:16Z</time></trkpt>
<trkpt lat="40.042667" lon="8.966932"><ele>506.33</ele><time>2022-01-03T18:29:18Z</time></trkpt>
<trkpt lat="40.042622" lon="8.967113"><ele>508.42</ele><time>2022-01-03T18:29:20Z</time></trkpt>
<trkpt lat="40.042616" lon="8.967298"><ele>511.01</ele><time>2022-01-03T18:29:22Z</time></trkpt>
<trkpt lat="40.042634" lon="8.967499"><ele>513.87</ele><time>2022-01-03T18:29:24Z</time></trkpt>
<trkpt lat="40.042613" lon="8.967619"><ele>515.74</ele><time>2022-01-03T18:29:27Z</time></trkpt>
<trkpt lat="40.042569" lon="8.967707"><ele>516.95</ele><time>2022-01-03T18:29:29Z</time></trkpt>
<trkpt lat="40.042477" lon="8.967759"><ele>517.45</ele><time>2022-01-03T18:29:31Z</time></trkpt>
<trkpt lat="40.042135" lon="8.967742"><ele>516.32</ele><time>2022-01-03T18:29:33Z</time></trkpt>
<trkpt lat="40.041415" lon="8.96789"><ele>514.34</ele><time>2022-01-03T18:29:35Z</time></trkpt>
<trkpt lat="40.041308" lon="8.967998"><ele>514.44</ele><time>2022-01-03T18:29:37Z</time></trkpt>
<trkpt lat="40.041258" lon="8.968092"><ele>515.17</ele><time>2022-01-03T18:29:39Z</time></trkpt>
<trkpt lat="40.041235" lon="8.968204"><ele>516.37</ele><time>2022-01-03T18:29:41Z</time></trkpt>
<trkpt lat="40.041292" lon="8.968638"><ele>523.03</ele><time>2022-01-03T18:29:43Z</time></trkpt>
<trkpt lat="40.041263" lon="8.968749"><ele>524.4</ele><time>2022-01-03T18:29:45Z</time></trkpt>
<trkpt lat="40.041191" lon="8.968849"><ele>525.18</ele><time>2022-01-03T18:29:47Z</time></trkpt>
<trkpt lat="40.04107" lon="8.968901"><ele>524.87</ele><time>2022-01-03T18:29:49Z</time></trkpt>
<trkpt lat="40.040578" lon="8.968951"><ele>519.68</ele><time>2022-01-03T18:29:51Z</time></trkpt>
<trkpt lat="40.04046" lon="8.969024"><ele>518.85</ele><time>2022-01-03T18:29:53Z</time></trkpt>
<trkpt lat="40.040381" lon="8.969129"><ele>518.97</ele><time>2022-01-03T18:29:55Z</time></trkpt>
<trkpt lat="40.040355" lon="8.969253"><ele>520.5</ele><time>2022-01-03T18:29:57Z</time></trkpt>
<trkpt lat="40.040343" lon="8.970073"><ele>528.53</ele><time>2022-01-03T18:29:59Z</time></trkpt>
<trkpt lat="40.040363" lon="8.970251"><ele>530.54</ele><time>2022-01-03T18:30:01Z</time></trkpt>
<trkpt lat="40.040453" lon="8.97059"><ele>535.27</ele><time>2022-01-03T18:30:03Z</time></trkpt>
<trkpt lat="40.040471" lon="8.970785"><ele>537.8</ele><time>2022-01-03T18:30:05Z</time></trkpt>
<trkpt lat="40.040444" lon="8.970975"><ele>540.05</ele><time>2022-01-03T18:30:07Z</time></trkpt>
<trkpt lat="40.040325" lon="8.971229"><ele>542.44</ele><time>2022-01-03T18:30:09Z</time></trkpt>
<trkpt lat="40.040238" lon="8.971308"><ele>543.32</ele><time>2022-01-03T18:30:11Z</time></trkpt>
<trkpt lat="40.040163" lon="8.971315"><ele>543.61</ele><time>2022-01-03T18:30:13Z</time></trkpt>
<trkpt lat="40.04005" lon="8.971259"><ele>542.24</ele><time>2022-01-03T18:30:15Z</time></trkpt>
<trkpt lat="40.039896" lon="8.971148"><ele>539.8</ele><time>2022-01-03T18:30:17Z</time></trkpt>
<trkpt lat="40.03971" lon="8.971072"><ele>539.04</ele><time>2022-01-03T18:30:19Z</time></trkpt>
<trkpt lat="40.039534" lon="8.971081"><ele>539.84</ele><time>2022-01-03T18:30:21Z</time></trkpt>
<trkpt lat="40.039167" lon="8.971323"><ele>545.05</ele><time>2022-01-03T18:30:24Z</time></trkpt>
<trkpt lat="40.039021" lon="8.971305"><ele>547.2</ele><time>2022-01-03T18:30:26Z</time></trkpt>
<trkpt lat="40.038945" lon="8.971238"><ele>547.88</ele><time>2022-01-03T18:30:28Z</time></trkpt>
<trkpt lat="40.038865" lon="8.971095"><ele>548.71</ele><time>2022-01-03T18:30:30Z</time></trkpt>
<trkpt lat="40.038735" lon="8.970659"><ele>549.83</ele><time>2022-01-03T18:30:32Z</time></trkpt>
<trkpt lat="40.038695" lon="8.970348"><ele>547.35</ele><time>2022-01-03T18:30:34Z</time></trkpt>
<trkpt lat="40.038643" lon="8.970277"><ele>547.41</ele><time>2022-01-03T18:30:36Z</time></trkpt>
<trkpt lat="40.038603" lon="8.970251"><ele>547.78</ele><time>2022-01-03T18:30:38Z</time></trkpt>
<trkpt lat="40.038297" lon="8.97019"><ele>553.03</ele><time>2022-01-03T18:30:40Z</time></trkpt>
<trkpt lat="40.038138" lon="8.970111"><ele>554.08</ele><time>2022-01-03T18:30:42Z</time></trkpt>
<trkpt lat="40.037735" lon="8.969713"><ele>549.97</ele><time>2022-01-03T18:30:44Z</time></trkpt>
<trkpt lat="40.037621" lon="8.96964"><ele>548.96</ele><time>2022-01-03T18:30:46Z</time></trkpt>
<trkpt lat="40.037532" lon="8.969634"><ele>549.27</ele><time>2022-01-03T18:30:48Z</time></trkpt>
<trkpt lat="40.037467" lon="8.96969"><ele>550.52</ele><time>2022-01-03T18:30:50Z</time></trkpt>
<trkpt lat="40.037436" lon="8.969789"><ele>552.74</ele><time>2022-01-03T18:30:52Z</time></trkpt>
<trkpt lat="40.037444" lon="8.969908"><ele>555.34</ele><time>2022-01-03T18:30:54Z</time></trkpt>
<trkpt lat="40.03751" lon="8.97002"><ele>557.47</ele><time>2022-01-03T18:30:56Z</time></trkpt>
<trkpt lat="40.037617" lon="8.970134"><ele>559.76</ele><time>2022-01-03T18:30:58Z</time></trkpt>
<trkpt lat="40.037811" lon="8.970295"><ele>561.93</ele><time>2022-01-03T18:31:00Z</time></trkpt>
<trkpt lat="40.037926" lon="8.970423"><ele>562.74</ele><time>2022-01-03T18:31:02Z</time></trkpt>
<trkpt lat="40.037999" lon="8.970587"><ele>564.03</ele><time>2022-01-03T18:31:04Z</time></trkpt>
<trkpt lat="40.038147" lon="8.971308"><ele>567.21</ele><time>2022-01-03T18:31:06Z</time></trkpt>
<trkpt lat="40.038257" lon="8.971606"><ele>567.5</ele><time>2022-01-03T18:31:08Z</time></trkpt>
<trkpt lat="40.038395" lon="8.97189"><ele>568.05</ele><time>2022-01-03T18:31:10Z</time></trkpt>
<trkpt lat="40.03863" lon="8.972278"><ele>571.82</ele><time>2022-01-03T18:31:12Z</time></trkpt>
<trkpt lat="40.038751" lon="8.972398"><ele>572.97</ele><time>2022-01-03T18:31:14Z</time></trkpt>
<trkpt lat="40.038948" lon="8.972503"><ele>574.05</ele><time>2022-01-03T18:31:16Z</time></trkpt>
<trkpt lat="40.039189" lon="8.972562"><ele>574.83</ele><time>2022-01-03T18:31:18Z</time></trkpt>
<trkpt lat="40.039643" lon="8.972591"><ele>574.15</ele><time>2022-01-03T18:31:21Z</time></trkpt>
<trkpt lat="40.039798" lon="8.972664"><ele>575.11</ele><time>2022-01-03T18:31:23Z</time></trkpt>
<trkpt lat="40.040073" lon="8.973009"><ele>580.11</ele><time>2022-01-03T18:31:25Z</time></trkpt>
<trkpt lat="40.040132" lon="8.97318"><ele>582.33</ele><time>2022-01-03T18:31:27Z</time></trkpt>
<trkpt lat="40.040138" lon="8.973313"><ele>583.77</ele><time>2022-01-03T18:31:29Z</time></trkpt>
<trkpt lat="40.040062" lon="8.973666"><ele>583.78</ele><time>2022-01-03T18:31:31Z</time></trkpt>
<trkpt lat="40.040061" lon="8.974441"><ele>586.74</ele><time>2022-01-03T18:31:33Z</time></trkpt>
<trkpt lat="40.040017" lon="8.975159"><ele>588.87</ele><time>2022-01-03T18:31:35Z</time></trkpt>
<trkpt lat="40.039901" lon="8.975834"><ele>588.71</ele><time>2022-01-03T18:31:37Z</time></trkpt>
<trkpt lat="40.039717" lon="8.976187"><ele>588.15</ele><time>2022-01-03T18:31:39Z</time></trkpt>
<trkpt lat="40.039632" lon="8.976421"><ele>588.68</ele><time>2022-01-03T18:31:41Z</time></trkpt>
<trkpt lat="40.039522" lon="8.976914"><ele>590.66</ele><time>2022-01-03T18:31:43Z</time></trkpt>
<trkpt lat="40.039409" lon="8.97829"><ele>592.05</ele><time>2022-01-03T18:31:45Z</time></trkpt>
<trkpt lat="40.039307" lon="8.978924"><ele>594.97</ele><time>2022-01-03T18:31:47Z</time></trkpt>
<trkpt lat="40.039156" lon="8.979351"><ele>597.4</ele><time>2022-01-03T18:31:49Z</time></trkpt>
<trkpt lat="40.038818" lon="8.979815"><ele>596.74</ele><time>2022-01-03T18:31:51Z</time></trkpt>
<trkpt lat="40.038444" lon="8.980178"><ele>598.53</ele><time>2022-01-03T18:31:53Z</time></trkpt>
<trkpt lat="40.038322" lon="8.980329"><ele>599.14</ele><time>2022-01-03T18:31:55Z</time></trkpt>
<trkpt lat="40.038283" lon="8.980423"><ele>599.25</ele><time>2022-01-03T18:31:57Z</time></trkpt>
<trkpt lat="40.038277" lon="8.980531"><ele>599.52</ele><time>2022-01-03T18:31:59Z</time></trkpt>
<trkpt lat="40.038308" lon="8.980773"><ele>598.96</ele><time>2022-01-03T18:32:01Z</time></trkpt>
<trkpt lat="40.038595" lon="8.981795"><ele>597.39</ele><time>2022-01-03T18:32:03Z</time></trkpt>
<trkpt lat="40.038608" lon="8.981986"><ele>597.13</ele><time>2022-01-03T18:32:05Z</time></trkpt>
<trkpt lat="40.03857" lon="8.982149"><ele>597.55</ele><time>2022-01-03T18:32:07Z</time></trkpt>
<trkpt lat="40.038467" lon="8.982304"><ele>598.22</ele><time>2022-01-03T18:32:09Z</time></trkpt>
<trkpt lat="40.038142" lon="8.982696"><ele>598.22</ele><time>2022-01-03T18:32:11Z</time></trkpt>
<trkpt lat="40.037881" lon="8.983113"><ele>595.9</ele><time>2022-01-03T18:32:13Z</time></trkpt>
<trkpt lat="40.037413" lon="8.984133"><ele>596.57</ele><time>2022-01-03T18:32:15Z</time></trkpt>
<trkpt lat="40.037304" lon="8.984279"><ele>596.7</ele><time>2022-01-03T18:32:18Z</time></trkpt>
<trkpt lat="40.036875" lon="8.984552"><ele>595.75</ele><time>2022-01-03T18:32:20Z</time></trkpt>
<trkpt lat="40.036349" lon="8.984843"><ele>593.85</ele><time>2022-01-03T18:32:22Z</time></trkpt>
<trkpt lat="40.03576" lon="8.985197"><ele>594.52</ele><time>2022-01-03T18:32:24Z</time></trkpt>
<trkpt lat="40.035645" lon="8.985337"><ele>594.25</ele><time>2022-01-03T18:32:26Z</time></trkpt>
<trkpt lat="40.035612" lon="8.985424"><ele>594.09</ele><time>2022-01-03T18:32:28Z</time></trkpt>
<trkpt lat="40.035469" lon="8.986307"><ele>590.29</ele><time>2022-01-03T18:32:30Z</time></trkpt>
<trkpt lat="40.035416" lon="8.98674"><ele>589.1</ele><time>2022-01-03T18:32:32Z</time></trkpt>
<trkpt lat="40.035369" lon="8.986902"><ele>587.91</ele><time>2022-01-03T18:32:34Z</time></trkpt>
<trkpt lat="40.035325" lon="8.986999"><ele>587.34</ele><time>2022-01-03T18:32:36Z</time></trkpt>
<trkpt lat="40.035238" lon="8.987095"><ele>586.57</ele><time>2022-01-03T18:32:38Z</time></trkpt>
<trkpt lat="40.033729" lon="8.987825"><ele>576.26</ele><time>2022-01-03T18:32:40Z</time></trkpt>
<trkpt lat="40.033517" lon="8.987878"><ele>575.3</ele><time>2022-01-03T18:32:42Z</time></trkpt>
<trkpt lat="40.033044" lon="8.987838"><ele>573.56</ele><time>2022-01-03T18:32:44Z</time></trkpt>
<trkpt lat="40.032736" lon="8.987858"><ele>573.28</ele><time>2022-01-03T18:32:46Z</time></trkpt>
<trkpt lat="40.031482" lon="8.988264"><ele>564.59</ele><time>2022-01-03T18:32:48Z</time></trkpt>
<trkpt lat="40.031274" lon="8.988331"><ele>562.21</ele><time>2022-01-03T18:32:50Z</time></trkpt>
<trkpt lat="40.031104" lon="8.988328"><ele>561.01</ele><time>2022-01-03T18:32:52Z</time></trkpt>
<trkpt lat="40.030777" lon="8.988229"><ele>559.3</ele><time>2022-01-03T18:32:54Z</time></trkpt>
<trkpt lat="40.030609" lon="8.988223"><ele>558.78</ele><time>2022-01-03T18:32:56Z</time></trkpt>
<trkpt lat="40.030374" lon="8.988319"><ele>557.92</ele><time>2022-01-03T18:32:58Z</time></trkpt>
<trkpt lat="40.029636" lon="8.989073"><ele>553.97</ele><time>2022-01-03T18:33:00Z</time></trkpt>
<trkpt lat="40.029483" lon="8.989192"><ele>553.34</ele><time>2022-01-03T18:33:02Z</time></trkpt>
<trkpt lat="40.029086" lon="8.989429"><ele>552.49</ele><time>2022-01-03T18:33:04Z</time></trkpt>
<trkpt lat="40.028858" lon="8.989637"><ele>549.8</ele><time>2022-01-03T18:33:06Z</time></trkpt>
<trkpt lat="40.028773" lon="8.989797"><ele>548.71</ele><time>2022-01-03T18:33:08Z</time></trkpt>
<trkpt lat="40.028686" lon="8.990063"><ele>547.97</ele><time>2022-01-03T18:33:10Z</time></trkpt>
<trkpt lat="40.028607" lon="8.990616"><ele>546.85</ele><time>2022-01-03T18:33:13Z</time></trkpt>
<trkpt lat="40.028565" lon="8.990747"><ele>546.92</ele><time>2022-01-03T18:33:15Z</time></trkpt>
<trkpt lat="40.028231" lon="8.991448"><ele>544.0</ele><time>2022-01-03T18:33:17Z</time></trkpt>
<trkpt lat="40.027656" lon="8.992246"><ele>538.76</ele><time>2022-01-03T18:33:19Z</time></trkpt>
<trkpt lat="40.027554" lon="8.992319"><ele>538.77</ele><time>2022-01-03T18:33:21Z</time></trkpt>
<trkpt lat="40.027406" lon="8.992299"><ele>538.74</ele><time>2022-01-03T18:33:23Z</time></trkpt>
<trkpt lat="40.027149" lon="8.992202"><ele>539.18</ele><time>2022-01-03T18:33:25Z</time></trkpt>
<trkpt lat="40.026954" lon="8.992196"><ele>538.6</ele><time>2022-01-03T18:33:27Z</time></trkpt>
<trkpt lat="40.026777" lon="8.992246"><ele>537.61</ele><time>2022-01-03T18:33:29Z</time></trkpt>
<trkpt lat="40.026587" lon="8.992406"><ele>535.36</ele><time>2022-01-03T18:33:31Z</time></trkpt>
<trkpt lat="40.02639" lon="8.992582"><ele>533.53</ele><time>2022-01-03T18:33:33Z</time></trkpt>
<trkpt lat="40.026032" lon="8.993096"><ele>533.18</ele><time>2022-01-03T18:33:35Z</time></trkpt>
<trkpt lat="40.025529" lon="8.994054"><ele>521.85</ele><time>2022-01-03T18:33:37Z</time></trkpt>
<trkpt lat="40.025431" lon="8.994212"><ele>520.34</ele><time>2022-01-03T18:33:39Z</time></trkpt>
<trkpt lat="40.02535" lon="8.994273"><ele>520.05</ele><time>2022-01-03T18:33:41Z</time></trkpt>
<trkpt lat="40.024809" lon="8.99429"><ele>518.39</ele><time>2022-01-03T18:33:43Z</time></trkpt>
<trkpt lat="40.023757" lon="8.994492"><ele>513.96</ele><time>2022-01-03T18:33:45Z</time></trkpt>
<trkpt lat="40.02359" lon="8.994574"><ele>513.76</ele><time>2022-01-03T18:33:47Z</time></trkpt>
<trkpt lat="40.02326" lon="8.994906"><ele>511.79</ele><time>2022-01-03T18:33:49Z</time></trkpt>
<trkpt lat="40.021507" lon="8.996782"><ele>499.33</ele><time>2022-01-03T18:33:51Z</time></trkpt>
<trkpt lat="40.020983" lon="8.997314"><ele>495.23</ele><time>2022-01-03T18:33:53Z</time></trkpt>
<trkpt lat="40.020339" lon="8.997846"><ele>495.56</ele><time>2022-01-03T18:33:55Z</time></trkpt>
<trkpt lat="40.0201" lon="8.998133"><ele>496.36</ele><time>2022-01-03T18:33:57Z</time></trkpt>
<trkpt lat="40.019805" lon="8.998713"><ele>495.04</ele><time>2022-01-03T18:33:59Z</time></trkpt>
<trkpt lat="40.019755" lon="8.998906"><ele>495.76</ele><time>2022-01-03T18:34:01Z</time></trkpt>
<trkpt lat="40.01976" lon="8.999064"><ele>496.77</ele><time>2022-01-03T18:34:03Z</time></trkpt>
<trkpt lat="40.019829" lon="8.999301"><ele>497.72</ele><time>2022-01-03T18:34:05Z</time></trkpt>
<trkpt lat="40.019979" lon="8.99954"><ele>496.46</ele><time>2022-01-03T18:34:07Z</time></trkpt>
<trkpt lat="40.020048" lon="8.999686"><ele>495.65</ele><time>2022-01-03T18:34:10Z</time></trkpt>
<trkpt lat="40.020059" lon="8.99985"><ele>495.57</ele><time>2022-01-03T18:34:12Z</time></trkpt>
<trkpt lat="40.019998" lon="9.00007"><ele>495.04</ele><time>2022-01-03T18:34:14Z</time></trkpt>
<trkpt lat="40.019695" lon="9.000525"><ele>492.75</ele><time>2022-01-03T18:34:16Z</time></trkpt>
<trkpt lat="40.019625" lon="9.000662"><ele>492.53</ele><time>2022-01-03T18:34:18Z</time></trkpt>
<trkpt lat="40.019576" lon="9.000901"><ele>492.05</ele><time>2022-01-03T18:34:20Z</time></trkpt>
<trkpt lat="40.019572" lon="9.001001"><ele>492.08</ele><time>2022-01-03T18:34:22Z</time></trkpt>
<trkpt lat="40.019666" lon="9.001874"><ele>492.36</ele><time>2022-01-03T18:34:24Z</time></trkpt>
<trkpt lat="40.019845" lon="9.002345"><ele>492.8</ele><time>2022-01-03T18:34:26Z</time></trkpt>
<trkpt lat="40.019907" lon="9.002584"><ele>493.84</ele><time>2022-01-03T18:34:28Z</time></trkpt>
<trkpt lat="40.020006" lon="9.003253"><ele>493.59</ele><time>2022-01-03T18:34:30Z</time></trkpt>
<trkpt lat="40.020014" lon="9.0035"><ele>493.73</ele><time>2022-01-03T18:34:32Z</time></trkpt>
<trkpt lat="40.019978" lon="9.003796"><ele>494.5</ele><time>2022-01-03T18:34:34Z</time></trkpt>
<trkpt lat="40.019867" lon="9.004407"><ele>491.73</ele><time>2022-01-03T18:34:36Z</time></trkpt>
<trkpt lat="40.01959" lon="9.005012"><ele>492.28</ele><time>2022-01-03T18:34:38Z</time></trkpt>
<trkpt lat="40.019406" lon="9.005581"><ele>491.72</ele><time>2022-01-03T18:34:40Z</time></trkpt>
<trkpt lat="40.019408" lon="9.005798"><ele>492.2</ele><time>2022-01-03T18:34:42Z</time></trkpt>
<trkpt lat="40.019433" lon="9.006005"><ele>493.19</ele><time>2022-01-03T18:34:44Z</time></trkpt>
<trkpt lat="40.019482" lon="9.006163"><ele>493.42</ele><time>2022-01-03T18:34:46Z</time></trkpt>
<trkpt lat="40.019706" lon="9.006589"><ele>492.21</ele><time>2022-01-03T18:34:48Z</time></trkpt>
<trkpt lat="40.019932" lon="9.006893"><ele>489.9</ele><time>2022-01-03T18:34:50Z</time></trkpt>
<trkpt lat="40.020205" lon="9.007138"><ele>485.83</ele><time>2022-01-03T18:34:52Z</time></trkpt>
<trkpt lat="40.020379" lon="9.007244"><ele>483.9</ele><time>2022-01-03T18:34:54Z</time></trkpt>
<trkpt lat="40.020473" lon="9.007343"><ele>482.89</ele><time>2022-01-03T18:34:56Z</time></trkpt>
<trkpt lat="40.020507" lon="9.00746"><ele>482.53</ele><time>2022-01-03T18:34:58Z</time></trkpt>
<trkpt lat="40.0205" lon="9.007606"><ele>482.37</ele><time>2022-01-03T18:35:00Z</time></trkpt>
<trkpt lat="40.020429" lon="9.007743"><ele>482.17</ele><time>2022-01-03T18:35:02Z</time></trkpt>
<trkpt lat="40.020299" lon="9.007831"><ele>481.44</ele><time>2022-01-03T18:35:04Z</time></trkpt>
<trkpt lat="40.019486" lon="9.008162"><ele>479.82</ele><time>2022-01-03T18:35:07Z</time></trkpt>
<trkpt lat="40.018451" lon="9.008783"><ele>476.76</ele><time>2022-01-03T18:35:09Z</time></trkpt>
<trkpt lat="40.016228" lon="9.009446"><ele>474.3</ele><time>2022-01-03T18:35:11Z</time></trkpt>
<trkpt lat="40.015751" lon="9.009536"><ele>474.24</ele><time>2022-01-03T18:35:13Z</time></trkpt>
<trkpt lat="40.015505" lon="9.009707"><ele>472.71</ele><time>2022-01-03T18:35:15Z</time></trkpt>
<trkpt lat="40.015415" lon="9.00981"><ele>472.73</ele><time>2022-01-03T18:35:17Z</time></trkpt>
<trkpt lat="40.015353" lon="9.009922"><ele>472.22</ele><time>2022-01-03T18:35:19Z</time></trkpt>
<trkpt lat="40.01495" lon="9.01079"><ele>472.98</ele><time>2022-01-03T18:35:21Z</time></trkpt>
<trkpt lat="40.014851" lon="9.011061"><ele>472.95</ele><time>2022-01-03T18:35:23Z</time></trkpt>
<trkpt lat="40.014642" lon="9.012092"><ele>471.39</ele><time>2022-01-03T18:35:25Z</time></trkpt>
<trkpt lat="40.014638" lon="9.012227"><ele>470.07</ele><time>2022-01-03T18:35:27Z</time></trkpt>
<trkpt lat="40.014661" lon="9.012348"><ele>468.69</ele><time>2022-01-03T18:35:29Z</time></trkpt>
<trkpt lat="40.01476" lon="9.012586"><ele>467.92</ele><time>2022-01-03T18:35:31Z</time></trkpt>
<trkpt lat="40.014793" lon="9.012715"><ele>467.52</ele><time>2022-01-03T18:35:33Z</time></trkpt>
<trkpt lat="40.014795" lon="9.012867"><ele>468.37</ele><time>2022-01-03T18:35:35Z</time></trkpt>
<trkpt lat="40.014748" lon="9.013082"><ele>469.12</ele><time>2022-01-03T18:35:37Z</time></trkpt>
<trkpt lat="40.014684" lon="9.013235"><ele>469.99</ele><time>2022-01-03T18:35:39Z</time></trkpt>
<trkpt lat="40.014543" lon="9.013439"><ele>470.55</ele><time>2022-01-03T18:35:41Z</time></trkpt>
<trkpt lat="40.014295" lon="9.013748"><ele>472.63</ele><time>2022-01-03T18:35:43Z</time></trkpt>
<trkpt lat="40.013935" lon="9.01395"><ele>472.46</ele><time>2022-01-03T18:35:45Z</time></trkpt>
<trkpt lat="40.013876" lon="9.014085"><ele>472.48</ele><time>2022-01-03T18:35:47Z</time></trkpt>
<trkpt lat="40.013822" lon="9.014529"><ele>472.41</ele><time>2022-01-03T18:35:49Z</time></trkpt>
<trkpt lat="40.013734" lon="9.01476"><ele>472.62</ele><time>2022-01-03T18:35:51Z</time></trkpt>
<trkpt lat="40.013137" lon="9.015447"><ele>477.17</ele><time>2022-01-03T18:35:53Z</time></trkpt>
<trkpt lat="40.013061" lon="9.015622"><ele>479.51</ele><time>2022-01-03T18:35:55Z</time></trkpt>
<trkpt lat="40.013043" lon="9.015736"><ele>480.22</ele><time>2022-01-03T18:35:57Z</time></trkpt>
<trkpt lat="40.013085" lon="9.016315"><ele>479.14</ele><time>2022-01-03T18:35:59Z</time></trkpt>
<trkpt lat="40.013072" lon="9.016455"><ele>477.01</ele><time>2022-01-03T18:36:01Z</time></trkpt>
<trkpt lat="40.012984" lon="9.016641"><ele>473.95</ele><time>2022-01-03T18:36:04Z</time></trkpt>
<trkpt lat="40.012915" lon="9.016728"><ele>472.67</ele><time>2022-01-03T18:36:06Z</time></trkpt>
<trkpt lat="40.01277" lon="9.016845"><ele>470.56</ele><time>2022-01-03T18:36:08Z</time></trkpt>
<trkpt lat="40.011742" lon="9.017031"><ele>470.35</ele><time>2022-01-03T18:36:10Z</time></trkpt>
<trkpt lat="40.011619" lon="9.017083"><ele>469.87</ele><time>2022-01-03T18:36:12Z</time></trkpt>
<trkpt lat="40.011426" lon="9.017242"><ele>467.35</ele><time>2022-01-03T18:36:14Z</time></trkpt>
<trkpt lat="40.011354" lon="9.017355"><ele>466.31</ele><time>2022-01-03T18:36:16Z</time></trkpt>
<trkpt lat="40.011227" lon="9.017665"><ele>462.6</ele><time>2022-01-03T18:36:18Z</time></trkpt>
<trkpt lat="40.010851" lon="9.018732"><ele>454.78</ele><time>2022-01-03T18:36:20Z</time></trkpt>
<trkpt lat="40.010713" lon="9.018962"><ele>456.26</ele><time>2022-01-03T18:36:22Z</time></trkpt>
<trkpt lat="40.010625" lon="9.019042"><ele>456.55</ele><time>2022-01-03T18:36:24Z</time></trkpt>
<trkpt lat="40.008772" lon="9.020328"><ele>439.33</ele><time>2022-01-03T18:36:26Z</time></trkpt>
<trkpt lat="40.008561" lon="9.020536"><ele>437.71</ele><time>2022-01-03T18:36:28Z</time></trkpt>
<trkpt lat="40.008376" lon="9.020777"><ele>436.2</ele><time>2022-01-03T18:36:30Z</time></trkpt>
<trkpt lat="40.008331" lon="9.020866"><ele>436.07</ele><time>2022-01-03T18:36:32Z</time></trkpt>
<trkpt lat="40.00831" lon="9.020973"><ele>435.91</ele><time>2022-01-03T18:36:34Z</time></trkpt>
<trkpt lat="40.008321" lon="9.021167"><ele>436.48</ele><time>2022-01-03T18:36:36Z</time></trkpt>
<trkpt lat="40.008603" lon="9.021839"><ele>435.64</ele><time>2022-01-03T18:36:38Z</time></trkpt>
<trkpt lat="40.008642" lon="9.021947"><ele>435.21</ele><time>2022-01-03T18:36:40Z</time></trkpt>
<trkpt lat="40.008665" lon="9.022067"><ele>434.95</ele><time>2022-01-03T18:36:42Z</time></trkpt>
<trkpt lat="40.008656" lon="9.022556"><ele>431.76</ele><time>2022-01-03T18:36:44Z</time></trkpt>
<trkpt lat="40.008678" lon="9.022773"><ele>430.27</ele><time>2022-01-03T18:36:46Z</time></trkpt>
<trkpt lat="40.008769" lon="9.022972"><ele>428.57</ele><time>2022-01-03T18:36:48Z</time></trkpt>
<trkpt lat="40.009696" lon="9.024431"><ele>427.54</ele><time>2022-01-03T18:36:50Z</time></trkpt>
<trkpt lat="40.009722" lon="9.02452"><ele>428.53</ele><time>2022-01-03T18:36:52Z</time></trkpt>
<trkpt lat="40.009705" lon="9.024668"><ele>429.32</ele><time>2022-01-03T18:36:54Z</time></trkpt>
<trkpt lat="40.009405" lon="9.025259"><ele>427.22</ele><time>2022-01-03T18:36:56Z</time></trkpt>
<trkpt lat="40.009368" lon="9.025491"><ele>426.06</ele><time>2022-01-03T18:36:59Z</time></trkpt>
<trkpt lat="40.009441" lon="9.026646"><ele>429.89</ele><time>2022-01-03T18:37:01Z</time></trkpt>
<trkpt lat="40.009501" lon="9.027212"><ele>429.08</ele><time>2022-01-03T18:37:03Z</time></trkpt>
<trkpt lat="40.009543" lon="9.028124"><ele>428.96</ele><time>2022-01-03T18:37:05Z</time></trkpt>
<trkpt lat="40.009526" lon="9.028254"><ele>429.3</ele><time>2022-01-03T18:37:07Z</time></trkpt>
<trkpt lat="40.009323" lon="9.028915"><ele>431.27</ele><time>2022-01-03T18:37:09Z</time></trkpt>
<trkpt lat="40.0091" lon="9.029531"><ele>435.14</ele><time>2022-01-03T18:37:11Z</time></trkpt>
<trkpt lat="40.009045" lon="9.029748"><ele>436.27</ele><time>2022-01-03T18:37:13Z</time></trkpt>
<trkpt lat="40.009039" lon="9.029972"><ele>437.47</ele><time>2022-01-03T18:37:15Z</time></trkpt>
<trkpt lat="40.010133" lon="9.034082"><ele>442.11</ele><time>2022-01-03T18:37:17Z</time></trkpt>
<trkpt lat="40.010152" lon="9.034301"><ele>441.35</ele><time>2022-01-03T18:37:19Z</time></trkpt>
<trkpt lat="40.010141" lon="9.034626"><ele>440.5</ele><time>2022-01-03T18:37:21Z</time></trkpt>
<trkpt lat="40.010002" lon="9.034914"><ele>442.38</ele><time>2022-01-03T18:37:23Z</time></trkpt>
<trkpt lat="40.009706" lon="9.035206"><ele>444.07</ele><time>2022-01-03T18:37:25Z</time></trkpt>
<trkpt lat="40.008533" lon="9.036136"><ele>448.58</ele><time>2022-01-03T18:37:27Z</time></trkpt>
<trkpt lat="40.008315" lon="9.036371"><ele>449.62</ele><time>2022-01-03T18:37:29Z</time></trkpt>
<trkpt lat="40.007801" lon="9.037577"><ele>452.19</ele><time>2022-01-03T18:37:31Z</time></trkpt>
<trkpt lat="40.007455" lon="9.03845"><ele>459.7</ele><time>2022-01-03T18:37:33Z</time></trkpt>
<trkpt lat="40.007268" lon="9.038589"><ele>458.49</ele><time>2022-01-03T18:37:36Z</time></trkpt>
<trkpt lat="40.007011" lon="9.038543"><ele>455.23</ele><time>2022-01-03T18:37:38Z</time></trkpt>
<trkpt lat="40.006624" lon="9.038287"><ele>451.83</ele><time>2022-01-03T18:37:41Z</time></trkpt>
<trkpt lat="40.006251" lon="9.038179"><ele>450.95</ele><time>2022-01-03T18:37:43Z</time></trkpt>
<trkpt lat="40.00589" lon="9.038278"><ele>451.43</ele><time>2022-01-03T18:37:46Z</time></trkpt>
<trkpt lat="40.004571" lon="9.039068"><ele>454.94</ele><time>2022-01-03T18:37:48Z</time></trkpt>
<trkpt lat="40.004184" lon="9.039331"><ele>455.59</ele><time>2022-01-03T18:37:51Z</time></trkpt>
<trkpt lat="40.003827" lon="9.039696"><ele>456.83</ele><time>2022-01-03T18:37:53Z</time></trkpt>
<trkpt lat="40.003712" lon="9.039846"><ele>457.44</ele><time>2022-01-03T18:37:55Z</time></trkpt>
<trkpt lat="40.003047" lon="9.040983"><ele>462.01</ele><time>2022-01-03T18:37:58Z</time></trkpt>
<trkpt lat="40.002735" lon="9.041423"><ele>463.07</ele><time>2022-01-03T18:38:00Z</time></trkpt>
<trkpt lat="40.001813" lon="9.042392"><ele>466.79</ele><time>2022-01-03T18:38:03Z</time></trkpt>
<trkpt lat="40.001525" lon="9.042556"><ele>467.4</ele><time>2022-01-03T18:38:05Z</time></trkpt>
<trkpt lat="40.001147" lon="9.042714"><ele>467.67</ele><time>2022-01-03T18:38:08Z</time></trkpt>
<trkpt lat="40.000512" lon="9.042909"><ele>470.71</ele><time>2022-01-03T18:38:10Z</time></trkpt>
<trkpt lat="40.000199" lon="9.043047"><ele>472.29</ele><time>2022-01-03T18:38:13Z</time></trkpt>
<trkpt lat="39.999857" lon="9.043229"><ele>474.03</ele><time>2022-01-03T18:38:15Z</time></trkpt>
<trkpt lat="39.999528" lon="9.043497"><ele>475.75</ele><time>2022-01-03T18:38:17Z</time></trkpt>
<trkpt lat="39.998173" lon="9.044813"><ele>479.75</ele><time>2022-01-03T18:38:20Z</time></trkpt>
<trkpt lat="39.998007" lon="9.044924"><ele>479.9</ele><time>2022-01-03T18:38:22Z</time></trkpt>
<trkpt lat="39.997794" lon="9.044967"><ele>480.82</ele><time>2022-01-03T18:38:25Z</time></trkpt>
<trkpt lat="39.996857" lon="9.045042"><ele>486.05</ele><time>2022-01-03T18:38:27Z</time></trkpt>
<trkpt lat="39.996168" lon="9.0452"><ele>489.31</ele><time>2022-01-03T18:38:30Z</time></trkpt>
<trkpt lat="39.995644" lon="9.045372"><ele>492.79</ele><time>2022-01-03T18:38:32Z</time></trkpt>
<trkpt lat="39.995402" lon="9.045492"><ele>494.1</ele><time>2022-01-03T18:38:34Z</time></trkpt>
<trkpt lat="39.995164" lon="9.045632"><ele>495.91</ele><time>2022-01-03T18:38:37Z</time></trkpt>
<trkpt lat="39.99492" lon="9.045837"><ele>499.33</ele><time>2022-01-03T18:38:39Z</time></trkpt>
<trkpt lat="39.994608" lon="9.046211"><ele>502.95</ele><time>2022-01-03T18:38:42Z</time></trkpt>
<trkpt lat="39.994255" lon="9.046721"><ele>504.2</ele><time>2022-01-03T18:38:44Z</time></trkpt>
<trkpt lat="39.994135" lon="9.046812"><ele>504.3</ele><time>2022-01-03T18:38:47Z</time></trkpt>
<trkpt lat="39.994014" lon="9.047009"><ele>503.77</ele><time>2022-01-03T18:38:48Z</time></trkpt>
<trkpt lat="39.994268" lon="9.048042"><ele>502.14</ele><time>2022-01-03T18:38:50Z</time></trkpt>
<trkpt lat="39.994719" lon="9.049572"><ele>502.51</ele><time>2022-01-03T18:38:51Z</time></trkpt>
<trkpt lat="39.995402" lon="9.051619"><ele>503.79</ele><time>2022-01-03T18:38:53Z</time></trkpt>
<trkpt lat="39.995412" lon="9.051808"><ele>504.45</ele><time>2022-01-03T18:38:55Z</time></trkpt>
<trkpt lat="39.995377" lon="9.051994"><ele>504.96</ele><time>2022-01-03T18:38:56Z</time></trkpt>
<trkpt lat="39.995279" lon="9.052144"><ele>505.45</ele><time>2022-01-03T18:38:58Z</time></trkpt>
<trkpt lat="39.994827" lon="9.052487"><ele>508.17</ele><time>2022-01-03T18:39:00Z</time></trkpt>
<trkpt lat="39.994703" lon="9.052509"><ele>508.56</ele><time>2022-01-03T18:39:01Z</time></trkpt>
<trkpt lat="39.994564" lon="9.052487"><ele>510.6</ele><time>2022-01-03T18:39:03Z</time></trkpt>
<trkpt lat="39.994355" lon="9.052402"><ele>511.43</ele><time>2022-01-03T18:39:04Z</time></trkpt>
<trkpt lat="39.994229" lon="9.052373"><ele>511.73</ele><time>2022-01-03T18:39:06Z</time></trkpt>
<trkpt lat="39.994071" lon="9.052424"><ele>513.0</ele><time>2022-01-03T18:39:08Z</time></trkpt>
<trkpt lat="39.99389" lon="9.052563"><ele>514.68</ele><time>2022-01-03T18:39:09Z</time></trkpt>
<trkpt lat="39.993714" lon="9.05275"><ele>516.63</ele><time>2022-01-03T18:39:11Z</time></trkpt>
<trkpt lat="39.993583" lon="9.052966"><ele>518.83</ele><time>2022-01-03T18:39:13Z</time></trkpt>
<trkpt lat="39.993255" lon="9.053765"><ele>522.27</ele><time>2022-01-03T18:39:14Z</time></trkpt>
<trkpt lat="39.993195" lon="9.053983"><ele>523.01</ele><time>2022-01-03T18:39:16Z</time></trkpt>
<trkpt lat="39.993063" lon="9.054852"><ele>526.49</ele><time>2022-01-03T18:39:18Z</time></trkpt>
<trkpt lat="39.992843" lon="9.056145"><ele>527.59</ele><time>2022-01-03T18:39:19Z</time></trkpt>
<trkpt lat="39.992527" lon="9.057897"><ele>523.88</ele><time>2022-01-03T18:39:21Z</time></trkpt>
<trkpt lat="39.992361" lon="9.058979"><ele>523.14</ele><time>2022-01-03T18:39:23Z</time></trkpt>
<trkpt lat="39.99232" lon="9.059139"><ele>523.83</ele><time>2022-01-03T18:39:24Z</time></trkpt>
<trkpt lat="39.992263" lon="9.059222"><ele>523.84</ele><time>2022-01-03T18:39:26Z</time></trkpt>
<trkpt lat="39.992181" lon="9.059287"><ele>523.42</ele><time>2022-01-03T18:39:28Z</time></trkpt>
<trkpt lat="39.992077" lon="9.059313"><ele>522.48</ele><time>2022-01-03T18:39:29Z</time></trkpt>
<trkpt lat="39.991925" lon="9.059279"><ele>520.75</ele><time>2022-01-03T18:39:31Z</time></trkpt>
<trkpt lat="39.991583" lon="9.059158"><ele>519.97</ele><time>2022-01-03T18:39:32Z</time></trkpt>
<trkpt lat="39.991366" lon="9.059116"><ele>519.77</ele><time>2022-01-03T18:39:34Z</time></trkpt>
<trkpt lat="39.990866" lon="9.059117"><ele>517.51</ele><time>2022-01-03T18:39:36Z</time></trkpt>
<trkpt lat="39.990676" lon="9.059172"><ele>516.35</ele><time>2022-01-03T18:39:37Z</time></trkpt>
<trkpt lat="39.990528" lon="9.059247"><ele>515.56</ele><time>2022-01-03T18:39:39Z</time></trkpt>
<trkpt lat="39.989596" lon="9.059993"><ele>512.04</ele><time>2022-01-03T18:39:41Z</time></trkpt>
<trkpt lat="39.989395" lon="9.060102"><ele>511.79</ele><time>2022-01-03T18:39:42Z</time></trkpt>
<trkpt lat="39.989278" lon="9.060244"><ele>511.99</ele><time>2022-01-03T18:39:44Z</time></trkpt>
<trkpt lat="39.989163" lon="9.060459"><ele>510.95</ele><time>2022-01-03T18:39:46Z</time></trkpt>
<trkpt lat="39.989132" lon="9.060735"><ele>510.49</ele><time>2022-01-03T18:39:47Z</time></trkpt>
<trkpt lat="39.98914" lon="9.060874"><ele>510.47</ele><time>2022-01-03T18:39:49Z</time></trkpt>
<trkpt lat="39.989206" lon="9.061132"><ele>510.07</ele><time>2022-01-03T18:39:51Z</time></trkpt>
<trkpt lat="39.989771" lon="9.061864"><ele>506.56</ele><time>2022-01-03T18:39:52Z</time></trkpt>
<trkpt lat="39.99001" lon="9.06259"><ele>503.84</ele><time>2022-01-03T18:39:54Z</time></trkpt>
<trkpt lat="39.990207" lon="9.06327"><ele>505.53</ele><time>2022-01-03T18:39:56Z</time></trkpt>
<trkpt lat="39.990241" lon="9.063481"><ele>505.75</ele><time>2022-01-03T18:39:57Z</time></trkpt>
<trkpt lat="39.990227" lon="9.063635"><ele>504.93</ele><time>2022-01-03T18:39:59Z</time></trkpt>
<trkpt lat="39.990161" lon="9.06382"><ele>502.71</ele><time>2022-01-03T18:40:01Z</time></trkpt>
<trkpt lat="39.989762" lon="9.064386"><ele>497.43</ele><time>2022-01-03T18:40:02Z</time></trkpt>
<trkpt lat="39.989695" lon="9.06453"><ele>497.08</ele><time>2022-01-03T18:40:04Z</time></trkpt>
<trkpt lat="39.989656" lon="9.064692"><ele>497.2</ele><time>2022-01-03T18:40:05Z</time></trkpt>
<trkpt lat="39.989648" lon="9.064948"><ele>498.02</ele><time>2022-01-03T18:40:07Z</time></trkpt>
<trkpt lat="39.989625" lon="9.065125"><ele>498.42</ele><time>2022-01-03T18:40:09Z</time></trkpt>
<trkpt lat="39.989573" lon="9.065277"><ele>498.99</ele><time>2022-01-03T18:40:10Z</time></trkpt>
<trkpt lat="39.989446" lon="9.065566"><ele>502.07</ele><time>2022-01-03T18:40:12Z</time></trkpt>
<trkpt lat="39.989435" lon="9.065705"><ele>503.13</ele><time>2022-01-03T18:40:14Z</time></trkpt>
<trkpt lat="39.989464" lon="9.065834"><ele>503.86</ele><time>2022-01-03T18:40:15Z</time></trkpt>
<trkpt lat="39.989526" lon="9.065943"><ele>503.69</ele><time>2022-01-03T18:40:17Z</time></trkpt>
<trkpt lat="39.989673" lon="9.066102"><ele>502.53</ele><time>2022-01-03T18:40:19Z</time></trkpt>
<trkpt lat="39.989731" lon="9.066207"><ele>502.27</ele><time>2022-01-03T18:40:20Z</time></trkpt>
<trkpt lat="39.98976" lon="9.06636"><ele>502.5</ele><time>2022-01-03T18:40:22Z</time></trkpt>
<trkpt lat="39.98974" lon="9.066528"><ele>503.85</ele><time>2022-01-03T18:40:24Z</time></trkpt>
<trkpt lat="39.989665" lon="9.066883"><ele>506.19</ele><time>2022-01-03T18:40:25Z</time></trkpt>
<trkpt lat="39.989586" lon="9.067055"><ele>507.57</ele><time>2022-01-03T18:40:27Z</time></trkpt>
<trkpt lat="39.989444" lon="9.067268"><ele>510.17</ele><time>2022-01-03T18:40:29Z</time></trkpt>
<trkpt lat="39.989402" lon="9.067405"><ele>511.22</ele><time>2022-01-03T18:40:30Z</time></trkpt>
<trkpt lat="39.989415" lon="9.06758"><ele>511.95</ele><time>2022-01-03T18:40:32Z</time></trkpt>
<trkpt lat="39.989471" lon="9.067718"><ele>512.28</ele><time>2022-01-03T18:40:33Z</time></trkpt>
<trkpt lat="39.989537" lon="9.06778"><ele>512.03</ele><time>2022-01-03T18:40:35Z</time></trkpt>
<trkpt lat="39.989636" lon="9.067825"><ele>511.39</ele><time>2022-01-03T18:40:37Z</time></trkpt>
<trkpt lat="39.9901" lon="9.067958"><ele>511.37</ele><time>2022-01-03T18:40:38Z</time></trkpt>
<trkpt lat="39.990225" lon="9.068063"><ele>512.29</ele><time>2022-01-03T18:40:40Z</time></trkpt>
<trkpt lat="39.990314" lon="9.068248"><ele>514.59</ele><time>2022-01-03T18:40:42Z</time></trkpt>
<trkpt lat="39.990355" lon="9.068403"><ele>516.31</ele><time>2022-01-03T18:40:43Z</time></trkpt>
<trkpt lat="39.990392" lon="9.068889"><ele>520.36</ele><time>2022-01-03T18:40:45Z</time></trkpt>
<trkpt lat="39.990435" lon="9.069178"><ele>521.79</ele><time>2022-01-03T18:40:47Z</time></trkpt>
<trkpt lat="39.990562" lon="9.06977"><ele>522.1</ele><time>2022-01-03T18:40:48Z</time></trkpt>
<trkpt lat="39.990623" lon="9.069919"><ele>521.98</ele><time>2022-01-03T18:40:50Z</time></trkpt>
<trkpt lat="39.990705" lon="9.070046"><ele>521.73</ele><time>2022-01-03T18:40:52Z</time></trkpt>
<trkpt lat="39.99103" lon="9.070362"><ele>522.49</ele><time>2022-01-03T18:40:53Z</time></trkpt>
<trkpt lat="39.991215" lon="9.070567"><ele>523.8</ele><time>2022-01-03T18:40:55Z</time></trkpt>
<trkpt lat="39.99127" lon="9.070683"><ele>525.25</ele><time>2022-01-03T18:40:57Z</time></trkpt>
<trkpt lat="39.991393" lon="9.071211"><ele>529.67</ele><time>2022-01-03T18:40:58Z</time></trkpt>
<trkpt lat="39.991439" lon="9.071331"><ele>530.04</ele><time>2022-01-03T18:41:00Z</time></trkpt>
<trkpt lat="39.991744" lon="9.071803"><ele>532.28</ele><time>2022-01-03T18:41:02Z</time></trkpt>
<trkpt lat="39.991213" lon="9.072752"><ele>538.65</ele><time>2022-01-03T18:41:07Z</time></trkpt>
<trkpt lat="39.991112" lon="9.072866"><ele>541.26</ele><time>2022-01-03T18:41:12Z</time></trkpt>
<trkpt lat="39.990972" lon="9.073319"><ele>549.3</ele><time>2022-01-03T18:41:18Z</time></trkpt>
<trkpt lat="39.990862" lon="9.073561"><ele>550.07</ele><time>2022-01-03T18:41:23Z</time></trkpt>
<trkpt lat="39.990926" lon="9.073666"><ele>550.13</ele><time>2022-01-03T18:41:24Z</time></trkpt>
<trkpt lat="39.990859" lon="9.074"><ele>548.36</ele><time>2022-01-03T18:41:28Z</time></trkpt>
<trkpt lat="39.990373" lon="9.073748"><ele>545.71</ele><time>2022-01-03T18:41:33Z</time></trkpt>
<trkpt lat="39.989984" lon="9.0735"><ele>541.6</ele><time>2022-01-03T18:41:38Z</time></trkpt>
<trkpt lat="39.98973" lon="9.073282"><ele>539.3</ele><time>2022-01-03T18:41:42Z</time></trkpt>
<trkpt lat="39.989533" lon="9.073194"><ele>536.78</ele><time>2022-01-03T18:41:47Z</time></trkpt>
<trkpt lat="39.989465" lon="9.073591"><ele>535.22</ele><time>2022-01-03T18:41:52Z</time></trkpt>
<trkpt lat="39.989275" lon="9.074101"><ele>533.02</ele><time>2022-01-03T18:41:56Z</time></trkpt>
<trkpt lat="39.989338" lon="9.074264"><ele>532.74</ele><time>2022-01-03T18:42:00Z</time></trkpt>
<trkpt lat="39.98919" lon="9.074806"><ele>528.0</ele><time>2022-01-03T18:42:05Z</time></trkpt>
<trkpt lat="39.988733" lon="9.074627"><ele>522.44</ele><time>2022-01-03T18:42:06Z</time></trkpt>
<trkpt lat="39.98858" lon="9.074526"><ele>520.79</ele><time>2022-01-03T18:42:08Z</time></trkpt>
<trkpt lat="39.988475" lon="9.074417"><ele>519.06</ele><time>2022-01-03T18:42:10Z</time></trkpt>
<trkpt lat="39.988411" lon="9.074309"><ele>517.68</ele><time>2022-01-03T18:42:12Z</time></trkpt>
<trkpt lat="39.988335" lon="9.074119"><ele>516.04</ele><time>2022-01-03T18:42:14Z</time></trkpt>
<trkpt lat="39.988322" lon="9.074022"><ele>515.72</ele><time>2022-01-03T18:42:15Z</time></trkpt>
<trkpt lat="39.988327" lon="9.073852"><ele>515.85</ele><time>2022-01-03T18:42:17Z</time></trkpt>
<trkpt lat="39.988358" lon="9.073685"><ele>516.54</ele><time>2022-01-03T18:42:19Z</time></trkpt>
<trkpt lat="39.988368" lon="9.073578"><ele>516.86</ele><time>2022-01-03T18:42:21Z</time></trkpt>
<trkpt lat="39.988344" lon="9.073466"><ele>516.76</ele><time>2022-01-03T18:42:22Z</time></trkpt>
<trkpt lat="39.988203" lon="9.073207"><ele>515.32</ele><time>2022-01-03T18:42:24Z</time></trkpt>
<trkpt lat="39.987837" lon="9.072865"><ele>512.08</ele><time>2022-01-03T18:42:26Z</time></trkpt>
<trkpt lat="39.987559" lon="9.072631"><ele>509.23</ele><time>2022-01-03T18:42:28Z</time></trkpt>
<trkpt lat="39.987288" lon="9.072327"><ele>505.49</ele><time>2022-01-03T18:42:29Z</time></trkpt>
<trkpt lat="39.986651" lon="9.071191"><ele>501.1</ele><time>2022-01-03T18:42:31Z</time></trkpt>
<trkpt lat="39.986041" lon="9.070232"><ele>494.48</ele><time>2022-01-03T18:42:33Z</time></trkpt>
<trkpt lat="39.985934" lon="9.069979"><ele>492.09</ele><time>2022-01-03T18:42:35Z</time></trkpt>
<trkpt lat="39.985889" lon="9.069808"><ele>490.52</ele><time>2022-01-03T18:42:36Z</time></trkpt>
<trkpt lat="39.985869" lon="9.069626"><ele>490.07</ele><time>2022-01-03T18:42:38Z</time></trkpt>
<trkpt lat="39.985751" lon="9.068163"><ele>487.36</ele><time>2022-01-03T18:42:40Z</time></trkpt>
<trkpt lat="39.98571" lon="9.068065"><ele>486.61</ele><time>2022-01-03T18:42:42Z</time></trkpt>
<trkpt lat="39.985628" lon="9.067974"><ele>485.75</ele><time>2022-01-03T18:42:43Z</time></trkpt>
<trkpt lat="39.985434" lon="9.067877"><ele>485.58</ele><time>2022-01-03T18:42:45Z</time></trkpt>
<trkpt lat="39.985365" lon="9.067738"><ele>485.47</ele><time>2022-01-03T18:42:47Z</time></trkpt>
<trkpt lat="39.985434" lon="9.066551"><ele>486.0</ele><time>2022-01-03T18:42:49Z</time></trkpt>
<trkpt lat="39.985412" lon="9.066296"><ele>485.72</ele><time>2022-01-03T18:42:50Z</time></trkpt>
<trkpt lat="39.985339" lon="9.066073"><ele>485.56</ele><time>2022-01-03T18:42:52Z</time></trkpt>
<trkpt lat="39.98499" lon="9.065621"><ele>487.17</ele><time>2022-01-03T18:42:54Z</time></trkpt>
<trkpt lat="39.984805" lon="9.065519"><ele>485.33</ele><time>2022-01-03T18:42:56Z</time></trkpt>
<trkpt lat="39.982594" lon="9.064799"><ele>471.17</ele><time>2022-01-03T18:42:58Z</time></trkpt>
<trkpt lat="39.982345" lon="9.064703"><ele>472.09</ele><time>2022-01-03T18:42:59Z</time></trkpt>
<trkpt lat="39.98222" lon="9.064589"><ele>473.1</ele><time>2022-01-03T18:43:01Z</time></trkpt>
<trkpt lat="39.98212" lon="9.064452"><ele>475.01</ele><time>2022-01-03T18:43:03Z</time></trkpt>
<trkpt lat="39.981736" lon="9.063787"><ele>477.65</ele><time>2022-01-03T18:43:05Z</time></trkpt>
<trkpt lat="39.981655" lon="9.063711"><ele>477.58</ele><time>2022-01-03T18:43:06Z</time></trkpt>
<trkpt lat="39.981453" lon="9.063625"><ele>477.89</ele><time>2022-01-03T18:43:08Z</time></trkpt>
<trkpt lat="39.980562" lon="9.063344"><ele>477.45</ele><time>2022-01-03T18:43:10Z</time></trkpt>
<trkpt lat="39.98041" lon="9.063315"><ele>474.86</ele><time>2022-01-03T18:43:12Z</time></trkpt>
<trkpt lat="39.9803" lon="9.06334"><ele>474.53</ele><time>2022-01-03T18:43:13Z</time></trkpt>
<trkpt lat="39.980247" lon="9.063375"><ele>475.31</ele><time>2022-01-03T18:43:15Z</time></trkpt>
<trkpt lat="39.979715" lon="9.063996"><ele>483.57</ele><time>2022-01-03T18:43:17Z</time></trkpt>
<trkpt lat="39.979664" lon="9.064035"><ele>483.74</ele><time>2022-01-03T18:43:19Z</time></trkpt>
<trkpt lat="39.979561" lon="9.064076"><ele>483.2</ele><time>2022-01-03T18:43:20Z</time></trkpt>
<trkpt lat="39.97945" lon="9.064091"><ele>481.91</ele><time>2022-01-03T18:43:22Z</time></trkpt>
<trkpt lat="39.979334" lon="9.064083"><ele>481.48</ele><time>2022-01-03T18:43:24Z</time></trkpt>
<trkpt lat="39.979189" lon="9.06404"><ele>479.94</ele><time>2022-01-03T18:43:26Z</time></trkpt>
<trkpt lat="39.97876" lon="9.063843"><ele>482.05</ele><time>2022-01-03T18:43:27Z</time></trkpt>
<trkpt lat="39.978599" lon="9.063747"><ele>485.31</ele><time>2022-01-03T18:43:29Z</time></trkpt>
<trkpt lat="39.978558" lon="9.063664"><ele>486.33</ele><time>2022-01-03T18:43:31Z</time></trkpt>
<trkpt lat="39.978558" lon="9.063523"><ele>486.86</ele><time>2022-01-03T18:43:33Z</time></trkpt>
<trkpt lat="39.978679" lon="9.06304"><ele>484.52</ele><time>2022-01-03T18:43:34Z</time></trkpt>
<trkpt lat="39.978682" lon="9.062939"><ele>482.83</ele><time>2022-01-03T18:43:36Z</time></trkpt>
<trkpt lat="39.978665" lon="9.062854"><ele>481.92</ele><time>2022-01-03T18:43:38Z</time></trkpt>
<trkpt lat="39.97861" lon="9.062741"><ele>480.68</ele><time>2022-01-03T18:43:40Z</time></trkpt>
<trkpt lat="39.978548" lon="9.062659"><ele>478.51</ele><time>2022-01-03T18:43:42Z</time></trkpt>
<trkpt lat="39.977976" lon="9.062266"><ele>477.94</ele><time>2022-01-03T18:43:43Z</time></trkpt>
<trkpt lat="39.97757" lon="9.061935"><ele>475.26</ele><time>2022-01-03T18:43:45Z</time></trkpt>
<trkpt lat="39.977255" lon="9.061609"><ele>473.2</ele><time>2022-01-03T18:43:47Z</time></trkpt>
<trkpt lat="39.976952" lon="9.061218"><ele>468.34</ele><time>2022-01-03T18:43:49Z</time></trkpt>
<trkpt lat="39.976516" lon="9.060903"><ele>474.05</ele><time>2022-01-03T18:43:50Z</time></trkpt>
<trkpt lat="39.976143" lon="9.060313"><ele>468.03</ele><time>2022-01-03T18:43:52Z</time></trkpt>
<trkpt lat="39.97584" lon="9.05977"><ele>468.04</ele><time>2022-01-03T18:43:54Z</time></trkpt>
<trkpt lat="39.975802" lon="9.059587"><ele>468.39</ele><time>2022-01-03T18:43:56Z</time></trkpt>
<trkpt lat="39.975798" lon="9.059439"><ele>468.45</ele><time>2022-01-03T18:43:57Z</time></trkpt>
<trkpt lat="39.975877" lon="9.059077"><ele>460.83</ele><time>2022-01-03T18:43:59Z</time></trkpt>
<trkpt lat="39.975887" lon="9.058989"><ele>458.38</ele><time>2022-01-03T18:44:01Z</time></trkpt>
<trkpt lat="39.975873" lon="9.058899"><ele>456.83</ele><time>2022-01-03T18:44:03Z</time></trkpt>
<trkpt lat="39.975817" lon="9.058819"><ele>456.63</ele><time>2022-01-03T18:44:04Z</time></trkpt>
<trkpt lat="39.975279" lon="9.058296"><ele>453.77</ele><time>2022-01-03T18:44:06Z</time></trkpt>
<trkpt lat="39.974642" lon="9.057739"><ele>445.49</ele><time>2022-01-03T18:44:08Z</time></trkpt>
<trkpt lat="39.974415" lon="9.057664"><ele>442.48</ele><time>2022-01-03T18:44:10Z</time></trkpt>
<trkpt lat="39.974192" lon="9.057715"><ele>442.16</ele><time>2022-01-03T18:44:11Z</time></trkpt>
<trkpt lat="39.974012" lon="9.05789"><ele>444.22</ele><time>2022-01-03T18:44:13Z</time></trkpt>
<trkpt lat="39.973807" lon="9.058224"><ele>446.13</ele><time>2022-01-03T18:44:15Z</time></trkpt>
<trkpt lat="39.973723" lon="9.05829"><ele>445.01</ele><time>2022-01-03T18:44:17Z</time></trkpt>
<trkpt lat="39.97344" lon="9.058401"><ele>438.72</ele><time>2022-01-03T18:44:18Z</time></trkpt>
<trkpt lat="39.973277" lon="9.058539"><ele>435.25</ele><time>2022-01-03T18:44:20Z</time></trkpt>
<trkpt lat="39.973182" lon="9.058766"><ele>433.95</ele><time>2022-01-03T18:44:22Z</time></trkpt>
<trkpt lat="39.973184" lon="9.059013"><ele>434.73</ele><time>2022-01-03T18:44:24Z</time></trkpt>
<trkpt lat="39.973438" lon="9.059375"><ele>437.27</ele><time>2022-01-03T18:44:26Z</time></trkpt>
<trkpt lat="39.973482" lon="9.05948"><ele>437.09</ele><time>2022-01-03T18:44:27Z</time></trkpt>
<trkpt lat="39.973489" lon="9.05964"><ele>436.94</ele><time>2022-01-03T18:44:29Z</time></trkpt>
<trkpt lat="39.973444" lon="9.059762"><ele>436.11</ele><time>2022-01-03T18:44:31Z</time></trkpt>
<trkpt lat="39.973364" lon="9.059846"><ele>434.64</ele><time>2022-01-03T18:44:33Z</time></trkpt>
<trkpt lat="39.972977" lon="9.059996"><ele>426.56</ele><time>2022-01-03T18:44:34Z</time></trkpt>
<trkpt lat="39.972786" lon="9.060027"><ele>423.53</ele><time>2022-01-03T18:44:36Z</time></trkpt>
<trkpt lat="39.972708" lon="9.060114"><ele>423.64</ele><time>2022-01-03T18:44:38Z</time></trkpt>
<trkpt lat="39.97259" lon="9.060346"><ele>425.53</ele><time>2022-01-03T18:44:40Z</time></trkpt>
<trkpt lat="39.972495" lon="9.060407"><ele>425.28</ele><time>2022-01-03T18:44:41Z</time></trkpt>
<trkpt lat="39.972392" lon="9.06037"><ele>423.63</ele><time>2022-01-03T18:44:43Z</time></trkpt>
<trkpt lat="39.972245" lon="9.060243"><ele>419.52</ele><time>2022-01-03T18:44:45Z</time></trkpt>
<trkpt lat="39.972056" lon="9.060192"><ele>415.8</ele><time>2022-01-03T18:44:47Z</time></trkpt>
<trkpt lat="39.97185" lon="9.060242"><ele>414.36</ele><time>2022-01-03T18:44:48Z</time></trkpt>
<trkpt lat="39.971633" lon="9.060368"><ele>414.96</ele><time>2022-01-03T18:44:50Z</time></trkpt>
<trkpt lat="39.971294" lon="9.060633"><ele>411.96</ele><time>2022-01-03T18:44:52Z</time></trkpt>
<trkpt lat="39.970915" lon="9.061021"><ele>409.8</ele><time>2022-01-03T18:44:54Z</time></trkpt>
<trkpt lat="39.970793" lon="9.061216"><ele>409.13</ele><time>2022-01-03T18:44:55Z</time></trkpt>
<trkpt lat="39.970721" lon="9.061588"><ele>411.95</ele><time>2022-01-03T18:44:57Z</time></trkpt>
<trkpt lat="39.970639" lon="9.061653"><ele>411.27</ele><time>2022-01-03T18:44:59Z</time></trkpt>
<trkpt lat="39.969918" lon="9.061419"><ele>395.19</ele><time>2022-01-03T18:45:01Z</time></trkpt>
<trkpt lat="39.969431" lon="9.061406"><ele>396.32</ele><time>2022-01-03T18:45:02Z</time></trkpt>
<trkpt lat="39.969115" lon="9.061458"><ele>394.58</ele><time>2022-01-03T18:45:04Z</time></trkpt>
<trkpt lat="39.96904" lon="9.061502"><ele>394.52</ele><time>2022-01-03T18:45:06Z</time></trkpt>
<trkpt lat="39.968991" lon="9.061601"><ele>395.31</ele><time>2022-01-03T18:45:08Z</time></trkpt>
<trkpt lat="39.968843" lon="9.062457"><ele>392.92</ele><time>2022-01-03T18:45:10Z</time></trkpt>
<trkpt lat="39.968593" lon="9.063105"><ele>384.57</ele><time>2022-01-03T18:45:11Z</time></trkpt>
<trkpt lat="39.968568" lon="9.063232"><ele>384.13</ele><time>2022-01-03T18:45:13Z</time></trkpt>
<trkpt lat="39.968591" lon="9.063619"><ele>387.26</ele><time>2022-01-03T18:45:15Z</time></trkpt>
<trkpt lat="39.968576" lon="9.063828"><ele>388.35</ele><time>2022-01-03T18:45:17Z</time></trkpt>
<trkpt lat="39.968483" lon="9.063928"><ele>386.61</ele><time>2022-01-03T18:45:18Z</time></trkpt>
<trkpt lat="39.968075" lon="9.063813"><ele>374.09</ele><time>2022-01-03T18:45:20Z</time></trkpt>
<trkpt lat="39.967888" lon="9.063861"><ele>370.81</ele><time>2022-01-03T18:45:22Z</time></trkpt>
<trkpt lat="39.967776" lon="9.06403"><ele>371.51</ele><time>2022-01-03T18:45:24Z</time></trkpt>
<trkpt lat="39.967668" lon="9.064378"><ele>374.89</ele><time>2022-01-03T18:45:25Z</time></trkpt>
<trkpt lat="39.967595" lon="9.064451"><ele>374.84</ele><time>2022-01-03T18:45:27Z</time></trkpt>
<trkpt lat="39.967079" lon="9.064681"><ele>368.96</ele><time>2022-01-03T18:45:29Z</time></trkpt>
<trkpt lat="39.96675" lon="9.064779"><ele>368.03</ele><time>2022-01-03T18:45:31Z</time></trkpt>
<trkpt lat="39.966505" lon="9.064751"><ele>365.09</ele><time>2022-01-03T18:45:32Z</time></trkpt>
<trkpt lat="39.965808" lon="9.064802"><ele>360.09</ele><time>2022-01-03T18:45:34Z</time></trkpt>
<trkpt lat="39.964533" lon="9.064788"><ele>357.23</ele><time>2022-01-03T18:45:36Z</time></trkpt>
<trkpt lat="39.963872" lon="9.06443"><ele>342.65</ele><time>2022-01-03T18:45:38Z</time></trkpt>
<trkpt lat="39.963226" lon="9.064318"><ele>339.54</ele><time>2022-01-03T18:45:39Z</time></trkpt>
<trkpt lat="39.962743" lon="9.064123"><ele>335.98</ele><time>2022-01-03T18:45:41Z</time></trkpt>
<trkpt lat="39.961726" lon="9.063839"><ele>334.76</ele><time>2022-01-03T18:45:43Z</time></trkpt>
<trkpt lat="39.961651" lon="9.063762"><ele>336.37</ele><time>2022-01-03T18:45:45Z</time></trkpt>
<trkpt lat="39.961614" lon="9.063681"><ele>337.85</ele><time>2022-01-03T18:45:46Z</time></trkpt>
<trkpt lat="39.961591" lon="9.063543"><ele>338.59</ele><time>2022-01-03T18:45:48Z</time></trkpt>
<trkpt lat="39.961571" lon="9.062707"><ele>338.46</ele><time>2022-01-03T18:45:50Z</time></trkpt>
<trkpt lat="39.961555" lon="9.062513"><ele>337.86</ele><time>2022-01-03T18:45:52Z</time></trkpt>
<trkpt lat="39.961493" lon="9.062397"><ele>338.25</ele><time>2022-01-03T18:45:54Z</time></trkpt>
<trkpt lat="39.961336" lon="9.062252"><ele>339.57</ele><time>2022-01-03T18:45:55Z</time></trkpt>
<trkpt lat="39.961081" lon="9.062071"><ele>344.08</ele><time>2022-01-03T18:45:57Z</time></trkpt>
<trkpt lat="39.961021" lon="9.061993"><ele>345.77</ele><time>2022-01-03T18:45:59Z</time></trkpt>
<trkpt lat="39.961001" lon="9.061818"><ele>348.42</ele><time>2022-01-03T18:46:01Z</time></trkpt>
<trkpt lat="39.961037" lon="9.061668"><ele>350.05</ele><time>2022-01-03T18:46:02Z</time></trkpt>
<trkpt lat="39.961108" lon="9.061533"><ele>351.93</ele><time>2022-01-03T18:46:04Z</time></trkpt>
<trkpt lat="39.961243" lon="9.061407"><ele>352.71</ele><time>2022-01-03T18:46:06Z</time></trkpt>
<trkpt lat="39.961368" lon="9.061352"><ele>352.34</ele><time>2022-01-03T18:46:08Z</time></trkpt>
<trkpt lat="39.961536" lon="9.061344"><ele>351.51</ele><time>2022-01-03T18:46:09Z</time></trkpt>
<trkpt lat="39.961986" lon="9.061543"><ele>349.39</ele><time>2022-01-03T18:46:11Z</time></trkpt>
<trkpt lat="39.962282" lon="9.061535"><ele>350.31</ele><time>2022-01-03T18:46:13Z</time></trkpt>
<trkpt lat="39.962359" lon="9.061485"><ele>350.64</ele><time>2022-01-03T18:46:15Z</time></trkpt>
<trkpt lat="39.962384" lon="9.061398"><ele>351.34</ele><time>2022-01-03T18:46:16Z</time></trkpt>
<trkpt lat="39.962361" lon="9.061298"><ele>350.68</ele><time>2022-01-03T18:46:18Z</time></trkpt>
<trkpt lat="39.962271" lon="9.061227"><ele>350.93</ele><time>2022-01-03T18:46:20Z</time></trkpt>
<trkpt lat="39.962182" lon="9.061184"><ele>351.58</ele><time>2022-01-03T18:46:22Z</time></trkpt>
<trkpt lat="39.960424" lon="9.060632"><ele>375.55</ele><time>2022-01-03T18:46:23Z</time></trkpt>
<trkpt lat="39.960259" lon="9.060552"><ele>375.85</ele><time>2022-01-03T18:46:25Z</time></trkpt>
<trkpt lat="39.960105" lon="9.060408"><ele>376.26</ele><time>2022-01-03T18:46:27Z</time></trkpt>
<trkpt lat="39.959718" lon="9.059866"><ele>379.38</ele><time>2022-01-03T18:46:29Z</time></trkpt>
<trkpt lat="39.959567" lon="9.059601"><ele>382.39</ele><time>2022-01-03T18:46:30Z</time></trkpt>
<trkpt lat="39.959393" lon="9.059423"><ele>383.55</ele><time>2022-01-03T18:46:32Z</time></trkpt>
<trkpt lat="39.959039" lon="9.059134"><ele>388.07</ele><time>2022-01-03T18:46:34Z</time></trkpt>
<trkpt lat="39.958923" lon="9.059102"><ele>388.69</ele><time>2022-01-03T18:46:36Z</time></trkpt>
<trkpt lat="39.958831" lon="9.059138"><ele>389.53</ele><time>2022-01-03T18:46:38Z</time></trkpt>
<trkpt lat="39.95877" lon="9.059221"><ele>390.65</ele><time>2022-01-03T18:46:39Z</time></trkpt>
<trkpt lat="39.958727" lon="9.059356"><ele>391.9</ele><time>2022-01-03T18:46:41Z</time></trkpt>
<trkpt lat="39.95867" lon="9.059627"><ele>394.82</ele><time>2022-01-03T18:46:43Z</time></trkpt>
<trkpt lat="39.958658" lon="9.059831"><ele>396.92</ele><time>2022-01-03T18:46:45Z</time></trkpt>
<trkpt lat="39.958665" lon="9.060732"><ele>398.31</ele><time>2022-01-03T18:46:46Z</time></trkpt>
<trkpt lat="39.958642" lon="9.060969"><ele>397.36</ele><time>2022-01-03T18:46:48Z</time></trkpt>
<trkpt lat="39.958584" lon="9.06114"><ele>397.47</ele><time>2022-01-03T18:46:50Z</time></trkpt>
<trkpt lat="39.958377" lon="9.061498"><ele>398.33</ele><time>2022-01-03T18:46:52Z</time></trkpt>
<trkpt lat="39.95828" lon="9.061586"><ele>398.54</ele><time>2022-01-03T18:46:53Z</time></trkpt>
<trkpt lat="39.958206" lon="9.061588"><ele>399.05</ele><time>2022-01-03T18:46:55Z</time></trkpt>
<trkpt lat="39.958129" lon="9.061522"><ele>400.55</ele><time>2022-01-03T18:46:57Z</time></trkpt>
<trkpt lat="39.958061" lon="9.061358"><ele>403.3</ele><time>2022-01-03T18:46:59Z</time></trkpt>
<trkpt lat="39.957987" lon="9.061039"><ele>407.29</ele><time>2022-01-03T18:47:00Z</time></trkpt>
<trkpt lat="39.957895" lon="9.060837"><ele>410.93</ele><time>2022-01-03T18:47:02Z</time></trkpt>
<trkpt lat="39.957801" lon="9.060784"><ele>412.21</ele><time>2022-01-03T18:47:04Z</time></trkpt>
<trkpt lat="39.957683" lon="9.060772"><ele>414.51</ele><time>2022-01-03T18:47:06Z</time></trkpt>
<trkpt lat="39.957211" lon="9.061138"><ele>418.31</ele><time>2022-01-03T18:47:07Z</time></trkpt>
<trkpt lat="39.957043" lon="9.061227"><ele>417.49</ele><time>2022-01-03T18:47:09Z</time></trkpt>
<trkpt lat="39.956889" lon="9.061212"><ele>418.96</ele><time>2022-01-03T18:47:11Z</time></trkpt>
<trkpt lat="39.956402" lon="9.060831"><ele>428.12</ele><time>2022-01-03T18:47:13Z</time></trkpt>
<trkpt lat="39.956218" lon="9.060803"><ele>429.93</ele><time>2022-01-03T18:47:14Z</time></trkpt>
<trkpt lat="39.956069" lon="9.0609"><ele>429.94</ele><time>2022-01-03T18:47:16Z</time></trkpt>
<trkpt lat="39.956015" lon="9.061116"><ele>429.12</ele><time>2022-01-03T18:47:18Z</time></trkpt>
<trkpt lat="39.956077" lon="9.061754"><ele>432.39</ele><time>2022-01-03T18:47:20Z</time></trkpt>
<trkpt lat="39.956022" lon="9.062308"><ele>438.15</ele><time>2022-01-03T18:47:22Z</time></trkpt>
<trkpt lat="39.956038" lon="9.062565"><ele>438.94</ele><time>2022-01-03T18:47:23Z</time></trkpt>
<trkpt lat="39.956126" lon="9.062803"><ele>438.49</ele><time>2022-01-03T18:47:25Z</time></trkpt>
<trkpt lat="39.956264" lon="9.062997"><ele>441.23</ele><time>2022-01-03T18:47:27Z</time></trkpt>
<trkpt lat="39.956787" lon="9.063388"><ele>440.59</ele><time>2022-01-03T18:47:29Z</time></trkpt>
<trkpt lat="39.956925" lon="9.064023"><ele>441.14</ele><time>2022-01-03T18:47:30Z</time></trkpt>
<trkpt lat="39.956944" lon="9.064146"><ele>440.94</ele><time>2022-01-03T18:47:32Z</time></trkpt>
<trkpt lat="39.956923" lon="9.064241"><ele>441.62</ele><time>2022-01-03T18:47:34Z</time></trkpt>
<trkpt lat="39.956553" lon="9.064558"><ele>448.72</ele><time>2022-01-03T18:47:36Z</time></trkpt>
<trkpt lat="39.95627" lon="9.064968"><ele>450.45</ele><time>2022-01-03T18:47:37Z</time></trkpt>
<trkpt lat="39.956203" lon="9.065024"><ele>451.27</ele><time>2022-01-03T18:47:39Z</time></trkpt>
<trkpt lat="39.955894" lon="9.065176"><ele>456.59</ele><time>2022-01-03T18:47:41Z</time></trkpt>
<trkpt lat="39.955404" lon="9.065561"><ele>459.27</ele><time>2022-01-03T18:47:43Z</time></trkpt>
<trkpt lat="39.955293" lon="9.065625"><ele>460.51</ele><time>2022-01-03T18:47:44Z</time></trkpt>
<trkpt lat="39.955112" lon="9.065687"><ele>461.66</ele><time>2022-01-03T18:47:46Z</time></trkpt>
<trkpt lat="39.954836" lon="9.065749"><ele>465.51</ele><time>2022-01-03T18:47:48Z</time></trkpt>
<trkpt lat="39.954721" lon="9.065796"><ele>466.81</ele><time>2022-01-03T18:47:50Z</time></trkpt>
<trkpt lat="39.954432" lon="9.066102"><ele>468.5</ele><time>2022-01-03T18:47:51Z</time></trkpt>
<trkpt lat="39.954247" lon="9.066164"><ele>468.65</ele><time>2022-01-03T18:47:53Z</time></trkpt>
<trkpt lat="39.953927" lon="9.066156"><ele>469.04</ele><time>2022-01-03T18:47:55Z</time></trkpt>
<trkpt lat="39.953697" lon="9.066069"><ele>473.3</ele><time>2022-01-03T18:47:57Z</time></trkpt>
<trkpt lat="39.953445" lon="9.065869"><ele>480.34</ele><time>2022-01-03T18:47:58Z</time></trkpt>
<trkpt lat="39.953359" lon="9.065827"><ele>481.24</ele><time>2022-01-03T18:48:00Z</time></trkpt>
<trkpt lat="39.953245" lon="9.065839"><ele>481.51</ele><time>2022-01-03T18:48:02Z</time></trkpt>
<trkpt lat="39.953165" lon="9.065906"><ele>480.86</ele><time>2022-01-03T18:48:04Z</time></trkpt>
<trkpt lat="39.95311" lon="9.066005"><ele>479.77</ele><time>2022-01-03T18:48:06Z</time></trkpt>
<trkpt lat="39.952952" lon="9.066728"><ele>474.37</ele><time>2022-01-03T18:48:07Z</time></trkpt>
<trkpt lat="39.952909" lon="9.066837"><ele>473.98</ele><time>2022-01-03T18:48:09Z</time></trkpt>
<trkpt lat="39.952841" lon="9.066896"><ele>475.0</ele><time>2022-01-03T18:48:11Z</time></trkpt>
<trkpt lat="39.952634" lon="9.066954"><ele>481.01</ele><time>2022-01-03T18:48:13Z</time></trkpt>
<trkpt lat="39.952512" lon="9.067011"><ele>484.39</ele><time>2022-01-03T18:48:14Z</time></trkpt>
<trkpt lat="39.952418" lon="9.067129"><ele>486.53</ele><time>2022-01-03T18:48:16Z</time></trkpt>
<trkpt lat="39.952318" lon="9.067423"><ele>484.45</ele><time>2022-01-03T18:48:18Z</time></trkpt>
<trkpt lat="39.952218" lon="9.067592"><ele>483.85</ele><time>2022-01-03T18:48:20Z</time></trkpt>
<trkpt lat="39.952063" lon="9.067728"><ele>484.39</ele><time>2022-01-03T18:48:21Z</time></trkpt>
<trkpt lat="39.951581" lon="9.067984"><ele>498.3</ele><time>2022-01-03T18:48:23Z</time></trkpt>
<trkpt lat="39.951455" lon="9.068107"><ele>500.5</ele><time>2022-01-03T18:48:25Z</time></trkpt>
<trkpt lat="39.951408" lon="9.068198"><ele>500.07</ele><time>2022-01-03T18:48:27Z</time></trkpt>
<trkpt lat="39.951378" lon="9.068333"><ele>497.56</ele><time>2022-01-03T18:48:28Z</time></trkpt>
<trkpt lat="39.951438" lon="9.068848"><ele>494.44</ele><time>2022-01-03T18:48:30Z</time></trkpt>
<trkpt lat="39.951433" lon="9.069003"><ele>495.36</ele><time>2022-01-03T18:48:32Z</time></trkpt>
<trkpt lat="39.951391" lon="9.069177"><ele>497.89</ele><time>2022-01-03T18:48:34Z</time></trkpt>
<trkpt lat="39.951267" lon="9.06956"><ele>503.14</ele><time>2022-01-03T18:48:35Z</time></trkpt>
<trkpt lat="39.951017" lon="9.07014"><ele>507.24</ele><time>2022-01-03T18:48:37Z</time></trkpt>
<trkpt lat="39.950898" lon="9.070528"><ele>508.34</ele><time>2022-01-03T18:48:39Z</time></trkpt>
<trkpt lat="39.950844" lon="9.070653"><ele>509.16</ele><time>2022-01-03T18:48:41Z</time></trkpt>
<trkpt lat="39.95074" lon="9.07081"><ele>510.05</ele><time>2022-01-03T18:48:42Z</time></trkpt>
<trkpt lat="39.950369" lon="9.071264"><ele>514.05</ele><time>2022-01-03T18:48:44Z</time></trkpt>
<trkpt lat="39.950076" lon="9.071555"><ele>515.68</ele><time>2022-01-03T18:48:46Z</time></trkpt>
<trkpt lat="39.949965" lon="9.071635"><ele>516.59</ele><time>2022-01-03T18:48:48Z</time></trkpt>
<trkpt lat="39.949611" lon="9.071829"><ele>522.02</ele><time>2022-01-03T18:48:50Z</time></trkpt>
<trkpt lat="39.949562" lon="9.07189"><ele>522.5</ele><time>2022-01-03T18:48:51Z</time></trkpt>
<trkpt lat="39.94953" lon="9.072005"><ele>523.79</ele><time>2022-01-03T18:48:53Z</time></trkpt>
<trkpt lat="39.949547" lon="9.072104"><ele>525.18</ele><time>2022-01-03T18:48:55Z</time></trkpt>
<trkpt lat="39.949606" lon="9.072178"><ele>525.38</ele><time>2022-01-03T18:48:57Z</time></trkpt>
<trkpt lat="39.949745" lon="9.072301"><ele>525.31</ele><time>2022-01-03T18:48:58Z</time></trkpt>
<trkpt lat="39.950102" lon="9.072442"><ele>523.29</ele><time>2022-01-03T18:49:00Z</time></trkpt>
<trkpt lat="39.950513" lon="9.072472"><ele>527.0</ele><time>2022-01-03T18:49:02Z</time></trkpt>
<trkpt lat="39.951244" lon="9.072392"><ele>524.61</ele><time>2022-01-03T18:49:04Z</time></trkpt>
<trkpt lat="39.951298" lon="9.072406"><ele>524.3</ele><time>2022-01-03T18:49:05Z</time></trkpt>
<trkpt lat="39.95136" lon="9.072453"><ele>524.07</ele><time>2022-01-03T18:49:07Z</time></trkpt>
<trkpt lat="39.951385" lon="9.072513"><ele>524.16</ele><time>2022-01-03T18:49:09Z</time></trkpt>
<trkpt lat="39.951326" lon="9.072689"><ele>527.26</ele><time>2022-01-03T18:49:11Z</time></trkpt>
<trkpt lat="39.950938" lon="9.073472"><ele>539.24</ele><time>2022-01-03T18:49:12Z</time></trkpt>
<trkpt lat="39.950685" lon="9.073876"><ele>541.33</ele><time>2022-01-03T18:49:14Z</time></trkpt>
<trkpt lat="39.950535" lon="9.074272"><ele>544.86</ele><time>2022-01-03T18:49:16Z</time></trkpt>
<trkpt lat="39.95021" lon="9.074781"><ele>552.29</ele><time>2022-01-03T18:49:18Z</time></trkpt>
<trkpt lat="39.950136" lon="9.07485"><ele>552.43</ele><time>2022-01-03T18:49:19Z</time></trkpt>
<trkpt lat="39.950053" lon="9.074878"><ele>553.1</ele><time>2022-01-03T18:49:21Z</time></trkpt>
<trkpt lat="39.949788" lon="9.074868"><ele>556.2</ele><time>2022-01-03T18:49:23Z</time></trkpt>
<trkpt lat="39.94968" lon="9.074908"><ele>556.93</ele><time>2022-01-03T18:49:25Z</time></trkpt>
<trkpt lat="39.949625" lon="9.074961"><ele>556.96</ele><time>2022-01-03T18:49:26Z</time></trkpt>
<trkpt lat="39.949564" lon="9.075117"><ele>555.42</ele><time>2022-01-03T18:49:28Z</time></trkpt>
<trkpt lat="39.949492" lon="9.07523"><ele>554.86</ele><time>2022-01-03T18:49:30Z</time></trkpt>
<trkpt lat="39.949426" lon="9.075251"><ele>555.65</ele><time>2022-01-03T18:49:32Z</time></trkpt>
<trkpt lat="39.949349" lon="9.075225"><ele>557.2</ele><time>2022-01-03T18:49:34Z</time></trkpt>
<trkpt lat="39.949209" lon="9.075097"><ele>561.54</ele><time>2022-01-03T18:49:35Z</time></trkpt>
<trkpt lat="39.94914" lon="9.075074"><ele>563.02</ele><time>2022-01-03T18:49:37Z</time></trkpt>
<trkpt lat="39.949092" lon="9.075085"><ele>563.46</ele><time>2022-01-03T18:49:39Z</time></trkpt>
<trkpt lat="39.948728" lon="9.075403"><ele>561.03</ele><time>2022-01-03T18:49:41Z</time></trkpt>
<trkpt lat="39.948556" lon="9.075466"><ele>561.53</ele><time>2022-01-03T18:49:42Z</time></trkpt>
<trkpt lat="39.948464" lon="9.075421"><ele>563.5</ele><time>2022-01-03T18:49:44Z</time></trkpt>
<trkpt lat="39.94829" lon="9.075186"><ele>569.8</ele><time>2022-01-03T18:49:46Z</time></trkpt>
<trkpt lat="39.948214" lon="9.075117"><ele>571.32</ele><time>2022-01-03T18:49:48Z</time></trkpt>
<trkpt lat="39.948165" lon="9.075112"><ele>571.59</ele><time>2022-01-03T18:49:49Z</time></trkpt>
<trkpt lat="39.948024" lon="9.075185"><ele>571.21</ele><time>2022-01-03T18:49:51Z</time></trkpt>
<trkpt lat="39.947516" lon="9.075666"><ele>576.91</ele><time>2022-01-03T18:49:53Z</time></trkpt>
<trkpt lat="39.947309" lon="9.076018"><ele>576.25</ele><time>2022-01-03T18:49:55Z</time></trkpt>
<trkpt lat="39.94723" lon="9.076074"><ele>576.24</ele><time>2022-01-03T18:49:56Z</time></trkpt>
<trkpt lat="39.947174" lon="9.076063"><ele>575.92</ele><time>2022-01-03T18:49:58Z</time></trkpt>
<trkpt lat="39.947131" lon="9.076002"><ele>576.18</ele><time>2022-01-03T18:50:00Z</time></trkpt>
<trkpt lat="39.94712" lon="9.075893"><ele>577.33</ele><time>2022-01-03T18:50:02Z</time></trkpt>
<trkpt lat="39.94715" lon="9.075525"><ele>580.96</ele><time>2022-01-03T18:50:03Z</time></trkpt>
<trkpt lat="39.947119" lon="9.075423"><ele>581.58</ele><time>2022-01-03T18:50:05Z</time></trkpt>
<trkpt lat="39.947078" lon="9.075361"><ele>581.88</ele><time>2022-01-03T18:50:07Z</time></trkpt>
<trkpt lat="39.946778" lon="9.07517"><ele>583.01</ele><time>2022-01-03T18:50:09Z</time></trkpt>
<trkpt lat="39.946705" lon="9.075088"><ele>583.96</ele><time>2022-01-03T18:50:10Z</time></trkpt>
<trkpt lat="39.946675" lon="9.075015"><ele>584.81</ele><time>2022-01-03T18:50:12Z</time></trkpt>
<trkpt lat="39.946562" lon="9.074392"><ele>591.13</ele><time>2022-01-03T18:50:14Z</time></trkpt>
<trkpt lat="39.94642" lon="9.074197"><ele>593.56</ele><time>2022-01-03T18:50:16Z</time></trkpt>
<trkpt lat="39.945259" lon="9.072967"><ele>595.82</ele><time>2022-01-03T18:50:18Z</time></trkpt>
<trkpt lat="39.945111" lon="9.072865"><ele>597.76</ele><time>2022-01-03T18:50:19Z</time></trkpt>
<trkpt lat="39.945028" lon="9.072842"><ele>598.54</ele><time>2022-01-03T18:50:21Z</time></trkpt>
<trkpt lat="39.944878" lon="9.072836"><ele>599.67</ele><time>2022-01-03T18:50:23Z</time></trkpt>
<trkpt lat="39.944722" lon="9.073191"><ele>600.49</ele><time>2022-01-03T18:50:25Z</time></trkpt>
<trkpt lat="39.944699" lon="9.073413"><ele>601.56</ele><time>2022-01-03T18:50:26Z</time></trkpt>
<trkpt lat="39.944708" lon="9.073676"><ele>602.43</ele><time>2022-01-03T18:50:28Z</time></trkpt>
<trkpt lat="39.944734" lon="9.074062"><ele>603.99</ele><time>2022-01-03T18:50:29Z</time></trkpt>
<trkpt lat="39.944791" lon="9.074284"><ele>603.38</ele><time>2022-01-03T18:50:31Z</time></trkpt>
<trkpt lat="39.944974" lon="9.074841"><ele>598.32</ele><time>2022-01-03T18:50:32Z</time></trkpt>
<trkpt lat="39.945005" lon="9.075186"><ele>596.25</ele><time>2022-01-03T18:50:34Z</time></trkpt>
<trkpt lat="39.944993" lon="9.075301"><ele>596.12</ele><time>2022-01-03T18:50:35Z</time></trkpt>
<trkpt lat="39.944915" lon="9.075525"><ele>596.74</ele><time>2022-01-03T18:50:37Z</time></trkpt>
<trkpt lat="39.944825" lon="9.07564"><ele>597.24</ele><time>2022-01-03T18:50:38Z</time></trkpt>
<trkpt lat="39.94466" lon="9.075727"><ele>599.3</ele><time>2022-01-03T18:50:40Z</time></trkpt>
<trkpt lat="39.944158" lon="9.075939"><ele>602.94</ele><time>2022-01-03T18:50:41Z</time></trkpt>
<trkpt lat="39.944033" lon="9.076051"><ele>604.04</ele><time>2022-01-03T18:50:43Z</time></trkpt>
<trkpt lat="39.943958" lon="9.076241"><ele>602.66</ele><time>2022-01-03T18:50:45Z</time></trkpt>
<trkpt lat="39.943918" lon="9.07642"><ele>601.02</ele><time>2022-01-03T18:50:46Z</time></trkpt>
<trkpt lat="39.943899" lon="9.076743"><ele>600.93</ele><time>2022-01-03T18:50:48Z</time></trkpt>
<trkpt lat="39.943922" lon="9.07694"><ele>600.9</ele><time>2022-01-03T18:50:49Z</time></trkpt>
<trkpt lat="39.944027" lon="9.077256"><ele>599.13</ele><time>2022-01-03T18:50:51Z</time></trkpt>
<trkpt lat="39.944071" lon="9.077455"><ele>598.86</ele><time>2022-01-03T18:50:52Z</time></trkpt>
<trkpt lat="39.944074" lon="9.077672"><ele>599.63</ele><time>2022-01-03T18:50:54Z</time></trkpt>
<trkpt lat="39.944024" lon="9.077885"><ele>599.57</ele><time>2022-01-03T18:50:55Z</time></trkpt>
<trkpt lat="39.94391" lon="9.078048"><ele>599.75</ele><time>2022-01-03T18:50:57Z</time></trkpt>
<trkpt lat="39.943649" lon="9.078249"><ele>604.83</ele><time>2022-01-03T18:50:58Z</time></trkpt>
<trkpt lat="39.943392" lon="9.078495"><ele>608.65</ele><time>2022-01-03T18:51:00Z</time></trkpt>
<trkpt lat="39.942831" lon="9.079363"><ele>615.49</ele><time>2022-01-03T18:51:01Z</time></trkpt>
<trkpt lat="39.942679" lon="9.079675"><ele>616.83</ele><time>2022-01-03T18:51:03Z</time></trkpt>
<trkpt lat="39.942664" lon="9.079764"><ele>617.32</ele><time>2022-01-03T18:51:05Z</time></trkpt>
<trkpt lat="39.942673" lon="9.079845"><ele>617.67</ele><time>2022-01-03T18:51:06Z</time></trkpt>
<trkpt lat="39.942749" lon="9.080056"><ele>617.14</ele><time>2022-01-03T18:51:08Z</time></trkpt>
<trkpt lat="39.94302" lon="9.080678"><ele>617.61</ele><time>2022-01-03T18:51:09Z</time></trkpt>
<trkpt lat="39.943313" lon="9.081082"><ele>617.05</ele><time>2022-01-03T18:51:11Z</time></trkpt>
<trkpt lat="39.943372" lon="9.081191"><ele>617.02</ele><time>2022-01-03T18:51:12Z</time></trkpt>
<trkpt lat="39.943425" lon="9.081408"><ele>617.74</ele><time>2022-01-03T18:51:14Z</time></trkpt>
<trkpt lat="39.943428" lon="9.081623"><ele>618.48</ele><time>2022-01-03T18:51:15Z</time></trkpt>
<trkpt lat="39.943342" lon="9.082001"><ele>618.27</ele><time>2022-01-03T18:51:17Z</time></trkpt>
<trkpt lat="39.943268" lon="9.082145"><ele>618.08</ele><time>2022-01-03T18:51:18Z</time></trkpt>
<trkpt lat="39.943187" lon="9.082213"><ele>618.76</ele><time>2022-01-03T18:51:20Z</time></trkpt>
<trkpt lat="39.943057" lon="9.082267"><ele>620.17</ele><time>2022-01-03T18:51:22Z</time></trkpt>
<trkpt lat="39.942952" lon="9.082372"><ele>620.52</ele><time>2022-01-03T18:51:23Z</time></trkpt>
<trkpt lat="39.942789" lon="9.082667"><ele>617.21</ele><time>2022-01-03T18:51:25Z</time></trkpt>
<trkpt lat="39.942714" lon="9.082747"><ele>615.95</ele><time>2022-01-03T18:51:26Z</time></trkpt>
<trkpt lat="39.942627" lon="9.082806"><ele>614.79</ele><time>2022-01-03T18:51:28Z</time></trkpt>
<trkpt lat="39.942232" lon="9.08278"><ele>616.9</ele><time>2022-01-03T18:51:29Z</time></trkpt>
<trkpt lat="39.942131" lon="9.082819"><ele>614.88</ele><time>2022-01-03T18:51:31Z</time></trkpt>
<trkpt lat="39.942042" lon="9.082881"><ele>613.01</ele><time>2022-01-03T18:51:32Z</time></trkpt>
<trkpt lat="39.941896" lon="9.083076"><ele>609.89</ele><time>2022-01-03T18:51:34Z</time></trkpt>
<trkpt lat="39.941778" lon="9.083342"><ele>606.4</ele><time>2022-01-03T18:51:35Z</time></trkpt>
<trkpt lat="39.941732" lon="9.083578"><ele>606.23</ele><time>2022-01-03T18:51:37Z</time></trkpt>
<trkpt lat="39.94173" lon="9.083767"><ele>607.65</ele><time>2022-01-03T18:51:38Z</time></trkpt>
<trkpt lat="39.941765" lon="9.084396"><ele>615.06</ele><time>2022-01-03T18:51:40Z</time></trkpt>
<trkpt lat="39.941741" lon="9.084687"><ele>616.96</ele><time>2022-01-03T18:51:42Z</time></trkpt>
<trkpt lat="39.941635" lon="9.085074"><ele>619.19</ele><time>2022-01-03T18:51:43Z</time></trkpt>
<trkpt lat="39.941525" lon="9.085336"><ele>619.51</ele><time>2022-01-03T18:51:45Z</time></trkpt>
<trkpt lat="39.941442" lon="9.085424"><ele>619.48</ele><time>2022-01-03T18:51:46Z</time></trkpt>
<trkpt lat="39.940987" lon="9.085731"><ele>621.73</ele><time>2022-01-03T18:51:48Z</time></trkpt>
<trkpt lat="39.940879" lon="9.085878"><ele>621.84</ele><time>2022-01-03T18:51:49Z</time></trkpt>
<trkpt lat="39.940774" lon="9.086117"><ele>621.42</ele><time>2022-01-03T18:51:51Z</time></trkpt>
<trkpt lat="39.940695" lon="9.086552"><ele>618.43</ele><time>2022-01-03T18:51:52Z</time></trkpt>
<trkpt lat="39.94063" lon="9.086679"><ele>618.72</ele><time>2022-01-03T18:51:54Z</time></trkpt>
<trkpt lat="39.940506" lon="9.086825"><ele>620.71</ele><time>2022-01-03T18:51:55Z</time></trkpt>
<trkpt lat="39.940275" lon="9.087003"><ele>625.64</ele><time>2022-01-03T18:51:57Z</time></trkpt>
<trkpt lat="39.94019" lon="9.087159"><ele>626.41</ele><time>2022-01-03T18:51:58Z</time></trkpt>
<trkpt lat="39.939917" lon="9.088135"><ele>619.55</ele><time>2022-01-03T18:52:00Z</time></trkpt>
<trkpt lat="39.939823" lon="9.08836"><ele>618.32</ele><time>2022-01-03T18:52:02Z</time></trkpt>
<trkpt lat="39.93975" lon="9.088427"><ele>618.45</ele><time>2022-01-03T18:52:03Z</time></trkpt>
<trkpt lat="39.939666" lon="9.088454"><ele>619.44</ele><time>2022-01-03T18:52:05Z</time></trkpt>
<trkpt lat="39.939279" lon="9.088535"><ele>623.75</ele><time>2022-01-03T18:52:06Z</time></trkpt>
<trkpt lat="39.939071" lon="9.088655"><ele>624.26</ele><time>2022-01-03T18:52:08Z</time></trkpt>
<trkpt lat="39.93892" lon="9.088783"><ele>625.38</ele><time>2022-01-03T18:52:09Z</time></trkpt>
<trkpt lat="39.938795" lon="9.088923"><ele>626.34</ele><time>2022-01-03T18:52:11Z</time></trkpt>
<trkpt lat="39.938521" lon="9.089358"><ele>623.73</ele><time>2022-01-03T18:52:12Z</time></trkpt>
<trkpt lat="39.938447" lon="9.08944"><ele>622.88</ele><time>2022-01-03T18:52:14Z</time></trkpt>
<trkpt lat="39.938266" lon="9.089516"><ele>622.85</ele><time>2022-01-03T18:52:15Z</time></trkpt>
<trkpt lat="39.937371" lon="9.089434"><ele>632.14</ele><time>2022-01-03T18:52:17Z</time></trkpt>
<trkpt lat="39.937269" lon="9.08947"><ele>633.43</ele><time>2022-01-03T18:52:18Z</time></trkpt>
<trkpt lat="39.937198" lon="9.089545"><ele>633.34</ele><time>2022-01-03T18:52:20Z</time></trkpt>
<trkpt lat="39.937134" lon="9.089646"><ele>632.92</ele><time>2022-01-03T18:52:22Z</time></trkpt>
<trkpt lat="39.937082" lon="9.089781"><ele>632.63</ele><time>2022-01-03T18:52:23Z</time></trkpt>
<trkpt lat="39.937065" lon="9.089923"><ele>632.28</ele><time>2022-01-03T18:52:25Z</time></trkpt>
<trkpt lat="39.937069" lon="9.090033"><ele>631.81</ele><time>2022-01-03T18:52:26Z</time></trkpt>
<trkpt lat="39.937209" lon="9.090652"><ele>625.4</ele><time>2022-01-03T18:52:28Z</time></trkpt>
<trkpt lat="39.937229" lon="9.090848"><ele>623.63</ele><time>2022-01-03T18:52:29Z</time></trkpt>
<trkpt lat="39.93721" lon="9.09099"><ele>624.67</ele><time>2022-01-03T18:52:31Z</time></trkpt>
<trkpt lat="39.937078" lon="9.091451"><ele>628.08</ele><time>2022-01-03T18:52:32Z</time></trkpt>
<trkpt lat="39.936919" lon="9.092197"><ele>624.49</ele><time>2022-01-03T18:52:34Z</time></trkpt>
<trkpt lat="39.936821" lon="9.092408"><ele>624.7</ele><time>2022-01-03T18:52:35Z</time></trkpt>
<trkpt lat="39.93662" lon="9.092754"><ele>622.69</ele><time>2022-01-03T18:52:37Z</time></trkpt>
<trkpt lat="39.936535" lon="9.092806"><ele>623.19</ele><time>2022-01-03T18:52:39Z</time></trkpt>
<trkpt lat="39.936124" lon="9.092826"><ele>629.6</ele><time>2022-01-03T18:52:40Z</time></trkpt>
<trkpt lat="39.935904" lon="9.092887"><ele>630.93</ele><time>2022-01-03T18:52:42Z</time></trkpt>
<trkpt lat="39.935589" lon="9.093091"><ele>629.72</ele><time>2022-01-03T18:52:43Z</time></trkpt>
<trkpt lat="39.935263" lon="9.093443"><ele>625.6</ele><time>2022-01-03T18:52:45Z</time></trkpt>
<trkpt lat="39.935201" lon="9.093491"><ele>624.67</ele><time>2022-01-03T18:52:46Z</time></trkpt>
<trkpt lat="39.935134" lon="9.093514"><ele>624.53</ele><time>2022-01-03T18:52:48Z</time></trkpt>
<trkpt lat="39.934854" lon="9.093509"><ele>626.55</ele><time>2022-01-03T18:52:49Z</time></trkpt>
<trkpt lat="39.934715" lon="9.093536"><ele>626.04</ele><time>2022-01-03T18:52:51Z</time></trkpt>
<trkpt lat="39.933976" lon="9.093794"><ele>628.53</ele><time>2022-01-03T18:52:52Z</time></trkpt>
<trkpt lat="39.933457" lon="9.094256"><ele>622.47</ele><time>2022-01-03T18:52:54Z</time></trkpt>
<trkpt lat="39.933334" lon="9.094302"><ele>621.6</ele><time>2022-01-03T18:52:55Z</time></trkpt>
<trkpt lat="39.933064" lon="9.094325"><ele>621.28</ele><time>2022-01-03T18:52:57Z</time></trkpt>
<trkpt lat="39.93293" lon="9.094289"><ele>621.23</ele><time>2022-01-03T18:52:59Z</time></trkpt>
<trkpt lat="39.932562" lon="9.094073"><ele>619.26</ele><time>2022-01-03T18:53:00Z</time></trkpt>
<trkpt lat="39.932448" lon="9.094047"><ele>618.19</ele><time>2022-01-03T18:53:02Z</time></trkpt>
<trkpt lat="39.932268" lon="9.094048"><ele>616.91</ele><time>2022-01-03T18:53:03Z</time></trkpt>
<trkpt lat="39.931653" lon="9.094174"><ele>619.3</ele><time>2022-01-03T18:53:05Z</time></trkpt>
<trkpt lat="39.931365" lon="9.094152"><ele>625.32</ele><time>2022-01-03T18:53:06Z</time></trkpt>
<trkpt lat="39.931178" lon="9.094099"><ele>629.17</ele><time>2022-01-03T18:53:08Z</time></trkpt>
<trkpt lat="39.930971" lon="9.093988"><ele>631.19</ele><time>2022-01-03T18:53:09Z</time></trkpt>
<trkpt lat="39.930708" lon="9.093768"><ele>631.91</ele><time>2022-01-03T18:53:11Z</time></trkpt>
<trkpt lat="39.930553" lon="9.093697"><ele>633.5</ele><time>2022-01-03T18:53:12Z</time></trkpt>
<trkpt lat="39.930344" lon="9.093676"><ele>635.52</ele><time>2022-01-03T18:53:14Z</time></trkpt>
<trkpt lat="39.930214" lon="9.093699"><ele>636.87</ele><time>2022-01-03T18:53:15Z</time></trkpt>
<trkpt lat="39.929974" lon="9.093869"><ele>641.39</ele><time>2022-01-03T18:53:17Z</time></trkpt>
<trkpt lat="39.92982" lon="9.093906"><ele>642.4</ele><time>2022-01-03T18:53:19Z</time></trkpt>
<trkpt lat="39.929619" lon="9.093907"><ele>643.13</ele><time>2022-01-03T18:53:20Z</time></trkpt>
<trkpt lat="39.929535" lon="9.093868"><ele>643.03</ele><time>2022-01-03T18:53:22Z</time></trkpt>
<trkpt lat="39.929493" lon="9.093808"><ele>642.43</ele><time>2022-01-03T18:53:23Z</time></trkpt>
<trkpt lat="39.929399" lon="9.093539"><ele>639.63</ele><time>2022-01-03T18:53:25Z</time></trkpt>
<trkpt lat="39.929333" lon="9.0934"><ele>638.31</ele><time>2022-01-03T18:53:26Z</time></trkpt>
<trkpt lat="39.929278" lon="9.093371"><ele>638.16</ele><time>2022-01-03T18:53:28Z</time></trkpt>
<trkpt lat="39.929138" lon="9.093358"><ele>638.57</ele><time>2022-01-03T18:53:29Z</time></trkpt>
<trkpt lat="39.928615" lon="9.093409"><ele>641.9</ele><time>2022-01-03T18:53:31Z</time></trkpt>
<trkpt lat="39.928426" lon="9.093462"><ele>641.86</ele><time>2022-01-03T18:53:32Z</time></trkpt>
<trkpt lat="39.927943" lon="9.093756"><ele>643.86</ele><time>2022-01-03T18:53:34Z</time></trkpt>
<trkpt lat="39.92776" lon="9.09394"><ele>647.36</ele><time>2022-01-03T18:53:35Z</time></trkpt>
<trkpt lat="39.927624" lon="9.094155"><ele>653.08</ele><time>2022-01-03T18:53:37Z</time></trkpt>
<trkpt lat="39.927572" lon="9.094199"><ele>654.1</ele><time>2022-01-03T18:53:39Z</time></trkpt>
<trkpt lat="39.927477" lon="9.09423"><ele>654.42</ele><time>2022-01-03T18:53:40Z</time></trkpt>
<trkpt lat="39.927101" lon="9.094119"><ele>649.16</ele><time>2022-01-03T18:53:42Z</time></trkpt>
<trkpt lat="39.926996" lon="9.094102"><ele>648.99</ele><time>2022-01-03T18:53:43Z</time></trkpt>
<trkpt lat="39.926894" lon="9.09412"><ele>649.84</ele><time>2022-01-03T18:53:45Z</time></trkpt>
<trkpt lat="39.926659" lon="9.094237"><ele>653.49</ele><time>2022-01-03T18:53:46Z</time></trkpt>
<trkpt lat="39.926436" lon="9.094419"><ele>655.19</ele><time>2022-01-03T18:53:48Z</time></trkpt>
<trkpt lat="39.926356" lon="9.094449"><ele>655.61</ele><time>2022-01-03T18:53:49Z</time></trkpt>
<trkpt lat="39.926218" lon="9.09443"><ele>657.27</ele><time>2022-01-03T18:53:51Z</time></trkpt>
<trkpt lat="39.926094" lon="9.094329"><ele>657.77</ele><time>2022-01-03T18:53:52Z</time></trkpt>
<trkpt lat="39.925903" lon="9.09406"><ele>657.83</ele><time>2022-01-03T18:53:54Z</time></trkpt>
<trkpt lat="39.92582" lon="9.093991"><ele>657.79</ele><time>2022-01-03T18:53:56Z</time></trkpt>
<trkpt lat="39.925619" lon="9.093949"><ele>659.77</ele><time>2022-01-03T18:53:57Z</time></trkpt>
<trkpt lat="39.925514" lon="9.093964"><ele>661.39</ele><time>2022-01-03T18:53:59Z</time></trkpt>
<trkpt lat="39.925319" lon="9.094056"><ele>664.48</ele><time>2022-01-03T18:54:00Z</time></trkpt>
<trkpt lat="39.925272" lon="9.094047"><ele>664.44</ele><time>2022-01-03T18:54:02Z</time></trkpt>
<trkpt lat="39.925173" lon="9.093987"><ele>663.74</ele><time>2022-01-03T18:54:03Z</time></trkpt>
<trkpt lat="39.92507" lon="9.093861"><ele>661.75</ele><time>2022-01-03T18:54:05Z</time></trkpt>
<trkpt lat="39.924959" lon="9.093815"><ele>661.33</ele><time>2022-01-03T18:54:06Z</time></trkpt>
<trkpt lat="39.924871" lon="9.09381"><ele>661.6</ele><time>2022-01-03T18:54:08Z</time></trkpt>
<trkpt lat="39.92466" lon="9.093903"><ele>663.17</ele><time>2022-01-03T18:54:09Z</time></trkpt>
<trkpt lat="39.924542" lon="9.094005"><ele>663.27</ele><time>2022-01-03T18:54:11Z</time></trkpt>
<trkpt lat="39.924437" lon="9.094189"><ele>665.03</ele><time>2022-01-03T18:54:12Z</time></trkpt>
<trkpt lat="39.924393" lon="9.094503"><ele>668.63</ele><time>2022-01-03T18:54:14Z</time></trkpt>
<trkpt lat="39.92435" lon="9.094635"><ele>670.41</ele><time>2022-01-03T18:54:16Z</time></trkpt>
<trkpt lat="39.924296" lon="9.094731"><ele>670.9</ele><time>2022-01-03T18:54:17Z</time></trkpt>
<trkpt lat="39.923686" lon="9.095629"><ele>673.67</ele><time>2022-01-03T18:54:19Z</time></trkpt>
<trkpt lat="39.923537" lon="9.095767"><ele>671.91</ele><time>2022-01-03T18:54:20Z</time></trkpt>
<trkpt lat="39.923276" lon="9.096252"><ele>680.22</ele><time>2022-01-03T18:54:22Z</time></trkpt>
<trkpt lat="39.923194" lon="9.096337"><ele>681.53</ele><time>2022-01-03T18:54:23Z</time></trkpt>
<trkpt lat="39.923106" lon="9.096401"><ele>681.76</ele><time>2022-01-03T18:54:25Z</time></trkpt>
<trkpt lat="39.923014" lon="9.096431"><ele>680.83</ele><time>2022-01-03T18:54:26Z</time></trkpt>
<trkpt lat="39.922661" lon="9.096448"><ele>676.18</ele><time>2022-01-03T18:54:28Z</time></trkpt>
<trkpt lat="39.922434" lon="9.09648"><ele>675.64</ele><time>2022-01-03T18:54:29Z</time></trkpt>
<trkpt lat="39.922364" lon="9.096538"><ele>676.95</ele><time>2022-01-03T18:54:31Z</time></trkpt>
<trkpt lat="39.922225" lon="9.0967"><ele>681.61</ele><time>2022-01-03T18:54:32Z</time></trkpt>
<trkpt lat="39.922075" lon="9.096832"><ele>684.23</ele><time>2022-01-03T18:54:34Z</time></trkpt>
<trkpt lat="39.921754" lon="9.096966"><ele>683.65</ele><time>2022-01-03T18:54:36Z</time></trkpt>
<trkpt lat="39.920806" lon="9.097513"><ele>687.61</ele><time>2022-01-03T18:54:37Z</time></trkpt>
<trkpt lat="39.920565" lon="9.09763"><ele>682.64</ele><time>2022-01-03T18:54:39Z</time></trkpt>
<trkpt lat="39.920518" lon="9.097691"><ele>682.3</ele><time>2022-01-03T18:54:40Z</time></trkpt>
<trkpt lat="39.920439" lon="9.097865"><ele>683.51</ele><time>2022-01-03T18:54:42Z</time></trkpt>
<trkpt lat="39.920396" lon="9.098078"><ele>686.47</ele><time>2022-01-03T18:54:43Z</time></trkpt>
<trkpt lat="39.920396" lon="9.098331"><ele>692.47</ele><time>2022-01-03T18:54:45Z</time></trkpt>
<trkpt lat="39.920457" lon="9.098611"><ele>699.4</ele><time>2022-01-03T18:54:46Z</time></trkpt>
<trkpt lat="39.92047" lon="9.098752"><ele>702.13</ele><time>2022-01-03T18:54:48Z</time></trkpt>
<trkpt lat="39.920425" lon="9.098985"><ele>705.02</ele><time>2022-01-03T18:54:49Z</time></trkpt>
<trkpt lat="39.920367" lon="9.099096"><ele>705.61</ele><time>2022-01-03T18:54:51Z</time></trkpt>
<trkpt lat="39.920191" lon="9.099221"><ele>704.01</ele><time>2022-01-03T18:54:52Z</time></trkpt>
<trkpt lat="39.919561" lon="9.099195"><ele>694.59</ele><time>2022-01-03T18:54:54Z</time></trkpt>
<trkpt lat="39.919465" lon="9.099242"><ele>694.42</ele><time>2022-01-03T18:54:56Z</time></trkpt>
<trkpt lat="39.919382" lon="9.099313"><ele>695.22</ele><time>2022-01-03T18:54:57Z</time></trkpt>
<trkpt lat="39.919096" lon="9.099996"><ele>708.86</ele><time>2022-01-03T18:54:59Z</time></trkpt>
<trkpt lat="39.919048" lon="9.100059"><ele>710.41</ele><time>2022-01-03T18:55:00Z</time></trkpt>
<trkpt lat="39.91895" lon="9.100109"><ele>710.79</ele><time>2022-01-03T18:55:02Z</time></trkpt>
<trkpt lat="39.917925" lon="9.099918"><ele>704.48</ele><time>2022-01-03T18:55:03Z</time></trkpt>
<trkpt lat="39.917726" lon="9.100018"><ele>704.29</ele><time>2022-01-03T18:55:05Z</time></trkpt>
<trkpt lat="39.917293" lon="9.100418"><ele>716.94</ele><time>2022-01-03T18:55:06Z</time></trkpt>
<trkpt lat="39.916842" lon="9.100665"><ele>718.54</ele><time>2022-01-03T18:55:08Z</time></trkpt>
<trkpt lat="39.91677" lon="9.100733"><ele>718.98</ele><time>2022-01-03T18:55:09Z</time></trkpt>
<trkpt lat="39.916688" lon="9.100759"><ele>719.33</ele><time>2022-01-03T18:55:11Z</time></trkpt>
<trkpt lat="39.916623" lon="9.100738"><ele>719.59</ele><time>2022-01-03T18:55:13Z</time></trkpt>
<trkpt lat="39.916557" lon="9.100664"><ele>719.99</ele><time>2022-01-03T18:55:14Z</time></trkpt>
<trkpt lat="39.916503" lon="9.100491"><ele>721.04</ele><time>2022-01-03T18:55:16Z</time></trkpt>
<trkpt lat="39.916494" lon="9.100411"><ele>721.9</ele><time>2022-01-03T18:55:17Z</time></trkpt>
<trkpt lat="39.916521" lon="9.100282"><ele>722.16</ele><time>2022-01-03T18:55:19Z</time></trkpt>
<trkpt lat="39.916749" lon="9.099714"><ele>718.4</ele><time>2022-01-03T18:55:20Z</time></trkpt>
<trkpt lat="39.916795" lon="9.099435"><ele>715.75</ele><time>2022-01-03T18:55:22Z</time></trkpt>
<trkpt lat="39.916797" lon="9.099228"><ele>714.07</ele><time>2022-01-03T18:55:23Z</time></trkpt>
<trkpt lat="39.916779" lon="9.099145"><ele>713.6</ele><time>2022-01-03T18:55:25Z</time></trkpt>
<trkpt lat="39.916699" lon="9.099057"><ele>713.26</ele><time>2022-01-03T18:55:26Z</time></trkpt>
<trkpt lat="39.916596" lon="9.099069"><ele>713.4</ele><time>2022-01-03T18:55:28Z</time></trkpt>
<trkpt lat="39.916143" lon="9.099494"><ele>725.33</ele><time>2022-01-03T18:55:29Z</time></trkpt>
<trkpt lat="39.916023" lon="9.099582"><ele>726.67</ele><time>2022-01-03T18:55:31Z</time></trkpt>
<trkpt lat="39.915725" lon="9.0996"><ele>724.92</ele><time>2022-01-03T18:55:33Z</time></trkpt>
<trkpt lat="39.915437" lon="9.09966"><ele>723.09</ele><time>2022-01-03T18:55:34Z</time></trkpt>
<trkpt lat="39.915251" lon="9.099725"><ele>720.4</ele><time>2022-01-03T18:55:36Z</time></trkpt>
<trkpt lat="39.915079" lon="9.099811"><ele>719.11</ele><time>2022-01-03T18:55:37Z</time></trkpt>
<trkpt lat="39.914968" lon="9.099901"><ele>719.91</ele><time>2022-01-03T18:55:39Z</time></trkpt>
<trkpt lat="39.914862" lon="9.100019"><ele>721.96</ele><time>2022-01-03T18:55:40Z</time></trkpt>
<trkpt lat="39.91453" lon="9.100524"><ele>726.49</ele><time>2022-01-03T18:55:42Z</time></trkpt>
<trkpt lat="39.914003" lon="9.101017"><ele>725.7</ele><time>2022-01-03T18:55:43Z</time></trkpt>
<trkpt lat="39.913868" lon="9.101233"><ele>724.35</ele><time>2022-01-03T18:55:45Z</time></trkpt>
<trkpt lat="39.91372" lon="9.101713"><ele>727.41</ele><time>2022-01-03T18:55:46Z</time></trkpt>
<trkpt lat="39.913672" lon="9.10179"><ele>728.1</ele><time>2022-01-03T18:55:48Z</time></trkpt>
<trkpt lat="39.913581" lon="9.101883"><ele>728.05</ele><time>2022-01-03T18:55:49Z</time></trkpt>
<trkpt lat="39.913483" lon="9.10195"><ele>727.36</ele><time>2022-01-03T18:55:51Z</time></trkpt>
<trkpt lat="39.913029" lon="9.102191"><ele>724.82</ele><time>2022-01-03T18:55:53Z</time></trkpt>
<trkpt lat="39.912926" lon="9.102263"><ele>724.48</ele><time>2022-01-03T18:55:54Z</time></trkpt>
<trkpt lat="39.912844" lon="9.102359"><ele>724.51</ele><time>2022-01-03T18:55:56Z</time></trkpt>
<trkpt lat="39.912774" lon="9.10248"><ele>724.56</ele><time>2022-01-03T18:55:57Z</time></trkpt>
<trkpt lat="39.912737" lon="9.10259"><ele>723.79</ele><time>2022-01-03T18:55:59Z</time></trkpt>
<trkpt lat="39.912715" lon="9.102738"><ele>723.63</ele><time>2022-01-03T18:56:00Z</time></trkpt>
<trkpt lat="39.912713" lon="9.10291"><ele>723.87</ele><time>2022-01-03T18:56:02Z</time></trkpt>
<trkpt lat="39.912791" lon="9.103792"><ele>727.97</ele><time>2022-01-03T18:56:03Z</time></trkpt>
<trkpt lat="39.912911" lon="9.104263"><ele>736.01</ele><time>2022-01-03T18:56:05Z</time></trkpt>
<trkpt lat="39.912887" lon="9.104444"><ele>734.53</ele><time>2022-01-03T18:56:06Z</time></trkpt>
<trkpt lat="39.912686" lon="9.104806"><ele>729.49</ele><time>2022-01-03T18:56:08Z</time></trkpt>
<trkpt lat="39.912653" lon="9.104932"><ele>729.11</ele><time>2022-01-03T18:56:09Z</time></trkpt>
<trkpt lat="39.912644" lon="9.105073"><ele>730.02</ele><time>2022-01-03T18:56:11Z</time></trkpt>
<trkpt lat="39.912608" lon="9.105239"><ele>730.04</ele><time>2022-01-03T18:56:13Z</time></trkpt>
<trkpt lat="39.912548" lon="9.105371"><ele>729.99</ele><time>2022-01-03T18:56:14Z</time></trkpt>
<trkpt lat="39.912225" lon="9.105699"><ele>726.24</ele><time>2022-01-03T18:56:16Z</time></trkpt>
<trkpt lat="39.911948" lon="9.10623"><ele>728.13</ele><time>2022-01-03T18:56:17Z</time></trkpt>
<trkpt lat="39.911179" lon="9.107318"><ele>724.18</ele><time>2022-01-03T18:56:19Z</time></trkpt>
<trkpt lat="39.910977" lon="9.107647"><ele>722.51</ele><time>2022-01-03T18:56:20Z</time></trkpt>
<trkpt lat="39.910952" lon="9.107802"><ele>722.49</ele><time>2022-01-03T18:56:22Z</time></trkpt>
<trkpt lat="39.911" lon="9.108074"><ele>723.87</ele><time>2022-01-03T18:56:23Z</time></trkpt>
<trkpt lat="39.911109" lon="9.10821"><ele>725.58</ele><time>2022-01-03T18:56:25Z</time></trkpt>
<trkpt lat="39.911357" lon="9.108227"><ele>730.2</ele><time>2022-01-03T18:56:26Z</time></trkpt>
<trkpt lat="39.911575" lon="9.108346"><ele>728.35</ele><time>2022-01-03T18:56:28Z</time></trkpt>
<trkpt lat="39.911786" lon="9.108362"><ele>729.97</ele><time>2022-01-03T18:56:30Z</time></trkpt>
<trkpt lat="39.911879" lon="9.108392"><ele>729.82</ele><time>2022-01-03T18:56:31Z</time></trkpt>
<trkpt lat="39.912251" lon="9.108662"><ele>726.27</ele><time>2022-01-03T18:56:33Z</time></trkpt>
<trkpt lat="39.912295" lon="9.108749"><ele>725.11</ele><time>2022-01-03T18:56:34Z</time></trkpt>
<trkpt lat="39.912314" lon="9.108939"><ele>721.44</ele><time>2022-01-03T18:56:36Z</time></trkpt>
<trkpt lat="39.912228" lon="9.109603"><ele>713.08</ele><time>2022-01-03T18:56:37Z</time></trkpt>
<trkpt lat="39.912219" lon="9.109699"><ele>712.03</ele><time>2022-01-03T18:56:39Z</time></trkpt>
<trkpt lat="39.912239" lon="9.109743"><ele>712.14</ele><time>2022-01-03T18:56:40Z</time></trkpt>
<trkpt lat="39.912288" lon="9.109806"><ele>712.35</ele><time>2022-01-03T18:56:42Z</time></trkpt>
<trkpt lat="39.912361" lon="9.109855"><ele>713.41</ele><time>2022-01-03T18:56:43Z</time></trkpt>
<trkpt lat="39.912725" lon="9.11001"><ele>718.24</ele><time>2022-01-03T18:56:45Z</time></trkpt>
<trkpt lat="39.91281" lon="9.110083"><ele>717.28</ele><time>2022-01-03T18:56:46Z</time></trkpt>
<trkpt lat="39.912941" lon="9.11029"><ele>712.33</ele><time>2022-01-03T18:56:48Z</time></trkpt>
<trkpt lat="39.913002" lon="9.110506"><ele>707.57</ele><time>2022-01-03T18:56:50Z</time></trkpt>
<trkpt lat="39.913072" lon="9.110689"><ele>703.64</ele><time>2022-01-03T18:56:51Z</time></trkpt>
<trkpt lat="39.91315" lon="9.11081"><ele>701.53</ele><time>2022-01-03T18:56:53Z</time></trkpt>
<trkpt lat="39.91336" lon="9.11097"><ele>701.66</ele><time>2022-01-03T18:56:54Z</time></trkpt>
<trkpt lat="39.913485" lon="9.11101"><ele>702.75</ele><time>2022-01-03T18:56:56Z</time></trkpt>
<trkpt lat="39.913706" lon="9.111035"><ele>706.84</ele><time>2022-01-03T18:56:57Z</time></trkpt>
<trkpt lat="39.913813" lon="9.111095"><ele>707.42</ele><time>2022-01-03T18:56:59Z</time></trkpt>
<trkpt lat="39.913903" lon="9.111308"><ele>702.43</ele><time>2022-01-03T18:57:00Z</time></trkpt>
<trkpt lat="39.913987" lon="9.111428"><ele>701.08</ele><time>2022-01-03T18:57:02Z</time></trkpt>
<trkpt lat="39.91438" lon="9.11185"><ele>700.76</ele><time>2022-01-03T18:57:03Z</time></trkpt>
<trkpt lat="39.914428" lon="9.111964"><ele>698.66</ele><time>2022-01-03T18:57:05Z</time></trkpt>
<trkpt lat="39.914438" lon="9.112076"><ele>695.92</ele><time>2022-01-03T18:57:06Z</time></trkpt>
<trkpt lat="39.91438" lon="9.112363"><ele>688.94</ele><time>2022-01-03T18:57:08Z</time></trkpt>
<trkpt lat="39.914389" lon="9.112458"><ele>688.95</ele><time>2022-01-03T18:57:10Z</time></trkpt>
<trkpt lat="39.914505" lon="9.112725"><ele>692.1</ele><time>2022-01-03T18:57:11Z</time></trkpt>
<trkpt lat="39.914709" lon="9.113109"><ele>695.31</ele><time>2022-01-03T18:57:13Z</time></trkpt>
<trkpt lat="39.914703" lon="9.113273"><ele>693.96</ele><time>2022-01-03T18:57:14Z</time></trkpt>
<trkpt lat="39.914666" lon="9.11335"><ele>693.18</ele><time>2022-01-03T18:57:16Z</time></trkpt>
<trkpt lat="39.91462" lon="9.113401"><ele>692.56</ele><time>2022-01-03T18:57:17Z</time></trkpt>
<trkpt lat="39.91455" lon="9.113418"><ele>691.85</ele><time>2022-01-03T18:57:19Z</time></trkpt>
<trkpt lat="39.913966" lon="9.113225"><ele>692.38</ele><time>2022-01-03T18:57:20Z</time></trkpt>
<trkpt lat="39.913445" lon="9.113018"><ele>691.68</ele><time>2022-01-03T18:57:22Z</time></trkpt>
<trkpt lat="39.913077" lon="9.112951"><ele>691.75</ele><time>2022-01-03T18:57:23Z</time></trkpt>
<trkpt lat="39.912576" lon="9.113009"><ele>698.98</ele><time>2022-01-03T18:57:25Z</time></trkpt>
<trkpt lat="39.912461" lon="9.112974"><ele>699.97</ele><time>2022-01-03T18:57:26Z</time></trkpt>
<trkpt lat="39.912034" lon="9.112675"><ele>698.82</ele><time>2022-01-03T18:57:28Z</time></trkpt>
<trkpt lat="39.911851" lon="9.112576"><ele>697.25</ele><time>2022-01-03T18:57:30Z</time></trkpt>
<trkpt lat="39.911678" lon="9.11257"><ele>697.48</ele><time>2022-01-03T18:57:31Z</time></trkpt>
<trkpt lat="39.911575" lon="9.112596"><ele>697.45</ele><time>2022-01-03T18:57:33Z</time></trkpt>
<trkpt lat="39.911503" lon="9.112671"><ele>698.89</ele><time>2022-01-03T18:57:34Z</time></trkpt>
<trkpt lat="39.911441" lon="9.112766"><ele>700.61</ele><time>2022-01-03T18:57:36Z</time></trkpt>
<trkpt lat="39.911411" lon="9.112879"><ele>703.03</ele><time>2022-01-03T18:57:37Z</time></trkpt>
<trkpt lat="39.911285" lon="9.113538"><ele>710.6</ele><time>2022-01-03T18:57:39Z</time></trkpt>
<trkpt lat="39.911233" lon="9.113924"><ele>712.2</ele><time>2022-01-03T18:57:40Z</time></trkpt>
<trkpt lat="39.911248" lon="9.114171"><ele>713.37</ele><time>2022-01-03T18:57:42Z</time></trkpt>
<trkpt lat="39.911291" lon="9.114352"><ele>714.08</ele><time>2022-01-03T18:57:43Z</time></trkpt>
<trkpt lat="39.911636" lon="9.115249"><ele>723.79</ele><time>2022-01-03T18:57:45Z</time></trkpt>
<trkpt lat="39.911666" lon="9.115516"><ele>724.99</ele><time>2022-01-03T18:57:47Z</time></trkpt>
<trkpt lat="39.911694" lon="9.115997"><ele>726.85</ele><time>2022-01-03T18:57:48Z</time></trkpt>
<trkpt lat="39.911606" lon="9.116476"><ele>728.04</ele><time>2022-01-03T18:57:50Z</time></trkpt>
<trkpt lat="39.911478" lon="9.116996"><ele>731.21</ele><time>2022-01-03T18:57:51Z</time></trkpt>
<trkpt lat="39.911345" lon="9.117296"><ele>732.65</ele><time>2022-01-03T18:57:53Z</time></trkpt>
<trkpt lat="39.910942" lon="9.118053"><ele>736.53</ele><time>2022-01-03T18:57:54Z</time></trkpt>
<trkpt lat="39.910861" lon="9.118118"><ele>737.57</ele><time>2022-01-03T18:57:56Z</time></trkpt>
<trkpt lat="39.910768" lon="9.118135"><ele>738.37</ele><time>2022-01-03T18:57:57Z</time></trkpt>
<trkpt lat="39.910665" lon="9.118108"><ele>739.21</ele><time>2022-01-03T18:57:59Z</time></trkpt>
<trkpt lat="39.91059" lon="9.118016"><ele>740.26</ele><time>2022-01-03T18:58:00Z</time></trkpt>
<trkpt lat="39.910567" lon="9.117954"><ele>740.95</ele><time>2022-01-03T18:58:02Z</time></trkpt>
<trkpt lat="39.910557" lon="9.117772"><ele>739.91</ele><time>2022-01-03T18:58:03Z</time></trkpt>
<trkpt lat="39.91057" lon="9.117641"><ele>738.53</ele><time>2022-01-03T18:58:05Z</time></trkpt>
<trkpt lat="39.91071" lon="9.117189"><ele>730.29</ele><time>2022-01-03T18:58:07Z</time></trkpt>
<trkpt lat="39.910735" lon="9.116995"><ele>727.96</ele><time>2022-01-03T18:58:08Z</time></trkpt>
<trkpt lat="39.910714" lon="9.116902"><ele>727.88</ele><time>2022-01-03T18:58:10Z</time></trkpt>
<trkpt lat="39.91067" lon="9.116815"><ele>728.31</ele><time>2022-01-03T18:58:11Z</time></trkpt>
<trkpt lat="39.910625" lon="9.116785"><ele>729.22</ele><time>2022-01-03T18:58:13Z</time></trkpt>
<trkpt lat="39.910561" lon="9.11679"><ele>731.07</ele><time>2022-01-03T18:58:14Z</time></trkpt>
<trkpt lat="39.910435" lon="9.116904"><ele>732.14</ele><time>2022-01-03T18:58:16Z</time></trkpt>
<trkpt lat="39.909534" lon="9.117973"><ele>744.36</ele><time>2022-01-03T18:58:17Z</time></trkpt>
<trkpt lat="39.909356" lon="9.118338"><ele>747.29</ele><time>2022-01-03T18:58:19Z</time></trkpt>
<trkpt lat="39.908857" lon="9.119592"><ele>764.06</ele><time>2022-01-03T18:58:20Z</time></trkpt>
<trkpt lat="39.908799" lon="9.119648"><ele>765.31</ele><time>2022-01-03T18:58:22Z</time></trkpt>
<trkpt lat="39.908719" lon="9.11968"><ele>765.66</ele><time>2022-01-03T18:58:23Z</time></trkpt>
<trkpt lat="39.908571" lon="9.119645"><ele>764.56</ele><time>2022-01-03T18:58:25Z</time></trkpt>
<trkpt lat="39.908372" lon="9.119243"><ele>757.8</ele><time>2022-01-03T18:58:27Z</time></trkpt>
<trkpt lat="39.908312" lon="9.119183"><ele>756.24</ele><time>2022-01-03T18:58:28Z</time></trkpt>
<trkpt lat="39.908243" lon="9.119148"><ele>754.32</ele><time>2022-01-03T18:58:30Z</time></trkpt>
<trkpt lat="39.908175" lon="9.119162"><ele>754.09</ele><time>2022-01-03T18:58:31Z</time></trkpt>
<trkpt lat="39.908103" lon="9.119228"><ele>755.29</ele><time>2022-01-03T18:58:33Z</time></trkpt>
<trkpt lat="39.907898" lon="9.119617"><ele>762.36</ele><time>2022-01-03T18:58:34Z</time></trkpt>
<trkpt lat="39.907759" lon="9.119802"><ele>764.34</ele><time>2022-01-03T18:58:36Z</time></trkpt>
<trkpt lat="39.906788" lon="9.120734"><ele>773.32</ele><time>2022-01-03T18:58:37Z</time></trkpt>
<trkpt lat="39.906721" lon="9.120826"><ele>774.35</ele><time>2022-01-03T18:58:39Z</time></trkpt>
<trkpt lat="39.90667" lon="9.120924"><ele>774.74</ele><time>2022-01-03T18:58:40Z</time></trkpt>
<trkpt lat="39.906554" lon="9.121471"><ele>778.71</ele><time>2022-01-03T18:58:42Z</time></trkpt>
<trkpt lat="39.906504" lon="9.121622"><ele>778.72</ele><time>2022-01-03T18:58:43Z</time></trkpt>
<trkpt lat="39.906383" lon="9.121758"><ele>778.92</ele><time>2022-01-03T18:58:45Z</time></trkpt>
<trkpt lat="39.905982" lon="9.12206"><ele>783.67</ele><time>2022-01-03T18:58:47Z</time></trkpt>
<trkpt lat="39.905727" lon="9.122376"><ele>788.06</ele><time>2022-01-03T18:58:48Z</time></trkpt>
<trkpt lat="39.905377" lon="9.122861"><ele>790.97</ele><time>2022-01-03T18:58:50Z</time></trkpt>
<trkpt lat="39.904866" lon="9.123462"><ele>794.87</ele><time>2022-01-03T18:58:51Z</time></trkpt>
<trkpt lat="39.904733" lon="9.123592"><ele>795.77</ele><time>2022-01-03T18:58:53Z</time></trkpt>
<trkpt lat="39.904675" lon="9.123628"><ele>796.71</ele><time>2022-01-03T18:58:54Z</time></trkpt>
<trkpt lat="39.904552" lon="9.123636"><ele>797.76</ele><time>2022-01-03T18:58:56Z</time></trkpt>
<trkpt lat="39.904481" lon="9.123606"><ele>797.65</ele><time>2022-01-03T18:58:57Z</time></trkpt>
<trkpt lat="39.904402" lon="9.123532"><ele>797.89</ele><time>2022-01-03T18:58:59Z</time></trkpt>
<trkpt lat="39.904361" lon="9.123443"><ele>797.75</ele><time>2022-01-03T18:59:00Z</time></trkpt>
<trkpt lat="39.904277" lon="9.123006"><ele>796.9</ele><time>2022-01-03T18:59:02Z</time></trkpt>
<trkpt lat="39.904202" lon="9.122798"><ele>799.11</ele><time>2022-01-03T18:59:04Z</time></trkpt>
<trkpt lat="39.904021" lon="9.122473"><ele>802.42</ele><time>2022-01-03T18:59:05Z</time></trkpt>
<trkpt lat="39.903866" lon="9.122324"><ele>802.1</ele><time>2022-01-03T18:59:07Z</time></trkpt>
<trkpt lat="39.903729" lon="9.122279"><ele>801.61</ele><time>2022-01-03T18:59:08Z</time></trkpt>
<trkpt lat="39.903587" lon="9.122316"><ele>801.99</ele><time>2022-01-03T18:59:10Z</time></trkpt>
<trkpt lat="39.903576" lon="9.122424"><ele>803.24</ele><time>2022-01-03T18:59:11Z</time></trkpt>
<trkpt lat="39.903607" lon="9.122539"><ele>804.72</ele><time>2022-01-03T18:59:12Z</time></trkpt>
<trkpt lat="39.90388" lon="9.122756"><ele>805.93</ele><time>2022-01-03T18:59:13Z</time></trkpt>
<trkpt lat="39.90398" lon="9.122876"><ele>804.99</ele><time>2022-01-03T18:59:15Z</time></trkpt>
<trkpt lat="39.904022" lon="9.122979"><ele>804.62</ele><time>2022-01-03T18:59:16Z</time></trkpt>
<trkpt lat="39.904044" lon="9.123084"><ele>804.71</ele><time>2022-01-03T18:59:17Z</time></trkpt>
<trkpt lat="39.904055" lon="9.123448"><ele>808.08</ele><time>2022-01-03T18:59:18Z</time></trkpt>
<trkpt lat="39.904075" lon="9.123595"><ele>808.83</ele><time>2022-01-03T18:59:20Z</time></trkpt>
<trkpt lat="39.904106" lon="9.123743"><ele>809.19</ele><time>2022-01-03T18:59:21Z</time></trkpt>
<trkpt lat="39.904221" lon="9.124053"><ele>809.9</ele><time>2022-01-03T18:59:22Z</time></trkpt>
<trkpt lat="39.904415" lon="9.124432"><ele>811.08</ele><time>2022-01-03T18:59:23Z</time></trkpt>
<trkpt lat="39.904522" lon="9.124592"><ele>811.13</ele><time>2022-01-03T18:59:25Z</time></trkpt>
<trkpt lat="39.904594" lon="9.12464"><ele>811.16</ele><time>2022-01-03T18:59:26Z</time></trkpt>
<trkpt lat="39.904657" lon="9.124674"><ele>811.13</ele><time>2022-01-03T18:59:27Z</time></trkpt>
<trkpt lat="39.904719" lon="9.124682"><ele>811.14</ele><time>2022-01-03T18:59:28Z</time></trkpt>
<trkpt lat="39.904877" lon="9.124612"><ele>811.95</ele><time>2022-01-03T18:59:29Z</time></trkpt>
<trkpt lat="39.905248" lon="9.124221"><ele>812.29</ele><time>2022-01-03T18:59:31Z</time></trkpt>
<trkpt lat="39.905764" lon="9.123801"><ele>811.66</ele><time>2022-01-03T18:59:32Z</time></trkpt>
<trkpt lat="39.90591" lon="9.123644"><ele>811.86</ele><time>2022-01-03T18:59:33Z</time></trkpt>
<trkpt lat="39.906195" lon="9.123257"><ele>810.84</ele><time>2022-01-03T18:59:34Z</time></trkpt>
<trkpt lat="39.906327" lon="9.123157"><ele>810.93</ele><time>2022-01-03T18:59:36Z</time></trkpt>
<trkpt lat="39.906391" lon="9.123148"><ele>811.66</ele><time>2022-01-03T18:59:37Z</time></trkpt>
<trkpt lat="39.906509" lon="9.12319"><ele>812.42</ele><time>2022-01-03T18:59:38Z</time></trkpt>
<trkpt lat="39.906601" lon="9.123308"><ele>814.54</ele><time>2022-01-03T18:59:39Z</time></trkpt>
<trkpt lat="39.90681" lon="9.12409"><ele>821.85</ele><time>2022-01-03T18:59:41Z</time></trkpt>
<trkpt lat="39.906869" lon="9.124256"><ele>823.1</ele><time>2022-01-03T18:59:42Z</time></trkpt>
<trkpt lat="39.906949" lon="9.124409"><ele>823.73</ele><time>2022-01-03T18:59:43Z</time></trkpt>
<trkpt lat="39.90706" lon="9.124522"><ele>824.28</ele><time>2022-01-03T18:59:44Z</time></trkpt>
<trkpt lat="39.907176" lon="9.12458"><ele>824.49</ele><time>2022-01-03T18:59:46Z</time></trkpt>
<trkpt lat="39.907314" lon="9.124596"><ele>824.91</ele><time>2022-01-03T18:59:47Z</time></trkpt>
<trkpt lat="39.907496" lon="9.124539"><ele>825.01</ele><time>2022-01-03T18:59:48Z</time></trkpt>
<trkpt lat="39.908309" lon="9.123957"><ele>832.15</ele><time>2022-01-03T18:59:49Z</time></trkpt>
<trkpt lat="39.908371" lon="9.123898"><ele>833.05</ele><time>2022-01-03T18:59:50Z</time></trkpt>
<trkpt lat="39.908455" lon="9.12376"><ele>833.89</ele><time>2022-01-03T18:59:52Z</time></trkpt>
<trkpt lat="39.908485" lon="9.123615"><ele>833.4</ele><time>2022-01-03T18:59:53Z</time></trkpt>
<trkpt lat="39.908457" lon="9.123192"><ele>830.82</ele><time>2022-01-03T18:59:54Z</time></trkpt>
<trkpt lat="39.908484" lon="9.12303"><ele>830.58</ele><time>2022-01-03T18:59:55Z</time></trkpt>
<trkpt lat="39.908539" lon="9.122925"><ele>831.13</ele><time>2022-01-03T18:59:57Z</time></trkpt>
<trkpt lat="39.90863" lon="9.122823"><ele>832.62</ele><time>2022-01-03T18:59:58Z</time></trkpt>
<trkpt lat="39.908695" lon="9.122784"><ele>833.26</ele><time>2022-01-03T18:59:59Z</time></trkpt>
<trkpt lat="39.908887" lon="9.122769"><ele>835.82</ele><time>2022-01-03T19:00:00Z</time></trkpt>
<trkpt lat="39.909188" lon="9.122843"><ele>840.46</ele><time>2022-01-03T19:00:02Z</time></trkpt>
<trkpt lat="39.90925" lon="9.122819"><ele>840.9</ele><time>2022-01-03T19:00:03Z</time></trkpt>
<trkpt lat="39.909314" lon="9.122765"><ele>840.96</ele><time>2022-01-03T19:00:04Z</time></trkpt>
<trkpt lat="39.909392" lon="9.122613"><ele>840.35</ele><time>2022-01-03T19:00:05Z</time></trkpt>
<trkpt lat="39.909686" lon="9.121778"><ele>838.88</ele><time>2022-01-03T19:00:07Z</time></trkpt>
<trkpt lat="39.909769" lon="9.121653"><ele>840.24</ele><time>2022-01-03T19:00:08Z</time></trkpt>
<trkpt lat="39.909891" lon="9.121583"><ele>840.61</ele><time>2022-01-03T19:00:09Z</time></trkpt>
<trkpt lat="39.909963" lon="9.121593"><ele>841.2</ele><time>2022-01-03T19:00:10Z</time></trkpt>
<trkpt lat="39.910011" lon="9.121624"><ele>841.6</ele><time>2022-01-03T19:00:11Z</time></trkpt>
<trkpt lat="39.910051" lon="9.121678"><ele>841.73</ele><time>2022-01-03T19:00:13Z</time></trkpt>
<trkpt lat="39.910077" lon="9.121733"><ele>842.06</ele><time>2022-01-03T19:00:14Z</time></trkpt>
<trkpt lat="39.910134" lon="9.122005"><ele>844.54</ele><time>2022-01-03T19:00:15Z</time></trkpt>
<trkpt lat="39.910193" lon="9.122128"><ele>845.78</ele><time>2022-01-03T19:00:16Z</time></trkpt>
<trkpt lat="39.910341" lon="9.122264"><ele>847.67</ele><time>2022-01-03T19:00:18Z</time></trkpt>
<trkpt lat="39.910476" lon="9.122304"><ele>848.6</ele><time>2022-01-03T19:00:19Z</time></trkpt>
<trkpt lat="39.91063" lon="9.122308"><ele>849.98</ele><time>2022-01-03T19:00:20Z</time></trkpt>
<trkpt lat="39.910798" lon="9.122263"><ele>851.43</ele><time>2022-01-03T19:00:21Z</time></trkpt>
<trkpt lat="39.911094" lon="9.122081"><ele>852.68</ele><time>2022-01-03T19:00:23Z</time></trkpt>
<trkpt lat="39.911265" lon="9.121935"><ele>852.53</ele><time>2022-01-03T19:00:24Z</time></trkpt>
<trkpt lat="39.911408" lon="9.121842"><ele>852.58</ele><time>2022-01-03T19:00:25Z</time></trkpt>
<trkpt lat="39.911618" lon="9.121784"><ele>853.08</ele><time>2022-01-03T19:00:26Z</time></trkpt>
<trkpt lat="39.911949" lon="9.12177"><ele>851.58</ele><time>2022-01-03T19:00:28Z</time></trkpt>
<trkpt lat="39.912358" lon="9.121834"><ele>850.74</ele><time>2022-01-03T19:00:29Z</time></trkpt>
<trkpt lat="39.912428" lon="9.121889"><ele>851.48</ele><time>2022-01-03T19:00:30Z</time></trkpt>
<trkpt lat="39.912459" lon="9.121931"><ele>852.13</ele><time>2022-01-03T19:00:31Z</time></trkpt>
<trkpt lat="39.912477" lon="9.121991"><ele>853.08</ele><time>2022-01-03T19:00:33Z</time></trkpt>
<trkpt lat="39.912473" lon="9.122082"><ele>854.78</ele><time>2022-01-03T19:00:34Z</time></trkpt>
<trkpt lat="39.912443" lon="9.122152"><ele>856.34</ele><time>2022-01-03T19:00:35Z</time></trkpt>
<trkpt lat="39.912389" lon="9.122189"><ele>857.59</ele><time>2022-01-03T19:00:36Z</time></trkpt>
<trkpt lat="39.912339" lon="9.1222"><ele>858.34</ele><time>2022-01-03T19:00:37Z</time></trkpt>
<trkpt lat="39.91209" lon="9.122135"><ele>858.59</ele><time>2022-01-03T19:00:39Z</time></trkpt>
<trkpt lat="39.911965" lon="9.12213"><ele>858.65</ele><time>2022-01-03T19:00:40Z</time></trkpt>
<trkpt lat="39.911821" lon="9.122154"><ele>859.79</ele><time>2022-01-03T19:00:41Z</time></trkpt>
<trkpt lat="39.911616" lon="9.122224"><ele>861.66</ele><time>2022-01-03T19:00:42Z</time></trkpt>
<trkpt lat="39.911305" lon="9.122412"><ele>861.73</ele><time>2022-01-03T19:00:44Z</time></trkpt>
<trkpt lat="39.910755" lon="9.122988"><ele>866.34</ele><time>2022-01-03T19:00:45Z</time></trkpt>
<trkpt lat="39.910288" lon="9.123394"><ele>869.27</ele><time>2022-01-03T19:00:46Z</time></trkpt>
<trkpt lat="39.91023" lon="9.123463"><ele>869.39</ele><time>2022-01-03T19:00:47Z</time></trkpt>
<trkpt lat="39.910154" lon="9.123576"><ele>869.75</ele><time>2022-01-03T19:00:49Z</time></trkpt>
<trkpt lat="39.909968" lon="9.123969"><ele>872.57</ele><time>2022-01-03T19:00:50Z</time></trkpt>
<trkpt lat="39.90971" lon="9.124325"><ele>872.96</ele><time>2022-01-03T19:00:51Z</time></trkpt>
<trkpt lat="39.909621" lon="9.124519"><ele>872.79</ele><time>2022-01-03T19:00:52Z</time></trkpt>
<trkpt lat="39.909595" lon="9.124626"><ele>873.0</ele><time>2022-01-03T19:00:54Z</time></trkpt>
<trkpt lat="39.909546" lon="9.125013"><ele>875.55</ele><time>2022-01-03T19:00:55Z</time></trkpt>
<trkpt lat="39.909388" lon="9.125471"><ele>875.58</ele><time>2022-01-03T19:00:56Z</time></trkpt>
<trkpt lat="39.909346" lon="9.125696"><ele>875.49</ele><time>2022-01-03T19:00:57Z</time></trkpt>
<trkpt lat="39.909357" lon="9.12582"><ele>876.13</ele><time>2022-01-03T19:00:58Z</time></trkpt>
<trkpt lat="39.909533" lon="9.126742"><ele>883.07</ele><time>2022-01-03T19:01:00Z</time></trkpt>
<trkpt lat="39.909569" lon="9.126853"><ele>883.65</ele><time>2022-01-03T19:01:01Z</time></trkpt>
<trkpt lat="39.909656" lon="9.126973"><ele>885.46</ele><time>2022-01-03T19:01:02Z</time></trkpt>
<trkpt lat="39.909891" lon="9.127092"><ele>891.04</ele><time>2022-01-03T19:01:03Z</time></trkpt>
<trkpt lat="39.909961" lon="9.127187"><ele>892.14</ele><time>2022-01-03T19:01:05Z</time></trkpt>
<trkpt lat="39.910024" lon="9.127377"><ele>892.29</ele><time>2022-01-03T19:01:06Z</time></trkpt>
<trkpt lat="39.910064" lon="9.127604"><ele>892.31</ele><time>2022-01-03T19:01:07Z</time></trkpt>
<trkpt lat="39.910078" lon="9.128011"><ele>891.26</ele><time>2022-01-03T19:01:08Z</time></trkpt>
<trkpt lat="39.910093" lon="9.128096"><ele>891.38</ele><time>2022-01-03T19:01:10Z</time></trkpt>
<trkpt lat="39.910207" lon="9.128313"><ele>894.34</ele><time>2022-01-03T19:01:11Z</time></trkpt>
<trkpt lat="39.910463" lon="9.128615"><ele>903.66</ele><time>2022-01-03T19:01:12Z</time></trkpt>
<trkpt lat="39.910488" lon="9.128667"><ele>904.46</ele><time>2022-01-03T19:01:13Z</time></trkpt>
<trkpt lat="39.910501" lon="9.128757"><ele>904.72</ele><time>2022-01-03T19:01:15Z</time></trkpt>
<trkpt lat="39.910462" lon="9.128897"><ele>903.62</ele><time>2022-01-03T19:01:16Z</time></trkpt>
<trkpt lat="39.910382" lon="9.12898"><ele>902.76</ele><time>2022-01-03T19:01:17Z</time></trkpt>
<trkpt lat="39.910217" lon="9.129022"><ele>901.63</ele><time>2022-01-03T19:01:18Z</time></trkpt>
<trkpt lat="39.909422" lon="9.128949"><ele>897.73</ele><time>2022-01-03T19:01:19Z</time></trkpt>
<trkpt lat="39.909341" lon="9.128966"><ele>896.7</ele><time>2022-01-03T19:01:21Z</time></trkpt>
<trkpt lat="39.909288" lon="9.129"><ele>896.29</ele><time>2022-01-03T19:01:22Z</time></trkpt>
<trkpt lat="39.909209" lon="9.129107"><ele>896.21</ele><time>2022-01-03T19:01:23Z</time></trkpt>
<trkpt lat="39.909193" lon="9.129177"><ele>896.58</ele><time>2022-01-03T19:01:24Z</time></trkpt>
<trkpt lat="39.909205" lon="9.12928"><ele>896.99</ele><time>2022-01-03T19:01:26Z</time></trkpt>
<trkpt lat="39.909307" lon="9.129537"><ele>900.72</ele><time>2022-01-03T19:01:27Z</time></trkpt>
<trkpt lat="39.909365" lon="9.129814"><ele>903.49</ele><time>2022-01-03T19:01:28Z</time></trkpt>
<trkpt lat="39.909406" lon="9.130156"><ele>906.17</ele><time>2022-01-03T19:01:29Z</time></trkpt>
<trkpt lat="39.909386" lon="9.130259"><ele>905.82</ele><time>2022-01-03T19:01:31Z</time></trkpt>
<trkpt lat="39.909147" lon="9.13097"><ele>912.33</ele><time>2022-01-03T19:01:32Z</time></trkpt>
<trkpt lat="39.909039" lon="9.131099"><ele>912.54</ele><time>2022-01-03T19:01:33Z</time></trkpt>
<trkpt lat="39.908642" lon="9.131435"><ele>910.84</ele><time>2022-01-03T19:01:34Z</time></trkpt>
<trkpt lat="39.908544" lon="9.131565"><ele>911.17</ele><time>2022-01-03T19:01:36Z</time></trkpt>
<trkpt lat="39.908418" lon="9.131796"><ele>914.37</ele><time>2022-01-03T19:01:37Z</time></trkpt>
<trkpt lat="39.908368" lon="9.131919"><ele>916.32</ele><time>2022-01-03T19:01:38Z</time></trkpt>
<trkpt lat="39.908267" lon="9.132267"><ele>924.49</ele><time>2022-01-03T19:01:39Z</time></trkpt>
<trkpt lat="39.908231" lon="9.132324"><ele>925.82</ele><time>2022-01-03T19:01:40Z</time></trkpt>
<trkpt lat="39.908178" lon="9.132375"><ele>926.72</ele><time>2022-01-03T19:01:42Z</time></trkpt>
<trkpt lat="39.908106" lon="9.132401"><ele>926.52</ele><time>2022-01-03T19:01:43Z</time></trkpt>
<trkpt lat="39.90803" lon="9.132388"><ele>925.45</ele><time>2022-01-03T19:01:44Z</time></trkpt>
<trkpt lat="39.907669" lon="9.132231"><ele>922.43</ele><time>2022-01-03T19:01:45Z</time></trkpt>
<trkpt lat="39.907585" lon="9.132219"><ele>922.99</ele><time>2022-01-03T19:01:47Z</time></trkpt>
<trkpt lat="39.907382" lon="9.132269"><ele>924.08</ele><time>2022-01-03T19:01:48Z</time></trkpt>
<trkpt lat="39.907303" lon="9.132318"><ele>924.62</ele><time>2022-01-03T19:01:49Z</time></trkpt>
<trkpt lat="39.906724" lon="9.132877"><ele>930.43</ele><time>2022-01-03T19:01:50Z</time></trkpt>
<trkpt lat="39.906586" lon="9.132985"><ele>930.82</ele><time>2022-01-03T19:01:52Z</time></trkpt>
<trkpt lat="39.905746" lon="9.13347"><ele>933.0</ele><time>2022-01-03T19:01:53Z</time></trkpt>
<trkpt lat="39.905363" lon="9.133743"><ele>935.34</ele><time>2022-01-03T19:01:54Z</time></trkpt>
<trkpt lat="39.90524" lon="9.13385"><ele>936.37</ele><time>2022-01-03T19:01:55Z</time></trkpt>
<trkpt lat="39.905102" lon="9.134027"><ele>937.46</ele><time>2022-01-03T19:01:57Z</time></trkpt>
<trkpt lat="39.904988" lon="9.134283"><ele>938.66</ele><time>2022-01-03T19:01:58Z</time></trkpt>
<trkpt lat="39.904923" lon="9.13455"><ele>940.2</ele><time>2022-01-03T19:01:59Z</time></trkpt>
<trkpt lat="39.904914" lon="9.134727"><ele>942.18</ele><time>2022-01-03T19:02:00Z</time></trkpt>
<trkpt lat="39.904925" lon="9.134864"><ele>943.27</ele><time>2022-01-03T19:02:01Z</time></trkpt>
<trkpt lat="39.904972" lon="9.13511"><ele>945.24</ele><time>2022-01-03T19:02:03Z</time></trkpt>
<trkpt lat="39.905069" lon="9.13532"><ele>947.43</ele><time>2022-01-03T19:02:04Z</time></trkpt>
<trkpt lat="39.905245" lon="9.135574"><ele>950.23</ele><time>2022-01-03T19:02:05Z</time></trkpt>
<trkpt lat="39.905285" lon="9.135744"><ele>951.87</ele><time>2022-01-03T19:02:06Z</time></trkpt>
<trkpt lat="39.905273" lon="9.135934"><ele>952.98</ele><time>2022-01-03T19:02:08Z</time></trkpt>
<trkpt lat="39.905115" lon="9.136308"><ele>953.79</ele><time>2022-01-03T19:02:09Z</time></trkpt>
<trkpt lat="39.905024" lon="9.136568"><ele>953.85</ele><time>2022-01-03T19:02:10Z</time></trkpt>
<trkpt lat="39.904951" lon="9.13688"><ele>954.08</ele><time>2022-01-03T19:02:11Z</time></trkpt>
<trkpt lat="39.904916" lon="9.137198"><ele>955.4</ele><time>2022-01-03T19:02:13Z</time></trkpt>
<trkpt lat="39.904913" lon="9.13745"><ele>954.11</ele><time>2022-01-03T19:02:14Z</time></trkpt>
<trkpt lat="39.90493" lon="9.137581"><ele>953.65</ele><time>2022-01-03T19:02:15Z</time></trkpt>
<trkpt lat="39.90501" lon="9.137818"><ele>953.8</ele><time>2022-01-03T19:02:16Z</time></trkpt>
<trkpt lat="39.905145" lon="9.138034"><ele>952.96</ele><time>2022-01-03T19:02:18Z</time></trkpt>
<trkpt lat="39.905229" lon="9.138121"><ele>951.87</ele><time>2022-01-03T19:02:19Z</time></trkpt>
<trkpt lat="39.905338" lon="9.13817"><ele>951.81</ele><time>2022-01-03T19:02:20Z</time></trkpt>
<trkpt lat="39.90542" lon="9.138173"><ele>952.66</ele><time>2022-01-03T19:02:21Z</time></trkpt>
<trkpt lat="39.905664" lon="9.13811"><ele>958.41</ele><time>2022-01-03T19:02:23Z</time></trkpt>
<trkpt lat="39.905836" lon="9.138118"><ele>961.6</ele><time>2022-01-03T19:02:24Z</time></trkpt>
<trkpt lat="39.905952" lon="9.13817"><ele>961.94</ele><time>2022-01-03T19:02:25Z</time></trkpt>
<trkpt lat="39.906537" lon="9.138554"><ele>966.46</ele><time>2022-01-03T19:02:26Z</time></trkpt>
<trkpt lat="39.90662" lon="9.138679"><ele>966.39</ele><time>2022-01-03T19:02:27Z</time></trkpt>
<trkpt lat="39.907166" lon="9.139919"><ele>966.55</ele><time>2022-01-03T19:02:29Z</time></trkpt>
<trkpt lat="39.907209" lon="9.139963"><ele>967.14</ele><time>2022-01-03T19:02:30Z</time></trkpt>
<trkpt lat="39.907278" lon="9.139986"><ele>967.8</ele><time>2022-01-03T19:02:31Z</time></trkpt>
<trkpt lat="39.90739" lon="9.139951"><ele>969.52</ele><time>2022-01-03T19:02:32Z</time></trkpt>
<trkpt lat="39.907445" lon="9.139908"><ele>970.73</ele><time>2022-01-03T19:02:34Z</time></trkpt>
<trkpt lat="39.907715" lon="9.139544"><ele>973.96</ele><time>2022-01-03T19:02:35Z</time></trkpt>
<trkpt lat="39.907971" lon="9.139046"><ele>976.91</ele><time>2022-01-03T19:02:36Z</time></trkpt>
<trkpt lat="39.908245" lon="9.138366"><ele>978.11</ele><time>2022-01-03T19:02:37Z</time></trkpt>
<trkpt lat="39.9084" lon="9.137923"><ele>985.02</ele><time>2022-01-03T19:02:39Z</time></trkpt>
<trkpt lat="39.908456" lon="9.137837"><ele>986.05</ele><time>2022-01-03T19:02:40Z</time></trkpt>
<trkpt lat="39.908584" lon="9.137721"><ele>986.4</ele><time>2022-01-03T19:02:41Z</time></trkpt>
<trkpt lat="39.908812" lon="9.137609"><ele>985.87</ele><time>2022-01-03T19:02:42Z</time></trkpt>
<trkpt lat="39.908915" lon="9.137524"><ele>986.1</ele><time>2022-01-03T19:02:44Z</time></trkpt>
<trkpt lat="39.909152" lon="9.137269"><ele>988.04</ele><time>2022-01-03T19:02:45Z</time></trkpt>
<trkpt lat="39.909264" lon="9.137114"><ele>990.27</ele><time>2022-01-03T19:02:46Z</time></trkpt>
<trkpt lat="39.909434" lon="9.136734"><ele>997.28</ele><time>2022-01-03T19:02:47Z</time></trkpt>
<trkpt lat="39.909541" lon="9.136624"><ele>998.04</ele><time>2022-01-03T19:02:48Z</time></trkpt>
<trkpt lat="39.909649" lon="9.136596"><ele>996.57</ele><time>2022-01-03T19:02:50Z</time></trkpt>
<trkpt lat="39.909793" lon="9.136602"><ele>993.47</ele><time>2022-01-03T19:02:51Z</time></trkpt>
<trkpt lat="39.909972" lon="9.136539"><ele>991.35</ele><time>2022-01-03T19:02:52Z</time></trkpt>
<trkpt lat="39.910104" lon="9.136412"><ele>992.82</ele><time>2022-01-03T19:02:53Z</time></trkpt>
<trkpt lat="39.910445" lon="9.135971"><ele>1000.32</ele><time>2022-01-03T19:02:55Z</time></trkpt>
<trkpt lat="39.910493" lon="9.135923"><ele>1001.2</ele><time>2022-01-03T19:02:56Z</time></trkpt>
<trkpt lat="39.910614" lon="9.13586"><ele>1002.16</ele><time>2022-01-03T19:02:57Z</time></trkpt>
<trkpt lat="39.910729" lon="9.135853"><ele>1001.97</ele><time>2022-01-03T19:02:58Z</time></trkpt>
<trkpt lat="39.911237" lon="9.136"><ele>1001.67</ele><time>2022-01-03T19:03:00Z</time></trkpt>
<trkpt lat="39.911401" lon="9.136004"><ele>1001.82</ele><time>2022-01-03T19:03:01Z</time></trkpt>
<trkpt lat="39.911443" lon="9.135992"><ele>1001.64</ele><time>2022-01-03T19:03:02Z</time></trkpt>
<trkpt lat="39.911533" lon="9.135923"><ele>1002.19</ele><time>2022-01-03T19:03:03Z</time></trkpt>
<trkpt lat="39.911717" lon="9.135539"><ele>1008.64</ele><time>2022-01-03T19:03:05Z</time></trkpt>
<trkpt lat="39.911755" lon="9.135485"><ele>1009.26</ele><time>2022-01-03T19:03:06Z</time></trkpt>
<trkpt lat="39.911826" lon="9.135428"><ele>1009.47</ele><time>2022-01-03T19:03:07Z</time></trkpt>
<trkpt lat="39.911933" lon="9.135426"><ele>1007.97</ele><time>2022-01-03T19:03:08Z</time></trkpt>
<trkpt lat="39.912198" lon="9.135554"><ele>1005.96</ele><time>2022-01-03T19:03:09Z</time></trkpt>
<trkpt lat="39.912326" lon="9.135563"><ele>1006.66</ele><time>2022-01-03T19:03:11Z</time></trkpt>
<trkpt lat="39.912471" lon="9.135518"><ele>1008.36</ele><time>2022-01-03T19:03:12Z</time></trkpt>
<trkpt lat="39.912701" lon="9.135389"><ele>1010.26</ele><time>2022-01-03T19:03:13Z</time></trkpt>
<trkpt lat="39.912991" lon="9.135326"><ele>1011.55</ele><time>2022-01-03T19:03:14Z</time></trkpt>
<trkpt lat="39.913062" lon="9.135288"><ele>1011.97</ele><time>2022-01-03T19:03:16Z</time></trkpt>
<trkpt lat="39.913144" lon="9.135197"><ele>1012.29</ele><time>2022-01-03T19:03:17Z</time></trkpt>
<trkpt lat="39.913193" lon="9.135077"><ele>1012.72</ele><time>2022-01-03T19:03:18Z</time></trkpt>
<trkpt lat="39.913249" lon="9.134816"><ele>1013.86</ele><time>2022-01-03T19:03:19Z</time></trkpt>
<trkpt lat="39.913325" lon="9.134658"><ele>1014.5</ele><time>2022-01-03T19:03:21Z</time></trkpt>
<trkpt lat="39.913491" lon="9.134538"><ele>1015.51</ele><time>2022-01-03T19:03:22Z</time></trkpt>
<trkpt lat="39.913601" lon="9.134533"><ele>1015.71</ele><time>2022-01-03T19:03:23Z</time></trkpt>
<trkpt lat="39.913896" lon="9.134638"><ele>1013.81</ele><time>2022-01-03T19:03:24Z</time></trkpt>
<trkpt lat="39.914016" lon="9.13465"><ele>1013.34</ele><time>2022-01-03T19:03:26Z</time></trkpt>
<trkpt lat="39.914359" lon="9.13453"><ele>1015.35</ele><time>2022-01-03T19:03:27Z</time></trkpt>
<trkpt lat="39.914422" lon="9.134521"><ele>1015.21</ele><time>2022-01-03T19:03:28Z</time></trkpt>
<trkpt lat="39.914724" lon="9.134558"><ele>1012.15</ele><time>2022-01-03T19:03:29Z</time></trkpt>
<trkpt lat="39.914926" lon="9.134507"><ele>1013.19</ele><time>2022-01-03T19:03:30Z</time></trkpt>
<trkpt lat="39.91502" lon="9.134449"><ele>1013.71</ele><time>2022-01-03T19:03:32Z</time></trkpt>
<trkpt lat="39.915204" lon="9.134283"><ele>1013.54</ele><time>2022-01-03T19:03:33Z</time></trkpt>
<trkpt lat="39.915347" lon="9.134087"><ele>1013.65</ele><time>2022-01-03T19:03:34Z</time></trkpt>
<trkpt lat="39.915393" lon="9.133942"><ele>1014.29</ele><time>2022-01-03T19:03:35Z</time></trkpt>
<trkpt lat="39.915425" lon="9.133771"><ele>1015.89</ele><time>2022-01-03T19:03:37Z</time></trkpt>
<trkpt lat="39.915457" lon="9.133694"><ele>1016.42</ele><time>2022-01-03T19:03:38Z</time></trkpt>
<trkpt lat="39.915553" lon="9.133573"><ele>1016.58</ele><time>2022-01-03T19:03:39Z</time></trkpt>
<trkpt lat="39.916045" lon="9.133421"><ele>1015.21</ele><time>2022-01-03T19:03:40Z</time></trkpt>
<trkpt lat="39.916227" lon="9.133247"><ele>1015.63</ele><time>2022-01-03T19:03:42Z</time></trkpt>
<trkpt lat="39.916413" lon="9.132954"><ele>1015.62</ele><time>2022-01-03T19:03:43Z</time></trkpt>
<trkpt lat="39.916587" lon="9.132523"><ele>1017.32</ele><time>2022-01-03T19:03:44Z</time></trkpt>
<trkpt lat="39.916694" lon="9.132393"><ele>1017.27</ele><time>2022-01-03T19:03:45Z</time></trkpt>
<trkpt lat="39.91685" lon="9.132283"><ele>1017.49</ele><time>2022-01-03T19:03:47Z</time></trkpt>
<trkpt lat="39.917086" lon="9.132234"><ele>1018.89</ele><time>2022-01-03T19:03:48Z</time></trkpt>
<trkpt lat="39.917335" lon="9.132282"><ele>1020.25</ele><time>2022-01-03T19:03:49Z</time></trkpt>
<trkpt lat="39.917837" lon="9.132514"><ele>1024.06</ele><time>2022-01-03T19:03:50Z</time></trkpt>
<trkpt lat="39.917909" lon="9.132567"><ele>1025.36</ele><time>2022-01-03T19:03:52Z</time></trkpt>
<trkpt lat="39.917991" lon="9.132691"><ele>1026.83</ele><time>2022-01-03T19:03:53Z</time></trkpt>
<trkpt lat="39.918015" lon="9.13279"><ele>1027.31</ele><time>2022-01-03T19:03:54Z</time></trkpt>
<trkpt lat="39.918036" lon="9.133153"><ele>1029.33</ele><time>2022-01-03T19:03:55Z</time></trkpt>
<trkpt lat="39.918062" lon="9.133324"><ele>1031.06</ele><time>2022-01-03T19:03:56Z</time></trkpt>
<trkpt lat="39.918113" lon="9.133527"><ele>1032.72</ele><time>2022-01-03T19:03:58Z</time></trkpt>
<trkpt lat="39.918184" lon="9.1337"><ele>1033.83</ele><time>2022-01-03T19:03:59Z</time></trkpt>
<trkpt lat="39.91834" lon="9.133966"><ele>1035.83</ele><time>2022-01-03T19:04:00Z</time></trkpt>
<trkpt lat="39.918507" lon="9.134207"><ele>1037.51</ele><time>2022-01-03T19:04:01Z</time></trkpt>
<trkpt lat="39.918764" lon="9.134482"><ele>1039.82</ele><time>2022-01-03T19:04:03Z</time></trkpt>
<trkpt lat="39.918869" lon="9.134555"><ele>1040.73</ele><time>2022-01-03T19:04:04Z</time></trkpt>
<trkpt lat="39.918993" lon="9.134612"><ele>1041.57</ele><time>2022-01-03T19:04:05Z</time></trkpt>
<trkpt lat="39.920284" lon="9.13506"><ele>1033.58</ele><time>2022-01-03T19:04:06Z</time></trkpt>
<trkpt lat="39.920413" lon="9.135147"><ele>1032.88</ele><time>2022-01-03T19:04:08Z</time></trkpt>
<trkpt lat="39.920503" lon="9.135255"><ele>1032.23</ele><time>2022-01-03T19:04:09Z</time></trkpt>
<trkpt lat="39.920638" lon="9.135567"><ele>1030.44</ele><time>2022-01-03T19:04:10Z</time></trkpt>
<trkpt lat="39.920838" lon="9.136164"><ele>1024.14</ele><time>2022-01-03T19:04:11Z</time></trkpt>
<trkpt lat="39.920924" lon="9.136366"><ele>1022.08</ele><time>2022-01-03T19:04:13Z</time></trkpt>
<trkpt lat="39.921038" lon="9.13656"><ele>1021.39</ele><time>2022-01-03T19:04:14Z</time></trkpt>
<trkpt lat="39.921143" lon="9.136812"><ele>1020.11</ele><time>2022-01-03T19:04:15Z</time></trkpt>
<trkpt lat="39.921186" lon="9.137028"><ele>1019.23</ele><time>2022-01-03T19:04:16Z</time></trkpt>
<trkpt lat="39.921188" lon="9.137505"><ele>1016.8</ele><time>2022-01-03T19:04:17Z</time></trkpt>
<trkpt lat="39.921201" lon="9.13763"><ele>1016.04</ele><time>2022-01-03T19:04:19Z</time></trkpt>
<trkpt lat="39.921234" lon="9.13773"><ele>1015.66</ele><time>2022-01-03T19:04:20Z</time></trkpt>
<trkpt lat="39.921321" lon="9.13783"><ele>1016.07</ele><time>2022-01-03T19:04:21Z</time></trkpt>
<trkpt lat="39.921378" lon="9.137862"><ele>1016.58</ele><time>2022-01-03T19:04:22Z</time></trkpt>
<trkpt lat="39.921472" lon="9.137878"><ele>1016.13</ele><time>2022-01-03T19:04:24Z</time></trkpt>
<trkpt lat="39.921569" lon="9.137855"><ele>1015.72</ele><time>2022-01-03T19:04:25Z</time></trkpt>
<trkpt lat="39.921683" lon="9.137802"><ele>1015.52</ele><time>2022-01-03T19:04:26Z</time></trkpt>
<trkpt lat="39.92191" lon="9.137652"><ele>1014.7</ele><time>2022-01-03T19:04:27Z</time></trkpt>
<trkpt lat="39.922058" lon="9.137522"><ele>1016.25</ele><time>2022-01-03T19:04:29Z</time></trkpt>
<trkpt lat="39.922117" lon="9.137505"><ele>1016.31</ele><time>2022-01-03T19:04:30Z</time></trkpt>
<trkpt lat="39.922182" lon="9.137513"><ele>1015.99</ele><time>2022-01-03T19:04:31Z</time></trkpt>
<trkpt lat="39.92226" lon="9.137573"><ele>1015.78</ele><time>2022-01-03T19:04:32Z</time></trkpt>
<trkpt lat="39.922292" lon="9.137641"><ele>1015.62</ele><time>2022-01-03T19:04:34Z</time></trkpt>
<trkpt lat="39.922302" lon="9.137727"><ele>1014.93</ele><time>2022-01-03T19:04:35Z</time></trkpt>
<trkpt lat="39.922144" lon="9.138348"><ele>1009.71</ele><time>2022-01-03T19:04:36Z</time></trkpt>
<trkpt lat="39.922114" lon="9.138604"><ele>1006.51</ele><time>2022-01-03T19:04:37Z</time></trkpt>
<trkpt lat="39.922133" lon="9.139087"><ele>1003.52</ele><time>2022-01-03T19:04:38Z</time></trkpt>
<trkpt lat="39.922184" lon="9.139251"><ele>1003.84</ele><time>2022-01-03T19:04:40Z</time></trkpt>
<trkpt lat="39.922235" lon="9.139324"><ele>1004.6</ele><time>2022-01-03T19:04:41Z</time></trkpt>
<trkpt lat="39.922303" lon="9.139382"><ele>1004.74</ele><time>2022-01-03T19:04:42Z</time></trkpt>
<trkpt lat="39.922431" lon="9.13943"><ele>1004.35</ele><time>2022-01-03T19:04:43Z</time></trkpt>
<trkpt lat="39.922597" lon="9.139388"><ele>1003.35</ele><time>2022-01-03T19:04:45Z</time></trkpt>
<trkpt lat="39.923116" lon="9.139156"><ele>1004.32</ele><time>2022-01-03T19:04:46Z</time></trkpt>
<trkpt lat="39.923261" lon="9.13914"><ele>1004.71</ele><time>2022-01-03T19:04:47Z</time></trkpt>
<trkpt lat="39.92337" lon="9.139173"><ele>1004.16</ele><time>2022-01-03T19:04:48Z</time></trkpt>
<trkpt lat="39.923476" lon="9.139293"><ele>1003.21</ele><time>2022-01-03T19:04:50Z</time></trkpt>
<trkpt lat="39.923518" lon="9.139416"><ele>1002.04</ele><time>2022-01-03T19:04:51Z</time></trkpt>
<trkpt lat="39.923566" lon="9.139904"><ele>997.2</ele><time>2022-01-03T19:04:52Z</time></trkpt>
<trkpt lat="39.923669" lon="9.140578"><ele>988.79</ele><time>2022-01-03T19:04:53Z</time></trkpt>
<trkpt lat="39.923723" lon="9.140686"><ele>987.79</ele><time>2022-01-03T19:04:55Z</time></trkpt>
<trkpt lat="39.923801" lon="9.140759"><ele>988.22</ele><time>2022-01-03T19:04:56Z</time></trkpt>
<trkpt lat="39.923921" lon="9.140801"><ele>989.4</ele><time>2022-01-03T19:04:57Z</time></trkpt>
<trkpt lat="39.923985" lon="9.140799"><ele>989.06</ele><time>2022-01-03T19:04:58Z</time></trkpt>
<trkpt lat="39.924386" lon="9.140717"><ele>987.65</ele><time>2022-01-03T19:04:59Z</time></trkpt>
<trkpt lat="39.924713" lon="9.140564"><ele>987.85</ele><time>2022-01-03T19:05:01Z</time></trkpt>
<trkpt lat="39.925447" lon="9.140148"><ele>991.14</ele><time>2022-01-03T19:05:02Z</time></trkpt>
<trkpt lat="39.925657" lon="9.140084"><ele>990.75</ele><time>2022-01-03T19:05:03Z</time></trkpt>
<trkpt lat="39.925795" lon="9.140065"><ele>990.1</ele><time>2022-01-03T19:05:04Z</time></trkpt>
<trkpt lat="39.926046" lon="9.140124"><ele>987.57</ele><time>2022-01-03T19:05:06Z</time></trkpt>
<trkpt lat="39.926125" lon="9.140164"><ele>986.51</ele><time>2022-01-03T19:05:07Z</time></trkpt>
<trkpt lat="39.92661" lon="9.140555"><ele>980.0</ele><time>2022-01-03T19:05:08Z</time></trkpt>
<trkpt lat="39.926713" lon="9.140679"><ele>979.94</ele><time>2022-01-03T19:05:09Z</time></trkpt>
<trkpt lat="39.926782" lon="9.140923"><ele>979.99</ele><time>2022-01-03T19:05:11Z</time></trkpt>
<trkpt lat="39.926799" lon="9.141107"><ele>980.13</ele><time>2022-01-03T19:05:12Z</time></trkpt>
<trkpt lat="39.926798" lon="9.141439"><ele>978.96</ele><time>2022-01-03T19:05:13Z</time></trkpt>
<trkpt lat="39.926756" lon="9.14175"><ele>978.6</ele><time>2022-01-03T19:05:14Z</time></trkpt>
<trkpt lat="39.926618" lon="9.142147"><ele>978.97</ele><time>2022-01-03T19:05:16Z</time></trkpt>
<trkpt lat="39.926603" lon="9.142224"><ele>978.68</ele><time>2022-01-03T19:05:17Z</time></trkpt>
<trkpt lat="39.926594" lon="9.142339"><ele>978.47</ele><time>2022-01-03T19:05:18Z</time></trkpt>
<trkpt lat="39.926605" lon="9.142482"><ele>977.93</ele><time>2022-01-03T19:05:19Z</time></trkpt>
<trkpt lat="39.926752" lon="9.143094"><ele>979.94</ele><time>2022-01-03T19:05:20Z</time></trkpt>
<trkpt lat="39.926793" lon="9.143374"><ele>980.33</ele><time>2022-01-03T19:05:22Z</time></trkpt>
<trkpt lat="39.926878" lon="9.143774"><ele>978.64</ele><time>2022-01-03T19:05:23Z</time></trkpt>
<trkpt lat="39.926898" lon="9.143944"><ele>979.09</ele><time>2022-01-03T19:05:24Z</time></trkpt>
<trkpt lat="39.926897" lon="9.144222"><ele>981.96</ele><time>2022-01-03T19:05:25Z</time></trkpt>
<trkpt lat="39.926954" lon="9.144581"><ele>983.11</ele><time>2022-01-03T19:05:27Z</time></trkpt>
<trkpt lat="39.927029" lon="9.144774"><ele>982.58</ele><time>2022-01-03T19:05:28Z</time></trkpt>
<trkpt lat="39.927566" lon="9.145779"><ele>976.28</ele><time>2022-01-03T19:05:29Z</time></trkpt>
<trkpt lat="39.9277" lon="9.146175"><ele>972.92</ele><time>2022-01-03T19:05:30Z</time></trkpt>
<trkpt lat="39.92772" lon="9.146366"><ele>972.98</ele><time>2022-01-03T19:05:32Z</time></trkpt>
<trkpt lat="39.9277" lon="9.146466"><ele>973.83</ele><time>2022-01-03T19:05:33Z</time></trkpt>
<trkpt lat="39.927531" lon="9.146834"><ele>977.74</ele><time>2022-01-03T19:05:34Z</time></trkpt>
<trkpt lat="39.92751" lon="9.146929"><ele>977.86</ele><time>2022-01-03T19:05:35Z</time></trkpt>
<trkpt lat="39.927523" lon="9.147099"><ele>977.17</ele><time>2022-01-03T19:05:37Z</time></trkpt>
<trkpt lat="39.927553" lon="9.147166"><ele>976.7</ele><time>2022-01-03T19:05:38Z</time></trkpt>
<trkpt lat="39.927668" lon="9.147279"><ele>976.37</ele><time>2022-01-03T19:05:39Z</time></trkpt>
<trkpt lat="39.928381" lon="9.147806"><ele>977.99</ele><time>2022-01-03T19:05:40Z</time></trkpt>
<trkpt lat="39.928842" lon="9.148011"><ele>976.4</ele><time>2022-01-03T19:05:42Z</time></trkpt>
<trkpt lat="39.929337" lon="9.148321"><ele>975.66</ele><time>2022-01-03T19:05:43Z</time></trkpt>
<trkpt lat="39.92955" lon="9.148509"><ele>976.72</ele><time>2022-01-03T19:05:44Z</time></trkpt>
<trkpt lat="39.929868" lon="9.148868"><ele>979.42</ele><time>2022-01-03T19:05:45Z</time></trkpt>
<trkpt lat="39.930022" lon="9.148981"><ele>979.78</ele><time>2022-01-03T19:05:46Z</time></trkpt>
<trkpt lat="39.930173" lon="9.14903"><ele>979.49</ele><time>2022-01-03T19:05:48Z</time></trkpt>
<trkpt lat="39.930512" lon="9.149034"><ele>976.54</ele><time>2022-01-03T19:05:49Z</time></trkpt>
<trkpt lat="39.930581" lon="9.149053"><ele>976.22</ele><time>2022-01-03T19:05:50Z</time></trkpt>
<trkpt lat="39.930646" lon="9.149098"><ele>976.3</ele><time>2022-01-03T19:05:51Z</time></trkpt>
<trkpt lat="39.9307" lon="9.149164"><ele>976.86</ele><time>2022-01-03T19:05:53Z</time></trkpt>
<trkpt lat="39.930749" lon="9.149294"><ele>977.09</ele><time>2022-01-03T19:05:54Z</time></trkpt>
<trkpt lat="39.930807" lon="9.149837"><ele>980.74</ele><time>2022-01-03T19:05:55Z</time></trkpt>
<trkpt lat="39.93084" lon="9.149984"><ele>981.5</ele><time>2022-01-03T19:05:56Z</time></trkpt>
<trkpt lat="39.930876" lon="9.150078"><ele>981.62</ele><time>2022-01-03T19:05:58Z</time></trkpt>
<trkpt lat="39.931058" lon="9.150329"><ele>979.53</ele><time>2022-01-03T19:05:59Z</time></trkpt>
<trkpt lat="39.931426" lon="9.150725"><ele>982.16</ele><time>2022-01-03T19:06:00Z</time></trkpt>
<trkpt lat="39.931542" lon="9.150812"><ele>982.59</ele><time>2022-01-03T19:06:01Z</time></trkpt>
<trkpt lat="39.931736" lon="9.150887"><ele>981.92</ele><time>2022-01-03T19:06:03Z</time></trkpt>
<trkpt lat="39.932012" lon="9.150924"><ele>979.07</ele><time>2022-01-03T19:06:04Z</time></trkpt>
<trkpt lat="39.932183" lon="9.150988"><ele>978.28</ele><time>2022-01-03T19:06:05Z</time></trkpt>
<trkpt lat="39.932694" lon="9.151496"><ele>982.53</ele><time>2022-01-03T19:06:06Z</time></trkpt>
<trkpt lat="39.93289" lon="9.151711"><ele>980.98</ele><time>2022-01-03T19:06:07Z</time></trkpt>
<trkpt lat="39.932937" lon="9.151817"><ele>980.63</ele><time>2022-01-03T19:06:09Z</time></trkpt>
<trkpt lat="39.932951" lon="9.151926"><ele>981.33</ele><time>2022-01-03T19:06:10Z</time></trkpt>
<trkpt lat="39.932889" lon="9.153313"><ele>983.66</ele><time>2022-01-03T19:06:11Z</time></trkpt>
<trkpt lat="39.932897" lon="9.153418"><ele>984.58</ele><time>2022-01-03T19:06:12Z</time></trkpt>
<trkpt lat="39.932935" lon="9.153576"><ele>985.27</ele><time>2022-01-03T19:06:14Z</time></trkpt>
<trkpt lat="39.933145" lon="9.154054"><ele>983.57</ele><time>2022-01-03T19:06:15Z</time></trkpt>
<trkpt lat="39.933172" lon="9.154191"><ele>983.66</ele><time>2022-01-03T19:06:16Z</time></trkpt>
<trkpt lat="39.93318" lon="9.154345"><ele>982.58</ele><time>2022-01-03T19:06:17Z</time></trkpt>
<trkpt lat="39.933149" lon="9.154645"><ele>982.35</ele><time>2022-01-03T19:06:19Z</time></trkpt>
<trkpt lat="39.933085" lon="9.154994"><ele>983.96</ele><time>2022-01-03T19:06:20Z</time></trkpt>
<trkpt lat="39.932862" lon="9.155635"><ele>992.91</ele><time>2022-01-03T19:06:21Z</time></trkpt>
<trkpt lat="39.932833" lon="9.155885"><ele>990.33</ele><time>2022-01-03T19:06:22Z</time></trkpt>
<trkpt lat="39.932837" lon="9.156163"><ele>987.24</ele><time>2022-01-03T19:06:24Z</time></trkpt>
<trkpt lat="39.932797" lon="9.15699"><ele>989.65</ele><time>2022-01-03T19:06:25Z</time></trkpt>
<trkpt lat="39.932817" lon="9.157259"><ele>987.83</ele><time>2022-01-03T19:06:26Z</time></trkpt>
<trkpt lat="39.932888" lon="9.157464"><ele>986.22</ele><time>2022-01-03T19:06:27Z</time></trkpt>
<trkpt lat="39.933315" lon="9.15806"><ele>987.19</ele><time>2022-01-03T19:06:28Z</time></trkpt>
<trkpt lat="39.933538" lon="9.15853"><ele>980.69</ele><time>2022-01-03T19:06:30Z</time></trkpt>
<trkpt lat="39.933674" lon="9.158741"><ele>978.29</ele><time>2022-01-03T19:06:31Z</time></trkpt>
<trkpt lat="39.933815" lon="9.15885"><ele>977.24</ele><time>2022-01-03T19:06:32Z</time></trkpt>
<trkpt lat="39.933984" lon="9.158929"><ele>977.47</ele><time>2022-01-03T19:06:33Z</time></trkpt>
<trkpt lat="39.934745" lon="9.159161"><ele>980.58</ele><time>2022-01-03T19:06:35Z</time></trkpt>
<trkpt lat="39.934849" lon="9.159213"><ele>981.08</ele><time>2022-01-03T19:06:36Z</time></trkpt>
<trkpt lat="39.934905" lon="9.159273"><ele>980.84</ele><time>2022-01-03T19:06:37Z</time></trkpt>
<trkpt lat="39.934973" lon="9.159385"><ele>980.28</ele><time>2022-01-03T19:06:38Z</time></trkpt>
<trkpt lat="39.935083" lon="9.159701"><ele>975.9</ele><time>2022-01-03T19:06:40Z</time></trkpt>
<trkpt lat="39.935164" lon="9.159826"><ele>973.69</ele><time>2022-01-03T19:06:41Z</time></trkpt>
<trkpt lat="39.935415" lon="9.160124"><ele>971.17</ele><time>2022-01-03T19:06:42Z</time></trkpt>
<trkpt lat="39.935693" lon="9.160391"><ele>973.31</ele><time>2022-01-03T19:06:43Z</time></trkpt>
<trkpt lat="39.93574" lon="9.160456"><ele>973.56</ele><time>2022-01-03T19:06:45Z</time></trkpt>
<trkpt lat="39.9358" lon="9.160578"><ele>973.02</ele><time>2022-01-03T19:06:46Z</time></trkpt>
<trkpt lat="39.935845" lon="9.160714"><ele>970.93</ele><time>2022-01-03T19:06:47Z</time></trkpt>
<trkpt lat="39.935919" lon="9.161038"><ele>965.37</ele><time>2022-01-03T19:06:48Z</time></trkpt>
<trkpt lat="39.936085" lon="9.161375"><ele>963.49</ele><time>2022-01-03T19:06:49Z</time></trkpt>
<trkpt lat="39.936262" lon="9.161599"><ele>962.92</ele><time>2022-01-03T19:06:51Z</time></trkpt>
<trkpt lat="39.936464" lon="9.161739"><ele>964.74</ele><time>2022-01-03T19:06:52Z</time></trkpt>
<trkpt lat="39.936607" lon="9.161872"><ele>965.54</ele><time>2022-01-03T19:06:53Z</time></trkpt>
<trkpt lat="39.936754" lon="9.162135"><ele>962.84</ele><time>2022-01-03T19:06:54Z</time></trkpt>
<trkpt lat="39.936802" lon="9.16234"><ele>960.43</ele><time>2022-01-03T19:06:56Z</time></trkpt>
<trkpt lat="39.936833" lon="9.162709"><ele>958.45</ele><time>2022-01-03T19:06:57Z</time></trkpt>
<trkpt lat="39.936831" lon="9.163516"><ele>956.26</ele><time>2022-01-03T19:06:58Z</time></trkpt>
<trkpt lat="39.936847" lon="9.163708"><ele>955.84</ele><time>2022-01-03T19:06:59Z</time></trkpt>
<trkpt lat="39.936902" lon="9.164105"><ele>954.82</ele><time>2022-01-03T19:07:01Z</time></trkpt>
<trkpt lat="39.937013" lon="9.164583"><ele>951.99</ele><time>2022-01-03T19:07:02Z</time></trkpt>
<trkpt lat="39.937101" lon="9.164836"><ele>950.89</ele><time>2022-01-03T19:07:03Z</time></trkpt>
<trkpt lat="39.937216" lon="9.165095"><ele>951.31</ele><time>2022-01-03T19:07:04Z</time></trkpt>
<trkpt lat="39.937323" lon="9.165528"><ele>948.91</ele><time>2022-01-03T19:07:06Z</time></trkpt>
<trkpt lat="39.937346" lon="9.165828"><ele>943.58</ele><time>2022-01-03T19:07:07Z</time></trkpt>
<trkpt lat="39.937324" lon="9.166311"><ele>940.05</ele><time>2022-01-03T19:07:08Z</time></trkpt>
<trkpt lat="39.93734" lon="9.166396"><ele>940.48</ele><time>2022-01-03T19:07:09Z</time></trkpt>
<trkpt lat="39.937428" lon="9.166549"><ele>940.17</ele><time>2022-01-03T19:07:10Z</time></trkpt>
<trkpt lat="39.937471" lon="9.166593"><ele>940.01</ele><time>2022-01-03T19:07:12Z</time></trkpt>
<trkpt lat="39.937547" lon="9.166627"><ele>939.78</ele><time>2022-01-03T19:07:13Z</time></trkpt>
<trkpt lat="39.938273" lon="9.166728"><ele>939.47</ele><time>2022-01-03T19:07:14Z</time></trkpt>
<trkpt lat="39.938538" lon="9.166813"><ele>939.35</ele><time>2022-01-03T19:07:15Z</time></trkpt>
<trkpt lat="39.938717" lon="9.166935"><ele>937.46</ele><time>2022-01-03T19:07:17Z</time></trkpt>
<trkpt lat="39.939291" lon="9.167401"><ele>932.74</ele><time>2022-01-03T19:07:18Z</time></trkpt>
<trkpt lat="39.939766" lon="9.167663"><ele>930.04</ele><time>2022-01-03T19:07:19Z</time></trkpt>
<trkpt lat="39.939894" lon="9.167647"><ele>929.0</ele><time>2022-01-03T19:07:20Z</time></trkpt>
<trkpt lat="39.939994" lon="9.167573"><ele>929.02</ele><time>2022-01-03T19:07:22Z</time></trkpt>
<trkpt lat="39.94031" lon="9.167127"><ele>929.37</ele><time>2022-01-03T19:07:23Z</time></trkpt>
<trkpt lat="39.940384" lon="9.167056"><ele>928.72</ele><time>2022-01-03T19:07:24Z</time></trkpt>
<trkpt lat="39.940688" lon="9.166874"><ele>927.83</ele><time>2022-01-03T19:07:25Z</time></trkpt>
<trkpt lat="39.941136" lon="9.166657"><ele>929.02</ele><time>2022-01-03T19:07:27Z</time></trkpt>
<trkpt lat="39.941561" lon="9.166645"><ele>928.45</ele><time>2022-01-03T19:07:28Z</time></trkpt>
<trkpt lat="39.94166" lon="9.16667"><ele>928.83</ele><time>2022-01-03T19:07:29Z</time></trkpt>
<trkpt lat="39.941717" lon="9.166717"><ele>928.54</ele><time>2022-01-03T19:07:30Z</time></trkpt>
<trkpt lat="39.941766" lon="9.166806"><ele>927.31</ele><time>2022-01-03T19:07:32Z</time></trkpt>
<trkpt lat="39.942068" lon="9.167598"><ele>923.49</ele><time>2022-01-03T19:07:33Z</time></trkpt>
<trkpt lat="39.942145" lon="9.167835"><ele>923.12</ele><time>2022-01-03T19:07:34Z</time></trkpt>
<trkpt lat="39.942289" lon="9.16842"><ele>917.94</ele><time>2022-01-03T19:07:35Z</time></trkpt>
<trkpt lat="39.94248" lon="9.169046"><ele>914.24</ele><time>2022-01-03T19:07:36Z</time></trkpt>
<trkpt lat="39.942762" lon="9.170331"><ele>913.8</ele><time>2022-01-03T19:07:38Z</time></trkpt>
<trkpt lat="39.943116" lon="9.171145"><ele>912.58</ele><time>2022-01-03T19:07:39Z</time></trkpt>
<trkpt lat="39.943606" lon="9.17208"><ele>903.1</ele><time>2022-01-03T19:07:40Z</time></trkpt>
<trkpt lat="39.943751" lon="9.172548"><ele>903.8</ele><time>2022-01-03T19:07:41Z</time></trkpt>
<trkpt lat="39.943788" lon="9.172842"><ele>900.97</ele><time>2022-01-03T19:07:43Z</time></trkpt>
<trkpt lat="39.943768" lon="9.173014"><ele>898.25</ele><time>2022-01-03T19:07:44Z</time></trkpt>
<trkpt lat="39.943721" lon="9.173148"><ele>897.03</ele><time>2022-01-03T19:07:45Z</time></trkpt>
<trkpt lat="39.943636" lon="9.173246"><ele>897.79</ele><time>2022-01-03T19:07:46Z</time></trkpt>
<trkpt lat="39.943252" lon="9.173561"><ele>899.84</ele><time>2022-01-03T19:07:48Z</time></trkpt>
<trkpt lat="39.942791" lon="9.173814"><ele>899.91</ele><time>2022-01-03T19:07:49Z</time></trkpt>
<trkpt lat="39.94255" lon="9.174008"><ele>898.26</ele><time>2022-01-03T19:07:50Z</time></trkpt>
<trkpt lat="39.942472" lon="9.174108"><ele>896.97</ele><time>2022-01-03T19:07:51Z</time></trkpt>
<trkpt lat="39.942181" lon="9.174985"><ele>889.59</ele><time>2022-01-03T19:07:53Z</time></trkpt>
<trkpt lat="39.942158" lon="9.175264"><ele>890.99</ele><time>2022-01-03T19:07:54Z</time></trkpt>
<trkpt lat="39.942183" lon="9.175614"><ele>888.39</ele><time>2022-01-03T19:07:55Z</time></trkpt>
<trkpt lat="39.942429" lon="9.176743"><ele>879.29</ele><time>2022-01-03T19:07:56Z</time></trkpt>
<trkpt lat="39.942651" lon="9.177294"><ele>872.36</ele><time>2022-01-03T19:07:57Z</time></trkpt>
<trkpt lat="39.942726" lon="9.177553"><ele>870.64</ele><time>2022-01-03T19:07:59Z</time></trkpt>
<trkpt lat="39.942763" lon="9.177802"><ele>869.27</ele><time>2022-01-03T19:08:00Z</time></trkpt>
<trkpt lat="39.942771" lon="9.178088"><ele>867.23</ele><time>2022-01-03T19:08:01Z</time></trkpt>
<trkpt lat="39.942653" lon="9.178571"><ele>866.82</ele><time>2022-01-03T19:08:02Z</time></trkpt>
<trkpt lat="39.942589" lon="9.178967"><ele>864.21</ele><time>2022-01-03T19:08:04Z</time></trkpt>
<trkpt lat="39.942588" lon="9.179189"><ele>862.89</ele><time>2022-01-03T19:08:05Z</time></trkpt>
<trkpt lat="39.942611" lon="9.179368"><ele>862.13</ele><time>2022-01-03T19:08:06Z</time></trkpt>
<trkpt lat="39.942747" lon="9.179947"><ele>861.8</ele><time>2022-01-03T19:08:07Z</time></trkpt>
<trkpt lat="39.942976" lon="9.181105"><ele>860.13</ele><time>2022-01-03T19:08:09Z</time></trkpt>
<trkpt lat="39.942938" lon="9.181163"><ele>859.68</ele><time>2022-01-03T19:08:11Z</time></trkpt>
<trkpt lat="39.942919" lon="9.181292"><ele>859.22</ele><time>2022-01-03T19:08:12Z</time></trkpt>
<trkpt lat="39.942914" lon="9.18147"><ele>859.09</ele><time>2022-01-03T19:08:14Z</time></trkpt>
<trkpt lat="39.942954" lon="9.181863"><ele>859.48</ele><time>2022-01-03T19:08:16Z</time></trkpt>
<trkpt lat="39.942954" lon="9.182148"><ele>859.28</ele><time>2022-01-03T19:08:18Z</time></trkpt>
<trkpt lat="39.94294" lon="9.182442"><ele>858.99</ele><time>2022-01-03T19:08:19Z</time></trkpt>
<trkpt lat="39.942911" lon="9.182664"><ele>858.93</ele><time>2022-01-03T19:08:21Z</time></trkpt>
<trkpt lat="39.942853" lon="9.182954"><ele>857.07</ele><time>2022-01-03T19:08:23Z</time></trkpt>
<trkpt lat="39.942638" lon="9.183571"><ele>850.66</ele><time>2022-01-03T19:08:25Z</time></trkpt>
<trkpt lat="39.942547" lon="9.18379"><ele>847.77</ele><time>2022-01-03T19:08:27Z</time></trkpt>
<trkpt lat="39.94255" lon="9.18408"><ele>846.72</ele><time>2022-01-03T19:08:28Z</time></trkpt>
<trkpt lat="39.942572" lon="9.184181"><ele>846.55</ele><time>2022-01-03T19:08:30Z</time></trkpt>
<trkpt lat="39.942677" lon="9.184335"><ele>846.99</ele><time>2022-01-03T19:08:32Z</time></trkpt>
<trkpt lat="39.942997" lon="9.184515"><ele>850.63</ele><time>2022-01-03T19:08:34Z</time></trkpt>
<trkpt lat="39.943173" lon="9.184755"><ele>850.14</ele><time>2022-01-03T19:08:35Z</time></trkpt>
<trkpt lat="39.943274" lon="9.185112"><ele>849.9</ele><time>2022-01-03T19:08:37Z</time></trkpt>
<trkpt lat="39.94329" lon="9.185424"><ele>848.07</ele><time>2022-01-03T19:08:39Z</time></trkpt>
<trkpt lat="39.94326" lon="9.185603"><ele>845.72</ele><time>2022-01-03T19:08:41Z</time></trkpt>
<trkpt lat="39.943243" lon="9.18602"><ele>844.21</ele><time>2022-01-03T19:08:43Z</time></trkpt>
<trkpt lat="39.943278" lon="9.186256"><ele>844.55</ele><time>2022-01-03T19:08:44Z</time></trkpt>
<trkpt lat="39.94334" lon="9.186521"><ele>844.81</ele><time>2022-01-03T19:08:46Z</time></trkpt>
<trkpt lat="39.943446" lon="9.187351"><ele>842.74</ele><time>2022-01-03T19:08:48Z</time></trkpt>
<trkpt lat="39.943424" lon="9.187476"><ele>842.2</ele><time>2022-01-03T19:08:50Z</time></trkpt>
<trkpt lat="39.943229" lon="9.187894"><ele>835.82</ele><time>2022-01-03T19:08:51Z</time></trkpt>
<trkpt lat="39.943219" lon="9.187995"><ele>835.99</ele><time>2022-01-03T19:08:53Z</time></trkpt>
<trkpt lat="39.943227" lon="9.188771"><ele>841.73</ele><time>2022-01-03T19:08:55Z</time></trkpt>
<trkpt lat="39.94321" lon="9.188845"><ele>841.66</ele><time>2022-01-03T19:08:57Z</time></trkpt>
<trkpt lat="39.943168" lon="9.188915"><ele>841.16</ele><time>2022-01-03T19:08:59Z</time></trkpt>
<trkpt lat="39.943094" lon="9.188965"><ele>840.63</ele><time>2022-01-03T19:09:00Z</time></trkpt>
<trkpt lat="39.94301" lon="9.188964"><ele>840.12</ele><time>2022-01-03T19:09:02Z</time></trkpt>
<trkpt lat="39.942939" lon="9.188914"><ele>840.24</ele><time>2022-01-03T19:09:04Z</time></trkpt>
<trkpt lat="39.942284" lon="9.188149"><ele>837.04</ele><time>2022-01-03T19:09:06Z</time></trkpt>
<trkpt lat="39.942187" lon="9.188094"><ele>837.25</ele><time>2022-01-03T19:09:07Z</time></trkpt>
<trkpt lat="39.942097" lon="9.188066"><ele>837.18</ele><time>2022-01-03T19:09:09Z</time></trkpt>
<trkpt lat="39.941261" lon="9.187942"><ele>839.08</ele><time>2022-01-03T19:09:11Z</time></trkpt>
<trkpt lat="39.941106" lon="9.187955"><ele>840.07</ele><time>2022-01-03T19:09:13Z</time></trkpt>
<trkpt lat="39.940689" lon="9.188109"><ele>842.07</ele><time>2022-01-03T19:09:14Z</time></trkpt>
<trkpt lat="39.940557" lon="9.188131"><ele>841.2</ele><time>2022-01-03T19:09:16Z</time></trkpt>
<trkpt lat="39.940465" lon="9.188104"><ele>840.18</ele><time>2022-01-03T19:09:18Z</time></trkpt>
<trkpt lat="39.940364" lon="9.188008"><ele>838.79</ele><time>2022-01-03T19:09:20Z</time></trkpt>
<trkpt lat="39.940326" lon="9.187876"><ele>838.55</ele><time>2022-01-03T19:09:22Z</time></trkpt>
<trkpt lat="39.940333" lon="9.187687"><ele>838.6</ele><time>2022-01-03T19:09:23Z</time></trkpt>
<trkpt lat="39.94042" lon="9.187333"><ele>839.01</ele><time>2022-01-03T19:09:25Z</time></trkpt>
<trkpt lat="39.940516" lon="9.187095"><ele>840.4</ele><time>2022-01-03T19:09:27Z</time></trkpt>
<trkpt lat="39.940582" lon="9.186969"><ele>841.63</ele><time>2022-01-03T19:09:29Z</time></trkpt>
<trkpt lat="39.941046" lon="9.186534"><ele>837.47</ele><time>2022-01-03T19:09:30Z</time></trkpt>
<trkpt lat="39.941124" lon="9.186424"><ele>836.56</ele><time>2022-01-03T19:09:32Z</time></trkpt>
<trkpt lat="39.941165" lon="9.186257"><ele>836.22</ele><time>2022-01-03T19:09:34Z</time></trkpt>
<trkpt lat="39.941161" lon="9.186072"><ele>836.01</ele><time>2022-01-03T19:09:36Z</time></trkpt>
<trkpt lat="39.941117" lon="9.185914"><ele>835.49</ele><time>2022-01-03T19:09:38Z</time></trkpt>
<trkpt lat="39.941051" lon="9.185746"><ele>834.51</ele><time>2022-01-03T19:09:39Z</time></trkpt>
<trkpt lat="39.940877" lon="9.185581"><ele>834.67</ele><time>2022-01-03T19:09:41Z</time></trkpt>
<trkpt lat="39.940555" lon="9.185475"><ele>838.44</ele><time>2022-01-03T19:09:43Z</time></trkpt>
<trkpt lat="39.940445" lon="9.185394"><ele>840.86</ele><time>2022-01-03T19:09:45Z</time></trkpt>
<trkpt lat="39.940359" lon="9.185278"><ele>842.67</ele><time>2022-01-03T19:09:46Z</time></trkpt>
<trkpt lat="39.940324" lon="9.185109"><ele>842.95</ele><time>2022-01-03T19:09:48Z</time></trkpt>
<trkpt lat="39.940314" lon="9.184896"><ele>841.76</ele><time>2022-01-03T19:09:50Z</time></trkpt>
<trkpt lat="39.940421" lon="9.183833"><ele>830.88</ele><time>2022-01-03T19:09:52Z</time></trkpt>
<trkpt lat="39.940381" lon="9.183541"><ele>828.91</ele><time>2022-01-03T19:09:53Z</time></trkpt>
<trkpt lat="39.940273" lon="9.183312"><ele>828.58</ele><time>2022-01-03T19:09:55Z</time></trkpt>
<trkpt lat="39.940207" lon="9.183232"><ele>827.57</ele><time>2022-01-03T19:09:57Z</time></trkpt>
<trkpt lat="39.940089" lon="9.183126"><ele>826.57</ele><time>2022-01-03T19:09:59Z</time></trkpt>
<trkpt lat="39.939805" lon="9.182949"><ele>826.03</ele><time>2022-01-03T19:10:01Z</time></trkpt>
<trkpt lat="39.939712" lon="9.182925"><ele>826.23</ele><time>2022-01-03T19:10:02Z</time></trkpt>
<trkpt lat="39.939614" lon="9.182928"><ele>826.84</ele><time>2022-01-03T19:10:04Z</time></trkpt>
<trkpt lat="39.939328" lon="9.182996"><ele>830.34</ele><time>2022-01-03T19:10:06Z</time></trkpt>
<trkpt lat="39.939237" lon="9.182982"><ele>830.64</ele><time>2022-01-03T19:10:08Z</time></trkpt>
<trkpt lat="39.939086" lon="9.182889"><ele>830.36</ele><time>2022-01-03T19:10:09Z</time></trkpt>
<trkpt lat="39.938979" lon="9.182761"><ele>829.11</ele><time>2022-01-03T19:10:11Z</time></trkpt>
<trkpt lat="39.938947" lon="9.182663"><ele>828.22</ele><time>2022-01-03T19:10:13Z</time></trkpt>
<trkpt lat="39.938932" lon="9.182534"><ele>826.58</ele><time>2022-01-03T19:10:15Z</time></trkpt>
<trkpt lat="39.938945" lon="9.182393"><ele>825.71</ele><time>2022-01-03T19:10:17Z</time></trkpt>
<trkpt lat="39.939089" lon="9.181924"><ele>821.55</ele><time>2022-01-03T19:10:18Z</time></trkpt>
<trkpt lat="39.939117" lon="9.181776"><ele>820.25</ele><time>2022-01-03T19:10:20Z</time></trkpt>
<trkpt lat="39.939109" lon="9.181671"><ele>819.85</ele><time>2022-01-03T19:10:22Z</time></trkpt>
<trkpt lat="39.939068" lon="9.181536"><ele>818.85</ele><time>2022-01-03T19:10:24Z</time></trkpt>
<trkpt lat="39.939004" lon="9.181418"><ele>818.14</ele><time>2022-01-03T19:10:25Z</time></trkpt>
<trkpt lat="39.938882" lon="9.181314"><ele>817.7</ele><time>2022-01-03T19:10:27Z</time></trkpt>
<trkpt lat="39.938765" lon="9.181288"><ele>817.75</ele><time>2022-01-03T19:10:29Z</time></trkpt>
<trkpt lat="39.938599" lon="9.181302"><ele>818.99</ele><time>2022-01-03T19:10:31Z</time></trkpt>
<trkpt lat="39.938468" lon="9.181282"><ele>820.38</ele><time>2022-01-03T19:10:32Z</time></trkpt>
<trkpt lat="39.93829" lon="9.18117"><ele>820.66</ele><time>2022-01-03T19:10:34Z</time></trkpt>
<trkpt lat="39.938169" lon="9.181029"><ele>820.71</ele><time>2022-01-03T19:10:36Z</time></trkpt>
<trkpt lat="39.938109" lon="9.180918"><ele>820.61</ele><time>2022-01-03T19:10:38Z</time></trkpt>
<trkpt lat="39.938076" lon="9.180791"><ele>820.04</ele><time>2022-01-03T19:10:40Z</time></trkpt>
<trkpt lat="39.938093" lon="9.180441"><ele>817.1</ele><time>2022-01-03T19:10:41Z</time></trkpt>
<trkpt lat="39.938086" lon="9.180277"><ele>816.1</ele><time>2022-01-03T19:10:43Z</time></trkpt>
<trkpt lat="39.938057" lon="9.18012"><ele>815.26</ele><time>2022-01-03T19:10:45Z</time></trkpt>
<trkpt lat="39.937995" lon="9.179994"><ele>815.41</ele><time>2022-01-03T19:10:47Z</time></trkpt>
<trkpt lat="39.93762" lon="9.179627"><ele>817.18</ele><time>2022-01-03T19:10:48Z</time></trkpt>
<trkpt lat="39.937567" lon="9.179542"><ele>817.49</ele><time>2022-01-03T19:10:50Z</time></trkpt>
<trkpt lat="39.937531" lon="9.179443"><ele>817.09</ele><time>2022-01-03T19:10:52Z</time></trkpt>
<trkpt lat="39.937455" lon="9.178932"><ele>811.7</ele><time>2022-01-03T19:10:54Z</time></trkpt>
<trkpt lat="39.937419" lon="9.178801"><ele>810.71</ele><time>2022-01-03T19:10:56Z</time></trkpt>
<trkpt lat="39.937231" lon="9.178399"><ele>808.75</ele><time>2022-01-03T19:10:57Z</time></trkpt>
<trkpt lat="39.937098" lon="9.178175"><ele>808.41</ele><time>2022-01-03T19:10:59Z</time></trkpt>
<trkpt lat="39.936717" lon="9.177879"><ele>810.73</ele><time>2022-01-03T19:11:01Z</time></trkpt>
<trkpt lat="39.936587" lon="9.177753"><ele>811.09</ele><time>2022-01-03T19:11:03Z</time></trkpt>
<trkpt lat="39.93605" lon="9.176982"><ele>805.17</ele><time>2022-01-03T19:11:04Z</time></trkpt>
<trkpt lat="39.935915" lon="9.176856"><ele>804.07</ele><time>2022-01-03T19:11:06Z</time></trkpt>
<trkpt lat="39.935761" lon="9.176746"><ele>802.43</ele><time>2022-01-03T19:11:08Z</time></trkpt>
<trkpt lat="39.93562" lon="9.176676"><ele>800.31</ele><time>2022-01-03T19:11:10Z</time></trkpt>
<trkpt lat="39.935426" lon="9.176642"><ele>799.44</ele><time>2022-01-03T19:11:11Z</time></trkpt>
<trkpt lat="39.935128" lon="9.176668"><ele>799.94</ele><time>2022-01-03T19:11:13Z</time></trkpt>
<trkpt lat="39.934983" lon="9.176711"><ele>799.16</ele><time>2022-01-03T19:11:15Z</time></trkpt>
<trkpt lat="39.93486" lon="9.176807"><ele>795.99</ele><time>2022-01-03T19:11:17Z</time></trkpt>
<trkpt lat="39.934774" lon="9.17693"><ele>794.05</ele><time>2022-01-03T19:11:19Z</time></trkpt>
<trkpt lat="39.934697" lon="9.177137"><ele>793.47</ele><time>2022-01-03T19:11:20Z</time></trkpt>
<trkpt lat="39.934531" lon="9.177967"><ele>797.84</ele><time>2022-01-03T19:11:22Z</time></trkpt>
<trkpt lat="39.934197" lon="9.179186"><ele>797.03</ele><time>2022-01-03T19:11:24Z</time></trkpt>
<trkpt lat="39.934084" lon="9.179362"><ele>797.91</ele><time>2022-01-03T19:11:26Z</time></trkpt>
<trkpt lat="39.933977" lon="9.179461"><ele>798.42</ele><time>2022-01-03T19:11:27Z</time></trkpt>
<trkpt lat="39.933835" lon="9.179497"><ele>798.66</ele><time>2022-01-03T19:11:29Z</time></trkpt>
<trkpt lat="39.933692" lon="9.179504"><ele>798.78</ele><time>2022-01-03T19:11:31Z</time></trkpt>
<trkpt lat="39.933568" lon="9.179466"><ele>798.09</ele><time>2022-01-03T19:11:33Z</time></trkpt>
<trkpt lat="39.933457" lon="9.179371"><ele>797.48</ele><time>2022-01-03T19:11:35Z</time></trkpt>
<trkpt lat="39.933405" lon="9.179274"><ele>796.62</ele><time>2022-01-03T19:11:36Z</time></trkpt>
<trkpt lat="39.933314" lon="9.178779"><ele>792.82</ele><time>2022-01-03T19:11:38Z</time></trkpt>
<trkpt lat="39.932966" lon="9.177981"><ele>790.94</ele><time>2022-01-03T19:11:40Z</time></trkpt>
<trkpt lat="39.932855" lon="9.177866"><ele>790.47</ele><time>2022-01-03T19:11:42Z</time></trkpt>
<trkpt lat="39.932743" lon="9.177812"><ele>790.76</ele><time>2022-01-03T19:11:43Z</time></trkpt>
<trkpt lat="39.932519" lon="9.177805"><ele>791.62</ele><time>2022-01-03T19:11:45Z</time></trkpt>
<trkpt lat="39.93239" lon="9.177778"><ele>791.79</ele><time>2022-01-03T19:11:47Z</time></trkpt>
<trkpt lat="39.932255" lon="9.177712"><ele>790.93</ele><time>2022-01-03T19:11:49Z</time></trkpt>
<trkpt lat="39.932013" lon="9.177398"><ele>788.36</ele><time>2022-01-03T19:11:50Z</time></trkpt>
<trkpt lat="39.931894" lon="9.177277"><ele>787.16</ele><time>2022-01-03T19:11:52Z</time></trkpt>
<trkpt lat="39.931799" lon="9.177239"><ele>787.08</ele><time>2022-01-03T19:11:54Z</time></trkpt>
<trkpt lat="39.930627" lon="9.177288"><ele>785.1</ele><time>2022-01-03T19:11:56Z</time></trkpt>
<trkpt lat="39.930375" lon="9.177323"><ele>784.21</ele><time>2022-01-03T19:11:58Z</time></trkpt>
<trkpt lat="39.929973" lon="9.17742"><ele>782.76</ele><time>2022-01-03T19:11:59Z</time></trkpt>
<trkpt lat="39.929774" lon="9.177407"><ele>782.88</ele><time>2022-01-03T19:12:01Z</time></trkpt>
<trkpt lat="39.929608" lon="9.177262"><ele>781.43</ele><time>2022-01-03T19:12:03Z</time></trkpt>
<trkpt lat="39.929307" lon="9.176773"><ele>777.66</ele><time>2022-01-03T19:12:05Z</time></trkpt>
<trkpt lat="39.929208" lon="9.176664"><ele>776.32</ele><time>2022-01-03T19:12:06Z</time></trkpt>
<trkpt lat="39.929117" lon="9.176593"><ele>774.61</ele><time>2022-01-03T19:12:08Z</time></trkpt>
<trkpt lat="39.928986" lon="9.176554"><ele>773.34</ele><time>2022-01-03T19:12:10Z</time></trkpt>
<trkpt lat="39.928869" lon="9.176545"><ele>772.68</ele><time>2022-01-03T19:12:12Z</time></trkpt>
<trkpt lat="39.928548" lon="9.176683"><ele>771.27</ele><time>2022-01-03T19:12:14Z</time></trkpt>
<trkpt lat="39.928229" lon="9.176881"><ele>772.07</ele><time>2022-01-03T19:12:15Z</time></trkpt>
<trkpt lat="39.92808" lon="9.176953"><ele>772.56</ele><time>2022-01-03T19:12:17Z</time></trkpt>
<trkpt lat="39.927968" lon="9.176993"><ele>773.85</ele><time>2022-01-03T19:12:19Z</time></trkpt>
<trkpt lat="39.927603" lon="9.17702"><ele>772.24</ele><time>2022-01-03T19:12:21Z</time></trkpt>
<trkpt lat="39.927502" lon="9.177074"><ele>771.44</ele><time>2022-01-03T19:12:22Z</time></trkpt>
<trkpt lat="39.927414" lon="9.177163"><ele>769.64</ele><time>2022-01-03T19:12:24Z</time></trkpt>
<trkpt lat="39.927353" lon="9.177297"><ele>769.19</ele><time>2022-01-03T19:12:26Z</time></trkpt>
<trkpt lat="39.92732" lon="9.177482"><ele>770.31</ele><time>2022-01-03T19:12:28Z</time></trkpt>
<trkpt lat="39.927318" lon="9.177641"><ele>772.64</ele><time>2022-01-03T19:12:29Z</time></trkpt>
<trkpt lat="39.927285" lon="9.177812"><ele>774.37</ele><time>2022-01-03T19:12:31Z</time></trkpt>
<trkpt lat="39.927154" lon="9.178061"><ele>775.49</ele><time>2022-01-03T19:12:33Z</time></trkpt>
<trkpt lat="39.927049" lon="9.178176"><ele>775.59</ele><time>2022-01-03T19:12:35Z</time></trkpt>
<trkpt lat="39.926587" lon="9.178356"><ele>769.25</ele><time>2022-01-03T19:12:37Z</time></trkpt>
<trkpt lat="39.926274" lon="9.17855"><ele>769.07</ele><time>2022-01-03T19:12:38Z</time></trkpt>
<trkpt lat="39.926157" lon="9.178663"><ele>770.58</ele><time>2022-01-03T19:12:40Z</time></trkpt>
<trkpt lat="39.926018" lon="9.178864"><ele>773.59</ele><time>2022-01-03T19:12:42Z</time></trkpt>
<trkpt lat="39.925823" lon="9.179247"><ele>776.23</ele><time>2022-01-03T19:12:44Z</time></trkpt>
<trkpt lat="39.925764" lon="9.179326"><ele>775.14</ele><time>2022-01-03T19:12:45Z</time></trkpt>
<trkpt lat="39.925313" lon="9.179772"><ele>769.84</ele><time>2022-01-03T19:12:47Z</time></trkpt>
<trkpt lat="39.925026" lon="9.180279"><ele>769.25</ele><time>2022-01-03T19:12:49Z</time></trkpt>
<trkpt lat="39.924913" lon="9.180419"><ele>769.16</ele><time>2022-01-03T19:12:51Z</time></trkpt>
<trkpt lat="39.924645" lon="9.180675"><ele>768.52</ele><time>2022-01-03T19:12:53Z</time></trkpt>
<trkpt lat="39.924143" lon="9.181051"><ele>764.76</ele><time>2022-01-03T19:12:54Z</time></trkpt>
<trkpt lat="39.924046" lon="9.181155"><ele>764.38</ele><time>2022-01-03T19:12:56Z</time></trkpt>
<trkpt lat="39.923875" lon="9.181455"><ele>765.23</ele><time>2022-01-03T19:12:58Z</time></trkpt>
<trkpt lat="39.923842" lon="9.181608"><ele>765.95</ele><time>2022-01-03T19:13:00Z</time></trkpt>
<trkpt lat="39.923845" lon="9.181733"><ele>766.26</ele><time>2022-01-03T19:13:01Z</time></trkpt>
<trkpt lat="39.923876" lon="9.181862"><ele>766.23</ele><time>2022-01-03T19:13:03Z</time></trkpt>
<trkpt lat="39.92393" lon="9.181937"><ele>766.22</ele><time>2022-01-03T19:13:05Z</time></trkpt>
<trkpt lat="39.924016" lon="9.181997"><ele>765.12</ele><time>2022-01-03T19:13:07Z</time></trkpt>
<trkpt lat="39.924831" lon="9.182297"><ele>767.77</ele><time>2022-01-03T19:13:08Z</time></trkpt>
<trkpt lat="39.925044" lon="9.182405"><ele>767.16</ele><time>2022-01-03T19:13:10Z</time></trkpt>
<trkpt lat="39.925117" lon="9.182488"><ele>767.57</ele><time>2022-01-03T19:13:12Z</time></trkpt>
<trkpt lat="39.925463" lon="9.183035"><ele>763.28</ele><time>2022-01-03T19:13:14Z</time></trkpt>
<trkpt lat="39.925672" lon="9.183187"><ele>763.1</ele><time>2022-01-03T19:13:16Z</time></trkpt>
<trkpt lat="39.927185" lon="9.183734"><ele>761.11</ele><time>2022-01-03T19:13:17Z</time></trkpt>
<trkpt lat="39.927344" lon="9.183782"><ele>762.11</ele><time>2022-01-03T19:13:19Z</time></trkpt>
<trkpt lat="39.927999" lon="9.183914"><ele>765.73</ele><time>2022-01-03T19:13:21Z</time></trkpt>
<trkpt lat="39.928061" lon="9.183969"><ele>765.73</ele><time>2022-01-03T19:13:23Z</time></trkpt>
<trkpt lat="39.928111" lon="9.18405"><ele>765.78</ele><time>2022-01-03T19:13:24Z</time></trkpt>
<trkpt lat="39.928124" lon="9.184159"><ele>764.12</ele><time>2022-01-03T19:13:26Z</time></trkpt>
<trkpt lat="39.928113" lon="9.18426"><ele>764.53</ele><time>2022-01-03T19:13:28Z</time></trkpt>
<trkpt lat="39.928071" lon="9.184362"><ele>764.47</ele><time>2022-01-03T19:13:30Z</time></trkpt>
<trkpt lat="39.927221" lon="9.18507"><ele>759.76</ele><time>2022-01-03T19:13:32Z</time></trkpt>
<trkpt lat="39.927084" lon="9.185132"><ele>760.07</ele><time>2022-01-03T19:13:33Z</time></trkpt>
<trkpt lat="39.926823" lon="9.185205"><ele>759.14</ele><time>2022-01-03T19:13:35Z</time></trkpt>
<trkpt lat="39.926528" lon="9.185328"><ele>757.19</ele><time>2022-01-03T19:13:37Z</time></trkpt>
<trkpt lat="39.926403" lon="9.185416"><ele>756.77</ele><time>2022-01-03T19:13:39Z</time></trkpt>
<trkpt lat="39.926018" lon="9.185785"><ele>756.94</ele><time>2022-01-03T19:13:40Z</time></trkpt>
<trkpt lat="39.925556" lon="9.186447"><ele>759.42</ele><time>2022-01-03T19:13:42Z</time></trkpt>
<trkpt lat="39.925319" lon="9.18663"><ele>752.85</ele><time>2022-01-03T19:13:44Z</time></trkpt>
<trkpt lat="39.925226" lon="9.186756"><ele>750.76</ele><time>2022-01-03T19:13:46Z</time></trkpt>
<trkpt lat="39.925185" lon="9.186878"><ele>750.19</ele><time>2022-01-03T19:13:48Z</time></trkpt>
<trkpt lat="39.925168" lon="9.187"><ele>749.98</ele><time>2022-01-03T19:13:49Z</time></trkpt>
<trkpt lat="39.925182" lon="9.187162"><ele>750.29</ele><time>2022-01-03T19:13:51Z</time></trkpt>
<trkpt lat="39.925412" lon="9.187988"><ele>751.05</ele><time>2022-01-03T19:13:53Z</time></trkpt>
<trkpt lat="39.925486" lon="9.188185"><ele>751.02</ele><time>2022-01-03T19:13:55Z</time></trkpt>
<trkpt lat="39.926186" lon="9.189402"><ele>747.78</ele><time>2022-01-03T19:13:56Z</time></trkpt>
<trkpt lat="39.926202" lon="9.18954"><ele>748.64</ele><time>2022-01-03T19:13:58Z</time></trkpt>
<trkpt lat="39.926184" lon="9.189644"><ele>749.2</ele><time>2022-01-03T19:14:00Z</time></trkpt>
<trkpt lat="39.926133" lon="9.18973"><ele>748.8</ele><time>2022-01-03T19:14:02Z</time></trkpt>
<trkpt lat="39.925793" lon="9.189872"><ele>747.39</ele><time>2022-01-03T19:14:03Z</time></trkpt>
<trkpt lat="39.925563" lon="9.189859"><ele>747.42</ele><time>2022-01-03T19:14:05Z</time></trkpt>
<trkpt lat="39.92404" lon="9.189039"><ele>744.41</ele><time>2022-01-03T19:14:07Z</time></trkpt>
<trkpt lat="39.923797" lon="9.188885"><ele>745.16</ele><time>2022-01-03T19:14:09Z</time></trkpt>
<trkpt lat="39.923651" lon="9.188704"><ele>745.06</ele><time>2022-01-03T19:14:11Z</time></trkpt>
<trkpt lat="39.923407" lon="9.188295"><ele>743.4</ele><time>2022-01-03T19:14:12Z</time></trkpt>
<trkpt lat="39.923316" lon="9.188099"><ele>741.43</ele><time>2022-01-03T19:14:14Z</time></trkpt>
<trkpt lat="39.923201" lon="9.187931"><ele>738.77</ele><time>2022-01-03T19:14:16Z</time></trkpt>
<trkpt lat="39.922932" lon="9.187687"><ele>735.65</ele><time>2022-01-03T19:14:18Z</time></trkpt>
<trkpt lat="39.92237" lon="9.187374"><ele>737.33</ele><time>2022-01-03T19:14:19Z</time></trkpt>
<trkpt lat="39.922263" lon="9.187229"><ele>737.1</ele><time>2022-01-03T19:14:21Z</time></trkpt>
<trkpt lat="39.922104" lon="9.186858"><ele>734.57</ele><time>2022-01-03T19:14:23Z</time></trkpt>
<trkpt lat="39.92201" lon="9.18672"><ele>733.77</ele><time>2022-01-03T19:14:25Z</time></trkpt>
<trkpt lat="39.921902" lon="9.186639"><ele>733.55</ele><time>2022-01-03T19:14:27Z</time></trkpt>
<trkpt lat="39.921112" lon="9.186393"><ele>729.09</ele><time>2022-01-03T19:14:28Z</time></trkpt>
<trkpt lat="39.91996" lon="9.18594"><ele>725.96</ele><time>2022-01-03T19:14:30Z</time></trkpt>
<trkpt lat="39.919087" lon="9.185643"><ele>721.59</ele><time>2022-01-03T19:14:32Z</time></trkpt>
<trkpt lat="39.918365" lon="9.185448"><ele>723.41</ele><time>2022-01-03T19:14:34Z</time></trkpt>
<trkpt lat="39.918236" lon="9.185365"><ele>722.1</ele><time>2022-01-03T19:14:35Z</time></trkpt>
<trkpt lat="39.918015" lon="9.185085"><ele>716.47</ele><time>2022-01-03T19:14:37Z</time></trkpt>
<trkpt lat="39.917926" lon="9.185022"><ele>715.01</ele><time>2022-01-03T19:14:39Z</time></trkpt>
<trkpt lat="39.917762" lon="9.184971"><ele>713.3</ele><time>2022-01-03T19:14:41Z</time></trkpt>
<trkpt lat="39.917635" lon="9.184986"><ele>713.14</ele><time>2022-01-03T19:14:42Z</time></trkpt>
<trkpt lat="39.91748" lon="9.185046"><ele>713.35</ele><time>2022-01-03T19:14:44Z</time></trkpt>
<trkpt lat="39.917082" lon="9.185283"><ele>711.67</ele><time>2022-01-03T19:14:46Z</time></trkpt>
<trkpt lat="39.916841" lon="9.185387"><ele>711.31</ele><time>2022-01-03T19:14:48Z</time></trkpt>
<trkpt lat="39.915699" lon="9.185719"><ele>708.96</ele><time>2022-01-03T19:14:50Z</time></trkpt>
<trkpt lat="39.914735" lon="9.185616"><ele>705.67</ele><time>2022-01-03T19:14:51Z</time></trkpt>
<trkpt lat="39.914501" lon="9.185558"><ele>708.03</ele><time>2022-01-03T19:14:53Z</time></trkpt>
<trkpt lat="39.913573" lon="9.184938"><ele>702.36</ele><time>2022-01-03T19:14:55Z</time></trkpt>
<trkpt lat="39.913493" lon="9.184876"><ele>702.42</ele><time>2022-01-03T19:14:57Z</time></trkpt>
<trkpt lat="39.913184" lon="9.184456"><ele>700.74</ele><time>2022-01-03T19:14:58Z</time></trkpt>
<trkpt lat="39.913094" lon="9.184363"><ele>700.59</ele><time>2022-01-03T19:15:00Z</time></trkpt>
<trkpt lat="39.912993" lon="9.184342"><ele>700.52</ele><time>2022-01-03T19:15:02Z</time></trkpt>
<trkpt lat="39.912656" lon="9.184542"><ele>698.74</ele><time>2022-01-03T19:15:04Z</time></trkpt>
<trkpt lat="39.912235" lon="9.184772"><ele>698.1</ele><time>2022-01-03T19:15:06Z</time></trkpt>
<trkpt lat="39.912161" lon="9.184797"><ele>697.95</ele><time>2022-01-03T19:15:07Z</time></trkpt>
<trkpt lat="39.912081" lon="9.184776"><ele>696.62</ele><time>2022-01-03T19:15:09Z</time></trkpt>
<trkpt lat="39.911872" lon="9.184639"><ele>691.45</ele><time>2022-01-03T19:15:11Z</time></trkpt>
<trkpt lat="39.911773" lon="9.18461"><ele>689.5</ele><time>2022-01-03T19:15:13Z</time></trkpt>
<trkpt lat="39.9116" lon="9.184642"><ele>687.53</ele><time>2022-01-03T19:15:14Z</time></trkpt>
<trkpt lat="39.910859" lon="9.184914"><ele>685.1</ele><time>2022-01-03T19:15:16Z</time></trkpt>
<trkpt lat="39.910724" lon="9.184931"><ele>684.98</ele><time>2022-01-03T19:15:18Z</time></trkpt>
<trkpt lat="39.910597" lon="9.184921"><ele>684.4</ele><time>2022-01-03T19:15:20Z</time></trkpt>
<trkpt lat="39.910438" lon="9.184879"><ele>683.38</ele><time>2022-01-03T19:15:21Z</time></trkpt>
<trkpt lat="39.910303" lon="9.184798"><ele>681.63</ele><time>2022-01-03T19:15:23Z</time></trkpt>
<trkpt lat="39.910206" lon="9.184714"><ele>680.59</ele><time>2022-01-03T19:15:25Z</time></trkpt>
<trkpt lat="39.909993" lon="9.184463"><ele>676.59</ele><time>2022-01-03T19:15:27Z</time></trkpt>
<trkpt lat="39.909649" lon="9.184149"><ele>671.97</ele><time>2022-01-03T19:15:29Z</time></trkpt>
<trkpt lat="39.909373" lon="9.183992"><ele>668.42</ele><time>2022-01-03T19:15:30Z</time></trkpt>
<trkpt lat="39.909246" lon="9.183956"><ele>666.7</ele><time>2022-01-03T19:15:32Z</time></trkpt>
<trkpt lat="39.909115" lon="9.184041"><ele>666.55</ele><time>2022-01-03T19:15:34Z</time></trkpt>
<trkpt lat="39.908774" lon="9.184436"><ele>666.92</ele><time>2022-01-03T19:15:36Z</time></trkpt>
<trkpt lat="39.90853" lon="9.184615"><ele>662.87</ele><time>2022-01-03T19:15:37Z</time></trkpt>
<trkpt lat="39.908382" lon="9.184808"><ele>660.94</ele><time>2022-01-03T19:15:39Z</time></trkpt>
<trkpt lat="39.908193" lon="9.185113"><ele>657.55</ele><time>2022-01-03T19:15:41Z</time></trkpt>
<trkpt lat="39.908055" lon="9.185656"><ele>659.8</ele><time>2022-01-03T19:15:43Z</time></trkpt>
<trkpt lat="39.908007" lon="9.186078"><ele>665.56</ele><time>2022-01-03T19:15:45Z</time></trkpt>
<trkpt lat="39.907982" lon="9.186142"><ele>666.24</ele><time>2022-01-03T19:15:46Z</time></trkpt>
<trkpt lat="39.907903" lon="9.186191"><ele>666.05</ele><time>2022-01-03T19:15:48Z</time></trkpt>
<trkpt lat="39.907843" lon="9.186174"><ele>664.76</ele><time>2022-01-03T19:15:50Z</time></trkpt>
<trkpt lat="39.907667" lon="9.186016"><ele>659.06</ele><time>2022-01-03T19:15:52Z</time></trkpt>
<trkpt lat="39.907379" lon="9.185724"><ele>650.99</ele><time>2022-01-03T19:15:53Z</time></trkpt>
<trkpt lat="39.906573" lon="9.185128"><ele>641.02</ele><time>2022-01-03T19:15:55Z</time></trkpt>
<trkpt lat="39.906438" lon="9.18507"><ele>638.37</ele><time>2022-01-03T19:15:57Z</time></trkpt>
<trkpt lat="39.906308" lon="9.18507"><ele>637.06</ele><time>2022-01-03T19:15:59Z</time></trkpt>
<trkpt lat="39.905768" lon="9.18528"><ele>636.89</ele><time>2022-01-03T19:16:00Z</time></trkpt>
<trkpt lat="39.9053" lon="9.185299"><ele>627.32</ele><time>2022-01-03T19:16:02Z</time></trkpt>
<trkpt lat="39.905109" lon="9.185375"><ele>625.62</ele><time>2022-01-03T19:16:04Z</time></trkpt>
<trkpt lat="39.904982" lon="9.185525"><ele>625.52</ele><time>2022-01-03T19:16:06Z</time></trkpt>
<trkpt lat="39.904905" lon="9.185748"><ele>626.02</ele><time>2022-01-03T19:16:08Z</time></trkpt>
<trkpt lat="39.904897" lon="9.186"><ele>628.77</ele><time>2022-01-03T19:16:09Z</time></trkpt>
<trkpt lat="39.904916" lon="9.186216"><ele>630.38</ele><time>2022-01-03T19:16:11Z</time></trkpt>
<trkpt lat="39.904906" lon="9.186441"><ele>629.14</ele><time>2022-01-03T19:16:13Z</time></trkpt>
<trkpt lat="39.904843" lon="9.186705"><ele>625.93</ele><time>2022-01-03T19:16:15Z</time></trkpt>
<trkpt lat="39.904755" lon="9.186911"><ele>623.97</ele><time>2022-01-03T19:16:16Z</time></trkpt>
<trkpt lat="39.904522" lon="9.187187"><ele>618.93</ele><time>2022-01-03T19:16:18Z</time></trkpt>
<trkpt lat="39.904424" lon="9.18739"><ele>617.49</ele><time>2022-01-03T19:16:20Z</time></trkpt>
<trkpt lat="39.904418" lon="9.187529"><ele>618.03</ele><time>2022-01-03T19:16:22Z</time></trkpt>
<trkpt lat="39.904439" lon="9.187679"><ele>618.15</ele><time>2022-01-03T19:16:24Z</time></trkpt>
<trkpt lat="39.904697" lon="9.188034"><ele>621.42</ele><time>2022-01-03T19:16:25Z</time></trkpt>
<trkpt lat="39.904751" lon="9.188227"><ele>620.92</ele><time>2022-01-03T19:16:27Z</time></trkpt>
<trkpt lat="39.904763" lon="9.188434"><ele>619.42</ele><time>2022-01-03T19:16:29Z</time></trkpt>
<trkpt lat="39.904752" lon="9.188532"><ele>618.47</ele><time>2022-01-03T19:16:31Z</time></trkpt>
<trkpt lat="39.904708" lon="9.188608"><ele>616.44</ele><time>2022-01-03T19:16:32Z</time></trkpt>
<trkpt lat="39.904662" lon="9.188641"><ele>614.79</ele><time>2022-01-03T19:16:34Z</time></trkpt>
<trkpt lat="39.904604" lon="9.188652"><ele>612.5</ele><time>2022-01-03T19:16:36Z</time></trkpt>
<trkpt lat="39.904527" lon="9.188617"><ele>609.26</ele><time>2022-01-03T19:16:38Z</time></trkpt>
<trkpt lat="39.904469" lon="9.188518"><ele>607.95</ele><time>2022-01-03T19:16:39Z</time></trkpt>
<trkpt lat="39.904449" lon="9.188202"><ele>611.03</ele><time>2022-01-03T19:16:41Z</time></trkpt>
<trkpt lat="39.904349" lon="9.18805"><ele>609.65</ele><time>2022-01-03T19:16:43Z</time></trkpt>
<trkpt lat="39.904188" lon="9.187961"><ele>605.16</ele><time>2022-01-03T19:16:45Z</time></trkpt>
<trkpt lat="39.904074" lon="9.187859"><ele>602.28</ele><time>2022-01-03T19:16:47Z</time></trkpt>
<trkpt lat="39.903981" lon="9.187672"><ele>601.46</ele><time>2022-01-03T19:16:48Z</time></trkpt>
<trkpt lat="39.903952" lon="9.187488"><ele>602.17</ele><time>2022-01-03T19:16:50Z</time></trkpt>
<trkpt lat="39.904001" lon="9.187222"><ele>601.21</ele><time>2022-01-03T19:16:52Z</time></trkpt>
<trkpt lat="39.904234" lon="9.186781"><ele>601.32</ele><time>2022-01-03T19:16:54Z</time></trkpt>
<trkpt lat="39.904307" lon="9.186521"><ele>600.99</ele><time>2022-01-03T19:16:55Z</time></trkpt>
<trkpt lat="39.904324" lon="9.186276"><ele>599.09</ele><time>2022-01-03T19:16:57Z</time></trkpt>
<trkpt lat="39.904298" lon="9.185604"><ele>597.86</ele><time>2022-01-03T19:16:59Z</time></trkpt>
<trkpt lat="39.904322" lon="9.185369"><ele>598.79</ele><time>2022-01-03T19:17:01Z</time></trkpt>
<trkpt lat="39.904311" lon="9.185302"><ele>598.24</ele><time>2022-01-03T19:17:03Z</time></trkpt>
<trkpt lat="39.904268" lon="9.185232"><ele>596.26</ele><time>2022-01-03T19:17:04Z</time></trkpt>
<trkpt lat="39.90419" lon="9.185198"><ele>593.23</ele><time>2022-01-03T19:17:06Z</time></trkpt>
<trkpt lat="39.904111" lon="9.185229"><ele>589.93</ele><time>2022-01-03T19:17:08Z</time></trkpt>
<trkpt lat="39.904068" lon="9.185294"><ele>588.02</ele><time>2022-01-03T19:17:10Z</time></trkpt>
<trkpt lat="39.904053" lon="9.185368"><ele>587.28</ele><time>2022-01-03T19:17:11Z</time></trkpt>
<trkpt lat="39.904052" lon="9.185518"><ele>587.21</ele><time>2022-01-03T19:17:13Z</time></trkpt>
<trkpt lat="39.904117" lon="9.186"><ele>588.59</ele><time>2022-01-03T19:17:15Z</time></trkpt>
<trkpt lat="39.904115" lon="9.186203"><ele>589.59</ele><time>2022-01-03T19:17:17Z</time></trkpt>
<trkpt lat="39.904064" lon="9.186397"><ele>590.41</ele><time>2022-01-03T19:17:18Z</time></trkpt>
<trkpt lat="39.903964" lon="9.186521"><ele>588.82</ele><time>2022-01-03T19:17:20Z</time></trkpt>
<trkpt lat="39.903847" lon="9.186597"><ele>586.51</ele><time>2022-01-03T19:17:22Z</time></trkpt>
<trkpt lat="39.903512" lon="9.186685"><ele>578.8</ele><time>2022-01-03T19:17:24Z</time></trkpt>
<trkpt lat="39.90339" lon="9.1868"><ele>576.77</ele><time>2022-01-03T19:17:26Z</time></trkpt>
<trkpt lat="39.903266" lon="9.187"><ele>574.64</ele><time>2022-01-03T19:17:27Z</time></trkpt>
<trkpt lat="39.903212" lon="9.187279"><ele>573.15</ele><time>2022-01-03T19:17:29Z</time></trkpt>
<trkpt lat="39.903185" lon="9.187529"><ele>570.03</ele><time>2022-01-03T19:17:31Z</time></trkpt>
<trkpt lat="39.903273" lon="9.187894"><ele>566.6</ele><time>2022-01-03T19:17:33Z</time></trkpt>
<trkpt lat="39.903341" lon="9.188097"><ele>565.75</ele><time>2022-01-03T19:17:34Z</time></trkpt>
<trkpt lat="39.903631" lon="9.188465"><ele>571.39</ele><time>2022-01-03T19:17:36Z</time></trkpt>
<trkpt lat="39.903682" lon="9.18857"><ele>572.28</ele><time>2022-01-03T19:17:38Z</time></trkpt>
<trkpt lat="39.903689" lon="9.188722"><ele>572.89</ele><time>2022-01-03T19:17:40Z</time></trkpt>
<trkpt lat="39.903665" lon="9.188913"><ele>573.57</ele><time>2022-01-03T19:17:42Z</time></trkpt>
<trkpt lat="39.903022" lon="9.190464"><ele>566.73</ele><time>2022-01-03T19:17:43Z</time></trkpt>
<trkpt lat="39.90292" lon="9.190755"><ele>567.65</ele><time>2022-01-03T19:17:45Z</time></trkpt>
<trkpt lat="39.902885" lon="9.190814"><ele>566.61</ele><time>2022-01-03T19:17:47Z</time></trkpt>
<trkpt lat="39.902812" lon="9.190859"><ele>563.03</ele><time>2022-01-03T19:17:49Z</time></trkpt>
<trkpt lat="39.902756" lon="9.190856"><ele>559.86</ele><time>2022-01-03T19:17:50Z</time></trkpt>
<trkpt lat="39.902681" lon="9.190798"><ele>555.7</ele><time>2022-01-03T19:17:52Z</time></trkpt>
<trkpt lat="39.902646" lon="9.190704"><ele>553.13</ele><time>2022-01-03T19:17:54Z</time></trkpt>
<trkpt lat="39.902654" lon="9.190602"><ele>552.14</ele><time>2022-01-03T19:17:56Z</time></trkpt>
<trkpt lat="39.902935" lon="9.190045"><ele>554.87</ele><time>2022-01-03T19:17:57Z</time></trkpt>
<trkpt lat="39.903032" lon="9.18975"><ele>554.55</ele><time>2022-01-03T19:17:59Z</time></trkpt>
<trkpt lat="39.903222" lon="9.188808"><ele>553.9</ele><time>2022-01-03T19:18:01Z</time></trkpt>
<trkpt lat="39.903178" lon="9.188589"><ele>552.62</ele><time>2022-01-03T19:18:03Z</time></trkpt>
<trkpt lat="39.902944" lon="9.188205"><ele>550.61</ele><time>2022-01-03T19:18:05Z</time></trkpt>
<trkpt lat="39.902762" lon="9.187755"><ele>551.86</ele><time>2022-01-03T19:18:06Z</time></trkpt>
<trkpt lat="39.902657" lon="9.187015"><ele>556.7</ele><time>2022-01-03T19:18:08Z</time></trkpt>
<trkpt lat="39.902588" lon="9.186919"><ele>554.15</ele><time>2022-01-03T19:18:10Z</time></trkpt>
<trkpt lat="39.902497" lon="9.186884"><ele>550.11</ele><time>2022-01-03T19:18:12Z</time></trkpt>
<trkpt lat="39.902454" lon="9.186889"><ele>548.51</ele><time>2022-01-03T19:18:13Z</time></trkpt>
<trkpt lat="39.902373" lon="9.186939"><ele>545.43</ele><time>2022-01-03T19:18:15Z</time></trkpt>
<trkpt lat="39.902336" lon="9.18699"><ele>543.69</ele><time>2022-01-03T19:18:17Z</time></trkpt>
<trkpt lat="39.902304" lon="9.187117"><ele>541.27</ele><time>2022-01-03T19:18:19Z</time></trkpt>
<trkpt lat="39.902311" lon="9.187194"><ele>540.79</ele><time>2022-01-03T19:18:21Z</time></trkpt>
<trkpt lat="39.902584" lon="9.188028"><ele>542.47</ele><time>2022-01-03T19:18:22Z</time></trkpt>
<trkpt lat="39.902808" lon="9.188538"><ele>538.97</ele><time>2022-01-03T19:18:24Z</time></trkpt>
<trkpt lat="39.902845" lon="9.188716"><ele>537.98</ele><time>2022-01-03T19:18:26Z</time></trkpt>
<trkpt lat="39.902823" lon="9.188865"><ele>536.1</ele><time>2022-01-03T19:18:28Z</time></trkpt>
<trkpt lat="39.902738" lon="9.189075"><ele>534.13</ele><time>2022-01-03T19:18:29Z</time></trkpt>
<trkpt lat="39.902565" lon="9.189227"><ele>530.73</ele><time>2022-01-03T19:18:31Z</time></trkpt>
<trkpt lat="39.902302" lon="9.1895"><ele>527.86</ele><time>2022-01-03T19:18:33Z</time></trkpt>
<trkpt lat="39.902054" lon="9.189874"><ele>525.72</ele><time>2022-01-03T19:18:35Z</time></trkpt>
<trkpt lat="39.901327" lon="9.191361"><ele>521.6</ele><time>2022-01-03T19:18:36Z</time></trkpt>
<trkpt lat="39.901277" lon="9.191418"><ele>520.41</ele><time>2022-01-03T19:18:38Z</time></trkpt>
<trkpt lat="39.901197" lon="9.191425"><ele>517.61</ele><time>2022-01-03T19:18:40Z</time></trkpt>
<trkpt lat="39.901135" lon="9.191365"><ele>514.76</ele><time>2022-01-03T19:18:42Z</time></trkpt>
<trkpt lat="39.901117" lon="9.191258"><ele>513.74</ele><time>2022-01-03T19:18:44Z</time></trkpt>
<trkpt lat="39.90114" lon="9.191191"><ele>514.25</ele><time>2022-01-03T19:18:45Z</time></trkpt>
<trkpt lat="39.901288" lon="9.190921"><ele>517.37</ele><time>2022-01-03T19:18:47Z</time></trkpt>
<trkpt lat="39.90164" lon="9.190153"><ele>516.35</ele><time>2022-01-03T19:18:49Z</time></trkpt>
<trkpt lat="39.901701" lon="9.189979"><ele>515.79</ele><time>2022-01-03T19:18:51Z</time></trkpt>
<trkpt lat="39.901788" lon="9.189087"><ele>507.93</ele><time>2022-01-03T19:18:52Z</time></trkpt>
<trkpt lat="39.901753" lon="9.188839"><ele>505.68</ele><time>2022-01-03T19:18:54Z</time></trkpt>
<trkpt lat="39.9013" lon="9.187145"><ele>500.08</ele><time>2022-01-03T19:18:56Z</time></trkpt>
<trkpt lat="39.90126" lon="9.187079"><ele>499.91</ele><time>2022-01-03T19:18:58Z</time></trkpt>
<trkpt lat="39.90119" lon="9.187041"><ele>498.4</ele><time>2022-01-03T19:19:00Z</time></trkpt>
<trkpt lat="39.901125" lon="9.187051"><ele>496.15</ele><time>2022-01-03T19:19:01Z</time></trkpt>
<trkpt lat="39.901086" lon="9.187081"><ele>494.18</ele><time>2022-01-03T19:19:03Z</time></trkpt>
<trkpt lat="39.901049" lon="9.187143"><ele>491.63</ele><time>2022-01-03T19:19:05Z</time></trkpt>
<trkpt lat="39.901036" lon="9.187205"><ele>489.94</ele><time>2022-01-03T19:19:07Z</time></trkpt>
<trkpt lat="39.901125" lon="9.187947"><ele>488.3</ele><time>2022-01-03T19:19:08Z</time></trkpt>
<trkpt lat="39.901138" lon="9.188157"><ele>490.82</ele><time>2022-01-03T19:19:10Z</time></trkpt>
<trkpt lat="39.901128" lon="9.188268"><ele>491.73</ele><time>2022-01-03T19:19:12Z</time></trkpt>
<trkpt lat="39.900743" lon="9.189727"><ele>477.82</ele><time>2022-01-03T19:19:14Z</time></trkpt>
<trkpt lat="39.900665" lon="9.189889"><ele>480.06</ele><time>2022-01-03T19:19:16Z</time></trkpt>
<trkpt lat="39.900229" lon="9.190188"><ele>473.4</ele><time>2022-01-03T19:19:19Z</time></trkpt>
<trkpt lat="39.899996" lon="9.19052"><ele>467.52</ele><time>2022-01-03T19:19:23Z</time></trkpt>
<trkpt lat="39.899604" lon="9.191514"><ele>458.55</ele><time>2022-01-03T19:19:27Z</time></trkpt>
<trkpt lat="39.899479" lon="9.191986"><ele>458.2</ele><time>2022-01-03T19:19:31Z</time></trkpt>
<trkpt lat="39.899052" lon="9.192514"><ele>455.35</ele><time>2022-01-03T19:19:34Z</time></trkpt>
<trkpt lat="39.89857" lon="9.192863"><ele>459.68</ele><time>2022-01-03T19:19:38Z</time></trkpt>
<trkpt lat="39.8981" lon="9.192958"><ele>446.48</ele><time>2022-01-03T19:19:42Z</time></trkpt>
<trkpt lat="39.897811" lon="9.193189"><ele>446.21</ele><time>2022-01-03T19:19:45Z</time></trkpt>
<trkpt lat="39.897307" lon="9.193453"><ele>441.77</ele><time>2022-01-03T19:19:49Z</time></trkpt>
<trkpt lat="39.896749" lon="9.194061"><ele>441.59</ele><time>2022-01-03T19:19:53Z</time></trkpt>
<trkpt lat="39.896698" lon="9.194074"><ele>439.48</ele><time>2022-01-03T19:19:57Z</time></trkpt>
<trkpt lat="39.896652" lon="9.194044"><ele>436.79</ele><time>2022-01-03T19:20:00Z</time></trkpt>
<trkpt lat="39.896628" lon="9.193985"><ele>434.66</ele><time>2022-01-03T19:20:04Z</time></trkpt>
<trkpt lat="39.896651" lon="9.19389"><ele>433.51</ele><time>2022-01-03T19:20:08Z</time></trkpt>
<trkpt lat="39.896876" lon="9.193599"><ele>436.15</ele><time>2022-01-03T19:20:12Z</time></trkpt>
<trkpt lat="39.89732" lon="9.193105"><ele>429.86</ele><time>2022-01-03T19:20:15Z</time></trkpt>
<trkpt lat="39.897475" lon="9.192986"><ele>430.72</ele><time>2022-01-03T19:20:19Z</time></trkpt>
<trkpt lat="39.898315" lon="9.192537"><ele>435.15</ele><time>2022-01-03T19:20:23Z</time></trkpt>
<trkpt lat="39.898664" lon="9.192324"><ele>435.93</ele><time>2022-01-03T19:20:26Z</time></trkpt>
<trkpt lat="39.898837" lon="9.191829"><ele>423.82</ele><time>2022-01-03T19:20:30Z</time></trkpt>
<trkpt lat="39.898936" lon="9.191441"><ele>423.26</ele><time>2022-01-03T19:20:34Z</time></trkpt>
<trkpt lat="39.898643" lon="9.190295"><ele>424.46</ele><time>2022-01-03T19:20:38Z</time></trkpt>
<trkpt lat="39.898686" lon="9.19007"><ele>426.71</ele><time>2022-01-03T19:20:41Z</time></trkpt>
<trkpt lat="39.89859" lon="9.189961"><ele>427.06</ele><time>2022-01-03T19:20:45Z</time></trkpt>
<trkpt lat="39.898499" lon="9.189917"><ele>431.79</ele><time>2022-01-03T19:20:49Z</time></trkpt>
<trkpt lat="39.898419" lon="9.189936"><ele>435.86</ele><time>2022-01-03T19:20:52Z</time></trkpt>
<trkpt lat="39.898367" lon="9.190065"><ele>436.61</ele><time>2022-01-03T19:20:56Z</time></trkpt>
<trkpt lat="39.898397" lon="9.190829"><ele>419.08</ele><time>2022-01-03T19:21:00Z</time></trkpt>
<trkpt lat="39.898341" lon="9.191059"><ele>415.0</ele><time>2022-01-03T19:21:04Z</time></trkpt>
<trkpt lat="39.898186" lon="9.191295"><ele>412.42</ele><time>2022-01-03T19:21:07Z</time></trkpt>
<trkpt lat="39.89766" lon="9.191604"><ele>413.54</ele><time>2022-01-03T19:21:11Z</time></trkpt>
<trkpt lat="39.896626" lon="9.192166"><ele>410.43</ele><time>2022-01-03T19:21:15Z</time></trkpt>
<trkpt lat="39.896281" lon="9.192245"><ele>405.2</ele><time>2022-01-03T19:21:19Z</time></trkpt>
<trkpt lat="39.895871" lon="9.192222"><ele>402.41</ele><time>2022-01-03T19:21:22Z</time></trkpt>
<trkpt lat="39.894406" lon="9.191773"><ele>392.52</ele><time>2022-01-03T19:21:26Z</time></trkpt>
<trkpt lat="39.894285" lon="9.191672"><ele>391.34</ele><time>2022-01-03T19:21:30Z</time></trkpt>
<trkpt lat="39.894041" lon="9.191073"><ele>390.76</ele><time>2022-01-03T19:21:33Z</time></trkpt>
<trkpt lat="39.893927" lon="9.190969"><ele>388.13</ele><time>2022-01-03T19:21:37Z</time></trkpt>
<trkpt lat="39.893854" lon="9.190975"><ele>386.14</ele><time>2022-01-03T19:21:41Z</time></trkpt>
<trkpt lat="39.893492" lon="9.19116"><ele>387.27</ele><time>2022-01-03T19:21:45Z</time></trkpt>
<trkpt lat="39.893384" lon="9.19116"><ele>391.29</ele><time>2022-01-03T19:21:48Z</time></trkpt>
<trkpt lat="39.89294" lon="9.190351"><ele>397.68</ele><time>2022-01-03T19:21:52Z</time></trkpt>
<trkpt lat="39.892629" lon="9.189924"><ele>401.01</ele><time>2022-01-03T19:21:56Z</time></trkpt>
<trkpt lat="39.892073" lon="9.189582"><ele>403.83</ele><time>2022-01-03T19:22:00Z</time></trkpt>
<trkpt lat="39.89181" lon="9.189548"><ele>404.61</ele><time>2022-01-03T19:22:03Z</time></trkpt>
<trkpt lat="39.891418" lon="9.189739"><ele>407.62</ele><time>2022-01-03T19:22:07Z</time></trkpt>
<trkpt lat="39.89119" lon="9.18993"><ele>409.55</ele><time>2022-01-03T19:22:11Z</time></trkpt>
<trkpt lat="39.890862" lon="9.190559"><ele>414.78</ele><time>2022-01-03T19:22:14Z</time></trkpt>
<trkpt lat="39.890708" lon="9.191069"><ele>417.61</ele><time>2022-01-03T19:22:18Z</time></trkpt>
<trkpt lat="39.890617" lon="9.191187"><ele>417.13</ele><time>2022-01-03T19:22:22Z</time></trkpt>
<trkpt lat="39.890462" lon="9.191338"><ele>414.86</ele><time>2022-01-03T19:22:26Z</time></trkpt>
<trkpt lat="39.890455" lon="9.191395"><ele>416.41</ele><time>2022-01-03T19:22:29Z</time></trkpt>
<trkpt lat="39.890474" lon="9.191448"><ele>419.41</ele><time>2022-01-03T19:22:33Z</time></trkpt>
<trkpt lat="39.890512" lon="9.191477"><ele>422.5</ele><time>2022-01-03T19:22:37Z</time></trkpt>
<trkpt lat="39.890574" lon="9.19146"><ele>424.83</ele><time>2022-01-03T19:22:40Z</time></trkpt>
<trkpt lat="39.890737" lon="9.191217"><ele>422.64</ele><time>2022-01-03T19:22:44Z</time></trkpt>
<trkpt lat="39.890931" lon="9.190874"><ele>422.09</ele><time>2022-01-03T19:22:48Z</time></trkpt>
<trkpt lat="39.891134" lon="9.190582"><ele>422.22</ele><time>2022-01-03T19:22:52Z</time></trkpt>
<trkpt lat="39.891384" lon="9.190447"><ele>426.13</ele><time>2022-01-03T19:22:55Z</time></trkpt>
<trkpt lat="39.891815" lon="9.190481"><ele>431.25</ele><time>2022-01-03T19:22:59Z</time></trkpt>
<trkpt lat="39.892009" lon="9.190525"><ele>432.64</ele><time>2022-01-03T19:23:03Z</time></trkpt>
<trkpt lat="39.892782" lon="9.191345"><ele>431.42</ele><time>2022-01-03T19:23:07Z</time></trkpt>
<trkpt lat="39.892811" lon="9.191404"><ele>431.15</ele><time>2022-01-03T19:23:10Z</time></trkpt>
<trkpt lat="39.892793" lon="9.191466"><ele>434.45</ele><time>2022-01-03T19:23:14Z</time></trkpt>
<trkpt lat="39.892732" lon="9.191483"><ele>438.42</ele><time>2022-01-03T19:23:18Z</time></trkpt>
<trkpt lat="39.892375" lon="9.191177"><ele>445.37</ele><time>2022-01-03T19:23:21Z</time></trkpt>
<trkpt lat="39.892069" lon="9.191026"><ele>446.26</ele><time>2022-01-03T19:23:25Z</time></trkpt>
<trkpt lat="39.891841" lon="9.190981"><ele>445.36</ele><time>2022-01-03T19:23:29Z</time></trkpt>
<trkpt lat="39.891539" lon="9.191087"><ele>445.55</ele><time>2022-01-03T19:23:33Z</time></trkpt>
<trkpt lat="39.891092" lon="9.191596"><ele>446.3</ele><time>2022-01-03T19:23:36Z</time></trkpt>
<trkpt lat="39.891081" lon="9.191647"><ele>447.44</ele><time>2022-01-03T19:23:40Z</time></trkpt>
<trkpt lat="39.891109" lon="9.191712"><ele>450.24</ele><time>2022-01-03T19:23:44Z</time></trkpt>
<trkpt lat="39.891141" lon="9.191726"><ele>451.81</ele><time>2022-01-03T19:23:48Z</time></trkpt>
<trkpt lat="39.891183" lon="9.191711"><ele>452.92</ele><time>2022-01-03T19:23:51Z</time></trkpt>
<trkpt lat="39.891397" lon="9.191408"><ele>452.59</ele><time>2022-01-03T19:23:55Z</time></trkpt>
<trkpt lat="39.891595" lon="9.191329"><ele>453.35</ele><time>2022-01-03T19:23:59Z</time></trkpt>
<trkpt lat="39.891888" lon="9.191335"><ele>455.27</ele><time>2022-01-03T19:24:02Z</time></trkpt>
<trkpt lat="39.89263" lon="9.191876"><ele>457.53</ele><time>2022-01-03T19:24:06Z</time></trkpt>
<trkpt lat="39.892656" lon="9.191927"><ele>457.93</ele><time>2022-01-03T19:24:10Z</time></trkpt>
<trkpt lat="39.892642" lon="9.191992"><ele>460.72</ele><time>2022-01-03T19:24:14Z</time></trkpt>
<trkpt lat="39.892584" lon="9.192016"><ele>464.41</ele><time>2022-01-03T19:24:17Z</time></trkpt>
<trkpt lat="39.892216" lon="9.191722"><ele>466.59</ele><time>2022-01-03T19:24:21Z</time></trkpt>
<trkpt lat="39.892078" lon="9.191677"><ele>465.3</ele><time>2022-01-03T19:24:25Z</time></trkpt>
<trkpt lat="39.891784" lon="9.191673"><ele>465.18</ele><time>2022-01-03T19:24:28Z</time></trkpt>
<trkpt lat="39.891248" lon="9.192"><ele>464.59</ele><time>2022-01-03T19:24:32Z</time></trkpt>
<trkpt lat="39.891206" lon="9.192063"><ele>465.48</ele><time>2022-01-03T19:24:36Z</time></trkpt>
<trkpt lat="39.891225" lon="9.192143"><ele>469.36</ele><time>2022-01-03T19:24:40Z</time></trkpt>
<trkpt lat="39.891286" lon="9.192167"><ele>472.71</ele><time>2022-01-03T19:24:43Z</time></trkpt>
<trkpt lat="39.891418" lon="9.192121"><ele>475.33</ele><time>2022-01-03T19:24:47Z</time></trkpt>
<trkpt lat="39.891601" lon="9.191967"><ele>472.52</ele><time>2022-01-03T19:24:51Z</time></trkpt>
<trkpt lat="39.891636" lon="9.191958"><ele>472.84</ele><time>2022-01-03T19:24:55Z</time></trkpt>
<trkpt lat="39.891686" lon="9.191999"><ele>474.58</ele><time>2022-01-03T19:24:58Z</time></trkpt>
<trkpt lat="39.891727" lon="9.192136"><ele>478.52</ele><time>2022-01-03T19:25:02Z</time></trkpt>
<trkpt lat="39.89151" lon="9.192256"><ele>481.24</ele><time>2022-01-03T19:25:04Z</time></trkpt>
<trkpt lat="39.890203" lon="9.193232"><ele>491.8</ele><time>2022-01-03T19:25:06Z</time></trkpt>
<trkpt lat="39.889267" lon="9.19405"><ele>495.98</ele><time>2022-01-03T19:25:09Z</time></trkpt>
<trkpt lat="39.889113" lon="9.194212"><ele>494.56</ele><time>2022-01-03T19:25:11Z</time></trkpt>
<trkpt lat="39.889014" lon="9.194422"><ele>494.84</ele><time>2022-01-03T19:25:13Z</time></trkpt>
<trkpt lat="39.889048" lon="9.194714"><ele>502.31</ele><time>2022-01-03T19:25:15Z</time></trkpt>
<trkpt lat="39.889163" lon="9.195237"><ele>510.67</ele><time>2022-01-03T19:25:17Z</time></trkpt>
<trkpt lat="39.889367" lon="9.195977"><ele>521.03</ele><time>2022-01-03T19:25:19Z</time></trkpt>
<trkpt lat="39.889389" lon="9.196205"><ele>523.23</ele><time>2022-01-03T19:25:22Z</time></trkpt>
<trkpt lat="39.88939" lon="9.196389"><ele>524.06</ele><time>2022-01-03T19:25:24Z</time></trkpt>
<trkpt lat="39.889312" lon="9.196687"><ele>522.04</ele><time>2022-01-03T19:25:26Z</time></trkpt>
<trkpt lat="39.889036" lon="9.197065"><ele>518.54</ele><time>2022-01-03T19:25:28Z</time></trkpt>
<trkpt lat="39.88888" lon="9.197207"><ele>517.58</ele><time>2022-01-03T19:25:30Z</time></trkpt>
<trkpt lat="39.888722" lon="9.19728"><ele>517.06</ele><time>2022-01-03T19:25:33Z</time></trkpt>
<trkpt lat="39.888535" lon="9.197259"><ele>516.23</ele><time>2022-01-03T19:25:35Z</time></trkpt>
<trkpt lat="39.888354" lon="9.197149"><ele>517.21</ele><time>2022-01-03T19:25:37Z</time></trkpt>
<trkpt lat="39.888223" lon="9.196937"><ele>520.31</ele><time>2022-01-03T19:25:39Z</time></trkpt>
<trkpt lat="39.888151" lon="9.196581"><ele>519.64</ele><time>2022-01-03T19:25:41Z</time></trkpt>
<trkpt lat="39.888071" lon="9.196403"><ele>520.56</ele><time>2022-01-03T19:25:43Z</time></trkpt>
<trkpt lat="39.887969" lon="9.196258"><ele>521.42</ele><time>2022-01-03T19:25:46Z</time></trkpt>
<trkpt lat="39.887835" lon="9.196143"><ele>524.33</ele><time>2022-01-03T19:25:48Z</time></trkpt>
<trkpt lat="39.886833" lon="9.195517"><ele>532.43</ele><time>2022-01-03T19:25:50Z</time></trkpt>
<trkpt lat="39.886543" lon="9.195426"><ele>536.79</ele><time>2022-01-03T19:25:52Z</time></trkpt>
<trkpt lat="39.886251" lon="9.195456"><ele>539.81</ele><time>2022-01-03T19:25:54Z</time></trkpt>
<trkpt lat="39.885979" lon="9.195599"><ele>540.08</ele><time>2022-01-03T19:25:57Z</time></trkpt>
<trkpt lat="39.883953" lon="9.197143"><ele>560.48</ele><time>2022-01-03T19:25:59Z</time></trkpt>
<trkpt lat="39.883779" lon="9.19737"><ele>560.58</ele><time>2022-01-03T19:26:01Z</time></trkpt>
<trkpt lat="39.883716" lon="9.197607"><ele>562.23</ele><time>2022-01-03T19:26:03Z</time></trkpt>
<trkpt lat="39.883707" lon="9.198094"><ele>564.66</ele><time>2022-01-03T19:26:05Z</time></trkpt>
<trkpt lat="39.883773" lon="9.198521"><ele>566.98</ele><time>2022-01-03T19:26:07Z</time></trkpt>
<trkpt lat="39.883782" lon="9.198841"><ele>568.26</ele><time>2022-01-03T19:26:10Z</time></trkpt>
<trkpt lat="39.883524" lon="9.199959"><ele>569.35</ele><time>2022-01-03T19:26:12Z</time></trkpt>
<trkpt lat="39.883533" lon="9.200399"><ele>572.67</ele><time>2022-01-03T19:26:14Z</time></trkpt>
<trkpt lat="39.883601" lon="9.200814"><ele>576.39</ele><time>2022-01-03T19:26:16Z</time></trkpt>
<trkpt lat="39.883596" lon="9.201026"><ele>578.78</ele><time>2022-01-03T19:26:18Z</time></trkpt>
<trkpt lat="39.88351" lon="9.201358"><ele>579.52</ele><time>2022-01-03T19:26:21Z</time></trkpt>
<trkpt lat="39.883031" lon="9.202651"><ele>583.16</ele><time>2022-01-03T19:26:23Z</time></trkpt>
<trkpt lat="39.882987" lon="9.202873"><ele>582.84</ele><time>2022-01-03T19:26:25Z</time></trkpt>
<trkpt lat="39.882989" lon="9.203125"><ele>584.4</ele><time>2022-01-03T19:26:27Z</time></trkpt>
<trkpt lat="39.883351" lon="9.205457"><ele>603.07</ele><time>2022-01-03T19:26:29Z</time></trkpt>
<trkpt lat="39.883352" lon="9.205727"><ele>604.18</ele><time>2022-01-03T19:26:31Z</time></trkpt>
<trkpt lat="39.883259" lon="9.2061"><ele>605.32</ele><time>2022-01-03T19:26:34Z</time></trkpt>
<trkpt lat="39.883159" lon="9.206295"><ele>604.73</ele><time>2022-01-03T19:26:36Z</time></trkpt>
<trkpt lat="39.883031" lon="9.206456"><ele>604.44</ele><time>2022-01-03T19:26:38Z</time></trkpt>
<trkpt lat="39.88181" lon="9.207022"><ele>606.53</ele><time>2022-01-03T19:26:40Z</time></trkpt>
<trkpt lat="39.881584" lon="9.207012"><ele>607.62</ele><time>2022-01-03T19:26:42Z</time></trkpt>
<trkpt lat="39.881031" lon="9.206854"><ele>610.31</ele><time>2022-01-03T19:26:45Z</time></trkpt>
<trkpt lat="39.880812" lon="9.206742"><ele>610.82</ele><time>2022-01-03T19:26:47Z</time></trkpt>
<trkpt lat="39.880657" lon="9.206605"><ele>612.12</ele><time>2022-01-03T19:26:49Z</time></trkpt>
<trkpt lat="39.880165" lon="9.205745"><ele>620.79</ele><time>2022-01-03T19:26:51Z</time></trkpt>
<trkpt lat="39.879861" lon="9.204831"><ele>625.48</ele><time>2022-01-03T19:26:53Z</time></trkpt>
<trkpt lat="39.879703" lon="9.204102"><ele>628.38</ele><time>2022-01-03T19:26:55Z</time></trkpt>
<trkpt lat="39.879573" lon="9.202824"><ele>625.41</ele><time>2022-01-03T19:26:58Z</time></trkpt>
<trkpt lat="39.879481" lon="9.202606"><ele>626.15</ele><time>2022-01-03T19:27:00Z</time></trkpt>
<trkpt lat="39.879364" lon="9.202473"><ele>628.06</ele><time>2022-01-03T19:27:02Z</time></trkpt>
<trkpt lat="39.879219" lon="9.202356"><ele>629.13</ele><time>2022-01-03T19:27:04Z</time></trkpt>
<trkpt lat="39.878817" lon="9.202133"><ele>632.88</ele><time>2022-01-03T19:27:06Z</time></trkpt>
<trkpt lat="39.878379" lon="9.20197"><ele>630.78</ele><time>2022-01-03T19:27:09Z</time></trkpt>
<trkpt lat="39.878125" lon="9.201946"><ele>630.07</ele><time>2022-01-03T19:27:11Z</time></trkpt>
<trkpt lat="39.877384" lon="9.202256"><ele>643.16</ele><time>2022-01-03T19:27:13Z</time></trkpt>
<trkpt lat="39.876758" lon="9.202422"><ele>645.14</ele><time>2022-01-03T19:27:15Z</time></trkpt>
<trkpt lat="39.875926" lon="9.202535"><ele>651.83</ele><time>2022-01-03T19:27:17Z</time></trkpt>
<trkpt lat="39.875532" lon="9.202613"><ele>651.88</ele><time>2022-01-03T19:27:19Z</time></trkpt>
<trkpt lat="39.875267" lon="9.202609"><ele>653.86</ele><time>2022-01-03T19:27:22Z</time></trkpt>
<trkpt lat="39.874532" lon="9.202449"><ele>656.77</ele><time>2022-01-03T19:27:24Z</time></trkpt>
<trkpt lat="39.874325" lon="9.202465"><ele>656.53</ele><time>2022-01-03T19:27:26Z</time></trkpt>
<trkpt lat="39.874088" lon="9.20257"><ele>656.16</ele><time>2022-01-03T19:27:28Z</time></trkpt>
<trkpt lat="39.872695" lon="9.203403"><ele>670.27</ele><time>2022-01-03T19:27:30Z</time></trkpt>
<trkpt lat="39.870908" lon="9.204982"><ele>671.38</ele><time>2022-01-03T19:27:33Z</time></trkpt>
<trkpt lat="39.8696" lon="9.2056"><ele>673.07</ele><time>2022-01-03T19:27:35Z</time></trkpt>
<trkpt lat="39.869504" lon="9.205855"><ele>679.36</ele><time>2022-01-03T19:27:37Z</time></trkpt>
<trkpt lat="39.869355" lon="9.206131"><ele>678.34</ele><time>2022-01-03T19:27:39Z</time></trkpt>
<trkpt lat="39.869261" lon="9.206593"><ele>677.56</ele><time>2022-01-03T19:27:41Z</time></trkpt>
<trkpt lat="39.86925" lon="9.207023"><ele>677.31</ele><time>2022-01-03T19:27:43Z</time></trkpt>
<trkpt lat="39.869366" lon="9.207438"><ele>680.58</ele><time>2022-01-03T19:27:46Z</time></trkpt>
<trkpt lat="39.869665" lon="9.208037"><ele>683.28</ele><time>2022-01-03T19:27:48Z</time></trkpt>
<trkpt lat="39.869776" lon="9.208311"><ele>687.1</ele><time>2022-01-03T19:27:50Z</time></trkpt>
<trkpt lat="39.869867" lon="9.208704"><ele>688.07</ele><time>2022-01-03T19:27:52Z</time></trkpt>
<trkpt lat="39.869969" lon="9.208989"><ele>687.67</ele><time>2022-01-03T19:27:54Z</time></trkpt>
<trkpt lat="39.870119" lon="9.209223"><ele>688.81</ele><time>2022-01-03T19:27:57Z</time></trkpt>
<trkpt lat="39.870805" lon="9.209872"><ele>695.9</ele><time>2022-01-03T19:27:59Z</time></trkpt>
<trkpt lat="39.871052" lon="9.210192"><ele>695.9</ele><time>2022-01-03T19:28:01Z</time></trkpt>
<trkpt lat="39.871206" lon="9.210474"><ele>697.32</ele><time>2022-01-03T19:28:03Z</time></trkpt>
<trkpt lat="39.871295" lon="9.210817"><ele>693.7</ele><time>2022-01-03T19:28:05Z</time></trkpt>
<trkpt lat="39.87142" lon="9.211123"><ele>695.83</ele><time>2022-01-03T19:28:07Z</time></trkpt>
<trkpt lat="39.872527" lon="9.212627"><ele>705.58</ele><time>2022-01-03T19:28:10Z</time></trkpt>
<trkpt lat="39.872875" lon="9.212876"><ele>708.72</ele><time>2022-01-03T19:28:12Z</time></trkpt>
<trkpt lat="39.873308" lon="9.21301"><ele>713.35</ele><time>2022-01-03T19:28:14Z</time></trkpt>
<trkpt lat="39.87348" lon="9.213128"><ele>712.66</ele><time>2022-01-03T19:28:16Z</time></trkpt>
<trkpt lat="39.873631" lon="9.213327"><ele>710.21</ele><time>2022-01-03T19:28:18Z</time></trkpt>
<trkpt lat="39.87374" lon="9.21361"><ele>708.4</ele><time>2022-01-03T19:28:21Z</time></trkpt>
<trkpt lat="39.873778" lon="9.21385"><ele>710.69</ele><time>2022-01-03T19:28:23Z</time></trkpt>
<trkpt lat="39.873758" lon="9.214063"><ele>714.1</ele><time>2022-01-03T19:28:25Z</time></trkpt>
<trkpt lat="39.873659" lon="9.214313"><ele>717.79</ele><time>2022-01-03T19:28:27Z</time></trkpt>
<trkpt lat="39.87352" lon="9.214488"><ele>720.33</ele><time>2022-01-03T19:28:29Z</time></trkpt>
<trkpt lat="39.873368" lon="9.214594"><ele>722.16</ele><time>2022-01-03T19:28:31Z</time></trkpt>
<trkpt lat="39.872908" lon="9.214802"><ele>725.17</ele><time>2022-01-03T19:28:34Z</time></trkpt>
<trkpt lat="39.872682" lon="9.214948"><ele>726.09</ele><time>2022-01-03T19:28:36Z</time></trkpt>
<trkpt lat="39.872521" lon="9.215173"><ele>726.57</ele><time>2022-01-03T19:28:38Z</time></trkpt>
<trkpt lat="39.872358" lon="9.21575"><ele>727.65</ele><time>2022-01-03T19:28:40Z</time></trkpt>
<trkpt lat="39.87232" lon="9.216095"><ele>729.7</ele><time>2022-01-03T19:28:42Z</time></trkpt>
<trkpt lat="39.872325" lon="9.21663"><ele>734.18</ele><time>2022-01-03T19:28:45Z</time></trkpt>
<trkpt lat="39.87225" lon="9.21745"><ele>731.16</ele><time>2022-01-03T19:28:47Z</time></trkpt>
<trkpt lat="39.872313" lon="9.217755"><ele>735.48</ele><time>2022-01-03T19:28:49Z</time></trkpt>
<trkpt lat="39.872388" lon="9.217994"><ele>739.2</ele><time>2022-01-03T19:28:51Z</time></trkpt>
<trkpt lat="39.872599" lon="9.218282"><ele>741.65</ele><time>2022-01-03T19:28:53Z</time></trkpt>
<trkpt lat="39.873167" lon="9.218733"><ele>746.07</ele><time>2022-01-03T19:28:55Z</time></trkpt>
<trkpt lat="39.873332" lon="9.218968"><ele>748.69</ele><time>2022-01-03T19:28:58Z</time></trkpt>
<trkpt lat="39.873412" lon="9.219219"><ele>750.42</ele><time>2022-01-03T19:29:00Z</time></trkpt>
<trkpt lat="39.873416" lon="9.21954"><ele>753.64</ele><time>2022-01-03T19:29:02Z</time></trkpt>
<trkpt lat="39.873362" lon="9.219779"><ele>755.2</ele><time>2022-01-03T19:29:04Z</time></trkpt>
<trkpt lat="39.873185" lon="9.220038"><ele>755.14</ele><time>2022-01-03T19:29:06Z</time></trkpt>
<trkpt lat="39.872311" lon="9.220759"><ele>759.58</ele><time>2022-01-03T19:29:09Z</time></trkpt>
<trkpt lat="39.870911" lon="9.222119"><ele>765.07</ele><time>2022-01-03T19:29:11Z</time></trkpt>
<trkpt lat="39.870625" lon="9.22249"><ele>767.57</ele><time>2022-01-03T19:29:13Z</time></trkpt>
<trkpt lat="39.870119" lon="9.223471"><ele>774.11</ele><time>2022-01-03T19:29:15Z</time></trkpt>
<trkpt lat="39.869575" lon="9.224312"><ele>777.94</ele><time>2022-01-03T19:29:17Z</time></trkpt>
<trkpt lat="39.869518" lon="9.224474"><ele>777.66</ele><time>2022-01-03T19:29:19Z</time></trkpt>
<trkpt lat="39.869493" lon="9.224645"><ele>778.19</ele><time>2022-01-03T19:29:22Z</time></trkpt>
<trkpt lat="39.869526" lon="9.224816"><ele>778.55</ele><time>2022-01-03T19:29:24Z</time></trkpt>
<trkpt lat="39.869596" lon="9.224955"><ele>778.8</ele><time>2022-01-03T19:29:26Z</time></trkpt>
<trkpt lat="39.870105" lon="9.225669"><ele>775.95</ele><time>2022-01-03T19:29:28Z</time></trkpt>
<trkpt lat="39.870453" lon="9.22603"><ele>776.16</ele><time>2022-01-03T19:29:30Z</time></trkpt>
<trkpt lat="39.870586" lon="9.226211"><ele>775.82</ele><time>2022-01-03T19:29:32Z</time></trkpt>
<trkpt lat="39.870764" lon="9.226682"><ele>771.37</ele><time>2022-01-03T19:29:35Z</time></trkpt>
<trkpt lat="39.871087" lon="9.227685"><ele>765.85</ele><time>2022-01-03T19:29:37Z</time></trkpt>
<trkpt lat="39.871094" lon="9.22797"><ele>764.71</ele><time>2022-01-03T19:29:39Z</time></trkpt>
<trkpt lat="39.87113" lon="9.22819"><ele>763.37</ele><time>2022-01-03T19:29:41Z</time></trkpt>
<trkpt lat="39.871224" lon="9.228413"><ele>761.77</ele><time>2022-01-03T19:29:43Z</time></trkpt>
<trkpt lat="39.871435" lon="9.228664"><ele>760.09</ele><time>2022-01-03T19:29:46Z</time></trkpt>
<trkpt lat="39.871641" lon="9.228801"><ele>757.71</ele><time>2022-01-03T19:29:48Z</time></trkpt>
<trkpt lat="39.872232" lon="9.228958"><ele>756.38</ele><time>2022-01-03T19:29:50Z</time></trkpt>
<trkpt lat="39.872777" lon="9.22904"><ele>758.47</ele><time>2022-01-03T19:29:52Z</time></trkpt>
<trkpt lat="39.872942" lon="9.229139"><ele>756.11</ele><time>2022-01-03T19:29:54Z</time></trkpt>
<trkpt lat="39.873065" lon="9.229324"><ele>751.83</ele><time>2022-01-03T19:29:56Z</time></trkpt>
<trkpt lat="39.873109" lon="9.229471"><ele>749.76</ele><time>2022-01-03T19:29:59Z</time></trkpt>
<trkpt lat="39.873089" lon="9.229662"><ele>746.37</ele><time>2022-01-03T19:30:01Z</time></trkpt>
<trkpt lat="39.873009" lon="9.229965"><ele>740.54</ele><time>2022-01-03T19:30:03Z</time></trkpt>
<trkpt lat="39.872966" lon="9.230266"><ele>739.72</ele><time>2022-01-03T19:30:05Z</time></trkpt>
<trkpt lat="39.87295" lon="9.230607"><ele>738.27</ele><time>2022-01-03T19:30:07Z</time></trkpt>
<trkpt lat="39.872977" lon="9.230982"><ele>735.76</ele><time>2022-01-03T19:30:10Z</time></trkpt>
<trkpt lat="39.873166" lon="9.23157"><ele>732.91</ele><time>2022-01-03T19:30:12Z</time></trkpt>
<trkpt lat="39.873362" lon="9.231782"><ele>733.59</ele><time>2022-01-03T19:30:14Z</time></trkpt>
<trkpt lat="39.873527" lon="9.231896"><ele>733.11</ele><time>2022-01-03T19:30:16Z</time></trkpt>
<trkpt lat="39.874136" lon="9.231899"><ele>730.09</ele><time>2022-01-03T19:30:18Z</time></trkpt>
<trkpt lat="39.874576" lon="9.23212"><ele>726.57</ele><time>2022-01-03T19:30:20Z</time></trkpt>
<trkpt lat="39.874676" lon="9.23223"><ele>726.08</ele><time>2022-01-03T19:30:23Z</time></trkpt>
<trkpt lat="39.874728" lon="9.232371"><ele>725.65</ele><time>2022-01-03T19:30:25Z</time></trkpt>
<trkpt lat="39.87475" lon="9.232584"><ele>724.66</ele><time>2022-01-03T19:30:27Z</time></trkpt>
<trkpt lat="39.874723" lon="9.232791"><ele>721.99</ele><time>2022-01-03T19:30:29Z</time></trkpt>
<trkpt lat="39.874733" lon="9.232969"><ele>721.72</ele><time>2022-01-03T19:30:31Z</time></trkpt>
<trkpt lat="39.874781" lon="9.233175"><ele>721.99</ele><time>2022-01-03T19:30:34Z</time></trkpt>
<trkpt lat="39.87479" lon="9.233339"><ele>720.73</ele><time>2022-01-03T19:30:36Z</time></trkpt>
<trkpt lat="39.874767" lon="9.233479"><ele>720.66</ele><time>2022-01-03T19:30:38Z</time></trkpt>
<trkpt lat="39.874721" lon="9.233582"><ele>719.89</ele><time>2022-01-03T19:30:40Z</time></trkpt>
<trkpt lat="39.874672" lon="9.233659"><ele>721.12</ele><time>2022-01-03T19:30:42Z</time></trkpt>
<trkpt lat="39.874555" lon="9.23376"><ele>722.98</ele><time>2022-01-03T19:30:44Z</time></trkpt>
<trkpt lat="39.874418" lon="9.233779"><ele>722.27</ele><time>2022-01-03T19:30:47Z</time></trkpt>
<trkpt lat="39.874307" lon="9.23376"><ele>721.98</ele><time>2022-01-03T19:30:49Z</time></trkpt>
<trkpt lat="39.87403" lon="9.233643"><ele>719.15</ele><time>2022-01-03T19:30:51Z</time></trkpt>
<trkpt lat="39.873891" lon="9.233637"><ele>718.47</ele><time>2022-01-03T19:30:53Z</time></trkpt>
<trkpt lat="39.873712" lon="9.233666"><ele>718.99</ele><time>2022-01-03T19:30:55Z</time></trkpt>
<trkpt lat="39.873032" lon="9.233846"><ele>722.62</ele><time>2022-01-03T19:30:58Z</time></trkpt>
<trkpt lat="39.872634" lon="9.233819"><ele>721.47</ele><time>2022-01-03T19:31:00Z</time></trkpt>
<trkpt lat="39.872464" lon="9.233826"><ele>721.53</ele><time>2022-01-03T19:31:02Z</time></trkpt>
<trkpt lat="39.872008" lon="9.233985"><ele>728.1</ele><time>2022-01-03T19:31:04Z</time></trkpt>
<trkpt lat="39.871825" lon="9.233987"><ele>730.31</ele><time>2022-01-03T19:31:06Z</time></trkpt>
<trkpt lat="39.871672" lon="9.233865"><ele>730.64</ele><time>2022-01-03T19:31:08Z</time></trkpt>
<trkpt lat="39.871442" lon="9.233408"><ele>728.88</ele><time>2022-01-03T19:31:11Z</time></trkpt>
<trkpt lat="39.87131" lon="9.23319"><ele>722.96</ele><time>2022-01-03T19:31:13Z</time></trkpt>
<trkpt lat="39.871262" lon="9.233157"><ele>721.81</ele><time>2022-01-03T19:31:15Z</time></trkpt>
<trkpt lat="39.871208" lon="9.233155"><ele>721.83</ele><time>2022-01-03T19:31:17Z</time></trkpt>
<trkpt lat="39.871106" lon="9.233193"><ele>723.36</ele><time>2022-01-03T19:31:19Z</time></trkpt>
<trkpt lat="39.871012" lon="9.233417"><ele>729.79</ele><time>2022-01-03T19:31:22Z</time></trkpt>
<trkpt lat="39.870588" lon="9.234041"><ele>736.08</ele><time>2022-01-03T19:31:24Z</time></trkpt>
<trkpt lat="39.870453" lon="9.234353"><ele>739.18</ele><time>2022-01-03T19:31:26Z</time></trkpt>
<trkpt lat="39.870171" lon="9.234879"><ele>741.43</ele><time>2022-01-03T19:31:28Z</time></trkpt>
<trkpt lat="39.870067" lon="9.235123"><ele>740.86</ele><time>2022-01-03T19:31:30Z</time></trkpt>
<trkpt lat="39.869919" lon="9.235622"><ele>745.47</ele><time>2022-01-03T19:31:32Z</time></trkpt>
<trkpt lat="39.869839" lon="9.235716"><ele>745.74</ele><time>2022-01-03T19:31:35Z</time></trkpt>
<trkpt lat="39.869771" lon="9.235765"><ele>745.36</ele><time>2022-01-03T19:31:37Z</time></trkpt>
<trkpt lat="39.869551" lon="9.235845"><ele>743.18</ele><time>2022-01-03T19:31:39Z</time></trkpt>
<trkpt lat="39.869102" lon="9.236168"><ele>741.89</ele><time>2022-01-03T19:31:41Z</time></trkpt>
<trkpt lat="39.868618" lon="9.236579"><ele>739.88</ele><time>2022-01-03T19:31:43Z</time></trkpt>
<trkpt lat="39.86851" lon="9.23669"><ele>739.45</ele><time>2022-01-03T19:31:46Z</time></trkpt>
<trkpt lat="39.868412" lon="9.236838"><ele>741.21</ele><time>2022-01-03T19:31:48Z</time></trkpt>
<trkpt lat="39.868082" lon="9.237592"><ele>750.09</ele><time>2022-01-03T19:31:50Z</time></trkpt>
<trkpt lat="39.868047" lon="9.237841"><ele>751.98</ele><time>2022-01-03T19:31:52Z</time></trkpt>
<trkpt lat="39.868056" lon="9.238017"><ele>752.87</ele><time>2022-01-03T19:31:54Z</time></trkpt>
<trkpt lat="39.868138" lon="9.23818"><ele>754.04</ele><time>2022-01-03T19:31:56Z</time></trkpt>
<trkpt lat="39.868656" lon="9.238688"><ele>756.15</ele><time>2022-01-03T19:31:59Z</time></trkpt>
<trkpt lat="39.868967" lon="9.239041"><ele>755.05</ele><time>2022-01-03T19:32:01Z</time></trkpt>
<trkpt lat="39.86915" lon="9.239193"><ele>754.31</ele><time>2022-01-03T19:32:03Z</time></trkpt>
<trkpt lat="39.869304" lon="9.239296"><ele>753.93</ele><time>2022-01-03T19:32:05Z</time></trkpt>
<trkpt lat="39.869794" lon="9.239508"><ele>755.11</ele><time>2022-01-03T19:32:07Z</time></trkpt>
<trkpt lat="39.869905" lon="9.239568"><ele>756.0</ele><time>2022-01-03T19:32:10Z</time></trkpt>
<trkpt lat="39.869982" lon="9.239632"><ele>755.93</ele><time>2022-01-03T19:32:12Z</time></trkpt>
<trkpt lat="39.870584" lon="9.240534"><ele>750.12</ele><time>2022-01-03T19:32:14Z</time></trkpt>
<trkpt lat="39.870762" lon="9.240655"><ele>751.89</ele><time>2022-01-03T19:32:16Z</time></trkpt>
<trkpt lat="39.87119" lon="9.240761"><ele>760.05</ele><time>2022-01-03T19:32:18Z</time></trkpt>
<trkpt lat="39.871361" lon="9.240841"><ele>761.25</ele><time>2022-01-03T19:32:20Z</time></trkpt>
<trkpt lat="39.871457" lon="9.241014"><ele>760.79</ele><time>2022-01-03T19:32:23Z</time></trkpt>
<trkpt lat="39.871464" lon="9.241244"><ele>760.26</ele><time>2022-01-03T19:32:25Z</time></trkpt>
<trkpt lat="39.871373" lon="9.241391"><ele>758.72</ele><time>2022-01-03T19:32:27Z</time></trkpt>
<trkpt lat="39.870827" lon="9.241891"><ele>758.15</ele><time>2022-01-03T19:32:29Z</time></trkpt>
<trkpt lat="39.870681" lon="9.242113"><ele>757.47</ele><time>2022-01-03T19:32:31Z</time></trkpt>
<trkpt lat="39.870579" lon="9.242407"><ele>758.51</ele><time>2022-01-03T19:32:34Z</time></trkpt>
<trkpt lat="39.870531" lon="9.242844"><ele>760.91</ele><time>2022-01-03T19:32:36Z</time></trkpt>
<trkpt lat="39.870526" lon="9.243217"><ele>760.39</ele><time>2022-01-03T19:32:38Z</time></trkpt>
<trkpt lat="39.870588" lon="9.243489"><ele>759.97</ele><time>2022-01-03T19:32:40Z</time></trkpt>
<trkpt lat="39.870719" lon="9.24373"><ele>761.51</ele><time>2022-01-03T19:32:42Z</time></trkpt>
<trkpt lat="39.870925" lon="9.243899"><ele>765.52</ele><time>2022-01-03T19:32:44Z</time></trkpt>
<trkpt lat="39.871358" lon="9.244064"><ele>775.1</ele><time>2022-01-03T19:32:47Z</time></trkpt>
<trkpt lat="39.871495" lon="9.244149"><ele>777.04</ele><time>2022-01-03T19:32:49Z</time></trkpt>
<trkpt lat="39.871582" lon="9.244314"><ele>777.97</ele><time>2022-01-03T19:32:51Z</time></trkpt>
<trkpt lat="39.871578" lon="9.244439"><ele>777.11</ele><time>2022-01-03T19:32:53Z</time></trkpt>
<trkpt lat="39.871531" lon="9.24459"><ele>778.44</ele><time>2022-01-03T19:32:55Z</time></trkpt>
<trkpt lat="39.871434" lon="9.244677"><ele>777.46</ele><time>2022-01-03T19:32:58Z</time></trkpt>
<trkpt lat="39.871065" lon="9.244865"><ele>776.71</ele><time>2022-01-03T19:33:00Z</time></trkpt>
<trkpt lat="39.870454" lon="9.245065"><ele>774.97</ele><time>2022-01-03T19:33:02Z</time></trkpt>
<trkpt lat="39.870275" lon="9.245193"><ele>777.65</ele><time>2022-01-03T19:33:04Z</time></trkpt>
<trkpt lat="39.870148" lon="9.245394"><ele>781.68</ele><time>2022-01-03T19:33:06Z</time></trkpt>
<trkpt lat="39.870122" lon="9.246123"><ele>783.93</ele><time>2022-01-03T19:33:08Z</time></trkpt>
<trkpt lat="39.870195" lon="9.246573"><ele>780.64</ele><time>2022-01-03T19:33:11Z</time></trkpt>
<trkpt lat="39.870842" lon="9.248027"><ele>786.87</ele><time>2022-01-03T19:33:13Z</time></trkpt>
<trkpt lat="39.870929" lon="9.248357"><ele>786.24</ele><time>2022-01-03T19:33:15Z</time></trkpt>
<trkpt lat="39.871058" lon="9.249288"><ele>783.42</ele><time>2022-01-03T19:33:17Z</time></trkpt>
<trkpt lat="39.871193" lon="9.24962"><ele>786.19</ele><time>2022-01-03T19:33:19Z</time></trkpt>
<trkpt lat="39.871416" lon="9.249854"><ele>789.02</ele><time>2022-01-03T19:33:21Z</time></trkpt>
<trkpt lat="39.871628" lon="9.250015"><ele>789.17</ele><time>2022-01-03T19:33:24Z</time></trkpt>
<trkpt lat="39.871795" lon="9.250186"><ele>788.19</ele><time>2022-01-03T19:33:26Z</time></trkpt>
<trkpt lat="39.87208" lon="9.250562"><ele>784.77</ele><time>2022-01-03T19:33:28Z</time></trkpt>
<trkpt lat="39.872843" lon="9.251332"><ele>792.78</ele><time>2022-01-03T19:33:30Z</time></trkpt>
<trkpt lat="39.872936" lon="9.251522"><ele>791.84</ele><time>2022-01-03T19:33:32Z</time></trkpt>
<trkpt lat="39.87294" lon="9.251782"><ele>787.51</ele><time>2022-01-03T19:33:35Z</time></trkpt>
<trkpt lat="39.87291" lon="9.252022"><ele>784.26</ele><time>2022-01-03T19:33:37Z</time></trkpt>
<trkpt lat="39.872943" lon="9.252177"><ele>783.93</ele><time>2022-01-03T19:33:39Z</time></trkpt>
<trkpt lat="39.873047" lon="9.252305"><ele>784.34</ele><time>2022-01-03T19:33:41Z</time></trkpt>
<trkpt lat="39.873129" lon="9.252349"><ele>783.89</ele><time>2022-01-03T19:33:43Z</time></trkpt>
<trkpt lat="39.87321" lon="9.252361"><ele>783.79</ele><time>2022-01-03T19:33:45Z</time></trkpt>
<trkpt lat="39.87385" lon="9.252142"><ele>793.41</ele><time>2022-01-03T19:33:48Z</time></trkpt>
<trkpt lat="39.873942" lon="9.252132"><ele>794.16</ele><time>2022-01-03T19:33:50Z</time></trkpt>
<trkpt lat="39.874479" lon="9.252223"><ele>783.97</ele><time>2022-01-03T19:33:52Z</time></trkpt>
<trkpt lat="39.874954" lon="9.252231"><ele>782.82</ele><time>2022-01-03T19:33:54Z</time></trkpt>
<trkpt lat="39.875149" lon="9.25228"><ele>781.77</ele><time>2022-01-03T19:33:56Z</time></trkpt>
<trkpt lat="39.875291" lon="9.252356"><ele>780.08</ele><time>2022-01-03T19:33:59Z</time></trkpt>
<trkpt lat="39.875431" lon="9.252474"><ele>779.43</ele><time>2022-01-03T19:34:01Z</time></trkpt>
<trkpt lat="39.875525" lon="9.252626"><ele>777.08</ele><time>2022-01-03T19:34:03Z</time></trkpt>
<trkpt lat="39.875576" lon="9.252796"><ele>773.74</ele><time>2022-01-03T19:34:05Z</time></trkpt>
<trkpt lat="39.875561" lon="9.253242"><ele>767.51</ele><time>2022-01-03T19:34:07Z</time></trkpt>
<trkpt lat="39.875577" lon="9.253462"><ele>763.07</ele><time>2022-01-03T19:34:09Z</time></trkpt>
<trkpt lat="39.87561" lon="9.253546"><ele>761.91</ele><time>2022-01-03T19:34:12Z</time></trkpt>
<trkpt lat="39.875654" lon="9.253616"><ele>761.72</ele><time>2022-01-03T19:34:14Z</time></trkpt>
<trkpt lat="39.875739" lon="9.253676"><ele>762.77</ele><time>2022-01-03T19:34:16Z</time></trkpt>
<trkpt lat="39.875924" lon="9.253732"><ele>764.61</ele><time>2022-01-03T19:34:18Z</time></trkpt>
<trkpt lat="39.87624" lon="9.253651"><ele>766.91</ele><time>2022-01-03T19:34:20Z</time></trkpt>
<trkpt lat="39.87651" lon="9.253498"><ele>766.63</ele><time>2022-01-03T19:34:23Z</time></trkpt>
<trkpt lat="39.876797" lon="9.253291"><ele>765.29</ele><time>2022-01-03T19:34:25Z</time></trkpt>
<trkpt lat="39.877153" lon="9.253016"><ele>758.34</ele><time>2022-01-03T19:34:27Z</time></trkpt>
<trkpt lat="39.87726" lon="9.252913"><ele>756.57</ele><time>2022-01-03T19:34:29Z</time></trkpt>
<trkpt lat="39.877414" lon="9.252555"><ele>757.99</ele><time>2022-01-03T19:34:31Z</time></trkpt>
<trkpt lat="39.877549" lon="9.25247"><ele>756.74</ele><time>2022-01-03T19:34:33Z</time></trkpt>
<trkpt lat="39.877643" lon="9.252487"><ele>756.8</ele><time>2022-01-03T19:34:36Z</time></trkpt>
<trkpt lat="39.877742" lon="9.252531"><ele>756.52</ele><time>2022-01-03T19:34:38Z</time></trkpt>
<trkpt lat="39.877788" lon="9.252595"><ele>756.28</ele><time>2022-01-03T19:34:40Z</time></trkpt>
<trkpt lat="39.877827" lon="9.252691"><ele>756.28</ele><time>2022-01-03T19:34:42Z</time></trkpt>
<trkpt lat="39.877925" lon="9.253111"><ele>751.89</ele><time>2022-01-03T19:34:44Z</time></trkpt>
<trkpt lat="39.878037" lon="9.253353"><ele>749.11</ele><time>2022-01-03T19:34:47Z</time></trkpt>
<trkpt lat="39.878222" lon="9.2536"><ele>746.15</ele><time>2022-01-03T19:34:49Z</time></trkpt>
<trkpt lat="39.878413" lon="9.253758"><ele>745.92</ele><time>2022-01-03T19:34:51Z</time></trkpt>
<trkpt lat="39.878624" lon="9.253842"><ele>747.54</ele><time>2022-01-03T19:34:53Z</time></trkpt>
<trkpt lat="39.878701" lon="9.253908"><ele>747.17</ele><time>2022-01-03T19:34:55Z</time></trkpt>
<trkpt lat="39.878747" lon="9.254001"><ele>746.29</ele><time>2022-01-03T19:34:57Z</time></trkpt>
<trkpt lat="39.878776" lon="9.254129"><ele>743.88</ele><time>2022-01-03T19:35:00Z</time></trkpt>
<trkpt lat="39.878751" lon="9.254282"><ele>745.01</ele><time>2022-01-03T19:35:02Z</time></trkpt>
<trkpt lat="39.87869" lon="9.254398"><ele>746.41</ele><time>2022-01-03T19:35:04Z</time></trkpt>
<trkpt lat="39.878546" lon="9.254501"><ele>747.28</ele><time>2022-01-03T19:35:06Z</time></trkpt>
<trkpt lat="39.878173" lon="9.254606"><ele>750.62</ele><time>2022-01-03T19:35:08Z</time></trkpt>
<trkpt lat="39.877529" lon="9.254646"><ele>752.22</ele><time>2022-01-03T19:35:11Z</time></trkpt>
<trkpt lat="39.877405" lon="9.254751"><ele>752.61</ele><time>2022-01-03T19:35:13Z</time></trkpt>
<trkpt lat="39.877285" lon="9.254896"><ele>753.59</ele><time>2022-01-03T19:35:15Z</time></trkpt>
<trkpt lat="39.877089" lon="9.255204"><ele>753.26</ele><time>2022-01-03T19:35:17Z</time></trkpt>
<trkpt lat="39.877059" lon="9.255359"><ele>754.12</ele><time>2022-01-03T19:35:19Z</time></trkpt>
<trkpt lat="39.877018" lon="9.255752"><ele>757.8</ele><time>2022-01-03T19:35:21Z</time></trkpt>
<trkpt lat="39.876791" lon="9.256303"><ele>766.86</ele><time>2022-01-03T19:35:24Z</time></trkpt>
<trkpt lat="39.876708" lon="9.256425"><ele>769.25</ele><time>2022-01-03T19:35:26Z</time></trkpt>
<trkpt lat="39.876624" lon="9.256485"><ele>770.86</ele><time>2022-01-03T19:35:28Z</time></trkpt>
<trkpt lat="39.876499" lon="9.256496"><ele>773.53</ele><time>2022-01-03T19:35:30Z</time></trkpt>
<trkpt lat="39.876396" lon="9.256438"><ele>773.02</ele><time>2022-01-03T19:35:32Z</time></trkpt>
<trkpt lat="39.876256" lon="9.256309"><ele>771.02</ele><time>2022-01-03T19:35:35Z</time></trkpt>
<trkpt lat="39.876084" lon="9.256214"><ele>769.83</ele><time>2022-01-03T19:35:37Z</time></trkpt>
<trkpt lat="39.875708" lon="9.256086"><ele>770.0</ele><time>2022-01-03T19:35:39Z</time></trkpt>
<trkpt lat="39.875356" lon="9.255997"><ele>771.77</ele><time>2022-01-03T19:35:41Z</time></trkpt>
<trkpt lat="39.875122" lon="9.256048"><ele>773.87</ele><time>2022-01-03T19:35:43Z</time></trkpt>
<trkpt lat="39.874722" lon="9.256305"><ele>774.19</ele><time>2022-01-03T19:35:45Z</time></trkpt>
<trkpt lat="39.874595" lon="9.256442"><ele>775.06</ele><time>2022-01-03T19:35:48Z</time></trkpt>
<trkpt lat="39.874527" lon="9.256574"><ele>776.89</ele><time>2022-01-03T19:35:50Z</time></trkpt>
<trkpt lat="39.874483" lon="9.256748"><ele>779.8</ele><time>2022-01-03T19:35:52Z</time></trkpt>
<trkpt lat="39.874428" lon="9.257094"><ele>785.44</ele><time>2022-01-03T19:35:54Z</time></trkpt>
<trkpt lat="39.874378" lon="9.25722"><ele>787.24</ele><time>2022-01-03T19:35:56Z</time></trkpt>
<trkpt lat="39.874299" lon="9.257284"><ele>788.45</ele><time>2022-01-03T19:35:59Z</time></trkpt>
<trkpt lat="39.874131" lon="9.257335"><ele>789.06</ele><time>2022-01-03T19:36:01Z</time></trkpt>
<trkpt lat="39.873641" lon="9.257397"><ele>787.3</ele><time>2022-01-03T19:36:03Z</time></trkpt>
<trkpt lat="39.873168" lon="9.25754"><ele>792.35</ele><time>2022-01-03T19:36:05Z</time></trkpt>
<trkpt lat="39.872228" lon="9.257504"><ele>794.12</ele><time>2022-01-03T19:36:07Z</time></trkpt>
<trkpt lat="39.872054" lon="9.257541"><ele>793.33</ele><time>2022-01-03T19:36:09Z</time></trkpt>
<trkpt lat="39.871911" lon="9.257705"><ele>795.2</ele><time>2022-01-03T19:36:12Z</time></trkpt>
<trkpt lat="39.87159" lon="9.258721"><ele>804.97</ele><time>2022-01-03T19:36:14Z</time></trkpt>
<trkpt lat="39.871431" lon="9.258996"><ele>807.11</ele><time>2022-01-03T19:36:16Z</time></trkpt>
<trkpt lat="39.87068" lon="9.259848"><ele>806.46</ele><time>2022-01-03T19:36:18Z</time></trkpt>
<trkpt lat="39.870066" lon="9.260658"><ele>804.02</ele><time>2022-01-03T19:36:20Z</time></trkpt>
<trkpt lat="39.869992" lon="9.260919"><ele>805.93</ele><time>2022-01-03T19:36:23Z</time></trkpt>
<trkpt lat="39.869995" lon="9.261225"><ele>809.59</ele><time>2022-01-03T19:36:25Z</time></trkpt>
<trkpt lat="39.869976" lon="9.261432"><ele>810.59</ele><time>2022-01-03T19:36:27Z</time></trkpt>
<trkpt lat="39.869904" lon="9.261596"><ele>810.07</ele><time>2022-01-03T19:36:29Z</time></trkpt>
<trkpt lat="39.86924" lon="9.262229"><ele>809.25</ele><time>2022-01-03T19:36:31Z</time></trkpt>
<trkpt lat="39.868983" lon="9.2624"><ele>810.25</ele><time>2022-01-03T19:36:33Z</time></trkpt>
<trkpt lat="39.867769" lon="9.262717"><ele>798.48</ele><time>2022-01-03T19:36:36Z</time></trkpt>
<trkpt lat="39.867714" lon="9.262758"><ele>798.18</ele><time>2022-01-03T19:36:38Z</time></trkpt>
<trkpt lat="39.867672" lon="9.262818"><ele>797.57</ele><time>2022-01-03T19:36:40Z</time></trkpt>
<trkpt lat="39.867639" lon="9.262959"><ele>796.2</ele><time>2022-01-03T19:36:42Z</time></trkpt>
<trkpt lat="39.867665" lon="9.26309"><ele>795.41</ele><time>2022-01-03T19:36:44Z</time></trkpt>
<trkpt lat="39.867688" lon="9.263132"><ele>795.21</ele><time>2022-01-03T19:36:47Z</time></trkpt>
<trkpt lat="39.86838" lon="9.2639"><ele>795.85</ele><time>2022-01-03T19:36:49Z</time></trkpt>
<trkpt lat="39.868454" lon="9.264051"><ele>795.53</ele><time>2022-01-03T19:36:51Z</time></trkpt>
<trkpt lat="39.868483" lon="9.264212"><ele>794.83</ele><time>2022-01-03T19:36:53Z</time></trkpt>
<trkpt lat="39.868447" lon="9.264392"><ele>794.64</ele><time>2022-01-03T19:36:55Z</time></trkpt>
<trkpt lat="39.868355" lon="9.264532"><ele>795.67</ele><time>2022-01-03T19:36:57Z</time></trkpt>
<trkpt lat="39.868238" lon="9.264602"><ele>797.43</ele><time>2022-01-03T19:37:00Z</time></trkpt>
<trkpt lat="39.868078" lon="9.264611"><ele>798.66</ele><time>2022-01-03T19:37:02Z</time></trkpt>
<trkpt lat="39.86778" lon="9.264399"><ele>793.34</ele><time>2022-01-03T19:37:04Z</time></trkpt>
<trkpt lat="39.867632" lon="9.264375"><ele>795.5</ele><time>2022-01-03T19:37:06Z</time></trkpt>
<trkpt lat="39.866737" lon="9.264379"><ele>801.32</ele><time>2022-01-03T19:37:08Z</time></trkpt>
<trkpt lat="39.866026" lon="9.264489"><ele>806.76</ele><time>2022-01-03T19:37:11Z</time></trkpt>
<trkpt lat="39.865516" lon="9.264429"><ele>807.34</ele><time>2022-01-03T19:37:13Z</time></trkpt>
<trkpt lat="39.865355" lon="9.264492"><ele>807.36</ele><time>2022-01-03T19:37:15Z</time></trkpt>
<trkpt lat="39.865264" lon="9.264579"><ele>808.34</ele><time>2022-01-03T19:37:17Z</time></trkpt>
<trkpt lat="39.865004" lon="9.264952"><ele>813.16</ele><time>2022-01-03T19:37:19Z</time></trkpt>
<trkpt lat="39.864833" lon="9.265123"><ele>815.46</ele><time>2022-01-03T19:37:21Z</time></trkpt>
<trkpt lat="39.864419" lon="9.265336"><ele>819.13</ele><time>2022-01-03T19:37:24Z</time></trkpt>
<trkpt lat="39.864302" lon="9.265368"><ele>821.31</ele><time>2022-01-03T19:37:26Z</time></trkpt>
<trkpt lat="39.863557" lon="9.265336"><ele>824.67</ele><time>2022-01-03T19:37:28Z</time></trkpt>
<trkpt lat="39.863371" lon="9.265392"><ele>823.88</ele><time>2022-01-03T19:37:30Z</time></trkpt>
<trkpt lat="39.862428" lon="9.265853"><ele>815.9</ele><time>2022-01-03T19:37:32Z</time></trkpt>
<trkpt lat="39.862298" lon="9.265972"><ele>814.5</ele><time>2022-01-03T19:37:34Z</time></trkpt>
<trkpt lat="39.862175" lon="9.266137"><ele>813.31</ele><time>2022-01-03T19:37:37Z</time></trkpt>
<trkpt lat="39.861905" lon="9.26661"><ele>808.15</ele><time>2022-01-03T19:37:39Z</time></trkpt>
<trkpt lat="39.861708" lon="9.266895"><ele>803.3</ele><time>2022-01-03T19:37:41Z</time></trkpt>
<trkpt lat="39.861575" lon="9.267002"><ele>802.48</ele><time>2022-01-03T19:37:43Z</time></trkpt>
<trkpt lat="39.860844" lon="9.267367"><ele>799.2</ele><time>2022-01-03T19:37:45Z</time></trkpt>
<trkpt lat="39.860691" lon="9.267524"><ele>798.16</ele><time>2022-01-03T19:37:48Z</time></trkpt>
<trkpt lat="39.860374" lon="9.267935"><ele>795.2</ele><time>2022-01-03T19:37:50Z</time></trkpt>
<trkpt lat="39.860309" lon="9.268083"><ele>794.77</ele><time>2022-01-03T19:37:52Z</time></trkpt>
<trkpt lat="39.860089" lon="9.268784"><ele>795.14</ele><time>2022-01-03T19:37:54Z</time></trkpt>
<trkpt lat="39.860025" lon="9.26891"><ele>795.66</ele><time>2022-01-03T19:37:56Z</time></trkpt>
<trkpt lat="39.859893" lon="9.269028"><ele>796.05</ele><time>2022-01-03T19:37:58Z</time></trkpt>
<trkpt lat="39.859712" lon="9.269123"><ele>796.28</ele><time>2022-01-03T19:38:01Z</time></trkpt>
<trkpt lat="39.85955" lon="9.269114"><ele>797.17</ele><time>2022-01-03T19:38:03Z</time></trkpt>
<trkpt lat="39.859438" lon="9.269055"><ele>796.67</ele><time>2022-01-03T19:38:05Z</time></trkpt>
<trkpt lat="39.859088" lon="9.268738"><ele>793.02</ele><time>2022-01-03T19:38:07Z</time></trkpt>
<trkpt lat="39.858957" lon="9.268674"><ele>792.1</ele><time>2022-01-03T19:38:09Z</time></trkpt>
<trkpt lat="39.858832" lon="9.268668"><ele>792.07</ele><time>2022-01-03T19:38:12Z</time></trkpt>
<trkpt lat="39.858721" lon="9.2687"><ele>792.15</ele><time>2022-01-03T19:38:14Z</time></trkpt>
<trkpt lat="39.858596" lon="9.268789"><ele>792.17</ele><time>2022-01-03T19:38:16Z</time></trkpt>
<trkpt lat="39.858479" lon="9.268939"><ele>792.78</ele><time>2022-01-03T19:38:18Z</time></trkpt>
<trkpt lat="39.858378" lon="9.269183"><ele>795.02</ele><time>2022-01-03T19:38:20Z</time></trkpt>
<trkpt lat="39.858223" lon="9.269402"><ele>796.74</ele><time>2022-01-03T19:38:22Z</time></trkpt>
<trkpt lat="39.857762" lon="9.269827"><ele>794.67</ele><time>2022-01-03T19:38:25Z</time></trkpt>
<trkpt lat="39.857569" lon="9.270046"><ele>794.61</ele><time>2022-01-03T19:38:27Z</time></trkpt>
<trkpt lat="39.857368" lon="9.270417"><ele>794.31</ele><time>2022-01-03T19:38:29Z</time></trkpt>
<trkpt lat="39.857327" lon="9.270525"><ele>794.09</ele><time>2022-01-03T19:38:31Z</time></trkpt>
<trkpt lat="39.857331" lon="9.270698"><ele>793.34</ele><time>2022-01-03T19:38:33Z</time></trkpt>
<trkpt lat="39.857476" lon="9.271095"><ele>792.77</ele><time>2022-01-03T19:38:36Z</time></trkpt>
<trkpt lat="39.857489" lon="9.271336"><ele>791.18</ele><time>2022-01-03T19:38:38Z</time></trkpt>
<trkpt lat="39.85747" lon="9.271458"><ele>790.22</ele><time>2022-01-03T19:38:40Z</time></trkpt>
<trkpt lat="39.857288" lon="9.271892"><ele>787.2</ele><time>2022-01-03T19:38:42Z</time></trkpt>
<trkpt lat="39.857102" lon="9.272201"><ele>784.37</ele><time>2022-01-03T19:38:44Z</time></trkpt>
<trkpt lat="39.856743" lon="9.272647"><ele>780.93</ele><time>2022-01-03T19:38:46Z</time></trkpt>
<trkpt lat="39.856614" lon="9.272748"><ele>780.69</ele><time>2022-01-03T19:38:49Z</time></trkpt>
<trkpt lat="39.856368" lon="9.272878"><ele>778.23</ele><time>2022-01-03T19:38:51Z</time></trkpt>
<trkpt lat="39.856228" lon="9.272987"><ele>777.98</ele><time>2022-01-03T19:38:53Z</time></trkpt>
<trkpt lat="39.856085" lon="9.273175"><ele>777.98</ele><time>2022-01-03T19:38:55Z</time></trkpt>
<trkpt lat="39.855934" lon="9.273418"><ele>777.25</ele><time>2022-01-03T19:38:57Z</time></trkpt>
<trkpt lat="39.855287" lon="9.274216"><ele>766.34</ele><time>2022-01-03T19:39:00Z</time></trkpt>
<trkpt lat="39.855174" lon="9.274304"><ele>766.86</ele><time>2022-01-03T19:39:02Z</time></trkpt>
<trkpt lat="39.855044" lon="9.274345"><ele>768.22</ele><time>2022-01-03T19:39:04Z</time></trkpt>
<trkpt lat="39.854912" lon="9.274316"><ele>769.56</ele><time>2022-01-03T19:39:06Z</time></trkpt>
<trkpt lat="39.854805" lon="9.274242"><ele>770.38</ele><time>2022-01-03T19:39:08Z</time></trkpt>
<trkpt lat="39.854506" lon="9.273775"><ele>765.49</ele><time>2022-01-03T19:39:10Z</time></trkpt>
<trkpt lat="39.854382" lon="9.273642"><ele>762.92</ele><time>2022-01-03T19:39:13Z</time></trkpt>
<trkpt lat="39.854188" lon="9.273559"><ele>763.23</ele><time>2022-01-03T19:39:15Z</time></trkpt>
<trkpt lat="39.853409" lon="9.273339"><ele>763.6</ele><time>2022-01-03T19:39:17Z</time></trkpt>
<trkpt lat="39.852877" lon="9.273256"><ele>764.62</ele><time>2022-01-03T19:39:19Z</time></trkpt>
<trkpt lat="39.852465" lon="9.27306"><ele>763.04</ele><time>2022-01-03T19:39:21Z</time></trkpt>
<trkpt lat="39.852361" lon="9.273063"><ele>763.04</ele><time>2022-01-03T19:39:24Z</time></trkpt>
<trkpt lat="39.852259" lon="9.273142"><ele>763.12</ele><time>2022-01-03T19:39:26Z</time></trkpt>
<trkpt lat="39.852195" lon="9.273215"><ele>763.0</ele><time>2022-01-03T19:39:28Z</time></trkpt>
<trkpt lat="39.852151" lon="9.273307"><ele>763.0</ele><time>2022-01-03T19:39:30Z</time></trkpt>
<trkpt lat="39.85215" lon="9.273502"><ele>763.14</ele><time>2022-01-03T19:39:32Z</time></trkpt>
<trkpt lat="39.852213" lon="9.273671"><ele>763.9</ele><time>2022-01-03T19:39:34Z</time></trkpt>
<trkpt lat="39.85256" lon="9.274311"><ele>766.77</ele><time>2022-01-03T19:39:37Z</time></trkpt>
<trkpt lat="39.852612" lon="9.274475"><ele>767.73</ele><time>2022-01-03T19:39:39Z</time></trkpt>
<trkpt lat="39.852609" lon="9.274586"><ele>768.79</ele><time>2022-01-03T19:39:41Z</time></trkpt>
<trkpt lat="39.852578" lon="9.274679"><ele>769.36</ele><time>2022-01-03T19:39:43Z</time></trkpt>
<trkpt lat="39.852514" lon="9.274722"><ele>769.16</ele><time>2022-01-03T19:39:45Z</time></trkpt>
<trkpt lat="39.852374" lon="9.274756"><ele>769.38</ele><time>2022-01-03T19:39:48Z</time></trkpt>
<trkpt lat="39.852211" lon="9.274743"><ele>768.67</ele><time>2022-01-03T19:39:50Z</time></trkpt>
<trkpt lat="39.850845" lon="9.27427"><ele>778.04</ele><time>2022-01-03T19:39:52Z</time></trkpt>
<trkpt lat="39.850596" lon="9.274205"><ele>777.93</ele><time>2022-01-03T19:39:54Z</time></trkpt>
<trkpt lat="39.850427" lon="9.274217"><ele>778.45</ele><time>2022-01-03T19:39:56Z</time></trkpt>
<trkpt lat="39.850288" lon="9.274296"><ele>780.72</ele><time>2022-01-03T19:39:58Z</time></trkpt>
<trkpt lat="39.849757" lon="9.274698"><ele>785.68</ele><time>2022-01-03T19:40:01Z</time></trkpt>
<trkpt lat="39.849475" lon="9.274945"><ele>789.56</ele><time>2022-01-03T19:40:03Z</time></trkpt>
<trkpt lat="39.849293" lon="9.275054"><ele>792.54</ele><time>2022-01-03T19:40:05Z</time></trkpt>
<trkpt lat="39.849134" lon="9.275058"><ele>793.86</ele><time>2022-01-03T19:40:07Z</time></trkpt>
<trkpt lat="39.849019" lon="9.275021"><ele>794.21</ele><time>2022-01-03T19:40:09Z</time></trkpt>
<trkpt lat="39.84883" lon="9.274899"><ele>794.45</ele><time>2022-01-03T19:40:12Z</time></trkpt>
<trkpt lat="39.848571" lon="9.274685"><ele>794.29</ele><time>2022-01-03T19:40:14Z</time></trkpt>
<trkpt lat="39.848317" lon="9.27453"><ele>796.02</ele><time>2022-01-03T19:40:16Z</time></trkpt>
<trkpt lat="39.848154" lon="9.274502"><ele>796.77</ele><time>2022-01-03T19:40:18Z</time></trkpt>
<trkpt lat="39.84801" lon="9.274511"><ele>797.36</ele><time>2022-01-03T19:40:20Z</time></trkpt>
<trkpt lat="39.847865" lon="9.274577"><ele>796.97</ele><time>2022-01-03T19:40:22Z</time></trkpt>
<trkpt lat="39.847717" lon="9.274685"><ele>794.83</ele><time>2022-01-03T19:40:25Z</time></trkpt>
<trkpt lat="39.847505" lon="9.274932"><ele>791.64</ele><time>2022-01-03T19:40:27Z</time></trkpt>
<trkpt lat="39.847056" lon="9.275386"><ele>786.76</ele><time>2022-01-03T19:40:29Z</time></trkpt>
<trkpt lat="39.846846" lon="9.275652"><ele>784.78</ele><time>2022-01-03T19:40:31Z</time></trkpt>
<trkpt lat="39.846775" lon="9.27582"><ele>783.89</ele><time>2022-01-03T19:40:33Z</time></trkpt>
<trkpt lat="39.846773" lon="9.275967"><ele>783.13</ele><time>2022-01-03T19:40:36Z</time></trkpt>
<trkpt lat="39.846795" lon="9.27612"><ele>782.73</ele><time>2022-01-03T19:40:38Z</time></trkpt>
<trkpt lat="39.846863" lon="9.276302"><ele>783.36</ele><time>2022-01-03T19:40:40Z</time></trkpt>
<trkpt lat="39.846896" lon="9.276469"><ele>783.83</ele><time>2022-01-03T19:40:42Z</time></trkpt>
<trkpt lat="39.846862" lon="9.276635"><ele>783.47</ele><time>2022-01-03T19:40:44Z</time></trkpt>
<trkpt lat="39.846817" lon="9.276758"><ele>783.19</ele><time>2022-01-03T19:40:46Z</time></trkpt>
<trkpt lat="39.846706" lon="9.276843"><ele>782.66</ele><time>2022-01-03T19:40:49Z</time></trkpt>
<trkpt lat="39.846557" lon="9.276898"><ele>782.43</ele><time>2022-01-03T19:40:51Z</time></trkpt>
<trkpt lat="39.846222" lon="9.276971"><ele>783.2</ele><time>2022-01-03T19:40:53Z</time></trkpt>
<trkpt lat="39.846035" lon="9.277034"><ele>784.08</ele><time>2022-01-03T19:40:55Z</time></trkpt>
<trkpt lat="39.845929" lon="9.277113"><ele>784.19</ele><time>2022-01-03T19:40:57Z</time></trkpt>
<trkpt lat="39.845812" lon="9.277271"><ele>784.53</ele><time>2022-01-03T19:41:00Z</time></trkpt>
<trkpt lat="39.845271" lon="9.278282"><ele>786.81</ele><time>2022-01-03T19:41:02Z</time></trkpt>
<trkpt lat="39.844723" lon="9.278856"><ele>791.65</ele><time>2022-01-03T19:41:04Z</time></trkpt>
<trkpt lat="39.844006" lon="9.279548"><ele>793.26</ele><time>2022-01-03T19:41:06Z</time></trkpt>
<trkpt lat="39.843766" lon="9.279752"><ele>795.36</ele><time>2022-01-03T19:41:08Z</time></trkpt>
<trkpt lat="39.843615" lon="9.279834"><ele>797.97</ele><time>2022-01-03T19:41:10Z</time></trkpt>
<trkpt lat="39.843405" lon="9.279876"><ele>801.32</ele><time>2022-01-03T19:41:13Z</time></trkpt>
<trkpt lat="39.842437" lon="9.279814"><ele>811.26</ele><time>2022-01-03T19:41:15Z</time></trkpt>
<trkpt lat="39.842305" lon="9.27971"><ele>811.18</ele><time>2022-01-03T19:41:17Z</time></trkpt>
<trkpt lat="39.842243" lon="9.279587"><ele>812.72</ele><time>2022-01-03T19:41:19Z</time></trkpt>
<trkpt lat="39.842236" lon="9.279417"><ele>814.38</ele><time>2022-01-03T19:41:21Z</time></trkpt>
<trkpt lat="39.842292" lon="9.279236"><ele>816.74</ele><time>2022-01-03T19:41:23Z</time></trkpt>
<trkpt lat="39.842441" lon="9.279026"><ele>816.23</ele><time>2022-01-03T19:41:26Z</time></trkpt>
<trkpt lat="39.842837" lon="9.278579"><ele>818.98</ele><time>2022-01-03T19:41:28Z</time></trkpt>
<trkpt lat="39.842987" lon="9.278337"><ele>820.91</ele><time>2022-01-03T19:41:30Z</time></trkpt>
<trkpt lat="39.843204" lon="9.277911"><ele>823.39</ele><time>2022-01-03T19:41:32Z</time></trkpt>
<trkpt lat="39.843412" lon="9.277554"><ele>826.71</ele><time>2022-01-03T19:41:34Z</time></trkpt>
<trkpt lat="39.843581" lon="9.277193"><ele>828.66</ele><time>2022-01-03T19:41:37Z</time></trkpt>
<trkpt lat="39.843635" lon="9.276974"><ele>829.44</ele><time>2022-01-03T19:41:39Z</time></trkpt>
<trkpt lat="39.84365" lon="9.276713"><ele>830.99</ele><time>2022-01-03T19:41:41Z</time></trkpt>
<trkpt lat="39.843596" lon="9.276375"><ele>832.27</ele><time>2022-01-03T19:41:43Z</time></trkpt>
<trkpt lat="39.84349" lon="9.276132"><ele>833.68</ele><time>2022-01-03T19:41:45Z</time></trkpt>
<trkpt lat="39.843241" lon="9.275726"><ele>835.84</ele><time>2022-01-03T19:41:47Z</time></trkpt>
<trkpt lat="39.843075" lon="9.275554"><ele>837.57</ele><time>2022-01-03T19:41:50Z</time></trkpt>
<trkpt lat="39.842824" lon="9.275422"><ele>839.46</ele><time>2022-01-03T19:41:52Z</time></trkpt>
<trkpt lat="39.842346" lon="9.275273"><ele>841.51</ele><time>2022-01-03T19:41:54Z</time></trkpt>
<trkpt lat="39.842181" lon="9.27528"><ele>842.04</ele><time>2022-01-03T19:41:56Z</time></trkpt>
<trkpt lat="39.840021" lon="9.276025"><ele>836.25</ele><time>2022-01-03T19:41:58Z</time></trkpt>
<trkpt lat="39.839824" lon="9.276066"><ele>835.24</ele><time>2022-01-03T19:42:01Z</time></trkpt>
<trkpt lat="39.8396" lon="9.276053"><ele>834.28</ele><time>2022-01-03T19:42:03Z</time></trkpt>
<trkpt lat="39.839349" lon="9.275974"><ele>833.2</ele><time>2022-01-03T19:42:05Z</time></trkpt>
<trkpt lat="39.837356" lon="9.274976"><ele>817.91</ele><time>2022-01-03T19:42:07Z</time></trkpt>
<trkpt lat="39.836645" lon="9.274503"><ele>815.15</ele><time>2022-01-03T19:42:09Z</time></trkpt>
<trkpt lat="39.835528" lon="9.27416"><ele>810.93</ele><time>2022-01-03T19:42:11Z</time></trkpt>
<trkpt lat="39.834987" lon="9.273894"><ele>810.1</ele><time>2022-01-03T19:42:14Z</time></trkpt>
<trkpt lat="39.834781" lon="9.273871"><ele>810.61</ele><time>2022-01-03T19:42:16Z</time></trkpt>
<trkpt lat="39.833774" lon="9.273889"><ele>809.18</ele><time>2022-01-03T19:42:18Z</time></trkpt>
<trkpt lat="39.833591" lon="9.273951"><ele>808.64</ele><time>2022-01-03T19:42:20Z</time></trkpt>
<trkpt lat="39.832287" lon="9.274733"><ele>806.73</ele><time>2022-01-03T19:42:22Z</time></trkpt>
<trkpt lat="39.832125" lon="9.2748"><ele>806.28</ele><time>2022-01-03T19:42:25Z</time></trkpt>
<trkpt lat="39.831988" lon="9.274817"><ele>806.34</ele><time>2022-01-03T19:42:27Z</time></trkpt>
<trkpt lat="39.831807" lon="9.274787"><ele>806.35</ele><time>2022-01-03T19:42:29Z</time></trkpt>
<trkpt lat="39.831189" lon="9.274586"><ele>807.38</ele><time>2022-01-03T19:42:31Z</time></trkpt>
<trkpt lat="39.830922" lon="9.274572"><ele>806.34</ele><time>2022-01-03T19:42:33Z</time></trkpt>
<trkpt lat="39.829608" lon="9.274882"><ele>803.5</ele><time>2022-01-03T19:42:35Z</time></trkpt>
<trkpt lat="39.829437" lon="9.27498"><ele>802.87</ele><time>2022-01-03T19:42:38Z</time></trkpt>
<trkpt lat="39.828607" lon="9.27574"><ele>800.66</ele><time>2022-01-03T19:42:40Z</time></trkpt>
<trkpt lat="39.828344" lon="9.275954"><ele>801.02</ele><time>2022-01-03T19:42:42Z</time></trkpt>
<trkpt lat="39.827973" lon="9.276142"><ele>800.74</ele><time>2022-01-03T19:42:44Z</time></trkpt>
<trkpt lat="39.827602" lon="9.276276"><ele>799.33</ele><time>2022-01-03T19:42:46Z</time></trkpt>
<trkpt lat="39.825452" lon="9.276801"><ele>785.84</ele><time>2022-01-03T19:42:49Z</time></trkpt>
<trkpt lat="39.825651" lon="9.277251"><ele>782.72</ele><time>2022-01-03T19:42:50Z</time></trkpt>
<trkpt lat="39.825735" lon="9.277375"><ele>781.71</ele><time>2022-01-03T19:42:52Z</time></trkpt>
<trkpt lat="39.82597" lon="9.277545"><ele>781.0</ele><time>2022-01-03T19:42:54Z</time></trkpt>
<trkpt lat="39.826316" lon="9.277752"><ele>780.68</ele><time>2022-01-03T19:42:55Z</time></trkpt>
<trkpt lat="39.826366" lon="9.277867"><ele>780.54</ele><time>2022-01-03T19:42:57Z</time></trkpt>
<trkpt lat="39.82636" lon="9.27798"><ele>780.14</ele><time>2022-01-03T19:42:59Z</time></trkpt>
<trkpt lat="39.826314" lon="9.278029"><ele>779.8</ele><time>2022-01-03T19:43:00Z</time></trkpt>
<trkpt lat="39.826239" lon="9.278088"><ele>779.63</ele><time>2022-01-03T19:43:02Z</time></trkpt>
<trkpt lat="39.825829" lon="9.278279"><ele>776.95</ele><time>2022-01-03T19:43:04Z</time></trkpt>
<trkpt lat="39.825603" lon="9.278499"><ele>775.5</ele><time>2022-01-03T19:43:05Z</time></trkpt>
<trkpt lat="39.825537" lon="9.278661"><ele>775.45</ele><time>2022-01-03T19:43:07Z</time></trkpt>
<trkpt lat="39.82553" lon="9.27883"><ele>774.87</ele><time>2022-01-03T19:43:09Z</time></trkpt>
<trkpt lat="39.82557" lon="9.27892"><ele>774.85</ele><time>2022-01-03T19:43:10Z</time></trkpt>
<trkpt lat="39.825663" lon="9.278998"><ele>774.22</ele><time>2022-01-03T19:43:12Z</time></trkpt>
<trkpt lat="39.825744" lon="9.278995"><ele>774.3</ele><time>2022-01-03T19:43:14Z</time></trkpt>
<trkpt lat="39.826056" lon="9.278914"><ele>777.24</ele><time>2022-01-03T19:43:15Z</time></trkpt>
<trkpt lat="39.826264" lon="9.278949"><ele>777.01</ele><time>2022-01-03T19:43:17Z</time></trkpt>
<trkpt lat="39.826755" lon="9.279164"><ele>770.73</ele><time>2022-01-03T19:43:19Z</time></trkpt>
<trkpt lat="39.827024" lon="9.279326"><ele>768.22</ele><time>2022-01-03T19:43:20Z</time></trkpt>
<trkpt lat="39.827241" lon="9.279514"><ele>764.42</ele><time>2022-01-03T19:43:22Z</time></trkpt>
<trkpt lat="39.827381" lon="9.279571"><ele>764.01</ele><time>2022-01-03T19:43:24Z</time></trkpt>
<trkpt lat="39.827517" lon="9.279582"><ele>764.67</ele><time>2022-01-03T19:43:25Z</time></trkpt>
<trkpt lat="39.827831" lon="9.279551"><ele>767.92</ele><time>2022-01-03T19:43:27Z</time></trkpt>
<trkpt lat="39.827963" lon="9.279589"><ele>767.64</ele><time>2022-01-03T19:43:29Z</time></trkpt>
<trkpt lat="39.828096" lon="9.279694"><ele>765.06</ele><time>2022-01-03T19:43:30Z</time></trkpt>
<trkpt lat="39.828449" lon="9.280034"><ele>759.49</ele><time>2022-01-03T19:43:32Z</time></trkpt>
<trkpt lat="39.828539" lon="9.280229"><ele>759.53</ele><time>2022-01-03T19:43:34Z</time></trkpt>
<trkpt lat="39.828553" lon="9.28045"><ele>759.63</ele><time>2022-01-03T19:43:35Z</time></trkpt>
<trkpt lat="39.828526" lon="9.280601"><ele>760.0</ele><time>2022-01-03T19:43:37Z</time></trkpt>
<trkpt lat="39.82844" lon="9.28071"><ele>760.97</ele><time>2022-01-03T19:43:39Z</time></trkpt>
<trkpt lat="39.828342" lon="9.280716"><ele>761.28</ele><time>2022-01-03T19:43:40Z</time></trkpt>
<trkpt lat="39.828153" lon="9.280551"><ele>761.52</ele><time>2022-01-03T19:43:42Z</time></trkpt>
<trkpt lat="39.828037" lon="9.28048"><ele>761.29</ele><time>2022-01-03T19:43:44Z</time></trkpt>
<trkpt lat="39.827891" lon="9.280472"><ele>760.61</ele><time>2022-01-03T19:43:45Z</time></trkpt>
<trkpt lat="39.827559" lon="9.280557"><ele>759.67</ele><time>2022-01-03T19:43:47Z</time></trkpt>
<trkpt lat="39.827246" lon="9.28072"><ele>762.29</ele><time>2022-01-03T19:43:49Z</time></trkpt>
<trkpt lat="39.827074" lon="9.280774"><ele>764.04</ele><time>2022-01-03T19:43:50Z</time></trkpt>
<trkpt lat="39.826677" lon="9.280791"><ele>762.18</ele><time>2022-01-03T19:43:52Z</time></trkpt>
<trkpt lat="39.826541" lon="9.280846"><ele>761.93</ele><time>2022-01-03T19:43:54Z</time></trkpt>
<trkpt lat="39.826416" lon="9.280946"><ele>762.39</ele><time>2022-01-03T19:43:55Z</time></trkpt>
<trkpt lat="39.826341" lon="9.281062"><ele>763.07</ele><time>2022-01-03T19:43:57Z</time></trkpt>
<trkpt lat="39.826235" lon="9.281358"><ele>766.52</ele><time>2022-01-03T19:43:59Z</time></trkpt>
<trkpt lat="39.826141" lon="9.281541"><ele>768.52</ele><time>2022-01-03T19:44:00Z</time></trkpt>
<trkpt lat="39.825873" lon="9.281899"><ele>768.92</ele><time>2022-01-03T19:44:02Z</time></trkpt>
<trkpt lat="39.825652" lon="9.282289"><ele>770.74</ele><time>2022-01-03T19:44:04Z</time></trkpt>
<trkpt lat="39.825606" lon="9.282417"><ele>770.73</ele><time>2022-01-03T19:44:05Z</time></trkpt>
<trkpt lat="39.825606" lon="9.282616"><ele>771.86</ele><time>2022-01-03T19:44:07Z</time></trkpt>
<trkpt lat="39.825671" lon="9.282817"><ele>773.88</ele><time>2022-01-03T19:44:09Z</time></trkpt>
<trkpt lat="39.825778" lon="9.282953"><ele>775.91</ele><time>2022-01-03T19:44:10Z</time></trkpt>
<trkpt lat="39.826136" lon="9.283168"><ele>782.16</ele><time>2022-01-03T19:44:12Z</time></trkpt>
<trkpt lat="39.826403" lon="9.283413"><ele>783.31</ele><time>2022-01-03T19:44:14Z</time></trkpt>
<trkpt lat="39.826665" lon="9.283735"><ele>782.28</ele><time>2022-01-03T19:44:15Z</time></trkpt>
<trkpt lat="39.827009" lon="9.283938"><ele>789.59</ele><time>2022-01-03T19:44:17Z</time></trkpt>
<trkpt lat="39.82708" lon="9.284046"><ele>789.66</ele><time>2022-01-03T19:44:19Z</time></trkpt>
<trkpt lat="39.82714" lon="9.284338"><ele>788.66</ele><time>2022-01-03T19:44:20Z</time></trkpt>
<trkpt lat="39.827176" lon="9.284621"><ele>789.34</ele><time>2022-01-03T19:44:22Z</time></trkpt>
<trkpt lat="39.827095" lon="9.285277"><ele>787.94</ele><time>2022-01-03T19:44:24Z</time></trkpt>
<trkpt lat="39.827129" lon="9.285491"><ele>788.02</ele><time>2022-01-03T19:44:25Z</time></trkpt>
<trkpt lat="39.827216" lon="9.28567"><ele>789.54</ele><time>2022-01-03T19:44:27Z</time></trkpt>
<trkpt lat="39.827461" lon="9.285839"><ele>795.69</ele><time>2022-01-03T19:44:29Z</time></trkpt>
<trkpt lat="39.827504" lon="9.285898"><ele>796.67</ele><time>2022-01-03T19:44:30Z</time></trkpt>
<trkpt lat="39.827625" lon="9.286349"><ele>796.06</ele><time>2022-01-03T19:44:32Z</time></trkpt>
<trkpt lat="39.827689" lon="9.28647"><ele>796.23</ele><time>2022-01-03T19:44:34Z</time></trkpt>
<trkpt lat="39.827779" lon="9.28658"><ele>796.9</ele><time>2022-01-03T19:44:35Z</time></trkpt>
<trkpt lat="39.828014" lon="9.286668"><ele>802.63</ele><time>2022-01-03T19:44:37Z</time></trkpt>
<trkpt lat="39.828057" lon="9.28671"><ele>803.73</ele><time>2022-01-03T19:44:39Z</time></trkpt>
<trkpt lat="39.828086" lon="9.286769"><ele>804.06</ele><time>2022-01-03T19:44:40Z</time></trkpt>
<trkpt lat="39.828088" lon="9.286916"><ele>803.11</ele><time>2022-01-03T19:44:42Z</time></trkpt>
<trkpt lat="39.828046" lon="9.287519"><ele>802.63</ele><time>2022-01-03T19:44:44Z</time></trkpt>
<trkpt lat="39.828043" lon="9.287892"><ele>803.44</ele><time>2022-01-03T19:44:45Z</time></trkpt>
<trkpt lat="39.828071" lon="9.288033"><ele>804.68</ele><time>2022-01-03T19:44:47Z</time></trkpt>
<trkpt lat="39.828224" lon="9.288515"><ele>809.05</ele><time>2022-01-03T19:44:49Z</time></trkpt>
<trkpt lat="39.828254" lon="9.288677"><ele>808.55</ele><time>2022-01-03T19:44:50Z</time></trkpt>
<trkpt lat="39.82833" lon="9.288823"><ele>808.34</ele><time>2022-01-03T19:44:52Z</time></trkpt>
<trkpt lat="39.828693" lon="9.289289"><ele>813.37</ele><time>2022-01-03T19:44:54Z</time></trkpt>
<trkpt lat="39.828848" lon="9.289586"><ele>813.86</ele><time>2022-01-03T19:44:55Z</time></trkpt>
<trkpt lat="39.829231" lon="9.290027"><ele>817.9</ele><time>2022-01-03T19:44:57Z</time></trkpt>
<trkpt lat="39.829513" lon="9.290221"><ele>821.09</ele><time>2022-01-03T19:44:59Z</time></trkpt>
<trkpt lat="39.829536" lon="9.290271"><ele>821.04</ele><time>2022-01-03T19:45:00Z</time></trkpt>
<trkpt lat="39.829533" lon="9.290363"><ele>821.36</ele><time>2022-01-03T19:45:02Z</time></trkpt>
<trkpt lat="39.82951" lon="9.290442"><ele>821.43</ele><time>2022-01-03T19:45:04Z</time></trkpt>
<trkpt lat="39.829451" lon="9.290488"><ele>820.84</ele><time>2022-01-03T19:45:05Z</time></trkpt>
<trkpt lat="39.829171" lon="9.290537"><ele>820.73</ele><time>2022-01-03T19:45:07Z</time></trkpt>
<trkpt lat="39.828737" lon="9.290505"><ele>821.62</ele><time>2022-01-03T19:45:09Z</time></trkpt>
<trkpt lat="39.828447" lon="9.290452"><ele>821.68</ele><time>2022-01-03T19:45:10Z</time></trkpt>
<trkpt lat="39.828164" lon="9.290372"><ele>824.64</ele><time>2022-01-03T19:45:12Z</time></trkpt>
<trkpt lat="39.827916" lon="9.290221"><ele>827.41</ele><time>2022-01-03T19:45:14Z</time></trkpt>
<trkpt lat="39.826833" lon="9.289451"><ele>833.56</ele><time>2022-01-03T19:45:15Z</time></trkpt>
<trkpt lat="39.826746" lon="9.289355"><ele>833.59</ele><time>2022-01-03T19:45:17Z</time></trkpt>
<trkpt lat="39.826409" lon="9.288896"><ele>831.8</ele><time>2022-01-03T19:45:19Z</time></trkpt>
<trkpt lat="39.826213" lon="9.288726"><ele>833.62</ele><time>2022-01-03T19:45:20Z</time></trkpt>
<trkpt lat="39.826018" lon="9.288611"><ele>835.68</ele><time>2022-01-03T19:45:22Z</time></trkpt>
<trkpt lat="39.825857" lon="9.28858"><ele>839.22</ele><time>2022-01-03T19:45:24Z</time></trkpt>
<trkpt lat="39.82543" lon="9.28864"><ele>843.43</ele><time>2022-01-03T19:45:25Z</time></trkpt>
<trkpt lat="39.825191" lon="9.288715"><ele>844.01</ele><time>2022-01-03T19:45:27Z</time></trkpt>
<trkpt lat="39.825094" lon="9.28878"><ele>844.43</ele><time>2022-01-03T19:45:29Z</time></trkpt>
<trkpt lat="39.82505" lon="9.28886"><ele>844.95</ele><time>2022-01-03T19:45:30Z</time></trkpt>
<trkpt lat="39.824971" lon="9.289191"><ele>846.73</ele><time>2022-01-03T19:45:32Z</time></trkpt>
<trkpt lat="39.824993" lon="9.289359"><ele>848.23</ele><time>2022-01-03T19:45:34Z</time></trkpt>
<trkpt lat="39.825191" lon="9.289981"><ele>849.9</ele><time>2022-01-03T19:45:35Z</time></trkpt>
<trkpt lat="39.825253" lon="9.290403"><ele>848.92</ele><time>2022-01-03T19:45:37Z</time></trkpt>
<trkpt lat="39.825306" lon="9.291044"><ele>850.63</ele><time>2022-01-03T19:45:39Z</time></trkpt>
<trkpt lat="39.825347" lon="9.291301"><ele>850.64</ele><time>2022-01-03T19:45:40Z</time></trkpt>
<trkpt lat="39.825446" lon="9.291505"><ele>851.35</ele><time>2022-01-03T19:45:42Z</time></trkpt>
<trkpt lat="39.825578" lon="9.291644"><ele>852.65</ele><time>2022-01-03T19:45:44Z</time></trkpt>
<trkpt lat="39.825809" lon="9.291616"><ele>856.54</ele><time>2022-01-03T19:45:45Z</time></trkpt>
<trkpt lat="39.826263" lon="9.292469"><ele>853.17</ele><time>2022-01-03T19:45:47Z</time></trkpt>
<trkpt lat="39.826487" lon="9.292619"><ele>856.1</ele><time>2022-01-03T19:45:49Z</time></trkpt>
<trkpt lat="39.826733" lon="9.292716"><ele>858.24</ele><time>2022-01-03T19:45:50Z</time></trkpt>
<trkpt lat="39.827857" lon="9.292718"><ele>871.73</ele><time>2022-01-03T19:45:52Z</time></trkpt>
<trkpt lat="39.828031" lon="9.292748"><ele>874.58</ele><time>2022-01-03T19:45:54Z</time></trkpt>
<trkpt lat="39.828262" lon="9.29285"><ele>876.77</ele><time>2022-01-03T19:45:55Z</time></trkpt>
<trkpt lat="39.828402" lon="9.292951"><ele>878.51</ele><time>2022-01-03T19:45:57Z</time></trkpt>
<trkpt lat="39.828463" lon="9.293023"><ele>879.4</ele><time>2022-01-03T19:45:59Z</time></trkpt>
<trkpt lat="39.82853" lon="9.293142"><ele>879.74</ele><time>2022-01-03T19:46:00Z</time></trkpt>
<trkpt lat="39.828582" lon="9.293285"><ele>879.65</ele><time>2022-01-03T19:46:02Z</time></trkpt>
<trkpt lat="39.828605" lon="9.293466"><ele>878.92</ele><time>2022-01-03T19:46:04Z</time></trkpt>
<trkpt lat="39.828599" lon="9.293636"><ele>877.87</ele><time>2022-01-03T19:46:05Z</time></trkpt>
<trkpt lat="39.828544" lon="9.293833"><ele>877.79</ele><time>2022-01-03T19:46:07Z</time></trkpt>
<trkpt lat="39.828511" lon="9.293898"><ele>877.63</ele><time>2022-01-03T19:46:09Z</time></trkpt>
<trkpt lat="39.828207" lon="9.294241"><ele>875.4</ele><time>2022-01-03T19:46:10Z</time></trkpt>
<trkpt lat="39.828108" lon="9.294391"><ele>874.71</ele><time>2022-01-03T19:46:12Z</time></trkpt>
<trkpt lat="39.828091" lon="9.294563"><ele>875.99</ele><time>2022-01-03T19:46:14Z</time></trkpt>
<trkpt lat="39.828108" lon="9.294831"><ele>877.77</ele><time>2022-01-03T19:46:15Z</time></trkpt>
<trkpt lat="39.828136" lon="9.294971"><ele>878.34</ele><time>2022-01-03T19:46:17Z</time></trkpt>
<trkpt lat="39.828198" lon="9.295129"><ele>878.48</ele><time>2022-01-03T19:46:19Z</time></trkpt>
<trkpt lat="39.828619" lon="9.295588"><ele>884.8</ele><time>2022-01-03T19:46:20Z</time></trkpt>
<trkpt lat="39.828756" lon="9.295787"><ele>886.81</ele><time>2022-01-03T19:46:22Z</time></trkpt>
<trkpt lat="39.828905" lon="9.296163"><ele>887.55</ele><time>2022-01-03T19:46:24Z</time></trkpt>
<trkpt lat="39.828978" lon="9.296297"><ele>887.45</ele><time>2022-01-03T19:46:25Z</time></trkpt>
<trkpt lat="39.829328" lon="9.29658"><ele>893.62</ele><time>2022-01-03T19:46:27Z</time></trkpt>
<trkpt lat="39.829517" lon="9.296827"><ele>895.78</ele><time>2022-01-03T19:46:29Z</time></trkpt>
<trkpt lat="39.829791" lon="9.297135"><ele>900.7</ele><time>2022-01-03T19:46:30Z</time></trkpt>
<trkpt lat="39.829823" lon="9.297211"><ele>900.98</ele><time>2022-01-03T19:46:32Z</time></trkpt>
<trkpt lat="39.829839" lon="9.297322"><ele>900.99</ele><time>2022-01-03T19:46:33Z</time></trkpt>
<trkpt lat="39.829836" lon="9.297498"><ele>900.29</ele><time>2022-01-03T19:46:35Z</time></trkpt>
<trkpt lat="39.829807" lon="9.297714"><ele>900.97</ele><time>2022-01-03T19:46:37Z</time></trkpt>
<trkpt lat="39.829715" lon="9.297977"><ele>900.27</ele><time>2022-01-03T19:46:38Z</time></trkpt>
<trkpt lat="39.829684" lon="9.298153"><ele>900.62</ele><time>2022-01-03T19:46:40Z</time></trkpt>
<trkpt lat="39.829713" lon="9.298305"><ele>901.76</ele><time>2022-01-03T19:46:42Z</time></trkpt>
<trkpt lat="39.82981" lon="9.298458"><ele>902.85</ele><time>2022-01-03T19:46:43Z</time></trkpt>
<trkpt lat="39.829964" lon="9.29861"><ele>903.62</ele><time>2022-01-03T19:46:45Z</time></trkpt>
<trkpt lat="39.830093" lon="9.298704"><ele>903.55</ele><time>2022-01-03T19:46:47Z</time></trkpt>
<trkpt lat="39.830202" lon="9.298752"><ele>903.35</ele><time>2022-01-03T19:46:48Z</time></trkpt>
<trkpt lat="39.83034" lon="9.298776"><ele>902.96</ele><time>2022-01-03T19:46:50Z</time></trkpt>
<trkpt lat="39.830488" lon="9.298749"><ele>902.76</ele><time>2022-01-03T19:46:52Z</time></trkpt>
<trkpt lat="39.83067" lon="9.298681"><ele>903.43</ele><time>2022-01-03T19:46:53Z</time></trkpt>
<trkpt lat="39.830834" lon="9.298644"><ele>904.04</ele><time>2022-01-03T19:46:55Z</time></trkpt>
<trkpt lat="39.83104" lon="9.298671"><ele>905.34</ele><time>2022-01-03T19:46:57Z</time></trkpt>
<trkpt lat="39.831623" lon="9.299077"><ele>899.86</ele><time>2022-01-03T19:46:58Z</time></trkpt>
<trkpt lat="39.832268" lon="9.299279"><ele>900.0</ele><time>2022-01-03T19:47:00Z</time></trkpt>
<trkpt lat="39.832685" lon="9.299285"><ele>899.01</ele><time>2022-01-03T19:47:02Z</time></trkpt>
<trkpt lat="39.833187" lon="9.299387"><ele>895.25</ele><time>2022-01-03T19:47:03Z</time></trkpt>
<trkpt lat="39.8334" lon="9.299381"><ele>895.09</ele><time>2022-01-03T19:47:05Z</time></trkpt>
<trkpt lat="39.833523" lon="9.29934"><ele>894.95</ele><time>2022-01-03T19:47:07Z</time></trkpt>
<trkpt lat="39.833663" lon="9.299247"><ele>894.86</ele><time>2022-01-03T19:47:08Z</time></trkpt>
<trkpt lat="39.833813" lon="9.298894"><ele>897.08</ele><time>2022-01-03T19:47:10Z</time></trkpt>
<trkpt lat="39.833867" lon="9.298831"><ele>897.45</ele><time>2022-01-03T19:47:12Z</time></trkpt>
<trkpt lat="39.83394" lon="9.298803"><ele>897.58</ele><time>2022-01-03T19:47:13Z</time></trkpt>
<trkpt lat="39.835022" lon="9.298992"><ele>891.91</ele><time>2022-01-03T19:47:15Z</time></trkpt>
<trkpt lat="39.835324" lon="9.298921"><ele>891.71</ele><time>2022-01-03T19:47:17Z</time></trkpt>
<trkpt lat="39.835759" lon="9.298642"><ele>891.74</ele><time>2022-01-03T19:47:18Z</time></trkpt>
<trkpt lat="39.835883" lon="9.298632"><ele>890.43</ele><time>2022-01-03T19:47:20Z</time></trkpt>
<trkpt lat="39.835992" lon="9.298672"><ele>889.21</ele><time>2022-01-03T19:47:22Z</time></trkpt>
<trkpt lat="39.836146" lon="9.29876"><ele>886.85</ele><time>2022-01-03T19:47:23Z</time></trkpt>
<trkpt lat="39.836301" lon="9.298806"><ele>886.01</ele><time>2022-01-03T19:47:25Z</time></trkpt>
<trkpt lat="39.83649" lon="9.298817"><ele>887.16</ele><time>2022-01-03T19:47:27Z</time></trkpt>
<trkpt lat="39.836726" lon="9.298924"><ele>888.56</ele><time>2022-01-03T19:47:28Z</time></trkpt>
<trkpt lat="39.836819" lon="9.299012"><ele>888.88</ele><time>2022-01-03T19:47:30Z</time></trkpt>
<trkpt lat="39.836857" lon="9.299124"><ele>887.62</ele><time>2022-01-03T19:47:32Z</time></trkpt>
<trkpt lat="39.836903" lon="9.299465"><ele>883.27</ele><time>2022-01-03T19:47:33Z</time></trkpt>
<trkpt lat="39.836963" lon="9.299578"><ele>883.25</ele><time>2022-01-03T19:47:35Z</time></trkpt>
<trkpt lat="39.837151" lon="9.299746"><ele>886.98</ele><time>2022-01-03T19:47:37Z</time></trkpt>
<trkpt lat="39.837246" lon="9.299871"><ele>888.06</ele><time>2022-01-03T19:47:38Z</time></trkpt>
<trkpt lat="39.837288" lon="9.299955"><ele>887.91</ele><time>2022-01-03T19:47:40Z</time></trkpt>
<trkpt lat="39.837294" lon="9.300062"><ele>886.63</ele><time>2022-01-03T19:47:42Z</time></trkpt>
<trkpt lat="39.837274" lon="9.300165"><ele>884.61</ele><time>2022-01-03T19:47:43Z</time></trkpt>
<trkpt lat="39.837144" lon="9.300394"><ele>877.64</ele><time>2022-01-03T19:47:45Z</time></trkpt>
<trkpt lat="39.83713" lon="9.300543"><ele>876.39</ele><time>2022-01-03T19:47:47Z</time></trkpt>
<trkpt lat="39.837223" lon="9.300926"><ele>877.71</ele><time>2022-01-03T19:47:48Z</time></trkpt>
<trkpt lat="39.837303" lon="9.301459"><ele>877.35</ele><time>2022-01-03T19:47:50Z</time></trkpt>
<trkpt lat="39.837517" lon="9.301789"><ele>877.66</ele><time>2022-01-03T19:47:52Z</time></trkpt>
<trkpt lat="39.837699" lon="9.302017"><ele>876.27</ele><time>2022-01-03T19:47:53Z</time></trkpt>
<trkpt lat="39.837879" lon="9.302148"><ele>875.99</ele><time>2022-01-03T19:47:55Z</time></trkpt>
<trkpt lat="39.838085" lon="9.302212"><ele>875.5</ele><time>2022-01-03T19:47:57Z</time></trkpt>
<trkpt lat="39.838241" lon="9.302234"><ele>875.98</ele><time>2022-01-03T19:47:58Z</time></trkpt>
<trkpt lat="39.838601" lon="9.302155"><ele>880.88</ele><time>2022-01-03T19:48:00Z</time></trkpt>
<trkpt lat="39.838663" lon="9.302183"><ele>880.37</ele><time>2022-01-03T19:48:02Z</time></trkpt>
<trkpt lat="39.838784" lon="9.302292"><ele>877.13</ele><time>2022-01-03T19:48:03Z</time></trkpt>
<trkpt lat="39.838867" lon="9.30233"><ele>876.03</ele><time>2022-01-03T19:48:05Z</time></trkpt>
<trkpt lat="39.839131" lon="9.302341"><ele>878.34</ele><time>2022-01-03T19:48:07Z</time></trkpt>
<trkpt lat="39.839255" lon="9.302373"><ele>879.84</ele><time>2022-01-03T19:48:08Z</time></trkpt>
<trkpt lat="39.839289" lon="9.302458"><ele>878.21</ele><time>2022-01-03T19:48:10Z</time></trkpt>
<trkpt lat="39.839295" lon="9.302554"><ele>876.46</ele><time>2022-01-03T19:48:12Z</time></trkpt>
<trkpt lat="39.839187" lon="9.302895"><ele>869.33</ele><time>2022-01-03T19:48:13Z</time></trkpt>
<trkpt lat="39.839169" lon="9.303026"><ele>868.2</ele><time>2022-01-03T19:48:15Z</time></trkpt>
<trkpt lat="39.839193" lon="9.303294"><ele>870.92</ele><time>2022-01-03T19:48:17Z</time></trkpt>
<trkpt lat="39.83919" lon="9.303486"><ele>872.69</ele><time>2022-01-03T19:48:18Z</time></trkpt>
<trkpt lat="39.839159" lon="9.303651"><ele>872.93</ele><time>2022-01-03T19:48:20Z</time></trkpt>
<trkpt lat="39.838909" lon="9.304361"><ele>865.78</ele><time>2022-01-03T19:48:22Z</time></trkpt>
<trkpt lat="39.83886" lon="9.30457"><ele>864.53</ele><time>2022-01-03T19:48:23Z</time></trkpt>
<trkpt lat="39.83865" lon="9.306075"><ele>867.13</ele><time>2022-01-03T19:48:25Z</time></trkpt>
<trkpt lat="39.838572" lon="9.306418"><ele>866.93</ele><time>2022-01-03T19:48:27Z</time></trkpt>
<trkpt lat="39.83851" lon="9.306552"><ele>865.69</ele><time>2022-01-03T19:48:28Z</time></trkpt>
<trkpt lat="39.838344" lon="9.306588"><ele>860.11</ele><time>2022-01-03T19:48:30Z</time></trkpt>
<trkpt lat="39.83826" lon="9.306654"><ele>858.09</ele><time>2022-01-03T19:48:32Z</time></trkpt>
<trkpt lat="39.837845" lon="9.307654"><ele>859.56</ele><time>2022-01-03T19:48:33Z</time></trkpt>
<trkpt lat="39.8378" lon="9.307795"><ele>859.47</ele><time>2022-01-03T19:48:35Z</time></trkpt>
<trkpt lat="39.837786" lon="9.307928"><ele>859.16</ele><time>2022-01-03T19:48:37Z</time></trkpt>
<trkpt lat="39.83782" lon="9.308131"><ele>859.14</ele><time>2022-01-03T19:48:38Z</time></trkpt>
<trkpt lat="39.837924" lon="9.308361"><ele>858.13</ele><time>2022-01-03T19:48:40Z</time></trkpt>
<trkpt lat="39.838116" lon="9.308589"><ele>855.84</ele><time>2022-01-03T19:48:42Z</time></trkpt>
<trkpt lat="39.838271" lon="9.308675"><ele>855.23</ele><time>2022-01-03T19:48:43Z</time></trkpt>
<trkpt lat="39.838388" lon="9.308684"><ele>855.18</ele><time>2022-01-03T19:48:45Z</time></trkpt>
<trkpt lat="39.83876" lon="9.308606"><ele>856.68</ele><time>2022-01-03T19:48:47Z</time></trkpt>
<trkpt lat="39.838935" lon="9.308657"><ele>856.33</ele><time>2022-01-03T19:48:48Z</time></trkpt>
<trkpt lat="39.83912" lon="9.308756"><ele>855.83</ele><time>2022-01-03T19:48:50Z</time></trkpt>
<trkpt lat="39.839273" lon="9.308882"><ele>854.69</ele><time>2022-01-03T19:48:52Z</time></trkpt>
<trkpt lat="39.839382" lon="9.309"><ele>853.21</ele><time>2022-01-03T19:48:53Z</time></trkpt>
<trkpt lat="39.83964" lon="9.309333"><ele>849.85</ele><time>2022-01-03T19:48:55Z</time></trkpt>
<trkpt lat="39.839875" lon="9.309698"><ele>846.41</ele><time>2022-01-03T19:48:57Z</time></trkpt>
<trkpt lat="39.839934" lon="9.309837"><ele>845.91</ele><time>2022-01-03T19:48:58Z</time></trkpt>
<trkpt lat="39.839922" lon="9.309985"><ele>843.67</ele><time>2022-01-03T19:49:00Z</time></trkpt>
<trkpt lat="39.839568" lon="9.311144"><ele>830.85</ele><time>2022-01-03T19:49:02Z</time></trkpt>
<trkpt lat="39.839442" lon="9.311455"><ele>830.4</ele><time>2022-01-03T19:49:03Z</time></trkpt>
<trkpt lat="39.839146" lon="9.312012"><ele>826.32</ele><time>2022-01-03T19:49:05Z</time></trkpt>
<trkpt lat="39.838662" lon="9.312855"><ele>821.41</ele><time>2022-01-03T19:49:07Z</time></trkpt>
<trkpt lat="39.838392" lon="9.313206"><ele>817.59</ele><time>2022-01-03T19:49:08Z</time></trkpt>
<trkpt lat="39.838" lon="9.313636"><ele>814.3</ele><time>2022-01-03T19:49:10Z</time></trkpt>
<trkpt lat="39.837203" lon="9.314779"><ele>810.69</ele><time>2022-01-03T19:49:12Z</time></trkpt>
<trkpt lat="39.837141" lon="9.314955"><ele>810.24</ele><time>2022-01-03T19:49:13Z</time></trkpt>
<trkpt lat="39.837151" lon="9.315076"><ele>811.01</ele><time>2022-01-03T19:49:15Z</time></trkpt>
<trkpt lat="39.837193" lon="9.315176"><ele>811.74</ele><time>2022-01-03T19:49:17Z</time></trkpt>
<trkpt lat="39.837267" lon="9.315251"><ele>811.74</ele><time>2022-01-03T19:49:18Z</time></trkpt>
<trkpt lat="39.837356" lon="9.315308"><ele>810.77</ele><time>2022-01-03T19:49:20Z</time></trkpt>
<trkpt lat="39.837445" lon="9.315333"><ele>809.72</ele><time>2022-01-03T19:49:22Z</time></trkpt>
<trkpt lat="39.83761" lon="9.315315"><ele>808.22</ele><time>2022-01-03T19:49:23Z</time></trkpt>
<trkpt lat="39.83769" lon="9.315269"><ele>808.15</ele><time>2022-01-03T19:49:25Z</time></trkpt>
<trkpt lat="39.837825" lon="9.315083"><ele>811.27</ele><time>2022-01-03T19:49:27Z</time></trkpt>
<trkpt lat="39.837972" lon="9.31495"><ele>811.82</ele><time>2022-01-03T19:49:28Z</time></trkpt>
<trkpt lat="39.83804" lon="9.314918"><ele>811.38</ele><time>2022-01-03T19:49:30Z</time></trkpt>
<trkpt lat="39.838115" lon="9.314913"><ele>810.53</ele><time>2022-01-03T19:49:32Z</time></trkpt>
<trkpt lat="39.838428" lon="9.314958"><ele>805.3</ele><time>2022-01-03T19:49:33Z</time></trkpt>
<trkpt lat="39.838716" lon="9.314964"><ele>800.2</ele><time>2022-01-03T19:49:35Z</time></trkpt>
<trkpt lat="39.839106" lon="9.314824"><ele>796.51</ele><time>2022-01-03T19:49:37Z</time></trkpt>
<trkpt lat="39.839353" lon="9.314663"><ele>794.86</ele><time>2022-01-03T19:49:38Z</time></trkpt>
<trkpt lat="39.839583" lon="9.314461"><ele>793.63</ele><time>2022-01-03T19:49:40Z</time></trkpt>
<trkpt lat="39.839741" lon="9.314271"><ele>793.1</ele><time>2022-01-03T19:49:42Z</time></trkpt>
<trkpt lat="39.840139" lon="9.313564"><ele>790.43</ele><time>2022-01-03T19:49:43Z</time></trkpt>
<trkpt lat="39.840242" lon="9.313315"><ele>791.8</ele><time>2022-01-03T19:49:45Z</time></trkpt>
<trkpt lat="39.840301" lon="9.313214"><ele>792.73</ele><time>2022-01-03T19:49:47Z</time></trkpt>
<trkpt lat="39.840373" lon="9.313167"><ele>792.11</ele><time>2022-01-03T19:49:48Z</time></trkpt>
<trkpt lat="39.841242" lon="9.313062"><ele>776.5</ele><time>2022-01-03T19:49:50Z</time></trkpt>
<trkpt lat="39.84133" lon="9.312974"><ele>776.18</ele><time>2022-01-03T19:49:52Z</time></trkpt>
<trkpt lat="39.841751" lon="9.312415"><ele>775.81</ele><time>2022-01-03T19:49:53Z</time></trkpt>
<trkpt lat="39.841875" lon="9.312372"><ele>771.71</ele><time>2022-01-03T19:49:55Z</time></trkpt>
<trkpt lat="39.842186" lon="9.312382"><ele>763.54</ele><time>2022-01-03T19:49:57Z</time></trkpt>
<trkpt lat="39.842319" lon="9.31233"><ele>762.83</ele><time>2022-01-03T19:49:58Z</time></trkpt>
<trkpt lat="39.842406" lon="9.312263"><ele>762.98</ele><time>2022-01-03T19:50:00Z</time></trkpt>
<trkpt lat="39.842507" lon="9.312119"><ele>763.4</ele><time>2022-01-03T19:50:02Z</time></trkpt>
<trkpt lat="39.842568" lon="9.311914"><ele>765.11</ele><time>2022-01-03T19:50:03Z</time></trkpt>
<trkpt lat="39.842598" lon="9.311409"><ele>770.28</ele><time>2022-01-03T19:50:05Z</time></trkpt>
<trkpt lat="39.842686" lon="9.31127"><ele>768.89</ele><time>2022-01-03T19:50:07Z</time></trkpt>
<trkpt lat="39.842771" lon="9.311263"><ele>767.94</ele><time>2022-01-03T19:50:08Z</time></trkpt>
<trkpt lat="39.842858" lon="9.311294"><ele>766.92</ele><time>2022-01-03T19:50:10Z</time></trkpt>
<trkpt lat="39.842914" lon="9.311383"><ele>767.01</ele><time>2022-01-03T19:50:12Z</time></trkpt>
<trkpt lat="39.842972" lon="9.311634"><ele>766.87</ele><time>2022-01-03T19:50:13Z</time></trkpt>
<trkpt lat="39.84302" lon="9.312257"><ele>764.08</ele><time>2022-01-03T19:50:15Z</time></trkpt>
<trkpt lat="39.842933" lon="9.312621"><ele>759.85</ele><time>2022-01-03T19:50:17Z</time></trkpt>
<trkpt lat="39.842768" lon="9.313115"><ele>755.45</ele><time>2022-01-03T19:50:18Z</time></trkpt>
<trkpt lat="39.84266" lon="9.313323"><ele>755.36</ele><time>2022-01-03T19:50:20Z</time></trkpt>
<trkpt lat="39.842567" lon="9.313441"><ele>753.74</ele><time>2022-01-03T19:50:22Z</time></trkpt>
<trkpt lat="39.842515" lon="9.313612"><ele>752.51</ele><time>2022-01-03T19:50:23Z</time></trkpt>
<trkpt lat="39.842419" lon="9.314564"><ele>761.05</ele><time>2022-01-03T19:50:25Z</time></trkpt>
<trkpt lat="39.842371" lon="9.314742"><ele>762.6</ele><time>2022-01-03T19:50:27Z</time></trkpt>
<trkpt lat="39.842068" lon="9.315322"><ele>760.15</ele><time>2022-01-03T19:50:28Z</time></trkpt>
<trkpt lat="39.842033" lon="9.315556"><ele>762.52</ele><time>2022-01-03T19:50:30Z</time></trkpt>
<trkpt lat="39.842037" lon="9.315774"><ele>765.03</ele><time>2022-01-03T19:50:32Z</time></trkpt>
<trkpt lat="39.842081" lon="9.31602"><ele>769.43</ele><time>2022-01-03T19:50:33Z</time></trkpt>
<trkpt lat="39.84206" lon="9.316153"><ele>769.78</ele><time>2022-01-03T19:50:35Z</time></trkpt>
<trkpt lat="39.841989" lon="9.316311"><ele>767.64</ele><time>2022-01-03T19:50:37Z</time></trkpt>
<trkpt lat="39.841968" lon="9.31651"><ele>768.84</ele><time>2022-01-03T19:50:38Z</time></trkpt>
<trkpt lat="39.841981" lon="9.316854"><ele>772.93</ele><time>2022-01-03T19:50:40Z</time></trkpt>
<trkpt lat="39.84206" lon="9.317243"><ele>779.51</ele><time>2022-01-03T19:50:42Z</time></trkpt>
<trkpt lat="39.842049" lon="9.317348"><ele>780.85</ele><time>2022-01-03T19:50:43Z</time></trkpt>
<trkpt lat="39.841497" lon="9.317871"><ele>778.74</ele><time>2022-01-03T19:50:45Z</time></trkpt>
<trkpt lat="39.841271" lon="9.318202"><ele>781.0</ele><time>2022-01-03T19:50:47Z</time></trkpt>
<trkpt lat="39.841186" lon="9.318436"><ele>783.02</ele><time>2022-01-03T19:50:48Z</time></trkpt>
<trkpt lat="39.841128" lon="9.318684"><ele>783.91</ele><time>2022-01-03T19:50:50Z</time></trkpt>
<trkpt lat="39.841114" lon="9.318808"><ele>785.0</ele><time>2022-01-03T19:50:52Z</time></trkpt>
<trkpt lat="39.84112" lon="9.31939"><ele>792.01</ele><time>2022-01-03T19:50:53Z</time></trkpt>
<trkpt lat="39.841097" lon="9.319498"><ele>792.33</ele><time>2022-01-03T19:50:55Z</time></trkpt>
<trkpt lat="39.840924" lon="9.319699"><ele>790.21</ele><time>2022-01-03T19:50:57Z</time></trkpt>
<trkpt lat="39.840853" lon="9.319849"><ele>790.01</ele><time>2022-01-03T19:50:58Z</time></trkpt>
<trkpt lat="39.84071" lon="9.320263"><ele>791.17</ele><time>2022-01-03T19:51:00Z</time></trkpt>
<trkpt lat="39.840636" lon="9.320399"><ele>791.81</ele><time>2022-01-03T19:51:02Z</time></trkpt>
<trkpt lat="39.840438" lon="9.320678"><ele>792.29</ele><time>2022-01-03T19:51:03Z</time></trkpt>
<trkpt lat="39.840212" lon="9.321285"><ele>796.77</ele><time>2022-01-03T19:51:05Z</time></trkpt>
<trkpt lat="39.840015" lon="9.321557"><ele>796.43</ele><time>2022-01-03T19:51:07Z</time></trkpt>
<trkpt lat="39.839897" lon="9.321853"><ele>796.13</ele><time>2022-01-03T19:51:08Z</time></trkpt>
<trkpt lat="39.839772" lon="9.32234"><ele>796.22</ele><time>2022-01-03T19:51:10Z</time></trkpt>
<trkpt lat="39.839728" lon="9.322883"><ele>795.56</ele><time>2022-01-03T19:51:12Z</time></trkpt>
<trkpt lat="39.839725" lon="9.323098"><ele>796.4</ele><time>2022-01-03T19:51:13Z</time></trkpt>
<trkpt lat="39.839857" lon="9.323822"><ele>807.22</ele><time>2022-01-03T19:51:15Z</time></trkpt>
<trkpt lat="39.839826" lon="9.323929"><ele>808.16</ele><time>2022-01-03T19:51:17Z</time></trkpt>
<trkpt lat="39.839574" lon="9.32406"><ele>807.28</ele><time>2022-01-03T19:51:18Z</time></trkpt>
<trkpt lat="39.839496" lon="9.324069"><ele>806.51</ele><time>2022-01-03T19:51:20Z</time></trkpt>
<trkpt lat="39.839149" lon="9.323984"><ele>798.3</ele><time>2022-01-03T19:51:22Z</time></trkpt>
<trkpt lat="39.839031" lon="9.32401"><ele>796.28</ele><time>2022-01-03T19:51:23Z</time></trkpt>
<trkpt lat="39.838966" lon="9.324048"><ele>795.92</ele><time>2022-01-03T19:51:25Z</time></trkpt>
<trkpt lat="39.838692" lon="9.324502"><ele>802.05</ele><time>2022-01-03T19:51:27Z</time></trkpt>
<trkpt lat="39.838611" lon="9.32453"><ele>801.49</ele><time>2022-01-03T19:51:28Z</time></trkpt>
<trkpt lat="39.838295" lon="9.324566"><ele>797.17</ele><time>2022-01-03T19:51:30Z</time></trkpt>
<trkpt lat="39.838088" lon="9.324618"><ele>796.67</ele><time>2022-01-03T19:51:32Z</time></trkpt>
<trkpt lat="39.837663" lon="9.324795"><ele>795.03</ele><time>2022-01-03T19:51:33Z</time></trkpt>
<trkpt lat="39.8374" lon="9.324979"><ele>794.09</ele><time>2022-01-03T19:51:35Z</time></trkpt>
<trkpt lat="39.837083" lon="9.325299"><ele>795.16</ele><time>2022-01-03T19:51:37Z</time></trkpt>
<trkpt lat="39.836812" lon="9.325603"><ele>796.9</ele><time>2022-01-03T19:51:38Z</time></trkpt>
<trkpt lat="39.836339" lon="9.326018"><ele>792.38</ele><time>2022-01-03T19:51:40Z</time></trkpt>
<trkpt lat="39.836061" lon="9.326334"><ele>791.36</ele><time>2022-01-03T19:51:42Z</time></trkpt>
<trkpt lat="39.835845" lon="9.32665"><ele>793.85</ele><time>2022-01-03T19:51:43Z</time></trkpt>
<trkpt lat="39.835702" lon="9.326794"><ele>793.65</ele><time>2022-01-03T19:51:45Z</time></trkpt>
<trkpt lat="39.835517" lon="9.326938"><ele>792.7</ele><time>2022-01-03T19:51:47Z</time></trkpt>
<trkpt lat="39.833964" lon="9.327798"><ele>787.34</ele><time>2022-01-03T19:51:48Z</time></trkpt>
<trkpt lat="39.833918" lon="9.327867"><ele>787.43</ele><time>2022-01-03T19:51:50Z</time></trkpt>
<trkpt lat="39.833894" lon="9.327967"><ele>787.7</ele><time>2022-01-03T19:51:52Z</time></trkpt>
<trkpt lat="39.833907" lon="9.328152"><ele>787.74</ele><time>2022-01-03T19:51:53Z</time></trkpt>
<trkpt lat="39.833945" lon="9.328247"><ele>787.65</ele><time>2022-01-03T19:51:55Z</time></trkpt>
<trkpt lat="39.834013" lon="9.328356"><ele>787.62</ele><time>2022-01-03T19:51:57Z</time></trkpt>
<trkpt lat="39.834157" lon="9.328503"><ele>786.51</ele><time>2022-01-03T19:51:58Z</time></trkpt>
<trkpt lat="39.834275" lon="9.328569"><ele>784.88</ele><time>2022-01-03T19:52:00Z</time></trkpt>
<trkpt lat="39.834617" lon="9.328615"><ele>784.15</ele><time>2022-01-03T19:52:02Z</time></trkpt>
<trkpt lat="39.834727" lon="9.328682"><ele>783.8</ele><time>2022-01-03T19:52:03Z</time></trkpt>
<trkpt lat="39.834775" lon="9.328788"><ele>783.13</ele><time>2022-01-03T19:52:05Z</time></trkpt>
<trkpt lat="39.83474" lon="9.329343"><ele>772.77</ele><time>2022-01-03T19:52:06Z</time></trkpt>
<trkpt lat="39.834748" lon="9.329439"><ele>771.97</ele><time>2022-01-03T19:52:08Z</time></trkpt>
<trkpt lat="39.834814" lon="9.32961"><ele>771.72</ele><time>2022-01-03T19:52:10Z</time></trkpt>
<trkpt lat="39.835045" lon="9.32988"><ele>774.74</ele><time>2022-01-03T19:52:11Z</time></trkpt>
<trkpt lat="39.83521" lon="9.330187"><ele>774.95</ele><time>2022-01-03T19:52:13Z</time></trkpt>
<trkpt lat="39.835226" lon="9.330277"><ele>774.17</ele><time>2022-01-03T19:52:15Z</time></trkpt>
<trkpt lat="39.835214" lon="9.33036"><ele>773.85</ele><time>2022-01-03T19:52:16Z</time></trkpt>
<trkpt lat="39.835178" lon="9.330434"><ele>772.81</ele><time>2022-01-03T19:52:18Z</time></trkpt>
<trkpt lat="39.835094" lon="9.330509"><ele>770.48</ele><time>2022-01-03T19:52:20Z</time></trkpt>
<trkpt lat="39.834173" lon="9.331128"><ele>760.92</ele><time>2022-01-03T19:52:21Z</time></trkpt>
<trkpt lat="39.83388" lon="9.331301"><ele>754.49</ele><time>2022-01-03T19:52:23Z</time></trkpt>
<trkpt lat="39.833727" lon="9.331428"><ele>753.68</ele><time>2022-01-03T19:52:25Z</time></trkpt>
<trkpt lat="39.833633" lon="9.331546"><ele>754.97</ele><time>2022-01-03T19:52:26Z</time></trkpt>
<trkpt lat="39.833438" lon="9.331869"><ele>758.31</ele><time>2022-01-03T19:52:28Z</time></trkpt>
<trkpt lat="39.833348" lon="9.331974"><ele>758.11</ele><time>2022-01-03T19:52:30Z</time></trkpt>
<trkpt lat="39.832987" lon="9.332231"><ele>752.23</ele><time>2022-01-03T19:52:31Z</time></trkpt>
<trkpt lat="39.832679" lon="9.332494"><ele>747.63</ele><time>2022-01-03T19:52:33Z</time></trkpt>
<trkpt lat="39.832528" lon="9.332671"><ele>745.44</ele><time>2022-01-03T19:52:35Z</time></trkpt>
<trkpt lat="39.832356" lon="9.332984"><ele>744.41</ele><time>2022-01-03T19:52:36Z</time></trkpt>
<trkpt lat="39.832301" lon="9.333185"><ele>742.91</ele><time>2022-01-03T19:52:38Z</time></trkpt>
<trkpt lat="39.83229" lon="9.333313"><ele>742.21</ele><time>2022-01-03T19:52:40Z</time></trkpt>
<trkpt lat="39.832366" lon="9.333787"><ele>744.82</ele><time>2022-01-03T19:52:41Z</time></trkpt>
<trkpt lat="39.832383" lon="9.334169"><ele>742.72</ele><time>2022-01-03T19:52:43Z</time></trkpt>
<trkpt lat="39.832367" lon="9.334291"><ele>743.14</ele><time>2022-01-03T19:52:45Z</time></trkpt>
<trkpt lat="39.832343" lon="9.334363"><ele>742.82</ele><time>2022-01-03T19:52:46Z</time></trkpt>
<trkpt lat="39.83229" lon="9.334437"><ele>741.55</ele><time>2022-01-03T19:52:48Z</time></trkpt>
<trkpt lat="39.832216" lon="9.334494"><ele>739.84</ele><time>2022-01-03T19:52:50Z</time></trkpt>
<trkpt lat="39.831792" lon="9.334748"><ele>731.38</ele><time>2022-01-03T19:52:51Z</time></trkpt>
<trkpt lat="39.831688" lon="9.334831"><ele>730.31</ele><time>2022-01-03T19:52:53Z</time></trkpt>
<trkpt lat="39.831595" lon="9.334954"><ele>730.19</ele><time>2022-01-03T19:52:55Z</time></trkpt>
<trkpt lat="39.831423" lon="9.33529"><ele>731.63</ele><time>2022-01-03T19:52:56Z</time></trkpt>
<trkpt lat="39.831253" lon="9.335785"><ele>728.03</ele><time>2022-01-03T19:52:58Z</time></trkpt>
<trkpt lat="39.831248" lon="9.335892"><ele>727.72</ele><time>2022-01-03T19:53:00Z</time></trkpt>
<trkpt lat="39.83132" lon="9.336472"><ele>729.2</ele><time>2022-01-03T19:53:01Z</time></trkpt>
<trkpt lat="39.831304" lon="9.336701"><ele>728.62</ele><time>2022-01-03T19:53:03Z</time></trkpt>
<trkpt lat="39.83125" lon="9.33697"><ele>724.22</ele><time>2022-01-03T19:53:05Z</time></trkpt>
<trkpt lat="39.831231" lon="9.33715"><ele>721.3</ele><time>2022-01-03T19:53:06Z</time></trkpt>
<trkpt lat="39.831227" lon="9.337377"><ele>720.62</ele><time>2022-01-03T19:53:08Z</time></trkpt>
<trkpt lat="39.831259" lon="9.337559"><ele>720.83</ele><time>2022-01-03T19:53:10Z</time></trkpt>
<trkpt lat="39.831343" lon="9.337811"><ele>719.54</ele><time>2022-01-03T19:53:11Z</time></trkpt>
<trkpt lat="39.831389" lon="9.337879"><ele>719.46</ele><time>2022-01-03T19:53:13Z</time></trkpt>
<trkpt lat="39.831636" lon="9.338132"><ele>716.98</ele><time>2022-01-03T19:53:15Z</time></trkpt>
<trkpt lat="39.831758" lon="9.338178"><ele>714.97</ele><time>2022-01-03T19:53:16Z</time></trkpt>
<trkpt lat="39.83197" lon="9.338125"><ele>713.22</ele><time>2022-01-03T19:53:18Z</time></trkpt>
<trkpt lat="39.832092" lon="9.338074"><ele>711.53</ele><time>2022-01-03T19:53:20Z</time></trkpt>
<trkpt lat="39.832189" lon="9.338032"><ele>710.41</ele><time>2022-01-03T19:53:21Z</time></trkpt>
<trkpt lat="39.832454" lon="9.337869"><ele>714.96</ele><time>2022-01-03T19:53:23Z</time></trkpt>
<trkpt lat="39.832499" lon="9.337864"><ele>715.29</ele><time>2022-01-03T19:53:25Z</time></trkpt>
<trkpt lat="39.832961" lon="9.337988"><ele>714.13</ele><time>2022-01-03T19:53:26Z</time></trkpt>
<trkpt lat="39.833162" lon="9.338101"><ele>715.13</ele><time>2022-01-03T19:53:28Z</time></trkpt>
<trkpt lat="39.833199" lon="9.338156"><ele>715.35</ele><time>2022-01-03T19:53:30Z</time></trkpt>
<trkpt lat="39.833224" lon="9.338286"><ele>714.24</ele><time>2022-01-03T19:53:31Z</time></trkpt>
<trkpt lat="39.833214" lon="9.338351"><ele>713.48</ele><time>2022-01-03T19:53:33Z</time></trkpt>
<trkpt lat="39.833173" lon="9.338404"><ele>712.78</ele><time>2022-01-03T19:53:35Z</time></trkpt>
<trkpt lat="39.832958" lon="9.33848"><ele>708.24</ele><time>2022-01-03T19:53:36Z</time></trkpt>
<trkpt lat="39.832878" lon="9.338537"><ele>706.42</ele><time>2022-01-03T19:53:38Z</time></trkpt>
<trkpt lat="39.832605" lon="9.33888"><ele>702.23</ele><time>2022-01-03T19:53:40Z</time></trkpt>
<trkpt lat="39.832512" lon="9.33904"><ele>701.41</ele><time>2022-01-03T19:53:41Z</time></trkpt>
<trkpt lat="39.832297" lon="9.339564"><ele>700.09</ele><time>2022-01-03T19:53:43Z</time></trkpt>
<trkpt lat="39.832081" lon="9.339947"><ele>694.41</ele><time>2022-01-03T19:53:45Z</time></trkpt>
<trkpt lat="39.832052" lon="9.340049"><ele>692.87</ele><time>2022-01-03T19:53:46Z</time></trkpt>
<trkpt lat="39.832054" lon="9.34018"><ele>691.89</ele><time>2022-01-03T19:53:48Z</time></trkpt>
<trkpt lat="39.832087" lon="9.340331"><ele>692.49</ele><time>2022-01-03T19:53:50Z</time></trkpt>
<trkpt lat="39.832184" lon="9.340618"><ele>695.52</ele><time>2022-01-03T19:53:51Z</time></trkpt>
<trkpt lat="39.832233" lon="9.34086"><ele>695.01</ele><time>2022-01-03T19:53:53Z</time></trkpt>
<trkpt lat="39.83226" lon="9.341254"><ele>687.62</ele><time>2022-01-03T19:53:55Z</time></trkpt>
<trkpt lat="39.832286" lon="9.341355"><ele>686.34</ele><time>2022-01-03T19:53:56Z</time></trkpt>
<trkpt lat="39.832318" lon="9.341415"><ele>686.32</ele><time>2022-01-03T19:53:58Z</time></trkpt>
<trkpt lat="39.832365" lon="9.341474"><ele>686.94</ele><time>2022-01-03T19:54:00Z</time></trkpt>
<trkpt lat="39.832651" lon="9.341601"><ele>693.29</ele><time>2022-01-03T19:54:01Z</time></trkpt>
<trkpt lat="39.832748" lon="9.341691"><ele>693.46</ele><time>2022-01-03T19:54:03Z</time></trkpt>
<trkpt lat="39.833051" lon="9.342102"><ele>688.8</ele><time>2022-01-03T19:54:05Z</time></trkpt>
<trkpt lat="39.833249" lon="9.342403"><ele>689.02</ele><time>2022-01-03T19:54:06Z</time></trkpt>
<trkpt lat="39.833452" lon="9.342868"><ele>686.28</ele><time>2022-01-03T19:54:08Z</time></trkpt>
<trkpt lat="39.83359" lon="9.343007"><ele>686.13</ele><time>2022-01-03T19:54:10Z</time></trkpt>
<trkpt lat="39.833885" lon="9.343414"><ele>686.46</ele><time>2022-01-03T19:54:11Z</time></trkpt>
<trkpt lat="39.833974" lon="9.343587"><ele>685.17</ele><time>2022-01-03T19:54:13Z</time></trkpt>
<trkpt lat="39.83398" lon="9.343667"><ele>683.98</ele><time>2022-01-03T19:54:15Z</time></trkpt>
<trkpt lat="39.833853" lon="9.343913"><ele>682.45</ele><time>2022-01-03T19:54:16Z</time></trkpt>
<trkpt lat="39.833811" lon="9.343954"><ele>682.13</ele><time>2022-01-03T19:54:18Z</time></trkpt>
<trkpt lat="39.833719" lon="9.343936"><ele>682.92</ele><time>2022-01-03T19:54:20Z</time></trkpt>
<trkpt lat="39.833348" lon="9.343552"><ele>683.0</ele><time>2022-01-03T19:54:21Z</time></trkpt>
<trkpt lat="39.833109" lon="9.343453"><ele>684.04</ele><time>2022-01-03T19:54:23Z</time></trkpt>
<trkpt lat="39.832906" lon="9.343217"><ele>683.19</ele><time>2022-01-03T19:54:25Z</time></trkpt>
<trkpt lat="39.832463" lon="9.342862"><ele>684.75</ele><time>2022-01-03T19:54:26Z</time></trkpt>
<trkpt lat="39.832215" lon="9.342714"><ele>687.13</ele><time>2022-01-03T19:54:28Z</time></trkpt>
<trkpt lat="39.831934" lon="9.342614"><ele>695.13</ele><time>2022-01-03T19:54:30Z</time></trkpt>
<trkpt lat="39.831804" lon="9.342549"><ele>696.67</ele><time>2022-01-03T19:54:31Z</time></trkpt>
<trkpt lat="39.831502" lon="9.342305"><ele>698.93</ele><time>2022-01-03T19:54:33Z</time></trkpt>
<trkpt lat="39.831383" lon="9.342185"><ele>699.36</ele><time>2022-01-03T19:54:35Z</time></trkpt>
<trkpt lat="39.831231" lon="9.341938"><ele>698.98</ele><time>2022-01-03T19:54:36Z</time></trkpt>
<trkpt lat="39.831046" lon="9.341735"><ele>700.13</ele><time>2022-01-03T19:54:38Z</time></trkpt>
<trkpt lat="39.830769" lon="9.341493"><ele>700.07</ele><time>2022-01-03T19:54:40Z</time></trkpt>
<trkpt lat="39.830448" lon="9.341297"><ele>701.98</ele><time>2022-01-03T19:54:41Z</time></trkpt>
<trkpt lat="39.830384" lon="9.341226"><ele>702.53</ele><time>2022-01-03T19:54:43Z</time></trkpt>
<trkpt lat="39.830275" lon="9.341174"><ele>705.01</ele><time>2022-01-03T19:54:45Z</time></trkpt>
<trkpt lat="39.830124" lon="9.341061"><ele>708.8</ele><time>2022-01-03T19:54:46Z</time></trkpt>
<trkpt lat="39.830074" lon="9.340977"><ele>709.16</ele><time>2022-01-03T19:54:48Z</time></trkpt>
<trkpt lat="39.829966" lon="9.340627"><ele>704.24</ele><time>2022-01-03T19:54:50Z</time></trkpt>
<trkpt lat="39.829922" lon="9.340556"><ele>702.85</ele><time>2022-01-03T19:54:51Z</time></trkpt>
<trkpt lat="39.829859" lon="9.340504"><ele>701.39</ele><time>2022-01-03T19:54:53Z</time></trkpt>
<trkpt lat="39.829781" lon="9.340491"><ele>701.61</ele><time>2022-01-03T19:54:55Z</time></trkpt>
<trkpt lat="39.82966" lon="9.3405"><ele>703.1</ele><time>2022-01-03T19:54:56Z</time></trkpt>
<trkpt lat="39.829481" lon="9.340543"><ele>706.24</ele><time>2022-01-03T19:54:58Z</time></trkpt>
<trkpt lat="39.829345" lon="9.340555"><ele>707.33</ele><time>2022-01-03T19:55:00Z</time></trkpt>
<trkpt lat="39.829042" lon="9.340659"><ele>711.56</ele><time>2022-01-03T19:55:01Z</time></trkpt>
<trkpt lat="39.828905" lon="9.340685"><ele>712.23</ele><time>2022-01-03T19:55:03Z</time></trkpt>
<trkpt lat="39.828749" lon="9.340652"><ele>712.97</ele><time>2022-01-03T19:55:05Z</time></trkpt>
<trkpt lat="39.828496" lon="9.340528"><ele>712.01</ele><time>2022-01-03T19:55:06Z</time></trkpt>
<trkpt lat="39.828437" lon="9.34052"><ele>712.74</ele><time>2022-01-03T19:55:08Z</time></trkpt>
<trkpt lat="39.828357" lon="9.340522"><ele>714.24</ele><time>2022-01-03T19:55:10Z</time></trkpt>
<trkpt lat="39.828105" lon="9.340597"><ele>720.51</ele><time>2022-01-03T19:55:11Z</time></trkpt>
<trkpt lat="39.828013" lon="9.340607"><ele>722.47</ele><time>2022-01-03T19:55:13Z</time></trkpt>
<trkpt lat="39.827944" lon="9.340585"><ele>723.55</ele><time>2022-01-03T19:55:15Z</time></trkpt>
<trkpt lat="39.827894" lon="9.340546"><ele>723.86</ele><time>2022-01-03T19:55:16Z</time></trkpt>
<trkpt lat="39.827808" lon="9.340443"><ele>723.77</ele><time>2022-01-03T19:55:18Z</time></trkpt>
<trkpt lat="39.827683" lon="9.340138"><ele>722.91</ele><time>2022-01-03T19:55:20Z</time></trkpt>
<trkpt lat="39.827598" lon="9.340002"><ele>723.86</ele><time>2022-01-03T19:55:21Z</time></trkpt>
<trkpt lat="39.827324" lon="9.339679"><ele>727.7</ele><time>2022-01-03T19:55:23Z</time></trkpt>
<trkpt lat="39.827219" lon="9.339522"><ele>729.68</ele><time>2022-01-03T19:55:25Z</time></trkpt>
<trkpt lat="39.827176" lon="9.33941"><ele>730.7</ele><time>2022-01-03T19:55:26Z</time></trkpt>
<trkpt lat="39.827136" lon="9.33915"><ele>731.37</ele><time>2022-01-03T19:55:28Z</time></trkpt>
<trkpt lat="39.827135" lon="9.338181"><ele>728.55</ele><time>2022-01-03T19:55:30Z</time></trkpt>
<trkpt lat="39.827119" lon="9.338091"><ele>728.57</ele><time>2022-01-03T19:55:31Z</time></trkpt>
<trkpt lat="39.827085" lon="9.338017"><ele>728.76</ele><time>2022-01-03T19:55:33Z</time></trkpt>
<trkpt lat="39.826994" lon="9.337894"><ele>729.1</ele><time>2022-01-03T19:55:35Z</time></trkpt>
<trkpt lat="39.82683" lon="9.337741"><ele>731.2</ele><time>2022-01-03T19:55:36Z</time></trkpt>
<trkpt lat="39.826481" lon="9.337353"><ele>734.14</ele><time>2022-01-03T19:55:38Z</time></trkpt>
<trkpt lat="39.826324" lon="9.337248"><ele>736.1</ele><time>2022-01-03T19:55:40Z</time></trkpt>
<trkpt lat="39.82566" lon="9.336915"><ele>744.31</ele><time>2022-01-03T19:55:41Z</time></trkpt>
<trkpt lat="39.825525" lon="9.336871"><ele>745.7</ele><time>2022-01-03T19:55:43Z</time></trkpt>
<trkpt lat="39.825439" lon="9.336865"><ele>744.96</ele><time>2022-01-03T19:55:45Z</time></trkpt>
<trkpt lat="39.825385" lon="9.336884"><ele>744.68</ele><time>2022-01-03T19:55:46Z</time></trkpt>
<trkpt lat="39.825339" lon="9.336932"><ele>744.59</ele><time>2022-01-03T19:55:48Z</time></trkpt>
<trkpt lat="39.825315" lon="9.337005"><ele>744.21</ele><time>2022-01-03T19:55:50Z</time></trkpt>
<trkpt lat="39.82532" lon="9.337106"><ele>743.96</ele><time>2022-01-03T19:55:51Z</time></trkpt>
<trkpt lat="39.825534" lon="9.337598"><ele>747.08</ele><time>2022-01-03T19:55:53Z</time></trkpt>
<trkpt lat="39.825604" lon="9.337815"><ele>748.09</ele><time>2022-01-03T19:55:55Z</time></trkpt>
<trkpt lat="39.825746" lon="9.338688"><ele>754.17</ele><time>2022-01-03T19:55:56Z</time></trkpt>
<trkpt lat="39.825785" lon="9.339503"><ele>753.81</ele><time>2022-01-03T19:55:58Z</time></trkpt>
<trkpt lat="39.82583" lon="9.34004"><ele>758.04</ele><time>2022-01-03T19:56:00Z</time></trkpt>
<trkpt lat="39.825851" lon="9.340688"><ele>760.89</ele><time>2022-01-03T19:56:01Z</time></trkpt>
<trkpt lat="39.825931" lon="9.341403"><ele>763.78</ele><time>2022-01-03T19:56:03Z</time></trkpt>
<trkpt lat="39.825937" lon="9.342113"><ele>767.52</ele><time>2022-01-03T19:56:05Z</time></trkpt>
<trkpt lat="39.825883" lon="9.342747"><ele>772.9</ele><time>2022-01-03T19:56:06Z</time></trkpt>
<trkpt lat="39.825846" lon="9.342968"><ele>772.96</ele><time>2022-01-03T19:56:08Z</time></trkpt>
<trkpt lat="39.825608" lon="9.343858"><ele>776.56</ele><time>2022-01-03T19:56:10Z</time></trkpt>
<trkpt lat="39.825463" lon="9.344548"><ele>785.35</ele><time>2022-01-03T19:56:11Z</time></trkpt>
<trkpt lat="39.825366" lon="9.34471"><ele>786.24</ele><time>2022-01-03T19:56:13Z</time></trkpt>
<trkpt lat="39.825277" lon="9.344798"><ele>785.62</ele><time>2022-01-03T19:56:15Z</time></trkpt>
<trkpt lat="39.824987" lon="9.344955"><ele>785.38</ele><time>2022-01-03T19:56:16Z</time></trkpt>
<trkpt lat="39.824804" lon="9.345106"><ele>784.6</ele><time>2022-01-03T19:56:18Z</time></trkpt>
<trkpt lat="39.824695" lon="9.345223"><ele>784.78</ele><time>2022-01-03T19:56:20Z</time></trkpt>
<trkpt lat="39.824542" lon="9.345488"><ele>785.71</ele><time>2022-01-03T19:56:21Z</time></trkpt>
<trkpt lat="39.824474" lon="9.345653"><ele>786.4</ele><time>2022-01-03T19:56:23Z</time></trkpt>
<trkpt lat="39.824409" lon="9.345891"><ele>787.41</ele><time>2022-01-03T19:56:25Z</time></trkpt>
<trkpt lat="39.824262" lon="9.346696"><ele>794.29</ele><time>2022-01-03T19:56:26Z</time></trkpt>
<trkpt lat="39.824202" lon="9.346854"><ele>794.76</ele><time>2022-01-03T19:56:28Z</time></trkpt>
<trkpt lat="39.823816" lon="9.347681"><ele>792.12</ele><time>2022-01-03T19:56:30Z</time></trkpt>
<trkpt lat="39.823695" lon="9.348023"><ele>792.2</ele><time>2022-01-03T19:56:31Z</time></trkpt>
<trkpt lat="39.823683" lon="9.348229"><ele>794.04</ele><time>2022-01-03T19:56:33Z</time></trkpt>
<trkpt lat="39.823713" lon="9.348317"><ele>795.78</ele><time>2022-01-03T19:56:35Z</time></trkpt>
<trkpt lat="39.823765" lon="9.34838"><ele>797.09</ele><time>2022-01-03T19:56:36Z</time></trkpt>
<trkpt lat="39.823874" lon="9.348426"><ele>799.6</ele><time>2022-01-03T19:56:38Z</time></trkpt>
<trkpt lat="39.824112" lon="9.348435"><ele>803.84</ele><time>2022-01-03T19:56:40Z</time></trkpt>
<trkpt lat="39.824325" lon="9.348495"><ele>805.68</ele><time>2022-01-03T19:56:41Z</time></trkpt>
<trkpt lat="39.824586" lon="9.348504"><ele>809.65</ele><time>2022-01-03T19:56:43Z</time></trkpt>
<trkpt lat="39.82468" lon="9.348528"><ele>810.63</ele><time>2022-01-03T19:56:45Z</time></trkpt>
<trkpt lat="39.824785" lon="9.34859"><ele>811.18</ele><time>2022-01-03T19:56:46Z</time></trkpt>
<trkpt lat="39.825445" lon="9.349139"><ele>814.78</ele><time>2022-01-03T19:56:48Z</time></trkpt>
<trkpt lat="39.825553" lon="9.349248"><ele>815.55</ele><time>2022-01-03T19:56:50Z</time></trkpt>
<trkpt lat="39.825656" lon="9.349391"><ele>815.54</ele><time>2022-01-03T19:56:51Z</time></trkpt>
<trkpt lat="39.825832" lon="9.349757"><ele>817.56</ele><time>2022-01-03T19:56:53Z</time></trkpt>
<trkpt lat="39.825898" lon="9.34994"><ele>818.43</ele><time>2022-01-03T19:56:55Z</time></trkpt>
<trkpt lat="39.826021" lon="9.350435"><ele>820.71</ele><time>2022-01-03T19:56:56Z</time></trkpt>
<trkpt lat="39.826106" lon="9.35071"><ele>824.94</ele><time>2022-01-03T19:56:58Z</time></trkpt>
<trkpt lat="39.826115" lon="9.350786"><ele>825.79</ele><time>2022-01-03T19:57:00Z</time></trkpt>
<trkpt lat="39.826088" lon="9.350899"><ele>826.23</ele><time>2022-01-03T19:57:01Z</time></trkpt>
<trkpt lat="39.825953" lon="9.350989"><ele>823.75</ele><time>2022-01-03T19:57:03Z</time></trkpt>
<trkpt lat="39.82587" lon="9.351074"><ele>823.17</ele><time>2022-01-03T19:57:05Z</time></trkpt>
<trkpt lat="39.825544" lon="9.351554"><ele>825.71</ele><time>2022-01-03T19:57:06Z</time></trkpt>
<trkpt lat="39.825411" lon="9.351704"><ele>826.29</ele><time>2022-01-03T19:57:08Z</time></trkpt>
<trkpt lat="39.825084" lon="9.351917"><ele>825.68</ele><time>2022-01-03T19:57:10Z</time></trkpt>
<trkpt lat="39.824799" lon="9.352138"><ele>827.86</ele><time>2022-01-03T19:57:11Z</time></trkpt>
<trkpt lat="39.824704" lon="9.352237"><ele>829.02</ele><time>2022-01-03T19:57:13Z</time></trkpt>
<trkpt lat="39.824532" lon="9.352466"><ele>832.09</ele><time>2022-01-03T19:57:15Z</time></trkpt>
<trkpt lat="39.824345" lon="9.352604"><ele>832.33</ele><time>2022-01-03T19:57:16Z</time></trkpt>
<trkpt lat="39.82399" lon="9.353012"><ele>834.84</ele><time>2022-01-03T19:57:18Z</time></trkpt>
<trkpt lat="39.823899" lon="9.353183"><ele>835.55</ele><time>2022-01-03T19:57:20Z</time></trkpt>
<trkpt lat="39.823687" lon="9.353817"><ele>841.23</ele><time>2022-01-03T19:57:21Z</time></trkpt>
<trkpt lat="39.823374" lon="9.354896"><ele>844.82</ele><time>2022-01-03T19:57:23Z</time></trkpt>
<trkpt lat="39.823079" lon="9.355419"><ele>847.46</ele><time>2022-01-03T19:57:25Z</time></trkpt>
<trkpt lat="39.822945" lon="9.355552"><ele>848.5</ele><time>2022-01-03T19:57:26Z</time></trkpt>
<trkpt lat="39.822859" lon="9.355609"><ele>848.36</ele><time>2022-01-03T19:57:28Z</time></trkpt>
<trkpt lat="39.82245" lon="9.35574"><ele>847.17</ele><time>2022-01-03T19:57:30Z</time></trkpt>
<trkpt lat="39.822339" lon="9.355791"><ele>847.82</ele><time>2022-01-03T19:57:31Z</time></trkpt>
<trkpt lat="39.82223" lon="9.355871"><ele>849.3</ele><time>2022-01-03T19:57:33Z</time></trkpt>
<trkpt lat="39.821892" lon="9.356291"><ele>857.49</ele><time>2022-01-03T19:57:35Z</time></trkpt>
<trkpt lat="39.821807" lon="9.356375"><ele>858.51</ele><time>2022-01-03T19:57:36Z</time></trkpt>
<trkpt lat="39.821649" lon="9.356474"><ele>857.83</ele><time>2022-01-03T19:57:38Z</time></trkpt>
<trkpt lat="39.821212" lon="9.356707"><ele>861.72</ele><time>2022-01-03T19:57:39Z</time></trkpt>
<trkpt lat="39.821134" lon="9.356732"><ele>862.23</ele><time>2022-01-03T19:57:41Z</time></trkpt>
<trkpt lat="39.820615" lon="9.356792"><ele>857.05</ele><time>2022-01-03T19:57:43Z</time></trkpt>
<trkpt lat="39.820532" lon="9.356849"><ele>856.52</ele><time>2022-01-03T19:57:44Z</time></trkpt>
<trkpt lat="39.820468" lon="9.356953"><ele>856.55</ele><time>2022-01-03T19:57:46Z</time></trkpt>
<trkpt lat="39.820438" lon="9.35714"><ele>858.5</ele><time>2022-01-03T19:57:48Z</time></trkpt>
<trkpt lat="39.820429" lon="9.3577"><ele>862.35</ele><time>2022-01-03T19:57:49Z</time></trkpt>
<trkpt lat="39.820451" lon="9.357788"><ele>862.82</ele><time>2022-01-03T19:57:51Z</time></trkpt>
<trkpt lat="39.820496" lon="9.357838"><ele>863.36</ele><time>2022-01-03T19:57:53Z</time></trkpt>
<trkpt lat="39.820586" lon="9.357853"><ele>865.49</ele><time>2022-01-03T19:57:54Z</time></trkpt>
<trkpt lat="39.821179" lon="9.357853"><ele>873.88</ele><time>2022-01-03T19:57:56Z</time></trkpt>
<trkpt lat="39.82145" lon="9.357962"><ele>871.32</ele><time>2022-01-03T19:57:58Z</time></trkpt>
<trkpt lat="39.821706" lon="9.357969"><ele>870.07</ele><time>2022-01-03T19:57:59Z</time></trkpt>
<trkpt lat="39.822192" lon="9.357841"><ele>876.56</ele><time>2022-01-03T19:58:01Z</time></trkpt>
<trkpt lat="39.82245" lon="9.357726"><ele>878.12</ele><time>2022-01-03T19:58:03Z</time></trkpt>
<trkpt lat="39.822549" lon="9.35771"><ele>878.22</ele><time>2022-01-03T19:58:04Z</time></trkpt>
<trkpt lat="39.822949" lon="9.357755"><ele>880.43</ele><time>2022-01-03T19:58:06Z</time></trkpt>
<trkpt lat="39.82302" lon="9.357781"><ele>881.34</ele><time>2022-01-03T19:58:08Z</time></trkpt>
<trkpt lat="39.823062" lon="9.357837"><ele>881.06</ele><time>2022-01-03T19:58:09Z</time></trkpt>
<trkpt lat="39.823073" lon="9.35788"><ele>880.9</ele><time>2022-01-03T19:58:11Z</time></trkpt>
<trkpt lat="39.823057" lon="9.358001"><ele>880.41</ele><time>2022-01-03T19:58:13Z</time></trkpt>
<trkpt lat="39.822763" lon="9.358335"><ele>877.72</ele><time>2022-01-03T19:58:14Z</time></trkpt>
<trkpt lat="39.822636" lon="9.358539"><ele>879.37</ele><time>2022-01-03T19:58:16Z</time></trkpt>
<trkpt lat="39.822444" lon="9.35889"><ele>883.61</ele><time>2022-01-03T19:58:18Z</time></trkpt>
<trkpt lat="39.822085" lon="9.359633"><ele>882.11</ele><time>2022-01-03T19:58:19Z</time></trkpt>
<trkpt lat="39.821752" lon="9.360218"><ele>885.74</ele><time>2022-01-03T19:58:21Z</time></trkpt>
<trkpt lat="39.821591" lon="9.360465"><ele>886.89</ele><time>2022-01-03T19:58:23Z</time></trkpt>
<trkpt lat="39.821318" lon="9.360759"><ele>882.56</ele><time>2022-01-03T19:58:24Z</time></trkpt>
<trkpt lat="39.82123" lon="9.3609"><ele>881.93</ele><time>2022-01-03T19:58:26Z</time></trkpt>
<trkpt lat="39.821149" lon="9.361054"><ele>882.24</ele><time>2022-01-03T19:58:28Z</time></trkpt>
<trkpt lat="39.821055" lon="9.361296"><ele>881.6</ele><time>2022-01-03T19:58:29Z</time></trkpt>
<trkpt lat="39.820969" lon="9.361648"><ele>883.05</ele><time>2022-01-03T19:58:31Z</time></trkpt>
<trkpt lat="39.820964" lon="9.362108"><ele>885.32</ele><time>2022-01-03T19:58:33Z</time></trkpt>
<trkpt lat="39.82098" lon="9.362227"><ele>886.41</ele><time>2022-01-03T19:58:34Z</time></trkpt>
<trkpt lat="39.821047" lon="9.362388"><ele>888.45</ele><time>2022-01-03T19:58:36Z</time></trkpt>
<trkpt lat="39.821192" lon="9.362633"><ele>889.79</ele><time>2022-01-03T19:58:38Z</time></trkpt>
<trkpt lat="39.821353" lon="9.362979"><ele>887.28</ele><time>2022-01-03T19:58:39Z</time></trkpt>
<trkpt lat="39.821418" lon="9.36307"><ele>887.37</ele><time>2022-01-03T19:58:41Z</time></trkpt>
<trkpt lat="39.821475" lon="9.363107"><ele>887.74</ele><time>2022-01-03T19:58:43Z</time></trkpt>
<trkpt lat="39.821632" lon="9.363152"><ele>890.11</ele><time>2022-01-03T19:58:44Z</time></trkpt>
<trkpt lat="39.821737" lon="9.363203"><ele>890.49</ele><time>2022-01-03T19:58:46Z</time></trkpt>
<trkpt lat="39.821993" lon="9.363391"><ele>889.0</ele><time>2022-01-03T19:58:48Z</time></trkpt>
<trkpt lat="39.82209" lon="9.363437"><ele>889.28</ele><time>2022-01-03T19:58:49Z</time></trkpt>
<trkpt lat="39.822375" lon="9.363424"><ele>893.34</ele><time>2022-01-03T19:58:51Z</time></trkpt>
<trkpt lat="39.822689" lon="9.363463"><ele>893.9</ele><time>2022-01-03T19:58:53Z</time></trkpt>
<trkpt lat="39.822851" lon="9.363506"><ele>893.97</ele><time>2022-01-03T19:58:54Z</time></trkpt>
<trkpt lat="39.822974" lon="9.363604"><ele>893.25</ele><time>2022-01-03T19:58:56Z</time></trkpt>
<trkpt lat="39.823022" lon="9.363739"><ele>894.81</ele><time>2022-01-03T19:58:58Z</time></trkpt>
<trkpt lat="39.82302" lon="9.363814"><ele>895.62</ele><time>2022-01-03T19:58:59Z</time></trkpt>
<trkpt lat="39.822988" lon="9.363879"><ele>895.69</ele><time>2022-01-03T19:59:01Z</time></trkpt>
<trkpt lat="39.822595" lon="9.364179"><ele>893.33</ele><time>2022-01-03T19:59:03Z</time></trkpt>
<trkpt lat="39.821971" lon="9.36475"><ele>893.09</ele><time>2022-01-03T19:59:04Z</time></trkpt>
<trkpt lat="39.821905" lon="9.364853"><ele>894.21</ele><time>2022-01-03T19:59:06Z</time></trkpt>
<trkpt lat="39.821883" lon="9.364955"><ele>895.66</ele><time>2022-01-03T19:59:08Z</time></trkpt>
<trkpt lat="39.821876" lon="9.365101"><ele>896.83</ele><time>2022-01-03T19:59:09Z</time></trkpt>
<trkpt lat="39.821941" lon="9.365671"><ele>899.9</ele><time>2022-01-03T19:59:11Z</time></trkpt>
<trkpt lat="39.821986" lon="9.366247"><ele>904.55</ele><time>2022-01-03T19:59:13Z</time></trkpt>
<trkpt lat="39.821977" lon="9.366466"><ele>905.18</ele><time>2022-01-03T19:59:14Z</time></trkpt>
<trkpt lat="39.821748" lon="9.367715"><ele>908.0</ele><time>2022-01-03T19:59:16Z</time></trkpt>
<trkpt lat="39.821651" lon="9.367941"><ele>907.77</ele><time>2022-01-03T19:59:18Z</time></trkpt>
<trkpt lat="39.821398" lon="9.368424"><ele>909.42</ele><time>2022-01-03T19:59:19Z</time></trkpt>
<trkpt lat="39.821352" lon="9.368484"><ele>910.14</ele><time>2022-01-03T19:59:21Z</time></trkpt>
<trkpt lat="39.821298" lon="9.368496"><ele>910.83</ele><time>2022-01-03T19:59:23Z</time></trkpt>
<trkpt lat="39.821194" lon="9.368446"><ele>912.17</ele><time>2022-01-03T19:59:24Z</time></trkpt>
<trkpt lat="39.821161" lon="9.368376"><ele>913.13</ele><time>2022-01-03T19:59:26Z</time></trkpt>
<trkpt lat="39.821142" lon="9.367463"><ele>914.48</ele><time>2022-01-03T19:59:28Z</time></trkpt>
<trkpt lat="39.821091" lon="9.36709"><ele>913.42</ele><time>2022-01-03T19:59:29Z</time></trkpt>
<trkpt lat="39.821049" lon="9.366971"><ele>913.78</ele><time>2022-01-03T19:59:31Z</time></trkpt>
<trkpt lat="39.820997" lon="9.366885"><ele>913.98</ele><time>2022-01-03T19:59:33Z</time></trkpt>
<trkpt lat="39.820865" lon="9.366741"><ele>914.41</ele><time>2022-01-03T19:59:34Z</time></trkpt>
<trkpt lat="39.820733" lon="9.366671"><ele>914.93</ele><time>2022-01-03T19:59:36Z</time></trkpt>
<trkpt lat="39.820608" lon="9.366644"><ele>916.27</ele><time>2022-01-03T19:59:38Z</time></trkpt>
<trkpt lat="39.820389" lon="9.366675"><ele>919.41</ele><time>2022-01-03T19:59:39Z</time></trkpt>
<trkpt lat="39.819958" lon="9.366801"><ele>925.29</ele><time>2022-01-03T19:59:41Z</time></trkpt>
<trkpt lat="39.819831" lon="9.366798"><ele>925.01</ele><time>2022-01-03T19:59:43Z</time></trkpt>
<trkpt lat="39.819629" lon="9.366746"><ele>923.28</ele><time>2022-01-03T19:59:44Z</time></trkpt>
<trkpt lat="39.819418" lon="9.366725"><ele>922.86</ele><time>2022-01-03T19:59:46Z</time></trkpt>
<trkpt lat="39.81911" lon="9.366782"><ele>926.11</ele><time>2022-01-03T19:59:48Z</time></trkpt>
<trkpt lat="39.818849" lon="9.366896"><ele>929.87</ele><time>2022-01-03T19:59:49Z</time></trkpt>
<trkpt lat="39.818599" lon="9.367035"><ele>933.1</ele><time>2022-01-03T19:59:51Z</time></trkpt>
<trkpt lat="39.818342" lon="9.367034"><ele>935.84</ele><time>2022-01-03T19:59:53Z</time></trkpt>
<trkpt lat="39.818244" lon="9.367007"><ele>937.77</ele><time>2022-01-03T19:59:54Z</time></trkpt>
<trkpt lat="39.818146" lon="9.36695"><ele>939.49</ele><time>2022-01-03T19:59:56Z</time></trkpt>
<trkpt lat="39.817907" lon="9.366759"><ele>944.3</ele><time>2022-01-03T19:59:58Z</time></trkpt>
<trkpt lat="39.817682" lon="9.366518"><ele>947.59</ele><time>2022-01-03T19:59:59Z</time></trkpt>
<trkpt lat="39.817218" lon="9.36572"><ele>953.06</ele><time>2022-01-03T20:00:01Z</time></trkpt>
<trkpt lat="39.816915" lon="9.365234"><ele>953.3</ele><time>2022-01-03T20:00:03Z</time></trkpt>
<trkpt lat="39.81649" lon="9.36464"><ele>959.9</ele><time>2022-01-03T20:00:04Z</time></trkpt>
<trkpt lat="39.816415" lon="9.364484"><ele>959.15</ele><time>2022-01-03T20:00:06Z</time></trkpt>
<trkpt lat="39.816263" lon="9.364256"><ele>959.08</ele><time>2022-01-03T20:00:08Z</time></trkpt>
<trkpt lat="39.816141" lon="9.364152"><ele>959.94</ele><time>2022-01-03T20:00:09Z</time></trkpt>
<trkpt lat="39.815533" lon="9.363827"><ele>967.03</ele><time>2022-01-03T20:00:11Z</time></trkpt>
<trkpt lat="39.815351" lon="9.363759"><ele>970.23</ele><time>2022-01-03T20:00:13Z</time></trkpt>
<trkpt lat="39.815234" lon="9.363677"><ele>971.02</ele><time>2022-01-03T20:00:14Z</time></trkpt>
<trkpt lat="39.815128" lon="9.363552"><ele>970.23</ele><time>2022-01-03T20:00:16Z</time></trkpt>
<trkpt lat="39.81476" lon="9.363021"><ele>969.04</ele><time>2022-01-03T20:00:18Z</time></trkpt>
<trkpt lat="39.814536" lon="9.362814"><ele>971.53</ele><time>2022-01-03T20:00:19Z</time></trkpt>
<trkpt lat="39.814174" lon="9.362552"><ele>976.25</ele><time>2022-01-03T20:00:21Z</time></trkpt>
<trkpt lat="39.813963" lon="9.362373"><ele>976.71</ele><time>2022-01-03T20:00:23Z</time></trkpt>
<trkpt lat="39.813885" lon="9.362336"><ele>977.28</ele><time>2022-01-03T20:00:24Z</time></trkpt>
<trkpt lat="39.813712" lon="9.362293"><ele>979.15</ele><time>2022-01-03T20:00:26Z</time></trkpt>
<trkpt lat="39.813267" lon="9.362273"><ele>980.29</ele><time>2022-01-03T20:00:28Z</time></trkpt>
<trkpt lat="39.813148" lon="9.36229"><ele>979.0</ele><time>2022-01-03T20:00:29Z</time></trkpt>
<trkpt lat="39.813049" lon="9.362347"><ele>977.91</ele><time>2022-01-03T20:00:31Z</time></trkpt>
<trkpt lat="39.812994" lon="9.362403"><ele>977.19</ele><time>2022-01-03T20:00:33Z</time></trkpt>
<trkpt lat="39.812937" lon="9.362486"><ele>976.32</ele><time>2022-01-03T20:00:34Z</time></trkpt>
<trkpt lat="39.81282" lon="9.36273"><ele>973.91</ele><time>2022-01-03T20:00:36Z</time></trkpt>
<trkpt lat="39.812552" lon="9.363372"><ele>969.51</ele><time>2022-01-03T20:00:38Z</time></trkpt>
<trkpt lat="39.812483" lon="9.363573"><ele>968.82</ele><time>2022-01-03T20:00:39Z</time></trkpt>
<trkpt lat="39.812337" lon="9.364218"><ele>965.83</ele><time>2022-01-03T20:00:41Z</time></trkpt>
<trkpt lat="39.812245" lon="9.36443"><ele>965.17</ele><time>2022-01-03T20:00:43Z</time></trkpt>
<trkpt lat="39.812131" lon="9.364609"><ele>964.14</ele><time>2022-01-03T20:00:44Z</time></trkpt>
<trkpt lat="39.81077" lon="9.366402"><ele>967.6</ele><time>2022-01-03T20:00:46Z</time></trkpt>
<trkpt lat="39.810625" lon="9.366625"><ele>967.98</ele><time>2022-01-03T20:00:48Z</time></trkpt>
<trkpt lat="39.81053" lon="9.366839"><ele>968.47</ele><time>2022-01-03T20:00:49Z</time></trkpt>
<trkpt lat="39.81047" lon="9.367038"><ele>968.04</ele><time>2022-01-03T20:00:51Z</time></trkpt>
<trkpt lat="39.81045" lon="9.367273"><ele>966.94</ele><time>2022-01-03T20:00:53Z</time></trkpt>
<trkpt lat="39.810468" lon="9.367437"><ele>966.06</ele><time>2022-01-03T20:00:54Z</time></trkpt>
<trkpt lat="39.810551" lon="9.367592"><ele>965.65</ele><time>2022-01-03T20:00:56Z</time></trkpt>
<trkpt lat="39.81119" lon="9.368215"><ele>971.28</ele><time>2022-01-03T20:00:58Z</time></trkpt>
<trkpt lat="39.811256" lon="9.368344"><ele>971.09</ele><time>2022-01-03T20:00:59Z</time></trkpt>
<trkpt lat="39.811281" lon="9.368537"><ele>970.25</ele><time>2022-01-03T20:01:01Z</time></trkpt>
<trkpt lat="39.811272" lon="9.36863"><ele>969.41</ele><time>2022-01-03T20:01:03Z</time></trkpt>
<trkpt lat="39.811231" lon="9.368741"><ele>968.13</ele><time>2022-01-03T20:01:04Z</time></trkpt>
<trkpt lat="39.811132" lon="9.368881"><ele>965.49</ele><time>2022-01-03T20:01:06Z</time></trkpt>
<trkpt lat="39.811025" lon="9.368967"><ele>964.84</ele><time>2022-01-03T20:01:08Z</time></trkpt>
<trkpt lat="39.810862" lon="9.369014"><ele>964.47</ele><time>2022-01-03T20:01:09Z</time></trkpt>
<trkpt lat="39.809427" lon="9.369235"><ele>960.9</ele><time>2022-01-03T20:01:11Z</time></trkpt>
<trkpt lat="39.809196" lon="9.369288"><ele>960.47</ele><time>2022-01-03T20:01:13Z</time></trkpt>
<trkpt lat="39.808977" lon="9.36937"><ele>959.14</ele><time>2022-01-03T20:01:14Z</time></trkpt>
<trkpt lat="39.808322" lon="9.369771"><ele>959.58</ele><time>2022-01-03T20:01:16Z</time></trkpt>
<trkpt lat="39.808128" lon="9.369917"><ele>959.07</ele><time>2022-01-03T20:01:18Z</time></trkpt>
<trkpt lat="39.807905" lon="9.370169"><ele>958.05</ele><time>2022-01-03T20:01:19Z</time></trkpt>
<trkpt lat="39.807407" lon="9.370807"><ele>955.84</ele><time>2022-01-03T20:01:21Z</time></trkpt>
<trkpt lat="39.807291" lon="9.371032"><ele>955.45</ele><time>2022-01-03T20:01:23Z</time></trkpt>
<trkpt lat="39.806723" lon="9.372915"><ele>945.51</ele><time>2022-01-03T20:01:24Z</time></trkpt>
<trkpt lat="39.806633" lon="9.37312"><ele>944.91</ele><time>2022-01-03T20:01:26Z</time></trkpt>
<trkpt lat="39.806235" lon="9.373753"><ele>942.87</ele><time>2022-01-03T20:01:28Z</time></trkpt>
<trkpt lat="39.806046" lon="9.374001"><ele>939.41</ele><time>2022-01-03T20:01:29Z</time></trkpt>
<trkpt lat="39.804726" lon="9.375395"><ele>931.83</ele><time>2022-01-03T20:01:31Z</time></trkpt>
<trkpt lat="39.804094" lon="9.376091"><ele>931.07</ele><time>2022-01-03T20:01:33Z</time></trkpt>
<trkpt lat="39.803943" lon="9.376289"><ele>931.5</ele><time>2022-01-03T20:01:34Z</time></trkpt>
<trkpt lat="39.803686" lon="9.376695"><ele>931.28</ele><time>2022-01-03T20:01:36Z</time></trkpt>
<trkpt lat="39.803558" lon="9.37697"><ele>931.75</ele><time>2022-01-03T20:01:38Z</time></trkpt>
<trkpt lat="39.803327" lon="9.377625"><ele>931.36</ele><time>2022-01-03T20:01:39Z</time></trkpt>
<trkpt lat="39.80327" lon="9.377936"><ele>928.03</ele><time>2022-01-03T20:01:41Z</time></trkpt>
<trkpt lat="39.803275" lon="9.378294"><ele>926.46</ele><time>2022-01-03T20:01:43Z</time></trkpt>
<trkpt lat="39.803336" lon="9.378623"><ele>927.0</ele><time>2022-01-03T20:01:44Z</time></trkpt>
<trkpt lat="39.803487" lon="9.379178"><ele>924.24</ele><time>2022-01-03T20:01:46Z</time></trkpt>
<trkpt lat="39.803558" lon="9.379373"><ele>922.43</ele><time>2022-01-03T20:01:48Z</time></trkpt>
<trkpt lat="39.803665" lon="9.379524"><ele>921.83</ele><time>2022-01-03T20:01:49Z</time></trkpt>
<trkpt lat="39.803806" lon="9.379653"><ele>922.1</ele><time>2022-01-03T20:01:51Z</time></trkpt>
<trkpt lat="39.803978" lon="9.379738"><ele>922.66</ele><time>2022-01-03T20:01:53Z</time></trkpt>
<trkpt lat="39.804152" lon="9.37977"><ele>923.8</ele><time>2022-01-03T20:01:54Z</time></trkpt>
<trkpt lat="39.804885" lon="9.379717"><ele>922.62</ele><time>2022-01-03T20:01:56Z</time></trkpt>
<trkpt lat="39.805108" lon="9.379738"><ele>922.7</ele><time>2022-01-03T20:01:58Z</time></trkpt>
<trkpt lat="39.805248" lon="9.379781"><ele>922.97</ele><time>2022-01-03T20:01:59Z</time></trkpt>
<trkpt lat="39.805412" lon="9.3799"><ele>922.49</ele><time>2022-01-03T20:02:01Z</time></trkpt>
<trkpt lat="39.805529" lon="9.380024"><ele>920.99</ele><time>2022-01-03T20:02:03Z</time></trkpt>
<trkpt lat="39.805643" lon="9.380206"><ele>920.71</ele><time>2022-01-03T20:02:04Z</time></trkpt>
<trkpt lat="39.805718" lon="9.380426"><ele>919.93</ele><time>2022-01-03T20:02:06Z</time></trkpt>
<trkpt lat="39.806014" lon="9.381633"><ele>917.93</ele><time>2022-01-03T20:02:08Z</time></trkpt>
<trkpt lat="39.806028" lon="9.381743"><ele>917.91</ele><time>2022-01-03T20:02:09Z</time></trkpt>
<trkpt lat="39.80601" lon="9.381899"><ele>917.46</ele><time>2022-01-03T20:02:11Z</time></trkpt>
<trkpt lat="39.805917" lon="9.382122"><ele>916.82</ele><time>2022-01-03T20:02:13Z</time></trkpt>
<trkpt lat="39.805824" lon="9.382286"><ele>916.25</ele><time>2022-01-03T20:02:14Z</time></trkpt>
<trkpt lat="39.805742" lon="9.382399"><ele>915.61</ele><time>2022-01-03T20:02:16Z</time></trkpt>
<trkpt lat="39.805548" lon="9.382593"><ele>915.56</ele><time>2022-01-03T20:02:18Z</time></trkpt>
<trkpt lat="39.805194" lon="9.382886"><ele>913.63</ele><time>2022-01-03T20:02:19Z</time></trkpt>
<trkpt lat="39.80507" lon="9.383081"><ele>913.05</ele><time>2022-01-03T20:02:21Z</time></trkpt>
<trkpt lat="39.804716" lon="9.383567"><ele>910.43</ele><time>2022-01-03T20:02:23Z</time></trkpt>
<trkpt lat="39.804381" lon="9.383982"><ele>908.45</ele><time>2022-01-03T20:02:24Z</time></trkpt>
<trkpt lat="39.804274" lon="9.384263"><ele>905.99</ele><time>2022-01-03T20:02:26Z</time></trkpt>
<trkpt lat="39.804257" lon="9.384416"><ele>904.8</ele><time>2022-01-03T20:02:28Z</time></trkpt>
<trkpt lat="39.80429" lon="9.384699"><ele>903.9</ele><time>2022-01-03T20:02:29Z</time></trkpt>
<trkpt lat="39.805233" lon="9.386856"><ele>889.04</ele><time>2022-01-03T20:02:31Z</time></trkpt>
<trkpt lat="39.805378" lon="9.387363"><ele>884.2</ele><time>2022-01-03T20:02:33Z</time></trkpt>
<trkpt lat="39.805394" lon="9.38751"><ele>882.79</ele><time>2022-01-03T20:02:34Z</time></trkpt>
<trkpt lat="39.805385" lon="9.387659"><ele>881.98</ele><time>2022-01-03T20:02:36Z</time></trkpt>
<trkpt lat="39.805348" lon="9.387807"><ele>881.12</ele><time>2022-01-03T20:02:38Z</time></trkpt>
<trkpt lat="39.805274" lon="9.387978"><ele>880.23</ele><time>2022-01-03T20:02:39Z</time></trkpt>
<trkpt lat="39.805156" lon="9.388214"><ele>878.68</ele><time>2022-01-03T20:02:41Z</time></trkpt>
<trkpt lat="39.804935" lon="9.388568"><ele>876.06</ele><time>2022-01-03T20:02:43Z</time></trkpt>
<trkpt lat="39.804375" lon="9.389136"><ele>870.83</ele><time>2022-01-03T20:02:44Z</time></trkpt>
<trkpt lat="39.803707" lon="9.389869"><ele>866.22</ele><time>2022-01-03T20:02:46Z</time></trkpt>
<trkpt lat="39.80361" lon="9.390003"><ele>865.98</ele><time>2022-01-03T20:02:48Z</time></trkpt>
<trkpt lat="39.80361" lon="9.390144"><ele>865.47</ele><time>2022-01-03T20:02:49Z</time></trkpt>
<trkpt lat="39.803654" lon="9.390301"><ele>864.99</ele><time>2022-01-03T20:02:51Z</time></trkpt>
<trkpt lat="39.80379" lon="9.390642"><ele>862.83</ele><time>2022-01-03T20:02:53Z</time></trkpt>
<trkpt lat="39.803813" lon="9.390765"><ele>862.21</ele><time>2022-01-03T20:02:54Z</time></trkpt>
<trkpt lat="39.803803" lon="9.39104"><ele>858.7</ele><time>2022-01-03T20:02:56Z</time></trkpt>
<trkpt lat="39.803754" lon="9.39154"><ele>851.35</ele><time>2022-01-03T20:02:58Z</time></trkpt>
<trkpt lat="39.803764" lon="9.391615"><ele>850.31</ele><time>2022-01-03T20:02:59Z</time></trkpt>
<trkpt lat="39.803798" lon="9.391677"><ele>849.5</ele><time>2022-01-03T20:03:01Z</time></trkpt>
<trkpt lat="39.803871" lon="9.391701"><ele>849.33</ele><time>2022-01-03T20:03:03Z</time></trkpt>
<trkpt lat="39.803989" lon="9.391706"><ele>849.24</ele><time>2022-01-03T20:03:04Z</time></trkpt>
<trkpt lat="39.804531" lon="9.391647"><ele>846.46</ele><time>2022-01-03T20:03:06Z</time></trkpt>
<trkpt lat="39.80472" lon="9.391561"><ele>845.92</ele><time>2022-01-03T20:03:08Z</time></trkpt>
<trkpt lat="39.804881" lon="9.391403"><ele>846.48</ele><time>2022-01-03T20:03:09Z</time></trkpt>
<trkpt lat="39.805098" lon="9.391148"><ele>848.15</ele><time>2022-01-03T20:03:11Z</time></trkpt>
<trkpt lat="39.805197" lon="9.391103"><ele>848.08</ele><time>2022-01-03T20:03:12Z</time></trkpt>
<trkpt lat="39.805685" lon="9.391208"><ele>839.02</ele><time>2022-01-03T20:03:14Z</time></trkpt>
<trkpt lat="39.805899" lon="9.391175"><ele>836.03</ele><time>2022-01-03T20:03:16Z</time></trkpt>
<trkpt lat="39.806009" lon="9.3911"><ele>835.27</ele><time>2022-01-03T20:03:17Z</time></trkpt>
<trkpt lat="39.806139" lon="9.390956"><ele>835.95</ele><time>2022-01-03T20:03:19Z</time></trkpt>
<trkpt lat="39.806341" lon="9.39049"><ele>838.86</ele><time>2022-01-03T20:03:21Z</time></trkpt>
<trkpt lat="39.806958" lon="9.389514"><ele>836.17</ele><time>2022-01-03T20:03:22Z</time></trkpt>
<trkpt lat="39.807017" lon="9.389446"><ele>836.46</ele><time>2022-01-03T20:03:24Z</time></trkpt>
<trkpt lat="39.807137" lon="9.389397"><ele>836.19</ele><time>2022-01-03T20:03:26Z</time></trkpt>
<trkpt lat="39.807201" lon="9.389416"><ele>835.55</ele><time>2022-01-03T20:03:27Z</time></trkpt>
<trkpt lat="39.807275" lon="9.389534"><ele>834.93</ele><time>2022-01-03T20:03:29Z</time></trkpt>
<trkpt lat="39.807296" lon="9.389723"><ele>833.79</ele><time>2022-01-03T20:03:31Z</time></trkpt>
<trkpt lat="39.807301" lon="9.389974"><ele>831.39</ele><time>2022-01-03T20:03:32Z</time></trkpt>
<trkpt lat="39.807271" lon="9.390171"><ele>829.57</ele><time>2022-01-03T20:03:34Z</time></trkpt>
<trkpt lat="39.807094" lon="9.39065"><ele>825.1</ele><time>2022-01-03T20:03:36Z</time></trkpt>
<trkpt lat="39.807062" lon="9.390867"><ele>822.01</ele><time>2022-01-03T20:03:37Z</time></trkpt>
<trkpt lat="39.807072" lon="9.391015"><ele>819.85</ele><time>2022-01-03T20:03:39Z</time></trkpt>
<trkpt lat="39.807118" lon="9.391167"><ele>817.85</ele><time>2022-01-03T20:03:41Z</time></trkpt>
<trkpt lat="39.80717" lon="9.391259"><ele>816.53</ele><time>2022-01-03T20:03:42Z</time></trkpt>
<trkpt lat="39.80722" lon="9.39129"><ele>816.48</ele><time>2022-01-03T20:03:44Z</time></trkpt>
<trkpt lat="39.8073" lon="9.391293"><ele>817.26</ele><time>2022-01-03T20:03:46Z</time></trkpt>
<trkpt lat="39.80754" lon="9.391225"><ele>821.32</ele><time>2022-01-03T20:03:47Z</time></trkpt>
<trkpt lat="39.80773" lon="9.391141"><ele>821.61</ele><time>2022-01-03T20:03:49Z</time></trkpt>
<trkpt lat="39.807806" lon="9.391083"><ele>821.58</ele><time>2022-01-03T20:03:51Z</time></trkpt>
<trkpt lat="39.808045" lon="9.390757"><ele>821.0</ele><time>2022-01-03T20:03:52Z</time></trkpt>
<trkpt lat="39.808192" lon="9.390448"><ele>819.39</ele><time>2022-01-03T20:03:54Z</time></trkpt>
<trkpt lat="39.808245" lon="9.390267"><ele>818.15</ele><time>2022-01-03T20:03:56Z</time></trkpt>
<trkpt lat="39.808304" lon="9.389955"><ele>816.13</ele><time>2022-01-03T20:03:57Z</time></trkpt>
<trkpt lat="39.808383" lon="9.389704"><ele>812.77</ele><time>2022-01-03T20:03:59Z</time></trkpt>
<trkpt lat="39.80842" lon="9.389627"><ele>812.43</ele><time>2022-01-03T20:04:01Z</time></trkpt>
<trkpt lat="39.808602" lon="9.389384"><ele>809.59</ele><time>2022-01-03T20:04:02Z</time></trkpt>
<trkpt lat="39.808856" lon="9.388927"><ele>812.84</ele><time>2022-01-03T20:04:04Z</time></trkpt>
<trkpt lat="39.808942" lon="9.38884"><ele>812.67</ele><time>2022-01-03T20:04:06Z</time></trkpt>
<trkpt lat="39.809068" lon="9.388768"><ele>810.62</ele><time>2022-01-03T20:04:07Z</time></trkpt>
<trkpt lat="39.809902" lon="9.38834"><ele>800.91</ele><time>2022-01-03T20:04:09Z</time></trkpt>
<trkpt lat="39.810193" lon="9.388085"><ele>800.31</ele><time>2022-01-03T20:04:11Z</time></trkpt>
<trkpt lat="39.810553" lon="9.387877"><ele>795.51</ele><time>2022-01-03T20:04:12Z</time></trkpt>
<trkpt lat="39.811248" lon="9.387388"><ele>789.57</ele><time>2022-01-03T20:04:14Z</time></trkpt>
<trkpt lat="39.811468" lon="9.387185"><ele>789.55</ele><time>2022-01-03T20:04:16Z</time></trkpt>
<trkpt lat="39.811668" lon="9.386844"><ele>790.69</ele><time>2022-01-03T20:04:17Z</time></trkpt>
<trkpt lat="39.811758" lon="9.386718"><ele>789.6</ele><time>2022-01-03T20:04:19Z</time></trkpt>
<trkpt lat="39.811789" lon="9.386698"><ele>789.08</ele><time>2022-01-03T20:04:21Z</time></trkpt>
<trkpt lat="39.811841" lon="9.386696"><ele>787.96</ele><time>2022-01-03T20:04:22Z</time></trkpt>
<trkpt lat="39.811891" lon="9.386764"><ele>786.16</ele><time>2022-01-03T20:04:24Z</time></trkpt>
<trkpt lat="39.811898" lon="9.38683"><ele>785.33</ele><time>2022-01-03T20:04:26Z</time></trkpt>
<trkpt lat="39.81187" lon="9.386925"><ele>785.06</ele><time>2022-01-03T20:04:27Z</time></trkpt>
<trkpt lat="39.811542" lon="9.38743"><ele>781.01</ele><time>2022-01-03T20:04:29Z</time></trkpt>
<trkpt lat="39.811376" lon="9.387631"><ele>780.01</ele><time>2022-01-03T20:04:31Z</time></trkpt>
<trkpt lat="39.810885" lon="9.388058"><ele>780.81</ele><time>2022-01-03T20:04:32Z</time></trkpt>
<trkpt lat="39.810816" lon="9.388152"><ele>779.98</ele><time>2022-01-03T20:04:34Z</time></trkpt>
<trkpt lat="39.810646" lon="9.388525"><ele>773.74</ele><time>2022-01-03T20:04:36Z</time></trkpt>
<trkpt lat="39.810369" lon="9.38876"><ele>774.38</ele><time>2022-01-03T20:04:37Z</time></trkpt>
<trkpt lat="39.810291" lon="9.388853"><ele>773.76</ele><time>2022-01-03T20:04:39Z</time></trkpt>
<trkpt lat="39.81024" lon="9.388963"><ele>772.22</ele><time>2022-01-03T20:04:41Z</time></trkpt>
<trkpt lat="39.809953" lon="9.39014"><ele>764.39</ele><time>2022-01-03T20:04:42Z</time></trkpt>
<trkpt lat="39.809907" lon="9.390254"><ele>763.41</ele><time>2022-01-03T20:04:44Z</time></trkpt>
<trkpt lat="39.809829" lon="9.390396"><ele>761.27</ele><time>2022-01-03T20:04:46Z</time></trkpt>
<trkpt lat="39.809466" lon="9.390727"><ele>760.89</ele><time>2022-01-03T20:04:47Z</time></trkpt>
<trkpt lat="39.809245" lon="9.391036"><ele>758.84</ele><time>2022-01-03T20:04:49Z</time></trkpt>
<trkpt lat="39.809031" lon="9.391401"><ele>757.21</ele><time>2022-01-03T20:04:51Z</time></trkpt>
<trkpt lat="39.808941" lon="9.391601"><ele>756.65</ele><time>2022-01-03T20:04:52Z</time></trkpt>
<trkpt lat="39.808906" lon="9.391746"><ele>755.4</ele><time>2022-01-03T20:04:54Z</time></trkpt>
<trkpt lat="39.808867" lon="9.392496"><ele>748.43</ele><time>2022-01-03T20:04:56Z</time></trkpt>
<trkpt lat="39.80883" lon="9.39269"><ele>747.84</ele><time>2022-01-03T20:04:57Z</time></trkpt>
<trkpt lat="39.80871" lon="9.392952"><ele>748.62</ele><time>2022-01-03T20:04:59Z</time></trkpt>
<trkpt lat="39.80886" lon="9.392825"><ele>746.28</ele><time>2022-01-03T20:05:02Z</time></trkpt>
<trkpt lat="39.808909" lon="9.392817"><ele>745.36</ele><time>2022-01-03T20:05:06Z</time></trkpt>
<trkpt lat="39.809129" lon="9.392831"><ele>741.3</ele><time>2022-01-03T20:05:09Z</time></trkpt>
<trkpt lat="39.809385" lon="9.392874"><ele>735.87</ele><time>2022-01-03T20:05:12Z</time></trkpt>
<trkpt lat="39.809514" lon="9.392869"><ele>731.82</ele><time>2022-01-03T20:05:15Z</time></trkpt>
<trkpt lat="39.809666" lon="9.392807"><ele>726.02</ele><time>2022-01-03T20:05:18Z</time></trkpt>
<trkpt lat="39.809704" lon="9.392981"><ele>723.29</ele><time>2022-01-03T20:05:21Z</time></trkpt>
<trkpt lat="39.809718" lon="9.393245"><ele>720.12</ele><time>2022-01-03T20:05:23Z</time></trkpt>
<trkpt lat="39.809742" lon="9.393353"><ele>717.88</ele><time>2022-01-03T20:05:26Z</time></trkpt>
<trkpt lat="39.809838" lon="9.393209"><ele>715.56</ele><time>2022-01-03T20:05:29Z</time></trkpt>
<trkpt lat="39.809995" lon="9.393085"><ele>709.99</ele><time>2022-01-03T20:05:32Z</time></trkpt>
<trkpt lat="39.810185" lon="9.393107"><ele>707.09</ele><time>2022-01-03T20:05:37Z</time></trkpt>
<trkpt lat="39.810317" lon="9.393074"><ele>705.52</ele><time>2022-01-03T20:05:41Z</time></trkpt>
<trkpt lat="39.810572" lon="9.392956"><ele>703.1</ele><time>2022-01-03T20:05:45Z</time></trkpt>
<trkpt lat="39.810885" lon="9.393031"><ele>698.25</ele><time>2022-01-03T20:05:49Z</time></trkpt>
<trkpt lat="39.811122" lon="9.392465"><ele>695.93</ele><time>2022-01-03T20:05:51Z</time></trkpt>
<trkpt lat="39.811216" lon="9.39231"><ele>695.06</ele><time>2022-01-03T20:05:52Z</time></trkpt>
<trkpt lat="39.81133" lon="9.392184"><ele>694.12</ele><time>2022-01-03T20:05:54Z</time></trkpt>
<trkpt lat="39.811561" lon="9.39198"><ele>692.11</ele><time>2022-01-03T20:05:55Z</time></trkpt>
<trkpt lat="39.811775" lon="9.391723"><ele>691.67</ele><time>2022-01-03T20:05:57Z</time></trkpt>
<trkpt lat="39.811841" lon="9.39169"><ele>691.12</ele><time>2022-01-03T20:05:58Z</time></trkpt>
<trkpt lat="39.811948" lon="9.39169"><ele>689.5</ele><time>2022-01-03T20:06:00Z</time></trkpt>
<trkpt lat="39.812064" lon="9.391723"><ele>686.67</ele><time>2022-01-03T20:06:02Z</time></trkpt>
<trkpt lat="39.812206" lon="9.391642"><ele>685.75</ele><time>2022-01-03T20:06:03Z</time></trkpt>
<trkpt lat="39.8125" lon="9.39133"><ele>686.27</ele><time>2022-01-03T20:06:05Z</time></trkpt>
<trkpt lat="39.81279" lon="9.391231"><ele>683.57</ele><time>2022-01-03T20:06:06Z</time></trkpt>
<trkpt lat="39.812946" lon="9.391154"><ele>681.19</ele><time>2022-01-03T20:06:08Z</time></trkpt>
<trkpt lat="39.813061" lon="9.391031"><ele>679.65</ele><time>2022-01-03T20:06:09Z</time></trkpt>
<trkpt lat="39.813086" lon="9.390886"><ele>680.07</ele><time>2022-01-03T20:06:11Z</time></trkpt>
<trkpt lat="39.813068" lon="9.39063"><ele>680.74</ele><time>2022-01-03T20:06:12Z</time></trkpt>
<trkpt lat="39.813086" lon="9.390405"><ele>680.15</ele><time>2022-01-03T20:06:14Z</time></trkpt>
<trkpt lat="39.813143" lon="9.390242"><ele>678.12</ele><time>2022-01-03T20:06:15Z</time></trkpt>
<trkpt lat="39.81332" lon="9.389893"><ele>679.29</ele><time>2022-01-03T20:06:17Z</time></trkpt>
<trkpt lat="39.813438" lon="9.389781"><ele>681.64</ele><time>2022-01-03T20:06:18Z</time></trkpt>
<trkpt lat="39.813506" lon="9.389759"><ele>681.93</ele><time>2022-01-03T20:06:20Z</time></trkpt>
<trkpt lat="39.813734" lon="9.389767"><ele>680.48</ele><time>2022-01-03T20:06:21Z</time></trkpt>
<trkpt lat="39.813831" lon="9.389797"><ele>679.4</ele><time>2022-01-03T20:06:23Z</time></trkpt>
<trkpt lat="39.813943" lon="9.389845"><ele>678.82</ele><time>2022-01-03T20:06:25Z</time></trkpt>
<trkpt lat="39.814346" lon="9.39016"><ele>672.27</ele><time>2022-01-03T20:06:26Z</time></trkpt>
<trkpt lat="39.814552" lon="9.390219"><ele>672.15</ele><time>2022-01-03T20:06:28Z</time></trkpt>
<trkpt lat="39.814704" lon="9.390233"><ele>672.38</ele><time>2022-01-03T20:06:29Z</time></trkpt>
<trkpt lat="39.814858" lon="9.39022"><ele>672.27</ele><time>2022-01-03T20:06:31Z</time></trkpt>
<trkpt lat="39.815133" lon="9.390163"><ele>671.99</ele><time>2022-01-03T20:06:32Z</time></trkpt>
<trkpt lat="39.815442" lon="9.39015"><ele>667.84</ele><time>2022-01-03T20:06:34Z</time></trkpt>
<trkpt lat="39.815555" lon="9.390114"><ele>666.91</ele><time>2022-01-03T20:06:35Z</time></trkpt>
<trkpt lat="39.815649" lon="9.39007"><ele>667.64</ele><time>2022-01-03T20:06:37Z</time></trkpt>
<trkpt lat="39.815852" lon="9.389851"><ele>671.85</ele><time>2022-01-03T20:06:38Z</time></trkpt>
<trkpt lat="39.815922" lon="9.389818"><ele>672.91</ele><time>2022-01-03T20:06:40Z</time></trkpt>
<trkpt lat="39.815983" lon="9.38982"><ele>673.11</ele><time>2022-01-03T20:06:41Z</time></trkpt>
<trkpt lat="39.816136" lon="9.38993"><ele>672.9</ele><time>2022-01-03T20:06:43Z</time></trkpt>
<trkpt lat="39.81618" lon="9.39"><ele>673.24</ele><time>2022-01-03T20:06:44Z</time></trkpt>
<trkpt lat="39.81625" lon="9.390354"><ele>672.31</ele><time>2022-01-03T20:06:46Z</time></trkpt>
<trkpt lat="39.816249" lon="9.390436"><ele>671.53</ele><time>2022-01-03T20:06:47Z</time></trkpt>
<trkpt lat="39.816209" lon="9.390622"><ele>667.13</ele><time>2022-01-03T20:06:49Z</time></trkpt>
<trkpt lat="39.816209" lon="9.39076"><ele>663.5</ele><time>2022-01-03T20:06:51Z</time></trkpt>
<trkpt lat="39.816235" lon="9.390872"><ele>661.85</ele><time>2022-01-03T20:06:52Z</time></trkpt>
<trkpt lat="39.816249" lon="9.39108"><ele>658.13</ele><time>2022-01-03T20:06:54Z</time></trkpt>
<trkpt lat="39.816211" lon="9.391169"><ele>656.49</ele><time>2022-01-03T20:06:55Z</time></trkpt>
<trkpt lat="39.816035" lon="9.391424"><ele>651.04</ele><time>2022-01-03T20:06:57Z</time></trkpt>
<trkpt lat="39.815987" lon="9.391549"><ele>648.57</ele><time>2022-01-03T20:06:58Z</time></trkpt>
<trkpt lat="39.815789" lon="9.392391"><ele>648.86</ele><time>2022-01-03T20:07:00Z</time></trkpt>
<trkpt lat="39.815677" lon="9.392773"><ele>646.37</ele><time>2022-01-03T20:07:01Z</time></trkpt>
<trkpt lat="39.815655" lon="9.392923"><ele>645.24</ele><time>2022-01-03T20:07:03Z</time></trkpt>
<trkpt lat="39.815764" lon="9.393949"><ele>638.51</ele><time>2022-01-03T20:07:04Z</time></trkpt>
<trkpt lat="39.815811" lon="9.394123"><ele>637.8</ele><time>2022-01-03T20:07:06Z</time></trkpt>
<trkpt lat="39.815928" lon="9.394374"><ele>641.6</ele><time>2022-01-03T20:07:07Z</time></trkpt>
<trkpt lat="39.81597" lon="9.394581"><ele>644.12</ele><time>2022-01-03T20:07:09Z</time></trkpt>
<trkpt lat="39.815949" lon="9.394704"><ele>643.74</ele><time>2022-01-03T20:07:10Z</time></trkpt>
<trkpt lat="39.815536" lon="9.395941"><ele>636.98</ele><time>2022-01-03T20:07:12Z</time></trkpt>
<trkpt lat="39.815321" lon="9.396364"><ele>632.46</ele><time>2022-01-03T20:07:13Z</time></trkpt>
<trkpt lat="39.815249" lon="9.396529"><ele>631.69</ele><time>2022-01-03T20:07:15Z</time></trkpt>
<trkpt lat="39.815225" lon="9.396642"><ele>632.95</ele><time>2022-01-03T20:07:17Z</time></trkpt>
<trkpt lat="39.815215" lon="9.396749"><ele>634.38</ele><time>2022-01-03T20:07:18Z</time></trkpt>
<trkpt lat="39.815225" lon="9.397042"><ele>639.05</ele><time>2022-01-03T20:07:20Z</time></trkpt>
<trkpt lat="39.815177" lon="9.397338"><ele>637.29</ele><time>2022-01-03T20:07:21Z</time></trkpt>
<trkpt lat="39.815186" lon="9.397711"><ele>639.83</ele><time>2022-01-03T20:07:23Z</time></trkpt>
<trkpt lat="39.81508" lon="9.399247"><ele>627.64</ele><time>2022-01-03T20:07:24Z</time></trkpt>
<trkpt lat="39.815105" lon="9.39938"><ele>626.34</ele><time>2022-01-03T20:07:26Z</time></trkpt>
<trkpt lat="39.815215" lon="9.399688"><ele>626.98</ele><time>2022-01-03T20:07:27Z</time></trkpt>
<trkpt lat="39.815269" lon="9.399802"><ele>628.08</ele><time>2022-01-03T20:07:29Z</time></trkpt>
<trkpt lat="39.815665" lon="9.40037"><ele>624.5</ele><time>2022-01-03T20:07:30Z</time></trkpt>
<trkpt lat="39.815781" lon="9.400477"><ele>624.73</ele><time>2022-01-03T20:07:32Z</time></trkpt>
<trkpt lat="39.816077" lon="9.400661"><ele>627.91</ele><time>2022-01-03T20:07:33Z</time></trkpt>
<trkpt lat="39.816137" lon="9.400728"><ele>628.2</ele><time>2022-01-03T20:07:35Z</time></trkpt>
<trkpt lat="39.816204" lon="9.400862"><ele>626.57</ele><time>2022-01-03T20:07:36Z</time></trkpt>
<trkpt lat="39.816337" lon="9.401248"><ele>617.79</ele><time>2022-01-03T20:07:38Z</time></trkpt>
<trkpt lat="39.816433" lon="9.401394"><ele>617.57</ele><time>2022-01-03T20:07:39Z</time></trkpt>
<trkpt lat="39.816683" lon="9.401693"><ele>619.13</ele><time>2022-01-03T20:07:41Z</time></trkpt>
<trkpt lat="39.816778" lon="9.401964"><ele>616.99</ele><time>2022-01-03T20:07:43Z</time></trkpt>
<trkpt lat="39.816814" lon="9.402119"><ele>615.46</ele><time>2022-01-03T20:07:44Z</time></trkpt>
<trkpt lat="39.816827" lon="9.402259"><ele>613.37</ele><time>2022-01-03T20:07:46Z</time></trkpt>
<trkpt lat="39.816784" lon="9.402564"><ele>605.4</ele><time>2022-01-03T20:07:47Z</time></trkpt>
<trkpt lat="39.816781" lon="9.402667"><ele>603.8</ele><time>2022-01-03T20:07:49Z</time></trkpt>
<trkpt lat="39.816805" lon="9.402769"><ele>603.62</ele><time>2022-01-03T20:07:50Z</time></trkpt>
<trkpt lat="39.816945" lon="9.403094"><ele>607.6</ele><time>2022-01-03T20:07:52Z</time></trkpt>
<trkpt lat="39.816963" lon="9.403256"><ele>606.69</ele><time>2022-01-03T20:07:53Z</time></trkpt>
<trkpt lat="39.816965" lon="9.404093"><ele>598.32</ele><time>2022-01-03T20:07:55Z</time></trkpt>
<trkpt lat="39.816981" lon="9.404224"><ele>598.22</ele><time>2022-01-03T20:07:56Z</time></trkpt>
<trkpt lat="39.817012" lon="9.404293"><ele>597.96</ele><time>2022-01-03T20:07:58Z</time></trkpt>
<trkpt lat="39.817124" lon="9.404372"><ele>600.67</ele><time>2022-01-03T20:07:59Z</time></trkpt>
<trkpt lat="39.817636" lon="9.404537"><ele>602.52</ele><time>2022-01-03T20:08:01Z</time></trkpt>
<trkpt lat="39.817878" lon="9.404541"><ele>601.03</ele><time>2022-01-03T20:08:02Z</time></trkpt>
<trkpt lat="39.817964" lon="9.404522"><ele>600.85</ele><time>2022-01-03T20:08:04Z</time></trkpt>
<trkpt lat="39.818065" lon="9.404471"><ele>601.07</ele><time>2022-01-03T20:08:05Z</time></trkpt>
<trkpt lat="39.818277" lon="9.404294"><ele>598.74</ele><time>2022-01-03T20:08:07Z</time></trkpt>
<trkpt lat="39.818376" lon="9.404251"><ele>597.37</ele><time>2022-01-03T20:08:09Z</time></trkpt>
<trkpt lat="39.818558" lon="9.404222"><ele>594.62</ele><time>2022-01-03T20:08:10Z</time></trkpt>
<trkpt lat="39.818624" lon="9.404186"><ele>594.16</ele><time>2022-01-03T20:08:12Z</time></trkpt>
<trkpt lat="39.818838" lon="9.403973"><ele>593.65</ele><time>2022-01-03T20:08:13Z</time></trkpt>
<trkpt lat="39.818953" lon="9.403924"><ele>592.38</ele><time>2022-01-03T20:08:15Z</time></trkpt>
<trkpt lat="39.819263" lon="9.403891"><ele>586.9</ele><time>2022-01-03T20:08:16Z</time></trkpt>
<trkpt lat="39.819606" lon="9.403683"><ele>586.7</ele><time>2022-01-03T20:08:18Z</time></trkpt>
<trkpt lat="39.820106" lon="9.403622"><ele>581.57</ele><time>2022-01-03T20:08:19Z</time></trkpt>
<trkpt lat="39.820302" lon="9.403552"><ele>584.97</ele><time>2022-01-03T20:08:21Z</time></trkpt>
<trkpt lat="39.820566" lon="9.403533"><ele>587.4</ele><time>2022-01-03T20:08:22Z</time></trkpt>
<trkpt lat="39.820692" lon="9.403567"><ele>584.54</ele><time>2022-01-03T20:08:24Z</time></trkpt>
<trkpt lat="39.82084" lon="9.403642"><ele>580.0</ele><time>2022-01-03T20:08:25Z</time></trkpt>
<trkpt lat="39.821388" lon="9.404019"><ele>573.65</ele><time>2022-01-03T20:08:27Z</time></trkpt>
<trkpt lat="39.821462" lon="9.404099"><ele>573.8</ele><time>2022-01-03T20:08:28Z</time></trkpt>
<trkpt lat="39.821624" lon="9.404421"><ele>572.55</ele><time>2022-01-03T20:08:30Z</time></trkpt>
<trkpt lat="39.82172" lon="9.404516"><ele>571.42</ele><time>2022-01-03T20:08:31Z</time></trkpt>
<trkpt lat="39.822232" lon="9.404857"><ele>567.72</ele><time>2022-01-03T20:08:33Z</time></trkpt>
<trkpt lat="39.822465" lon="9.404952"><ele>566.07</ele><time>2022-01-03T20:08:35Z</time></trkpt>
<trkpt lat="39.822871" lon="9.404934"><ele>560.84</ele><time>2022-01-03T20:08:36Z</time></trkpt>
<trkpt lat="39.823268" lon="9.404891"><ele>558.65</ele><time>2022-01-03T20:08:38Z</time></trkpt>
<trkpt lat="39.823932" lon="9.404711"><ele>552.15</ele><time>2022-01-03T20:08:39Z</time></trkpt>
<trkpt lat="39.824329" lon="9.40469"><ele>547.36</ele><time>2022-01-03T20:08:41Z</time></trkpt>
<trkpt lat="39.824416" lon="9.404649"><ele>546.48</ele><time>2022-01-03T20:08:42Z</time></trkpt>
<trkpt lat="39.824833" lon="9.404182"><ele>546.36</ele><time>2022-01-03T20:08:44Z</time></trkpt>
<trkpt lat="39.825058" lon="9.403844"><ele>546.46</ele><time>2022-01-03T20:08:45Z</time></trkpt>
<trkpt lat="39.825132" lon="9.403785"><ele>547.12</ele><time>2022-01-03T20:08:47Z</time></trkpt>
<trkpt lat="39.825238" lon="9.403798"><ele>547.83</ele><time>2022-01-03T20:08:48Z</time></trkpt>
<trkpt lat="39.825333" lon="9.403919"><ele>547.72</ele><time>2022-01-03T20:08:50Z</time></trkpt>
<trkpt lat="39.825421" lon="9.404247"><ele>541.54</ele><time>2022-01-03T20:08:51Z</time></trkpt>
<trkpt lat="39.825473" lon="9.404352"><ele>539.58</ele><time>2022-01-03T20:08:53Z</time></trkpt>
<trkpt lat="39.825634" lon="9.404481"><ele>539.27</ele><time>2022-01-03T20:08:54Z</time></trkpt>
<trkpt lat="39.825809" lon="9.40477"><ele>537.77</ele><time>2022-01-03T20:08:56Z</time></trkpt>
<trkpt lat="39.825915" lon="9.404994"><ele>535.09</ele><time>2022-01-03T20:08:58Z</time></trkpt>
<trkpt lat="39.826011" lon="9.405375"><ele>529.84</ele><time>2022-01-03T20:08:59Z</time></trkpt>
<trkpt lat="39.826085" lon="9.40552"><ele>528.27</ele><time>2022-01-03T20:09:01Z</time></trkpt>
<trkpt lat="39.826179" lon="9.405627"><ele>526.69</ele><time>2022-01-03T20:09:02Z</time></trkpt>
<trkpt lat="39.826261" lon="9.405671"><ele>526.16</ele><time>2022-01-03T20:09:04Z</time></trkpt>
<trkpt lat="39.826336" lon="9.405681"><ele>526.47</ele><time>2022-01-03T20:09:05Z</time></trkpt>
<trkpt lat="39.826416" lon="9.405655"><ele>526.66</ele><time>2022-01-03T20:09:07Z</time></trkpt>
<trkpt lat="39.826517" lon="9.405569"><ele>525.53</ele><time>2022-01-03T20:09:08Z</time></trkpt>
<trkpt lat="39.826606" lon="9.405457"><ele>527.45</ele><time>2022-01-03T20:09:10Z</time></trkpt>
<trkpt lat="39.826777" lon="9.405289"><ele>532.05</ele><time>2022-01-03T20:09:11Z</time></trkpt>
<trkpt lat="39.82694" lon="9.405182"><ele>533.91</ele><time>2022-01-03T20:09:13Z</time></trkpt>
<trkpt lat="39.827056" lon="9.405161"><ele>532.08</ele><time>2022-01-03T20:09:14Z</time></trkpt>
<trkpt lat="39.827729" lon="9.405183"><ele>519.04</ele><time>2022-01-03T20:09:16Z</time></trkpt>
<trkpt lat="39.827806" lon="9.405176"><ele>519.24</ele><time>2022-01-03T20:09:17Z</time></trkpt>
<trkpt lat="39.828013" lon="9.405105"><ele>523.52</ele><time>2022-01-03T20:09:19Z</time></trkpt>
<trkpt lat="39.828085" lon="9.405111"><ele>523.7</ele><time>2022-01-03T20:09:20Z</time></trkpt>
<trkpt lat="39.828143" lon="9.405138"><ele>522.7</ele><time>2022-01-03T20:09:22Z</time></trkpt>
<trkpt lat="39.828341" lon="9.405333"><ele>514.37</ele><time>2022-01-03T20:09:24Z</time></trkpt>
<trkpt lat="39.828606" lon="9.405443"><ele>509.86</ele><time>2022-01-03T20:09:25Z</time></trkpt>
<trkpt lat="39.82889" lon="9.405492"><ele>509.86</ele><time>2022-01-03T20:09:27Z</time></trkpt>
<trkpt lat="39.829264" lon="9.405519"><ele>512.76</ele><time>2022-01-03T20:09:28Z</time></trkpt>
<trkpt lat="39.829342" lon="9.405565"><ele>512.01</ele><time>2022-01-03T20:09:30Z</time></trkpt>
<trkpt lat="39.829523" lon="9.405738"><ele>508.03</ele><time>2022-01-03T20:09:31Z</time></trkpt>
<trkpt lat="39.829674" lon="9.405817"><ele>505.55</ele><time>2022-01-03T20:09:33Z</time></trkpt>
<trkpt lat="39.829903" lon="9.405745"><ele>504.95</ele><time>2022-01-03T20:09:34Z</time></trkpt>
<trkpt lat="39.829977" lon="9.405758"><ele>504.22</ele><time>2022-01-03T20:09:36Z</time></trkpt>
<trkpt lat="39.830032" lon="9.405793"><ele>503.61</ele><time>2022-01-03T20:09:37Z</time></trkpt>
<trkpt lat="39.830083" lon="9.40586"><ele>502.8</ele><time>2022-01-03T20:09:39Z</time></trkpt>
<trkpt lat="39.830104" lon="9.405943"><ele>502.73</ele><time>2022-01-03T20:09:40Z</time></trkpt>
<trkpt lat="39.830088" lon="9.406279"><ele>500.36</ele><time>2022-01-03T20:09:42Z</time></trkpt>
<trkpt lat="39.830158" lon="9.406435"><ele>498.64</ele><time>2022-01-03T20:09:43Z</time></trkpt>
<trkpt lat="39.830218" lon="9.406466"><ele>498.18</ele><time>2022-01-03T20:09:45Z</time></trkpt>
<trkpt lat="39.83031" lon="9.406481"><ele>497.98</ele><time>2022-01-03T20:09:46Z</time></trkpt>
<trkpt lat="39.830706" lon="9.406438"><ele>498.06</ele><time>2022-01-03T20:09:48Z</time></trkpt>
<trkpt lat="39.830812" lon="9.406462"><ele>497.29</ele><time>2022-01-03T20:09:50Z</time></trkpt>
<trkpt lat="39.83086" lon="9.406496"><ele>496.69</ele><time>2022-01-03T20:09:51Z</time></trkpt>
<trkpt lat="39.831157" lon="9.40682"><ele>494.94</ele><time>2022-01-03T20:09:53Z</time></trkpt>
<trkpt lat="39.83141" lon="9.407098"><ele>499.38</ele><time>2022-01-03T20:09:54Z</time></trkpt>
<trkpt lat="39.831497" lon="9.407157"><ele>500.83</ele><time>2022-01-03T20:09:56Z</time></trkpt>
<trkpt lat="39.831806" lon="9.407227"><ele>501.61</ele><time>2022-01-03T20:09:57Z</time></trkpt>
<trkpt lat="39.831859" lon="9.407274"><ele>502.46</ele><time>2022-01-03T20:09:59Z</time></trkpt>
<trkpt lat="39.831898" lon="9.40735"><ele>503.77</ele><time>2022-01-03T20:10:00Z</time></trkpt>
<trkpt lat="39.83194" lon="9.407513"><ele>506.26</ele><time>2022-01-03T20:10:02Z</time></trkpt>
<trkpt lat="39.831988" lon="9.407798"><ele>509.15</ele><time>2022-01-03T20:10:03Z</time></trkpt>
<trkpt lat="39.832003" lon="9.40824"><ele>513.27</ele><time>2022-01-03T20:10:05Z</time></trkpt>
<trkpt lat="39.831987" lon="9.408393"><ele>513.41</ele><time>2022-01-03T20:10:06Z</time></trkpt>
<trkpt lat="39.831855" lon="9.408783"><ele>511.08</ele><time>2022-01-03T20:10:08Z</time></trkpt>
<trkpt lat="39.83164" lon="9.409042"><ele>514.3</ele><time>2022-01-03T20:10:09Z</time></trkpt>
<trkpt lat="39.831582" lon="9.409135"><ele>515.85</ele><time>2022-01-03T20:10:11Z</time></trkpt>
<trkpt lat="39.831511" lon="9.409339"><ele>518.83</ele><time>2022-01-03T20:10:12Z</time></trkpt>
<trkpt lat="39.831476" lon="9.409524"><ele>521.23</ele><time>2022-01-03T20:10:14Z</time></trkpt>
<trkpt lat="39.831461" lon="9.409812"><ele>522.8</ele><time>2022-01-03T20:10:16Z</time></trkpt>
<trkpt lat="39.831519" lon="9.410142"><ele>521.59</ele><time>2022-01-03T20:10:17Z</time></trkpt>
<trkpt lat="39.831524" lon="9.410468"><ele>523.84</ele><time>2022-01-03T20:10:19Z</time></trkpt>
<trkpt lat="39.83149" lon="9.410642"><ele>526.03</ele><time>2022-01-03T20:10:20Z</time></trkpt>
<trkpt lat="39.831319" lon="9.410999"><ele>532.97</ele><time>2022-01-03T20:10:22Z</time></trkpt>
<trkpt lat="39.831259" lon="9.411198"><ele>535.53</ele><time>2022-01-03T20:10:23Z</time></trkpt>
<trkpt lat="39.83128" lon="9.411292"><ele>535.18</ele><time>2022-01-03T20:10:25Z</time></trkpt>
<trkpt lat="39.831316" lon="9.411361"><ele>534.25</ele><time>2022-01-03T20:10:26Z</time></trkpt>
<trkpt lat="39.831513" lon="9.411554"><ele>530.52</ele><time>2022-01-03T20:10:28Z</time></trkpt>
<trkpt lat="39.831544" lon="9.411603"><ele>530.2</ele><time>2022-01-03T20:10:29Z</time></trkpt>
<trkpt lat="39.831578" lon="9.411718"><ele>530.48</ele><time>2022-01-03T20:10:31Z</time></trkpt>
<trkpt lat="39.831581" lon="9.411865"><ele>532.16</ele><time>2022-01-03T20:10:32Z</time></trkpt>
<trkpt lat="39.831536" lon="9.412371"><ele>537.4</ele><time>2022-01-03T20:10:34Z</time></trkpt>
<trkpt lat="39.83153" lon="9.412596"><ele>541.31</ele><time>2022-01-03T20:10:35Z</time></trkpt>
<trkpt lat="39.831552" lon="9.412834"><ele>546.11</ele><time>2022-01-03T20:10:37Z</time></trkpt>
<trkpt lat="39.831581" lon="9.412973"><ele>548.01</ele><time>2022-01-03T20:10:38Z</time></trkpt>
<trkpt lat="39.831766" lon="9.413435"><ele>547.83</ele><time>2022-01-03T20:10:40Z</time></trkpt>
<trkpt lat="39.83187" lon="9.413791"><ele>546.08</ele><time>2022-01-03T20:10:42Z</time></trkpt>
<trkpt lat="39.831873" lon="9.413888"><ele>547.1</ele><time>2022-01-03T20:10:43Z</time></trkpt>
<trkpt lat="39.831852" lon="9.413953"><ele>549.71</ele><time>2022-01-03T20:10:45Z</time></trkpt>
<trkpt lat="39.831774" lon="9.414001"><ele>554.54</ele><time>2022-01-03T20:10:46Z</time></trkpt>
<trkpt lat="39.831696" lon="9.41395"><ele>557.88</ele><time>2022-01-03T20:10:48Z</time></trkpt>
<trkpt lat="39.831555" lon="9.413415"><ele>559.11</ele><time>2022-01-03T20:10:49Z</time></trkpt>
<trkpt lat="39.83122" lon="9.412415"><ele>552.7</ele><time>2022-01-03T20:10:51Z</time></trkpt>
<trkpt lat="39.831139" lon="9.412238"><ele>552.31</ele><time>2022-01-03T20:10:52Z</time></trkpt>
<trkpt lat="39.831059" lon="9.412183"><ele>554.24</ele><time>2022-01-03T20:10:54Z</time></trkpt>
<trkpt lat="39.830663" lon="9.412017"><ele>564.55</ele><time>2022-01-03T20:10:55Z</time></trkpt>
<trkpt lat="39.830582" lon="9.411965"><ele>566.43</ele><time>2022-01-03T20:10:57Z</time></trkpt>
<trkpt lat="39.830524" lon="9.411898"><ele>567.74</ele><time>2022-01-03T20:10:58Z</time></trkpt>
<trkpt lat="39.830497" lon="9.411839"><ele>568.36</ele><time>2022-01-03T20:11:00Z</time></trkpt>
<trkpt lat="39.830489" lon="9.411657"><ele>567.62</ele><time>2022-01-03T20:11:01Z</time></trkpt>
<trkpt lat="39.830607" lon="9.411204"><ele>561.4</ele><time>2022-01-03T20:11:03Z</time></trkpt>
<trkpt lat="39.830607" lon="9.411091"><ele>561.41</ele><time>2022-01-03T20:11:04Z</time></trkpt>
<trkpt lat="39.830545" lon="9.410356"><ele>567.92</ele><time>2022-01-03T20:11:06Z</time></trkpt>
<trkpt lat="39.83051" lon="9.410167"><ele>570.6</ele><time>2022-01-03T20:11:08Z</time></trkpt>
<trkpt lat="39.830396" lon="9.409793"><ele>570.77</ele><time>2022-01-03T20:11:09Z</time></trkpt>
<trkpt lat="39.830341" lon="9.409704"><ele>570.28</ele><time>2022-01-03T20:11:11Z</time></trkpt>
<trkpt lat="39.830184" lon="9.409586"><ele>570.42</ele><time>2022-01-03T20:11:12Z</time></trkpt>
<trkpt lat="39.829577" lon="9.409327"><ele>567.27</ele><time>2022-01-03T20:11:14Z</time></trkpt>
<trkpt lat="39.829502" lon="9.409323"><ele>567.44</ele><time>2022-01-03T20:11:15Z</time></trkpt>
<trkpt lat="39.829439" lon="9.409379"><ele>570.27</ele><time>2022-01-03T20:11:17Z</time></trkpt>
<trkpt lat="39.829414" lon="9.409469"><ele>574.71</ele><time>2022-01-03T20:11:18Z</time></trkpt>
<trkpt lat="39.829426" lon="9.409524"><ele>576.84</ele><time>2022-01-03T20:11:20Z</time></trkpt>
<trkpt lat="39.829451" lon="9.409559"><ele>577.91</ele><time>2022-01-03T20:11:21Z</time></trkpt>
<trkpt lat="39.829514" lon="9.409588"><ele>578.56</ele><time>2022-01-03T20:11:23Z</time></trkpt>
<trkpt lat="39.82985" lon="9.409642"><ele>576.88</ele><time>2022-01-03T20:11:24Z</time></trkpt>
<trkpt lat="39.829929" lon="9.409672"><ele>577.0</ele><time>2022-01-03T20:11:26Z</time></trkpt>
<trkpt lat="39.830011" lon="9.409734"><ele>578.02</ele><time>2022-01-03T20:11:27Z</time></trkpt>
<trkpt lat="39.830114" lon="9.409884"><ele>579.04</ele><time>2022-01-03T20:11:29Z</time></trkpt>
<trkpt lat="39.830178" lon="9.410109"><ele>581.62</ele><time>2022-01-03T20:11:31Z</time></trkpt>
<trkpt lat="39.830186" lon="9.41022"><ele>582.9</ele><time>2022-01-03T20:11:32Z</time></trkpt>
<trkpt lat="39.830163" lon="9.4106"><ele>584.85</ele><time>2022-01-03T20:11:34Z</time></trkpt>
<trkpt lat="39.830171" lon="9.410773"><ele>585.62</ele><time>2022-01-03T20:11:35Z</time></trkpt>
<trkpt lat="39.830152" lon="9.41097"><ele>588.03</ele><time>2022-01-03T20:11:37Z</time></trkpt>
<trkpt lat="39.830088" lon="9.411257"><ele>592.38</ele><time>2022-01-03T20:11:38Z</time></trkpt>
<trkpt lat="39.829992" lon="9.411594"><ele>593.71</ele><time>2022-01-03T20:11:40Z</time></trkpt>
<trkpt lat="39.829925" lon="9.411802"><ele>594.46</ele><time>2022-01-03T20:11:41Z</time></trkpt>
<trkpt lat="39.829847" lon="9.41197"><ele>596.59</ele><time>2022-01-03T20:11:43Z</time></trkpt>
<trkpt lat="39.829803" lon="9.412122"><ele>598.03</ele><time>2022-01-03T20:11:44Z</time></trkpt>
<trkpt lat="39.829781" lon="9.412262"><ele>598.95</ele><time>2022-01-03T20:11:46Z</time></trkpt>
<trkpt lat="39.829779" lon="9.41243"><ele>601.1</ele><time>2022-01-03T20:11:47Z</time></trkpt>
<trkpt lat="39.829803" lon="9.412533"><ele>601.64</ele><time>2022-01-03T20:11:49Z</time></trkpt>
<trkpt lat="39.82987" lon="9.412617"><ele>600.82</ele><time>2022-01-03T20:11:50Z</time></trkpt>
<trkpt lat="39.829962" lon="9.412686"><ele>599.21</ele><time>2022-01-03T20:11:52Z</time></trkpt>
<trkpt lat="39.830295" lon="9.412848"><ele>596.84</ele><time>2022-01-03T20:11:53Z</time></trkpt>
<trkpt lat="39.830453" lon="9.412943"><ele>595.95</ele><time>2022-01-03T20:11:55Z</time></trkpt>
<trkpt lat="39.830555" lon="9.413028"><ele>596.14</ele><time>2022-01-03T20:11:57Z</time></trkpt>
<trkpt lat="39.830604" lon="9.413105"><ele>596.08</ele><time>2022-01-03T20:11:58Z</time></trkpt>
<trkpt lat="39.830662" lon="9.413266"><ele>597.87</ele><time>2022-01-03T20:12:00Z</time></trkpt>
<trkpt lat="39.830863" lon="9.41408"><ele>601.97</ele><time>2022-01-03T20:12:01Z</time></trkpt>
<trkpt lat="39.830853" lon="9.414765"><ele>612.35</ele><time>2022-01-03T20:12:03Z</time></trkpt>
<trkpt lat="39.830876" lon="9.414903"><ele>612.46</ele><time>2022-01-03T20:12:04Z</time></trkpt>
<trkpt lat="39.831041" lon="9.415471"><ele>614.34</ele><time>2022-01-03T20:12:06Z</time></trkpt>
<trkpt lat="39.831094" lon="9.415596"><ele>615.74</ele><time>2022-01-03T20:12:07Z</time></trkpt>
<trkpt lat="39.831176" lon="9.415726"><ele>617.78</ele><time>2022-01-03T20:12:09Z</time></trkpt>
<trkpt lat="39.831264" lon="9.415815"><ele>618.52</ele><time>2022-01-03T20:12:10Z</time></trkpt>
<trkpt lat="39.831824" lon="9.416045"><ele>614.25</ele><time>2022-01-03T20:12:12Z</time></trkpt>
<trkpt lat="39.831921" lon="9.416105"><ele>613.49</ele><time>2022-01-03T20:12:13Z</time></trkpt>
<trkpt lat="39.832049" lon="9.416258"><ele>614.38</ele><time>2022-01-03T20:12:15Z</time></trkpt>
<trkpt lat="39.832079" lon="9.416325"><ele>615.15</ele><time>2022-01-03T20:12:16Z</time></trkpt>
<trkpt lat="39.832089" lon="9.416419"><ele>616.68</ele><time>2022-01-03T20:12:18Z</time></trkpt>
<trkpt lat="39.831953" lon="9.417141"><ele>627.67</ele><time>2022-01-03T20:12:19Z</time></trkpt>
<trkpt lat="39.83195" lon="9.417302"><ele>627.83</ele><time>2022-01-03T20:12:21Z</time></trkpt>
<trkpt lat="39.831997" lon="9.417464"><ele>626.94</ele><time>2022-01-03T20:12:23Z</time></trkpt>
<trkpt lat="39.832096" lon="9.41759"><ele>626.4</ele><time>2022-01-03T20:12:24Z</time></trkpt>
<trkpt lat="39.832372" lon="9.417876"><ele>624.68</ele><time>2022-01-03T20:12:26Z</time></trkpt>
<trkpt lat="39.832425" lon="9.417959"><ele>624.66</ele><time>2022-01-03T20:12:27Z</time></trkpt>
<trkpt lat="39.83307" lon="9.419691"><ele>635.96</ele><time>2022-01-03T20:12:29Z</time></trkpt>
<trkpt lat="39.833122" lon="9.419787"><ele>636.01</ele><time>2022-01-03T20:12:30Z</time></trkpt>
<trkpt lat="39.833241" lon="9.419896"><ele>635.26</ele><time>2022-01-03T20:12:32Z</time></trkpt>
<trkpt lat="39.833837" lon="9.420224"><ele>634.26</ele><time>2022-01-03T20:12:33Z</time></trkpt>
<trkpt lat="39.833915" lon="9.420279"><ele>633.54</ele><time>2022-01-03T20:12:35Z</time></trkpt>
<trkpt lat="39.833957" lon="9.420336"><ele>633.55</ele><time>2022-01-03T20:12:36Z</time></trkpt>
<trkpt lat="39.833993" lon="9.420422"><ele>634.01</ele><time>2022-01-03T20:12:38Z</time></trkpt>
<trkpt lat="39.834007" lon="9.420553"><ele>635.42</ele><time>2022-01-03T20:12:39Z</time></trkpt>
<trkpt lat="39.834021" lon="9.421015"><ele>641.28</ele><time>2022-01-03T20:12:41Z</time></trkpt>
<trkpt lat="39.834055" lon="9.421194"><ele>642.84</ele><time>2022-01-03T20:12:42Z</time></trkpt>
<trkpt lat="39.834225" lon="9.421794"><ele>644.0</ele><time>2022-01-03T20:12:44Z</time></trkpt>
<trkpt lat="39.834245" lon="9.42191"><ele>643.9</ele><time>2022-01-03T20:12:45Z</time></trkpt>
<trkpt lat="39.834227" lon="9.422102"><ele>644.6</ele><time>2022-01-03T20:12:47Z</time></trkpt>
<trkpt lat="39.834023" lon="9.423061"><ele>656.87</ele><time>2022-01-03T20:12:49Z</time></trkpt>
<trkpt lat="39.834006" lon="9.423326"><ele>658.54</ele><time>2022-01-03T20:12:50Z</time></trkpt>
<trkpt lat="39.834042" lon="9.423478"><ele>655.82</ele><time>2022-01-03T20:12:52Z</time></trkpt>
<trkpt lat="39.834156" lon="9.423773"><ele>648.64</ele><time>2022-01-03T20:12:53Z</time></trkpt>
<trkpt lat="39.834177" lon="9.423875"><ele>647.85</ele><time>2022-01-03T20:12:55Z</time></trkpt>
<trkpt lat="39.83417" lon="9.424"><ele>649.15</ele><time>2022-01-03T20:12:56Z</time></trkpt>
<trkpt lat="39.834132" lon="9.424106"><ele>651.87</ele><time>2022-01-03T20:12:58Z</time></trkpt>
<trkpt lat="39.833903" lon="9.424503"><ele>661.83</ele><time>2022-01-03T20:12:59Z</time></trkpt>
<trkpt lat="39.833876" lon="9.424616"><ele>663.28</ele><time>2022-01-03T20:13:01Z</time></trkpt>
<trkpt lat="39.833896" lon="9.425023"><ele>665.12</ele><time>2022-01-03T20:13:02Z</time></trkpt>
<trkpt lat="39.83393" lon="9.425177"><ele>666.36</ele><time>2022-01-03T20:13:04Z</time></trkpt>
<trkpt lat="39.834197" lon="9.425752"><ele>670.66</ele><time>2022-01-03T20:13:05Z</time></trkpt>
<trkpt lat="39.834246" lon="9.425953"><ele>669.96</ele><time>2022-01-03T20:13:07Z</time></trkpt>
<trkpt lat="39.834305" lon="9.426558"><ele>672.95</ele><time>2022-01-03T20:13:08Z</time></trkpt>
<trkpt lat="39.834306" lon="9.426744"><ele>675.75</ele><time>2022-01-03T20:13:10Z</time></trkpt>
<trkpt lat="39.834194" lon="9.427086"><ele>679.65</ele><time>2022-01-03T20:13:11Z</time></trkpt>
<trkpt lat="39.834086" lon="9.427299"><ele>680.42</ele><time>2022-01-03T20:13:13Z</time></trkpt>
<trkpt lat="39.833769" lon="9.42782"><ele>680.94</ele><time>2022-01-03T20:13:15Z</time></trkpt>
<trkpt lat="39.833433" lon="9.428519"><ele>682.24</ele><time>2022-01-03T20:13:16Z</time></trkpt>
<trkpt lat="39.833289" lon="9.429013"><ele>679.94</ele><time>2022-01-03T20:13:18Z</time></trkpt>
<trkpt lat="39.833222" lon="9.429171"><ele>680.21</ele><time>2022-01-03T20:13:19Z</time></trkpt>
<trkpt lat="39.833087" lon="9.429402"><ele>682.6</ele><time>2022-01-03T20:13:21Z</time></trkpt>
<trkpt lat="39.83304" lon="9.429578"><ele>683.53</ele><time>2022-01-03T20:13:22Z</time></trkpt>
<trkpt lat="39.832987" lon="9.429992"><ele>684.48</ele><time>2022-01-03T20:13:24Z</time></trkpt>
<trkpt lat="39.832858" lon="9.430285"><ele>688.41</ele><time>2022-01-03T20:13:25Z</time></trkpt>
<trkpt lat="39.832831" lon="9.430443"><ele>689.76</ele><time>2022-01-03T20:13:27Z</time></trkpt>
<trkpt lat="39.832848" lon="9.430645"><ele>690.12</ele><time>2022-01-03T20:13:28Z</time></trkpt>
<trkpt lat="39.832899" lon="9.430941"><ele>689.79</ele><time>2022-01-03T20:13:30Z</time></trkpt>
<trkpt lat="39.832904" lon="9.431208"><ele>689.76</ele><time>2022-01-03T20:13:31Z</time></trkpt>
<trkpt lat="39.832806" lon="9.431986"><ele>695.3</ele><time>2022-01-03T20:13:33Z</time></trkpt>
<trkpt lat="39.832788" lon="9.432263"><ele>695.72</ele><time>2022-01-03T20:13:34Z</time></trkpt>
<trkpt lat="39.832803" lon="9.432407"><ele>695.29</ele><time>2022-01-03T20:13:36Z</time></trkpt>
<trkpt lat="39.832841" lon="9.432565"><ele>693.71</ele><time>2022-01-03T20:13:37Z</time></trkpt>
<trkpt lat="39.832843" lon="9.432716"><ele>692.55</ele><time>2022-01-03T20:13:39Z</time></trkpt>
<trkpt lat="39.832815" lon="9.432847"><ele>692.03</ele><time>2022-01-03T20:13:41Z</time></trkpt>
<trkpt lat="39.832622" lon="9.433196"><ele>695.45</ele><time>2022-01-03T20:13:42Z</time></trkpt>
<trkpt lat="39.832472" lon="9.43342"><ele>699.61</ele><time>2022-01-03T20:13:44Z</time></trkpt>
<trkpt lat="39.832407" lon="9.433565"><ele>701.64</ele><time>2022-01-03T20:13:45Z</time></trkpt>
<trkpt lat="39.832383" lon="9.433703"><ele>701.96</ele><time>2022-01-03T20:13:47Z</time></trkpt>
<trkpt lat="39.832365" lon="9.434291"><ele>697.29</ele><time>2022-01-03T20:13:48Z</time></trkpt>
<trkpt lat="39.832307" lon="9.434438"><ele>697.34</ele><time>2022-01-03T20:13:50Z</time></trkpt>
<trkpt lat="39.832153" lon="9.434691"><ele>700.62</ele><time>2022-01-03T20:13:51Z</time></trkpt>
<trkpt lat="39.832097" lon="9.434834"><ele>702.05</ele><time>2022-01-03T20:13:53Z</time></trkpt>
<trkpt lat="39.83204" lon="9.435041"><ele>703.57</ele><time>2022-01-03T20:13:54Z</time></trkpt>
<trkpt lat="39.832033" lon="9.435242"><ele>704.12</ele><time>2022-01-03T20:13:56Z</time></trkpt>
<trkpt lat="39.83218" lon="9.436389"><ele>699.23</ele><time>2022-01-03T20:13:57Z</time></trkpt>
<trkpt lat="39.832185" lon="9.436612"><ele>699.17</ele><time>2022-01-03T20:13:59Z</time></trkpt>
<trkpt lat="39.832152" lon="9.437293"><ele>703.53</ele><time>2022-01-03T20:14:00Z</time></trkpt>
<trkpt lat="39.832045" lon="9.438357"><ele>706.68</ele><time>2022-01-03T20:14:02Z</time></trkpt>
<trkpt lat="39.832076" lon="9.438588"><ele>707.96</ele><time>2022-01-03T20:14:04Z</time></trkpt>
<trkpt lat="39.832153" lon="9.438779"><ele>709.06</ele><time>2022-01-03T20:14:05Z</time></trkpt>
<trkpt lat="39.832705" lon="9.439728"><ele>716.38</ele><time>2022-01-03T20:14:07Z</time></trkpt>
<trkpt lat="39.83292" lon="9.439997"><ele>717.42</ele><time>2022-01-03T20:14:08Z</time></trkpt>
<trkpt lat="39.833134" lon="9.440204"><ele>717.44</ele><time>2022-01-03T20:14:10Z</time></trkpt>
<trkpt lat="39.833192" lon="9.440333"><ele>717.53</ele><time>2022-01-03T20:14:11Z</time></trkpt>
<trkpt lat="39.833223" lon="9.440463"><ele>717.06</ele><time>2022-01-03T20:14:13Z</time></trkpt>
<trkpt lat="39.833305" lon="9.441147"><ele>717.66</ele><time>2022-01-03T20:14:14Z</time></trkpt>
<trkpt lat="39.833362" lon="9.441363"><ele>717.7</ele><time>2022-01-03T20:14:16Z</time></trkpt>
<trkpt lat="39.833397" lon="9.441427"><ele>717.78</ele><time>2022-01-03T20:14:17Z</time></trkpt>
<trkpt lat="39.83353" lon="9.44161"><ele>717.61</ele><time>2022-01-03T20:14:19Z</time></trkpt>
<trkpt lat="39.833633" lon="9.441713"><ele>717.33</ele><time>2022-01-03T20:14:20Z</time></trkpt>
<trkpt lat="39.833706" lon="9.441765"><ele>717.71</ele><time>2022-01-03T20:14:22Z</time></trkpt>
<trkpt lat="39.833764" lon="9.441783"><ele>717.83</ele><time>2022-01-03T20:14:23Z</time></trkpt>
<trkpt lat="39.833857" lon="9.441761"><ele>717.68</ele><time>2022-01-03T20:14:25Z</time></trkpt>
<trkpt lat="39.834045" lon="9.441686"><ele>718.71</ele><time>2022-01-03T20:14:26Z</time></trkpt>
<trkpt lat="39.834242" lon="9.441755"><ele>720.96</ele><time>2022-01-03T20:14:28Z</time></trkpt>
<trkpt lat="39.834317" lon="9.441812"><ele>721.6</ele><time>2022-01-03T20:14:30Z</time></trkpt>
<trkpt lat="39.834478" lon="9.441986"><ele>721.31</ele><time>2022-01-03T20:14:31Z</time></trkpt>
<trkpt lat="39.834565" lon="9.442123"><ele>721.89</ele><time>2022-01-03T20:14:33Z</time></trkpt>
<trkpt lat="39.834662" lon="9.442341"><ele>723.01</ele><time>2022-01-03T20:14:34Z</time></trkpt>
<trkpt lat="39.834709" lon="9.442583"><ele>723.53</ele><time>2022-01-03T20:14:36Z</time></trkpt>
<trkpt lat="39.834716" lon="9.442708"><ele>723.18</ele><time>2022-01-03T20:14:37Z</time></trkpt>
<trkpt lat="39.834718" lon="9.444063"><ele>726.58</ele><time>2022-01-03T20:14:39Z</time></trkpt>
<trkpt lat="39.834749" lon="9.444438"><ele>728.46</ele><time>2022-01-03T20:14:40Z</time></trkpt>
<trkpt lat="39.834787" lon="9.444572"><ele>729.06</ele><time>2022-01-03T20:14:42Z</time></trkpt>
<trkpt lat="39.834875" lon="9.444745"><ele>729.99</ele><time>2022-01-03T20:14:43Z</time></trkpt>
<trkpt lat="39.835114" lon="9.445112"><ele>729.82</ele><time>2022-01-03T20:14:45Z</time></trkpt>
<trkpt lat="39.835332" lon="9.445602"><ele>730.53</ele><time>2022-01-03T20:14:46Z</time></trkpt>
<trkpt lat="39.835469" lon="9.445954"><ele>732.04</ele><time>2022-01-03T20:14:48Z</time></trkpt>
<trkpt lat="39.835571" lon="9.446169"><ele>731.82</ele><time>2022-01-03T20:14:49Z</time></trkpt>
<trkpt lat="39.835739" lon="9.446468"><ele>733.9</ele><time>2022-01-03T20:14:51Z</time></trkpt>
<trkpt lat="39.835774" lon="9.446616"><ele>734.01</ele><time>2022-01-03T20:14:52Z</time></trkpt>
<trkpt lat="39.835777" lon="9.44679"><ele>733.17</ele><time>2022-01-03T20:14:54Z</time></trkpt>
<trkpt lat="39.835816" lon="9.446962"><ele>732.82</ele><time>2022-01-03T20:14:56Z</time></trkpt>
<trkpt lat="39.835866" lon="9.447063"><ele>733.91</ele><time>2022-01-03T20:14:57Z</time></trkpt>
<trkpt lat="39.836284" lon="9.44765"><ele>740.35</ele><time>2022-01-03T20:14:59Z</time></trkpt>
<trkpt lat="39.837088" lon="9.44935"><ele>743.64</ele><time>2022-01-03T20:15:00Z</time></trkpt>
<trkpt lat="39.837515" lon="9.45012"><ele>747.27</ele><time>2022-01-03T20:15:02Z</time></trkpt>
<trkpt lat="39.8376" lon="9.450246"><ele>747.27</ele><time>2022-01-03T20:15:03Z</time></trkpt>
<trkpt lat="39.837731" lon="9.450366"><ele>747.86</ele><time>2022-01-03T20:15:05Z</time></trkpt>
<trkpt lat="39.837927" lon="9.450479"><ele>749.69</ele><time>2022-01-03T20:15:06Z</time></trkpt>
<trkpt lat="39.838453" lon="9.450722"><ele>753.8</ele><time>2022-01-03T20:15:08Z</time></trkpt>
<trkpt lat="39.838724" lon="9.450905"><ele>752.13</ele><time>2022-01-03T20:15:09Z</time></trkpt>
<trkpt lat="39.838802" lon="9.450978"><ele>751.44</ele><time>2022-01-03T20:15:11Z</time></trkpt>
<trkpt lat="39.839114" lon="9.451445"><ele>750.28</ele><time>2022-01-03T20:15:12Z</time></trkpt>
<trkpt lat="39.839211" lon="9.451544"><ele>751.84</ele><time>2022-01-03T20:15:14Z</time></trkpt>
<trkpt lat="39.839297" lon="9.451591"><ele>752.24</ele><time>2022-01-03T20:15:15Z</time></trkpt>
<trkpt lat="39.839428" lon="9.451598"><ele>752.68</ele><time>2022-01-03T20:15:17Z</time></trkpt>
<trkpt lat="39.839831" lon="9.451541"><ele>753.51</ele><time>2022-01-03T20:15:18Z</time></trkpt>
<trkpt lat="39.839969" lon="9.451553"><ele>754.23</ele><time>2022-01-03T20:15:20Z</time></trkpt>
<trkpt lat="39.8401" lon="9.45161"><ele>754.57</ele><time>2022-01-03T20:15:22Z</time></trkpt>
<trkpt lat="39.840238" lon="9.451696"><ele>753.57</ele><time>2022-01-03T20:15:23Z</time></trkpt>
<trkpt lat="39.840907" lon="9.452279"><ele>754.13</ele><time>2022-01-03T20:15:25Z</time></trkpt>
<trkpt lat="39.841575" lon="9.452718"><ele>756.53</ele><time>2022-01-03T20:15:26Z</time></trkpt>
<trkpt lat="39.842425" lon="9.453517"><ele>759.49</ele><time>2022-01-03T20:15:28Z</time></trkpt>
<trkpt lat="39.842738" lon="9.453724"><ele>758.3</ele><time>2022-01-03T20:15:29Z</time></trkpt>
<trkpt lat="39.843097" lon="9.453881"><ele>759.12</ele><time>2022-01-03T20:15:31Z</time></trkpt>
<trkpt lat="39.843256" lon="9.454004"><ele>759.06</ele><time>2022-01-03T20:15:32Z</time></trkpt>
<trkpt lat="39.84338" lon="9.454113"><ele>758.06</ele><time>2022-01-03T20:15:34Z</time></trkpt>
<trkpt lat="39.843676" lon="9.454431"><ele>758.83</ele><time>2022-01-03T20:15:35Z</time></trkpt>
<trkpt lat="39.844218" lon="9.454915"><ele>762.34</ele><time>2022-01-03T20:15:37Z</time></trkpt>
<trkpt lat="39.844398" lon="9.455057"><ele>764.96</ele><time>2022-01-03T20:15:38Z</time></trkpt>
<trkpt lat="39.844707" lon="9.455232"><ele>766.62</ele><time>2022-01-03T20:15:40Z</time></trkpt>
<trkpt lat="39.844832" lon="9.45534"><ele>766.71</ele><time>2022-01-03T20:15:41Z</time></trkpt>
<trkpt lat="39.845024" lon="9.455571"><ele>764.51</ele><time>2022-01-03T20:15:43Z</time></trkpt>
<trkpt lat="39.845141" lon="9.455669"><ele>765.8</ele><time>2022-01-03T20:15:44Z</time></trkpt>
<trkpt lat="39.845338" lon="9.455785"><ele>767.54</ele><time>2022-01-03T20:15:46Z</time></trkpt>
<trkpt lat="39.845444" lon="9.455883"><ele>767.93</ele><time>2022-01-03T20:15:48Z</time></trkpt>
<trkpt lat="39.84566" lon="9.456185"><ele>766.84</ele><time>2022-01-03T20:15:49Z</time></trkpt>
<trkpt lat="39.84578" lon="9.456304"><ele>766.29</ele><time>2022-01-03T20:15:51Z</time></trkpt>
<trkpt lat="39.845908" lon="9.456373"><ele>766.66</ele><time>2022-01-03T20:15:52Z</time></trkpt>
<trkpt lat="39.84662" lon="9.456629"><ele>773.38</ele><time>2022-01-03T20:15:54Z</time></trkpt>
<trkpt lat="39.846704" lon="9.456685"><ele>773.76</ele><time>2022-01-03T20:15:55Z</time></trkpt>
<trkpt lat="39.846764" lon="9.45677"><ele>774.05</ele><time>2022-01-03T20:15:57Z</time></trkpt>
<trkpt lat="39.846889" lon="9.457056"><ele>772.52</ele><time>2022-01-03T20:15:58Z</time></trkpt>
<trkpt lat="39.846977" lon="9.457139"><ele>772.6</ele><time>2022-01-03T20:16:00Z</time></trkpt>
<trkpt lat="39.847098" lon="9.457185"><ele>773.39</ele><time>2022-01-03T20:16:01Z</time></trkpt>
<trkpt lat="39.84748" lon="9.457248"><ele>775.77</ele><time>2022-01-03T20:16:03Z</time></trkpt>
<trkpt lat="39.847623" lon="9.457307"><ele>777.94</ele><time>2022-01-03T20:16:04Z</time></trkpt>
<trkpt lat="39.847696" lon="9.457357"><ele>778.72</ele><time>2022-01-03T20:16:06Z</time></trkpt>
<trkpt lat="39.847804" lon="9.457484"><ele>778.54</ele><time>2022-01-03T20:16:07Z</time></trkpt>
<trkpt lat="39.848226" lon="9.458121"><ele>779.21</ele><time>2022-01-03T20:16:09Z</time></trkpt>
<trkpt lat="39.848443" lon="9.458358"><ele>778.95</ele><time>2022-01-03T20:16:10Z</time></trkpt>
<trkpt lat="39.848596" lon="9.458486"><ele>779.98</ele><time>2022-01-03T20:16:12Z</time></trkpt>
<trkpt lat="39.849737" lon="9.459288"><ele>781.01</ele><time>2022-01-03T20:16:14Z</time></trkpt>
<trkpt lat="39.850256" lon="9.459551"><ele>777.54</ele><time>2022-01-03T20:16:15Z</time></trkpt>
<trkpt lat="39.850583" lon="9.459689"><ele>776.75</ele><time>2022-01-03T20:16:17Z</time></trkpt>
<trkpt lat="39.850788" lon="9.459807"><ele>779.57</ele><time>2022-01-03T20:16:18Z</time></trkpt>
<trkpt lat="39.850973" lon="9.459951"><ele>779.8</ele><time>2022-01-03T20:16:20Z</time></trkpt>
<trkpt lat="39.853273" lon="9.462125"><ele>780.76</ele><time>2022-01-03T20:16:21Z</time></trkpt>
<trkpt lat="39.854918" lon="9.463365"><ele>779.81</ele><time>2022-01-03T20:16:23Z</time></trkpt>
<trkpt lat="39.856736" lon="9.464675"><ele>784.91</ele><time>2022-01-03T20:16:24Z</time></trkpt>
<trkpt lat="39.857245" lon="9.46502"><ele>789.39</ele><time>2022-01-03T20:16:26Z</time></trkpt>
<trkpt lat="39.857585" lon="9.46518"><ele>793.21</ele><time>2022-01-03T20:16:27Z</time></trkpt>
<trkpt lat="39.858164" lon="9.465523"><ele>791.89</ele><time>2022-01-03T20:16:29Z</time></trkpt>
<trkpt lat="39.858338" lon="9.465565"><ele>790.97</ele><time>2022-01-03T20:16:30Z</time></trkpt>
<trkpt lat="39.8585" lon="9.465579"><ele>790.87</ele><time>2022-01-03T20:16:32Z</time></trkpt>
<trkpt lat="39.858618" lon="9.465632"><ele>790.5</ele><time>2022-01-03T20:16:33Z</time></trkpt>
<trkpt lat="39.858671" lon="9.46569"><ele>790.46</ele><time>2022-01-03T20:16:35Z</time></trkpt>
<trkpt lat="39.858722" lon="9.465817"><ele>789.92</ele><time>2022-01-03T20:16:37Z</time></trkpt>
<trkpt lat="39.858779" lon="9.466059"><ele>789.23</ele><time>2022-01-03T20:16:38Z</time></trkpt>
<trkpt lat="39.858816" lon="9.466145"><ele>789.0</ele><time>2022-01-03T20:16:40Z</time></trkpt>
<trkpt lat="39.859164" lon="9.466458"><ele>787.77</ele><time>2022-01-03T20:16:41Z</time></trkpt>
<trkpt lat="39.859373" lon="9.466681"><ele>787.72</ele><time>2022-01-03T20:16:43Z</time></trkpt>
<trkpt lat="39.859553" lon="9.46697"><ele>786.56</ele><time>2022-01-03T20:16:44Z</time></trkpt>
<trkpt lat="39.859686" lon="9.467324"><ele>783.33</ele><time>2022-01-03T20:16:46Z</time></trkpt>
<trkpt lat="39.859782" lon="9.467735"><ele>782.03</ele><time>2022-01-03T20:16:47Z</time></trkpt>
<trkpt lat="39.859876" lon="9.468095"><ele>780.86</ele><time>2022-01-03T20:16:49Z</time></trkpt>
<trkpt lat="39.86004" lon="9.468556"><ele>779.62</ele><time>2022-01-03T20:16:50Z</time></trkpt>
<trkpt lat="39.860179" lon="9.469121"><ele>779.97</ele><time>2022-01-03T20:16:52Z</time></trkpt>
<trkpt lat="39.860326" lon="9.4696"><ele>774.73</ele><time>2022-01-03T20:16:53Z</time></trkpt>
<trkpt lat="39.860554" lon="9.470193"><ele>772.23</ele><time>2022-01-03T20:16:55Z</time></trkpt>
<trkpt lat="39.860904" lon="9.471279"><ele>768.68</ele><time>2022-01-03T20:16:56Z</time></trkpt>
<trkpt lat="39.861011" lon="9.471443"><ele>766.12</ele><time>2022-01-03T20:16:58Z</time></trkpt>
<trkpt lat="39.861125" lon="9.47151"><ele>762.92</ele><time>2022-01-03T20:16:59Z</time></trkpt>
<trkpt lat="39.861328" lon="9.471542"><ele>757.4</ele><time>2022-01-03T20:17:01Z</time></trkpt>
<trkpt lat="39.861408" lon="9.471636"><ele>756.24</ele><time>2022-01-03T20:17:03Z</time></trkpt>
<trkpt lat="39.861441" lon="9.471737"><ele>755.86</ele><time>2022-01-03T20:17:04Z</time></trkpt>
<trkpt lat="39.861466" lon="9.472085"><ele>754.55</ele><time>2022-01-03T20:17:06Z</time></trkpt>
<trkpt lat="39.861554" lon="9.472404"><ele>750.21</ele><time>2022-01-03T20:17:07Z</time></trkpt>
<trkpt lat="39.861564" lon="9.472603"><ele>748.13</ele><time>2022-01-03T20:17:09Z</time></trkpt>
<trkpt lat="39.86154" lon="9.472791"><ele>746.96</ele><time>2022-01-03T20:17:10Z</time></trkpt>
<trkpt lat="39.861477" lon="9.472884"><ele>748.45</ele><time>2022-01-03T20:17:12Z</time></trkpt>
<trkpt lat="39.861375" lon="9.472988"><ele>749.5</ele><time>2022-01-03T20:17:13Z</time></trkpt>
<trkpt lat="39.861297" lon="9.473107"><ele>749.68</ele><time>2022-01-03T20:17:15Z</time></trkpt>
<trkpt lat="39.861199" lon="9.473323"><ele>749.81</ele><time>2022-01-03T20:17:16Z</time></trkpt>
<trkpt lat="39.861108" lon="9.473579"><ele>750.21</ele><time>2022-01-03T20:17:18Z</time></trkpt>
<trkpt lat="39.861041" lon="9.473822"><ele>751.53</ele><time>2022-01-03T20:17:19Z</time></trkpt>
<trkpt lat="39.86103" lon="9.474033"><ele>750.73</ele><time>2022-01-03T20:17:21Z</time></trkpt>
<trkpt lat="39.861055" lon="9.474784"><ele>735.64</ele><time>2022-01-03T20:17:22Z</time></trkpt>
<trkpt lat="39.861038" lon="9.474969"><ele>731.67</ele><time>2022-01-03T20:17:24Z</time></trkpt>
<trkpt lat="39.860984" lon="9.475097"><ele>730.81</ele><time>2022-01-03T20:17:25Z</time></trkpt>
<trkpt lat="39.860926" lon="9.475183"><ele>730.7</ele><time>2022-01-03T20:17:27Z</time></trkpt>
<trkpt lat="39.860851" lon="9.475235"><ele>731.69</ele><time>2022-01-03T20:17:29Z</time></trkpt>
<trkpt lat="39.860555" lon="9.475341"><ele>735.88</ele><time>2022-01-03T20:17:30Z</time></trkpt>
<trkpt lat="39.860482" lon="9.475388"><ele>737.91</ele><time>2022-01-03T20:17:32Z</time></trkpt>
<trkpt lat="39.86041" lon="9.475463"><ele>739.42</ele><time>2022-01-03T20:17:33Z</time></trkpt>
<trkpt lat="39.860382" lon="9.475557"><ele>738.87</ele><time>2022-01-03T20:17:35Z</time></trkpt>
<trkpt lat="39.86031" lon="9.476798"><ele>724.17</ele><time>2022-01-03T20:17:36Z</time></trkpt>
<trkpt lat="39.860281" lon="9.476938"><ele>722.98</ele><time>2022-01-03T20:17:38Z</time></trkpt>
<trkpt lat="39.860229" lon="9.477019"><ele>722.22</ele><time>2022-01-03T20:17:39Z</time></trkpt>
<trkpt lat="39.859733" lon="9.477559"><ele>719.29</ele><time>2022-01-03T20:17:41Z</time></trkpt>
<trkpt lat="39.859443" lon="9.477699"><ele>721.45</ele><time>2022-01-03T20:17:42Z</time></trkpt>
<trkpt lat="39.85934" lon="9.477814"><ele>721.43</ele><time>2022-01-03T20:17:44Z</time></trkpt>
<trkpt lat="39.85882" lon="9.478704"><ele>714.24</ele><time>2022-01-03T20:17:45Z</time></trkpt>
<trkpt lat="39.858379" lon="9.479349"><ele>707.3</ele><time>2022-01-03T20:17:47Z</time></trkpt>
<trkpt lat="39.858258" lon="9.479599"><ele>704.65</ele><time>2022-01-03T20:17:48Z</time></trkpt>
<trkpt lat="39.858154" lon="9.479872"><ele>701.95</ele><time>2022-01-03T20:17:50Z</time></trkpt>
<trkpt lat="39.858072" lon="9.480021"><ele>701.08</ele><time>2022-01-03T20:17:51Z</time></trkpt>
<trkpt lat="39.857967" lon="9.480139"><ele>699.92</ele><time>2022-01-03T20:17:53Z</time></trkpt>
<trkpt lat="39.85756" lon="9.480478"><ele>697.58</ele><time>2022-01-03T20:17:55Z</time></trkpt>
<trkpt lat="39.857433" lon="9.480559"><ele>696.35</ele><time>2022-01-03T20:17:56Z</time></trkpt>
<trkpt lat="39.857231" lon="9.480633"><ele>695.66</ele><time>2022-01-03T20:17:58Z</time></trkpt>
<trkpt lat="39.857053" lon="9.480669"><ele>696.44</ele><time>2022-01-03T20:17:59Z</time></trkpt>
<trkpt lat="39.856908" lon="9.48073"><ele>696.8</ele><time>2022-01-03T20:18:01Z</time></trkpt>
<trkpt lat="39.856777" lon="9.480845"><ele>696.1</ele><time>2022-01-03T20:18:02Z</time></trkpt>
<trkpt lat="39.856351" lon="9.481422"><ele>684.7</ele><time>2022-01-03T20:18:04Z</time></trkpt>
<trkpt lat="39.856242" lon="9.481513"><ele>683.59</ele><time>2022-01-03T20:18:05Z</time></trkpt>
<trkpt lat="39.856081" lon="9.481586"><ele>683.42</ele><time>2022-01-03T20:18:07Z</time></trkpt>
<trkpt lat="39.855799" lon="9.481659"><ele>685.26</ele><time>2022-01-03T20:18:08Z</time></trkpt>
<trkpt lat="39.854859" lon="9.481685"><ele>682.87</ele><time>2022-01-03T20:18:10Z</time></trkpt>
<trkpt lat="39.854751" lon="9.481703"><ele>682.59</ele><time>2022-01-03T20:18:11Z</time></trkpt>
<trkpt lat="39.854481" lon="9.481822"><ele>682.28</ele><time>2022-01-03T20:18:13Z</time></trkpt>
<trkpt lat="39.854215" lon="9.481971"><ele>684.51</ele><time>2022-01-03T20:18:14Z</time></trkpt>
<trkpt lat="39.854149" lon="9.482065"><ele>683.09</ele><time>2022-01-03T20:18:16Z</time></trkpt>
<trkpt lat="39.854107" lon="9.482193"><ele>679.36</ele><time>2022-01-03T20:18:17Z</time></trkpt>
<trkpt lat="39.854044" lon="9.482556"><ele>671.87</ele><time>2022-01-03T20:18:19Z</time></trkpt>
<trkpt lat="39.853972" lon="9.482703"><ele>670.83</ele><time>2022-01-03T20:18:21Z</time></trkpt>
<trkpt lat="39.853874" lon="9.482797"><ele>671.84</ele><time>2022-01-03T20:18:22Z</time></trkpt>
<trkpt lat="39.853767" lon="9.482871"><ele>672.71</ele><time>2022-01-03T20:18:24Z</time></trkpt>
<trkpt lat="39.853618" lon="9.483102"><ele>672.27</ele><time>2022-01-03T20:18:25Z</time></trkpt>
<trkpt lat="39.853294" lon="9.483309"><ele>671.21</ele><time>2022-01-03T20:18:27Z</time></trkpt>
<trkpt lat="39.853203" lon="9.483415"><ele>668.47</ele><time>2022-01-03T20:18:28Z</time></trkpt>
<trkpt lat="39.853122" lon="9.483618"><ele>662.54</ele><time>2022-01-03T20:18:30Z</time></trkpt>
<trkpt lat="39.853017" lon="9.483792"><ele>658.53</ele><time>2022-01-03T20:18:31Z</time></trkpt>
<trkpt lat="39.852929" lon="9.483891"><ele>658.05</ele><time>2022-01-03T20:18:33Z</time></trkpt>
<trkpt lat="39.852804" lon="9.483973"><ele>658.92</ele><time>2022-01-03T20:18:34Z</time></trkpt>
<trkpt lat="39.851838" lon="9.484203"><ele>657.33</ele><time>2022-01-03T20:18:36Z</time></trkpt>
<trkpt lat="39.851526" lon="9.484175"><ele>656.16</ele><time>2022-01-03T20:18:37Z</time></trkpt>
<trkpt lat="39.851351" lon="9.484086"><ele>657.73</ele><time>2022-01-03T20:18:39Z</time></trkpt>
<trkpt lat="39.851256" lon="9.484059"><ele>658.3</ele><time>2022-01-03T20:18:40Z</time></trkpt>
<trkpt lat="39.851015" lon="9.484108"><ele>654.29</ele><time>2022-01-03T20:18:42Z</time></trkpt>
<trkpt lat="39.850637" lon="9.48406"><ele>652.47</ele><time>2022-01-03T20:18:43Z</time></trkpt>
<trkpt lat="39.850575" lon="9.484099"><ele>651.04</ele><time>2022-01-03T20:18:45Z</time></trkpt>
<trkpt lat="39.850332" lon="9.484391"><ele>647.54</ele><time>2022-01-03T20:18:47Z</time></trkpt>
<trkpt lat="39.850328" lon="9.484508"><ele>645.23</ele><time>2022-01-03T20:18:48Z</time></trkpt>
<trkpt lat="39.850381" lon="9.48455"><ele>643.7</ele><time>2022-01-03T20:18:50Z</time></trkpt>
<trkpt lat="39.850446" lon="9.484523"><ele>643.43</ele><time>2022-01-03T20:18:51Z</time></trkpt>
<trkpt lat="39.850587" lon="9.484294"><ele>646.62</ele><time>2022-01-03T20:18:53Z</time></trkpt>
<trkpt lat="39.850638" lon="9.484239"><ele>647.69</ele><time>2022-01-03T20:18:54Z</time></trkpt>
<trkpt lat="39.850711" lon="9.484233"><ele>647.84</ele><time>2022-01-03T20:18:56Z</time></trkpt>
<trkpt lat="39.850783" lon="9.484262"><ele>646.96</ele><time>2022-01-03T20:18:57Z</time></trkpt>
<trkpt lat="39.850994" lon="9.484373"><ele>644.63</ele><time>2022-01-03T20:18:59Z</time></trkpt>
<trkpt lat="39.851247" lon="9.484471"><ele>642.73</ele><time>2022-01-03T20:19:00Z</time></trkpt>
<trkpt lat="39.851294" lon="9.484514"><ele>641.73</ele><time>2022-01-03T20:19:02Z</time></trkpt>
<trkpt lat="39.851317" lon="9.484575"><ele>640.2</ele><time>2022-01-03T20:19:03Z</time></trkpt>
<trkpt lat="39.851333" lon="9.484806"><ele>634.95</ele><time>2022-01-03T20:19:05Z</time></trkpt>
<trkpt lat="39.851359" lon="9.484877"><ele>633.95</ele><time>2022-01-03T20:19:06Z</time></trkpt>
<trkpt lat="39.851429" lon="9.484943"><ele>633.46</ele><time>2022-01-03T20:19:08Z</time></trkpt>
<trkpt lat="39.852043" lon="9.485163"><ele>629.77</ele><time>2022-01-03T20:19:10Z</time></trkpt>
<trkpt lat="39.852219" lon="9.485181"><ele>627.18</ele><time>2022-01-03T20:19:11Z</time></trkpt>
<trkpt lat="39.852404" lon="9.48513"><ele>625.51</ele><time>2022-01-03T20:19:13Z</time></trkpt>
<trkpt lat="39.852852" lon="9.484938"><ele>623.92</ele><time>2022-01-03T20:19:14Z</time></trkpt>
<trkpt lat="39.853046" lon="9.484776"><ele>624.31</ele><time>2022-01-03T20:19:16Z</time></trkpt>
<trkpt lat="39.8533" lon="9.484644"><ele>623.52</ele><time>2022-01-03T20:19:17Z</time></trkpt>
<trkpt lat="39.853519" lon="9.484669"><ele>619.38</ele><time>2022-01-03T20:19:19Z</time></trkpt>
<trkpt lat="39.853611" lon="9.48466"><ele>618.47</ele><time>2022-01-03T20:19:20Z</time></trkpt>
<trkpt lat="39.854141" lon="9.484313"><ele>615.53</ele><time>2022-01-03T20:19:22Z</time></trkpt>
<trkpt lat="39.854289" lon="9.484276"><ele>614.47</ele><time>2022-01-03T20:19:23Z</time></trkpt>
<trkpt lat="39.854687" lon="9.484251"><ele>609.1</ele><time>2022-01-03T20:19:25Z</time></trkpt>
<trkpt lat="39.854788" lon="9.484273"><ele>607.46</ele><time>2022-01-03T20:19:26Z</time></trkpt>
<trkpt lat="39.855138" lon="9.484441"><ele>602.05</ele><time>2022-01-03T20:19:28Z</time></trkpt>
<trkpt lat="39.855204" lon="9.48444"><ele>601.6</ele><time>2022-01-03T20:19:29Z</time></trkpt>
<trkpt lat="39.855268" lon="9.48441"><ele>601.57</ele><time>2022-01-03T20:19:31Z</time></trkpt>
<trkpt lat="39.855423" lon="9.484221"><ele>604.01</ele><time>2022-01-03T20:19:32Z</time></trkpt>
<trkpt lat="39.855556" lon="9.4842"><ele>604.28</ele><time>2022-01-03T20:19:34Z</time></trkpt>
<trkpt lat="39.855823" lon="9.484428"><ele>598.51</ele><time>2022-01-03T20:19:36Z</time></trkpt>
<trkpt lat="39.855926" lon="9.484471"><ele>598.06</ele><time>2022-01-03T20:19:37Z</time></trkpt>
<trkpt lat="39.856269" lon="9.484499"><ele>597.37</ele><time>2022-01-03T20:19:39Z</time></trkpt>
<trkpt lat="39.85641" lon="9.48448"><ele>596.43</ele><time>2022-01-03T20:19:40Z</time></trkpt>
<trkpt lat="39.856529" lon="9.48442"><ele>595.12</ele><time>2022-01-03T20:19:42Z</time></trkpt>
<trkpt lat="39.856729" lon="9.484169"><ele>597.14</ele><time>2022-01-03T20:19:43Z</time></trkpt>
<trkpt lat="39.856786" lon="9.484142"><ele>596.16</ele><time>2022-01-03T20:19:45Z</time></trkpt>
<trkpt lat="39.856837" lon="9.484126"><ele>595.18</ele><time>2022-01-03T20:19:46Z</time></trkpt>
<trkpt lat="39.857024" lon="9.484154"><ele>590.24</ele><time>2022-01-03T20:19:48Z</time></trkpt>
<trkpt lat="39.857107" lon="9.484133"><ele>589.6</ele><time>2022-01-03T20:19:49Z</time></trkpt>
<trkpt lat="39.857161" lon="9.484094"><ele>589.82</ele><time>2022-01-03T20:19:51Z</time></trkpt>
<trkpt lat="39.857313" lon="9.483914"><ele>592.08</ele><time>2022-01-03T20:19:52Z</time></trkpt>
<trkpt lat="39.857375" lon="9.483889"><ele>591.79</ele><time>2022-01-03T20:19:54Z</time></trkpt>
<trkpt lat="39.857419" lon="9.483906"><ele>590.79</ele><time>2022-01-03T20:19:55Z</time></trkpt>
<trkpt lat="39.857456" lon="9.483958"><ele>589.1</ele><time>2022-01-03T20:19:57Z</time></trkpt>
<trkpt lat="39.857475" lon="9.48402"><ele>587.48</ele><time>2022-01-03T20:19:58Z</time></trkpt>
<trkpt lat="39.857443" lon="9.484102"><ele>586.06</ele><time>2022-01-03T20:20:00Z</time></trkpt>
<trkpt lat="39.85723" lon="9.484303"><ele>583.49</ele><time>2022-01-03T20:20:02Z</time></trkpt>
<trkpt lat="39.857135" lon="9.484358"><ele>583.22</ele><time>2022-01-03T20:20:03Z</time></trkpt>
<trkpt lat="39.856984" lon="9.484393"><ele>584.02</ele><time>2022-01-03T20:20:05Z</time></trkpt>
<trkpt lat="39.856892" lon="9.48445"><ele>584.35</ele><time>2022-01-03T20:20:06Z</time></trkpt>
<trkpt lat="39.856528" lon="9.484868"><ele>581.53</ele><time>2022-01-03T20:20:08Z</time></trkpt>
<trkpt lat="39.856112" lon="9.485426"><ele>570.63</ele><time>2022-01-03T20:20:09Z</time></trkpt>
<trkpt lat="39.855894" lon="9.48553"><ele>569.89</ele><time>2022-01-03T20:20:11Z</time></trkpt>
<trkpt lat="39.855801" lon="9.485593"><ele>569.44</ele><time>2022-01-03T20:20:12Z</time></trkpt>
<trkpt lat="39.855295" lon="9.486051"><ele>563.94</ele><time>2022-01-03T20:20:14Z</time></trkpt>
<trkpt lat="39.855105" lon="9.486333"><ele>557.18</ele><time>2022-01-03T20:20:15Z</time></trkpt>
<trkpt lat="39.855041" lon="9.486383"><ele>556.39</ele><time>2022-01-03T20:20:17Z</time></trkpt>
<trkpt lat="39.854913" lon="9.48638"><ele>558.65</ele><time>2022-01-03T20:20:18Z</time></trkpt>
<trkpt lat="39.854753" lon="9.486285"><ele>564.43</ele><time>2022-01-03T20:20:20Z</time></trkpt>
<trkpt lat="39.854667" lon="9.486264"><ele>565.32</ele><time>2022-01-03T20:20:21Z</time></trkpt>
<trkpt lat="39.854579" lon="9.486295"><ele>564.03</ele><time>2022-01-03T20:20:23Z</time></trkpt>
<trkpt lat="39.8545" lon="9.486382"><ele>561.21</ele><time>2022-01-03T20:20:24Z</time></trkpt>
<trkpt lat="39.853978" lon="9.487352"><ele>545.24</ele><time>2022-01-03T20:20:26Z</time></trkpt>
<trkpt lat="39.853901" lon="9.487447"><ele>544.02</ele><time>2022-01-03T20:20:28Z</time></trkpt>
<trkpt lat="39.853817" lon="9.487499"><ele>543.54</ele><time>2022-01-03T20:20:29Z</time></trkpt>
<trkpt lat="39.853319" lon="9.487633"><ele>542.18</ele><time>2022-01-03T20:20:31Z</time></trkpt>
<trkpt lat="39.8529" lon="9.487787"><ele>540.89</ele><time>2022-01-03T20:20:32Z</time></trkpt>
<trkpt lat="39.852805" lon="9.48785"><ele>540.01</ele><time>2022-01-03T20:20:34Z</time></trkpt>
<trkpt lat="39.852714" lon="9.487978"><ele>537.64</ele><time>2022-01-03T20:20:35Z</time></trkpt>
<trkpt lat="39.852578" lon="9.488268"><ele>532.57</ele><time>2022-01-03T20:20:37Z</time></trkpt>
<trkpt lat="39.852522" lon="9.488323"><ele>531.98</ele><time>2022-01-03T20:20:38Z</time></trkpt>
<trkpt lat="39.852441" lon="9.488342"><ele>531.56</ele><time>2022-01-03T20:20:40Z</time></trkpt>
<trkpt lat="39.852357" lon="9.488317"><ele>531.84</ele><time>2022-01-03T20:20:41Z</time></trkpt>
<trkpt lat="39.852034" lon="9.488124"><ele>533.14</ele><time>2022-01-03T20:20:43Z</time></trkpt>
<trkpt lat="39.851915" lon="9.488087"><ele>532.62</ele><time>2022-01-03T20:20:44Z</time></trkpt>
<trkpt lat="39.851844" lon="9.488103"><ele>532.49</ele><time>2022-01-03T20:20:46Z</time></trkpt>
<trkpt lat="39.85151" lon="9.488208"><ele>532.1</ele><time>2022-01-03T20:20:47Z</time></trkpt>
<trkpt lat="39.851428" lon="9.488252"><ele>531.89</ele><time>2022-01-03T20:20:49Z</time></trkpt>
<trkpt lat="39.851308" lon="9.488362"><ele>529.86</ele><time>2022-01-03T20:20:50Z</time></trkpt>
<trkpt lat="39.851154" lon="9.48863"><ele>524.27</ele><time>2022-01-03T20:20:52Z</time></trkpt>
<trkpt lat="39.850915" lon="9.488902"><ele>520.08</ele><time>2022-01-03T20:20:54Z</time></trkpt>
<trkpt lat="39.850853" lon="9.488935"><ele>519.7</ele><time>2022-01-03T20:20:55Z</time></trkpt>
<trkpt lat="39.85077" lon="9.488941"><ele>519.66</ele><time>2022-01-03T20:20:57Z</time></trkpt>
<trkpt lat="39.85058" lon="9.488831"><ele>522.42</ele><time>2022-01-03T20:20:58Z</time></trkpt>
<trkpt lat="39.85051" lon="9.488826"><ele>522.37</ele><time>2022-01-03T20:21:00Z</time></trkpt>
<trkpt lat="39.850465" lon="9.488861"><ele>521.13</ele><time>2022-01-03T20:21:01Z</time></trkpt>
<trkpt lat="39.850456" lon="9.488939"><ele>518.63</ele><time>2022-01-03T20:21:03Z</time></trkpt>
<trkpt lat="39.850478" lon="9.489"><ele>516.9</ele><time>2022-01-03T20:21:04Z</time></trkpt>
<trkpt lat="39.850603" lon="9.489067"><ele>515.97</ele><time>2022-01-03T20:21:06Z</time></trkpt>
<trkpt lat="39.850947" lon="9.489138"><ele>513.91</ele><time>2022-01-03T20:21:07Z</time></trkpt>
<trkpt lat="39.851134" lon="9.489123"><ele>513.08</ele><time>2022-01-03T20:21:09Z</time></trkpt>
<trkpt lat="39.851384" lon="9.489026"><ele>514.55</ele><time>2022-01-03T20:21:10Z</time></trkpt>
<trkpt lat="39.851457" lon="9.489053"><ele>514.34</ele><time>2022-01-03T20:21:11Z</time></trkpt>
<trkpt lat="39.85152" lon="9.489194"><ele>512.41</ele><time>2022-01-03T20:21:13Z</time></trkpt>
<trkpt lat="39.851516" lon="9.489555"><ele>504.2</ele><time>2022-01-03T20:21:14Z</time></trkpt>
<trkpt lat="39.851541" lon="9.489659"><ele>501.45</ele><time>2022-01-03T20:21:16Z</time></trkpt>
<trkpt lat="39.85162" lon="9.489774"><ele>498.97</ele><time>2022-01-03T20:21:17Z</time></trkpt>
<trkpt lat="39.851739" lon="9.489842"><ele>499.02</ele><time>2022-01-03T20:21:19Z</time></trkpt>
<trkpt lat="39.852408" lon="9.489931"><ele>499.32</ele><time>2022-01-03T20:21:20Z</time></trkpt>
<trkpt lat="39.852618" lon="9.489889"><ele>497.36</ele><time>2022-01-03T20:21:22Z</time></trkpt>
<trkpt lat="39.853015" lon="9.489683"><ele>493.68</ele><time>2022-01-03T20:21:23Z</time></trkpt>
<trkpt lat="39.853376" lon="9.489522"><ele>491.78</ele><time>2022-01-03T20:21:24Z</time></trkpt>
<trkpt lat="39.85364" lon="9.489445"><ele>488.55</ele><time>2022-01-03T20:21:26Z</time></trkpt>
<trkpt lat="39.854193" lon="9.489223"><ele>486.23</ele><time>2022-01-03T20:21:27Z</time></trkpt>
<trkpt lat="39.854735" lon="9.489131"><ele>481.93</ele><time>2022-01-03T20:21:29Z</time></trkpt>
<trkpt lat="39.85508" lon="9.488942"><ele>481.26</ele><time>2022-01-03T20:21:30Z</time></trkpt>
<trkpt lat="39.85543" lon="9.488798"><ele>474.38</ele><time>2022-01-03T20:21:32Z</time></trkpt>
<trkpt lat="39.855643" lon="9.488779"><ele>471.37</ele><time>2022-01-03T20:21:33Z</time></trkpt>
<trkpt lat="39.856161" lon="9.488832"><ele>472.61</ele><time>2022-01-03T20:21:34Z</time></trkpt>
<trkpt lat="39.856715" lon="9.488964"><ele>468.88</ele><time>2022-01-03T20:21:36Z</time></trkpt>
<trkpt lat="39.856793" lon="9.489021"><ele>467.88</ele><time>2022-01-03T20:21:37Z</time></trkpt>
<trkpt lat="39.85685" lon="9.489106"><ele>466.85</ele><time>2022-01-03T20:21:39Z</time></trkpt>
<trkpt lat="39.856912" lon="9.489365"><ele>470.51</ele><time>2022-01-03T20:21:40Z</time></trkpt>
<trkpt lat="39.856914" lon="9.489447"><ele>471.64</ele><time>2022-01-03T20:21:42Z</time></trkpt>
<trkpt lat="39.856892" lon="9.489558"><ele>475.29</ele><time>2022-01-03T20:21:43Z</time></trkpt>
<trkpt lat="39.856845" lon="9.489653"><ele>477.24</ele><time>2022-01-03T20:21:44Z</time></trkpt>
<trkpt lat="39.856726" lon="9.489749"><ele>476.11</ele><time>2022-01-03T20:21:46Z</time></trkpt>
<trkpt lat="39.856567" lon="9.489824"><ele>474.87</ele><time>2022-01-03T20:21:47Z</time></trkpt>
<trkpt lat="39.856119" lon="9.489949"><ele>468.94</ele><time>2022-01-03T20:21:49Z</time></trkpt>
<trkpt lat="39.855975" lon="9.490021"><ele>468.72</ele><time>2022-01-03T20:21:50Z</time></trkpt>
<trkpt lat="39.855864" lon="9.490134"><ele>470.04</ele><time>2022-01-03T20:21:52Z</time></trkpt>
<trkpt lat="39.85575" lon="9.490524"><ele>475.95</ele><time>2022-01-03T20:21:53Z</time></trkpt>
<trkpt lat="39.855471" lon="9.490954"><ele>478.27</ele><time>2022-01-03T20:21:54Z</time></trkpt>
<trkpt lat="39.855357" lon="9.491193"><ele>480.98</ele><time>2022-01-03T20:21:56Z</time></trkpt>
<trkpt lat="39.855258" lon="9.491356"><ele>481.83</ele><time>2022-01-03T20:21:57Z</time></trkpt>
<trkpt lat="39.854993" lon="9.491622"><ele>480.22</ele><time>2022-01-03T20:21:59Z</time></trkpt>
<trkpt lat="39.85487" lon="9.491805"><ele>480.46</ele><time>2022-01-03T20:22:00Z</time></trkpt>
<trkpt lat="39.854448" lon="9.492626"><ele>482.3</ele><time>2022-01-03T20:22:02Z</time></trkpt>
<trkpt lat="39.854339" lon="9.49276"><ele>481.84</ele><time>2022-01-03T20:22:03Z</time></trkpt>
<trkpt lat="39.853888" lon="9.493111"><ele>481.19</ele><time>2022-01-03T20:22:04Z</time></trkpt>
<trkpt lat="39.853721" lon="9.493457"><ele>483.2</ele><time>2022-01-03T20:22:06Z</time></trkpt>
<trkpt lat="39.853569" lon="9.493836"><ele>484.48</ele><time>2022-01-03T20:22:07Z</time></trkpt>
<trkpt lat="39.853327" lon="9.494318"><ele>490.21</ele><time>2022-01-03T20:22:09Z</time></trkpt>
<trkpt lat="39.853221" lon="9.494471"><ele>492.29</ele><time>2022-01-03T20:22:10Z</time></trkpt>
<trkpt lat="39.853122" lon="9.494556"><ele>492.34</ele><time>2022-01-03T20:22:12Z</time></trkpt>
<trkpt lat="39.852787" lon="9.494723"><ele>489.21</ele><time>2022-01-03T20:22:13Z</time></trkpt>
<trkpt lat="39.85265" lon="9.49482"><ele>489.04</ele><time>2022-01-03T20:22:15Z</time></trkpt>
<trkpt lat="39.852539" lon="9.494955"><ele>490.55</ele><time>2022-01-03T20:22:16Z</time></trkpt>
<trkpt lat="39.852426" lon="9.495132"><ele>490.57</ele><time>2022-01-03T20:22:17Z</time></trkpt>
<trkpt lat="39.852361" lon="9.495302"><ele>491.38</ele><time>2022-01-03T20:22:19Z</time></trkpt>
<trkpt lat="39.852276" lon="9.495869"><ele>498.81</ele><time>2022-01-03T20:22:20Z</time></trkpt>
<trkpt lat="39.852248" lon="9.495961"><ele>500.09</ele><time>2022-01-03T20:22:22Z</time></trkpt>
<trkpt lat="39.852066" lon="9.496133"><ele>499.07</ele><time>2022-01-03T20:22:23Z</time></trkpt>
<trkpt lat="39.851931" lon="9.496388"><ele>501.64</ele><time>2022-01-03T20:22:25Z</time></trkpt>
<trkpt lat="39.851523" lon="9.496861"><ele>499.02</ele><time>2022-01-03T20:22:26Z</time></trkpt>
<trkpt lat="39.851392" lon="9.497065"><ele>499.68</ele><time>2022-01-03T20:22:27Z</time></trkpt>
<trkpt lat="39.851196" lon="9.497319"><ele>498.98</ele><time>2022-01-03T20:22:29Z</time></trkpt>
<trkpt lat="39.851067" lon="9.497653"><ele>504.91</ele><time>2022-01-03T20:22:30Z</time></trkpt>
<trkpt lat="39.850996" lon="9.497734"><ele>506.04</ele><time>2022-01-03T20:22:32Z</time></trkpt>
<trkpt lat="39.850906" lon="9.497801"><ele>506.62</ele><time>2022-01-03T20:22:33Z</time></trkpt>
<trkpt lat="39.850715" lon="9.497885"><ele>509.1</ele><time>2022-01-03T20:22:35Z</time></trkpt>
<trkpt lat="39.850507" lon="9.49794"><ele>511.46</ele><time>2022-01-03T20:22:36Z</time></trkpt>
<trkpt lat="39.850261" lon="9.49795"><ele>512.26</ele><time>2022-01-03T20:22:37Z</time></trkpt>
<trkpt lat="39.849696" lon="9.497905"><ele>511.07</ele><time>2022-01-03T20:22:39Z</time></trkpt>
<trkpt lat="39.849536" lon="9.497961"><ele>509.61</ele><time>2022-01-03T20:22:40Z</time></trkpt>
<trkpt lat="39.849447" lon="9.498072"><ele>512.8</ele><time>2022-01-03T20:22:42Z</time></trkpt>
<trkpt lat="39.849328" lon="9.498407"><ele>521.39</ele><time>2022-01-03T20:22:43Z</time></trkpt>
<trkpt lat="39.849278" lon="9.498474"><ele>521.15</ele><time>2022-01-03T20:22:45Z</time></trkpt>
<trkpt lat="39.849123" lon="9.498518"><ele>516.13</ele><time>2022-01-03T20:22:46Z</time></trkpt>
<trkpt lat="39.849025" lon="9.498572"><ele>514.0</ele><time>2022-01-03T20:22:47Z</time></trkpt>
<trkpt lat="39.848933" lon="9.498687"><ele>513.34</ele><time>2022-01-03T20:22:49Z</time></trkpt>
<trkpt lat="39.848859" lon="9.498825"><ele>513.68</ele><time>2022-01-03T20:22:50Z</time></trkpt>
<trkpt lat="39.848809" lon="9.498968"><ele>515.66</ele><time>2022-01-03T20:22:52Z</time></trkpt>
<trkpt lat="39.848731" lon="9.49942"><ele>523.46</ele><time>2022-01-03T20:22:53Z</time></trkpt>
<trkpt lat="39.848658" lon="9.499638"><ele>525.09</ele><time>2022-01-03T20:22:55Z</time></trkpt>
<trkpt lat="39.848536" lon="9.499875"><ele>527.14</ele><time>2022-01-03T20:22:56Z</time></trkpt>
<trkpt lat="39.848325" lon="9.50014"><ele>528.38</ele><time>2022-01-03T20:22:58Z</time></trkpt>
<trkpt lat="39.848156" lon="9.50041"><ele>536.84</ele><time>2022-01-03T20:22:59Z</time></trkpt>
<trkpt lat="39.84805" lon="9.500479"><ele>538.13</ele><time>2022-01-03T20:23:00Z</time></trkpt>
<trkpt lat="39.847995" lon="9.500481"><ele>538.09</ele><time>2022-01-03T20:23:02Z</time></trkpt>
<trkpt lat="39.847918" lon="9.500448"><ele>536.3</ele><time>2022-01-03T20:23:03Z</time></trkpt>
<trkpt lat="39.8478" lon="9.500351"><ele>531.46</ele><time>2022-01-03T20:23:05Z</time></trkpt>
<trkpt lat="39.847733" lon="9.500317"><ele>529.2</ele><time>2022-01-03T20:23:06Z</time></trkpt>
<trkpt lat="39.847667" lon="9.500306"><ele>527.7</ele><time>2022-01-03T20:23:08Z</time></trkpt>
<trkpt lat="39.847585" lon="9.500339"><ele>527.93</ele><time>2022-01-03T20:23:09Z</time></trkpt>
<trkpt lat="39.847504" lon="9.500416"><ele>530.04</ele><time>2022-01-03T20:23:10Z</time></trkpt>
<trkpt lat="39.847389" lon="9.500611"><ele>535.22</ele><time>2022-01-03T20:23:12Z</time></trkpt>
<trkpt lat="39.847276" lon="9.500849"><ele>539.61</ele><time>2022-01-03T20:23:13Z</time></trkpt>
<trkpt lat="39.847218" lon="9.500926"><ele>540.59</ele><time>2022-01-03T20:23:15Z</time></trkpt>
<trkpt lat="39.847105" lon="9.50103"><ele>541.26</ele><time>2022-01-03T20:23:16Z</time></trkpt>
<trkpt lat="39.846942" lon="9.501133"><ele>540.62</ele><time>2022-01-03T20:23:18Z</time></trkpt>
<trkpt lat="39.846864" lon="9.501163"><ele>541.14</ele><time>2022-01-03T20:23:19Z</time></trkpt>
<trkpt lat="39.846327" lon="9.50127"><ele>542.12</ele><time>2022-01-03T20:23:20Z</time></trkpt>
<trkpt lat="39.846266" lon="9.501308"><ele>542.8</ele><time>2022-01-03T20:23:22Z</time></trkpt>
<trkpt lat="39.846236" lon="9.501384"><ele>544.76</ele><time>2022-01-03T20:23:23Z</time></trkpt>
<trkpt lat="39.846229" lon="9.501461"><ele>546.97</ele><time>2022-01-03T20:23:25Z</time></trkpt>
<trkpt lat="39.846241" lon="9.501548"><ele>549.55</ele><time>2022-01-03T20:23:26Z</time></trkpt>
<trkpt lat="39.846269" lon="9.501599"><ele>551.07</ele><time>2022-01-03T20:23:28Z</time></trkpt>
<trkpt lat="39.84634" lon="9.501642"><ele>552.34</ele><time>2022-01-03T20:23:29Z</time></trkpt>
<trkpt lat="39.846854" lon="9.501551"><ele>552.82</ele><time>2022-01-03T20:23:30Z</time></trkpt>
<trkpt lat="39.847101" lon="9.501481"><ele>554.68</ele><time>2022-01-03T20:23:32Z</time></trkpt>
<trkpt lat="39.847207" lon="9.50142"><ele>554.78</ele><time>2022-01-03T20:23:33Z</time></trkpt>
<trkpt lat="39.847343" lon="9.501278"><ele>553.67</ele><time>2022-01-03T20:23:35Z</time></trkpt>
<trkpt lat="39.847606" lon="9.500877"><ele>547.94</ele><time>2022-01-03T20:23:36Z</time></trkpt>
<trkpt lat="39.847666" lon="9.500816"><ele>547.6</ele><time>2022-01-03T20:23:38Z</time></trkpt>
<trkpt lat="39.847756" lon="9.500798"><ele>549.21</ele><time>2022-01-03T20:23:39Z</time></trkpt>
<trkpt lat="39.847844" lon="9.500832"><ele>551.44</ele><time>2022-01-03T20:23:41Z</time></trkpt>
<trkpt lat="39.84803" lon="9.501223"><ele>566.48</ele><time>2022-01-03T20:23:42Z</time></trkpt>
<trkpt lat="39.848107" lon="9.501265"><ele>569.65</ele><time>2022-01-03T20:23:43Z</time></trkpt>
<trkpt lat="39.848219" lon="9.501164"><ele>567.71</ele><time>2022-01-03T20:23:45Z</time></trkpt>
<trkpt lat="39.848297" lon="9.501019"><ele>563.94</ele><time>2022-01-03T20:23:46Z</time></trkpt>
<trkpt lat="39.848378" lon="9.500945"><ele>562.82</ele><time>2022-01-03T20:23:48Z</time></trkpt>
<trkpt lat="39.84932" lon="9.50034"><ele>568.64</ele><time>2022-01-03T20:23:49Z</time></trkpt>
<trkpt lat="39.849542" lon="9.500038"><ele>568.75</ele><time>2022-01-03T20:23:51Z</time></trkpt>
<trkpt lat="39.849647" lon="9.499923"><ele>569.24</ele><time>2022-01-03T20:23:52Z</time></trkpt>
<trkpt lat="39.849788" lon="9.49984"><ele>571.68</ele><time>2022-01-03T20:23:53Z</time></trkpt>
<trkpt lat="39.850254" lon="9.499635"><ele>579.31</ele><time>2022-01-03T20:23:55Z</time></trkpt>
<trkpt lat="39.85049" lon="9.499562"><ele>578.8</ele><time>2022-01-03T20:23:56Z</time></trkpt>
<trkpt lat="39.85062" lon="9.499554"><ele>578.88</ele><time>2022-01-03T20:23:58Z</time></trkpt>
<trkpt lat="39.85085" lon="9.499587"><ele>580.64</ele><time>2022-01-03T20:23:59Z</time></trkpt>
<trkpt lat="39.851856" lon="9.499822"><ele>592.87</ele><time>2022-01-03T20:24:01Z</time></trkpt>
<trkpt lat="39.852206" lon="9.499849"><ele>596.58</ele><time>2022-01-03T20:24:02Z</time></trkpt>
<trkpt lat="39.852299" lon="9.499821"><ele>597.43</ele><time>2022-01-03T20:24:03Z</time></trkpt>
<trkpt lat="39.852356" lon="9.499782"><ele>597.42</ele><time>2022-01-03T20:24:05Z</time></trkpt>
<trkpt lat="39.852596" lon="9.499395"><ele>595.36</ele><time>2022-01-03T20:24:06Z</time></trkpt>
<trkpt lat="39.852638" lon="9.499363"><ele>595.67</ele><time>2022-01-03T20:24:08Z</time></trkpt>
<trkpt lat="39.852733" lon="9.499365"><ele>597.45</ele><time>2022-01-03T20:24:09Z</time></trkpt>
<trkpt lat="39.852774" lon="9.499396"><ele>598.9</ele><time>2022-01-03T20:24:11Z</time></trkpt>
<trkpt lat="39.852804" lon="9.499447"><ele>600.69</ele><time>2022-01-03T20:24:12Z</time></trkpt>
<trkpt lat="39.852818" lon="9.499535"><ele>602.68</ele><time>2022-01-03T20:24:13Z</time></trkpt>
<trkpt lat="39.852796" lon="9.499615"><ele>603.58</ele><time>2022-01-03T20:24:15Z</time></trkpt>
<trkpt lat="39.85273" lon="9.499733"><ele>604.13</ele><time>2022-01-03T20:24:16Z</time></trkpt>
<trkpt lat="39.852424" lon="9.500143"><ele>608.48</ele><time>2022-01-03T20:24:18Z</time></trkpt>
<trkpt lat="39.85233" lon="9.500234"><ele>609.07</ele><time>2022-01-03T20:24:19Z</time></trkpt>
<trkpt lat="39.852256" lon="9.500277"><ele>608.71</ele><time>2022-01-03T20:24:21Z</time></trkpt>
<trkpt lat="39.852001" lon="9.50032"><ele>607.92</ele><time>2022-01-03T20:24:22Z</time></trkpt>
<trkpt lat="39.851846" lon="9.500369"><ele>608.0</ele><time>2022-01-03T20:24:23Z</time></trkpt>
<trkpt lat="39.851576" lon="9.50049"><ele>607.95</ele><time>2022-01-03T20:24:25Z</time></trkpt>
<trkpt lat="39.851403" lon="9.500597"><ele>608.55</ele><time>2022-01-03T20:24:26Z</time></trkpt>
<trkpt lat="39.851206" lon="9.500777"><ele>613.66</ele><time>2022-01-03T20:24:28Z</time></trkpt>
<trkpt lat="39.851133" lon="9.500797"><ele>614.01</ele><time>2022-01-03T20:24:29Z</time></trkpt>
<trkpt lat="39.850674" lon="9.500627"><ele>612.21</ele><time>2022-01-03T20:24:31Z</time></trkpt>
<trkpt lat="39.850588" lon="9.500614"><ele>611.86</ele><time>2022-01-03T20:24:32Z</time></trkpt>
<trkpt lat="39.850508" lon="9.500636"><ele>611.63</ele><time>2022-01-03T20:24:34Z</time></trkpt>
<trkpt lat="39.850341" lon="9.500761"><ele>612.59</ele><time>2022-01-03T20:24:35Z</time></trkpt>
<trkpt lat="39.850201" lon="9.500904"><ele>614.11</ele><time>2022-01-03T20:24:36Z</time></trkpt>
<trkpt lat="39.849981" lon="9.501332"><ele>624.02</ele><time>2022-01-03T20:24:38Z</time></trkpt>
<trkpt lat="39.849909" lon="9.501422"><ele>624.48</ele><time>2022-01-03T20:24:39Z</time></trkpt>
<trkpt lat="39.849804" lon="9.501526"><ele>624.23</ele><time>2022-01-03T20:24:41Z</time></trkpt>
<trkpt lat="39.849598" lon="9.50165"><ele>622.33</ele><time>2022-01-03T20:24:42Z</time></trkpt>
<trkpt lat="39.849486" lon="9.501761"><ele>622.06</ele><time>2022-01-03T20:24:44Z</time></trkpt>
<trkpt lat="39.849421" lon="9.501891"><ele>623.88</ele><time>2022-01-03T20:24:45Z</time></trkpt>
<trkpt lat="39.849392" lon="9.50204"><ele>626.41</ele><time>2022-01-03T20:24:46Z</time></trkpt>
<trkpt lat="39.849379" lon="9.50248"><ele>632.35</ele><time>2022-01-03T20:24:48Z</time></trkpt>
<trkpt lat="39.849312" lon="9.502702"><ele>635.52</ele><time>2022-01-03T20:24:49Z</time></trkpt>
<trkpt lat="39.849225" lon="9.502857"><ele>637.82</ele><time>2022-01-03T20:24:51Z</time></trkpt>
<trkpt lat="39.848161" lon="9.503953"><ele>651.97</ele><time>2022-01-03T20:24:52Z</time></trkpt>
<trkpt lat="39.848056" lon="9.504016"><ele>652.66</ele><time>2022-01-03T20:24:54Z</time></trkpt>
<trkpt lat="39.847704" lon="9.504098"><ele>647.02</ele><time>2022-01-03T20:24:55Z</time></trkpt>
<trkpt lat="39.847623" lon="9.504132"><ele>645.23</ele><time>2022-01-03T20:24:56Z</time></trkpt>
<trkpt lat="39.847585" lon="9.504171"><ele>644.81</ele><time>2022-01-03T20:24:58Z</time></trkpt>
<trkpt lat="39.847554" lon="9.504268"><ele>645.21</ele><time>2022-01-03T20:24:59Z</time></trkpt>
<trkpt lat="39.847577" lon="9.504442"><ele>648.45</ele><time>2022-01-03T20:25:01Z</time></trkpt>
<trkpt lat="39.847612" lon="9.504549"><ele>650.6</ele><time>2022-01-03T20:25:02Z</time></trkpt>
<trkpt lat="39.847915" lon="9.505107"><ele>664.24</ele><time>2022-01-03T20:25:04Z</time></trkpt>
<trkpt lat="39.84792" lon="9.505206"><ele>665.06</ele><time>2022-01-03T20:25:05Z</time></trkpt>
<trkpt lat="39.84788" lon="9.505291"><ele>664.99</ele><time>2022-01-03T20:25:06Z</time></trkpt>
<trkpt lat="39.84781" lon="9.505328"><ele>664.26</ele><time>2022-01-03T20:25:08Z</time></trkpt>
<trkpt lat="39.847736" lon="9.505305"><ele>662.81</ele><time>2022-01-03T20:25:09Z</time></trkpt>
<trkpt lat="39.847618" lon="9.505211"><ele>659.57</ele><time>2022-01-03T20:25:11Z</time></trkpt>
<trkpt lat="39.84752" lon="9.505237"><ele>658.44</ele><time>2022-01-03T20:25:12Z</time></trkpt>
<trkpt lat="39.84748" lon="9.505298"><ele>659.22</ele><time>2022-01-03T20:25:14Z</time></trkpt>
<trkpt lat="39.847436" lon="9.505483"><ele>662.74</ele><time>2022-01-03T20:25:15Z</time></trkpt>
<trkpt lat="39.847442" lon="9.505554"><ele>664.35</ele><time>2022-01-03T20:25:17Z</time></trkpt>
<trkpt lat="39.847482" lon="9.505624"><ele>666.04</ele><time>2022-01-03T20:25:18Z</time></trkpt>
<trkpt lat="39.847464" lon="9.50601"><ele>672.15</ele><time>2022-01-03T20:25:25Z</time></trkpt>
<trkpt lat="39.847447" lon="9.506036"><ele>672.35</ele><time>2022-01-03T20:25:32Z</time></trkpt>
<trkpt lat="39.847012" lon="9.506281"><ele>670.72</ele><time>2022-01-03T20:25:40Z</time></trkpt>
<trkpt lat="39.844911" lon="9.508071"><ele>662.41</ele><time>2022-01-03T20:25:47Z</time></trkpt>
<trkpt lat="39.844884" lon="9.508135"><ele>661.42</ele><time>2022-01-03T20:25:54Z</time></trkpt>
<trkpt lat="39.84489" lon="9.508204"><ele>661.4</ele><time>2022-01-03T20:26:01Z</time></trkpt>
<trkpt lat="39.845139" lon="9.508612"><ele>667.51</ele><time>2022-01-03T20:26:08Z</time></trkpt>
<trkpt lat="39.845155" lon="9.508987"><ele>665.42</ele><time>2022-01-03T20:26:10Z</time></trkpt>
<trkpt lat="39.84513" lon="9.509171"><ele>663.16</ele><time>2022-01-03T20:26:12Z</time></trkpt>
<trkpt lat="39.844609" lon="9.510346"><ele>658.72</ele><time>2022-01-03T20:26:14Z</time></trkpt>
<trkpt lat="39.844406" lon="9.510755"><ele>660.71</ele><time>2022-01-03T20:26:16Z</time></trkpt>
<trkpt lat="39.844348" lon="9.510826"><ele>660.69</ele><time>2022-01-03T20:26:18Z</time></trkpt>
<trkpt lat="39.844269" lon="9.510866"><ele>659.32</ele><time>2022-01-03T20:26:20Z</time></trkpt>
<trkpt lat="39.843247" lon="9.511018"><ele>643.49</ele><time>2022-01-03T20:26:22Z</time></trkpt>
<trkpt lat="39.843137" lon="9.511073"><ele>646.25</ele><time>2022-01-03T20:26:24Z</time></trkpt>
<trkpt lat="39.842545" lon="9.511663"><ele>648.05</ele><time>2022-01-03T20:26:26Z</time></trkpt>
<trkpt lat="39.842383" lon="9.511777"><ele>646.57</ele><time>2022-01-03T20:26:28Z</time></trkpt>
<trkpt lat="39.842307" lon="9.51178"><ele>645.32</ele><time>2022-01-03T20:26:30Z</time></trkpt>
<trkpt lat="39.842248" lon="9.511761"><ele>643.84</ele><time>2022-01-03T20:26:32Z</time></trkpt>
<trkpt lat="39.842137" lon="9.511649"><ele>640.35</ele><time>2022-01-03T20:26:34Z</time></trkpt>
<trkpt lat="39.841679" lon="9.51105"><ele>630.43</ele><time>2022-01-03T20:26:36Z</time></trkpt>
<trkpt lat="39.841627" lon="9.511021"><ele>629.48</ele><time>2022-01-03T20:26:38Z</time></trkpt>
<trkpt lat="39.841554" lon="9.511015"><ele>628.91</ele><time>2022-01-03T20:26:40Z</time></trkpt>
<trkpt lat="39.841438" lon="9.51108"><ele>629.66</ele><time>2022-01-03T20:26:42Z</time></trkpt>
<trkpt lat="39.841345" lon="9.51125"><ele>630.74</ele><time>2022-01-03T20:26:44Z</time></trkpt>
<trkpt lat="39.840868" lon="9.512291"><ele>626.69</ele><time>2022-01-03T20:26:46Z</time></trkpt>
<trkpt lat="39.840047" lon="9.513336"><ele>614.05</ele><time>2022-01-03T20:26:48Z</time></trkpt>
<trkpt lat="39.83988" lon="9.51369"><ele>609.68</ele><time>2022-01-03T20:26:50Z</time></trkpt>
<trkpt lat="39.839715" lon="9.514765"><ele>610.11</ele><time>2022-01-03T20:26:52Z</time></trkpt>
<trkpt lat="39.83961" lon="9.514968"><ele>609.27</ele><time>2022-01-03T20:26:54Z</time></trkpt>
<trkpt lat="39.8395" lon="9.515"><ele>607.2</ele><time>2022-01-03T20:26:56Z</time></trkpt>
<trkpt lat="39.838543" lon="9.514632"><ele>590.33</ele><time>2022-01-03T20:26:58Z</time></trkpt>
<trkpt lat="39.838334" lon="9.514646"><ele>590.54</ele><time>2022-01-03T20:27:00Z</time></trkpt>
<trkpt lat="39.838016" lon="9.514755"><ele>588.78</ele><time>2022-01-03T20:27:02Z</time></trkpt>
<trkpt lat="39.837183" lon="9.515238"><ele>578.04</ele><time>2022-01-03T20:27:04Z</time></trkpt>
<trkpt lat="39.837094" lon="9.515336"><ele>577.47</ele><time>2022-01-03T20:27:06Z</time></trkpt>
<trkpt lat="39.837016" lon="9.515469"><ele>577.68</ele><time>2022-01-03T20:27:08Z</time></trkpt>
<trkpt lat="39.836557" lon="9.516385"><ele>578.56</ele><time>2022-01-03T20:27:10Z</time></trkpt>
<trkpt lat="39.836416" lon="9.516559"><ele>579.27</ele><time>2022-01-03T20:27:12Z</time></trkpt>
<trkpt lat="39.834674" lon="9.517993"><ele>560.3</ele><time>2022-01-03T20:27:14Z</time></trkpt>
<trkpt lat="39.834602" lon="9.518095"><ele>559.29</ele><time>2022-01-03T20:27:16Z</time></trkpt>
<trkpt lat="39.8344" lon="9.51861"><ele>563.0</ele><time>2022-01-03T20:27:18Z</time></trkpt>
<trkpt lat="39.834308" lon="9.51868"><ele>562.55</ele><time>2022-01-03T20:27:20Z</time></trkpt>
<trkpt lat="39.834201" lon="9.518672"><ele>559.9</ele><time>2022-01-03T20:27:22Z</time></trkpt>
<trkpt lat="39.83369" lon="9.518543"><ele>549.33</ele><time>2022-01-03T20:27:24Z</time></trkpt>
<trkpt lat="39.833585" lon="9.518554"><ele>547.98</ele><time>2022-01-03T20:27:26Z</time></trkpt>
<trkpt lat="39.833241" lon="9.518781"><ele>548.71</ele><time>2022-01-03T20:27:28Z</time></trkpt>
<trkpt lat="39.832913" lon="9.519047"><ele>547.97</ele><time>2022-01-03T20:27:30Z</time></trkpt>
<trkpt lat="39.832701" lon="9.519175"><ele>546.58</ele><time>2022-01-03T20:27:32Z</time></trkpt>
<trkpt lat="39.831894" lon="9.519468"><ele>542.65</ele><time>2022-01-03T20:27:34Z</time></trkpt>
<trkpt lat="39.831744" lon="9.519541"><ele>541.54</ele><time>2022-01-03T20:27:36Z</time></trkpt>
<trkpt lat="39.831566" lon="9.519681"><ele>540.19</ele><time>2022-01-03T20:27:38Z</time></trkpt>
<trkpt lat="39.831378" lon="9.519965"><ele>538.9</ele><time>2022-01-03T20:27:40Z</time></trkpt>
<trkpt lat="39.830891" lon="9.521386"><ele>531.48</ele><time>2022-01-03T20:27:42Z</time></trkpt>
<trkpt lat="39.830093" lon="9.522391"><ele>527.04</ele><time>2022-01-03T20:27:44Z</time></trkpt>
<trkpt lat="39.829872" lon="9.522605"><ele>525.33</ele><time>2022-01-03T20:27:46Z</time></trkpt>
<trkpt lat="39.829716" lon="9.522622"><ele>521.99</ele><time>2022-01-03T20:27:48Z</time></trkpt>
<trkpt lat="39.829482" lon="9.522601"><ele>513.26</ele><time>2022-01-03T20:27:50Z</time></trkpt>
<trkpt lat="39.829334" lon="9.522615"><ele>510.4</ele><time>2022-01-03T20:27:52Z</time></trkpt>
<trkpt lat="39.829219" lon="9.522699"><ele>510.32</ele><time>2022-01-03T20:27:54Z</time></trkpt>
<trkpt lat="39.829052" lon="9.523053"><ele>513.89</ele><time>2022-01-03T20:27:56Z</time></trkpt>
<trkpt lat="39.828985" lon="9.523134"><ele>514.41</ele><time>2022-01-03T20:27:58Z</time></trkpt>
<trkpt lat="39.827866" lon="9.52355"><ele>501.54</ele><time>2022-01-03T20:28:00Z</time></trkpt>
<trkpt lat="39.827664" lon="9.523659"><ele>500.55</ele><time>2022-01-03T20:28:02Z</time></trkpt>
<trkpt lat="39.826694" lon="9.524453"><ele>491.88</ele><time>2022-01-03T20:28:04Z</time></trkpt>
<trkpt lat="39.826137" lon="9.525105"><ele>484.61</ele><time>2022-01-03T20:28:06Z</time></trkpt>
<trkpt lat="39.825976" lon="9.525332"><ele>484.18</ele><time>2022-01-03T20:28:08Z</time></trkpt>
<trkpt lat="39.825766" lon="9.525756"><ele>480.41</ele><time>2022-01-03T20:28:10Z</time></trkpt>
<trkpt lat="39.825607" lon="9.52612"><ele>479.2</ele><time>2022-01-03T20:28:12Z</time></trkpt>
<trkpt lat="39.825492" lon="9.526337"><ele>479.36</ele><time>2022-01-03T20:28:14Z</time></trkpt>
<trkpt lat="39.825333" lon="9.526509"><ele>477.23</ele><time>2022-01-03T20:28:15Z</time></trkpt>
<trkpt lat="39.824653" lon="9.527072"><ele>469.65</ele><time>2022-01-03T20:28:17Z</time></trkpt>
<trkpt lat="39.823967" lon="9.527899"><ele>467.89</ele><time>2022-01-03T20:28:19Z</time></trkpt>
<trkpt lat="39.823792" lon="9.528014"><ele>466.33</ele><time>2022-01-03T20:28:21Z</time></trkpt>
<trkpt lat="39.823448" lon="9.528133"><ele>462.09</ele><time>2022-01-03T20:28:23Z</time></trkpt>
<trkpt lat="39.823273" lon="9.528242"><ele>460.08</ele><time>2022-01-03T20:28:25Z</time></trkpt>
<trkpt lat="39.823193" lon="9.528379"><ele>460.09</ele><time>2022-01-03T20:28:27Z</time></trkpt>
<trkpt lat="39.822986" lon="9.528998"><ele>460.9</ele><time>2022-01-03T20:28:29Z</time></trkpt>
<trkpt lat="39.822862" lon="9.529142"><ele>460.55</ele><time>2022-01-03T20:28:31Z</time></trkpt>
<trkpt lat="39.822262" lon="9.529534"><ele>456.79</ele><time>2022-01-03T20:28:33Z</time></trkpt>
<trkpt lat="39.819651" lon="9.531771"><ele>443.25</ele><time>2022-01-03T20:28:35Z</time></trkpt>
<trkpt lat="39.819111" lon="9.532216"><ele>444.0</ele><time>2022-01-03T20:28:37Z</time></trkpt>
<trkpt lat="39.818648" lon="9.532514"><ele>440.0</ele><time>2022-01-03T20:28:39Z</time></trkpt>
<trkpt lat="39.818398" lon="9.532706"><ele>440.35</ele><time>2022-01-03T20:28:41Z</time></trkpt>
<trkpt lat="39.817537" lon="9.53362"><ele>440.97</ele><time>2022-01-03T20:28:43Z</time></trkpt>
<trkpt lat="39.816257" lon="9.534621"><ele>439.56</ele><time>2022-01-03T20:28:45Z</time></trkpt>
<trkpt lat="39.816115" lon="9.534793"><ele>438.88</ele><time>2022-01-03T20:28:47Z</time></trkpt>
<trkpt lat="39.815977" lon="9.535024"><ele>439.53</ele><time>2022-01-03T20:28:49Z</time></trkpt>
<trkpt lat="39.815829" lon="9.535478"><ele>440.0</ele><time>2022-01-03T20:28:51Z</time></trkpt>
<trkpt lat="39.815699" lon="9.536065"><ele>440.84</ele><time>2022-01-03T20:28:53Z</time></trkpt>
<trkpt lat="39.815673" lon="9.536213"><ele>440.32</ele><time>2022-01-03T20:28:55Z</time></trkpt>
<trkpt lat="39.815671" lon="9.536484"><ele>439.9</ele><time>2022-01-03T20:28:57Z</time></trkpt>
<trkpt lat="39.815746" lon="9.537261"><ele>441.4</ele><time>2022-01-03T20:28:59Z</time></trkpt>
<trkpt lat="39.815741" lon="9.537394"><ele>442.24</ele><time>2022-01-03T20:29:01Z</time></trkpt>
<trkpt lat="39.815708" lon="9.537527"><ele>442.74</ele><time>2022-01-03T20:29:03Z</time></trkpt>
<trkpt lat="39.815663" lon="9.537597"><ele>442.93</ele><time>2022-01-03T20:29:05Z</time></trkpt>
<trkpt lat="39.815354" lon="9.53771"><ele>437.86</ele><time>2022-01-03T20:29:07Z</time></trkpt>
<trkpt lat="39.815251" lon="9.537769"><ele>436.01</ele><time>2022-01-03T20:29:09Z</time></trkpt>
<trkpt lat="39.815138" lon="9.537902"><ele>435.39</ele><time>2022-01-03T20:29:11Z</time></trkpt>
<trkpt lat="39.814646" lon="9.539051"><ele>441.83</ele><time>2022-01-03T20:29:13Z</time></trkpt>
<trkpt lat="39.81456" lon="9.539205"><ele>442.2</ele><time>2022-01-03T20:29:15Z</time></trkpt>
<trkpt lat="39.814455" lon="9.539331"><ele>441.87</ele><time>2022-01-03T20:29:17Z</time></trkpt>
<trkpt lat="39.814307" lon="9.539422"><ele>439.55</ele><time>2022-01-03T20:29:19Z</time></trkpt>
<trkpt lat="39.812788" lon="9.540125"><ele>430.88</ele><time>2022-01-03T20:29:21Z</time></trkpt>
<trkpt lat="39.812473" lon="9.540216"><ele>428.37</ele><time>2022-01-03T20:29:23Z</time></trkpt>
<trkpt lat="39.81198" lon="9.540238"><ele>422.15</ele><time>2022-01-03T20:29:25Z</time></trkpt>
<trkpt lat="39.811846" lon="9.540301"><ele>421.43</ele><time>2022-01-03T20:29:27Z</time></trkpt>
<trkpt lat="39.810309" lon="9.541357"><ele>417.09</ele><time>2022-01-03T20:29:29Z</time></trkpt>
<trkpt lat="39.809948" lon="9.541624"><ele>414.7</ele><time>2022-01-03T20:29:31Z</time></trkpt>
<trkpt lat="39.809689" lon="9.541943"><ele>412.92</ele><time>2022-01-03T20:29:33Z</time></trkpt>
<trkpt lat="39.809603" lon="9.542149"><ele>410.99</ele><time>2022-01-03T20:29:35Z</time></trkpt>
<trkpt lat="39.809477" lon="9.542695"><ele>411.22</ele><time>2022-01-03T20:29:37Z</time></trkpt>
<trkpt lat="39.809412" lon="9.542846"><ele>410.2</ele><time>2022-01-03T20:29:39Z</time></trkpt>
<trkpt lat="39.809256" lon="9.543077"><ele>406.83</ele><time>2022-01-03T20:29:41Z</time></trkpt>
<trkpt lat="39.808538" lon="9.544036"><ele>393.22</ele><time>2022-01-03T20:29:43Z</time></trkpt>
<trkpt lat="39.80849" lon="9.544141"><ele>392.76</ele><time>2022-01-03T20:29:45Z</time></trkpt>
<trkpt lat="39.808474" lon="9.544278"><ele>392.33</ele><time>2022-01-03T20:29:47Z</time></trkpt>
<trkpt lat="39.808503" lon="9.544386"><ele>392.62</ele><time>2022-01-03T20:29:49Z</time></trkpt>
<trkpt lat="39.808568" lon="9.544495"><ele>392.47</ele><time>2022-01-03T20:29:51Z</time></trkpt>
<trkpt lat="39.80948" lon="9.545346"><ele>380.41</ele><time>2022-01-03T20:29:53Z</time></trkpt>
<trkpt lat="39.809539" lon="9.545426"><ele>378.98</ele><time>2022-01-03T20:29:55Z</time></trkpt>
<trkpt lat="39.809625" lon="9.545651"><ele>376.67</ele><time>2022-01-03T20:29:57Z</time></trkpt>
<trkpt lat="39.809929" lon="9.546967"><ele>366.26</ele><time>2022-01-03T20:29:59Z</time></trkpt>
<trkpt lat="39.810036" lon="9.547198"><ele>365.45</ele><time>2022-01-03T20:30:01Z</time></trkpt>
<trkpt lat="39.81014" lon="9.547281"><ele>362.44</ele><time>2022-01-03T20:30:03Z</time></trkpt>
<trkpt lat="39.810262" lon="9.547265"><ele>360.02</ele><time>2022-01-03T20:30:05Z</time></trkpt>
<trkpt lat="39.810377" lon="9.547205"><ele>357.6</ele><time>2022-01-03T20:30:07Z</time></trkpt>
<trkpt lat="39.810719" lon="9.546784"><ele>358.97</ele><time>2022-01-03T20:30:09Z</time></trkpt>
<trkpt lat="39.810905" lon="9.54648"><ele>356.89</ele><time>2022-01-03T20:30:11Z</time></trkpt>
<trkpt lat="39.810964" lon="9.546312"><ele>355.97</ele><time>2022-01-03T20:30:13Z</time></trkpt>
<trkpt lat="39.811204" lon="9.545346"><ele>357.93</ele><time>2022-01-03T20:30:15Z</time></trkpt>
<trkpt lat="39.811273" lon="9.545188"><ele>357.68</ele><time>2022-01-03T20:30:17Z</time></trkpt>
<trkpt lat="39.811365" lon="9.545115"><ele>356.23</ele><time>2022-01-03T20:30:19Z</time></trkpt>
<trkpt lat="39.81143" lon="9.545101"><ele>356.2</ele><time>2022-01-03T20:30:21Z</time></trkpt>
<trkpt lat="39.811525" lon="9.545132"><ele>356.18</ele><time>2022-01-03T20:30:23Z</time></trkpt>
<trkpt lat="39.81236" lon="9.545804"><ele>330.05</ele><time>2022-01-03T20:30:25Z</time></trkpt>
<trkpt lat="39.812433" lon="9.545804"><ele>329.52</ele><time>2022-01-03T20:30:27Z</time></trkpt>
<trkpt lat="39.812527" lon="9.545756"><ele>330.55</ele><time>2022-01-03T20:30:29Z</time></trkpt>
<trkpt lat="39.812863" lon="9.545509"><ele>336.53</ele><time>2022-01-03T20:30:31Z</time></trkpt>
<trkpt lat="39.812952" lon="9.545482"><ele>337.72</ele><time>2022-01-03T20:30:33Z</time></trkpt>
<trkpt lat="39.813084" lon="9.545509"><ele>337.03</ele><time>2022-01-03T20:30:35Z</time></trkpt>
<trkpt lat="39.813189" lon="9.545556"><ele>338.3</ele><time>2022-01-03T20:30:36Z</time></trkpt>
<trkpt lat="39.813272" lon="9.545703"><ele>337.83</ele><time>2022-01-03T20:30:38Z</time></trkpt>
<trkpt lat="39.813444" lon="9.547289"><ele>312.72</ele><time>2022-01-03T20:30:40Z</time></trkpt>
<trkpt lat="39.813471" lon="9.547419"><ele>309.24</ele><time>2022-01-03T20:30:42Z</time></trkpt>
<trkpt lat="39.813522" lon="9.547548"><ele>306.83</ele><time>2022-01-03T20:30:44Z</time></trkpt>
<trkpt lat="39.8136" lon="9.547625"><ele>306.67</ele><time>2022-01-03T20:30:46Z</time></trkpt>
<trkpt lat="39.813734" lon="9.547699"><ele>307.89</ele><time>2022-01-03T20:30:48Z</time></trkpt>
<trkpt lat="39.813893" lon="9.547748"><ele>310.33</ele><time>2022-01-03T20:30:50Z</time></trkpt>
<trkpt lat="39.81403" lon="9.547832"><ele>312.22</ele><time>2022-01-03T20:30:52Z</time></trkpt>
<trkpt lat="39.81414" lon="9.548004"><ele>311.42</ele><time>2022-01-03T20:30:54Z</time></trkpt>
<trkpt lat="39.814512" lon="9.549047"><ele>287.44</ele><time>2022-01-03T20:30:56Z</time></trkpt>
<trkpt lat="39.814552" lon="9.549134"><ele>285.42</ele><time>2022-01-03T20:30:58Z</time></trkpt>
<trkpt lat="39.814646" lon="9.549208"><ele>285.09</ele><time>2022-01-03T20:31:00Z</time></trkpt>
<trkpt lat="39.814769" lon="9.549208"><ele>287.01</ele><time>2022-01-03T20:31:02Z</time></trkpt>
<trkpt lat="39.814878" lon="9.549082"><ele>291.1</ele><time>2022-01-03T20:31:04Z</time></trkpt>
<trkpt lat="39.815159" lon="9.548515"><ele>298.85</ele><time>2022-01-03T20:31:06Z</time></trkpt>
<trkpt lat="39.815268" lon="9.548421"><ele>296.17</ele><time>2022-01-03T20:31:08Z</time></trkpt>
<trkpt lat="39.81588" lon="9.548169"><ele>290.58</ele><time>2022-01-03T20:31:10Z</time></trkpt>
<trkpt lat="39.816186" lon="9.54788"><ele>291.67</ele><time>2022-01-03T20:31:12Z</time></trkpt>
<trkpt lat="39.816349" lon="9.547819"><ele>286.49</ele><time>2022-01-03T20:31:14Z</time></trkpt>
<trkpt lat="39.816497" lon="9.547886"><ele>280.86</ele><time>2022-01-03T20:31:16Z</time></trkpt>
<trkpt lat="39.817506" lon="9.548611"><ele>273.17</ele><time>2022-01-03T20:31:18Z</time></trkpt>
<trkpt lat="39.817584" lon="9.548704"><ele>274.18</ele><time>2022-01-03T20:31:20Z</time></trkpt>
<trkpt lat="39.817608" lon="9.548795"><ele>273.32</ele><time>2022-01-03T20:31:22Z</time></trkpt>
<trkpt lat="39.817628" lon="9.548998"><ele>271.05</ele><time>2022-01-03T20:31:24Z</time></trkpt>
<trkpt lat="39.817624" lon="9.549119"><ele>269.63</ele><time>2022-01-03T20:31:26Z</time></trkpt>
<trkpt lat="39.817588" lon="9.549264"><ele>268.45</ele><time>2022-01-03T20:31:28Z</time></trkpt>
<trkpt lat="39.817076" lon="9.550106"><ele>252.35</ele><time>2022-01-03T20:31:30Z</time></trkpt>
<trkpt lat="39.817063" lon="9.550292"><ele>250.2</ele><time>2022-01-03T20:31:32Z</time></trkpt>
<trkpt lat="39.81708" lon="9.55043"><ele>249.38</ele><time>2022-01-03T20:31:34Z</time></trkpt>
<trkpt lat="39.817254" lon="9.550846"><ele>251.99</ele><time>2022-01-03T20:31:36Z</time></trkpt>
<trkpt lat="39.817264" lon="9.550938"><ele>250.29</ele><time>2022-01-03T20:31:38Z</time></trkpt>
<trkpt lat="39.817239" lon="9.551096"><ele>245.86</ele><time>2022-01-03T20:31:40Z</time></trkpt>
<trkpt lat="39.817141" lon="9.551349"><ele>238.55</ele><time>2022-01-03T20:31:42Z</time></trkpt>
<trkpt lat="39.817114" lon="9.551485"><ele>237.37</ele><time>2022-01-03T20:31:44Z</time></trkpt>
<trkpt lat="39.817106" lon="9.551636"><ele>237.57</ele><time>2022-01-03T20:31:46Z</time></trkpt>
<trkpt lat="39.817154" lon="9.551767"><ele>238.21</ele><time>2022-01-03T20:31:48Z</time></trkpt>
<trkpt lat="39.817212" lon="9.551806"><ele>239.27</ele><time>2022-01-03T20:31:50Z</time></trkpt>
<trkpt lat="39.817323" lon="9.551834"><ele>239.48</ele><time>2022-01-03T20:31:52Z</time></trkpt>
<trkpt lat="39.817407" lon="9.551792"><ele>240.38</ele><time>2022-01-03T20:31:54Z</time></trkpt>
<trkpt lat="39.818763" lon="9.550808"><ele>240.26</ele><time>2022-01-03T20:31:56Z</time></trkpt>
<trkpt lat="39.818832" lon="9.550813"><ele>239.43</ele><time>2022-01-03T20:31:58Z</time></trkpt>
<trkpt lat="39.818921" lon="9.550857"><ele>238.26</ele><time>2022-01-03T20:32:00Z</time></trkpt>
<trkpt lat="39.81897" lon="9.550907"><ele>238.19</ele><time>2022-01-03T20:32:02Z</time></trkpt>
<trkpt lat="39.819001" lon="9.550974"><ele>236.88</ele><time>2022-01-03T20:32:04Z</time></trkpt>
<trkpt lat="39.819347" lon="9.552397"><ele>211.73</ele><time>2022-01-03T20:32:06Z</time></trkpt>
<trkpt lat="39.819398" lon="9.552511"><ele>209.49</ele><time>2022-01-03T20:32:08Z</time></trkpt>
<trkpt lat="39.819444" lon="9.55257"><ele>208.71</ele><time>2022-01-03T20:32:10Z</time></trkpt>
<trkpt lat="39.819543" lon="9.552615"><ele>206.92</ele><time>2022-01-03T20:32:12Z</time></trkpt>
<trkpt lat="39.820068" lon="9.552541"><ele>212.23</ele><time>2022-01-03T20:32:14Z</time></trkpt>
<trkpt lat="39.820184" lon="9.552561"><ele>215.72</ele><time>2022-01-03T20:32:16Z</time></trkpt>
<trkpt lat="39.82026" lon="9.55261"><ele>216.81</ele><time>2022-01-03T20:32:18Z</time></trkpt>
<trkpt lat="39.820326" lon="9.552731"><ele>215.31</ele><time>2022-01-03T20:32:20Z</time></trkpt>
<trkpt lat="39.820374" lon="9.553019"><ele>207.97</ele><time>2022-01-03T20:32:22Z</time></trkpt>
<trkpt lat="39.820406" lon="9.553128"><ele>205.4</ele><time>2022-01-03T20:32:24Z</time></trkpt>
<trkpt lat="39.820462" lon="9.553213"><ele>203.84</ele><time>2022-01-03T20:32:26Z</time></trkpt>
<trkpt lat="39.820562" lon="9.553259"><ele>203.95</ele><time>2022-01-03T20:32:28Z</time></trkpt>
<trkpt lat="39.82087" lon="9.553194"><ele>206.93</ele><time>2022-01-03T20:32:30Z</time></trkpt>
<trkpt lat="39.820967" lon="9.553209"><ele>205.98</ele><time>2022-01-03T20:32:32Z</time></trkpt>
<trkpt lat="39.821414" lon="9.553467"><ele>197.92</ele><time>2022-01-03T20:32:34Z</time></trkpt>
<trkpt lat="39.821505" lon="9.553566"><ele>197.27</ele><time>2022-01-03T20:32:36Z</time></trkpt>
<trkpt lat="39.82156" lon="9.553722"><ele>195.41</ele><time>2022-01-03T20:32:38Z</time></trkpt>
<trkpt lat="39.821775" lon="9.555472"><ele>170.95</ele><time>2022-01-03T20:32:40Z</time></trkpt>
<trkpt lat="39.82181" lon="9.555589"><ele>169.25</ele><time>2022-01-03T20:32:42Z</time></trkpt>
<trkpt lat="39.821891" lon="9.555725"><ele>168.33</ele><time>2022-01-03T20:32:44Z</time></trkpt>
<trkpt lat="39.821962" lon="9.555774"><ele>168.8</ele><time>2022-01-03T20:32:46Z</time></trkpt>
<trkpt lat="39.8221" lon="9.555806"><ele>168.45</ele><time>2022-01-03T20:32:48Z</time></trkpt>
<trkpt lat="39.822195" lon="9.555779"><ele>169.82</ele><time>2022-01-03T20:32:50Z</time></trkpt>
<trkpt lat="39.822293" lon="9.55572"><ele>170.23</ele><time>2022-01-03T20:32:52Z</time></trkpt>
<trkpt lat="39.822928" lon="9.554994"><ele>171.2</ele><time>2022-01-03T20:32:54Z</time></trkpt>
<trkpt lat="39.823127" lon="9.554851"><ele>170.04</ele><time>2022-01-03T20:32:56Z</time></trkpt>
<trkpt lat="39.823946" lon="9.55463"><ele>155.01</ele><time>2022-01-03T20:32:58Z</time></trkpt>
<trkpt lat="39.824015" lon="9.554549"><ele>154.96</ele><time>2022-01-03T20:32:59Z</time></trkpt>
<trkpt lat="39.824129" lon="9.554176"><ele>156.66</ele><time>2022-01-03T20:33:01Z</time></trkpt>
<trkpt lat="39.824226" lon="9.554093"><ele>153.99</ele><time>2022-01-03T20:33:03Z</time></trkpt>
<trkpt lat="39.824311" lon="9.554074"><ele>152.39</ele><time>2022-01-03T20:33:05Z</time></trkpt>
<trkpt lat="39.824667" lon="9.55419"><ele>150.98</ele><time>2022-01-03T20:33:07Z</time></trkpt>
<trkpt lat="39.82478" lon="9.554279"><ele>152.98</ele><time>2022-01-03T20:33:09Z</time></trkpt>
<trkpt lat="39.824835" lon="9.554492"><ele>152.54</ele><time>2022-01-03T20:33:11Z</time></trkpt>
<trkpt lat="39.824815" lon="9.55562"><ele>136.81</ele><time>2022-01-03T20:33:13Z</time></trkpt>
<trkpt lat="39.824819" lon="9.555843"><ele>133.93</ele><time>2022-01-03T20:33:15Z</time></trkpt>
<trkpt lat="39.82484" lon="9.555962"><ele>132.36</ele><time>2022-01-03T20:33:17Z</time></trkpt>
<trkpt lat="39.8249" lon="9.556091"><ele>130.69</ele><time>2022-01-03T20:33:19Z</time></trkpt>
<trkpt lat="39.825982" lon="9.557469"><ele>125.5</ele><time>2022-01-03T20:33:21Z</time></trkpt>
<trkpt lat="39.826034" lon="9.557564"><ele>123.71</ele><time>2022-01-03T20:33:23Z</time></trkpt>
<trkpt lat="39.826043" lon="9.557732"><ele>120.42</ele><time>2022-01-03T20:33:25Z</time></trkpt>
<trkpt lat="39.826016" lon="9.558006"><ele>116.58</ele><time>2022-01-03T20:33:27Z</time></trkpt>
<trkpt lat="39.825933" lon="9.558492"><ele>121.73</ele><time>2022-01-03T20:33:29Z</time></trkpt>
<trkpt lat="39.825882" lon="9.55857"><ele>124.37</ele><time>2022-01-03T20:33:31Z</time></trkpt>
<trkpt lat="39.825801" lon="9.558625"><ele>127.17</ele><time>2022-01-03T20:33:33Z</time></trkpt>
<trkpt lat="39.825626" lon="9.558603"><ele>128.72</ele><time>2022-01-03T20:33:35Z</time></trkpt>
<trkpt lat="39.824102" lon="9.558101"><ele>121.88</ele><time>2022-01-03T20:33:37Z</time></trkpt>
<trkpt lat="39.823955" lon="9.558108"><ele>122.51</ele><time>2022-01-03T20:33:39Z</time></trkpt>
<trkpt lat="39.823841" lon="9.55816"><ele>123.33</ele><time>2022-01-03T20:33:41Z</time></trkpt>
<trkpt lat="39.823765" lon="9.558291"><ele>124.95</ele><time>2022-01-03T20:33:43Z</time></trkpt>
<trkpt lat="39.823428" lon="9.559165"><ele>125.71</ele><time>2022-01-03T20:33:45Z</time></trkpt>
<trkpt lat="39.823328" lon="9.559373"><ele>126.16</ele><time>2022-01-03T20:33:47Z</time></trkpt>
<trkpt lat="39.82324" lon="9.559489"><ele>126.43</ele><time>2022-01-03T20:33:49Z</time></trkpt>
<trkpt lat="39.822151" lon="9.560552"><ele>118.74</ele><time>2022-01-03T20:33:51Z</time></trkpt>
<trkpt lat="39.822007" lon="9.560641"><ele>118.84</ele><time>2022-01-03T20:33:53Z</time></trkpt>
<trkpt lat="39.821828" lon="9.560686"><ele>118.52</ele><time>2022-01-03T20:33:55Z</time></trkpt>
<trkpt lat="39.820149" lon="9.560959"><ele>123.74</ele><time>2022-01-03T20:33:57Z</time></trkpt>
<trkpt lat="39.818719" lon="9.561632"><ele>117.76</ele><time>2022-01-03T20:33:59Z</time></trkpt>
<trkpt lat="39.818513" lon="9.561682"><ele>116.52</ele><time>2022-01-03T20:34:01Z</time></trkpt>
<trkpt lat="39.817702" lon="9.561504"><ele>114.21</ele><time>2022-01-03T20:34:03Z</time></trkpt>
<trkpt lat="39.817452" lon="9.561518"><ele>112.32</ele><time>2022-01-03T20:34:05Z</time></trkpt>
<trkpt lat="39.817235" lon="9.561657"><ele>111.0</ele><time>2022-01-03T20:34:07Z</time></trkpt>
<trkpt lat="39.816627" lon="9.562613"><ele>103.38</ele><time>2022-01-03T20:34:09Z</time></trkpt>
<trkpt lat="39.816204" lon="9.562796"><ele>100.87</ele><time>2022-01-03T20:34:11Z</time></trkpt>
<trkpt lat="39.815965" lon="9.563028"><ele>97.99</ele><time>2022-01-03T20:34:13Z</time></trkpt>
<trkpt lat="39.815723" lon="9.563324"><ele>94.81</ele><time>2022-01-03T20:34:15Z</time></trkpt>
<trkpt lat="39.814763" lon="9.56495"><ele>83.62</ele><time>2022-01-03T20:34:17Z</time></trkpt>
<trkpt lat="39.814193" lon="9.565841"><ele>83.24</ele><time>2022-01-03T20:34:19Z</time></trkpt>
<trkpt lat="39.814128" lon="9.566069"><ele>84.15</ele><time>2022-01-03T20:34:21Z</time></trkpt>
<trkpt lat="39.813923" lon="9.567525"><ele>80.36</ele><time>2022-01-03T20:34:23Z</time></trkpt>
<trkpt lat="39.813914" lon="9.567973"><ele>79.47</ele><time>2022-01-03T20:34:25Z</time></trkpt>
<trkpt lat="39.814279" lon="9.571019"><ele>73.4</ele><time>2022-01-03T20:34:27Z</time></trkpt>
<trkpt lat="39.814273" lon="9.571191"><ele>73.21</ele><time>2022-01-03T20:34:29Z</time></trkpt>
<trkpt lat="39.814222" lon="9.571446"><ele>72.23</ele><time>2022-01-03T20:34:31Z</time></trkpt>
<trkpt lat="39.813445" lon="9.574361"><ele>70.38</ele><time>2022-01-03T20:34:33Z</time></trkpt>
<trkpt lat="39.813429" lon="9.574557"><ele>70.29</ele><time>2022-01-03T20:34:35Z</time></trkpt>
<trkpt lat="39.81361" lon="9.575396"><ele>74.53</ele><time>2022-01-03T20:34:37Z</time></trkpt>
<trkpt lat="39.813618" lon="9.575601"><ele>74.23</ele><time>2022-01-03T20:34:39Z</time></trkpt>
<trkpt lat="39.813587" lon="9.575963"><ele>73.86</ele><time>2022-01-03T20:34:41Z</time></trkpt>
<trkpt lat="39.81353" lon="9.576196"><ele>73.48</ele><time>2022-01-03T20:34:43Z</time></trkpt>
<trkpt lat="39.813445" lon="9.576409"><ele>72.34</ele><time>2022-01-03T20:34:45Z</time></trkpt>
<trkpt lat="39.813235" lon="9.576728"><ele>69.53</ele><time>2022-01-03T20:34:47Z</time></trkpt>
<trkpt lat="39.813038" lon="9.576966"><ele>68.24</ele><time>2022-01-03T20:34:49Z</time></trkpt>
<trkpt lat="39.812807" lon="9.577332"><ele>71.88</ele><time>2022-01-03T20:34:51Z</time></trkpt>
<trkpt lat="39.811937" lon="9.578817"><ele>67.6</ele><time>2022-01-03T20:34:53Z</time></trkpt>
<trkpt lat="39.811668" lon="9.579307"><ele>66.03</ele><time>2022-01-03T20:34:55Z</time></trkpt>
<trkpt lat="39.811474" lon="9.579762"><ele>67.39</ele><time>2022-01-03T20:34:57Z</time></trkpt>
<trkpt lat="39.810803" lon="9.58195"><ele>63.11</ele><time>2022-01-03T20:34:59Z</time></trkpt>
<trkpt lat="39.810586" lon="9.582612"><ele>63.49</ele><time>2022-01-03T20:35:01Z</time></trkpt>
<trkpt lat="39.810446" lon="9.582864"><ele>62.81</ele><time>2022-01-03T20:35:03Z</time></trkpt>
<trkpt lat="39.809866" lon="9.583607"><ele>60.04</ele><time>2022-01-03T20:35:05Z</time></trkpt>
<trkpt lat="39.809785" lon="9.583754"><ele>59.45</ele><time>2022-01-03T20:35:07Z</time></trkpt>
<trkpt lat="39.80972" lon="9.584027"><ele>58.49</ele><time>2022-01-03T20:35:09Z</time></trkpt>
<trkpt lat="39.809707" lon="9.584187"><ele>57.87</ele><time>2022-01-03T20:35:11Z</time></trkpt>
<trkpt lat="39.809925" lon="9.587045"><ele>62.67</ele><time>2022-01-03T20:35:13Z</time></trkpt>
<trkpt lat="39.80993" lon="9.587465"><ele>63.58</ele><time>2022-01-03T20:35:15Z</time></trkpt>
<trkpt lat="39.809898" lon="9.58771"><ele>62.69</ele><time>2022-01-03T20:35:17Z</time></trkpt>
<trkpt lat="39.809557" lon="9.589056"><ele>61.53</ele><time>2022-01-03T20:35:19Z</time></trkpt>
<trkpt lat="39.809345" lon="9.58961"><ele>61.05</ele><time>2022-01-03T20:35:20Z</time></trkpt>
<trkpt lat="39.809185" lon="9.590075"><ele>62.67</ele><time>2022-01-03T20:35:22Z</time></trkpt>
<trkpt lat="39.808987" lon="9.590293"><ele>59.33</ele><time>2022-01-03T20:35:24Z</time></trkpt>
<trkpt lat="39.808595" lon="9.590645"><ele>54.81</ele><time>2022-01-03T20:35:26Z</time></trkpt>
<trkpt lat="39.808135" lon="9.590863"><ele>54.77</ele><time>2022-01-03T20:35:28Z</time></trkpt>
<trkpt lat="39.807907" lon="9.590942"><ele>53.42</ele><time>2022-01-03T20:35:30Z</time></trkpt>
<trkpt lat="39.807412" lon="9.591437"><ele>52.4</ele><time>2022-01-03T20:35:32Z</time></trkpt>
<trkpt lat="39.807085" lon="9.591794"><ele>52.65</ele><time>2022-01-03T20:35:34Z</time></trkpt>
<trkpt lat="39.806872" lon="9.591937"><ele>53.2</ele><time>2022-01-03T20:35:36Z</time></trkpt>
<trkpt lat="39.806241" lon="9.592116"><ele>52.45</ele><time>2022-01-03T20:35:38Z</time></trkpt>
<trkpt lat="39.806028" lon="9.5922"><ele>51.26</ele><time>2022-01-03T20:35:40Z</time></trkpt>
<trkpt lat="39.80583" lon="9.592423"><ele>51.41</ele><time>2022-01-03T20:35:42Z</time></trkpt>
<trkpt lat="39.805632" lon="9.5927"><ele>51.99</ele><time>2022-01-03T20:35:44Z</time></trkpt>
<trkpt lat="39.805145" lon="9.593665"><ele>49.47</ele><time>2022-01-03T20:35:46Z</time></trkpt>
<trkpt lat="39.804842" lon="9.594093"><ele>47.17</ele><time>2022-01-03T20:35:48Z</time></trkpt>
<trkpt lat="39.804345" lon="9.59473"><ele>46.71</ele><time>2022-01-03T20:35:50Z</time></trkpt>
<trkpt lat="39.80314" lon="9.595983"><ele>46.31</ele><time>2022-01-03T20:35:52Z</time></trkpt>
<trkpt lat="39.80319" lon="9.596122"><ele>47.46</ele><time>2022-01-03T20:35:54Z</time></trkpt>
<trkpt lat="39.803213" lon="9.596318"><ele>47.7</ele><time>2022-01-03T20:35:56Z</time></trkpt>
<trkpt lat="39.803196" lon="9.59655"><ele>47.51</ele><time>2022-01-03T20:35:58Z</time></trkpt>
<trkpt lat="39.803094" lon="9.59716"><ele>46.41</ele><time>2022-01-03T20:36:00Z</time></trkpt>
<trkpt lat="39.803036" lon="9.597416"><ele>45.79</ele><time>2022-01-03T20:36:02Z</time></trkpt>
<trkpt lat="39.802973" lon="9.597613"><ele>45.8</ele><time>2022-01-03T20:36:04Z</time></trkpt>
<trkpt lat="39.802912" lon="9.597732"><ele>45.68</ele><time>2022-01-03T20:36:06Z</time></trkpt>
<trkpt lat="39.802833" lon="9.597838"><ele>45.14</ele><time>2022-01-03T20:36:08Z</time></trkpt>
<trkpt lat="39.802689" lon="9.597973"><ele>44.53</ele><time>2022-01-03T20:36:10Z</time></trkpt>
<trkpt lat="39.802296" lon="9.598256"><ele>43.72</ele><time>2022-01-03T20:36:12Z</time></trkpt>
<trkpt lat="39.802136" lon="9.598396"><ele>44.15</ele><time>2022-01-03T20:36:14Z</time></trkpt>
<trkpt lat="39.802034" lon="9.598539"><ele>44.24</ele><time>2022-01-03T20:36:16Z</time></trkpt>
<trkpt lat="39.801966" lon="9.598698"><ele>44.1</ele><time>2022-01-03T20:36:18Z</time></trkpt>
<trkpt lat="39.801929" lon="9.598877"><ele>43.89</ele><time>2022-01-03T20:36:20Z</time></trkpt>
<trkpt lat="39.801907" lon="9.599138"><ele>42.83</ele><time>2022-01-03T20:36:22Z</time></trkpt>
<trkpt lat="39.801917" lon="9.599589"><ele>40.86</ele><time>2022-01-03T20:36:24Z</time></trkpt>
<trkpt lat="39.802021" lon="9.600338"><ele>41.28</ele><time>2022-01-03T20:36:25Z</time></trkpt>
<trkpt lat="39.802116" lon="9.600832"><ele>42.85</ele><time>2022-01-03T20:36:27Z</time></trkpt>
<trkpt lat="39.802151" lon="9.601159"><ele>43.41</ele><time>2022-01-03T20:36:29Z</time></trkpt>
<trkpt lat="39.802143" lon="9.6014"><ele>44.11</ele><time>2022-01-03T20:36:31Z</time></trkpt>
<trkpt lat="39.80209" lon="9.60173"><ele>43.05</ele><time>2022-01-03T20:36:33Z</time></trkpt>
<trkpt lat="39.80189" lon="9.602564"><ele>41.88</ele><time>2022-01-03T20:36:35Z</time></trkpt>
<trkpt lat="39.801748" lon="9.602995"><ele>43.08</ele><time>2022-01-03T20:36:37Z</time></trkpt>
<trkpt lat="39.801478" lon="9.603593"><ele>44.58</ele><time>2022-01-03T20:36:39Z</time></trkpt>
<trkpt lat="39.800916" lon="9.604738"><ele>42.67</ele><time>2022-01-03T20:36:41Z</time></trkpt>
<trkpt lat="39.800443" lon="9.605581"><ele>45.69</ele><time>2022-01-03T20:36:43Z</time></trkpt>
<trkpt lat="39.800321" lon="9.605714"><ele>45.73</ele><time>2022-01-03T20:36:45Z</time></trkpt>
<trkpt lat="39.799709" lon="9.606132"><ele>46.31</ele><time>2022-01-03T20:36:47Z</time></trkpt>
<trkpt lat="39.799436" lon="9.606385"><ele>46.78</ele><time>2022-01-03T20:36:49Z</time></trkpt>
<trkpt lat="39.799241" lon="9.606618"><ele>45.42</ele><time>2022-01-03T20:36:51Z</time></trkpt>
<trkpt lat="39.799077" lon="9.60693"><ele>45.57</ele><time>2022-01-03T20:36:53Z</time></trkpt>
<trkpt lat="39.798195" lon="9.609065"><ele>43.95</ele><time>2022-01-03T20:36:55Z</time></trkpt>
<trkpt lat="39.797897" lon="9.609659"><ele>42.91</ele><time>2022-01-03T20:36:57Z</time></trkpt>
<trkpt lat="39.797801" lon="9.609881"><ele>42.04</ele><time>2022-01-03T20:36:59Z</time></trkpt>
<trkpt lat="39.797511" lon="9.610805"><ele>45.08</ele><time>2022-01-03T20:37:01Z</time></trkpt>
<trkpt lat="39.797183" lon="9.611757"><ele>47.67</ele><time>2022-01-03T20:37:03Z</time></trkpt>
<trkpt lat="39.797124" lon="9.611982"><ele>47.62</ele><time>2022-01-03T20:37:06Z</time></trkpt>
<trkpt lat="39.797119" lon="9.612175"><ele>47.93</ele><time>2022-01-03T20:37:09Z</time></trkpt>
<trkpt lat="39.797136" lon="9.612301"><ele>48.7</ele><time>2022-01-03T20:37:11Z</time></trkpt>
<trkpt lat="39.797292" lon="9.612879"><ele>50.99</ele><time>2022-01-03T20:37:14Z</time></trkpt>
<trkpt lat="39.797346" lon="9.613206"><ele>47.78</ele><time>2022-01-03T20:37:17Z</time></trkpt>
<trkpt lat="39.797347" lon="9.613544"><ele>46.53</ele><time>2022-01-03T20:37:20Z</time></trkpt>
<trkpt lat="39.797262" lon="9.613846"><ele>46.86</ele><time>2022-01-03T20:37:22Z</time></trkpt>
<trkpt lat="39.797132" lon="9.614122"><ele>47.43</ele><time>2022-01-03T20:37:25Z</time></trkpt>
<trkpt lat="39.796842" lon="9.614555"><ele>46.48</ele><time>2022-01-03T20:37:28Z</time></trkpt>
<trkpt lat="39.796762" lon="9.614752"><ele>45.58</ele><time>2022-01-03T20:37:30Z</time></trkpt>
<trkpt lat="39.796729" lon="9.614931"><ele>44.69</ele><time>2022-01-03T20:37:33Z</time></trkpt>
<trkpt lat="39.796726" lon="9.615164"><ele>43.84</ele><time>2022-01-03T20:37:36Z</time></trkpt>
<trkpt lat="39.797024" lon="9.616236"><ele>41.0</ele><time>2022-01-03T20:37:38Z</time></trkpt>
<trkpt lat="39.797056" lon="9.61643"><ele>40.97</ele><time>2022-01-03T20:37:41Z</time></trkpt>
<trkpt lat="39.796789" lon="9.618278"><ele>42.24</ele><time>2022-01-03T20:37:44Z</time></trkpt>
<trkpt lat="39.796682" lon="9.618767"><ele>40.8</ele><time>2022-01-03T20:37:47Z</time></trkpt>
<trkpt lat="39.796634" lon="9.619112"><ele>41.57</ele><time>2022-01-03T20:37:49Z</time></trkpt>
<trkpt lat="39.796602" lon="9.619892"><ele>43.61</ele><time>2022-01-03T20:37:52Z</time></trkpt>
<trkpt lat="39.796625" lon="9.620634"><ele>44.72</ele><time>2022-01-03T20:37:55Z</time></trkpt>
<trkpt lat="39.796659" lon="9.620874"><ele>43.85</ele><time>2022-01-03T20:37:57Z</time></trkpt>
<trkpt lat="39.796753" lon="9.621278"><ele>43.31</ele><time>2022-01-03T20:38:00Z</time></trkpt>
<trkpt lat="39.796861" lon="9.621637"><ele>44.32</ele><time>2022-01-03T20:38:03Z</time></trkpt>
<trkpt lat="39.79709" lon="9.62221"><ele>45.12</ele><time>2022-01-03T20:38:05Z</time></trkpt>
<trkpt lat="39.797348" lon="9.622688"><ele>42.64</ele><time>2022-01-03T20:38:08Z</time></trkpt>
<trkpt lat="39.797624" lon="9.623122"><ele>43.26</ele><time>2022-01-03T20:38:11Z</time></trkpt>
<trkpt lat="39.796343" lon="9.62324"><ele>40.06</ele><time>2022-01-03T20:38:28Z</time></trkpt>
<trkpt lat="39.796319" lon="9.623329"><ele>40.0</ele><time>2022-01-03T20:38:32Z</time></trkpt>
<trkpt lat="39.79629" lon="9.623563"><ele>40.53</ele><time>2022-01-03T20:38:35Z</time></trkpt>
<trkpt lat="39.796383" lon="9.624358"><ele>41.28</ele><time>2022-01-03T20:38:39Z</time></trkpt>
<trkpt lat="39.795992" lon="9.624355"><ele>39.57</ele><time>2022-01-03T20:38:45Z</time></trkpt>
<trkpt lat="39.795645" lon="9.624385"><ele>37.79</ele><time>2022-01-03T20:38:50Z</time></trkpt>
<trkpt lat="39.795121" lon="9.624398"><ele>35.17</ele><time>2022-01-03T20:38:56Z</time></trkpt>
<trkpt lat="39.795158" lon="9.62545"><ele>35.38</ele><time>2022-01-03T20:39:07Z</time></trkpt>
<trkpt lat="39.79465" lon="9.62548"><ele>32.82</ele><time>2022-01-03T20:39:11Z</time></trkpt>
<trkpt lat="39.794529" lon="9.625393"><ele>32.6</ele><time>2022-01-03T20:39:15Z</time></trkpt>
<trkpt lat="39.794424" lon="9.625511"><ele>31.31</ele><time>2022-01-03T20:39:20Z</time></trkpt>
<trkpt lat="39.794205" lon="9.626149"><ele>30.14</ele><time>2022-01-03T20:39:26Z</time></trkpt>
<trkpt lat="39.794082" lon="9.626406"><ele>29.76</ele><time>2022-01-03T20:39:31Z</time></trkpt>
<trkpt lat="39.793563" lon="9.62691"><ele>29.98</ele><time>2022-01-03T20:39:37Z</time></trkpt>
<trkpt lat="39.793346" lon="9.627206"><ele>30.0</ele><time>2022-01-03T20:39:42Z</time></trkpt>
<trkpt lat="39.793244" lon="9.627392"><ele>30.0</ele><time>2022-01-03T20:39:47Z</time></trkpt>
<trkpt lat="39.793089" lon="9.627881"><ele>29.12</ele><time>2022-01-03T20:39:53Z</time></trkpt>
<trkpt lat="39.79307" lon="9.628222"><ele>29.65</ele><time>2022-01-03T20:39:58Z</time></trkpt>
<trkpt lat="39.793093" lon="9.628972"><ele>30.23</ele><time>2022-01-03T20:40:04Z</time></trkpt>
<trkpt lat="39.793092" lon="9.62948"><ele>30.0</ele><time>2022-01-03T20:40:09Z</time></trkpt>
<trkpt lat="39.793036" lon="9.629989"><ele>29.86</ele><time>2022-01-03T20:40:14Z</time></trkpt>
<trkpt lat="39.793021" lon="9.630509"><ele>28.04</ele><time>2022-01-03T20:40:20Z</time></trkpt>
<trkpt lat="39.793158" lon="9.632147"><ele>28.37</ele><time>2022-01-03T20:40:25Z</time></trkpt>
<trkpt lat="39.793137" lon="9.632791"><ele>26.99</ele><time>2022-01-03T20:40:31Z</time></trkpt>
<trkpt lat="39.793148" lon="9.633088"><ele>26.59</ele><time>2022-01-03T20:40:36Z</time></trkpt>
<trkpt lat="39.793095" lon="9.634364"><ele>25.37</ele><time>2022-01-03T20:40:41Z</time></trkpt>
<trkpt lat="39.79323" lon="9.635155"><ele>18.44</ele><time>2022-01-03T20:40:47Z</time></trkpt>
<trkpt lat="39.79323" lon="9.635342"><ele>17.27</ele><time>2022-01-03T20:40:52Z</time></trkpt>
<trkpt lat="39.793074" lon="9.63599"><ele>13.91</ele><time>2022-01-03T20:40:58Z</time></trkpt>
<trkpt lat="39.793083" lon="9.6362"><ele>13.42</ele><time>2022-01-03T20:41:03Z</time></trkpt>
<trkpt lat="39.793146" lon="9.636274"><ele>13.91</ele><time>2022-01-03T20:41:08Z</time></trkpt>
<trkpt lat="39.793361" lon="9.636421"><ele>15.08</ele><time>2022-01-03T20:41:14Z</time></trkpt>
<trkpt lat="39.79337" lon="9.636463"><ele>15.0</ele><time>2022-01-03T20:41:21Z</time></trkpt>
<trkpt lat="39.793274" lon="9.638082"><ele>13.78</ele><time>2022-01-03T20:41:27Z</time></trkpt>
<trkpt lat="39.793183" lon="9.63861"><ele>14.0</ele><time>2022-01-03T20:41:34Z</time></trkpt>
<trkpt lat="39.792825" lon="9.639475"><ele>13.34</ele><time>2022-01-03T20:41:41Z</time></trkpt>
<trkpt lat="39.792473" lon="9.640619"><ele>14.9</ele><time>2022-01-03T20:41:47Z</time></trkpt>
<trkpt lat="39.791718" lon="9.64525"><ele>12.0</ele><time>2022-01-03T20:41:54Z</time></trkpt>
<trkpt lat="39.791742" lon="9.645305"><ele>12.03</ele><time>2022-01-03T20:42:01Z</time></trkpt>
<trkpt lat="39.791853" lon="9.645351"><ele>12.18</ele><time>2022-01-03T20:42:07Z</time></trkpt>
<trkpt lat="39.79186" lon="9.645419"><ele>12.35</ele><time>2022-01-03T20:42:14Z</time></trkpt>
<trkpt lat="39.791832" lon="9.645644"><ele>12.4</ele><time>2022-01-03T20:42:21Z</time></trkpt>
<trkpt lat="39.79183" lon="9.64581"><ele>12.05</ele><time>2022-01-03T20:42:27Z</time></trkpt>
<trkpt lat="39.791924" lon="9.64627"><ele>11.43</ele><time>2022-01-03T20:42:34Z</time></trkpt>
<trkpt lat="39.792047" lon="9.646636"><ele>11.7</ele><time>2022-01-03T20:42:41Z</time></trkpt>
<trkpt lat="39.792062" lon="9.64712"><ele>12.21</ele><time>2022-01-03T20:42:48Z</time></trkpt>
<trkpt lat="39.792111" lon="9.647434"><ele>12.14</ele><time>2022-01-03T20:42:54Z</time></trkpt>
<trkpt lat="39.792349" lon="9.647896"><ele>9.89</ele><time>2022-01-03T20:43:01Z</time></trkpt>
<trkpt lat="39.792705" lon="9.648765"><ele>9.41</ele><time>2022-01-03T20:43:08Z</time></trkpt>
<trkpt lat="39.79285" lon="9.649169"><ele>9.25</ele><time>2022-01-03T20:43:14Z</time></trkpt>
<trkpt lat="39.792881" lon="9.650491"><ele>8.48</ele><time>2022-01-03T20:43:21Z</time></trkpt>
<trkpt lat="39.792831" lon="9.651125"><ele>8.77</ele><time>2022-01-03T20:43:28Z</time></trkpt>
<trkpt lat="39.792698" lon="9.651939"><ele>8.28</ele><time>2022-01-03T20:43:34Z</time></trkpt>
<trkpt lat="39.792592" lon="9.653048"><ele>8.7</ele><time>2022-01-03T20:43:41Z</time></trkpt>
<trkpt lat="39.792507" lon="9.653664"><ele>9.0</ele><time>2022-01-03T20:43:48Z</time></trkpt>
<trkpt lat="39.792414" lon="9.654154"><ele>9.0</ele><time>2022-01-03T20:43:54Z</time></trkpt>
<trkpt lat="39.792296" lon="9.654484"><ele>9.73</ele><time>2022-01-03T20:44:01Z</time></trkpt>
<trkpt lat="39.792332" lon="9.654523"><ele>9.6</ele><time>2022-01-03T20:44:03Z</time></trkpt>
<trkpt lat="39.792405" lon="9.654542"><ele>9.34</ele><time>2022-01-03T20:44:05Z</time></trkpt>
<trkpt lat="39.792582" lon="9.654508"><ele>9.07</ele><time>2022-01-03T20:44:07Z</time></trkpt>
<trkpt lat="39.79263" lon="9.654567"><ele>9.2</ele><time>2022-01-03T20:44:10Z</time></trkpt>
<trkpt lat="39.792762" lon="9.654945"><ele>10.74</ele><time>2022-01-03T20:44:12Z</time></trkpt>
<trkpt lat="39.792472" lon="9.655174"><ele>10.46</ele><time>2022-01-03T20:44:18Z</time></trkpt>
<trkpt lat="39.792299" lon="9.655402"><ele>10.12</ele><time>2022-01-03T20:44:24Z</time></trkpt>
<trkpt lat="39.792186" lon="9.655692"><ele>10.1</ele><time>2022-01-03T20:44:31Z</time></trkpt>
<trkpt lat="39.792055" lon="9.656343"><ele>12.38</ele><time>2022-01-03T20:44:37Z</time></trkpt>
<trkpt lat="39.791934" lon="9.65666"><ele>12.82</ele><time>2022-01-03T20:44:43Z</time></trkpt>
<trkpt lat="39.791753" lon="9.656905"><ele>10.6</ele><time>2022-01-03T20:44:50Z</time></trkpt>
<trkpt lat="39.790773" lon="9.657339"><ele>6.91</ele><time>2022-01-03T20:44:56Z</time></trkpt>
<trkpt lat="39.789646" lon="9.657834"><ele>7.22</ele><time>2022-01-03T20:45:03Z</time></trkpt>
<trkpt lat="39.78776" lon="9.658642"><ele>8.01</ele><time>2022-01-03T20:45:09Z</time></trkpt>
<trkpt lat="39.787662" lon="9.65868"><ele>8.1</ele><time>2022-01-03T20:45:15Z</time></trkpt>
<trkpt lat="39.787526" lon="9.658682"><ele>8.23</ele><time>2022-01-03T20:45:22Z</time></trkpt>
<trkpt lat="39.78751" lon="9.658588"><ele>7.92</ele><time>2022-01-03T20:45:22Z</time></trkpt>
<trkpt lat="39.78748" lon="9.658546"><ele>7.69</ele><time>2022-01-03T20:45:23Z</time></trkpt>
<trkpt lat="39.787394" lon="9.65852"><ele>7.29</ele><time>2022-01-03T20:45:23Z</time></trkpt>
<trkpt lat="39.787337" lon="9.658552"><ele>7.2</ele><time>2022-01-03T20:45:24Z</time></trkpt>
<trkpt lat="39.787302" lon="9.658634"><ele>7.37</ele><time>2022-01-03T20:45:24Z</time></trkpt>
<trkpt lat="39.787301" lon="9.658692"><ele>7.57</ele><time>2022-01-03T20:45:25Z</time></trkpt>
<trkpt lat="39.787332" lon="9.658774"><ele>7.98</ele><time>2022-01-03T20:45:25Z</time></trkpt>
<trkpt lat="39.787287" lon="9.658834"><ele>8.03</ele><time>2022-01-03T20:45:25Z</time></trkpt>
<trkpt lat="39.787219" lon="9.65888"><ele>7.96</ele><time>2022-01-03T20:45:26Z</time></trkpt>
<trkpt lat="39.787148" lon="9.659018"><ele>8.07</ele><time>2022-01-03T20:45:42Z</time></trkpt>
<trkpt lat="39.787129" lon="9.659103"><ele>8.18</ele><time>2022-01-03T20:45:58Z</time></trkpt>
<trkpt lat="39.787223" lon="9.66166"><ele>4.0</ele><time>2022-01-03T20:46:13Z</time></trkpt>
<trkpt lat="39.787208" lon="9.662406"><ele>5.03</ele><time>2022-01-03T20:46:29Z</time></trkpt>
<trkpt lat="39.78716" lon="9.662624"><ele>5.22</ele><time>2022-01-03T20:46:45Z</time></trkpt>
<trkpt lat="39.78611" lon="9.666505"><ele>3.0</ele><time>2022-01-03T20:47:01Z</time></trkpt>
<trkpt lat="39.785643" lon="9.668916"><ele>4.93</ele><time>2022-01-03T20:47:17Z</time></trkpt>
<trkpt lat="39.785499" lon="9.669115"><ele>4.15</ele><time>2022-01-03T20:47:33Z</time></trkpt>
<trkpt lat="39.785304" lon="9.669225"><ele>3.81</ele><time>2022-01-03T20:47:48Z</time></trkpt>
<trkpt lat="39.77999" lon="9.668062"><ele>8.01</ele><time>2022-01-03T20:48:04Z</time></trkpt>
<trkpt lat="39.77732" lon="9.667776"><ele>8.99</ele><time>2022-01-03T20:48:20Z</time></trkpt>
<trkpt lat="39.77523" lon="9.667638"><ele>5.0</ele><time>2022-01-03T20:48:36Z</time></trkpt>
<trkpt lat="39.77525" lon="9.667238"><ele>5.94</ele><time>2022-01-03T20:48:45Z</time></trkpt>
<trkpt lat="39.775355" lon="9.666901"><ele>4.72</ele><time>2022-01-03T20:48:54Z</time></trkpt>
<trkpt lat="39.775472" lon="9.66663"><ele>4.17</ele><time>2022-01-03T20:49:03Z</time></trkpt>
<trkpt lat="39.776345" lon="9.664981"><ele>4.85</ele><time>2022-01-03T20:49:12Z</time></trkpt>
<trkpt lat="39.77712" lon="9.662869"><ele>7.16</ele><time>2022-01-03T20:49:22Z</time></trkpt>
<trkpt lat="39.777175" lon="9.662469"><ele>6.07</ele><time>2022-01-03T20:49:31Z</time></trkpt>
<trkpt lat="39.777292" lon="9.660212"><ele>5.31</ele><time>2022-01-03T20:49:40Z</time></trkpt>
<trkpt lat="39.777384" lon="9.660074"><ele>6.01</ele><time>2022-01-03T20:49:49Z</time></trkpt>
<trkpt lat="39.777263" lon="9.660061"><ele>5.26</ele><time>2022-01-03T20:50:01Z</time></trkpt>
<trkpt lat="39.776896" lon="9.660036"><ele>6.2</ele><time>2022-01-03T20:50:12Z</time></trkpt>
<trkpt lat="39.776573" lon="9.660012"><ele>7.03</ele><time>2022-01-03T20:50:24Z</time></trkpt>
<trkpt lat="39.776213" lon="9.660105"><ele>7.0</ele><time>2022-01-03T20:50:36Z</time></trkpt>
<trkpt lat="39.776025" lon="9.660184"><ele>7.1</ele><time>2022-01-03T20:50:47Z</time></trkpt>
<trkpt lat="39.77477" lon="9.660889"><ele>8.76</ele><time>2022-01-03T20:50:59Z</time></trkpt>
<trkpt lat="39.771149" lon="9.662923"><ele>20.26</ele><time>2022-01-03T20:51:10Z</time></trkpt>
<trkpt lat="39.769826" lon="9.663505"><ele>13.29</ele><time>2022-01-03T20:51:22Z</time></trkpt>
<trkpt lat="39.769829" lon="9.664308"><ele>11.41</ele><time>2022-01-03T20:51:29Z</time></trkpt>
<trkpt lat="39.769828" lon="9.664353"><ele>11.15</ele><time>2022-01-03T20:51:30Z</time></trkpt>
<trkpt lat="39.76995" lon="9.664431"><ele>10.24</ele><time>2022-01-03T20:51:36Z</time></trkpt>
<trkpt lat="39.769997" lon="9.664397"><ele>10.18</ele><time>2022-01-03T20:51:41Z</time></trkpt>
<trkpt lat="39.770036" lon="9.664277"><ele>10.52</ele><time>2022-01-03T20:51:47Z</time></trkpt>
<trkpt lat="39.770103" lon="9.664186"><ele>10.59</ele><time>2022-01-03T20:51:53Z</time></trkpt>
<trkpt lat="39.77032" lon="9.663971"><ele>10.7</ele><time>2022-01-03T20:51:59Z</time></trkpt>
<trkpt lat="39.770339" lon="9.663628"><ele>12.67</ele><time>2022-01-03T20:52:05Z</time></trkpt>
<trkpt lat="39.770375" lon="9.663573"><ele>13.02</ele><time>2022-01-03T20:52:11Z</time></trkpt>
<trkpt lat="39.770438" lon="9.663518"><ele>13.24</ele><time>2022-01-03T20:52:16Z</time></trkpt>
<trkpt lat="39.77062" lon="9.663453"><ele>12.81</ele><time>2022-01-03T20:52:22Z</time></trkpt>
<trkpt lat="39.77069" lon="9.663448"><ele>12.49</ele><time>2022-01-03T20:52:28Z</time></trkpt>
<trkpt lat="39.77071" lon="9.663465"><ele>12.23</ele><time>2022-01-03T20:52:34Z</time></trkpt>
<trkpt lat="39.771091" lon="9.665431"><ele>5.49</ele><time>2022-01-03T20:52:40Z</time></trkpt>
<trkpt lat="39.770918" lon="9.665894"><ele>4.63</ele><time>2022-01-03T20:52:46Z</time></trkpt>
</trkseg>
</trk>
</gpx>